<?xml version="1.0" encoding="UTF-8"?>
<gpx xmlns="http://www.topografix.com/GPX/1/1" xmlns:xsi="http://www.w3.org/2001/XMLSchema-instance" version="1.1" xsi:schemaLocation="http://www.topografix.com/GPX/1/1 http://www.topografix.com/GPX/1/1/gpx.xsd">
  <metadata>
    <name>Midnight Man 2022 - Full Distance</name>
  </metadata>
  <trk>
    <name>Midnight Man 2022 - Full Distance</name>
    <trkseg>
      <trkpt lat="51.460285" lon="0.235748">
        <ele>5.550987</ele>
        <time>2024-08-10T19:16:00.000Z</time>
      </trkpt>
      <trkpt lat="51.460319" lon="0.235209">
        <ele>5.550974</ele>
        <time>2024-08-10T19:16:04.000Z</time>
      </trkpt>
      <trkpt lat="51.460335" lon="0.235035">
        <ele>5.55099</ele>
        <time>2024-08-10T19:16:05.000Z</time>
      </trkpt>
      <trkpt lat="51.460681" lon="0.233728">
        <ele>5.524761</ele>
        <time>2024-08-10T19:16:15.000Z</time>
      </trkpt>
      <trkpt lat="51.461256" lon="0.232399">
        <ele>5.462345</ele>
        <time>2024-08-10T19:16:26.000Z</time>
      </trkpt>
      <trkpt lat="51.461317" lon="0.232245">
        <ele>5.455386</ele>
        <time>2024-08-10T19:16:27.000Z</time>
      </trkpt>
      <trkpt lat="51.461395" lon="0.232067">
        <ele>5.447154</ele>
        <time>2024-08-10T19:16:29.000Z</time>
      </trkpt>
      <trkpt lat="51.461411" lon="0.231963">
        <ele>5.442718</ele>
        <time>2024-08-10T19:16:30.000Z</time>
      </trkpt>
      <trkpt lat="51.461391" lon="0.23195">
        <ele>5.440929</ele>
        <time>2024-08-10T19:16:30.000Z</time>
      </trkpt>
      <trkpt lat="51.461392" lon="0.231958">
        <ele>5.440794</ele>
        <time>2024-08-10T19:16:30.000Z</time>
      </trkpt>
      <trkpt lat="51.461388" lon="0.231955">
        <ele>5.440671</ele>
        <time>2024-08-10T19:16:30.000Z</time>
      </trkpt>
      <trkpt lat="51.461394" lon="0.231964">
        <ele>5.440612</ele>
        <time>2024-08-10T19:16:30.000Z</time>
      </trkpt>
      <trkpt lat="51.461377" lon="0.231953">
        <ele>5.44049</ele>
        <time>2024-08-10T19:16:30.000Z</time>
      </trkpt>
      <trkpt lat="51.461379" lon="0.231967">
        <ele>5.440422</ele>
        <time>2024-08-10T19:16:30.000Z</time>
      </trkpt>
      <trkpt lat="51.46138" lon="0.231954">
        <ele>5.440314</ele>
        <time>2024-08-10T19:16:30.000Z</time>
      </trkpt>
      <trkpt lat="51.461352" lon="0.231967">
        <ele>5.42911</ele>
        <time>2024-08-10T19:16:30.000Z</time>
      </trkpt>
      <trkpt lat="51.460775" lon="0.231902">
        <ele>5.218958</ele>
        <time>2024-08-10T19:16:36.000Z</time>
      </trkpt>
      <trkpt lat="51.46069" lon="0.231904">
        <ele>5.188585</ele>
        <time>2024-08-10T19:16:37.000Z</time>
      </trkpt>
      <trkpt lat="51.460646" lon="0.231909">
        <ele>5.168188</ele>
        <time>2024-08-10T19:16:37.000Z</time>
      </trkpt>
      <trkpt lat="51.460579" lon="0.231929">
        <ele>5.141032</ele>
        <time>2024-08-10T19:16:38.000Z</time>
      </trkpt>
      <trkpt lat="51.460471" lon="0.231986">
        <ele>5.102267</ele>
        <time>2024-08-10T19:16:39.000Z</time>
      </trkpt>
      <trkpt lat="51.460451" lon="0.232047">
        <ele>5.086585</ele>
        <time>2024-08-10T19:16:39.000Z</time>
      </trkpt>
      <trkpt lat="51.460381" lon="0.232121">
        <ele>5.055583</ele>
        <time>2024-08-10T19:16:40.000Z</time>
      </trkpt>
      <trkpt lat="51.460337" lon="0.232146">
        <ele>5.04003</ele>
        <time>2024-08-10T19:16:41.000Z</time>
      </trkpt>
      <trkpt lat="51.460311" lon="0.23214">
        <ele>5.025193</ele>
        <time>2024-08-10T19:16:41.000Z</time>
      </trkpt>
      <trkpt lat="51.460306" lon="0.232125">
        <ele>5.024081</ele>
        <time>2024-08-10T19:16:41.000Z</time>
      </trkpt>
      <trkpt lat="51.460303" lon="0.23214">
        <ele>5.022939</ele>
        <time>2024-08-10T19:16:41.000Z</time>
      </trkpt>
      <trkpt lat="51.460296" lon="0.232124">
        <ele>5.022564</ele>
        <time>2024-08-10T19:16:41.000Z</time>
      </trkpt>
      <trkpt lat="51.460302" lon="0.232139">
        <ele>5.022575</ele>
        <time>2024-08-10T19:16:41.000Z</time>
      </trkpt>
      <trkpt lat="51.460289" lon="0.232128">
        <ele>5.022143</ele>
        <time>2024-08-10T19:16:41.000Z</time>
      </trkpt>
      <trkpt lat="51.460294" lon="0.232126">
        <ele>5.021697</ele>
        <time>2024-08-10T19:16:41.000Z</time>
      </trkpt>
      <trkpt lat="51.460291" lon="0.23213">
        <ele>5.020923</ele>
        <time>2024-08-10T19:16:41.000Z</time>
      </trkpt>
      <trkpt lat="51.460252" lon="0.232098">
        <ele>5.005216</ele>
        <time>2024-08-10T19:16:41.000Z</time>
      </trkpt>
      <trkpt lat="51.460227" lon="0.232059">
        <ele>4.987904</ele>
        <time>2024-08-10T19:16:41.000Z</time>
      </trkpt>
      <trkpt lat="51.460161" lon="0.232043">
        <ele>4.963123</ele>
        <time>2024-08-10T19:16:42.000Z</time>
      </trkpt>
      <trkpt lat="51.459814" lon="0.231958">
        <ele>4.833447</ele>
        <time>2024-08-10T19:16:46.000Z</time>
      </trkpt>
      <trkpt lat="51.459446" lon="0.231518">
        <ele>4.820933</ele>
        <time>2024-08-10T19:16:51.000Z</time>
      </trkpt>
      <trkpt lat="51.459162" lon="0.231315">
        <ele>4.869485</ele>
        <time>2024-08-10T19:16:54.000Z</time>
      </trkpt>
      <trkpt lat="51.459055" lon="0.231312">
        <ele>4.88691</ele>
        <time>2024-08-10T19:16:55.000Z</time>
      </trkpt>
      <trkpt lat="51.459026" lon="0.231364">
        <ele>4.894661</ele>
        <time>2024-08-10T19:16:55.000Z</time>
      </trkpt>
      <trkpt lat="51.458974" lon="0.231391">
        <ele>4.902268</ele>
        <time>2024-08-10T19:16:56.000Z</time>
      </trkpt>
      <trkpt lat="51.458769" lon="0.231587">
        <ele>4.939943</ele>
        <time>2024-08-10T19:16:59.000Z</time>
      </trkpt>
      <trkpt lat="51.458712" lon="0.231636">
        <ele>4.948983</ele>
        <time>2024-08-10T19:17:00.000Z</time>
      </trkpt>
      <trkpt lat="51.458702" lon="0.231643">
        <ele>4.949529</ele>
        <time>2024-08-10T19:17:00.000Z</time>
      </trkpt>
      <trkpt lat="51.458707" lon="0.231634">
        <ele>4.94971</ele>
        <time>2024-08-10T19:17:00.000Z</time>
      </trkpt>
      <trkpt lat="51.458717" lon="0.231641">
        <ele>4.950088</ele>
        <time>2024-08-10T19:17:00.000Z</time>
      </trkpt>
      <trkpt lat="51.458711" lon="0.231647">
        <ele>4.950464</ele>
        <time>2024-08-10T19:17:00.000Z</time>
      </trkpt>
      <trkpt lat="51.458709" lon="0.231637">
        <ele>4.950636</ele>
        <time>2024-08-10T19:17:00.000Z</time>
      </trkpt>
      <trkpt lat="51.458695" lon="0.231637">
        <ele>4.951004</ele>
        <time>2024-08-10T19:17:00.000Z</time>
      </trkpt>
      <trkpt lat="51.458707" lon="0.231648">
        <ele>4.951253</ele>
        <time>2024-08-10T19:17:00.000Z</time>
      </trkpt>
      <trkpt lat="51.458703" lon="0.231635">
        <ele>4.951269</ele>
        <time>2024-08-10T19:17:00.000Z</time>
      </trkpt>
      <trkpt lat="51.458699" lon="0.231639">
        <ele>4.951437</ele>
        <time>2024-08-10T19:17:00.000Z</time>
      </trkpt>
      <trkpt lat="51.458691" lon="0.231642">
        <ele>4.951782</ele>
        <time>2024-08-10T19:17:00.000Z</time>
      </trkpt>
      <trkpt lat="51.458692" lon="0.231646">
        <ele>4.952033</ele>
        <time>2024-08-10T19:17:00.000Z</time>
      </trkpt>
      <trkpt lat="51.458698" lon="0.231651">
        <ele>4.952405</ele>
        <time>2024-08-10T19:17:00.000Z</time>
      </trkpt>
      <trkpt lat="51.458692" lon="0.231652">
        <ele>4.952641</ele>
        <time>2024-08-10T19:17:00.000Z</time>
      </trkpt>
      <trkpt lat="51.458188" lon="0.232566">
        <ele>5.121372</ele>
        <time>2024-08-10T19:17:08.000Z</time>
      </trkpt>
      <trkpt lat="51.458174" lon="0.232577">
        <ele>5.125497</ele>
        <time>2024-08-10T19:17:08.000Z</time>
      </trkpt>
      <trkpt lat="51.458178" lon="0.232595">
        <ele>5.127868</ele>
        <time>2024-08-10T19:17:08.000Z</time>
      </trkpt>
      <trkpt lat="51.45818" lon="0.232591">
        <ele>5.128679</ele>
        <time>2024-08-10T19:17:08.000Z</time>
      </trkpt>
      <trkpt lat="51.458175" lon="0.232586">
        <ele>5.129437</ele>
        <time>2024-08-10T19:17:08.000Z</time>
      </trkpt>
      <trkpt lat="51.458176" lon="0.232585">
        <ele>5.130798</ele>
        <time>2024-08-10T19:17:08.000Z</time>
      </trkpt>
      <trkpt lat="51.458181" lon="0.232582">
        <ele>5.131557</ele>
        <time>2024-08-10T19:17:08.000Z</time>
      </trkpt>
      <trkpt lat="51.458186" lon="0.232597">
        <ele>5.132304</ele>
        <time>2024-08-10T19:17:08.000Z</time>
      </trkpt>
      <trkpt lat="51.458179" lon="0.232585">
        <ele>5.13311</ele>
        <time>2024-08-10T19:17:08.000Z</time>
      </trkpt>
      <trkpt lat="51.458181" lon="0.232588">
        <ele>5.134141</ele>
        <time>2024-08-10T19:17:08.000Z</time>
      </trkpt>
      <trkpt lat="51.458178" lon="0.232603">
        <ele>5.135159</ele>
        <time>2024-08-10T19:17:08.000Z</time>
      </trkpt>
      <trkpt lat="51.458176" lon="0.232609">
        <ele>5.136192</ele>
        <time>2024-08-10T19:17:08.000Z</time>
      </trkpt>
      <trkpt lat="51.45817" lon="0.232594">
        <ele>5.136996</ele>
        <time>2024-08-10T19:17:08.000Z</time>
      </trkpt>
      <trkpt lat="51.458183" lon="0.232607">
        <ele>5.138024</ele>
        <time>2024-08-10T19:17:08.000Z</time>
      </trkpt>
      <trkpt lat="51.458164" lon="0.232597">
        <ele>5.139055</ele>
        <time>2024-08-10T19:17:08.000Z</time>
      </trkpt>
      <trkpt lat="51.458166" lon="0.232606">
        <ele>5.140072</ele>
        <time>2024-08-10T19:17:08.000Z</time>
      </trkpt>
      <trkpt lat="51.457776" lon="0.233612">
        <ele>5.61561</ele>
        <time>2024-08-10T19:17:16.000Z</time>
      </trkpt>
      <trkpt lat="51.457466" lon="0.234603">
        <ele>6.060676</ele>
        <time>2024-08-10T19:17:24.000Z</time>
      </trkpt>
      <trkpt lat="51.457473" lon="0.234621">
        <ele>6.061076</ele>
        <time>2024-08-10T19:17:24.000Z</time>
      </trkpt>
      <trkpt lat="51.457467" lon="0.23462">
        <ele>6.061832</ele>
        <time>2024-08-10T19:17:24.000Z</time>
      </trkpt>
      <trkpt lat="51.457473" lon="0.234612">
        <ele>6.062639</ele>
        <time>2024-08-10T19:17:24.000Z</time>
      </trkpt>
      <trkpt lat="51.457477" lon="0.234618">
        <ele>6.063422</ele>
        <time>2024-08-10T19:17:24.000Z</time>
      </trkpt>
      <trkpt lat="51.457464" lon="0.234616">
        <ele>6.064192</ele>
        <time>2024-08-10T19:17:24.000Z</time>
      </trkpt>
      <trkpt lat="51.457463" lon="0.23462">
        <ele>6.064995</ele>
        <time>2024-08-10T19:17:24.000Z</time>
      </trkpt>
      <trkpt lat="51.457479" lon="0.234621">
        <ele>6.066355</ele>
        <time>2024-08-10T19:17:24.000Z</time>
      </trkpt>
      <trkpt lat="51.45747" lon="0.234629">
        <ele>6.067153</ele>
        <time>2024-08-10T19:17:24.000Z</time>
      </trkpt>
      <trkpt lat="51.457462" lon="0.234634">
        <ele>6.067911</ele>
        <time>2024-08-10T19:17:24.000Z</time>
      </trkpt>
      <trkpt lat="51.457478" lon="0.234631">
        <ele>6.06912</ele>
        <time>2024-08-10T19:17:24.000Z</time>
      </trkpt>
      <trkpt lat="51.457472" lon="0.234633">
        <ele>6.069867</ele>
        <time>2024-08-10T19:17:24.000Z</time>
      </trkpt>
      <trkpt lat="51.457471" lon="0.234638">
        <ele>6.071071</ele>
        <time>2024-08-10T19:17:24.000Z</time>
      </trkpt>
      <trkpt lat="51.457468" lon="0.234634">
        <ele>6.073177</ele>
        <time>2024-08-10T19:17:24.000Z</time>
      </trkpt>
      <trkpt lat="51.456923" lon="0.236938">
        <ele>7.129486</ele>
        <time>2024-08-10T19:17:41.000Z</time>
      </trkpt>
      <trkpt lat="51.456896" lon="0.236964">
        <ele>7.143459</ele>
        <time>2024-08-10T19:17:41.000Z</time>
      </trkpt>
      <trkpt lat="51.456899" lon="0.236973">
        <ele>7.14492</ele>
        <time>2024-08-10T19:17:41.000Z</time>
      </trkpt>
      <trkpt lat="51.456909" lon="0.23697">
        <ele>7.146035</ele>
        <time>2024-08-10T19:17:41.000Z</time>
      </trkpt>
      <trkpt lat="51.456901" lon="0.236974">
        <ele>7.146893</ele>
        <time>2024-08-10T19:17:41.000Z</time>
      </trkpt>
      <trkpt lat="51.456903" lon="0.236976">
        <ele>7.148002</ele>
        <time>2024-08-10T19:17:41.000Z</time>
      </trkpt>
      <trkpt lat="51.456906" lon="0.236975">
        <ele>7.149116</ele>
        <time>2024-08-10T19:17:41.000Z</time>
      </trkpt>
      <trkpt lat="51.4569" lon="0.236986">
        <ele>7.150985</ele>
        <time>2024-08-10T19:17:41.000Z</time>
      </trkpt>
      <trkpt lat="51.456903" lon="0.236993">
        <ele>7.151791</ele>
        <time>2024-08-10T19:17:41.000Z</time>
      </trkpt>
      <trkpt lat="51.456892" lon="0.236994">
        <ele>7.152658</ele>
        <time>2024-08-10T19:17:41.000Z</time>
      </trkpt>
      <trkpt lat="51.456895" lon="0.23698">
        <ele>7.15378</ele>
        <time>2024-08-10T19:17:41.000Z</time>
      </trkpt>
      <trkpt lat="51.456548" lon="0.237944">
        <ele>7.658168</ele>
        <time>2024-08-10T19:17:49.000Z</time>
      </trkpt>
      <trkpt lat="51.456543" lon="0.237964">
        <ele>7.674126</ele>
        <time>2024-08-10T19:17:49.000Z</time>
      </trkpt>
      <trkpt lat="51.45655" lon="0.237973">
        <ele>7.677128</ele>
        <time>2024-08-10T19:17:49.000Z</time>
      </trkpt>
      <trkpt lat="51.456547" lon="0.237972">
        <ele>7.678091</ele>
        <time>2024-08-10T19:17:49.000Z</time>
      </trkpt>
      <trkpt lat="51.456542" lon="0.237974">
        <ele>7.679818</ele>
        <time>2024-08-10T19:17:49.000Z</time>
      </trkpt>
      <trkpt lat="51.456541" lon="0.237972">
        <ele>7.681117</ele>
        <time>2024-08-10T19:17:49.000Z</time>
      </trkpt>
      <trkpt lat="51.456543" lon="0.237973">
        <ele>7.683017</ele>
        <time>2024-08-10T19:17:49.000Z</time>
      </trkpt>
      <trkpt lat="51.456535" lon="0.237984">
        <ele>7.684319</ele>
        <time>2024-08-10T19:17:49.000Z</time>
      </trkpt>
      <trkpt lat="51.456539" lon="0.237994">
        <ele>7.686043</ele>
        <time>2024-08-10T19:17:49.000Z</time>
      </trkpt>
      <trkpt lat="51.456529" lon="0.238">
        <ele>7.688635</ele>
        <time>2024-08-10T19:17:49.000Z</time>
      </trkpt>
      <trkpt lat="51.456538" lon="0.237991">
        <ele>7.69036</ele>
        <time>2024-08-10T19:17:49.000Z</time>
      </trkpt>
      <trkpt lat="51.456523" lon="0.23799">
        <ele>7.691318</ele>
        <time>2024-08-10T19:17:49.000Z</time>
      </trkpt>
      <trkpt lat="51.456535" lon="0.237994">
        <ele>7.692606</ele>
        <time>2024-08-10T19:17:49.000Z</time>
      </trkpt>
      <trkpt lat="51.456539" lon="0.238009">
        <ele>7.694331</ele>
        <time>2024-08-10T19:17:49.000Z</time>
      </trkpt>
      <trkpt lat="51.456085" lon="0.238923">
        <ele>8.28564</ele>
        <time>2024-08-10T19:17:57.000Z</time>
      </trkpt>
      <trkpt lat="51.45585" lon="0.239289">
        <ele>8.550114</ele>
        <time>2024-08-10T19:18:01.000Z</time>
      </trkpt>
      <trkpt lat="51.455862" lon="0.239294">
        <ele>8.552335</ele>
        <time>2024-08-10T19:18:01.000Z</time>
      </trkpt>
      <trkpt lat="51.45585" lon="0.239305">
        <ele>8.554246</ele>
        <time>2024-08-10T19:18:01.000Z</time>
      </trkpt>
      <trkpt lat="51.455846" lon="0.239307">
        <ele>8.555957</ele>
        <time>2024-08-10T19:18:01.000Z</time>
      </trkpt>
      <trkpt lat="51.455841" lon="0.239307">
        <ele>8.556911</ele>
        <time>2024-08-10T19:18:01.000Z</time>
      </trkpt>
      <trkpt lat="51.455846" lon="0.239312">
        <ele>8.557869</ele>
        <time>2024-08-10T19:18:01.000Z</time>
      </trkpt>
      <trkpt lat="51.455842" lon="0.239302">
        <ele>8.559167</ele>
        <time>2024-08-10T19:18:01.000Z</time>
      </trkpt>
      <trkpt lat="51.45585" lon="0.239313">
        <ele>8.560474</ele>
        <time>2024-08-10T19:18:01.000Z</time>
      </trkpt>
      <trkpt lat="51.455851" lon="0.239304">
        <ele>8.561422</ele>
        <time>2024-08-10T19:18:01.000Z</time>
      </trkpt>
      <trkpt lat="51.455845" lon="0.23931">
        <ele>8.562724</ele>
        <time>2024-08-10T19:18:01.000Z</time>
      </trkpt>
      <trkpt lat="51.455774" lon="0.239446">
        <ele>8.649768</ele>
        <time>2024-08-10T19:18:02.000Z</time>
      </trkpt>
      <trkpt lat="51.455117" lon="0.240244">
        <ele>8.978478</ele>
        <time>2024-08-10T19:18:11.000Z</time>
      </trkpt>
      <trkpt lat="51.455113" lon="0.240249">
        <ele>8.978948</ele>
        <time>2024-08-10T19:18:11.000Z</time>
      </trkpt>
      <trkpt lat="51.455124" lon="0.240239">
        <ele>8.979069</ele>
        <time>2024-08-10T19:18:11.000Z</time>
      </trkpt>
      <trkpt lat="51.455111" lon="0.240233">
        <ele>8.979213</ele>
        <time>2024-08-10T19:18:11.000Z</time>
      </trkpt>
      <trkpt lat="51.45511" lon="0.240245">
        <ele>8.979341</ele>
        <time>2024-08-10T19:18:11.000Z</time>
      </trkpt>
      <trkpt lat="51.455109" lon="0.240239">
        <ele>8.979485</ele>
        <time>2024-08-10T19:18:11.000Z</time>
      </trkpt>
      <trkpt lat="51.455124" lon="0.240252">
        <ele>8.979614</ele>
        <time>2024-08-10T19:18:11.000Z</time>
      </trkpt>
      <trkpt lat="51.455113" lon="0.240251">
        <ele>8.979939</ele>
        <time>2024-08-10T19:18:11.000Z</time>
      </trkpt>
      <trkpt lat="51.455114" lon="0.240257">
        <ele>8.980086</ele>
        <time>2024-08-10T19:18:11.000Z</time>
      </trkpt>
      <trkpt lat="51.455119" lon="0.240244">
        <ele>8.98026</ele>
        <time>2024-08-10T19:18:11.000Z</time>
      </trkpt>
      <trkpt lat="51.455104" lon="0.240256">
        <ele>8.980545</ele>
        <time>2024-08-10T19:18:11.000Z</time>
      </trkpt>
      <trkpt lat="51.455109" lon="0.240262">
        <ele>8.98086</ele>
        <time>2024-08-10T19:18:11.000Z</time>
      </trkpt>
      <trkpt lat="51.455112" lon="0.240253">
        <ele>8.981123</ele>
        <time>2024-08-10T19:18:11.000Z</time>
      </trkpt>
      <trkpt lat="51.455111" lon="0.240254">
        <ele>8.981263</ele>
        <time>2024-08-10T19:18:11.000Z</time>
      </trkpt>
      <trkpt lat="51.45509" lon="0.240285">
        <ele>8.984611</ele>
        <time>2024-08-10T19:18:11.000Z</time>
      </trkpt>
      <trkpt lat="51.45468" lon="0.240616">
        <ele>9.036305</ele>
        <time>2024-08-10T19:18:16.000Z</time>
      </trkpt>
      <trkpt lat="51.454613" lon="0.240686">
        <ele>9.046533</ele>
        <time>2024-08-10T19:18:17.000Z</time>
      </trkpt>
      <trkpt lat="51.454599" lon="0.24069">
        <ele>9.046766</ele>
        <time>2024-08-10T19:18:17.000Z</time>
      </trkpt>
      <trkpt lat="51.454597" lon="0.24069">
        <ele>9.04704</ele>
        <time>2024-08-10T19:18:17.000Z</time>
      </trkpt>
      <trkpt lat="51.4546" lon="0.240681">
        <ele>9.047175</ele>
        <time>2024-08-10T19:18:17.000Z</time>
      </trkpt>
      <trkpt lat="51.454597" lon="0.240691">
        <ele>9.047452</ele>
        <time>2024-08-10T19:18:17.000Z</time>
      </trkpt>
      <trkpt lat="51.454599" lon="0.240691">
        <ele>9.047702</ele>
        <time>2024-08-10T19:18:17.000Z</time>
      </trkpt>
      <trkpt lat="51.454591" lon="0.240687">
        <ele>9.047837</ele>
        <time>2024-08-10T19:18:17.000Z</time>
      </trkpt>
      <trkpt lat="51.454602" lon="0.240686">
        <ele>9.047827</ele>
        <time>2024-08-10T19:18:17.000Z</time>
      </trkpt>
      <trkpt lat="51.454606" lon="0.240699">
        <ele>9.047829</ele>
        <time>2024-08-10T19:18:17.000Z</time>
      </trkpt>
      <trkpt lat="51.455112" lon="0.240241">
        <ele>9.116627</ele>
        <time>2024-08-10T19:18:23.000Z</time>
      </trkpt>
      <trkpt lat="51.455121" lon="0.240242">
        <ele>9.116631</ele>
        <time>2024-08-10T19:18:23.000Z</time>
      </trkpt>
      <trkpt lat="51.455491" lon="0.239764">
        <ele>8.883314</ele>
        <time>2024-08-10T19:18:28.000Z</time>
      </trkpt>
      <trkpt lat="51.455853" lon="0.23931">
        <ele>8.54162</ele>
        <time>2024-08-10T19:18:33.000Z</time>
      </trkpt>
      <trkpt lat="51.455841" lon="0.239305">
        <ele>8.541629</ele>
        <time>2024-08-10T19:18:33.000Z</time>
      </trkpt>
      <trkpt lat="51.456203" lon="0.238633">
        <ele>8.145442</ele>
        <time>2024-08-10T19:18:39.000Z</time>
      </trkpt>
      <trkpt lat="51.456536" lon="0.237966">
        <ele>7.748595</ele>
        <time>2024-08-10T19:18:45.000Z</time>
      </trkpt>
      <trkpt lat="51.456543" lon="0.237965">
        <ele>7.748592</ele>
        <time>2024-08-10T19:18:45.000Z</time>
      </trkpt>
      <trkpt lat="51.456906" lon="0.236968">
        <ele>7.214189</ele>
        <time>2024-08-10T19:18:53.000Z</time>
      </trkpt>
      <trkpt lat="51.456911" lon="0.236978">
        <ele>7.214183</ele>
        <time>2024-08-10T19:18:53.000Z</time>
      </trkpt>
      <trkpt lat="51.457186" lon="0.235794">
        <ele>6.632689</ele>
        <time>2024-08-10T19:19:02.000Z</time>
      </trkpt>
      <trkpt lat="51.457467" lon="0.234616">
        <ele>6.09158</ele>
        <time>2024-08-10T19:19:11.000Z</time>
      </trkpt>
      <trkpt lat="51.457479" lon="0.234617">
        <ele>6.091585</ele>
        <time>2024-08-10T19:19:11.000Z</time>
      </trkpt>
      <trkpt lat="51.457831" lon="0.233599">
        <ele>5.607371</ele>
        <time>2024-08-10T19:19:19.000Z</time>
      </trkpt>
      <trkpt lat="51.458181" lon="0.232586">
        <ele>5.265578</ele>
        <time>2024-08-10T19:19:27.000Z</time>
      </trkpt>
      <trkpt lat="51.458181" lon="0.232592">
        <ele>5.265569</ele>
        <time>2024-08-10T19:19:27.000Z</time>
      </trkpt>
      <trkpt lat="51.458715" lon="0.231639">
        <ele>5.216963</ele>
        <time>2024-08-10T19:19:36.000Z</time>
      </trkpt>
      <trkpt lat="51.458714" lon="0.231626">
        <ele>5.216966</ele>
        <time>2024-08-10T19:19:36.000Z</time>
      </trkpt>
      <trkpt lat="51.458719" lon="0.231636">
        <ele>5.216954</ele>
        <time>2024-08-10T19:19:36.000Z</time>
      </trkpt>
      <trkpt lat="51.459102" lon="0.231227">
        <ele>5.188476</ele>
        <time>2024-08-10T19:19:41.000Z</time>
      </trkpt>
      <trkpt lat="51.459112" lon="0.231222">
        <ele>5.188468</ele>
        <time>2024-08-10T19:19:41.000Z</time>
      </trkpt>
      <trkpt lat="51.459105" lon="0.231222">
        <ele>5.188476</ele>
        <time>2024-08-10T19:19:41.000Z</time>
      </trkpt>
      <trkpt lat="51.459153" lon="0.230614">
        <ele>5.212804</ele>
        <time>2024-08-10T19:19:45.000Z</time>
      </trkpt>
      <trkpt lat="51.459159" lon="0.230612">
        <ele>5.212797</ele>
        <time>2024-08-10T19:19:45.000Z</time>
      </trkpt>
      <trkpt lat="51.459152" lon="0.230612">
        <ele>5.212807</ele>
        <time>2024-08-10T19:19:45.000Z</time>
      </trkpt>
      <trkpt lat="51.459283" lon="0.229837">
        <ele>5.443176</ele>
        <time>2024-08-10T19:19:51.000Z</time>
      </trkpt>
      <trkpt lat="51.459406" lon="0.229065">
        <ele>5.673655</ele>
        <time>2024-08-10T19:19:57.000Z</time>
      </trkpt>
      <trkpt lat="51.459389" lon="0.229061">
        <ele>5.67366</ele>
        <time>2024-08-10T19:19:57.000Z</time>
      </trkpt>
      <trkpt lat="51.459395" lon="0.229062">
        <ele>5.673655</ele>
        <time>2024-08-10T19:19:57.000Z</time>
      </trkpt>
      <trkpt lat="51.459449" lon="0.228162">
        <ele>5.933815</ele>
        <time>2024-08-10T19:20:03.000Z</time>
      </trkpt>
      <trkpt lat="51.459499" lon="0.227274">
        <ele>6.108445</ele>
        <time>2024-08-10T19:20:09.000Z</time>
      </trkpt>
      <trkpt lat="51.459504" lon="0.227275">
        <ele>6.108442</ele>
        <time>2024-08-10T19:20:09.000Z</time>
      </trkpt>
      <trkpt lat="51.459486" lon="0.226091">
        <ele>6.295561</ele>
        <time>2024-08-10T19:20:17.000Z</time>
      </trkpt>
      <trkpt lat="51.459468" lon="0.22491">
        <ele>6.460855</ele>
        <time>2024-08-10T19:20:25.000Z</time>
      </trkpt>
      <trkpt lat="51.459433" lon="0.223712">
        <ele>6.456695</ele>
        <time>2024-08-10T19:20:33.000Z</time>
      </trkpt>
      <trkpt lat="51.459447" lon="0.223724">
        <ele>6.456685</ele>
        <time>2024-08-10T19:20:33.000Z</time>
      </trkpt>
      <trkpt lat="51.459394" lon="0.222657">
        <ele>6.452957</ele>
        <time>2024-08-10T19:20:40.000Z</time>
      </trkpt>
      <trkpt lat="51.459343" lon="0.221586">
        <ele>6.446477</ele>
        <time>2024-08-10T19:20:47.000Z</time>
      </trkpt>
      <trkpt lat="51.459307" lon="0.220519">
        <ele>6.437634</ele>
        <time>2024-08-10T19:20:54.000Z</time>
      </trkpt>
      <trkpt lat="51.45929" lon="0.220534">
        <ele>6.437602</ele>
        <time>2024-08-10T19:20:54.000Z</time>
      </trkpt>
      <trkpt lat="51.459303" lon="0.220533">
        <ele>6.437591</ele>
        <time>2024-08-10T19:20:54.000Z</time>
      </trkpt>
      <trkpt lat="51.459305" lon="0.220517">
        <ele>6.437576</ele>
        <time>2024-08-10T19:20:54.000Z</time>
      </trkpt>
      <trkpt lat="51.459299" lon="0.220535">
        <ele>6.437536</ele>
        <time>2024-08-10T19:20:54.000Z</time>
      </trkpt>
      <trkpt lat="51.459297" lon="0.22054">
        <ele>6.437502</ele>
        <time>2024-08-10T19:20:54.000Z</time>
      </trkpt>
      <trkpt lat="51.459303" lon="0.220532">
        <ele>6.437463</ele>
        <time>2024-08-10T19:20:54.000Z</time>
      </trkpt>
      <trkpt lat="51.459322" lon="0.221235">
        <ele>6.431703</ele>
        <time>2024-08-10T19:20:59.000Z</time>
      </trkpt>
      <trkpt lat="51.459436" lon="0.223711">
        <ele>6.493723</ele>
        <time>2024-08-10T19:21:16.000Z</time>
      </trkpt>
      <trkpt lat="51.459494" lon="0.227309">
        <ele>6.42016</ele>
        <time>2024-08-10T19:21:41.000Z</time>
      </trkpt>
      <trkpt lat="51.459469" lon="0.228234">
        <ele>6.119375</ele>
        <time>2024-08-10T19:21:47.000Z</time>
      </trkpt>
      <trkpt lat="51.459374" lon="0.229416">
        <ele>5.622338</ele>
        <time>2024-08-10T19:21:55.000Z</time>
      </trkpt>
      <trkpt lat="51.459303" lon="0.229779">
        <ele>5.461856</ele>
        <time>2024-08-10T19:21:58.000Z</time>
      </trkpt>
      <trkpt lat="51.459163" lon="0.230436">
        <ele>5.200992</ele>
        <time>2024-08-10T19:22:03.000Z</time>
      </trkpt>
      <trkpt lat="51.459139" lon="0.230716">
        <ele>5.17609</ele>
        <time>2024-08-10T19:22:05.000Z</time>
      </trkpt>
      <trkpt lat="51.459136" lon="0.230973">
        <ele>5.153426</ele>
        <time>2024-08-10T19:22:07.000Z</time>
      </trkpt>
      <trkpt lat="51.45913" lon="0.231014">
        <ele>5.150317</ele>
        <time>2024-08-10T19:22:07.000Z</time>
      </trkpt>
      <trkpt lat="51.459228" lon="0.231113">
        <ele>5.1346</ele>
        <time>2024-08-10T19:22:08.000Z</time>
      </trkpt>
      <trkpt lat="51.459479" lon="0.231338">
        <ele>5.093339</ele>
        <time>2024-08-10T19:22:11.000Z</time>
      </trkpt>
      <trkpt lat="51.45978" lon="0.231792">
        <ele>5.033993</ele>
        <time>2024-08-10T19:22:16.000Z</time>
      </trkpt>
      <trkpt lat="51.460011" lon="0.231909">
        <ele>5.000238</ele>
        <time>2024-08-10T19:22:19.000Z</time>
      </trkpt>
      <trkpt lat="51.460136" lon="0.231881">
        <ele>4.983914</ele>
        <time>2024-08-10T19:22:20.000Z</time>
      </trkpt>
      <trkpt lat="51.460201" lon="0.231813">
        <ele>4.97272</ele>
        <time>2024-08-10T19:22:21.000Z</time>
      </trkpt>
      <trkpt lat="51.460211" lon="0.23176">
        <ele>4.96597</ele>
        <time>2024-08-10T19:22:21.000Z</time>
      </trkpt>
      <trkpt lat="51.46025" lon="0.231704">
        <ele>4.959144</ele>
        <time>2024-08-10T19:22:22.000Z</time>
      </trkpt>
      <trkpt lat="51.460313" lon="0.231676">
        <ele>4.961102</ele>
        <time>2024-08-10T19:22:23.000Z</time>
      </trkpt>
      <trkpt lat="51.460378" lon="0.23168">
        <ele>4.993655</ele>
        <time>2024-08-10T19:22:24.000Z</time>
      </trkpt>
      <trkpt lat="51.46042" lon="0.231716">
        <ele>5.019435</ele>
        <time>2024-08-10T19:22:25.000Z</time>
      </trkpt>
      <trkpt lat="51.460449" lon="0.231767">
        <ele>5.044856</ele>
        <time>2024-08-10T19:22:25.000Z</time>
      </trkpt>
      <trkpt lat="51.460557" lon="0.231805">
        <ele>5.100623</ele>
        <time>2024-08-10T19:22:26.000Z</time>
      </trkpt>
      <trkpt lat="51.460651" lon="0.23185">
        <ele>5.159432</ele>
        <time>2024-08-10T19:22:27.000Z</time>
      </trkpt>
      <trkpt lat="51.460789" lon="0.231894">
        <ele>5.228419</ele>
        <time>2024-08-10T19:22:29.000Z</time>
      </trkpt>
      <trkpt lat="51.461356" lon="0.231965">
        <ele>5.536015</ele>
        <time>2024-08-10T19:22:35.000Z</time>
      </trkpt>
      <trkpt lat="51.461425" lon="0.231963">
        <ele>5.57553</ele>
        <time>2024-08-10T19:22:36.000Z</time>
      </trkpt>
      <trkpt lat="51.461461" lon="0.231831">
        <ele>5.62417</ele>
        <time>2024-08-10T19:22:37.000Z</time>
      </trkpt>
      <trkpt lat="51.461524" lon="0.231595">
        <ele>5.710117</ele>
        <time>2024-08-10T19:22:39.000Z</time>
      </trkpt>
      <trkpt lat="51.46157" lon="0.231338">
        <ele>5.799471</ele>
        <time>2024-08-10T19:22:41.000Z</time>
      </trkpt>
      <trkpt lat="51.461615" lon="0.231141">
        <ele>5.871378</ele>
        <time>2024-08-10T19:22:42.000Z</time>
      </trkpt>
      <trkpt lat="51.461662" lon="0.2305">
        <ele>6.132842</ele>
        <time>2024-08-10T19:22:46.000Z</time>
      </trkpt>
      <trkpt lat="51.461854" lon="0.2269">
        <ele>7.433485</ele>
        <time>2024-08-10T19:23:11.000Z</time>
      </trkpt>
      <trkpt lat="51.46186" lon="0.226727">
        <ele>7.473587</ele>
        <time>2024-08-10T19:23:12.000Z</time>
      </trkpt>
      <trkpt lat="51.461849" lon="0.226363">
        <ele>7.553844</ele>
        <time>2024-08-10T19:23:15.000Z</time>
      </trkpt>
      <trkpt lat="51.461817" lon="0.226207">
        <ele>7.588958</ele>
        <time>2024-08-10T19:23:16.000Z</time>
      </trkpt>
      <trkpt lat="51.46098" lon="0.224093">
        <ele>7.724232</ele>
        <time>2024-08-10T19:23:33.000Z</time>
      </trkpt>
      <trkpt lat="51.460803" lon="0.223767">
        <ele>7.701124</ele>
        <time>2024-08-10T19:23:36.000Z</time>
      </trkpt>
      <trkpt lat="51.460537" lon="0.223441">
        <ele>7.672956</ele>
        <time>2024-08-10T19:23:40.000Z</time>
      </trkpt>
      <trkpt lat="51.460504" lon="0.22342">
        <ele>7.670232</ele>
        <time>2024-08-10T19:23:40.000Z</time>
      </trkpt>
      <trkpt lat="51.46053" lon="0.223445">
        <ele>7.667495</ele>
        <time>2024-08-10T19:23:40.000Z</time>
      </trkpt>
      <trkpt lat="51.460789" lon="0.223765">
        <ele>7.664445</ele>
        <time>2024-08-10T19:23:44.000Z</time>
      </trkpt>
      <trkpt lat="51.460973" lon="0.224078">
        <ele>7.684972</ele>
        <time>2024-08-10T19:23:47.000Z</time>
      </trkpt>
      <trkpt lat="51.46183" lon="0.226199">
        <ele>7.682119</ele>
        <time>2024-08-10T19:24:05.000Z</time>
      </trkpt>
      <trkpt lat="51.461844" lon="0.226358">
        <ele>7.628914</ele>
        <time>2024-08-10T19:24:06.000Z</time>
      </trkpt>
      <trkpt lat="51.461851" lon="0.22673">
        <ele>7.507311</ele>
        <time>2024-08-10T19:24:09.000Z</time>
      </trkpt>
      <trkpt lat="51.461854" lon="0.226914">
        <ele>7.446526</ele>
        <time>2024-08-10T19:24:10.000Z</time>
      </trkpt>
      <trkpt lat="51.461667" lon="0.230493">
        <ele>6.150875</ele>
        <time>2024-08-10T19:24:35.000Z</time>
      </trkpt>
      <trkpt lat="51.461605" lon="0.231146">
        <ele>5.903656</ele>
        <time>2024-08-10T19:24:40.000Z</time>
      </trkpt>
      <trkpt lat="51.461583" lon="0.231346">
        <ele>5.821651</ele>
        <time>2024-08-10T19:24:41.000Z</time>
      </trkpt>
      <trkpt lat="51.461527" lon="0.231596">
        <ele>5.71975</ele>
        <time>2024-08-10T19:24:43.000Z</time>
      </trkpt>
      <trkpt lat="51.461461" lon="0.231824">
        <ele>5.684584</ele>
        <time>2024-08-10T19:24:45.000Z</time>
      </trkpt>
      <trkpt lat="51.461426" lon="0.231962">
        <ele>5.668119</ele>
        <time>2024-08-10T19:24:46.000Z</time>
      </trkpt>
      <trkpt lat="51.461387" lon="0.232059">
        <ele>5.654901</ele>
        <time>2024-08-10T19:24:47.000Z</time>
      </trkpt>
      <trkpt lat="51.461321" lon="0.232241">
        <ele>5.630478</ele>
        <time>2024-08-10T19:24:48.000Z</time>
      </trkpt>
      <trkpt lat="51.461252" lon="0.232391">
        <ele>5.60985</ele>
        <time>2024-08-10T19:24:49.000Z</time>
      </trkpt>
      <trkpt lat="51.460673" lon="0.233727">
        <ele>5.424463</ele>
        <time>2024-08-10T19:25:00.000Z</time>
      </trkpt>
      <trkpt lat="51.460339" lon="0.235042">
        <ele>5.091663</ele>
        <time>2024-08-10T19:25:10.000Z</time>
      </trkpt>
      <trkpt lat="51.460328" lon="0.235216">
        <ele>5.042231</ele>
        <time>2024-08-10T19:25:11.000Z</time>
      </trkpt>
      <trkpt lat="51.460275" lon="0.235746">
        <ele>4.89619</ele>
        <time>2024-08-10T19:25:15.000Z</time>
      </trkpt>
      <trkpt lat="51.460285" lon="0.235747">
        <ele>4.895084</ele>
        <time>2024-08-10T19:25:15.000Z</time>
      </trkpt>
      <trkpt lat="51.460244" lon="0.236058">
        <ele>4.805507</ele>
        <time>2024-08-10T19:25:17.000Z</time>
      </trkpt>
      <trkpt lat="51.460251" lon="0.23759">
        <ele>4.439043</ele>
        <time>2024-08-10T19:25:28.000Z</time>
      </trkpt>
      <trkpt lat="51.460204" lon="0.238155">
        <ele>4.322329</ele>
        <time>2024-08-10T19:25:32.000Z</time>
      </trkpt>
      <trkpt lat="51.46012" lon="0.238638">
        <ele>4.222673</ele>
        <time>2024-08-10T19:25:35.000Z</time>
      </trkpt>
      <trkpt lat="51.460102" lon="0.238698">
        <ele>4.210863</ele>
        <time>2024-08-10T19:25:35.000Z</time>
      </trkpt>
      <trkpt lat="51.460058" lon="0.238854">
        <ele>4.175834</ele>
        <time>2024-08-10T19:25:36.000Z</time>
      </trkpt>
      <trkpt lat="51.459603" lon="0.240162">
        <ele>4.015444</ele>
        <time>2024-08-10T19:25:46.000Z</time>
      </trkpt>
      <trkpt lat="51.459306" lon="0.24073">
        <ele>4.028603</ele>
        <time>2024-08-10T19:25:51.000Z</time>
      </trkpt>
      <trkpt lat="51.458598" lon="0.241564">
        <ele>4.053286</ele>
        <time>2024-08-10T19:26:01.000Z</time>
      </trkpt>
      <trkpt lat="51.458567" lon="0.241606">
        <ele>4.054799</ele>
        <time>2024-08-10T19:26:01.000Z</time>
      </trkpt>
      <trkpt lat="51.458558" lon="0.241611">
        <ele>4.05486</ele>
        <time>2024-08-10T19:26:01.000Z</time>
      </trkpt>
      <trkpt lat="51.458547" lon="0.241615">
        <ele>4.054919</ele>
        <time>2024-08-10T19:26:01.000Z</time>
      </trkpt>
      <trkpt lat="51.458543" lon="0.241609">
        <ele>4.054985</ele>
        <time>2024-08-10T19:26:01.000Z</time>
      </trkpt>
      <trkpt lat="51.458554" lon="0.241613">
        <ele>4.055058</ele>
        <time>2024-08-10T19:26:01.000Z</time>
      </trkpt>
      <trkpt lat="51.458559" lon="0.241607">
        <ele>4.055111</ele>
        <time>2024-08-10T19:26:01.000Z</time>
      </trkpt>
      <trkpt lat="51.458549" lon="0.241616">
        <ele>4.055136</ele>
        <time>2024-08-10T19:26:01.000Z</time>
      </trkpt>
      <trkpt lat="51.458599" lon="0.241566">
        <ele>4.053656</ele>
        <time>2024-08-10T19:26:02.000Z</time>
      </trkpt>
      <trkpt lat="51.459307" lon="0.240726">
        <ele>4.02919</ele>
        <time>2024-08-10T19:26:12.000Z</time>
      </trkpt>
      <trkpt lat="51.459598" lon="0.240157">
        <ele>4.016156</ele>
        <time>2024-08-10T19:26:17.000Z</time>
      </trkpt>
      <trkpt lat="51.460059" lon="0.23884">
        <ele>4.174306</ele>
        <time>2024-08-10T19:26:27.000Z</time>
      </trkpt>
      <trkpt lat="51.460103" lon="0.238693">
        <ele>4.20973</ele>
        <time>2024-08-10T19:26:28.000Z</time>
      </trkpt>
      <trkpt lat="51.460111" lon="0.238627">
        <ele>4.221681</ele>
        <time>2024-08-10T19:26:28.000Z</time>
      </trkpt>
      <trkpt lat="51.460212" lon="0.238153">
        <ele>4.322503</ele>
        <time>2024-08-10T19:26:31.000Z</time>
      </trkpt>
      <trkpt lat="51.460264" lon="0.237574">
        <ele>4.440587</ele>
        <time>2024-08-10T19:26:35.000Z</time>
      </trkpt>
      <trkpt lat="51.460251" lon="0.236056">
        <ele>4.809408</ele>
        <time>2024-08-10T19:26:46.000Z</time>
      </trkpt>
      <trkpt lat="51.460269" lon="0.235736">
        <ele>4.899871</ele>
        <time>2024-08-10T19:26:48.000Z</time>
      </trkpt>
      <trkpt lat="51.460269" lon="0.23573">
        <ele>4.900997</ele>
        <time>2024-08-10T19:26:48.000Z</time>
      </trkpt>
      <trkpt lat="51.460319" lon="0.235216">
        <ele>5.048492</ele>
        <time>2024-08-10T19:26:52.000Z</time>
      </trkpt>
      <trkpt lat="51.460337" lon="0.235037">
        <ele>5.098417</ele>
        <time>2024-08-10T19:26:53.000Z</time>
      </trkpt>
      <trkpt lat="51.46068" lon="0.233736">
        <ele>5.39417</ele>
        <time>2024-08-10T19:27:03.000Z</time>
      </trkpt>
      <trkpt lat="51.461252" lon="0.232393">
        <ele>5.381599</ele>
        <time>2024-08-10T19:27:14.000Z</time>
      </trkpt>
      <trkpt lat="51.461327" lon="0.232244">
        <ele>5.380193</ele>
        <time>2024-08-10T19:27:15.000Z</time>
      </trkpt>
      <trkpt lat="51.461384" lon="0.232063">
        <ele>5.378547</ele>
        <time>2024-08-10T19:27:16.000Z</time>
      </trkpt>
      <trkpt lat="51.461423" lon="0.231964">
        <ele>5.377647</ele>
        <time>2024-08-10T19:27:17.000Z</time>
      </trkpt>
      <trkpt lat="51.461389" lon="0.231967">
        <ele>5.377289</ele>
        <time>2024-08-10T19:27:17.000Z</time>
      </trkpt>
      <trkpt lat="51.461382" lon="0.231963">
        <ele>5.377255</ele>
        <time>2024-08-10T19:27:17.000Z</time>
      </trkpt>
      <trkpt lat="51.461396" lon="0.231964">
        <ele>5.377224</ele>
        <time>2024-08-10T19:27:17.000Z</time>
      </trkpt>
      <trkpt lat="51.461386" lon="0.231967">
        <ele>5.377213</ele>
        <time>2024-08-10T19:27:17.000Z</time>
      </trkpt>
      <trkpt lat="51.46138" lon="0.231954">
        <ele>5.377202</ele>
        <time>2024-08-10T19:27:17.000Z</time>
      </trkpt>
      <trkpt lat="51.461392" lon="0.231966">
        <ele>5.37719</ele>
        <time>2024-08-10T19:27:17.000Z</time>
      </trkpt>
      <trkpt lat="51.461384" lon="0.231966">
        <ele>5.37715</ele>
        <time>2024-08-10T19:27:17.000Z</time>
      </trkpt>
      <trkpt lat="51.461353" lon="0.231964">
        <ele>5.37673</ele>
        <time>2024-08-10T19:27:17.000Z</time>
      </trkpt>
      <trkpt lat="51.460771" lon="0.231899">
        <ele>5.230968</ele>
        <time>2024-08-10T19:27:23.000Z</time>
      </trkpt>
      <trkpt lat="51.460704" lon="0.23191">
        <ele>5.201034</ele>
        <time>2024-08-10T19:27:24.000Z</time>
      </trkpt>
      <trkpt lat="51.460634" lon="0.231913">
        <ele>5.180946</ele>
        <time>2024-08-10T19:27:25.000Z</time>
      </trkpt>
      <trkpt lat="51.460579" lon="0.231928">
        <ele>5.154198</ele>
        <time>2024-08-10T19:27:26.000Z</time>
      </trkpt>
      <trkpt lat="51.460475" lon="0.231983">
        <ele>5.115998</ele>
        <time>2024-08-10T19:27:27.000Z</time>
      </trkpt>
      <trkpt lat="51.460448" lon="0.232041">
        <ele>5.100574</ele>
        <time>2024-08-10T19:27:28.000Z</time>
      </trkpt>
      <trkpt lat="51.460392" lon="0.232123">
        <ele>5.070022</ele>
        <time>2024-08-10T19:27:29.000Z</time>
      </trkpt>
      <trkpt lat="51.460353" lon="0.232138">
        <ele>5.054709</ele>
        <time>2024-08-10T19:27:29.000Z</time>
      </trkpt>
      <trkpt lat="51.460297" lon="0.232133">
        <ele>5.040085</ele>
        <time>2024-08-10T19:27:30.000Z</time>
      </trkpt>
      <trkpt lat="51.460292" lon="0.232128">
        <ele>5.038989</ele>
        <time>2024-08-10T19:27:30.000Z</time>
      </trkpt>
      <trkpt lat="51.460295" lon="0.232125">
        <ele>5.037865</ele>
        <time>2024-08-10T19:27:30.000Z</time>
      </trkpt>
      <trkpt lat="51.460288" lon="0.232141">
        <ele>5.037503</ele>
        <time>2024-08-10T19:27:30.000Z</time>
      </trkpt>
      <trkpt lat="51.460297" lon="0.232139">
        <ele>5.03751</ele>
        <time>2024-08-10T19:27:30.000Z</time>
      </trkpt>
      <trkpt lat="51.460287" lon="0.232139">
        <ele>5.037067</ele>
        <time>2024-08-10T19:27:30.000Z</time>
      </trkpt>
      <trkpt lat="51.460301" lon="0.232139">
        <ele>5.036653</ele>
        <time>2024-08-10T19:27:30.000Z</time>
      </trkpt>
      <trkpt lat="51.460297" lon="0.232122">
        <ele>5.035876</ele>
        <time>2024-08-10T19:27:30.000Z</time>
      </trkpt>
      <trkpt lat="51.460256" lon="0.232111">
        <ele>5.020424</ele>
        <time>2024-08-10T19:27:30.000Z</time>
      </trkpt>
      <trkpt lat="51.460214" lon="0.232043">
        <ele>5.003352</ele>
        <time>2024-08-10T19:27:31.000Z</time>
      </trkpt>
      <trkpt lat="51.460148" lon="0.232059">
        <ele>4.978946</ele>
        <time>2024-08-10T19:27:32.000Z</time>
      </trkpt>
      <trkpt lat="51.459806" lon="0.231958">
        <ele>4.851189</ele>
        <time>2024-08-10T19:27:36.000Z</time>
      </trkpt>
      <trkpt lat="51.459455" lon="0.231512">
        <ele>4.742812</ele>
        <time>2024-08-10T19:27:41.000Z</time>
      </trkpt>
      <trkpt lat="51.459164" lon="0.231329">
        <ele>4.824313</ele>
        <time>2024-08-10T19:27:44.000Z</time>
      </trkpt>
      <trkpt lat="51.45905" lon="0.231323">
        <ele>4.853536</ele>
        <time>2024-08-10T19:27:45.000Z</time>
      </trkpt>
      <trkpt lat="51.459017" lon="0.231373">
        <ele>4.866529</ele>
        <time>2024-08-10T19:27:46.000Z</time>
      </trkpt>
      <trkpt lat="51.458964" lon="0.231401">
        <ele>4.879291</ele>
        <time>2024-08-10T19:27:47.000Z</time>
      </trkpt>
      <trkpt lat="51.458759" lon="0.231575">
        <ele>4.942519</ele>
        <time>2024-08-10T19:27:50.000Z</time>
      </trkpt>
      <trkpt lat="51.458709" lon="0.231629">
        <ele>4.95768</ele>
        <time>2024-08-10T19:27:51.000Z</time>
      </trkpt>
      <trkpt lat="51.458704" lon="0.231632">
        <ele>4.958606</ele>
        <time>2024-08-10T19:27:51.000Z</time>
      </trkpt>
      <trkpt lat="51.458703" lon="0.231628">
        <ele>4.958928</ele>
        <time>2024-08-10T19:27:51.000Z</time>
      </trkpt>
      <trkpt lat="51.458716" lon="0.231637">
        <ele>4.95954</ele>
        <time>2024-08-10T19:27:51.000Z</time>
      </trkpt>
      <trkpt lat="51.458706" lon="0.231643">
        <ele>4.960162</ele>
        <time>2024-08-10T19:27:51.000Z</time>
      </trkpt>
      <trkpt lat="51.458697" lon="0.231645">
        <ele>4.960467</ele>
        <time>2024-08-10T19:27:51.000Z</time>
      </trkpt>
      <trkpt lat="51.458702" lon="0.231641">
        <ele>4.961102</ele>
        <time>2024-08-10T19:27:51.000Z</time>
      </trkpt>
      <trkpt lat="51.458696" lon="0.231642">
        <ele>4.96152</ele>
        <time>2024-08-10T19:27:51.000Z</time>
      </trkpt>
      <trkpt lat="51.458694" lon="0.231649">
        <ele>4.961512</ele>
        <time>2024-08-10T19:27:51.000Z</time>
      </trkpt>
      <trkpt lat="51.4587" lon="0.23164">
        <ele>4.961815</ele>
        <time>2024-08-10T19:27:51.000Z</time>
      </trkpt>
      <trkpt lat="51.458703" lon="0.231645">
        <ele>4.962388</ele>
        <time>2024-08-10T19:27:51.000Z</time>
      </trkpt>
      <trkpt lat="51.458695" lon="0.231646">
        <ele>4.962807</ele>
        <time>2024-08-10T19:27:51.000Z</time>
      </trkpt>
      <trkpt lat="51.458704" lon="0.231643">
        <ele>4.963429</ele>
        <time>2024-08-10T19:27:51.000Z</time>
      </trkpt>
      <trkpt lat="51.458705" lon="0.231656">
        <ele>4.963853</ele>
        <time>2024-08-10T19:27:51.000Z</time>
      </trkpt>
      <trkpt lat="51.458189" lon="0.232578">
        <ele>5.165739</ele>
        <time>2024-08-10T19:28:00.000Z</time>
      </trkpt>
      <trkpt lat="51.458187" lon="0.232572">
        <ele>5.16742</ele>
        <time>2024-08-10T19:28:00.000Z</time>
      </trkpt>
      <trkpt lat="51.45818" lon="0.232583">
        <ele>5.168395</ele>
        <time>2024-08-10T19:28:00.000Z</time>
      </trkpt>
      <trkpt lat="51.458174" lon="0.232588">
        <ele>5.168727</ele>
        <time>2024-08-10T19:28:00.000Z</time>
      </trkpt>
      <trkpt lat="51.45817" lon="0.232592">
        <ele>5.169034</ele>
        <time>2024-08-10T19:28:00.000Z</time>
      </trkpt>
      <trkpt lat="51.458185" lon="0.232588">
        <ele>5.169594</ele>
        <time>2024-08-10T19:28:00.000Z</time>
      </trkpt>
      <trkpt lat="51.458178" lon="0.23259">
        <ele>5.169895</ele>
        <time>2024-08-10T19:28:00.000Z</time>
      </trkpt>
      <trkpt lat="51.458186" lon="0.232599">
        <ele>5.170205</ele>
        <time>2024-08-10T19:28:00.000Z</time>
      </trkpt>
      <trkpt lat="51.458185" lon="0.232602">
        <ele>5.170543</ele>
        <time>2024-08-10T19:28:00.000Z</time>
      </trkpt>
      <trkpt lat="51.458185" lon="0.232591">
        <ele>5.170952</ele>
        <time>2024-08-10T19:28:00.000Z</time>
      </trkpt>
      <trkpt lat="51.458174" lon="0.232601">
        <ele>5.171384</ele>
        <time>2024-08-10T19:28:00.000Z</time>
      </trkpt>
      <trkpt lat="51.45818" lon="0.232607">
        <ele>5.171803</ele>
        <time>2024-08-10T19:28:00.000Z</time>
      </trkpt>
      <trkpt lat="51.458181" lon="0.232598">
        <ele>5.172125</ele>
        <time>2024-08-10T19:28:00.000Z</time>
      </trkpt>
      <trkpt lat="51.45818" lon="0.232603">
        <ele>5.172549</ele>
        <time>2024-08-10T19:28:00.000Z</time>
      </trkpt>
      <trkpt lat="51.45817" lon="0.232602">
        <ele>5.172959</ele>
        <time>2024-08-10T19:28:00.000Z</time>
      </trkpt>
      <trkpt lat="51.458165" lon="0.232608">
        <ele>5.173383</ele>
        <time>2024-08-10T19:28:00.000Z</time>
      </trkpt>
      <trkpt lat="51.457786" lon="0.233625">
        <ele>5.614437</ele>
        <time>2024-08-10T19:28:08.000Z</time>
      </trkpt>
      <trkpt lat="51.457467" lon="0.234609">
        <ele>6.053282</ele>
        <time>2024-08-10T19:28:16.000Z</time>
      </trkpt>
      <trkpt lat="51.457477" lon="0.234604">
        <ele>6.053678</ele>
        <time>2024-08-10T19:28:16.000Z</time>
      </trkpt>
      <trkpt lat="51.457481" lon="0.234617">
        <ele>6.054427</ele>
        <time>2024-08-10T19:28:16.000Z</time>
      </trkpt>
      <trkpt lat="51.457478" lon="0.234614">
        <ele>6.05522</ele>
        <time>2024-08-10T19:28:16.000Z</time>
      </trkpt>
      <trkpt lat="51.457471" lon="0.234614">
        <ele>6.056003</ele>
        <time>2024-08-10T19:28:16.000Z</time>
      </trkpt>
      <trkpt lat="51.457473" lon="0.234615">
        <ele>6.05674</ele>
        <time>2024-08-10T19:28:16.000Z</time>
      </trkpt>
      <trkpt lat="51.457466" lon="0.234622">
        <ele>6.057548</ele>
        <time>2024-08-10T19:28:16.000Z</time>
      </trkpt>
      <trkpt lat="51.457468" lon="0.234628">
        <ele>6.058884</ele>
        <time>2024-08-10T19:28:16.000Z</time>
      </trkpt>
      <trkpt lat="51.457465" lon="0.234633">
        <ele>6.059683</ele>
        <time>2024-08-10T19:28:16.000Z</time>
      </trkpt>
      <trkpt lat="51.457463" lon="0.234625">
        <ele>6.060428</ele>
        <time>2024-08-10T19:28:16.000Z</time>
      </trkpt>
      <trkpt lat="51.457465" lon="0.234625">
        <ele>6.061607</ele>
        <time>2024-08-10T19:28:16.000Z</time>
      </trkpt>
      <trkpt lat="51.457461" lon="0.234628">
        <ele>6.062357</ele>
        <time>2024-08-10T19:28:16.000Z</time>
      </trkpt>
      <trkpt lat="51.457476" lon="0.234632">
        <ele>6.063541</ele>
        <time>2024-08-10T19:28:16.000Z</time>
      </trkpt>
      <trkpt lat="51.457462" lon="0.234636">
        <ele>6.065618</ele>
        <time>2024-08-10T19:28:16.000Z</time>
      </trkpt>
      <trkpt lat="51.456918" lon="0.236947">
        <ele>7.144418</ele>
        <time>2024-08-10T19:28:33.000Z</time>
      </trkpt>
      <trkpt lat="51.456905" lon="0.236966">
        <ele>7.159035</ele>
        <time>2024-08-10T19:28:33.000Z</time>
      </trkpt>
      <trkpt lat="51.456904" lon="0.236977">
        <ele>7.160576</ele>
        <time>2024-08-10T19:28:33.000Z</time>
      </trkpt>
      <trkpt lat="51.456906" lon="0.236965">
        <ele>7.161747</ele>
        <time>2024-08-10T19:28:33.000Z</time>
      </trkpt>
      <trkpt lat="51.456906" lon="0.236984">
        <ele>7.162645</ele>
        <time>2024-08-10T19:28:33.000Z</time>
      </trkpt>
      <trkpt lat="51.456904" lon="0.236973">
        <ele>7.163805</ele>
        <time>2024-08-10T19:28:33.000Z</time>
      </trkpt>
      <trkpt lat="51.456905" lon="0.236986">
        <ele>7.164968</ele>
        <time>2024-08-10T19:28:33.000Z</time>
      </trkpt>
      <trkpt lat="51.456892" lon="0.236975">
        <ele>7.166931</ele>
        <time>2024-08-10T19:28:33.000Z</time>
      </trkpt>
      <trkpt lat="51.456908" lon="0.236987">
        <ele>7.167779</ele>
        <time>2024-08-10T19:28:33.000Z</time>
      </trkpt>
      <trkpt lat="51.456898" lon="0.236978">
        <ele>7.168688</ele>
        <time>2024-08-10T19:28:33.000Z</time>
      </trkpt>
      <trkpt lat="51.456898" lon="0.236987">
        <ele>7.169844</ele>
        <time>2024-08-10T19:28:33.000Z</time>
      </trkpt>
      <trkpt lat="51.456553" lon="0.237953">
        <ele>7.67032</ele>
        <time>2024-08-10T19:28:41.000Z</time>
      </trkpt>
      <trkpt lat="51.456539" lon="0.23796">
        <ele>7.685585</ele>
        <time>2024-08-10T19:28:41.000Z</time>
      </trkpt>
      <trkpt lat="51.456552" lon="0.237972">
        <ele>7.688475</ele>
        <time>2024-08-10T19:28:41.000Z</time>
      </trkpt>
      <trkpt lat="51.456545" lon="0.23798">
        <ele>7.689387</ele>
        <time>2024-08-10T19:28:41.000Z</time>
      </trkpt>
      <trkpt lat="51.456537" lon="0.23797">
        <ele>7.691022</ele>
        <time>2024-08-10T19:28:41.000Z</time>
      </trkpt>
      <trkpt lat="51.456535" lon="0.237983">
        <ele>7.692269</ele>
        <time>2024-08-10T19:28:41.000Z</time>
      </trkpt>
      <trkpt lat="51.456545" lon="0.237985">
        <ele>7.694105</ele>
        <time>2024-08-10T19:28:41.000Z</time>
      </trkpt>
      <trkpt lat="51.456536" lon="0.237993">
        <ele>7.695347</ele>
        <time>2024-08-10T19:28:41.000Z</time>
      </trkpt>
      <trkpt lat="51.456542" lon="0.237989">
        <ele>7.696994</ele>
        <time>2024-08-10T19:28:41.000Z</time>
      </trkpt>
      <trkpt lat="51.456526" lon="0.23799">
        <ele>7.699475</ele>
        <time>2024-08-10T19:28:41.000Z</time>
      </trkpt>
      <trkpt lat="51.456528" lon="0.238002">
        <ele>7.701123</ele>
        <time>2024-08-10T19:28:41.000Z</time>
      </trkpt>
      <trkpt lat="51.456528" lon="0.237993">
        <ele>7.702033</ele>
        <time>2024-08-10T19:28:41.000Z</time>
      </trkpt>
      <trkpt lat="51.456527" lon="0.23799">
        <ele>7.703274</ele>
        <time>2024-08-10T19:28:41.000Z</time>
      </trkpt>
      <trkpt lat="51.456524" lon="0.237995">
        <ele>7.704918</ele>
        <time>2024-08-10T19:28:41.000Z</time>
      </trkpt>
      <trkpt lat="51.456088" lon="0.238919">
        <ele>8.270672</ele>
        <time>2024-08-10T19:28:49.000Z</time>
      </trkpt>
      <trkpt lat="51.455862" lon="0.239304">
        <ele>8.523699</ele>
        <time>2024-08-10T19:28:53.000Z</time>
      </trkpt>
      <trkpt lat="51.455863" lon="0.239295">
        <ele>8.525827</ele>
        <time>2024-08-10T19:28:53.000Z</time>
      </trkpt>
      <trkpt lat="51.455855" lon="0.23931">
        <ele>8.527656</ele>
        <time>2024-08-10T19:28:53.000Z</time>
      </trkpt>
      <trkpt lat="51.455843" lon="0.239298">
        <ele>8.529315</ele>
        <time>2024-08-10T19:28:53.000Z</time>
      </trkpt>
      <trkpt lat="51.455852" lon="0.239316">
        <ele>8.530227</ele>
        <time>2024-08-10T19:28:53.000Z</time>
      </trkpt>
      <trkpt lat="51.455846" lon="0.239309">
        <ele>8.531141</ele>
        <time>2024-08-10T19:28:53.000Z</time>
      </trkpt>
      <trkpt lat="51.45585" lon="0.239315">
        <ele>8.532385</ele>
        <time>2024-08-10T19:28:53.000Z</time>
      </trkpt>
      <trkpt lat="51.455854" lon="0.239314">
        <ele>8.533609</ele>
        <time>2024-08-10T19:28:53.000Z</time>
      </trkpt>
      <trkpt lat="51.45584" lon="0.239313">
        <ele>8.534536</ele>
        <time>2024-08-10T19:28:53.000Z</time>
      </trkpt>
      <trkpt lat="51.455842" lon="0.239314">
        <ele>8.535769</ele>
        <time>2024-08-10T19:28:53.000Z</time>
      </trkpt>
      <trkpt lat="51.455776" lon="0.239431">
        <ele>8.61907</ele>
        <time>2024-08-10T19:28:54.000Z</time>
      </trkpt>
      <trkpt lat="51.455129" lon="0.240242">
        <ele>9.03669</ele>
        <time>2024-08-10T19:29:03.000Z</time>
      </trkpt>
      <trkpt lat="51.455114" lon="0.240248">
        <ele>9.036658</ele>
        <time>2024-08-10T19:29:03.000Z</time>
      </trkpt>
      <trkpt lat="51.455118" lon="0.240243">
        <ele>9.03665</ele>
        <time>2024-08-10T19:29:03.000Z</time>
      </trkpt>
      <trkpt lat="51.455117" lon="0.240239">
        <ele>9.036634</ele>
        <time>2024-08-10T19:29:03.000Z</time>
      </trkpt>
      <trkpt lat="51.455122" lon="0.240243">
        <ele>9.036637</ele>
        <time>2024-08-10T19:29:03.000Z</time>
      </trkpt>
      <trkpt lat="51.455117" lon="0.240236">
        <ele>9.036626</ele>
        <time>2024-08-10T19:29:03.000Z</time>
      </trkpt>
      <trkpt lat="51.455111" lon="0.240236">
        <ele>9.036613</ele>
        <time>2024-08-10T19:29:03.000Z</time>
      </trkpt>
      <trkpt lat="51.45511" lon="0.240253">
        <ele>9.036596</ele>
        <time>2024-08-10T19:29:03.000Z</time>
      </trkpt>
      <trkpt lat="51.455114" lon="0.240245">
        <ele>9.036598</ele>
        <time>2024-08-10T19:29:03.000Z</time>
      </trkpt>
      <trkpt lat="51.455116" lon="0.240243">
        <ele>9.036572</ele>
        <time>2024-08-10T19:29:03.000Z</time>
      </trkpt>
      <trkpt lat="51.455114" lon="0.240257">
        <ele>9.036558</ele>
        <time>2024-08-10T19:29:03.000Z</time>
      </trkpt>
      <trkpt lat="51.4551" lon="0.240252">
        <ele>9.036542</ele>
        <time>2024-08-10T19:29:03.000Z</time>
      </trkpt>
      <trkpt lat="51.455109" lon="0.240255">
        <ele>9.036536</ele>
        <time>2024-08-10T19:29:03.000Z</time>
      </trkpt>
      <trkpt lat="51.455103" lon="0.24026">
        <ele>9.036519</ele>
        <time>2024-08-10T19:29:03.000Z</time>
      </trkpt>
      <trkpt lat="51.455072" lon="0.240293">
        <ele>9.036333</ele>
        <time>2024-08-10T19:29:03.000Z</time>
      </trkpt>
      <trkpt lat="51.454686" lon="0.240615">
        <ele>9.033359</ele>
        <time>2024-08-10T19:29:08.000Z</time>
      </trkpt>
      <trkpt lat="51.454613" lon="0.240679">
        <ele>9.032768</ele>
        <time>2024-08-10T19:29:09.000Z</time>
      </trkpt>
      <trkpt lat="51.454613" lon="0.240693">
        <ele>9.032759</ele>
        <time>2024-08-10T19:29:09.000Z</time>
      </trkpt>
      <trkpt lat="51.454601" lon="0.240694">
        <ele>9.032738</ele>
        <time>2024-08-10T19:29:09.000Z</time>
      </trkpt>
      <trkpt lat="51.454607" lon="0.24069">
        <ele>9.032733</ele>
        <time>2024-08-10T19:29:09.000Z</time>
      </trkpt>
      <trkpt lat="51.454594" lon="0.240696">
        <ele>9.032722</ele>
        <time>2024-08-10T19:29:09.000Z</time>
      </trkpt>
      <trkpt lat="51.454601" lon="0.240691">
        <ele>9.0327</ele>
        <time>2024-08-10T19:29:09.000Z</time>
      </trkpt>
      <trkpt lat="51.454603" lon="0.240697">
        <ele>9.032698</ele>
        <time>2024-08-10T19:29:09.000Z</time>
      </trkpt>
      <trkpt lat="51.454602" lon="0.240702">
        <ele>9.032679</ele>
        <time>2024-08-10T19:29:09.000Z</time>
      </trkpt>
      <trkpt lat="51.454587" lon="0.240694">
        <ele>9.032677</ele>
        <time>2024-08-10T19:29:09.000Z</time>
      </trkpt>
      <trkpt lat="51.454595" lon="0.240701">
        <ele>9.032663</ele>
        <time>2024-08-10T19:29:09.000Z</time>
      </trkpt>
      <trkpt lat="51.455122" lon="0.240238">
        <ele>9.02872</ele>
        <time>2024-08-10T19:29:16.000Z</time>
      </trkpt>
      <trkpt lat="51.45512" lon="0.24024">
        <ele>9.02872</ele>
        <time>2024-08-10T19:29:16.000Z</time>
      </trkpt>
      <trkpt lat="51.455479" lon="0.239767">
        <ele>8.924788</ele>
        <time>2024-08-10T19:29:21.000Z</time>
      </trkpt>
      <trkpt lat="51.455847" lon="0.239307">
        <ele>8.586478</ele>
        <time>2024-08-10T19:29:26.000Z</time>
      </trkpt>
      <trkpt lat="51.455849" lon="0.239311">
        <ele>8.586468</ele>
        <time>2024-08-10T19:29:26.000Z</time>
      </trkpt>
      <trkpt lat="51.456185" lon="0.238651">
        <ele>8.199992</ele>
        <time>2024-08-10T19:29:32.000Z</time>
      </trkpt>
      <trkpt lat="51.456543" lon="0.237995">
        <ele>7.814316</ele>
        <time>2024-08-10T19:29:38.000Z</time>
      </trkpt>
      <trkpt lat="51.456539" lon="0.237978">
        <ele>7.814313</ele>
        <time>2024-08-10T19:29:38.000Z</time>
      </trkpt>
      <trkpt lat="51.456907" lon="0.236971">
        <ele>7.286464</ele>
        <time>2024-08-10T19:29:46.000Z</time>
      </trkpt>
      <trkpt lat="51.456909" lon="0.236971">
        <ele>7.286474</ele>
        <time>2024-08-10T19:29:46.000Z</time>
      </trkpt>
      <trkpt lat="51.457178" lon="0.235793">
        <ele>6.72635</ele>
        <time>2024-08-10T19:29:55.000Z</time>
      </trkpt>
      <trkpt lat="51.457474" lon="0.23463">
        <ele>6.181778</ele>
        <time>2024-08-10T19:30:04.000Z</time>
      </trkpt>
      <trkpt lat="51.457466" lon="0.234633">
        <ele>6.181777</ele>
        <time>2024-08-10T19:30:04.000Z</time>
      </trkpt>
      <trkpt lat="51.457818" lon="0.23361">
        <ele>5.688345</ele>
        <time>2024-08-10T19:30:12.000Z</time>
      </trkpt>
      <trkpt lat="51.458176" lon="0.232579">
        <ele>5.221694</ele>
        <time>2024-08-10T19:30:20.000Z</time>
      </trkpt>
      <trkpt lat="51.458178" lon="0.232584">
        <ele>5.221694</ele>
        <time>2024-08-10T19:30:20.000Z</time>
      </trkpt>
      <trkpt lat="51.458719" lon="0.231637">
        <ele>5.234275</ele>
        <time>2024-08-10T19:30:29.000Z</time>
      </trkpt>
      <trkpt lat="51.458712" lon="0.231628">
        <ele>5.234271</ele>
        <time>2024-08-10T19:30:29.000Z</time>
      </trkpt>
      <trkpt lat="51.458706" lon="0.231639">
        <ele>5.234276</ele>
        <time>2024-08-10T19:30:29.000Z</time>
      </trkpt>
      <trkpt lat="51.459107" lon="0.231224">
        <ele>5.241692</ele>
        <time>2024-08-10T19:30:34.000Z</time>
      </trkpt>
      <trkpt lat="51.4591" lon="0.231222">
        <ele>5.241698</ele>
        <time>2024-08-10T19:30:34.000Z</time>
      </trkpt>
      <trkpt lat="51.45911" lon="0.231232">
        <ele>5.241703</ele>
        <time>2024-08-10T19:30:34.000Z</time>
      </trkpt>
      <trkpt lat="51.459144" lon="0.230622">
        <ele>5.247677</ele>
        <time>2024-08-10T19:30:38.000Z</time>
      </trkpt>
      <trkpt lat="51.459143" lon="0.230629">
        <ele>5.247665</ele>
        <time>2024-08-10T19:30:38.000Z</time>
      </trkpt>
      <trkpt lat="51.459146" lon="0.230631">
        <ele>5.247675</ele>
        <time>2024-08-10T19:30:38.000Z</time>
      </trkpt>
      <trkpt lat="51.459267" lon="0.229842">
        <ele>5.428213</ele>
        <time>2024-08-10T19:30:44.000Z</time>
      </trkpt>
      <trkpt lat="51.459401" lon="0.229066">
        <ele>5.661095</ele>
        <time>2024-08-10T19:30:50.000Z</time>
      </trkpt>
      <trkpt lat="51.459389" lon="0.229062">
        <ele>5.661094</ele>
        <time>2024-08-10T19:30:50.000Z</time>
      </trkpt>
      <trkpt lat="51.459399" lon="0.229067">
        <ele>5.661098</ele>
        <time>2024-08-10T19:30:50.000Z</time>
      </trkpt>
      <trkpt lat="51.459451" lon="0.228164">
        <ele>5.921128</ele>
        <time>2024-08-10T19:30:56.000Z</time>
      </trkpt>
      <trkpt lat="51.459502" lon="0.227283">
        <ele>6.12998</ele>
        <time>2024-08-10T19:31:02.000Z</time>
      </trkpt>
      <trkpt lat="51.459495" lon="0.227275">
        <ele>6.129979</ele>
        <time>2024-08-10T19:31:02.000Z</time>
      </trkpt>
      <trkpt lat="51.459486" lon="0.2261">
        <ele>6.290628</ele>
        <time>2024-08-10T19:31:10.000Z</time>
      </trkpt>
      <trkpt lat="51.459453" lon="0.22491">
        <ele>6.451269</ele>
        <time>2024-08-10T19:31:18.000Z</time>
      </trkpt>
      <trkpt lat="51.459439" lon="0.22372">
        <ele>6.464142</ele>
        <time>2024-08-10T19:31:26.000Z</time>
      </trkpt>
      <trkpt lat="51.459444" lon="0.223736">
        <ele>6.464134</ele>
        <time>2024-08-10T19:31:26.000Z</time>
      </trkpt>
      <trkpt lat="51.459387" lon="0.222666">
        <ele>6.450464</ele>
        <time>2024-08-10T19:31:33.000Z</time>
      </trkpt>
      <trkpt lat="51.459348" lon="0.221606">
        <ele>6.439686</ele>
        <time>2024-08-10T19:31:40.000Z</time>
      </trkpt>
      <trkpt lat="51.459305" lon="0.220534">
        <ele>6.438829</ele>
        <time>2024-08-10T19:31:47.000Z</time>
      </trkpt>
      <trkpt lat="51.4593" lon="0.220541">
        <ele>6.438834</ele>
        <time>2024-08-10T19:31:47.000Z</time>
      </trkpt>
      <trkpt lat="51.459319" lon="0.221225">
        <ele>6.438283</ele>
        <time>2024-08-10T19:31:52.000Z</time>
      </trkpt>
      <trkpt lat="51.459435" lon="0.223717">
        <ele>6.49221</ele>
        <time>2024-08-10T19:32:09.000Z</time>
      </trkpt>
      <trkpt lat="51.459505" lon="0.227297">
        <ele>6.358687</ele>
        <time>2024-08-10T19:32:34.000Z</time>
      </trkpt>
      <trkpt lat="51.459469" lon="0.228234">
        <ele>6.164168</ele>
        <time>2024-08-10T19:32:41.000Z</time>
      </trkpt>
      <trkpt lat="51.459363" lon="0.229404">
        <ele>5.659542</ele>
        <time>2024-08-10T19:32:49.000Z</time>
      </trkpt>
      <trkpt lat="51.459303" lon="0.22979">
        <ele>5.496631</ele>
        <time>2024-08-10T19:32:52.000Z</time>
      </trkpt>
      <trkpt lat="51.459169" lon="0.230433">
        <ele>5.20577</ele>
        <time>2024-08-10T19:32:57.000Z</time>
      </trkpt>
      <trkpt lat="51.459133" lon="0.230718">
        <ele>5.092756</ele>
        <time>2024-08-10T19:32:59.000Z</time>
      </trkpt>
      <trkpt lat="51.459138" lon="0.230962">
        <ele>5.08715</ele>
        <time>2024-08-10T19:33:01.000Z</time>
      </trkpt>
      <trkpt lat="51.459135" lon="0.231">
        <ele>5.086375</ele>
        <time>2024-08-10T19:33:01.000Z</time>
      </trkpt>
      <trkpt lat="51.459214" lon="0.231126">
        <ele>5.082485</ele>
        <time>2024-08-10T19:33:02.000Z</time>
      </trkpt>
      <trkpt lat="51.459469" lon="0.231335">
        <ele>5.072269</ele>
        <time>2024-08-10T19:33:05.000Z</time>
      </trkpt>
      <trkpt lat="51.459795" lon="0.231783">
        <ele>5.05757</ele>
        <time>2024-08-10T19:33:10.000Z</time>
      </trkpt>
      <trkpt lat="51.460019" lon="0.231915">
        <ele>5.049207</ele>
        <time>2024-08-10T19:33:13.000Z</time>
      </trkpt>
      <trkpt lat="51.460125" lon="0.231878">
        <ele>5.045157</ele>
        <time>2024-08-10T19:33:14.000Z</time>
      </trkpt>
      <trkpt lat="51.460197" lon="0.231818">
        <ele>5.042395</ele>
        <time>2024-08-10T19:33:15.000Z</time>
      </trkpt>
      <trkpt lat="51.460213" lon="0.231761">
        <ele>5.040723</ele>
        <time>2024-08-10T19:33:15.000Z</time>
      </trkpt>
      <trkpt lat="51.460258" lon="0.23171">
        <ele>5.039021</ele>
        <time>2024-08-10T19:33:16.000Z</time>
      </trkpt>
      <trkpt lat="51.460323" lon="0.231679">
        <ele>5.036858</ele>
        <time>2024-08-10T19:33:17.000Z</time>
      </trkpt>
      <trkpt lat="51.460365" lon="0.23167">
        <ele>5.034749</ele>
        <time>2024-08-10T19:33:17.000Z</time>
      </trkpt>
      <trkpt lat="51.46041" lon="0.231707">
        <ele>5.033072</ele>
        <time>2024-08-10T19:33:18.000Z</time>
      </trkpt>
      <trkpt lat="51.460455" lon="0.231758">
        <ele>5.031422</ele>
        <time>2024-08-10T19:33:19.000Z</time>
      </trkpt>
      <trkpt lat="51.460557" lon="0.231818">
        <ele>5.063766</ele>
        <time>2024-08-10T19:33:20.000Z</time>
      </trkpt>
      <trkpt lat="51.460652" lon="0.231857">
        <ele>5.126239</ele>
        <time>2024-08-10T19:33:21.000Z</time>
      </trkpt>
      <trkpt lat="51.460785" lon="0.231886">
        <ele>5.199493</ele>
        <time>2024-08-10T19:33:22.000Z</time>
      </trkpt>
      <trkpt lat="51.461345" lon="0.231968">
        <ele>5.526245</ele>
        <time>2024-08-10T19:33:28.000Z</time>
      </trkpt>
      <trkpt lat="51.461423" lon="0.231967">
        <ele>5.568215</ele>
        <time>2024-08-10T19:33:29.000Z</time>
      </trkpt>
      <trkpt lat="51.461467" lon="0.231835">
        <ele>5.619875</ele>
        <time>2024-08-10T19:33:30.000Z</time>
      </trkpt>
      <trkpt lat="51.461522" lon="0.231593">
        <ele>5.711166</ele>
        <time>2024-08-10T19:33:32.000Z</time>
      </trkpt>
      <trkpt lat="51.461566" lon="0.231349">
        <ele>5.80608</ele>
        <time>2024-08-10T19:33:34.000Z</time>
      </trkpt>
      <trkpt lat="51.461612" lon="0.231142">
        <ele>5.882476</ele>
        <time>2024-08-10T19:33:36.000Z</time>
      </trkpt>
      <trkpt lat="51.461674" lon="0.230502">
        <ele>6.122812</ele>
        <time>2024-08-10T19:33:40.000Z</time>
      </trkpt>
      <trkpt lat="51.461844" lon="0.226904">
        <ele>7.453439</ele>
        <time>2024-08-10T19:34:05.000Z</time>
      </trkpt>
      <trkpt lat="51.461865" lon="0.226731">
        <ele>7.483651</ele>
        <time>2024-08-10T19:34:06.000Z</time>
      </trkpt>
      <trkpt lat="51.461843" lon="0.226358">
        <ele>7.544123</ele>
        <time>2024-08-10T19:34:09.000Z</time>
      </trkpt>
      <trkpt lat="51.461822" lon="0.226212">
        <ele>7.570596</ele>
        <time>2024-08-10T19:34:10.000Z</time>
      </trkpt>
      <trkpt lat="51.46098" lon="0.224078">
        <ele>7.737525</ele>
        <time>2024-08-10T19:34:27.000Z</time>
      </trkpt>
      <trkpt lat="51.460788" lon="0.223766">
        <ele>7.717874</ele>
        <time>2024-08-10T19:34:30.000Z</time>
      </trkpt>
      <trkpt lat="51.460533" lon="0.223447">
        <ele>7.693924</ele>
        <time>2024-08-10T19:34:34.000Z</time>
      </trkpt>
      <trkpt lat="51.460503" lon="0.223408">
        <ele>7.691602</ele>
        <time>2024-08-10T19:34:34.000Z</time>
      </trkpt>
      <trkpt lat="51.460497" lon="0.223401">
        <ele>7.690853</ele>
        <time>2024-08-10T19:34:34.000Z</time>
      </trkpt>
      <trkpt lat="51.460486" lon="0.223406">
        <ele>7.690859</ele>
        <time>2024-08-10T19:34:34.000Z</time>
      </trkpt>
      <trkpt lat="51.460487" lon="0.223414">
        <ele>7.690856</ele>
        <time>2024-08-10T19:34:34.000Z</time>
      </trkpt>
      <trkpt lat="51.460495" lon="0.223408">
        <ele>7.690114</ele>
        <time>2024-08-10T19:34:34.000Z</time>
      </trkpt>
      <trkpt lat="51.460532" lon="0.223446">
        <ele>7.687779</ele>
        <time>2024-08-10T19:34:34.000Z</time>
      </trkpt>
      <trkpt lat="51.460788" lon="0.223764">
        <ele>7.663828</ele>
        <time>2024-08-10T19:34:38.000Z</time>
      </trkpt>
      <trkpt lat="51.460975" lon="0.224077">
        <ele>7.672829</ele>
        <time>2024-08-10T19:34:41.000Z</time>
      </trkpt>
      <trkpt lat="51.461825" lon="0.226209">
        <ele>7.749038</ele>
        <time>2024-08-10T19:34:59.000Z</time>
      </trkpt>
      <trkpt lat="51.461848" lon="0.226365">
        <ele>7.689801</ele>
        <time>2024-08-10T19:35:00.000Z</time>
      </trkpt>
      <trkpt lat="51.461858" lon="0.22673">
        <ele>7.554433</ele>
        <time>2024-08-10T19:35:03.000Z</time>
      </trkpt>
      <trkpt lat="51.461848" lon="0.226903">
        <ele>7.486768</ele>
        <time>2024-08-10T19:35:04.000Z</time>
      </trkpt>
      <trkpt lat="51.461676" lon="0.230504">
        <ele>6.166296</ele>
        <time>2024-08-10T19:35:29.000Z</time>
      </trkpt>
      <trkpt lat="51.461611" lon="0.231132">
        <ele>5.938096</ele>
        <time>2024-08-10T19:35:33.000Z</time>
      </trkpt>
      <trkpt lat="51.461579" lon="0.231352">
        <ele>5.862391</ele>
        <time>2024-08-10T19:35:35.000Z</time>
      </trkpt>
      <trkpt lat="51.461515" lon="0.231595">
        <ele>5.768342</ele>
        <time>2024-08-10T19:35:37.000Z</time>
      </trkpt>
      <trkpt lat="51.461452" lon="0.231828">
        <ele>5.677861</ele>
        <time>2024-08-10T19:35:39.000Z</time>
      </trkpt>
      <trkpt lat="51.461412" lon="0.231954">
        <ele>5.642718</ele>
        <time>2024-08-10T19:35:40.000Z</time>
      </trkpt>
      <trkpt lat="51.461385" lon="0.232067">
        <ele>5.630038</ele>
        <time>2024-08-10T19:35:41.000Z</time>
      </trkpt>
      <trkpt lat="51.461326" lon="0.232255">
        <ele>5.606619</ele>
        <time>2024-08-10T19:35:42.000Z</time>
      </trkpt>
      <trkpt lat="51.461266" lon="0.232408">
        <ele>5.586838</ele>
        <time>2024-08-10T19:35:43.000Z</time>
      </trkpt>
      <trkpt lat="51.460669" lon="0.233721">
        <ele>5.409071</ele>
        <time>2024-08-10T19:35:54.000Z</time>
      </trkpt>
      <trkpt lat="51.460343" lon="0.235047">
        <ele>5.114487</ele>
        <time>2024-08-10T19:36:04.000Z</time>
      </trkpt>
      <trkpt lat="51.46032" lon="0.235211">
        <ele>5.061213</ele>
        <time>2024-08-10T19:36:05.000Z</time>
      </trkpt>
      <trkpt lat="51.460267" lon="0.235736">
        <ele>4.903849</ele>
        <time>2024-08-10T19:36:09.000Z</time>
      </trkpt>
      <trkpt lat="51.460276" lon="0.235747">
        <ele>4.902645</ele>
        <time>2024-08-10T19:36:09.000Z</time>
      </trkpt>
      <trkpt lat="51.46024" lon="0.236054">
        <ele>4.806139</ele>
        <time>2024-08-10T19:36:11.000Z</time>
      </trkpt>
      <trkpt lat="51.460252" lon="0.237579">
        <ele>4.406247</ele>
        <time>2024-08-10T19:36:22.000Z</time>
      </trkpt>
      <trkpt lat="51.460212" lon="0.238162">
        <ele>4.311263</ele>
        <time>2024-08-10T19:36:26.000Z</time>
      </trkpt>
      <trkpt lat="51.460109" lon="0.238634">
        <ele>4.230149</ele>
        <time>2024-08-10T19:36:29.000Z</time>
      </trkpt>
      <trkpt lat="51.460099" lon="0.238694">
        <ele>4.220534</ele>
        <time>2024-08-10T19:36:29.000Z</time>
      </trkpt>
      <trkpt lat="51.460051" lon="0.238855">
        <ele>4.192026</ele>
        <time>2024-08-10T19:36:30.000Z</time>
      </trkpt>
      <trkpt lat="51.4596" lon="0.240154">
        <ele>4.007473</ele>
        <time>2024-08-10T19:36:40.000Z</time>
      </trkpt>
      <trkpt lat="51.459315" lon="0.240737">
        <ele>4.020735</ele>
        <time>2024-08-10T19:36:45.000Z</time>
      </trkpt>
      <trkpt lat="51.458601" lon="0.241563">
        <ele>4.045585</ele>
        <time>2024-08-10T19:36:55.000Z</time>
      </trkpt>
      <trkpt lat="51.458563" lon="0.241614">
        <ele>4.047097</ele>
        <time>2024-08-10T19:36:56.000Z</time>
      </trkpt>
      <trkpt lat="51.458561" lon="0.2416">
        <ele>4.047172</ele>
        <time>2024-08-10T19:36:56.000Z</time>
      </trkpt>
      <trkpt lat="51.458561" lon="0.241601">
        <ele>4.047228</ele>
        <time>2024-08-10T19:36:56.000Z</time>
      </trkpt>
      <trkpt lat="51.458603" lon="0.241566">
        <ele>4.048746</ele>
        <time>2024-08-10T19:36:57.000Z</time>
      </trkpt>
      <trkpt lat="51.459309" lon="0.240733">
        <ele>4.038804</ele>
        <time>2024-08-10T19:37:07.000Z</time>
      </trkpt>
      <trkpt lat="51.459605" lon="0.240153">
        <ele>4.029678</ele>
        <time>2024-08-10T19:37:12.000Z</time>
      </trkpt>
      <trkpt lat="51.460054" lon="0.238847">
        <ele>4.140464</ele>
        <time>2024-08-10T19:37:22.000Z</time>
      </trkpt>
      <trkpt lat="51.460089" lon="0.238693">
        <ele>4.182375</ele>
        <time>2024-08-10T19:37:23.000Z</time>
      </trkpt>
      <trkpt lat="51.460107" lon="0.238631">
        <ele>4.196494</ele>
        <time>2024-08-10T19:37:23.000Z</time>
      </trkpt>
      <trkpt lat="51.460209" lon="0.238154">
        <ele>4.315779</ele>
        <time>2024-08-10T19:37:26.000Z</time>
      </trkpt>
      <trkpt lat="51.460255" lon="0.237586">
        <ele>4.455449</ele>
        <time>2024-08-10T19:37:30.000Z</time>
      </trkpt>
      <trkpt lat="51.460241" lon="0.236067">
        <ele>4.825936</ele>
        <time>2024-08-10T19:37:41.000Z</time>
      </trkpt>
      <trkpt lat="51.46027" lon="0.235741">
        <ele>4.908058</ele>
        <time>2024-08-10T19:37:43.000Z</time>
      </trkpt>
      <trkpt lat="51.460276" lon="0.235741">
        <ele>4.909073</ele>
        <time>2024-08-10T19:37:43.000Z</time>
      </trkpt>
      <trkpt lat="51.460317" lon="0.235216">
        <ele>5.04298</ele>
        <time>2024-08-10T19:37:47.000Z</time>
      </trkpt>
      <trkpt lat="51.46034" lon="0.235044">
        <ele>5.088292</ele>
        <time>2024-08-10T19:37:48.000Z</time>
      </trkpt>
      <trkpt lat="51.460671" lon="0.233721">
        <ele>5.440618</ele>
        <time>2024-08-10T19:37:58.000Z</time>
      </trkpt>
      <trkpt lat="51.46126" lon="0.232409">
        <ele>5.361155</ele>
        <time>2024-08-10T19:38:09.000Z</time>
      </trkpt>
      <trkpt lat="51.461322" lon="0.232252">
        <ele>5.352319</ele>
        <time>2024-08-10T19:38:10.000Z</time>
      </trkpt>
      <trkpt lat="51.461392" lon="0.232067">
        <ele>5.34184</ele>
        <time>2024-08-10T19:38:11.000Z</time>
      </trkpt>
      <trkpt lat="51.461424" lon="0.231958">
        <ele>5.336177</ele>
        <time>2024-08-10T19:38:12.000Z</time>
      </trkpt>
      <trkpt lat="51.461382" lon="0.231956">
        <ele>5.333894</ele>
        <time>2024-08-10T19:38:12.000Z</time>
      </trkpt>
      <trkpt lat="51.461395" lon="0.231958">
        <ele>5.333749</ele>
        <time>2024-08-10T19:38:12.000Z</time>
      </trkpt>
      <trkpt lat="51.461386" lon="0.231963">
        <ele>5.333589</ele>
        <time>2024-08-10T19:38:12.000Z</time>
      </trkpt>
      <trkpt lat="51.461384" lon="0.231951">
        <ele>5.333513</ele>
        <time>2024-08-10T19:38:12.000Z</time>
      </trkpt>
      <trkpt lat="51.461381" lon="0.231962">
        <ele>5.333342</ele>
        <time>2024-08-10T19:38:12.000Z</time>
      </trkpt>
      <trkpt lat="51.461378" lon="0.231952">
        <ele>5.333262</ele>
        <time>2024-08-10T19:38:12.000Z</time>
      </trkpt>
      <trkpt lat="51.461387" lon="0.231953">
        <ele>5.333121</ele>
        <time>2024-08-10T19:38:12.000Z</time>
      </trkpt>
      <trkpt lat="51.461356" lon="0.231951">
        <ele>5.330453</ele>
        <time>2024-08-10T19:38:12.000Z</time>
      </trkpt>
      <trkpt lat="51.460787" lon="0.231895">
        <ele>5.236518</ele>
        <time>2024-08-10T19:38:18.000Z</time>
      </trkpt>
      <trkpt lat="51.460696" lon="0.231905">
        <ele>5.208905</ele>
        <time>2024-08-10T19:38:19.000Z</time>
      </trkpt>
      <trkpt lat="51.460636" lon="0.231904">
        <ele>5.190374</ele>
        <time>2024-08-10T19:38:20.000Z</time>
      </trkpt>
      <trkpt lat="51.460563" lon="0.231918">
        <ele>5.165695</ele>
        <time>2024-08-10T19:38:21.000Z</time>
      </trkpt>
      <trkpt lat="51.460467" lon="0.231988">
        <ele>5.13046</ele>
        <time>2024-08-10T19:38:22.000Z</time>
      </trkpt>
      <trkpt lat="51.460456" lon="0.232036">
        <ele>5.116212</ele>
        <time>2024-08-10T19:38:22.000Z</time>
      </trkpt>
      <trkpt lat="51.460393" lon="0.232116">
        <ele>5.088035</ele>
        <time>2024-08-10T19:38:23.000Z</time>
      </trkpt>
      <trkpt lat="51.460345" lon="0.232138">
        <ele>5.073914</ele>
        <time>2024-08-10T19:38:24.000Z</time>
      </trkpt>
      <trkpt lat="51.460297" lon="0.232134">
        <ele>5.06041</ele>
        <time>2024-08-10T19:38:25.000Z</time>
      </trkpt>
      <trkpt lat="51.460305" lon="0.232129">
        <ele>5.059408</ele>
        <time>2024-08-10T19:38:25.000Z</time>
      </trkpt>
      <trkpt lat="51.460291" lon="0.232133">
        <ele>5.058385</ele>
        <time>2024-08-10T19:38:25.000Z</time>
      </trkpt>
      <trkpt lat="51.460299" lon="0.232129">
        <ele>5.05805</ele>
        <time>2024-08-10T19:38:25.000Z</time>
      </trkpt>
      <trkpt lat="51.46029" lon="0.232126">
        <ele>5.058043</ele>
        <time>2024-08-10T19:38:25.000Z</time>
      </trkpt>
      <trkpt lat="51.460292" lon="0.23214">
        <ele>5.057653</ele>
        <time>2024-08-10T19:38:25.000Z</time>
      </trkpt>
      <trkpt lat="51.460296" lon="0.232122">
        <ele>5.057261</ele>
        <time>2024-08-10T19:38:25.000Z</time>
      </trkpt>
      <trkpt lat="51.460298" lon="0.232135">
        <ele>5.056545</ele>
        <time>2024-08-10T19:38:25.000Z</time>
      </trkpt>
      <trkpt lat="51.460247" lon="0.232103">
        <ele>5.04228</ele>
        <time>2024-08-10T19:38:26.000Z</time>
      </trkpt>
      <trkpt lat="51.460225" lon="0.232044">
        <ele>5.02653</ele>
        <time>2024-08-10T19:38:26.000Z</time>
      </trkpt>
      <trkpt lat="51.460157" lon="0.232042">
        <ele>5.004022</ele>
        <time>2024-08-10T19:38:27.000Z</time>
      </trkpt>
      <trkpt lat="51.459814" lon="0.231969">
        <ele>4.886164</ele>
        <time>2024-08-10T19:38:31.000Z</time>
      </trkpt>
      <trkpt lat="51.459451" lon="0.231507">
        <ele>4.735117</ele>
        <time>2024-08-10T19:38:36.000Z</time>
      </trkpt>
      <trkpt lat="51.459176" lon="0.231325">
        <ele>4.76417</ele>
        <time>2024-08-10T19:38:39.000Z</time>
      </trkpt>
      <trkpt lat="51.459055" lon="0.231327">
        <ele>4.802667</ele>
        <time>2024-08-10T19:38:40.000Z</time>
      </trkpt>
      <trkpt lat="51.459024" lon="0.231355">
        <ele>4.819771</ele>
        <time>2024-08-10T19:38:40.000Z</time>
      </trkpt>
      <trkpt lat="51.458978" lon="0.231387">
        <ele>4.836572</ele>
        <time>2024-08-10T19:38:41.000Z</time>
      </trkpt>
      <trkpt lat="51.458765" lon="0.23158">
        <ele>4.919845</ele>
        <time>2024-08-10T19:38:44.000Z</time>
      </trkpt>
      <trkpt lat="51.458722" lon="0.231633">
        <ele>4.939793</ele>
        <time>2024-08-10T19:38:45.000Z</time>
      </trkpt>
      <trkpt lat="51.458709" lon="0.231627">
        <ele>4.941021</ele>
        <time>2024-08-10T19:38:45.000Z</time>
      </trkpt>
      <trkpt lat="51.458702" lon="0.23163">
        <ele>4.941433</ele>
        <time>2024-08-10T19:38:45.000Z</time>
      </trkpt>
      <trkpt lat="51.458708" lon="0.231629">
        <ele>4.942236</ele>
        <time>2024-08-10T19:38:45.000Z</time>
      </trkpt>
      <trkpt lat="51.458713" lon="0.231643">
        <ele>4.943052</ele>
        <time>2024-08-10T19:38:45.000Z</time>
      </trkpt>
      <trkpt lat="51.458705" lon="0.231633">
        <ele>4.943472</ele>
        <time>2024-08-10T19:38:45.000Z</time>
      </trkpt>
      <trkpt lat="51.4587" lon="0.231638">
        <ele>4.944283</ele>
        <time>2024-08-10T19:38:45.000Z</time>
      </trkpt>
      <trkpt lat="51.458696" lon="0.231641">
        <ele>4.94484</ele>
        <time>2024-08-10T19:38:45.000Z</time>
      </trkpt>
      <trkpt lat="51.458709" lon="0.231653">
        <ele>4.944847</ele>
        <time>2024-08-10T19:38:45.000Z</time>
      </trkpt>
      <trkpt lat="51.458709" lon="0.23164">
        <ele>4.945255</ele>
        <time>2024-08-10T19:38:45.000Z</time>
      </trkpt>
      <trkpt lat="51.458699" lon="0.231647">
        <ele>4.945986</ele>
        <time>2024-08-10T19:38:45.000Z</time>
      </trkpt>
      <trkpt lat="51.458701" lon="0.231654">
        <ele>4.946546</ele>
        <time>2024-08-10T19:38:45.000Z</time>
      </trkpt>
      <trkpt lat="51.458703" lon="0.231645">
        <ele>4.947349</ele>
        <time>2024-08-10T19:38:45.000Z</time>
      </trkpt>
      <trkpt lat="51.458698" lon="0.231661">
        <ele>4.947917</ele>
        <time>2024-08-10T19:38:45.000Z</time>
      </trkpt>
      <trkpt lat="51.458195" lon="0.23258">
        <ele>5.213743</ele>
        <time>2024-08-10T19:38:53.000Z</time>
      </trkpt>
      <trkpt lat="51.458184" lon="0.23259">
        <ele>5.215955</ele>
        <time>2024-08-10T19:38:53.000Z</time>
      </trkpt>
      <trkpt lat="51.458176" lon="0.232577">
        <ele>5.217249</ele>
        <time>2024-08-10T19:38:53.000Z</time>
      </trkpt>
      <trkpt lat="51.458187" lon="0.232583">
        <ele>5.217675</ele>
        <time>2024-08-10T19:38:53.000Z</time>
      </trkpt>
      <trkpt lat="51.458176" lon="0.232585">
        <ele>5.218094</ele>
        <time>2024-08-10T19:38:53.000Z</time>
      </trkpt>
      <trkpt lat="51.458174" lon="0.232594">
        <ele>5.218814</ele>
        <time>2024-08-10T19:38:53.000Z</time>
      </trkpt>
      <trkpt lat="51.45817" lon="0.232585">
        <ele>5.219226</ele>
        <time>2024-08-10T19:38:53.000Z</time>
      </trkpt>
      <trkpt lat="51.458171" lon="0.232584">
        <ele>5.219632</ele>
        <time>2024-08-10T19:38:53.000Z</time>
      </trkpt>
      <trkpt lat="51.458182" lon="0.232599">
        <ele>5.220078</ele>
        <time>2024-08-10T19:38:53.000Z</time>
      </trkpt>
      <trkpt lat="51.458168" lon="0.232604">
        <ele>5.220633</ele>
        <time>2024-08-10T19:38:53.000Z</time>
      </trkpt>
      <trkpt lat="51.45817" lon="0.232605">
        <ele>5.221172</ele>
        <time>2024-08-10T19:38:53.000Z</time>
      </trkpt>
      <trkpt lat="51.458176" lon="0.232607">
        <ele>5.221727</ele>
        <time>2024-08-10T19:38:53.000Z</time>
      </trkpt>
      <trkpt lat="51.458168" lon="0.232595">
        <ele>5.222165</ele>
        <time>2024-08-10T19:38:53.000Z</time>
      </trkpt>
      <trkpt lat="51.458174" lon="0.232598">
        <ele>5.222715</ele>
        <time>2024-08-10T19:38:53.000Z</time>
      </trkpt>
      <trkpt lat="51.458169" lon="0.232608">
        <ele>5.223272</ele>
        <time>2024-08-10T19:38:53.000Z</time>
      </trkpt>
      <trkpt lat="51.458181" lon="0.232609">
        <ele>5.223822</ele>
        <time>2024-08-10T19:38:53.000Z</time>
      </trkpt>
      <trkpt lat="51.457781" lon="0.233622">
        <ele>5.611688</ele>
        <time>2024-08-10T19:39:01.000Z</time>
      </trkpt>
      <trkpt lat="51.45748" lon="0.234602">
        <ele>6.048825</ele>
        <time>2024-08-10T19:39:09.000Z</time>
      </trkpt>
      <trkpt lat="51.457471" lon="0.234616">
        <ele>6.049219</ele>
        <time>2024-08-10T19:39:09.000Z</time>
      </trkpt>
      <trkpt lat="51.457479" lon="0.234621">
        <ele>6.049975</ele>
        <time>2024-08-10T19:39:09.000Z</time>
      </trkpt>
      <trkpt lat="51.45747" lon="0.234624">
        <ele>6.050759</ele>
        <time>2024-08-10T19:39:09.000Z</time>
      </trkpt>
      <trkpt lat="51.45747" lon="0.234626">
        <ele>6.051548</ele>
        <time>2024-08-10T19:39:09.000Z</time>
      </trkpt>
      <trkpt lat="51.457474" lon="0.234616">
        <ele>6.052297</ele>
        <time>2024-08-10T19:39:09.000Z</time>
      </trkpt>
      <trkpt lat="51.457479" lon="0.234611">
        <ele>6.053077</ele>
        <time>2024-08-10T19:39:09.000Z</time>
      </trkpt>
      <trkpt lat="51.457469" lon="0.234628">
        <ele>6.05442</ele>
        <time>2024-08-10T19:39:09.000Z</time>
      </trkpt>
      <trkpt lat="51.457476" lon="0.234622">
        <ele>6.055201</ele>
        <time>2024-08-10T19:39:09.000Z</time>
      </trkpt>
      <trkpt lat="51.457477" lon="0.234632">
        <ele>6.055948</ele>
        <time>2024-08-10T19:39:09.000Z</time>
      </trkpt>
      <trkpt lat="51.457477" lon="0.234621">
        <ele>6.057123</ele>
        <time>2024-08-10T19:39:09.000Z</time>
      </trkpt>
      <trkpt lat="51.457471" lon="0.234623">
        <ele>6.057866</ele>
        <time>2024-08-10T19:39:09.000Z</time>
      </trkpt>
      <trkpt lat="51.457463" lon="0.234627">
        <ele>6.059057</ele>
        <time>2024-08-10T19:39:09.000Z</time>
      </trkpt>
      <trkpt lat="51.457465" lon="0.234632">
        <ele>6.061124</ele>
        <time>2024-08-10T19:39:09.000Z</time>
      </trkpt>
      <trkpt lat="51.456919" lon="0.236937">
        <ele>7.15466</ele>
        <time>2024-08-10T19:39:26.000Z</time>
      </trkpt>
      <trkpt lat="51.456912" lon="0.23697">
        <ele>7.170052</ele>
        <time>2024-08-10T19:39:26.000Z</time>
      </trkpt>
      <trkpt lat="51.456906" lon="0.236981">
        <ele>7.171674</ele>
        <time>2024-08-10T19:39:26.000Z</time>
      </trkpt>
      <trkpt lat="51.456897" lon="0.236973">
        <ele>7.172902</ele>
        <time>2024-08-10T19:39:26.000Z</time>
      </trkpt>
      <trkpt lat="51.456895" lon="0.236979">
        <ele>7.173863</ele>
        <time>2024-08-10T19:39:26.000Z</time>
      </trkpt>
      <trkpt lat="51.456897" lon="0.236969">
        <ele>7.17509</ele>
        <time>2024-08-10T19:39:26.000Z</time>
      </trkpt>
      <trkpt lat="51.456907" lon="0.236983">
        <ele>7.176309</ele>
        <time>2024-08-10T19:39:26.000Z</time>
      </trkpt>
      <trkpt lat="51.456907" lon="0.236983">
        <ele>7.178355</ele>
        <time>2024-08-10T19:39:26.000Z</time>
      </trkpt>
      <trkpt lat="51.456892" lon="0.236987">
        <ele>7.179255</ele>
        <time>2024-08-10T19:39:26.000Z</time>
      </trkpt>
      <trkpt lat="51.456898" lon="0.236978">
        <ele>7.180222</ele>
        <time>2024-08-10T19:39:26.000Z</time>
      </trkpt>
      <trkpt lat="51.456889" lon="0.236996">
        <ele>7.181445</ele>
        <time>2024-08-10T19:39:26.000Z</time>
      </trkpt>
      <trkpt lat="51.456557" lon="0.237953">
        <ele>7.706462</ele>
        <time>2024-08-10T19:39:34.000Z</time>
      </trkpt>
      <trkpt lat="51.456536" lon="0.237978">
        <ele>7.721513</ele>
        <time>2024-08-10T19:39:34.000Z</time>
      </trkpt>
      <trkpt lat="51.45654" lon="0.237966">
        <ele>7.724339</ele>
        <time>2024-08-10T19:39:34.000Z</time>
      </trkpt>
      <trkpt lat="51.456546" lon="0.237971">
        <ele>7.725236</ele>
        <time>2024-08-10T19:39:34.000Z</time>
      </trkpt>
      <trkpt lat="51.45654" lon="0.237982">
        <ele>7.726861</ele>
        <time>2024-08-10T19:39:34.000Z</time>
      </trkpt>
      <trkpt lat="51.456543" lon="0.237983">
        <ele>7.728091</ele>
        <time>2024-08-10T19:39:34.000Z</time>
      </trkpt>
      <trkpt lat="51.456529" lon="0.237991">
        <ele>7.72989</ele>
        <time>2024-08-10T19:39:34.000Z</time>
      </trkpt>
      <trkpt lat="51.456543" lon="0.237988">
        <ele>7.731127</ele>
        <time>2024-08-10T19:39:34.000Z</time>
      </trkpt>
      <trkpt lat="51.456535" lon="0.237979">
        <ele>7.732732</ele>
        <time>2024-08-10T19:39:34.000Z</time>
      </trkpt>
      <trkpt lat="51.456537" lon="0.237999">
        <ele>7.735183</ele>
        <time>2024-08-10T19:39:34.000Z</time>
      </trkpt>
      <trkpt lat="51.456541" lon="0.237986">
        <ele>7.736818</ele>
        <time>2024-08-10T19:39:34.000Z</time>
      </trkpt>
      <trkpt lat="51.456535" lon="0.237995">
        <ele>7.737706</ele>
        <time>2024-08-10T19:39:34.000Z</time>
      </trkpt>
      <trkpt lat="51.456525" lon="0.238003">
        <ele>7.738935</ele>
        <time>2024-08-10T19:39:34.000Z</time>
      </trkpt>
      <trkpt lat="51.456536" lon="0.237999">
        <ele>7.740554</ele>
        <time>2024-08-10T19:39:34.000Z</time>
      </trkpt>
      <trkpt lat="51.456078" lon="0.238931">
        <ele>8.264515</ele>
        <time>2024-08-10T19:39:42.000Z</time>
      </trkpt>
      <trkpt lat="51.455863" lon="0.239289">
        <ele>8.49586</ele>
        <time>2024-08-10T19:39:45.000Z</time>
      </trkpt>
      <trkpt lat="51.45586" lon="0.239295">
        <ele>8.4978</ele>
        <time>2024-08-10T19:39:45.000Z</time>
      </trkpt>
      <trkpt lat="51.455855" lon="0.239304">
        <ele>8.499465</ele>
        <time>2024-08-10T19:39:45.000Z</time>
      </trkpt>
      <trkpt lat="51.455846" lon="0.239304">
        <ele>8.500987</ele>
        <time>2024-08-10T19:39:45.000Z</time>
      </trkpt>
      <trkpt lat="51.455841" lon="0.2393">
        <ele>8.501813</ele>
        <time>2024-08-10T19:39:45.000Z</time>
      </trkpt>
      <trkpt lat="51.455846" lon="0.239314">
        <ele>8.502654</ele>
        <time>2024-08-10T19:39:45.000Z</time>
      </trkpt>
      <trkpt lat="51.455839" lon="0.239306">
        <ele>8.503787</ele>
        <time>2024-08-10T19:39:45.000Z</time>
      </trkpt>
      <trkpt lat="51.455839" lon="0.239319">
        <ele>8.504922</ele>
        <time>2024-08-10T19:39:45.000Z</time>
      </trkpt>
      <trkpt lat="51.455846" lon="0.239307">
        <ele>8.50575</ele>
        <time>2024-08-10T19:39:45.000Z</time>
      </trkpt>
      <trkpt lat="51.455852" lon="0.239321">
        <ele>8.506901</ele>
        <time>2024-08-10T19:39:45.000Z</time>
      </trkpt>
      <trkpt lat="51.455764" lon="0.23944">
        <ele>8.583046</ele>
        <time>2024-08-10T19:39:46.000Z</time>
      </trkpt>
      <trkpt lat="51.455122" lon="0.240242">
        <ele>9.102353</ele>
        <time>2024-08-10T19:39:55.000Z</time>
      </trkpt>
      <trkpt lat="51.455117" lon="0.240234">
        <ele>9.101916</ele>
        <time>2024-08-10T19:39:55.000Z</time>
      </trkpt>
      <trkpt lat="51.455121" lon="0.240239">
        <ele>9.101785</ele>
        <time>2024-08-10T19:39:55.000Z</time>
      </trkpt>
      <trkpt lat="51.455119" lon="0.240245">
        <ele>9.101639</ele>
        <time>2024-08-10T19:39:55.000Z</time>
      </trkpt>
      <trkpt lat="51.455117" lon="0.240246">
        <ele>9.101522</ele>
        <time>2024-08-10T19:39:55.000Z</time>
      </trkpt>
      <trkpt lat="51.455108" lon="0.240253">
        <ele>9.101387</ele>
        <time>2024-08-10T19:39:55.000Z</time>
      </trkpt>
      <trkpt lat="51.455118" lon="0.240241">
        <ele>9.101253</ele>
        <time>2024-08-10T19:39:55.000Z</time>
      </trkpt>
      <trkpt lat="51.45511" lon="0.240256">
        <ele>9.100946</ele>
        <time>2024-08-10T19:39:55.000Z</time>
      </trkpt>
      <trkpt lat="51.455117" lon="0.240256">
        <ele>9.100813</ele>
        <time>2024-08-10T19:39:55.000Z</time>
      </trkpt>
      <trkpt lat="51.455117" lon="0.240254">
        <ele>9.100633</ele>
        <time>2024-08-10T19:39:55.000Z</time>
      </trkpt>
      <trkpt lat="51.455104" lon="0.24026">
        <ele>9.100364</ele>
        <time>2024-08-10T19:39:55.000Z</time>
      </trkpt>
      <trkpt lat="51.455111" lon="0.240249">
        <ele>9.100057</ele>
        <time>2024-08-10T19:39:55.000Z</time>
      </trkpt>
      <trkpt lat="51.455112" lon="0.240267">
        <ele>9.099796</ele>
        <time>2024-08-10T19:39:55.000Z</time>
      </trkpt>
      <trkpt lat="51.455106" lon="0.240263">
        <ele>9.099659</ele>
        <time>2024-08-10T19:39:55.000Z</time>
      </trkpt>
      <trkpt lat="51.455082" lon="0.240293">
        <ele>9.096407</ele>
        <time>2024-08-10T19:39:55.000Z</time>
      </trkpt>
      <trkpt lat="51.45468" lon="0.240615">
        <ele>9.046188</ele>
        <time>2024-08-10T19:40:00.000Z</time>
      </trkpt>
      <trkpt lat="51.454611" lon="0.24069">
        <ele>9.036261</ele>
        <time>2024-08-10T19:40:01.000Z</time>
      </trkpt>
      <trkpt lat="51.454614" lon="0.240677">
        <ele>9.036025</ele>
        <time>2024-08-10T19:40:01.000Z</time>
      </trkpt>
      <trkpt lat="51.454609" lon="0.24069">
        <ele>9.035746</ele>
        <time>2024-08-10T19:40:01.000Z</time>
      </trkpt>
      <trkpt lat="51.454603" lon="0.240689">
        <ele>9.035625</ele>
        <time>2024-08-10T19:40:01.000Z</time>
      </trkpt>
      <trkpt lat="51.454609" lon="0.240692">
        <ele>9.035359</ele>
        <time>2024-08-10T19:40:01.000Z</time>
      </trkpt>
      <trkpt lat="51.454591" lon="0.240685">
        <ele>9.035121</ele>
        <time>2024-08-10T19:40:01.000Z</time>
      </trkpt>
      <trkpt lat="51.4546" lon="0.240685">
        <ele>9.035125</ele>
        <time>2024-08-10T19:40:01.000Z</time>
      </trkpt>
      <trkpt lat="51.454592" lon="0.240697">
        <ele>9.035126</ele>
        <time>2024-08-10T19:40:01.000Z</time>
      </trkpt>
      <trkpt lat="51.455125" lon="0.240237">
        <ele>8.96855</ele>
        <time>2024-08-10T19:40:08.000Z</time>
      </trkpt>
      <trkpt lat="51.455125" lon="0.240235">
        <ele>8.968555</ele>
        <time>2024-08-10T19:40:08.000Z</time>
      </trkpt>
      <trkpt lat="51.455485" lon="0.239781">
        <ele>8.916122</ele>
        <time>2024-08-10T19:40:13.000Z</time>
      </trkpt>
      <trkpt lat="51.455857" lon="0.239306">
        <ele>8.615813</ele>
        <time>2024-08-10T19:40:18.000Z</time>
      </trkpt>
      <trkpt lat="51.455849" lon="0.239314">
        <ele>8.615814</ele>
        <time>2024-08-10T19:40:18.000Z</time>
      </trkpt>
      <trkpt lat="51.456189" lon="0.23864">
        <ele>8.215124</ele>
        <time>2024-08-10T19:40:24.000Z</time>
      </trkpt>
      <trkpt lat="51.456542" lon="0.237984">
        <ele>7.814443</ele>
        <time>2024-08-10T19:40:30.000Z</time>
      </trkpt>
      <trkpt lat="51.456546" lon="0.237976">
        <ele>7.814446</ele>
        <time>2024-08-10T19:40:30.000Z</time>
      </trkpt>
      <trkpt lat="51.456905" lon="0.236978">
        <ele>7.287998</ele>
        <time>2024-08-10T19:40:38.000Z</time>
      </trkpt>
      <trkpt lat="51.456901" lon="0.236982">
        <ele>7.287994</ele>
        <time>2024-08-10T19:40:38.000Z</time>
      </trkpt>
      <trkpt lat="51.457184" lon="0.235797">
        <ele>6.71259</ele>
        <time>2024-08-10T19:40:47.000Z</time>
      </trkpt>
      <trkpt lat="51.457478" lon="0.234622">
        <ele>6.150213</ele>
        <time>2024-08-10T19:40:56.000Z</time>
      </trkpt>
      <trkpt lat="51.457482" lon="0.234609">
        <ele>6.150202</ele>
        <time>2024-08-10T19:40:56.000Z</time>
      </trkpt>
      <trkpt lat="51.457826" lon="0.233605">
        <ele>5.679609</ele>
        <time>2024-08-10T19:41:04.000Z</time>
      </trkpt>
      <trkpt lat="51.458176" lon="0.23259">
        <ele>5.209345</ele>
        <time>2024-08-10T19:41:12.000Z</time>
      </trkpt>
      <trkpt lat="51.458175" lon="0.232588">
        <ele>5.209344</ele>
        <time>2024-08-10T19:41:12.000Z</time>
      </trkpt>
      <trkpt lat="51.458709" lon="0.231645">
        <ele>5.149226</ele>
        <time>2024-08-10T19:41:21.000Z</time>
      </trkpt>
      <trkpt lat="51.458695" lon="0.231636">
        <ele>5.149228</ele>
        <time>2024-08-10T19:41:21.000Z</time>
      </trkpt>
      <trkpt lat="51.458705" lon="0.231651">
        <ele>5.14922</ele>
        <time>2024-08-10T19:41:21.000Z</time>
      </trkpt>
      <trkpt lat="51.459112" lon="0.231238">
        <ele>5.192363</ele>
        <time>2024-08-10T19:41:26.000Z</time>
      </trkpt>
      <trkpt lat="51.45911" lon="0.231233">
        <ele>5.192367</ele>
        <time>2024-08-10T19:41:26.000Z</time>
      </trkpt>
      <trkpt lat="51.45911" lon="0.23123">
        <ele>5.19236</ele>
        <time>2024-08-10T19:41:26.000Z</time>
      </trkpt>
      <trkpt lat="51.459147" lon="0.230623">
        <ele>5.227276</ele>
        <time>2024-08-10T19:41:30.000Z</time>
      </trkpt>
      <trkpt lat="51.459148" lon="0.230617">
        <ele>5.227274</ele>
        <time>2024-08-10T19:41:30.000Z</time>
      </trkpt>
      <trkpt lat="51.459268" lon="0.229842">
        <ele>5.329406</ele>
        <time>2024-08-10T19:41:36.000Z</time>
      </trkpt>
      <trkpt lat="51.459403" lon="0.229085">
        <ele>5.539888</ele>
        <time>2024-08-10T19:41:41.000Z</time>
      </trkpt>
      <trkpt lat="51.459399" lon="0.229084">
        <ele>5.539884</ele>
        <time>2024-08-10T19:41:41.000Z</time>
      </trkpt>
      <trkpt lat="51.459402" lon="0.22908">
        <ele>5.539889</ele>
        <time>2024-08-10T19:41:41.000Z</time>
      </trkpt>
      <trkpt lat="51.459451" lon="0.228178">
        <ele>5.777562</ele>
        <time>2024-08-10T19:41:47.000Z</time>
      </trkpt>
      <trkpt lat="51.459493" lon="0.227287">
        <ele>6.014957</ele>
        <time>2024-08-10T19:41:53.000Z</time>
      </trkpt>
      <trkpt lat="51.4595" lon="0.227282">
        <ele>6.014962</ele>
        <time>2024-08-10T19:41:53.000Z</time>
      </trkpt>
      <trkpt lat="51.459503" lon="0.227283">
        <ele>6.014969</ele>
        <time>2024-08-10T19:41:53.000Z</time>
      </trkpt>
      <trkpt lat="51.459473" lon="0.226104">
        <ele>6.112688</ele>
        <time>2024-08-10T19:42:01.000Z</time>
      </trkpt>
      <trkpt lat="51.459461" lon="0.224912">
        <ele>6.206314</ele>
        <time>2024-08-10T19:42:09.000Z</time>
      </trkpt>
      <trkpt lat="51.459445" lon="0.223719">
        <ele>6.259668</ele>
        <time>2024-08-10T19:42:17.000Z</time>
      </trkpt>
      <trkpt lat="51.459448" lon="0.223715">
        <ele>6.259655</ele>
        <time>2024-08-10T19:42:17.000Z</time>
      </trkpt>
      <trkpt lat="51.459384" lon="0.222652">
        <ele>6.278976</ele>
        <time>2024-08-10T19:42:24.000Z</time>
      </trkpt>
      <trkpt lat="51.459349" lon="0.221584">
        <ele>6.29833</ele>
        <time>2024-08-10T19:42:31.000Z</time>
      </trkpt>
      <trkpt lat="51.459307" lon="0.220538">
        <ele>6.332942</ele>
        <time>2024-08-10T19:42:38.000Z</time>
      </trkpt>
      <trkpt lat="51.459292" lon="0.220531">
        <ele>6.333101</ele>
        <time>2024-08-10T19:42:38.000Z</time>
      </trkpt>
      <trkpt lat="51.459291" lon="0.220546">
        <ele>6.333188</ele>
        <time>2024-08-10T19:42:38.000Z</time>
      </trkpt>
      <trkpt lat="51.459326" lon="0.22124">
        <ele>6.35675</ele>
        <time>2024-08-10T19:42:43.000Z</time>
      </trkpt>
      <trkpt lat="51.459439" lon="0.223713">
        <ele>6.462952</ele>
        <time>2024-08-10T19:43:00.000Z</time>
      </trkpt>
      <trkpt lat="51.4595" lon="0.227306">
        <ele>6.307348</ele>
        <time>2024-08-10T19:43:25.000Z</time>
      </trkpt>
      <trkpt lat="51.459479" lon="0.228228">
        <ele>6.188547</ele>
        <time>2024-08-10T19:43:31.000Z</time>
      </trkpt>
      <trkpt lat="51.459365" lon="0.229419">
        <ele>5.695462</ele>
        <time>2024-08-10T19:43:39.000Z</time>
      </trkpt>
      <trkpt lat="51.459312" lon="0.229775">
        <ele>5.536252</ele>
        <time>2024-08-10T19:43:42.000Z</time>
      </trkpt>
      <trkpt lat="51.459164" lon="0.230443">
        <ele>5.252043</ele>
        <time>2024-08-10T19:43:47.000Z</time>
      </trkpt>
      <trkpt lat="51.459141" lon="0.230712">
        <ele>5.135689</ele>
        <time>2024-08-10T19:43:49.000Z</time>
      </trkpt>
      <trkpt lat="51.459142" lon="0.230972">
        <ele>5.029705</ele>
        <time>2024-08-10T19:43:51.000Z</time>
      </trkpt>
      <trkpt lat="51.459129" lon="0.231009">
        <ele>5.015105</ele>
        <time>2024-08-10T19:43:51.000Z</time>
      </trkpt>
      <trkpt lat="51.459215" lon="0.231125">
        <ele>5.010577</ele>
        <time>2024-08-10T19:43:52.000Z</time>
      </trkpt>
      <trkpt lat="51.459469" lon="0.23135">
        <ele>5.028996</ele>
        <time>2024-08-10T19:43:55.000Z</time>
      </trkpt>
      <trkpt lat="51.459787" lon="0.231785">
        <ele>5.055476</ele>
        <time>2024-08-10T19:44:00.000Z</time>
      </trkpt>
      <trkpt lat="51.460008" lon="0.231909">
        <ele>5.070554</ele>
        <time>2024-08-10T19:44:03.000Z</time>
      </trkpt>
      <trkpt lat="51.46012" lon="0.231888">
        <ele>5.077852</ele>
        <time>2024-08-10T19:44:04.000Z</time>
      </trkpt>
      <trkpt lat="51.460188" lon="0.231825">
        <ele>5.082831</ele>
        <time>2024-08-10T19:44:05.000Z</time>
      </trkpt>
      <trkpt lat="51.460227" lon="0.231761">
        <ele>5.085847</ele>
        <time>2024-08-10T19:44:06.000Z</time>
      </trkpt>
      <trkpt lat="51.460247" lon="0.231695">
        <ele>5.088893</ele>
        <time>2024-08-10T19:44:07.000Z</time>
      </trkpt>
      <trkpt lat="51.460306" lon="0.231667">
        <ele>5.092791</ele>
        <time>2024-08-10T19:44:08.000Z</time>
      </trkpt>
      <trkpt lat="51.460376" lon="0.231683">
        <ele>5.096604</ele>
        <time>2024-08-10T19:44:09.000Z</time>
      </trkpt>
      <trkpt lat="51.460416" lon="0.23172">
        <ele>5.099621</ele>
        <time>2024-08-10T19:44:10.000Z</time>
      </trkpt>
      <trkpt lat="51.460448" lon="0.23177">
        <ele>5.102599</ele>
        <time>2024-08-10T19:44:10.000Z</time>
      </trkpt>
      <trkpt lat="51.460558" lon="0.231802">
        <ele>5.109138</ele>
        <time>2024-08-10T19:44:11.000Z</time>
      </trkpt>
      <trkpt lat="51.460664" lon="0.231846">
        <ele>5.11602</ele>
        <time>2024-08-10T19:44:12.000Z</time>
      </trkpt>
      <trkpt lat="51.460783" lon="0.23189">
        <ele>5.17145</ele>
        <time>2024-08-10T19:44:13.000Z</time>
      </trkpt>
      <trkpt lat="51.461339" lon="0.231954">
        <ele>5.513219</ele>
        <time>2024-08-10T19:44:19.000Z</time>
      </trkpt>
      <trkpt lat="51.461412" lon="0.231954">
        <ele>5.557122</ele>
        <time>2024-08-10T19:44:20.000Z</time>
      </trkpt>
      <trkpt lat="51.461461" lon="0.231828">
        <ele>5.611159</ele>
        <time>2024-08-10T19:44:21.000Z</time>
      </trkpt>
      <trkpt lat="51.461514" lon="0.231597">
        <ele>5.706649</ele>
        <time>2024-08-10T19:44:23.000Z</time>
      </trkpt>
      <trkpt lat="51.46157" lon="0.231335">
        <ele>5.805932</ele>
        <time>2024-08-10T19:44:25.000Z</time>
      </trkpt>
      <trkpt lat="51.461611" lon="0.23114">
        <ele>5.885822</ele>
        <time>2024-08-10T19:44:26.000Z</time>
      </trkpt>
      <trkpt lat="51.461676" lon="0.230503">
        <ele>6.126691</ele>
        <time>2024-08-10T19:44:30.000Z</time>
      </trkpt>
      <trkpt lat="51.461861" lon="0.226898">
        <ele>7.498577</ele>
        <time>2024-08-10T19:44:55.000Z</time>
      </trkpt>
      <trkpt lat="51.461867" lon="0.226723">
        <ele>7.518689</ele>
        <time>2024-08-10T19:44:56.000Z</time>
      </trkpt>
      <trkpt lat="51.461838" lon="0.22637">
        <ele>7.55895</ele>
        <time>2024-08-10T19:44:58.000Z</time>
      </trkpt>
      <trkpt lat="51.461821" lon="0.226217">
        <ele>7.576562</ele>
        <time>2024-08-10T19:44:59.000Z</time>
      </trkpt>
      <trkpt lat="51.460982" lon="0.224079">
        <ele>7.737182</ele>
        <time>2024-08-10T19:45:17.000Z</time>
      </trkpt>
      <trkpt lat="51.460798" lon="0.223758">
        <ele>7.725426</ele>
        <time>2024-08-10T19:45:20.000Z</time>
      </trkpt>
      <trkpt lat="51.460526" lon="0.223449">
        <ele>7.711119</ele>
        <time>2024-08-10T19:45:24.000Z</time>
      </trkpt>
      <trkpt lat="51.460505" lon="0.223408">
        <ele>7.709714</ele>
        <time>2024-08-10T19:45:24.000Z</time>
      </trkpt>
      <trkpt lat="51.460494" lon="0.223415">
        <ele>7.709284</ele>
        <time>2024-08-10T19:45:24.000Z</time>
      </trkpt>
      <trkpt lat="51.460493" lon="0.223412">
        <ele>7.709276</ele>
        <time>2024-08-10T19:45:24.000Z</time>
      </trkpt>
      <trkpt lat="51.460501" lon="0.223414">
        <ele>7.709268</ele>
        <time>2024-08-10T19:45:24.000Z</time>
      </trkpt>
      <trkpt lat="51.460502" lon="0.223421">
        <ele>7.708826</ele>
        <time>2024-08-10T19:45:24.000Z</time>
      </trkpt>
      <trkpt lat="51.460532" lon="0.223448">
        <ele>7.707443</ele>
        <time>2024-08-10T19:45:24.000Z</time>
      </trkpt>
      <trkpt lat="51.460804" lon="0.223752">
        <ele>7.693123</ele>
        <time>2024-08-10T19:45:28.000Z</time>
      </trkpt>
      <trkpt lat="51.460978" lon="0.224077">
        <ele>7.682642</ele>
        <time>2024-08-10T19:45:31.000Z</time>
      </trkpt>
      <trkpt lat="51.461814" lon="0.226202">
        <ele>7.690505</ele>
        <time>2024-08-10T19:45:48.000Z</time>
      </trkpt>
      <trkpt lat="51.461839" lon="0.22636">
        <ele>7.690988</ele>
        <time>2024-08-10T19:45:49.000Z</time>
      </trkpt>
      <trkpt lat="51.461867" lon="0.226729">
        <ele>7.612012</ele>
        <time>2024-08-10T19:45:52.000Z</time>
      </trkpt>
      <trkpt lat="51.46185" lon="0.226896">
        <ele>7.538504</ele>
        <time>2024-08-10T19:45:53.000Z</time>
      </trkpt>
      <trkpt lat="51.461672" lon="0.230494">
        <ele>6.169858</ele>
        <time>2024-08-10T19:46:18.000Z</time>
      </trkpt>
      <trkpt lat="51.461605" lon="0.23114">
        <ele>5.964384</ele>
        <time>2024-08-10T19:46:23.000Z</time>
      </trkpt>
      <trkpt lat="51.461575" lon="0.231336">
        <ele>5.896225</ele>
        <time>2024-08-10T19:46:24.000Z</time>
      </trkpt>
      <trkpt lat="51.461529" lon="0.231602">
        <ele>5.811537</ele>
        <time>2024-08-10T19:46:26.000Z</time>
      </trkpt>
      <trkpt lat="51.461462" lon="0.231823">
        <ele>5.730082</ele>
        <time>2024-08-10T19:46:28.000Z</time>
      </trkpt>
      <trkpt lat="51.461424" lon="0.231956">
        <ele>5.683977</ele>
        <time>2024-08-10T19:46:29.000Z</time>
      </trkpt>
      <trkpt lat="51.461388" lon="0.232054">
        <ele>5.646962</ele>
        <time>2024-08-10T19:46:30.000Z</time>
      </trkpt>
      <trkpt lat="51.461318" lon="0.232255">
        <ele>5.591518</ele>
        <time>2024-08-10T19:46:32.000Z</time>
      </trkpt>
      <trkpt lat="51.461267" lon="0.232402">
        <ele>5.570973</ele>
        <time>2024-08-10T19:46:33.000Z</time>
      </trkpt>
      <trkpt lat="51.46067" lon="0.233738">
        <ele>5.386279</ele>
        <time>2024-08-10T19:46:44.000Z</time>
      </trkpt>
      <trkpt lat="51.460336" lon="0.235039">
        <ele>5.143955</ele>
        <time>2024-08-10T19:46:54.000Z</time>
      </trkpt>
      <trkpt lat="51.460324" lon="0.235219">
        <ele>5.087867</ele>
        <time>2024-08-10T19:46:55.000Z</time>
      </trkpt>
      <trkpt lat="51.460279" lon="0.235734">
        <ele>4.922179</ele>
        <time>2024-08-10T19:46:59.000Z</time>
      </trkpt>
      <trkpt lat="51.46028" lon="0.235749">
        <ele>4.92092</ele>
        <time>2024-08-10T19:46:59.000Z</time>
      </trkpt>
      <trkpt lat="51.460245" lon="0.236067">
        <ele>4.819306</ele>
        <time>2024-08-10T19:47:01.000Z</time>
      </trkpt>
      <trkpt lat="51.460266" lon="0.237578">
        <ele>4.353794</ele>
        <time>2024-08-10T19:47:11.000Z</time>
      </trkpt>
      <trkpt lat="51.460206" lon="0.238158">
        <ele>4.281776</ele>
        <time>2024-08-10T19:47:15.000Z</time>
      </trkpt>
      <trkpt lat="51.460112" lon="0.238639">
        <ele>4.220271</ele>
        <time>2024-08-10T19:47:18.000Z</time>
      </trkpt>
      <trkpt lat="51.460089" lon="0.238691">
        <ele>4.212984</ele>
        <time>2024-08-10T19:47:18.000Z</time>
      </trkpt>
      <trkpt lat="51.46005" lon="0.238848">
        <ele>4.191376</ele>
        <time>2024-08-10T19:47:19.000Z</time>
      </trkpt>
      <trkpt lat="51.459599" lon="0.240148">
        <ele>4.007692</ele>
        <time>2024-08-10T19:47:29.000Z</time>
      </trkpt>
      <trkpt lat="51.459314" lon="0.240729">
        <ele>4.016982</ele>
        <time>2024-08-10T19:47:34.000Z</time>
      </trkpt>
      <trkpt lat="51.458605" lon="0.241566">
        <ele>4.037535</ele>
        <time>2024-08-10T19:47:44.000Z</time>
      </trkpt>
      <trkpt lat="51.458564" lon="0.241614">
        <ele>4.03879</ele>
        <time>2024-08-10T19:47:45.000Z</time>
      </trkpt>
      <trkpt lat="51.458553" lon="0.241615">
        <ele>4.038855</ele>
        <time>2024-08-10T19:47:45.000Z</time>
      </trkpt>
      <trkpt lat="51.45856" lon="0.241604">
        <ele>4.038909</ele>
        <time>2024-08-10T19:47:45.000Z</time>
      </trkpt>
      <trkpt lat="51.458608" lon="0.24156">
        <ele>4.040161</ele>
        <time>2024-08-10T19:47:46.000Z</time>
      </trkpt>
      <trkpt lat="51.459304" lon="0.240737">
        <ele>4.047109</ele>
        <time>2024-08-10T19:47:56.000Z</time>
      </trkpt>
      <trkpt lat="51.459597" lon="0.240148">
        <ele>4.045834</ele>
        <time>2024-08-10T19:48:01.000Z</time>
      </trkpt>
      <trkpt lat="51.460052" lon="0.238857">
        <ele>4.092423</ele>
        <time>2024-08-10T19:48:11.000Z</time>
      </trkpt>
      <trkpt lat="51.460095" lon="0.238692">
        <ele>4.139764</ele>
        <time>2024-08-10T19:48:12.000Z</time>
      </trkpt>
      <trkpt lat="51.460115" lon="0.238629">
        <ele>4.155726</ele>
        <time>2024-08-10T19:48:12.000Z</time>
      </trkpt>
      <trkpt lat="51.460203" lon="0.238163">
        <ele>4.290443</ele>
        <time>2024-08-10T19:48:15.000Z</time>
      </trkpt>
      <trkpt lat="51.460255" lon="0.237576">
        <ele>4.448199</ele>
        <time>2024-08-10T19:48:19.000Z</time>
      </trkpt>
      <trkpt lat="51.460257" lon="0.236071">
        <ele>4.853298</ele>
        <time>2024-08-10T19:48:29.000Z</time>
      </trkpt>
      <trkpt lat="51.460272" lon="0.235742">
        <ele>4.927312</ele>
        <time>2024-08-10T19:48:31.000Z</time>
      </trkpt>
      <trkpt lat="51.460276" lon="0.23574">
        <ele>4.928224</ele>
        <time>2024-08-10T19:48:31.000Z</time>
      </trkpt>
      <trkpt lat="51.460318" lon="0.235215">
        <ele>5.048909</ele>
        <time>2024-08-10T19:48:35.000Z</time>
      </trkpt>
      <trkpt lat="51.460343" lon="0.23505">
        <ele>5.089752</ele>
        <time>2024-08-10T19:48:36.000Z</time>
      </trkpt>
      <trkpt lat="51.460677" lon="0.233733">
        <ele>5.415366</ele>
        <time>2024-08-10T19:48:46.000Z</time>
      </trkpt>
      <trkpt lat="51.461258" lon="0.232399">
        <ele>5.358615</ele>
        <time>2024-08-10T19:48:57.000Z</time>
      </trkpt>
      <trkpt lat="51.461328" lon="0.232256">
        <ele>5.341359</ele>
        <time>2024-08-10T19:48:58.000Z</time>
      </trkpt>
      <trkpt lat="51.461387" lon="0.232061">
        <ele>5.320929</ele>
        <time>2024-08-10T19:49:00.000Z</time>
      </trkpt>
      <trkpt lat="51.461412" lon="0.231964">
        <ele>5.309881</ele>
        <time>2024-08-10T19:49:01.000Z</time>
      </trkpt>
      <trkpt lat="51.461386" lon="0.231968">
        <ele>5.305432</ele>
        <time>2024-08-10T19:49:01.000Z</time>
      </trkpt>
      <trkpt lat="51.461386" lon="0.231968">
        <ele>5.305136</ele>
        <time>2024-08-10T19:49:01.000Z</time>
      </trkpt>
      <trkpt lat="51.461395" lon="0.231967">
        <ele>5.30482</ele>
        <time>2024-08-10T19:49:01.000Z</time>
      </trkpt>
      <trkpt lat="51.461381" lon="0.231965">
        <ele>5.304665</ele>
        <time>2024-08-10T19:49:01.000Z</time>
      </trkpt>
      <trkpt lat="51.461389" lon="0.231961">
        <ele>5.304366</ele>
        <time>2024-08-10T19:49:01.000Z</time>
      </trkpt>
      <trkpt lat="51.461376" lon="0.231956">
        <ele>5.304206</ele>
        <time>2024-08-10T19:49:01.000Z</time>
      </trkpt>
      <trkpt lat="51.461386" lon="0.231957">
        <ele>5.303906</ele>
        <time>2024-08-10T19:49:01.000Z</time>
      </trkpt>
      <trkpt lat="51.46135" lon="0.231965">
        <ele>5.298693</ele>
        <time>2024-08-10T19:49:01.000Z</time>
      </trkpt>
      <trkpt lat="51.46078" lon="0.2319">
        <ele>5.211614</ele>
        <time>2024-08-10T19:49:07.000Z</time>
      </trkpt>
      <trkpt lat="51.460689" lon="0.231911">
        <ele>5.190278</ele>
        <time>2024-08-10T19:49:08.000Z</time>
      </trkpt>
      <trkpt lat="51.460636" lon="0.231908">
        <ele>5.174594</ele>
        <time>2024-08-10T19:49:09.000Z</time>
      </trkpt>
      <trkpt lat="51.460573" lon="0.231925">
        <ele>5.153703</ele>
        <time>2024-08-10T19:49:10.000Z</time>
      </trkpt>
      <trkpt lat="51.460472" lon="0.231975">
        <ele>5.123867</ele>
        <time>2024-08-10T19:49:11.000Z</time>
      </trkpt>
      <trkpt lat="51.460452" lon="0.232041">
        <ele>5.111793</ele>
        <time>2024-08-10T19:49:12.000Z</time>
      </trkpt>
      <trkpt lat="51.460381" lon="0.232115">
        <ele>5.087948</ele>
        <time>2024-08-10T19:49:13.000Z</time>
      </trkpt>
      <trkpt lat="51.460352" lon="0.232141">
        <ele>5.07598</ele>
        <time>2024-08-10T19:49:13.000Z</time>
      </trkpt>
      <trkpt lat="51.460309" lon="0.232138">
        <ele>5.064545</ele>
        <time>2024-08-10T19:49:13.000Z</time>
      </trkpt>
      <trkpt lat="51.460298" lon="0.232141">
        <ele>5.063688</ele>
        <time>2024-08-10T19:49:13.000Z</time>
      </trkpt>
      <trkpt lat="51.460294" lon="0.232128">
        <ele>5.062819</ele>
        <time>2024-08-10T19:49:13.000Z</time>
      </trkpt>
      <trkpt lat="51.460306" lon="0.232129">
        <ele>5.062538</ele>
        <time>2024-08-10T19:49:13.000Z</time>
      </trkpt>
      <trkpt lat="51.4603" lon="0.232139">
        <ele>5.062532</ele>
        <time>2024-08-10T19:49:13.000Z</time>
      </trkpt>
      <trkpt lat="51.460287" lon="0.232124">
        <ele>5.062201</ele>
        <time>2024-08-10T19:49:13.000Z</time>
      </trkpt>
      <trkpt lat="51.460286" lon="0.232121">
        <ele>5.061874</ele>
        <time>2024-08-10T19:49:13.000Z</time>
      </trkpt>
      <trkpt lat="51.460295" lon="0.232138">
        <ele>5.061268</ele>
        <time>2024-08-10T19:49:13.000Z</time>
      </trkpt>
      <trkpt lat="51.460247" lon="0.232095">
        <ele>5.049185</ele>
        <time>2024-08-10T19:49:14.000Z</time>
      </trkpt>
      <trkpt lat="51.460214" lon="0.232045">
        <ele>5.03586</ele>
        <time>2024-08-10T19:49:15.000Z</time>
      </trkpt>
      <trkpt lat="51.460156" lon="0.232051">
        <ele>5.016812</ele>
        <time>2024-08-10T19:49:16.000Z</time>
      </trkpt>
      <trkpt lat="51.459807" lon="0.231958">
        <ele>4.917009</ele>
        <time>2024-08-10T19:49:20.000Z</time>
      </trkpt>
      <trkpt lat="51.459452" lon="0.231511">
        <ele>4.789122</ele>
        <time>2024-08-10T19:49:25.000Z</time>
      </trkpt>
      <trkpt lat="51.459165" lon="0.231317">
        <ele>4.70107</ele>
        <time>2024-08-10T19:49:28.000Z</time>
      </trkpt>
      <trkpt lat="51.459059" lon="0.231329">
        <ele>4.738976</ele>
        <time>2024-08-10T19:49:29.000Z</time>
      </trkpt>
      <trkpt lat="51.459008" lon="0.231355">
        <ele>4.759598</ele>
        <time>2024-08-10T19:49:30.000Z</time>
      </trkpt>
      <trkpt lat="51.458963" lon="0.231392">
        <ele>4.779868</ele>
        <time>2024-08-10T19:49:31.000Z</time>
      </trkpt>
      <trkpt lat="51.458762" lon="0.231577">
        <ele>4.880311</ele>
        <time>2024-08-10T19:49:34.000Z</time>
      </trkpt>
      <trkpt lat="51.458707" lon="0.231636">
        <ele>4.904373</ele>
        <time>2024-08-10T19:49:35.000Z</time>
      </trkpt>
      <trkpt lat="51.458716" lon="0.231631">
        <ele>4.905852</ele>
        <time>2024-08-10T19:49:35.000Z</time>
      </trkpt>
      <trkpt lat="51.458706" lon="0.23163">
        <ele>4.90634</ele>
        <time>2024-08-10T19:49:35.000Z</time>
      </trkpt>
      <trkpt lat="51.458712" lon="0.231634">
        <ele>4.907329</ele>
        <time>2024-08-10T19:49:35.000Z</time>
      </trkpt>
      <trkpt lat="51.458703" lon="0.231645">
        <ele>4.908312</ele>
        <time>2024-08-10T19:49:35.000Z</time>
      </trkpt>
      <trkpt lat="51.458712" lon="0.231649">
        <ele>4.908808</ele>
        <time>2024-08-10T19:49:35.000Z</time>
      </trkpt>
      <trkpt lat="51.458698" lon="0.231643">
        <ele>4.909788</ele>
        <time>2024-08-10T19:49:35.000Z</time>
      </trkpt>
      <trkpt lat="51.458696" lon="0.231645">
        <ele>4.91047</ele>
        <time>2024-08-10T19:49:35.000Z</time>
      </trkpt>
      <trkpt lat="51.458711" lon="0.231638">
        <ele>4.910455</ele>
        <time>2024-08-10T19:49:35.000Z</time>
      </trkpt>
      <trkpt lat="51.458705" lon="0.231654">
        <ele>4.910952</ele>
        <time>2024-08-10T19:49:35.000Z</time>
      </trkpt>
      <trkpt lat="51.458701" lon="0.231653">
        <ele>4.911852</ele>
        <time>2024-08-10T19:49:35.000Z</time>
      </trkpt>
      <trkpt lat="51.458706" lon="0.231642">
        <ele>4.912503</ele>
        <time>2024-08-10T19:49:35.000Z</time>
      </trkpt>
      <trkpt lat="51.458688" lon="0.231655">
        <ele>4.913495</ele>
        <time>2024-08-10T19:49:35.000Z</time>
      </trkpt>
      <trkpt lat="51.458687" lon="0.23166">
        <ele>4.914157</ele>
        <time>2024-08-10T19:49:35.000Z</time>
      </trkpt>
      <trkpt lat="51.458184" lon="0.232575">
        <ele>5.234837</ele>
        <time>2024-08-10T19:49:43.000Z</time>
      </trkpt>
      <trkpt lat="51.458174" lon="0.232579">
        <ele>5.237494</ele>
        <time>2024-08-10T19:49:43.000Z</time>
      </trkpt>
      <trkpt lat="51.458185" lon="0.23259">
        <ele>5.239051</ele>
        <time>2024-08-10T19:49:43.000Z</time>
      </trkpt>
      <trkpt lat="51.458187" lon="0.232596">
        <ele>5.239571</ele>
        <time>2024-08-10T19:49:43.000Z</time>
      </trkpt>
      <trkpt lat="51.458188" lon="0.232582">
        <ele>5.240068</ele>
        <time>2024-08-10T19:49:43.000Z</time>
      </trkpt>
      <trkpt lat="51.458187" lon="0.232599">
        <ele>5.240945</ele>
        <time>2024-08-10T19:49:43.000Z</time>
      </trkpt>
      <trkpt lat="51.45818" lon="0.232583">
        <ele>5.241435</ele>
        <time>2024-08-10T19:49:43.000Z</time>
      </trkpt>
      <trkpt lat="51.458174" lon="0.232595">
        <ele>5.241929</ele>
        <time>2024-08-10T19:49:43.000Z</time>
      </trkpt>
      <trkpt lat="51.458182" lon="0.232598">
        <ele>5.242457</ele>
        <time>2024-08-10T19:49:43.000Z</time>
      </trkpt>
      <trkpt lat="51.458186" lon="0.232604">
        <ele>5.243124</ele>
        <time>2024-08-10T19:49:43.000Z</time>
      </trkpt>
      <trkpt lat="51.45818" lon="0.232602">
        <ele>5.243787</ele>
        <time>2024-08-10T19:49:43.000Z</time>
      </trkpt>
      <trkpt lat="51.458177" lon="0.232596">
        <ele>5.24447</ele>
        <time>2024-08-10T19:49:43.000Z</time>
      </trkpt>
      <trkpt lat="51.458183" lon="0.232597">
        <ele>5.244985</ele>
        <time>2024-08-10T19:49:43.000Z</time>
      </trkpt>
      <trkpt lat="51.45817" lon="0.23261">
        <ele>5.245656</ele>
        <time>2024-08-10T19:49:43.000Z</time>
      </trkpt>
      <trkpt lat="51.45818" lon="0.232599">
        <ele>5.246313</ele>
        <time>2024-08-10T19:49:43.000Z</time>
      </trkpt>
      <trkpt lat="51.458169" lon="0.232613">
        <ele>5.246992</ele>
        <time>2024-08-10T19:49:43.000Z</time>
      </trkpt>
      <trkpt lat="51.457779" lon="0.23361">
        <ele>5.611679</ele>
        <time>2024-08-10T19:49:51.000Z</time>
      </trkpt>
      <trkpt lat="51.457466" lon="0.234607">
        <ele>6.052043</ele>
        <time>2024-08-10T19:49:59.000Z</time>
      </trkpt>
      <trkpt lat="51.457467" lon="0.234615">
        <ele>6.052436</ele>
        <time>2024-08-10T19:49:59.000Z</time>
      </trkpt>
      <trkpt lat="51.457478" lon="0.23461">
        <ele>6.053186</ele>
        <time>2024-08-10T19:49:59.000Z</time>
      </trkpt>
      <trkpt lat="51.457474" lon="0.234611">
        <ele>6.053986</ele>
        <time>2024-08-10T19:49:59.000Z</time>
      </trkpt>
      <trkpt lat="51.457477" lon="0.234613">
        <ele>6.054786</ele>
        <time>2024-08-10T19:49:59.000Z</time>
      </trkpt>
      <trkpt lat="51.457475" lon="0.234613">
        <ele>6.055525</ele>
        <time>2024-08-10T19:49:59.000Z</time>
      </trkpt>
      <trkpt lat="51.457475" lon="0.234612">
        <ele>6.056313</ele>
        <time>2024-08-10T19:49:59.000Z</time>
      </trkpt>
      <trkpt lat="51.457478" lon="0.234616">
        <ele>6.057674</ele>
        <time>2024-08-10T19:49:59.000Z</time>
      </trkpt>
      <trkpt lat="51.457466" lon="0.234619">
        <ele>6.058469</ele>
        <time>2024-08-10T19:49:59.000Z</time>
      </trkpt>
      <trkpt lat="51.457472" lon="0.234625">
        <ele>6.059211</ele>
        <time>2024-08-10T19:49:59.000Z</time>
      </trkpt>
      <trkpt lat="51.457472" lon="0.234634">
        <ele>6.060398</ele>
        <time>2024-08-10T19:49:59.000Z</time>
      </trkpt>
      <trkpt lat="51.457471" lon="0.234628">
        <ele>6.061148</ele>
        <time>2024-08-10T19:49:59.000Z</time>
      </trkpt>
      <trkpt lat="51.457465" lon="0.234642">
        <ele>6.062352</ele>
        <time>2024-08-10T19:49:59.000Z</time>
      </trkpt>
      <trkpt lat="51.457476" lon="0.234637">
        <ele>6.064419</ele>
        <time>2024-08-10T19:49:59.000Z</time>
      </trkpt>
      <trkpt lat="51.456909" lon="0.236946">
        <ele>7.153009</ele>
        <time>2024-08-10T19:50:16.000Z</time>
      </trkpt>
      <trkpt lat="51.4569" lon="0.236962">
        <ele>7.168938</ele>
        <time>2024-08-10T19:50:16.000Z</time>
      </trkpt>
      <trkpt lat="51.45691" lon="0.236966">
        <ele>7.170618</ele>
        <time>2024-08-10T19:50:16.000Z</time>
      </trkpt>
      <trkpt lat="51.456902" lon="0.236975">
        <ele>7.171884</ele>
        <time>2024-08-10T19:50:16.000Z</time>
      </trkpt>
      <trkpt lat="51.45691" lon="0.236978">
        <ele>7.172885</ele>
        <time>2024-08-10T19:50:16.000Z</time>
      </trkpt>
      <trkpt lat="51.456898" lon="0.236981">
        <ele>7.174148</ele>
        <time>2024-08-10T19:50:16.000Z</time>
      </trkpt>
      <trkpt lat="51.456902" lon="0.236976">
        <ele>7.175415</ele>
        <time>2024-08-10T19:50:16.000Z</time>
      </trkpt>
      <trkpt lat="51.456904" lon="0.236993">
        <ele>7.177537</ele>
        <time>2024-08-10T19:50:16.000Z</time>
      </trkpt>
      <trkpt lat="51.45689" lon="0.236984">
        <ele>7.178467</ele>
        <time>2024-08-10T19:50:16.000Z</time>
      </trkpt>
      <trkpt lat="51.456907" lon="0.236995">
        <ele>7.179469</ele>
        <time>2024-08-10T19:50:16.000Z</time>
      </trkpt>
      <trkpt lat="51.456893" lon="0.23698">
        <ele>7.18072</ele>
        <time>2024-08-10T19:50:16.000Z</time>
      </trkpt>
      <trkpt lat="51.456558" lon="0.237938">
        <ele>7.724087</ele>
        <time>2024-08-10T19:50:24.000Z</time>
      </trkpt>
      <trkpt lat="51.456536" lon="0.23797">
        <ele>7.739659</ele>
        <time>2024-08-10T19:50:24.000Z</time>
      </trkpt>
      <trkpt lat="51.456539" lon="0.237978">
        <ele>7.742593</ele>
        <time>2024-08-10T19:50:24.000Z</time>
      </trkpt>
      <trkpt lat="51.456549" lon="0.237968">
        <ele>7.743536</ele>
        <time>2024-08-10T19:50:24.000Z</time>
      </trkpt>
      <trkpt lat="51.456541" lon="0.237985">
        <ele>7.745198</ele>
        <time>2024-08-10T19:50:24.000Z</time>
      </trkpt>
      <trkpt lat="51.456534" lon="0.237981">
        <ele>7.746478</ele>
        <time>2024-08-10T19:50:24.000Z</time>
      </trkpt>
      <trkpt lat="51.456542" lon="0.237984">
        <ele>7.748345</ele>
        <time>2024-08-10T19:50:24.000Z</time>
      </trkpt>
      <trkpt lat="51.45653" lon="0.237978">
        <ele>7.749601</ele>
        <time>2024-08-10T19:50:24.000Z</time>
      </trkpt>
      <trkpt lat="51.456533" lon="0.237987">
        <ele>7.751285</ele>
        <time>2024-08-10T19:50:24.000Z</time>
      </trkpt>
      <trkpt lat="51.456529" lon="0.237991">
        <ele>7.753809</ele>
        <time>2024-08-10T19:50:24.000Z</time>
      </trkpt>
      <trkpt lat="51.456533" lon="0.238">
        <ele>7.755491</ele>
        <time>2024-08-10T19:50:24.000Z</time>
      </trkpt>
      <trkpt lat="51.456536" lon="0.237987">
        <ele>7.756435</ele>
        <time>2024-08-10T19:50:24.000Z</time>
      </trkpt>
      <trkpt lat="51.456524" lon="0.238">
        <ele>7.757698</ele>
        <time>2024-08-10T19:50:24.000Z</time>
      </trkpt>
      <trkpt lat="51.456531" lon="0.237995">
        <ele>7.759368</ele>
        <time>2024-08-10T19:50:24.000Z</time>
      </trkpt>
      <trkpt lat="51.456088" lon="0.238921">
        <ele>8.27619</ele>
        <time>2024-08-10T19:50:32.000Z</time>
      </trkpt>
      <trkpt lat="51.455847" lon="0.239302">
        <ele>8.485217</ele>
        <time>2024-08-10T19:50:36.000Z</time>
      </trkpt>
      <trkpt lat="51.455861" lon="0.239297">
        <ele>8.486978</ele>
        <time>2024-08-10T19:50:36.000Z</time>
      </trkpt>
      <trkpt lat="51.455858" lon="0.239297">
        <ele>8.488498</ele>
        <time>2024-08-10T19:50:36.000Z</time>
      </trkpt>
      <trkpt lat="51.455843" lon="0.239313">
        <ele>8.489857</ele>
        <time>2024-08-10T19:50:36.000Z</time>
      </trkpt>
      <trkpt lat="51.455854" lon="0.239302">
        <ele>8.490611</ele>
        <time>2024-08-10T19:50:36.000Z</time>
      </trkpt>
      <trkpt lat="51.455849" lon="0.239299">
        <ele>8.491367</ele>
        <time>2024-08-10T19:50:36.000Z</time>
      </trkpt>
      <trkpt lat="51.455844" lon="0.239309">
        <ele>8.492385</ele>
        <time>2024-08-10T19:50:36.000Z</time>
      </trkpt>
      <trkpt lat="51.455856" lon="0.239319">
        <ele>8.493409</ele>
        <time>2024-08-10T19:50:36.000Z</time>
      </trkpt>
      <trkpt lat="51.455839" lon="0.239311">
        <ele>8.494171</ele>
        <time>2024-08-10T19:50:36.000Z</time>
      </trkpt>
      <trkpt lat="51.455837" lon="0.23932">
        <ele>8.495199</ele>
        <time>2024-08-10T19:50:36.000Z</time>
      </trkpt>
      <trkpt lat="51.455769" lon="0.239436">
        <ele>8.564005</ele>
        <time>2024-08-10T19:50:37.000Z</time>
      </trkpt>
      <trkpt lat="51.45512" lon="0.240233">
        <ele>9.087578</ele>
        <time>2024-08-10T19:50:46.000Z</time>
      </trkpt>
      <trkpt lat="51.455123" lon="0.240248">
        <ele>9.09008</ele>
        <time>2024-08-10T19:50:46.000Z</time>
      </trkpt>
      <trkpt lat="51.455111" lon="0.240242">
        <ele>9.090833</ele>
        <time>2024-08-10T19:50:46.000Z</time>
      </trkpt>
      <trkpt lat="51.455123" lon="0.240249">
        <ele>9.091589</ele>
        <time>2024-08-10T19:50:46.000Z</time>
      </trkpt>
      <trkpt lat="51.455121" lon="0.240238">
        <ele>9.092346</ele>
        <time>2024-08-10T19:50:46.000Z</time>
      </trkpt>
      <trkpt lat="51.455124" lon="0.240251">
        <ele>9.093106</ele>
        <time>2024-08-10T19:50:46.000Z</time>
      </trkpt>
      <trkpt lat="51.455116" lon="0.240244">
        <ele>9.09387</ele>
        <time>2024-08-10T19:50:46.000Z</time>
      </trkpt>
      <trkpt lat="51.455112" lon="0.240245">
        <ele>9.095617</ele>
        <time>2024-08-10T19:50:46.000Z</time>
      </trkpt>
      <trkpt lat="51.455107" lon="0.240251">
        <ele>9.096373</ele>
        <time>2024-08-10T19:50:46.000Z</time>
      </trkpt>
      <trkpt lat="51.45511" lon="0.240251">
        <ele>9.097405</ele>
        <time>2024-08-10T19:50:46.000Z</time>
      </trkpt>
      <trkpt lat="51.45511" lon="0.240254">
        <ele>9.098912</ele>
        <time>2024-08-10T19:50:46.000Z</time>
      </trkpt>
      <trkpt lat="51.455107" lon="0.240261">
        <ele>9.100673</ele>
        <time>2024-08-10T19:50:46.000Z</time>
      </trkpt>
      <trkpt lat="51.455111" lon="0.240261">
        <ele>9.102182</ele>
        <time>2024-08-10T19:50:46.000Z</time>
      </trkpt>
      <trkpt lat="51.455104" lon="0.240251">
        <ele>9.10295</ele>
        <time>2024-08-10T19:50:46.000Z</time>
      </trkpt>
      <trkpt lat="51.455082" lon="0.240288">
        <ele>9.121455</ele>
        <time>2024-08-10T19:50:46.000Z</time>
      </trkpt>
      <trkpt lat="51.454694" lon="0.240616">
        <ele>9.091973</ele>
        <time>2024-08-10T19:50:51.000Z</time>
      </trkpt>
      <trkpt lat="51.454612" lon="0.240681">
        <ele>9.072238</ele>
        <time>2024-08-10T19:50:52.000Z</time>
      </trkpt>
      <trkpt lat="51.454597" lon="0.240676">
        <ele>9.07177</ele>
        <time>2024-08-10T19:50:52.000Z</time>
      </trkpt>
      <trkpt lat="51.454597" lon="0.240695">
        <ele>9.071247</ele>
        <time>2024-08-10T19:50:52.000Z</time>
      </trkpt>
      <trkpt lat="51.454594" lon="0.240685">
        <ele>9.070973</ele>
        <time>2024-08-10T19:50:52.000Z</time>
      </trkpt>
      <trkpt lat="51.454605" lon="0.240691">
        <ele>9.070455</ele>
        <time>2024-08-10T19:50:52.000Z</time>
      </trkpt>
      <trkpt lat="51.454607" lon="0.240687">
        <ele>9.07045</ele>
        <time>2024-08-10T19:50:52.000Z</time>
      </trkpt>
      <trkpt lat="51.45461" lon="0.240685">
        <ele>9.070451</ele>
        <time>2024-08-10T19:50:52.000Z</time>
      </trkpt>
      <trkpt lat="51.455117" lon="0.240243">
        <ele>8.938699</ele>
        <time>2024-08-10T19:50:58.000Z</time>
      </trkpt>
      <trkpt lat="51.455122" lon="0.240241">
        <ele>8.938712</ele>
        <time>2024-08-10T19:50:58.000Z</time>
      </trkpt>
      <trkpt lat="51.455492" lon="0.239782">
        <ele>8.834601</ele>
        <time>2024-08-10T19:51:03.000Z</time>
      </trkpt>
      <trkpt lat="51.455855" lon="0.239308">
        <ele>8.62472</ele>
        <time>2024-08-10T19:51:08.000Z</time>
      </trkpt>
      <trkpt lat="51.455843" lon="0.239306">
        <ele>8.624707</ele>
        <time>2024-08-10T19:51:08.000Z</time>
      </trkpt>
      <trkpt lat="51.456186" lon="0.238648">
        <ele>8.191226</ele>
        <time>2024-08-10T19:51:14.000Z</time>
      </trkpt>
      <trkpt lat="51.45654" lon="0.23797">
        <ele>7.757733</ele>
        <time>2024-08-10T19:51:20.000Z</time>
      </trkpt>
      <trkpt lat="51.456539" lon="0.237982">
        <ele>7.757744</ele>
        <time>2024-08-10T19:51:20.000Z</time>
      </trkpt>
      <trkpt lat="51.456911" lon="0.236972">
        <ele>7.192663</ele>
        <time>2024-08-10T19:51:28.000Z</time>
      </trkpt>
      <trkpt lat="51.456906" lon="0.236968">
        <ele>7.192657</ele>
        <time>2024-08-10T19:51:28.000Z</time>
      </trkpt>
      <trkpt lat="51.45718" lon="0.235792">
        <ele>6.62666</ele>
        <time>2024-08-10T19:51:37.000Z</time>
      </trkpt>
      <trkpt lat="51.457463" lon="0.234626">
        <ele>6.060931</ele>
        <time>2024-08-10T19:51:46.000Z</time>
      </trkpt>
      <trkpt lat="51.457473" lon="0.234617">
        <ele>6.060931</ele>
        <time>2024-08-10T19:51:46.000Z</time>
      </trkpt>
      <trkpt lat="51.457829" lon="0.233601">
        <ele>5.642536</ele>
        <time>2024-08-10T19:51:54.000Z</time>
      </trkpt>
      <trkpt lat="51.458178" lon="0.232587">
        <ele>5.230599</ele>
        <time>2024-08-10T19:52:02.000Z</time>
      </trkpt>
      <trkpt lat="51.458185" lon="0.232595">
        <ele>5.230609</ele>
        <time>2024-08-10T19:52:02.000Z</time>
      </trkpt>
      <trkpt lat="51.458179" lon="0.232593">
        <ele>5.23061</ele>
        <time>2024-08-10T19:52:02.000Z</time>
      </trkpt>
      <trkpt lat="51.458702" lon="0.231645">
        <ele>5.106955</ele>
        <time>2024-08-10T19:52:11.000Z</time>
      </trkpt>
      <trkpt lat="51.458704" lon="0.231637">
        <ele>5.106963</ele>
        <time>2024-08-10T19:52:11.000Z</time>
      </trkpt>
      <trkpt lat="51.4587" lon="0.231645">
        <ele>5.106962</ele>
        <time>2024-08-10T19:52:11.000Z</time>
      </trkpt>
      <trkpt lat="51.459097" lon="0.231221">
        <ele>5.217108</ele>
        <time>2024-08-10T19:52:16.000Z</time>
      </trkpt>
      <trkpt lat="51.45911" lon="0.231231">
        <ele>5.217116</ele>
        <time>2024-08-10T19:52:16.000Z</time>
      </trkpt>
      <trkpt lat="51.459097" lon="0.231238">
        <ele>5.217114</ele>
        <time>2024-08-10T19:52:16.000Z</time>
      </trkpt>
      <trkpt lat="51.459154" lon="0.230615">
        <ele>5.306339</ele>
        <time>2024-08-10T19:52:20.000Z</time>
      </trkpt>
      <trkpt lat="51.459148" lon="0.230631">
        <ele>5.306341</ele>
        <time>2024-08-10T19:52:20.000Z</time>
      </trkpt>
      <trkpt lat="51.459151" lon="0.230626">
        <ele>5.306346</ele>
        <time>2024-08-10T19:52:20.000Z</time>
      </trkpt>
      <trkpt lat="51.459276" lon="0.229857">
        <ele>5.422789</ele>
        <time>2024-08-10T19:52:26.000Z</time>
      </trkpt>
      <trkpt lat="51.459399" lon="0.229069">
        <ele>5.637906</ele>
        <time>2024-08-10T19:52:32.000Z</time>
      </trkpt>
      <trkpt lat="51.459393" lon="0.229071">
        <ele>5.637902</ele>
        <time>2024-08-10T19:52:32.000Z</time>
      </trkpt>
      <trkpt lat="51.45939" lon="0.229066">
        <ele>5.637904</ele>
        <time>2024-08-10T19:52:32.000Z</time>
      </trkpt>
      <trkpt lat="51.45945" lon="0.228175">
        <ele>5.889957</ele>
        <time>2024-08-10T19:52:38.000Z</time>
      </trkpt>
      <trkpt lat="51.459494" lon="0.227282">
        <ele>6.142296</ele>
        <time>2024-08-10T19:52:44.000Z</time>
      </trkpt>
      <trkpt lat="51.459492" lon="0.227275">
        <ele>6.142281</ele>
        <time>2024-08-10T19:52:44.000Z</time>
      </trkpt>
      <trkpt lat="51.459472" lon="0.226093">
        <ele>6.31492</ele>
        <time>2024-08-10T19:52:52.000Z</time>
      </trkpt>
      <trkpt lat="51.459461" lon="0.224902">
        <ele>6.418977</ele>
        <time>2024-08-10T19:53:00.000Z</time>
      </trkpt>
      <trkpt lat="51.459442" lon="0.223719">
        <ele>6.486492</ele>
        <time>2024-08-10T19:53:08.000Z</time>
      </trkpt>
      <trkpt lat="51.459432" lon="0.223719">
        <ele>6.486492</ele>
        <time>2024-08-10T19:53:08.000Z</time>
      </trkpt>
      <trkpt lat="51.459401" lon="0.222671">
        <ele>6.457478</ele>
        <time>2024-08-10T19:53:15.000Z</time>
      </trkpt>
      <trkpt lat="51.459338" lon="0.221604">
        <ele>6.428468</ele>
        <time>2024-08-10T19:53:22.000Z</time>
      </trkpt>
      <trkpt lat="51.459296" lon="0.220529">
        <ele>6.426402</ele>
        <time>2024-08-10T19:53:29.000Z</time>
      </trkpt>
      <trkpt lat="51.459316" lon="0.221232">
        <ele>6.437451</ele>
        <time>2024-08-10T19:53:34.000Z</time>
      </trkpt>
      <trkpt lat="51.459447" lon="0.223711">
        <ele>6.491911</ele>
        <time>2024-08-10T19:53:51.000Z</time>
      </trkpt>
      <trkpt lat="51.459495" lon="0.227303">
        <ele>6.27176</ele>
        <time>2024-08-10T19:54:16.000Z</time>
      </trkpt>
      <trkpt lat="51.459479" lon="0.228234">
        <ele>6.109087</ele>
        <time>2024-08-10T19:54:22.000Z</time>
      </trkpt>
      <trkpt lat="51.459357" lon="0.229411">
        <ele>5.717207</ele>
        <time>2024-08-10T19:54:30.000Z</time>
      </trkpt>
      <trkpt lat="51.459312" lon="0.229777">
        <ele>5.56785</ele>
        <time>2024-08-10T19:54:33.000Z</time>
      </trkpt>
      <trkpt lat="51.459172" lon="0.230445">
        <ele>5.301204</ele>
        <time>2024-08-10T19:54:38.000Z</time>
      </trkpt>
      <trkpt lat="51.459138" lon="0.230723">
        <ele>5.192044</ele>
        <time>2024-08-10T19:54:40.000Z</time>
      </trkpt>
      <trkpt lat="51.459139" lon="0.230964">
        <ele>5.092625</ele>
        <time>2024-08-10T19:54:42.000Z</time>
      </trkpt>
      <trkpt lat="51.459138" lon="0.230998">
        <ele>5.078914</ele>
        <time>2024-08-10T19:54:42.000Z</time>
      </trkpt>
      <trkpt lat="51.459229" lon="0.231114">
        <ele>5.009968</ele>
        <time>2024-08-10T19:54:43.000Z</time>
      </trkpt>
      <trkpt lat="51.459475" lon="0.231346">
        <ele>4.959117</ele>
        <time>2024-08-10T19:54:46.000Z</time>
      </trkpt>
      <trkpt lat="51.459785" lon="0.23179">
        <ele>5.028774</ele>
        <time>2024-08-10T19:54:51.000Z</time>
      </trkpt>
      <trkpt lat="51.460021" lon="0.231916">
        <ele>5.068382</ele>
        <time>2024-08-10T19:54:54.000Z</time>
      </trkpt>
      <trkpt lat="51.460123" lon="0.23188">
        <ele>5.087562</ele>
        <time>2024-08-10T19:54:55.000Z</time>
      </trkpt>
      <trkpt lat="51.460193" lon="0.231813">
        <ele>5.100683</ele>
        <time>2024-08-10T19:54:56.000Z</time>
      </trkpt>
      <trkpt lat="51.460215" lon="0.231763">
        <ele>5.108622</ele>
        <time>2024-08-10T19:54:56.000Z</time>
      </trkpt>
      <trkpt lat="51.460253" lon="0.231708">
        <ele>5.11662</ele>
        <time>2024-08-10T19:54:57.000Z</time>
      </trkpt>
      <trkpt lat="51.460311" lon="0.231673">
        <ele>5.126859</ele>
        <time>2024-08-10T19:54:58.000Z</time>
      </trkpt>
      <trkpt lat="51.460381" lon="0.231683">
        <ele>5.136884</ele>
        <time>2024-08-10T19:54:59.000Z</time>
      </trkpt>
      <trkpt lat="51.460423" lon="0.231716">
        <ele>5.144817</ele>
        <time>2024-08-10T19:55:00.000Z</time>
      </trkpt>
      <trkpt lat="51.460448" lon="0.231764">
        <ele>5.152646</ele>
        <time>2024-08-10T19:55:00.000Z</time>
      </trkpt>
      <trkpt lat="51.460551" lon="0.231806">
        <ele>5.16981</ele>
        <time>2024-08-10T19:55:01.000Z</time>
      </trkpt>
      <trkpt lat="51.460647" lon="0.231863">
        <ele>5.187916</ele>
        <time>2024-08-10T19:55:02.000Z</time>
      </trkpt>
      <trkpt lat="51.460787" lon="0.231888">
        <ele>5.209143</ele>
        <time>2024-08-10T19:55:04.000Z</time>
      </trkpt>
      <trkpt lat="51.461356" lon="0.23196">
        <ele>5.501217</ele>
        <time>2024-08-10T19:55:10.000Z</time>
      </trkpt>
      <trkpt lat="51.461425" lon="0.23196">
        <ele>5.546454</ele>
        <time>2024-08-10T19:55:11.000Z</time>
      </trkpt>
      <trkpt lat="51.461462" lon="0.231836">
        <ele>5.602139</ele>
        <time>2024-08-10T19:55:12.000Z</time>
      </trkpt>
      <trkpt lat="51.461517" lon="0.231599">
        <ele>5.700533</ele>
        <time>2024-08-10T19:55:14.000Z</time>
      </trkpt>
      <trkpt lat="51.461574" lon="0.23134">
        <ele>5.802807</ele>
        <time>2024-08-10T19:55:16.000Z</time>
      </trkpt>
      <trkpt lat="51.461602" lon="0.231144">
        <ele>5.885139</ele>
        <time>2024-08-10T19:55:17.000Z</time>
      </trkpt>
      <trkpt lat="51.461675" lon="0.230509">
        <ele>6.133307</ele>
        <time>2024-08-10T19:55:21.000Z</time>
      </trkpt>
      <trkpt lat="51.461862" lon="0.226896">
        <ele>7.5685</ele>
        <time>2024-08-10T19:55:46.000Z</time>
      </trkpt>
      <trkpt lat="51.461865" lon="0.226725">
        <ele>7.579116</ele>
        <time>2024-08-10T19:55:47.000Z</time>
      </trkpt>
      <trkpt lat="51.461853" lon="0.226359">
        <ele>7.600361</ele>
        <time>2024-08-10T19:55:50.000Z</time>
      </trkpt>
      <trkpt lat="51.461826" lon="0.226202">
        <ele>7.609666</ele>
        <time>2024-08-10T19:55:51.000Z</time>
      </trkpt>
      <trkpt lat="51.460976" lon="0.224093">
        <ele>7.724418</ele>
        <time>2024-08-10T19:56:08.000Z</time>
      </trkpt>
      <trkpt lat="51.460793" lon="0.223758">
        <ele>7.721811</ele>
        <time>2024-08-10T19:56:11.000Z</time>
      </trkpt>
      <trkpt lat="51.460526" lon="0.223448">
        <ele>7.718636</ele>
        <time>2024-08-10T19:56:15.000Z</time>
      </trkpt>
      <trkpt lat="51.460497" lon="0.223415">
        <ele>7.718314</ele>
        <time>2024-08-10T19:56:15.000Z</time>
      </trkpt>
      <trkpt lat="51.460496" lon="0.223414">
        <ele>7.718221</ele>
        <time>2024-08-10T19:56:15.000Z</time>
      </trkpt>
      <trkpt lat="51.460497" lon="0.223414">
        <ele>7.718222</ele>
        <time>2024-08-10T19:56:15.000Z</time>
      </trkpt>
      <trkpt lat="51.46049" lon="0.223407">
        <ele>7.718211</ele>
        <time>2024-08-10T19:56:15.000Z</time>
      </trkpt>
      <trkpt lat="51.460495" lon="0.223407">
        <ele>7.71812</ele>
        <time>2024-08-10T19:56:15.000Z</time>
      </trkpt>
      <trkpt lat="51.460534" lon="0.223448">
        <ele>7.717816</ele>
        <time>2024-08-10T19:56:16.000Z</time>
      </trkpt>
      <trkpt lat="51.460802" lon="0.223758">
        <ele>7.714626</ele>
        <time>2024-08-10T19:56:20.000Z</time>
      </trkpt>
      <trkpt lat="51.460979" lon="0.224092">
        <ele>7.712018</ele>
        <time>2024-08-10T19:56:23.000Z</time>
      </trkpt>
      <trkpt lat="51.461822" lon="0.226216">
        <ele>7.629221</ele>
        <time>2024-08-10T19:56:40.000Z</time>
      </trkpt>
      <trkpt lat="51.461839" lon="0.226355">
        <ele>7.623396</ele>
        <time>2024-08-10T19:56:41.000Z</time>
      </trkpt>
      <trkpt lat="51.461851" lon="0.226731">
        <ele>7.610097</ele>
        <time>2024-08-10T19:56:44.000Z</time>
      </trkpt>
      <trkpt lat="51.461851" lon="0.226903">
        <ele>7.594311</ele>
        <time>2024-08-10T19:56:45.000Z</time>
      </trkpt>
      <trkpt lat="51.461661" lon="0.2305">
        <ele>6.156104</ele>
        <time>2024-08-10T19:57:10.000Z</time>
      </trkpt>
      <trkpt lat="51.461606" lon="0.231145">
        <ele>5.976328</ele>
        <time>2024-08-10T19:57:15.000Z</time>
      </trkpt>
      <trkpt lat="51.461566" lon="0.23135">
        <ele>5.91669</ele>
        <time>2024-08-10T19:57:16.000Z</time>
      </trkpt>
      <trkpt lat="51.461514" lon="0.231588">
        <ele>5.842578</ele>
        <time>2024-08-10T19:57:18.000Z</time>
      </trkpt>
      <trkpt lat="51.461462" lon="0.231832">
        <ele>5.771302</ele>
        <time>2024-08-10T19:57:20.000Z</time>
      </trkpt>
      <trkpt lat="51.461429" lon="0.231962">
        <ele>5.73097</ele>
        <time>2024-08-10T19:57:21.000Z</time>
      </trkpt>
      <trkpt lat="51.461388" lon="0.232066">
        <ele>5.698586</ele>
        <time>2024-08-10T19:57:22.000Z</time>
      </trkpt>
      <trkpt lat="51.461329" lon="0.232248">
        <ele>5.638727</ele>
        <time>2024-08-10T19:57:23.000Z</time>
      </trkpt>
      <trkpt lat="51.461257" lon="0.232393">
        <ele>5.588172</ele>
        <time>2024-08-10T19:57:24.000Z</time>
      </trkpt>
      <trkpt lat="51.460677" lon="0.233726">
        <ele>5.363517</ele>
        <time>2024-08-10T19:57:35.000Z</time>
      </trkpt>
      <trkpt lat="51.460346" lon="0.235035">
        <ele>5.172446</ele>
        <time>2024-08-10T19:57:45.000Z</time>
      </trkpt>
      <trkpt lat="51.460316" lon="0.23521">
        <ele>5.115193</ele>
        <time>2024-08-10T19:57:46.000Z</time>
      </trkpt>
      <trkpt lat="51.460278" lon="0.235733">
        <ele>4.946101</ele>
        <time>2024-08-10T19:57:50.000Z</time>
      </trkpt>
      <trkpt lat="51.460272" lon="0.235737">
        <ele>4.944806</ele>
        <time>2024-08-10T19:57:50.000Z</time>
      </trkpt>
      <trkpt lat="51.460242" lon="0.236072">
        <ele>4.841094</ele>
        <time>2024-08-10T19:57:52.000Z</time>
      </trkpt>
      <trkpt lat="51.460253" lon="0.237585">
        <ele>4.352907</ele>
        <time>2024-08-10T19:58:02.000Z</time>
      </trkpt>
      <trkpt lat="51.460198" lon="0.238167">
        <ele>4.235281</ele>
        <time>2024-08-10T19:58:06.000Z</time>
      </trkpt>
      <trkpt lat="51.460109" lon="0.238638">
        <ele>4.192647</ele>
        <time>2024-08-10T19:58:09.000Z</time>
      </trkpt>
      <trkpt lat="51.460102" lon="0.238681">
        <ele>4.187583</ele>
        <time>2024-08-10T19:58:09.000Z</time>
      </trkpt>
      <trkpt lat="51.460054" lon="0.23884">
        <ele>4.172605</ele>
        <time>2024-08-10T19:58:10.000Z</time>
      </trkpt>
      <trkpt lat="51.459612" lon="0.240155">
        <ele>4.045247</ele>
        <time>2024-08-10T19:58:20.000Z</time>
      </trkpt>
      <trkpt lat="51.459299" lon="0.240729">
        <ele>4.01749</ele>
        <time>2024-08-10T19:58:25.000Z</time>
      </trkpt>
      <trkpt lat="51.458605" lon="0.241565">
        <ele>4.030525</ele>
        <time>2024-08-10T19:58:35.000Z</time>
      </trkpt>
      <trkpt lat="51.458564" lon="0.241606">
        <ele>4.031314</ele>
        <time>2024-08-10T19:58:36.000Z</time>
      </trkpt>
      <trkpt lat="51.458556" lon="0.24161">
        <ele>4.03135</ele>
        <time>2024-08-10T19:58:36.000Z</time>
      </trkpt>
      <trkpt lat="51.458549" lon="0.241604">
        <ele>4.031392</ele>
        <time>2024-08-10T19:58:36.000Z</time>
      </trkpt>
      <trkpt lat="51.458604" lon="0.241571">
        <ele>4.032188</ele>
        <time>2024-08-10T19:58:37.000Z</time>
      </trkpt>
      <trkpt lat="51.459303" lon="0.240732">
        <ele>4.048299</ele>
        <time>2024-08-10T19:58:47.000Z</time>
      </trkpt>
      <trkpt lat="51.459602" lon="0.240164">
        <ele>4.060092</ele>
        <time>2024-08-10T19:58:52.000Z</time>
      </trkpt>
      <trkpt lat="51.460051" lon="0.238858">
        <ele>4.083584</ele>
        <time>2024-08-10T19:59:02.000Z</time>
      </trkpt>
      <trkpt lat="51.460096" lon="0.238683">
        <ele>4.086929</ele>
        <time>2024-08-10T19:59:03.000Z</time>
      </trkpt>
      <trkpt lat="51.460106" lon="0.238645">
        <ele>4.104395</ele>
        <time>2024-08-10T19:59:03.000Z</time>
      </trkpt>
      <trkpt lat="51.460208" lon="0.238162">
        <ele>4.251821</ele>
        <time>2024-08-10T19:59:07.000Z</time>
      </trkpt>
      <trkpt lat="51.46026" lon="0.237581">
        <ele>4.42447</ele>
        <time>2024-08-10T19:59:11.000Z</time>
      </trkpt>
      <trkpt lat="51.460257" lon="0.236067">
        <ele>4.873685</ele>
        <time>2024-08-10T19:59:21.000Z</time>
      </trkpt>
      <trkpt lat="51.460271" lon="0.235739">
        <ele>4.959483</ele>
        <time>2024-08-10T19:59:23.000Z</time>
      </trkpt>
      <trkpt lat="51.460276" lon="0.235734">
        <ele>4.96028</ele>
        <time>2024-08-10T19:59:23.000Z</time>
      </trkpt>
      <trkpt lat="51.460323" lon="0.235218">
        <ele>5.065355</ele>
        <time>2024-08-10T19:59:27.000Z</time>
      </trkpt>
      <trkpt lat="51.460334" lon="0.235044">
        <ele>5.100905</ele>
        <time>2024-08-10T19:59:28.000Z</time>
      </trkpt>
      <trkpt lat="51.460679" lon="0.233728">
        <ele>5.38439</ele>
        <time>2024-08-10T19:59:38.000Z</time>
      </trkpt>
      <trkpt lat="51.461256" lon="0.232401">
        <ele>5.381967</ele>
        <time>2024-08-10T19:59:49.000Z</time>
      </trkpt>
      <trkpt lat="51.461313" lon="0.232242">
        <ele>5.357015</ele>
        <time>2024-08-10T19:59:50.000Z</time>
      </trkpt>
      <trkpt lat="51.46139" lon="0.232068">
        <ele>5.327461</ele>
        <time>2024-08-10T19:59:51.000Z</time>
      </trkpt>
      <trkpt lat="51.46142" lon="0.231956">
        <ele>5.31148</ele>
        <time>2024-08-10T19:59:52.000Z</time>
      </trkpt>
      <trkpt lat="51.461384" lon="0.231968">
        <ele>5.305049</ele>
        <time>2024-08-10T19:59:52.000Z</time>
      </trkpt>
      <trkpt lat="51.461388" lon="0.231955">
        <ele>5.304608</ele>
        <time>2024-08-10T19:59:52.000Z</time>
      </trkpt>
      <trkpt lat="51.46138" lon="0.231959">
        <ele>5.304164</ele>
        <time>2024-08-10T19:59:52.000Z</time>
      </trkpt>
      <trkpt lat="51.461378" lon="0.231967">
        <ele>5.303953</ele>
        <time>2024-08-10T19:59:52.000Z</time>
      </trkpt>
      <trkpt lat="51.461376" lon="0.231957">
        <ele>5.303511</ele>
        <time>2024-08-10T19:59:52.000Z</time>
      </trkpt>
      <trkpt lat="51.461391" lon="0.231965">
        <ele>5.303275</ele>
        <time>2024-08-10T19:59:52.000Z</time>
      </trkpt>
      <trkpt lat="51.461382" lon="0.231956">
        <ele>5.302844</ele>
        <time>2024-08-10T19:59:52.000Z</time>
      </trkpt>
      <trkpt lat="51.461339" lon="0.231955">
        <ele>5.295303</ele>
        <time>2024-08-10T19:59:52.000Z</time>
      </trkpt>
      <trkpt lat="51.460789" lon="0.2319">
        <ele>5.16939</ele>
        <time>2024-08-10T19:59:58.000Z</time>
      </trkpt>
      <trkpt lat="51.460703" lon="0.231901">
        <ele>5.15119</ele>
        <time>2024-08-10T19:59:59.000Z</time>
      </trkpt>
      <trkpt lat="51.46065" lon="0.23191">
        <ele>5.138957</ele>
        <time>2024-08-10T20:00:00.000Z</time>
      </trkpt>
      <trkpt lat="51.460579" lon="0.23192">
        <ele>5.122702</ele>
        <time>2024-08-10T20:00:01.000Z</time>
      </trkpt>
      <trkpt lat="51.460468" lon="0.231989">
        <ele>5.099059</ele>
        <time>2024-08-10T20:00:02.000Z</time>
      </trkpt>
      <trkpt lat="51.460448" lon="0.232047">
        <ele>5.089456</ele>
        <time>2024-08-10T20:00:02.000Z</time>
      </trkpt>
      <trkpt lat="51.460385" lon="0.232116">
        <ele>5.070449</ele>
        <time>2024-08-10T20:00:03.000Z</time>
      </trkpt>
      <trkpt lat="51.460347" lon="0.232142">
        <ele>5.060905</ele>
        <time>2024-08-10T20:00:03.000Z</time>
      </trkpt>
      <trkpt lat="51.460309" lon="0.23214">
        <ele>5.051812</ele>
        <time>2024-08-10T20:00:03.000Z</time>
      </trkpt>
      <trkpt lat="51.460299" lon="0.232141">
        <ele>5.051131</ele>
        <time>2024-08-10T20:00:03.000Z</time>
      </trkpt>
      <trkpt lat="51.460305" lon="0.232129">
        <ele>5.050443</ele>
        <time>2024-08-10T20:00:03.000Z</time>
      </trkpt>
      <trkpt lat="51.460301" lon="0.232124">
        <ele>5.05021</ele>
        <time>2024-08-10T20:00:03.000Z</time>
      </trkpt>
      <trkpt lat="51.460302" lon="0.232126">
        <ele>5.050205</ele>
        <time>2024-08-10T20:00:03.000Z</time>
      </trkpt>
      <trkpt lat="51.460305" lon="0.232129">
        <ele>5.049943</ele>
        <time>2024-08-10T20:00:03.000Z</time>
      </trkpt>
      <trkpt lat="51.460298" lon="0.232127">
        <ele>5.049676</ele>
        <time>2024-08-10T20:00:03.000Z</time>
      </trkpt>
      <trkpt lat="51.460296" lon="0.232124">
        <ele>5.049209</ele>
        <time>2024-08-10T20:00:03.000Z</time>
      </trkpt>
      <trkpt lat="51.460258" lon="0.232098">
        <ele>5.03957</ele>
        <time>2024-08-10T20:00:03.000Z</time>
      </trkpt>
      <trkpt lat="51.460216" lon="0.232047">
        <ele>5.028956</ele>
        <time>2024-08-10T20:00:04.000Z</time>
      </trkpt>
      <trkpt lat="51.460154" lon="0.232058">
        <ele>5.013765</ele>
        <time>2024-08-10T20:00:05.000Z</time>
      </trkpt>
      <trkpt lat="51.459804" lon="0.231971">
        <ele>4.934276</ele>
        <time>2024-08-10T20:00:09.000Z</time>
      </trkpt>
      <trkpt lat="51.459457" lon="0.231508">
        <ele>4.83238</ele>
        <time>2024-08-10T20:00:14.000Z</time>
      </trkpt>
      <trkpt lat="51.459166" lon="0.23133">
        <ele>4.762247</ele>
        <time>2024-08-10T20:00:17.000Z</time>
      </trkpt>
      <trkpt lat="51.45905" lon="0.231314">
        <ele>4.737082</ele>
        <time>2024-08-10T20:00:18.000Z</time>
      </trkpt>
      <trkpt lat="51.459015" lon="0.231364">
        <ele>4.725905</ele>
        <time>2024-08-10T20:00:19.000Z</time>
      </trkpt>
      <trkpt lat="51.458974" lon="0.231396">
        <ele>4.714924</ele>
        <time>2024-08-10T20:00:20.000Z</time>
      </trkpt>
      <trkpt lat="51.458762" lon="0.231571">
        <ele>4.816379</ele>
        <time>2024-08-10T20:00:23.000Z</time>
      </trkpt>
      <trkpt lat="51.458716" lon="0.231628">
        <ele>4.844852</ele>
        <time>2024-08-10T20:00:24.000Z</time>
      </trkpt>
      <trkpt lat="51.45871" lon="0.231641">
        <ele>4.846592</ele>
        <time>2024-08-10T20:00:24.000Z</time>
      </trkpt>
      <trkpt lat="51.458711" lon="0.23164">
        <ele>4.847184</ele>
        <time>2024-08-10T20:00:24.000Z</time>
      </trkpt>
      <trkpt lat="51.458709" lon="0.231641">
        <ele>4.848349</ele>
        <time>2024-08-10T20:00:24.000Z</time>
      </trkpt>
      <trkpt lat="51.458701" lon="0.231638">
        <ele>4.849507</ele>
        <time>2024-08-10T20:00:24.000Z</time>
      </trkpt>
      <trkpt lat="51.458706" lon="0.231643">
        <ele>4.850083</ele>
        <time>2024-08-10T20:00:24.000Z</time>
      </trkpt>
      <trkpt lat="51.45871" lon="0.231643">
        <ele>4.851253</ele>
        <time>2024-08-10T20:00:24.000Z</time>
      </trkpt>
      <trkpt lat="51.458706" lon="0.231646">
        <ele>4.852044</ele>
        <time>2024-08-10T20:00:24.000Z</time>
      </trkpt>
      <trkpt lat="51.458708" lon="0.23165">
        <ele>4.852042</ele>
        <time>2024-08-10T20:00:24.000Z</time>
      </trkpt>
      <trkpt lat="51.458698" lon="0.231648">
        <ele>4.852621</ele>
        <time>2024-08-10T20:00:24.000Z</time>
      </trkpt>
      <trkpt lat="51.458704" lon="0.231647">
        <ele>4.853676</ele>
        <time>2024-08-10T20:00:24.000Z</time>
      </trkpt>
      <trkpt lat="51.458703" lon="0.231646">
        <ele>4.854469</ele>
        <time>2024-08-10T20:00:24.000Z</time>
      </trkpt>
      <trkpt lat="51.458693" lon="0.231649">
        <ele>4.855641</ele>
        <time>2024-08-10T20:00:24.000Z</time>
      </trkpt>
      <trkpt lat="51.458699" lon="0.231657">
        <ele>4.856431</ele>
        <time>2024-08-10T20:00:24.000Z</time>
      </trkpt>
      <trkpt lat="51.458193" lon="0.232582">
        <ele>5.235606</ele>
        <time>2024-08-10T20:00:33.000Z</time>
      </trkpt>
      <trkpt lat="51.458183" lon="0.232583">
        <ele>5.238767</ele>
        <time>2024-08-10T20:00:33.000Z</time>
      </trkpt>
      <trkpt lat="51.458172" lon="0.232584">
        <ele>5.240605</ele>
        <time>2024-08-10T20:00:33.000Z</time>
      </trkpt>
      <trkpt lat="51.458173" lon="0.232592">
        <ele>5.241224</ele>
        <time>2024-08-10T20:00:33.000Z</time>
      </trkpt>
      <trkpt lat="51.458187" lon="0.232585">
        <ele>5.241809</ele>
        <time>2024-08-10T20:00:33.000Z</time>
      </trkpt>
      <trkpt lat="51.458179" lon="0.2326">
        <ele>5.242846</ele>
        <time>2024-08-10T20:00:33.000Z</time>
      </trkpt>
      <trkpt lat="51.458178" lon="0.23259">
        <ele>5.243429</ele>
        <time>2024-08-10T20:00:33.000Z</time>
      </trkpt>
      <trkpt lat="51.458173" lon="0.232587">
        <ele>5.244004</ele>
        <time>2024-08-10T20:00:33.000Z</time>
      </trkpt>
      <trkpt lat="51.458186" lon="0.23259">
        <ele>5.244639</ele>
        <time>2024-08-10T20:00:33.000Z</time>
      </trkpt>
      <trkpt lat="51.458178" lon="0.232601">
        <ele>5.245414</ele>
        <time>2024-08-10T20:00:33.000Z</time>
      </trkpt>
      <trkpt lat="51.45818" lon="0.2326">
        <ele>5.246204</ele>
        <time>2024-08-10T20:00:33.000Z</time>
      </trkpt>
      <trkpt lat="51.458169" lon="0.232602">
        <ele>5.247003</ele>
        <time>2024-08-10T20:00:33.000Z</time>
      </trkpt>
      <trkpt lat="51.458179" lon="0.232601">
        <ele>5.247619</ele>
        <time>2024-08-10T20:00:33.000Z</time>
      </trkpt>
      <trkpt lat="51.458169" lon="0.232601">
        <ele>5.2484</ele>
        <time>2024-08-10T20:00:33.000Z</time>
      </trkpt>
      <trkpt lat="51.458166" lon="0.232613">
        <ele>5.24919</ele>
        <time>2024-08-10T20:00:33.000Z</time>
      </trkpt>
      <trkpt lat="51.458176" lon="0.232613">
        <ele>5.24998</ele>
        <time>2024-08-10T20:00:33.000Z</time>
      </trkpt>
      <trkpt lat="51.45778" lon="0.233619">
        <ele>5.6203</ele>
        <time>2024-08-10T20:00:41.000Z</time>
      </trkpt>
      <trkpt lat="51.457468" lon="0.234603">
        <ele>6.059404</ele>
        <time>2024-08-10T20:00:49.000Z</time>
      </trkpt>
      <trkpt lat="51.45747" lon="0.234611">
        <ele>6.059802</ele>
        <time>2024-08-10T20:00:49.000Z</time>
      </trkpt>
      <trkpt lat="51.45748" lon="0.23462">
        <ele>6.060558</ele>
        <time>2024-08-10T20:00:49.000Z</time>
      </trkpt>
      <trkpt lat="51.457473" lon="0.234621">
        <ele>6.061334</ele>
        <time>2024-08-10T20:00:49.000Z</time>
      </trkpt>
      <trkpt lat="51.457465" lon="0.234615">
        <ele>6.062131</ele>
        <time>2024-08-10T20:00:49.000Z</time>
      </trkpt>
      <trkpt lat="51.457471" lon="0.234618">
        <ele>6.062874</ele>
        <time>2024-08-10T20:00:49.000Z</time>
      </trkpt>
      <trkpt lat="51.457466" lon="0.234615">
        <ele>6.063662</ele>
        <time>2024-08-10T20:00:49.000Z</time>
      </trkpt>
      <trkpt lat="51.457474" lon="0.234622">
        <ele>6.065022</ele>
        <time>2024-08-10T20:00:49.000Z</time>
      </trkpt>
      <trkpt lat="51.457471" lon="0.234634">
        <ele>6.065814</ele>
        <time>2024-08-10T20:00:49.000Z</time>
      </trkpt>
      <trkpt lat="51.457461" lon="0.234632">
        <ele>6.066559</ele>
        <time>2024-08-10T20:00:49.000Z</time>
      </trkpt>
      <trkpt lat="51.45747" lon="0.234634">
        <ele>6.067737</ele>
        <time>2024-08-10T20:00:49.000Z</time>
      </trkpt>
      <trkpt lat="51.457471" lon="0.234624">
        <ele>6.068495</ele>
        <time>2024-08-10T20:00:49.000Z</time>
      </trkpt>
      <trkpt lat="51.457476" lon="0.234625">
        <ele>6.069669</ele>
        <time>2024-08-10T20:00:49.000Z</time>
      </trkpt>
      <trkpt lat="51.457475" lon="0.234629">
        <ele>6.071745</ele>
        <time>2024-08-10T20:00:49.000Z</time>
      </trkpt>
      <trkpt lat="51.45691" lon="0.236939">
        <ele>7.134383</ele>
        <time>2024-08-10T20:01:06.000Z</time>
      </trkpt>
      <trkpt lat="51.456902" lon="0.236978">
        <ele>7.150738</ele>
        <time>2024-08-10T20:01:06.000Z</time>
      </trkpt>
      <trkpt lat="51.456906" lon="0.236979">
        <ele>7.152456</ele>
        <time>2024-08-10T20:01:06.000Z</time>
      </trkpt>
      <trkpt lat="51.456898" lon="0.23698">
        <ele>7.153768</ele>
        <time>2024-08-10T20:01:06.000Z</time>
      </trkpt>
      <trkpt lat="51.456897" lon="0.236968">
        <ele>7.154784</ele>
        <time>2024-08-10T20:01:06.000Z</time>
      </trkpt>
      <trkpt lat="51.456904" lon="0.236972">
        <ele>7.156075</ele>
        <time>2024-08-10T20:01:06.000Z</time>
      </trkpt>
      <trkpt lat="51.456892" lon="0.236982">
        <ele>7.157372</ele>
        <time>2024-08-10T20:01:06.000Z</time>
      </trkpt>
      <trkpt lat="51.456896" lon="0.236983">
        <ele>7.159566</ele>
        <time>2024-08-10T20:01:06.000Z</time>
      </trkpt>
      <trkpt lat="51.456893" lon="0.236991">
        <ele>7.160522</ele>
        <time>2024-08-10T20:01:06.000Z</time>
      </trkpt>
      <trkpt lat="51.456907" lon="0.236993">
        <ele>7.161532</ele>
        <time>2024-08-10T20:01:06.000Z</time>
      </trkpt>
      <trkpt lat="51.456905" lon="0.236982">
        <ele>7.162837</ele>
        <time>2024-08-10T20:01:06.000Z</time>
      </trkpt>
      <trkpt lat="51.456562" lon="0.237935">
        <ele>7.72086</ele>
        <time>2024-08-10T20:01:14.000Z</time>
      </trkpt>
      <trkpt lat="51.456543" lon="0.237961">
        <ele>7.736849</ele>
        <time>2024-08-10T20:01:14.000Z</time>
      </trkpt>
      <trkpt lat="51.456539" lon="0.237976">
        <ele>7.739869</ele>
        <time>2024-08-10T20:01:14.000Z</time>
      </trkpt>
      <trkpt lat="51.456542" lon="0.237976">
        <ele>7.740823</ele>
        <time>2024-08-10T20:01:14.000Z</time>
      </trkpt>
      <trkpt lat="51.456546" lon="0.237982">
        <ele>7.742548</ele>
        <time>2024-08-10T20:01:14.000Z</time>
      </trkpt>
      <trkpt lat="51.45654" lon="0.237971">
        <ele>7.743838</ele>
        <time>2024-08-10T20:01:14.000Z</time>
      </trkpt>
      <trkpt lat="51.456542" lon="0.23799">
        <ele>7.745763</ele>
        <time>2024-08-10T20:01:14.000Z</time>
      </trkpt>
      <trkpt lat="51.456536" lon="0.237978">
        <ele>7.747054</ele>
        <time>2024-08-10T20:01:14.000Z</time>
      </trkpt>
      <trkpt lat="51.456533" lon="0.237996">
        <ele>7.748783</ele>
        <time>2024-08-10T20:01:14.000Z</time>
      </trkpt>
      <trkpt lat="51.456528" lon="0.237982">
        <ele>7.751385</ele>
        <time>2024-08-10T20:01:14.000Z</time>
      </trkpt>
      <trkpt lat="51.45653" lon="0.238">
        <ele>7.753113</ele>
        <time>2024-08-10T20:01:14.000Z</time>
      </trkpt>
      <trkpt lat="51.456534" lon="0.237997">
        <ele>7.754073</ele>
        <time>2024-08-10T20:01:14.000Z</time>
      </trkpt>
      <trkpt lat="51.456536" lon="0.237991">
        <ele>7.755373</ele>
        <time>2024-08-10T20:01:14.000Z</time>
      </trkpt>
      <trkpt lat="51.456534" lon="0.237992">
        <ele>7.757087</ele>
        <time>2024-08-10T20:01:14.000Z</time>
      </trkpt>
      <trkpt lat="51.456074" lon="0.238929">
        <ele>8.306608</ele>
        <time>2024-08-10T20:01:22.000Z</time>
      </trkpt>
      <trkpt lat="51.455865" lon="0.239297">
        <ele>8.493352</ele>
        <time>2024-08-10T20:01:25.000Z</time>
      </trkpt>
      <trkpt lat="51.45586" lon="0.239295">
        <ele>8.494932</ele>
        <time>2024-08-10T20:01:25.000Z</time>
      </trkpt>
      <trkpt lat="51.455847" lon="0.239307">
        <ele>8.496282</ele>
        <time>2024-08-10T20:01:25.000Z</time>
      </trkpt>
      <trkpt lat="51.455856" lon="0.239309">
        <ele>8.497494</ele>
        <time>2024-08-10T20:01:25.000Z</time>
      </trkpt>
      <trkpt lat="51.455854" lon="0.239304">
        <ele>8.498171</ele>
        <time>2024-08-10T20:01:25.000Z</time>
      </trkpt>
      <trkpt lat="51.455856" lon="0.239313">
        <ele>8.498842</ele>
        <time>2024-08-10T20:01:25.000Z</time>
      </trkpt>
      <trkpt lat="51.45585" lon="0.239302">
        <ele>8.499763</ele>
        <time>2024-08-10T20:01:25.000Z</time>
      </trkpt>
      <trkpt lat="51.455845" lon="0.239307">
        <ele>8.500684</ele>
        <time>2024-08-10T20:01:25.000Z</time>
      </trkpt>
      <trkpt lat="51.45584" lon="0.23932">
        <ele>8.501347</ele>
        <time>2024-08-10T20:01:25.000Z</time>
      </trkpt>
      <trkpt lat="51.455842" lon="0.239318">
        <ele>8.502278</ele>
        <time>2024-08-10T20:01:25.000Z</time>
      </trkpt>
      <trkpt lat="51.455761" lon="0.23943">
        <ele>8.563749</ele>
        <time>2024-08-10T20:01:26.000Z</time>
      </trkpt>
      <trkpt lat="51.455115" lon="0.240228">
        <ele>9.031513</ele>
        <time>2024-08-10T20:01:35.000Z</time>
      </trkpt>
      <trkpt lat="51.455123" lon="0.240237">
        <ele>9.033738</ele>
        <time>2024-08-10T20:01:35.000Z</time>
      </trkpt>
      <trkpt lat="51.455111" lon="0.240235">
        <ele>9.034414</ele>
        <time>2024-08-10T20:01:35.000Z</time>
      </trkpt>
      <trkpt lat="51.455115" lon="0.240239">
        <ele>9.035088</ele>
        <time>2024-08-10T20:01:35.000Z</time>
      </trkpt>
      <trkpt lat="51.455116" lon="0.240247">
        <ele>9.035779</ele>
        <time>2024-08-10T20:01:35.000Z</time>
      </trkpt>
      <trkpt lat="51.455111" lon="0.240252">
        <ele>9.036449</ele>
        <time>2024-08-10T20:01:35.000Z</time>
      </trkpt>
      <trkpt lat="51.455118" lon="0.240253">
        <ele>9.037124</ele>
        <time>2024-08-10T20:01:35.000Z</time>
      </trkpt>
      <trkpt lat="51.455114" lon="0.240249">
        <ele>9.038692</ele>
        <time>2024-08-10T20:01:35.000Z</time>
      </trkpt>
      <trkpt lat="51.455111" lon="0.240249">
        <ele>9.039369</ele>
        <time>2024-08-10T20:01:35.000Z</time>
      </trkpt>
      <trkpt lat="51.455113" lon="0.240249">
        <ele>9.04028</ele>
        <time>2024-08-10T20:01:35.000Z</time>
      </trkpt>
      <trkpt lat="51.455107" lon="0.240244">
        <ele>9.041637</ele>
        <time>2024-08-10T20:01:35.000Z</time>
      </trkpt>
      <trkpt lat="51.45511" lon="0.240261">
        <ele>9.0432</ele>
        <time>2024-08-10T20:01:35.000Z</time>
      </trkpt>
      <trkpt lat="51.455108" lon="0.240249">
        <ele>9.044559</ele>
        <time>2024-08-10T20:01:35.000Z</time>
      </trkpt>
      <trkpt lat="51.455095" lon="0.240251">
        <ele>9.045235</ele>
        <time>2024-08-10T20:01:35.000Z</time>
      </trkpt>
      <trkpt lat="51.455076" lon="0.240287">
        <ele>9.061771</ele>
        <time>2024-08-10T20:01:35.000Z</time>
      </trkpt>
      <trkpt lat="51.454677" lon="0.240622">
        <ele>9.182174</ele>
        <time>2024-08-10T20:01:40.000Z</time>
      </trkpt>
      <trkpt lat="51.454616" lon="0.240686">
        <ele>9.149885</ele>
        <time>2024-08-10T20:01:41.000Z</time>
      </trkpt>
      <trkpt lat="51.454608" lon="0.24069">
        <ele>9.14912</ele>
        <time>2024-08-10T20:01:41.000Z</time>
      </trkpt>
      <trkpt lat="51.454598" lon="0.240695">
        <ele>9.148256</ele>
        <time>2024-08-10T20:01:41.000Z</time>
      </trkpt>
      <trkpt lat="51.454597" lon="0.240694">
        <ele>9.147825</ele>
        <time>2024-08-10T20:01:41.000Z</time>
      </trkpt>
      <trkpt lat="51.454605" lon="0.240697">
        <ele>9.146972</ele>
        <time>2024-08-10T20:01:41.000Z</time>
      </trkpt>
      <trkpt lat="51.454599" lon="0.240686">
        <ele>9.146196</ele>
        <time>2024-08-10T20:01:41.000Z</time>
      </trkpt>
      <trkpt lat="51.454605" lon="0.240696">
        <ele>9.146208</ele>
        <time>2024-08-10T20:01:41.000Z</time>
      </trkpt>
      <trkpt lat="51.45459" lon="0.240683">
        <ele>9.146205</ele>
        <time>2024-08-10T20:01:41.000Z</time>
      </trkpt>
      <trkpt lat="51.455119" lon="0.240236">
        <ele>8.93165</ele>
        <time>2024-08-10T20:01:48.000Z</time>
      </trkpt>
      <trkpt lat="51.455108" lon="0.240244">
        <ele>8.931651</ele>
        <time>2024-08-10T20:01:48.000Z</time>
      </trkpt>
      <trkpt lat="51.455491" lon="0.239777">
        <ele>8.760212</ele>
        <time>2024-08-10T20:01:53.000Z</time>
      </trkpt>
      <trkpt lat="51.455846" lon="0.239309">
        <ele>8.588904</ele>
        <time>2024-08-10T20:01:58.000Z</time>
      </trkpt>
      <trkpt lat="51.455849" lon="0.239306">
        <ele>8.588902</ele>
        <time>2024-08-10T20:01:58.000Z</time>
      </trkpt>
      <trkpt lat="51.456188" lon="0.238645">
        <ele>8.182494</ele>
        <time>2024-08-10T20:02:04.000Z</time>
      </trkpt>
      <trkpt lat="51.456541" lon="0.237986">
        <ele>7.761249</ele>
        <time>2024-08-10T20:02:10.000Z</time>
      </trkpt>
      <trkpt lat="51.456533" lon="0.237988">
        <ele>7.761237</ele>
        <time>2024-08-10T20:02:10.000Z</time>
      </trkpt>
      <trkpt lat="51.456891" lon="0.236981">
        <ele>7.188547</ele>
        <time>2024-08-10T20:02:18.000Z</time>
      </trkpt>
      <trkpt lat="51.456903" lon="0.236981">
        <ele>7.188557</ele>
        <time>2024-08-10T20:02:18.000Z</time>
      </trkpt>
      <trkpt lat="51.457178" lon="0.235807">
        <ele>6.623408</ele>
        <time>2024-08-10T20:02:27.000Z</time>
      </trkpt>
      <trkpt lat="51.457476" lon="0.234626">
        <ele>6.061324</ele>
        <time>2024-08-10T20:02:36.000Z</time>
      </trkpt>
      <trkpt lat="51.457468" lon="0.234629">
        <ele>6.061331</ele>
        <time>2024-08-10T20:02:36.000Z</time>
      </trkpt>
      <trkpt lat="51.457823" lon="0.233615">
        <ele>5.658466</ele>
        <time>2024-08-10T20:02:44.000Z</time>
      </trkpt>
      <trkpt lat="51.458171" lon="0.232603">
        <ele>5.318164</ele>
        <time>2024-08-10T20:02:52.000Z</time>
      </trkpt>
      <trkpt lat="51.458182" lon="0.232598">
        <ele>5.318161</ele>
        <time>2024-08-10T20:02:52.000Z</time>
      </trkpt>
      <trkpt lat="51.458712" lon="0.231634">
        <ele>5.083141</ele>
        <time>2024-08-10T20:03:01.000Z</time>
      </trkpt>
      <trkpt lat="51.4587" lon="0.231637">
        <ele>5.083152</ele>
        <time>2024-08-10T20:03:01.000Z</time>
      </trkpt>
      <trkpt lat="51.458705" lon="0.231648">
        <ele>5.083139</ele>
        <time>2024-08-10T20:03:01.000Z</time>
      </trkpt>
      <trkpt lat="51.459095" lon="0.231233">
        <ele>5.219396</ele>
        <time>2024-08-10T20:03:06.000Z</time>
      </trkpt>
      <trkpt lat="51.459097" lon="0.23124">
        <ele>5.219401</ele>
        <time>2024-08-10T20:03:06.000Z</time>
      </trkpt>
      <trkpt lat="51.459095" lon="0.231235">
        <ele>5.219414</ele>
        <time>2024-08-10T20:03:06.000Z</time>
      </trkpt>
      <trkpt lat="51.45915" lon="0.230615">
        <ele>5.33106</ele>
        <time>2024-08-10T20:03:10.000Z</time>
      </trkpt>
      <trkpt lat="51.459145" lon="0.230619">
        <ele>5.331066</ele>
        <time>2024-08-10T20:03:10.000Z</time>
      </trkpt>
      <trkpt lat="51.459153" lon="0.230614">
        <ele>5.331067</ele>
        <time>2024-08-10T20:03:10.000Z</time>
      </trkpt>
      <trkpt lat="51.45927" lon="0.229849">
        <ele>5.473985</ele>
        <time>2024-08-10T20:03:15.000Z</time>
      </trkpt>
      <trkpt lat="51.459406" lon="0.229079">
        <ele>5.647706</ele>
        <time>2024-08-10T20:03:21.000Z</time>
      </trkpt>
      <trkpt lat="51.45939" lon="0.229069">
        <ele>5.647709</ele>
        <time>2024-08-10T20:03:21.000Z</time>
      </trkpt>
      <trkpt lat="51.459393" lon="0.22908">
        <ele>5.647707</ele>
        <time>2024-08-10T20:03:21.000Z</time>
      </trkpt>
      <trkpt lat="51.459439" lon="0.22818">
        <ele>5.882617</ele>
        <time>2024-08-10T20:03:27.000Z</time>
      </trkpt>
      <trkpt lat="51.459491" lon="0.227289">
        <ele>6.117283</ele>
        <time>2024-08-10T20:03:33.000Z</time>
      </trkpt>
      <trkpt lat="51.459488" lon="0.227271">
        <ele>6.11728</ele>
        <time>2024-08-10T20:03:33.000Z</time>
      </trkpt>
      <trkpt lat="51.459483" lon="0.226092">
        <ele>6.332804</ele>
        <time>2024-08-10T20:03:41.000Z</time>
      </trkpt>
      <trkpt lat="51.459457" lon="0.224902">
        <ele>6.413575</ele>
        <time>2024-08-10T20:03:49.000Z</time>
      </trkpt>
      <trkpt lat="51.459448" lon="0.223724">
        <ele>6.494267</ele>
        <time>2024-08-10T20:03:57.000Z</time>
      </trkpt>
      <trkpt lat="51.459441" lon="0.223726">
        <ele>6.49427</ele>
        <time>2024-08-10T20:03:57.000Z</time>
      </trkpt>
      <trkpt lat="51.459384" lon="0.222663">
        <ele>6.465024</ele>
        <time>2024-08-10T20:04:04.000Z</time>
      </trkpt>
      <trkpt lat="51.45934" lon="0.221593">
        <ele>6.432542</ele>
        <time>2024-08-10T20:04:11.000Z</time>
      </trkpt>
      <trkpt lat="51.459307" lon="0.220536">
        <ele>6.414931</ele>
        <time>2024-08-10T20:04:18.000Z</time>
      </trkpt>
      <trkpt lat="51.459304" lon="0.220529">
        <ele>6.414968</ele>
        <time>2024-08-10T20:04:18.000Z</time>
      </trkpt>
      <trkpt lat="51.459325" lon="0.221229">
        <ele>6.431026</ele>
        <time>2024-08-10T20:04:23.000Z</time>
      </trkpt>
      <trkpt lat="51.459444" lon="0.223723">
        <ele>6.492729</ele>
        <time>2024-08-10T20:04:40.000Z</time>
      </trkpt>
      <trkpt lat="51.459503" lon="0.227294">
        <ele>6.265065</ele>
        <time>2024-08-10T20:05:05.000Z</time>
      </trkpt>
      <trkpt lat="51.459466" lon="0.228238">
        <ele>6.047949</ele>
        <time>2024-08-10T20:05:12.000Z</time>
      </trkpt>
      <trkpt lat="51.459375" lon="0.229408">
        <ele>5.710874</ele>
        <time>2024-08-10T20:05:20.000Z</time>
      </trkpt>
      <trkpt lat="51.459299" lon="0.229793">
        <ele>5.576984</ele>
        <time>2024-08-10T20:05:23.000Z</time>
      </trkpt>
      <trkpt lat="51.45917" lon="0.23043">
        <ele>5.337951</ele>
        <time>2024-08-10T20:05:28.000Z</time>
      </trkpt>
      <trkpt lat="51.459149" lon="0.230722">
        <ele>5.240111</ele>
        <time>2024-08-10T20:05:30.000Z</time>
      </trkpt>
      <trkpt lat="51.459124" lon="0.230962">
        <ele>5.150989</ele>
        <time>2024-08-10T20:05:32.000Z</time>
      </trkpt>
      <trkpt lat="51.459131" lon="0.231012">
        <ele>5.138702</ele>
        <time>2024-08-10T20:05:32.000Z</time>
      </trkpt>
      <trkpt lat="51.459229" lon="0.231115">
        <ele>5.076887</ele>
        <time>2024-08-10T20:05:33.000Z</time>
      </trkpt>
      <trkpt lat="51.45947" lon="0.231341">
        <ele>4.91466</ele>
        <time>2024-08-10T20:05:36.000Z</time>
      </trkpt>
      <trkpt lat="51.45979" lon="0.231785">
        <ele>4.980531</ele>
        <time>2024-08-10T20:05:41.000Z</time>
      </trkpt>
      <trkpt lat="51.460007" lon="0.231902">
        <ele>5.040886</ele>
        <time>2024-08-10T20:05:44.000Z</time>
      </trkpt>
      <trkpt lat="51.460126" lon="0.231883">
        <ele>5.070086</ele>
        <time>2024-08-10T20:05:45.000Z</time>
      </trkpt>
      <trkpt lat="51.460198" lon="0.23183">
        <ele>5.090088</ele>
        <time>2024-08-10T20:05:46.000Z</time>
      </trkpt>
      <trkpt lat="51.460228" lon="0.231764">
        <ele>5.102166</ele>
        <time>2024-08-10T20:05:47.000Z</time>
      </trkpt>
      <trkpt lat="51.460248" lon="0.231707">
        <ele>5.114355</ele>
        <time>2024-08-10T20:05:47.000Z</time>
      </trkpt>
      <trkpt lat="51.460312" lon="0.231674">
        <ele>5.129975</ele>
        <time>2024-08-10T20:05:48.000Z</time>
      </trkpt>
      <trkpt lat="51.460382" lon="0.231685">
        <ele>5.145241</ele>
        <time>2024-08-10T20:05:49.000Z</time>
      </trkpt>
      <trkpt lat="51.460418" lon="0.231705">
        <ele>5.157339</ele>
        <time>2024-08-10T20:05:49.000Z</time>
      </trkpt>
      <trkpt lat="51.460444" lon="0.231755">
        <ele>5.16924</ele>
        <time>2024-08-10T20:05:49.000Z</time>
      </trkpt>
      <trkpt lat="51.460544" lon="0.231805">
        <ele>5.195408</ele>
        <time>2024-08-10T20:05:50.000Z</time>
      </trkpt>
      <trkpt lat="51.46065" lon="0.231845">
        <ele>5.222973</ele>
        <time>2024-08-10T20:05:51.000Z</time>
      </trkpt>
      <trkpt lat="51.460776" lon="0.231893">
        <ele>5.255318</ele>
        <time>2024-08-10T20:05:52.000Z</time>
      </trkpt>
      <trkpt lat="51.461354" lon="0.231953">
        <ele>5.485125</ele>
        <time>2024-08-10T20:05:58.000Z</time>
      </trkpt>
      <trkpt lat="51.461417" lon="0.231951">
        <ele>5.531882</ele>
        <time>2024-08-10T20:05:59.000Z</time>
      </trkpt>
      <trkpt lat="51.461453" lon="0.231831">
        <ele>5.589434</ele>
        <time>2024-08-10T20:06:00.000Z</time>
      </trkpt>
      <trkpt lat="51.461521" lon="0.2316">
        <ele>5.691136</ele>
        <time>2024-08-10T20:06:02.000Z</time>
      </trkpt>
      <trkpt lat="51.461573" lon="0.231353">
        <ele>5.79686</ele>
        <time>2024-08-10T20:06:04.000Z</time>
      </trkpt>
      <trkpt lat="51.461615" lon="0.231139">
        <ele>5.881952</ele>
        <time>2024-08-10T20:06:06.000Z</time>
      </trkpt>
      <trkpt lat="51.461667" lon="0.230508">
        <ele>6.138476</ele>
        <time>2024-08-10T20:06:10.000Z</time>
      </trkpt>
      <trkpt lat="51.461854" lon="0.2269">
        <ele>7.582712</ele>
        <time>2024-08-10T20:06:35.000Z</time>
      </trkpt>
      <trkpt lat="51.461851" lon="0.226718">
        <ele>7.651717</ele>
        <time>2024-08-10T20:06:36.000Z</time>
      </trkpt>
      <trkpt lat="51.46185" lon="0.226364">
        <ele>7.657577</ele>
        <time>2024-08-10T20:06:38.000Z</time>
      </trkpt>
      <trkpt lat="51.461829" lon="0.226205">
        <ele>7.660135</ele>
        <time>2024-08-10T20:06:39.000Z</time>
      </trkpt>
      <trkpt lat="51.460984" lon="0.224078">
        <ele>7.700541</ele>
        <time>2024-08-10T20:06:56.000Z</time>
      </trkpt>
      <trkpt lat="51.460789" lon="0.223752">
        <ele>7.706988</ele>
        <time>2024-08-10T20:06:59.000Z</time>
      </trkpt>
      <trkpt lat="51.460528" lon="0.223434">
        <ele>7.714854</ele>
        <time>2024-08-10T20:07:03.000Z</time>
      </trkpt>
      <trkpt lat="51.460503" lon="0.223417">
        <ele>7.715621</ele>
        <time>2024-08-10T20:07:03.000Z</time>
      </trkpt>
      <trkpt lat="51.460502" lon="0.223413">
        <ele>7.715854</ele>
        <time>2024-08-10T20:07:03.000Z</time>
      </trkpt>
      <trkpt lat="51.460487" lon="0.223407">
        <ele>7.715858</ele>
        <time>2024-08-10T20:07:03.000Z</time>
      </trkpt>
      <trkpt lat="51.4605" lon="0.223399">
        <ele>7.715857</ele>
        <time>2024-08-10T20:07:03.000Z</time>
      </trkpt>
      <trkpt lat="51.460513" lon="0.223413">
        <ele>7.716096</ele>
        <time>2024-08-10T20:07:03.000Z</time>
      </trkpt>
      <trkpt lat="51.460537" lon="0.223434">
        <ele>7.716864</ele>
        <time>2024-08-10T20:07:03.000Z</time>
      </trkpt>
      <trkpt lat="51.460802" lon="0.223754">
        <ele>7.724722</ele>
        <time>2024-08-10T20:07:07.000Z</time>
      </trkpt>
      <trkpt lat="51.460969" lon="0.224093">
        <ele>7.731176</ele>
        <time>2024-08-10T20:07:10.000Z</time>
      </trkpt>
      <trkpt lat="51.461822" lon="0.226214">
        <ele>7.58324</ele>
        <time>2024-08-10T20:07:27.000Z</time>
      </trkpt>
      <trkpt lat="51.461852" lon="0.226355">
        <ele>7.569823</ele>
        <time>2024-08-10T20:07:28.000Z</time>
      </trkpt>
      <trkpt lat="51.461863" lon="0.226719">
        <ele>7.539107</ele>
        <time>2024-08-10T20:07:31.000Z</time>
      </trkpt>
      <trkpt lat="51.461847" lon="0.226911">
        <ele>7.523774</ele>
        <time>2024-08-10T20:07:32.000Z</time>
      </trkpt>
      <trkpt lat="51.461663" lon="0.230505">
        <ele>6.12179</ele>
        <time>2024-08-10T20:07:57.000Z</time>
      </trkpt>
      <trkpt lat="51.461614" lon="0.231138">
        <ele>5.968381</ele>
        <time>2024-08-10T20:08:01.000Z</time>
      </trkpt>
      <trkpt lat="51.461578" lon="0.231336">
        <ele>5.9175</ele>
        <time>2024-08-10T20:08:02.000Z</time>
      </trkpt>
      <trkpt lat="51.461515" lon="0.231599">
        <ele>5.854258</ele>
        <time>2024-08-10T20:08:04.000Z</time>
      </trkpt>
      <trkpt lat="51.461454" lon="0.231833">
        <ele>5.793444</ele>
        <time>2024-08-10T20:08:06.000Z</time>
      </trkpt>
      <trkpt lat="51.461411" lon="0.231957">
        <ele>5.759008</ele>
        <time>2024-08-10T20:08:07.000Z</time>
      </trkpt>
      <trkpt lat="51.461386" lon="0.232064">
        <ele>5.731387</ele>
        <time>2024-08-10T20:08:08.000Z</time>
      </trkpt>
      <trkpt lat="51.461314" lon="0.232241">
        <ele>5.680308</ele>
        <time>2024-08-10T20:08:09.000Z</time>
      </trkpt>
      <trkpt lat="51.461266" lon="0.232409">
        <ele>5.637163</ele>
        <time>2024-08-10T20:08:10.000Z</time>
      </trkpt>
      <trkpt lat="51.460674" lon="0.233721">
        <ele>5.35246</ele>
        <time>2024-08-10T20:08:21.000Z</time>
      </trkpt>
      <trkpt lat="51.460345" lon="0.23505">
        <ele>5.138422</ele>
        <time>2024-08-10T20:08:31.000Z</time>
      </trkpt>
      <trkpt lat="51.460315" lon="0.235219">
        <ele>5.111585</ele>
        <time>2024-08-10T20:08:32.000Z</time>
      </trkpt>
      <trkpt lat="51.460267" lon="0.235739">
        <ele>4.964298</ele>
        <time>2024-08-10T20:08:36.000Z</time>
      </trkpt>
      <trkpt lat="51.46028" lon="0.235744">
        <ele>4.96304</ele>
        <time>2024-08-10T20:08:36.000Z</time>
      </trkpt>
      <trkpt lat="51.460243" lon="0.236057">
        <ele>4.860659</ele>
        <time>2024-08-10T20:08:38.000Z</time>
      </trkpt>
      <trkpt lat="51.460265" lon="0.237591">
        <ele>4.378746</ele>
        <time>2024-08-10T20:08:49.000Z</time>
      </trkpt>
      <trkpt lat="51.460211" lon="0.238155">
        <ele>4.193528</ele>
        <time>2024-08-10T20:08:53.000Z</time>
      </trkpt>
      <trkpt lat="51.46011" lon="0.238645">
        <ele>4.154463</ele>
        <time>2024-08-10T20:08:57.000Z</time>
      </trkpt>
      <trkpt lat="51.460097" lon="0.238698">
        <ele>4.151302</ele>
        <time>2024-08-10T20:08:57.000Z</time>
      </trkpt>
      <trkpt lat="51.460055" lon="0.238848">
        <ele>4.141938</ele>
        <time>2024-08-10T20:08:58.000Z</time>
      </trkpt>
      <trkpt lat="51.459599" lon="0.240152">
        <ele>4.062376</ele>
        <time>2024-08-10T20:09:08.000Z</time>
      </trkpt>
      <trkpt lat="51.459307" lon="0.240736">
        <ele>4.024516</ele>
        <time>2024-08-10T20:09:13.000Z</time>
      </trkpt>
      <trkpt lat="51.458596" lon="0.241572">
        <ele>4.027353</ele>
        <time>2024-08-10T20:09:23.000Z</time>
      </trkpt>
      <trkpt lat="51.458553" lon="0.241599">
        <ele>4.027526</ele>
        <time>2024-08-10T20:09:24.000Z</time>
      </trkpt>
      <trkpt lat="51.458549" lon="0.241617">
        <ele>4.027533</ele>
        <time>2024-08-10T20:09:24.000Z</time>
      </trkpt>
      <trkpt lat="51.458559" lon="0.241612">
        <ele>4.027543</ele>
        <time>2024-08-10T20:09:24.000Z</time>
      </trkpt>
      <trkpt lat="51.458606" lon="0.241559">
        <ele>4.02773</ele>
        <time>2024-08-10T20:09:25.000Z</time>
      </trkpt>
      <trkpt lat="51.459304" lon="0.240729">
        <ele>4.035495</ele>
        <time>2024-08-10T20:09:35.000Z</time>
      </trkpt>
      <trkpt lat="51.459597" lon="0.240165">
        <ele>4.064997</ele>
        <time>2024-08-10T20:09:40.000Z</time>
      </trkpt>
      <trkpt lat="51.460054" lon="0.238844">
        <ele>4.123842</ele>
        <time>2024-08-10T20:09:50.000Z</time>
      </trkpt>
      <trkpt lat="51.460094" lon="0.238681">
        <ele>4.130775</ele>
        <time>2024-08-10T20:09:51.000Z</time>
      </trkpt>
      <trkpt lat="51.460117" lon="0.238627">
        <ele>4.133098</ele>
        <time>2024-08-10T20:09:51.000Z</time>
      </trkpt>
      <trkpt lat="51.460208" lon="0.238164">
        <ele>4.211605</ele>
        <time>2024-08-10T20:09:54.000Z</time>
      </trkpt>
      <trkpt lat="51.460264" lon="0.237592">
        <ele>4.393857</ele>
        <time>2024-08-10T20:09:58.000Z</time>
      </trkpt>
      <trkpt lat="51.460242" lon="0.236069">
        <ele>4.868084</ele>
        <time>2024-08-10T20:10:09.000Z</time>
      </trkpt>
      <trkpt lat="51.460285" lon="0.235742">
        <ele>4.968828</ele>
        <time>2024-08-10T20:10:11.000Z</time>
      </trkpt>
      <trkpt lat="51.460267" lon="0.23574">
        <ele>4.970069</ele>
        <time>2024-08-10T20:10:11.000Z</time>
      </trkpt>
      <trkpt lat="51.460327" lon="0.235218">
        <ele>5.092952</ele>
        <time>2024-08-10T20:10:15.000Z</time>
      </trkpt>
      <trkpt lat="51.460339" lon="0.235042">
        <ele>5.122824</ele>
        <time>2024-08-10T20:10:16.000Z</time>
      </trkpt>
      <trkpt lat="51.460679" lon="0.233723">
        <ele>5.361004</ele>
        <time>2024-08-10T20:10:26.000Z</time>
      </trkpt>
      <trkpt lat="51.46126" lon="0.2324">
        <ele>5.421235</ele>
        <time>2024-08-10T20:10:37.000Z</time>
      </trkpt>
      <trkpt lat="51.461315" lon="0.232257">
        <ele>5.390013</ele>
        <time>2024-08-10T20:10:38.000Z</time>
      </trkpt>
      <trkpt lat="51.461388" lon="0.232057">
        <ele>5.353069</ele>
        <time>2024-08-10T20:10:40.000Z</time>
      </trkpt>
      <trkpt lat="51.46142" lon="0.231965">
        <ele>5.333067</ele>
        <time>2024-08-10T20:10:41.000Z</time>
      </trkpt>
      <trkpt lat="51.461384" lon="0.231958">
        <ele>5.325035</ele>
        <time>2024-08-10T20:10:41.000Z</time>
      </trkpt>
      <trkpt lat="51.46138" lon="0.231959">
        <ele>5.324475</ele>
        <time>2024-08-10T20:10:41.000Z</time>
      </trkpt>
      <trkpt lat="51.461381" lon="0.23196">
        <ele>5.323926</ele>
        <time>2024-08-10T20:10:41.000Z</time>
      </trkpt>
      <trkpt lat="51.461383" lon="0.231965">
        <ele>5.323643</ele>
        <time>2024-08-10T20:10:41.000Z</time>
      </trkpt>
      <trkpt lat="51.461386" lon="0.231957">
        <ele>5.323095</ele>
        <time>2024-08-10T20:10:41.000Z</time>
      </trkpt>
      <trkpt lat="51.461386" lon="0.231957">
        <ele>5.322814</ele>
        <time>2024-08-10T20:10:41.000Z</time>
      </trkpt>
      <trkpt lat="51.461381" lon="0.231955">
        <ele>5.322256</ele>
        <time>2024-08-10T20:10:41.000Z</time>
      </trkpt>
      <trkpt lat="51.461341" lon="0.231952">
        <ele>5.312831</ele>
        <time>2024-08-10T20:10:41.000Z</time>
      </trkpt>
      <trkpt lat="51.460779" lon="0.231886">
        <ele>5.155308</ele>
        <time>2024-08-10T20:10:47.000Z</time>
      </trkpt>
      <trkpt lat="51.460704" lon="0.231894">
        <ele>5.132524</ele>
        <time>2024-08-10T20:10:48.000Z</time>
      </trkpt>
      <trkpt lat="51.460641" lon="0.231905">
        <ele>5.117233</ele>
        <time>2024-08-10T20:10:49.000Z</time>
      </trkpt>
      <trkpt lat="51.460564" lon="0.231914">
        <ele>5.096889</ele>
        <time>2024-08-10T20:10:50.000Z</time>
      </trkpt>
      <trkpt lat="51.460467" lon="0.231975">
        <ele>5.06782</ele>
        <time>2024-08-10T20:10:51.000Z</time>
      </trkpt>
      <trkpt lat="51.460454" lon="0.232046">
        <ele>5.056056</ele>
        <time>2024-08-10T20:10:52.000Z</time>
      </trkpt>
      <trkpt lat="51.460383" lon="0.232126">
        <ele>5.032821</ele>
        <time>2024-08-10T20:10:53.000Z</time>
      </trkpt>
      <trkpt lat="51.460353" lon="0.232143">
        <ele>5.024962</ele>
        <time>2024-08-10T20:10:53.000Z</time>
      </trkpt>
      <trkpt lat="51.460299" lon="0.232135">
        <ele>5.018428</ele>
        <time>2024-08-10T20:10:54.000Z</time>
      </trkpt>
      <trkpt lat="51.460304" lon="0.232124">
        <ele>5.017934</ele>
        <time>2024-08-10T20:10:54.000Z</time>
      </trkpt>
      <trkpt lat="51.460299" lon="0.232134">
        <ele>5.017437</ele>
        <time>2024-08-10T20:10:54.000Z</time>
      </trkpt>
      <trkpt lat="51.460295" lon="0.232126">
        <ele>5.017273</ele>
        <time>2024-08-10T20:10:54.000Z</time>
      </trkpt>
      <trkpt lat="51.460293" lon="0.232123">
        <ele>5.017279</ele>
        <time>2024-08-10T20:10:54.000Z</time>
      </trkpt>
      <trkpt lat="51.460287" lon="0.232138">
        <ele>5.017072</ele>
        <time>2024-08-10T20:10:54.000Z</time>
      </trkpt>
      <trkpt lat="51.460294" lon="0.232135">
        <ele>5.016885</ele>
        <time>2024-08-10T20:10:54.000Z</time>
      </trkpt>
      <trkpt lat="51.460293" lon="0.232138">
        <ele>5.016541</ele>
        <time>2024-08-10T20:10:54.000Z</time>
      </trkpt>
      <trkpt lat="51.46025" lon="0.232104">
        <ele>5.009619</ele>
        <time>2024-08-10T20:10:55.000Z</time>
      </trkpt>
      <trkpt lat="51.460211" lon="0.232056">
        <ele>5.00199</ele>
        <time>2024-08-10T20:10:56.000Z</time>
      </trkpt>
      <trkpt lat="51.460152" lon="0.232049">
        <ele>4.991064</ele>
        <time>2024-08-10T20:10:57.000Z</time>
      </trkpt>
      <trkpt lat="51.459804" lon="0.231963">
        <ele>4.933908</ele>
        <time>2024-08-10T20:11:01.000Z</time>
      </trkpt>
      <trkpt lat="51.459457" lon="0.231513">
        <ele>4.860647</ele>
        <time>2024-08-10T20:11:06.000Z</time>
      </trkpt>
      <trkpt lat="51.459161" lon="0.231322">
        <ele>4.810204</ele>
        <time>2024-08-10T20:11:10.000Z</time>
      </trkpt>
      <trkpt lat="51.459067" lon="0.231317">
        <ele>4.792117</ele>
        <time>2024-08-10T20:11:11.000Z</time>
      </trkpt>
      <trkpt lat="51.45902" lon="0.231362">
        <ele>4.784088</ele>
        <time>2024-08-10T20:11:12.000Z</time>
      </trkpt>
      <trkpt lat="51.458977" lon="0.231391">
        <ele>4.776176</ele>
        <time>2024-08-10T20:11:13.000Z</time>
      </trkpt>
      <trkpt lat="51.458755" lon="0.231583">
        <ele>4.738281</ele>
        <time>2024-08-10T20:11:16.000Z</time>
      </trkpt>
      <trkpt lat="51.458719" lon="0.231631">
        <ele>4.770681</ele>
        <time>2024-08-10T20:11:17.000Z</time>
      </trkpt>
      <trkpt lat="51.458706" lon="0.231628">
        <ele>4.772668</ele>
        <time>2024-08-10T20:11:17.000Z</time>
      </trkpt>
      <trkpt lat="51.458713" lon="0.231634">
        <ele>4.773323</ele>
        <time>2024-08-10T20:11:17.000Z</time>
      </trkpt>
      <trkpt lat="51.458705" lon="0.231631">
        <ele>4.774648</ele>
        <time>2024-08-10T20:11:17.000Z</time>
      </trkpt>
      <trkpt lat="51.458708" lon="0.231638">
        <ele>4.775977</ele>
        <time>2024-08-10T20:11:17.000Z</time>
      </trkpt>
      <trkpt lat="51.458696" lon="0.231631">
        <ele>4.776648</ele>
        <time>2024-08-10T20:11:17.000Z</time>
      </trkpt>
      <trkpt lat="51.458697" lon="0.23165">
        <ele>4.777963</ele>
        <time>2024-08-10T20:11:17.000Z</time>
      </trkpt>
      <trkpt lat="51.458696" lon="0.231639">
        <ele>4.778869</ele>
        <time>2024-08-10T20:11:17.000Z</time>
      </trkpt>
      <trkpt lat="51.458709" lon="0.231639">
        <ele>4.778874</ele>
        <time>2024-08-10T20:11:17.000Z</time>
      </trkpt>
      <trkpt lat="51.458707" lon="0.231644">
        <ele>4.779534</ele>
        <time>2024-08-10T20:11:17.000Z</time>
      </trkpt>
      <trkpt lat="51.458703" lon="0.231653">
        <ele>4.780729</ele>
        <time>2024-08-10T20:11:17.000Z</time>
      </trkpt>
      <trkpt lat="51.458693" lon="0.231657">
        <ele>4.78163</ele>
        <time>2024-08-10T20:11:17.000Z</time>
      </trkpt>
      <trkpt lat="51.458699" lon="0.231661">
        <ele>4.782946</ele>
        <time>2024-08-10T20:11:17.000Z</time>
      </trkpt>
      <trkpt lat="51.458688" lon="0.231662">
        <ele>4.783841</ele>
        <time>2024-08-10T20:11:17.000Z</time>
      </trkpt>
      <trkpt lat="51.458183" lon="0.23257">
        <ele>5.215435</ele>
        <time>2024-08-10T20:11:25.000Z</time>
      </trkpt>
      <trkpt lat="51.458176" lon="0.232586">
        <ele>5.219028</ele>
        <time>2024-08-10T20:11:25.000Z</time>
      </trkpt>
      <trkpt lat="51.458177" lon="0.232594">
        <ele>5.221106</ele>
        <time>2024-08-10T20:11:25.000Z</time>
      </trkpt>
      <trkpt lat="51.458188" lon="0.232595">
        <ele>5.221803</ele>
        <time>2024-08-10T20:11:25.000Z</time>
      </trkpt>
      <trkpt lat="51.458187" lon="0.232582">
        <ele>5.222477</ele>
        <time>2024-08-10T20:11:25.000Z</time>
      </trkpt>
      <trkpt lat="51.458181" lon="0.232592">
        <ele>5.223656</ele>
        <time>2024-08-10T20:11:25.000Z</time>
      </trkpt>
      <trkpt lat="51.458187" lon="0.232589">
        <ele>5.224322</ele>
        <time>2024-08-10T20:11:25.000Z</time>
      </trkpt>
      <trkpt lat="51.458171" lon="0.232599">
        <ele>5.224987</ele>
        <time>2024-08-10T20:11:25.000Z</time>
      </trkpt>
      <trkpt lat="51.458169" lon="0.23259">
        <ele>5.225687</ele>
        <time>2024-08-10T20:11:25.000Z</time>
      </trkpt>
      <trkpt lat="51.458183" lon="0.232593">
        <ele>5.226587</ele>
        <time>2024-08-10T20:11:25.000Z</time>
      </trkpt>
      <trkpt lat="51.458168" lon="0.232594">
        <ele>5.227493</ele>
        <time>2024-08-10T20:11:25.000Z</time>
      </trkpt>
      <trkpt lat="51.458171" lon="0.232608">
        <ele>5.228382</ele>
        <time>2024-08-10T20:11:25.000Z</time>
      </trkpt>
      <trkpt lat="51.458175" lon="0.232593">
        <ele>5.2291</ele>
        <time>2024-08-10T20:11:25.000Z</time>
      </trkpt>
      <trkpt lat="51.458166" lon="0.232609">
        <ele>5.229994</ele>
        <time>2024-08-10T20:11:25.000Z</time>
      </trkpt>
      <trkpt lat="51.458177" lon="0.232604">
        <ele>5.230885</ele>
        <time>2024-08-10T20:11:25.000Z</time>
      </trkpt>
      <trkpt lat="51.458167" lon="0.232601">
        <ele>5.231789</ele>
        <time>2024-08-10T20:11:25.000Z</time>
      </trkpt>
      <trkpt lat="51.457789" lon="0.233628">
        <ele>5.647902</ele>
        <time>2024-08-10T20:11:33.000Z</time>
      </trkpt>
      <trkpt lat="51.457482" lon="0.234611">
        <ele>6.071927</ele>
        <time>2024-08-10T20:11:41.000Z</time>
      </trkpt>
      <trkpt lat="51.457481" lon="0.234612">
        <ele>6.072323</ele>
        <time>2024-08-10T20:11:41.000Z</time>
      </trkpt>
      <trkpt lat="51.457472" lon="0.234621">
        <ele>6.073069</ele>
        <time>2024-08-10T20:11:41.000Z</time>
      </trkpt>
      <trkpt lat="51.457477" lon="0.234614">
        <ele>6.073851</ele>
        <time>2024-08-10T20:11:41.000Z</time>
      </trkpt>
      <trkpt lat="51.457464" lon="0.234621">
        <ele>6.074645</ele>
        <time>2024-08-10T20:11:41.000Z</time>
      </trkpt>
      <trkpt lat="51.457476" lon="0.234612">
        <ele>6.075391</ele>
        <time>2024-08-10T20:11:41.000Z</time>
      </trkpt>
      <trkpt lat="51.457466" lon="0.234613">
        <ele>6.076167</ele>
        <time>2024-08-10T20:11:41.000Z</time>
      </trkpt>
      <trkpt lat="51.457464" lon="0.234621">
        <ele>6.077508</ele>
        <time>2024-08-10T20:11:41.000Z</time>
      </trkpt>
      <trkpt lat="51.457463" lon="0.234628">
        <ele>6.0783</ele>
        <time>2024-08-10T20:11:41.000Z</time>
      </trkpt>
      <trkpt lat="51.457465" lon="0.234631">
        <ele>6.079027</ele>
        <time>2024-08-10T20:11:41.000Z</time>
      </trkpt>
      <trkpt lat="51.457477" lon="0.234623">
        <ele>6.080213</ele>
        <time>2024-08-10T20:11:41.000Z</time>
      </trkpt>
      <trkpt lat="51.45746" lon="0.234637">
        <ele>6.080956</ele>
        <time>2024-08-10T20:11:41.000Z</time>
      </trkpt>
      <trkpt lat="51.457462" lon="0.234631">
        <ele>6.082133</ele>
        <time>2024-08-10T20:11:41.000Z</time>
      </trkpt>
      <trkpt lat="51.457462" lon="0.234634">
        <ele>6.084195</ele>
        <time>2024-08-10T20:11:41.000Z</time>
      </trkpt>
      <trkpt lat="51.456923" lon="0.236937">
        <ele>7.108137</ele>
        <time>2024-08-10T20:11:58.000Z</time>
      </trkpt>
      <trkpt lat="51.4569" lon="0.236972">
        <ele>7.124875</ele>
        <time>2024-08-10T20:11:58.000Z</time>
      </trkpt>
      <trkpt lat="51.456913" lon="0.236976">
        <ele>7.126638</ele>
        <time>2024-08-10T20:11:58.000Z</time>
      </trkpt>
      <trkpt lat="51.456903" lon="0.236981">
        <ele>7.127959</ele>
        <time>2024-08-10T20:11:58.000Z</time>
      </trkpt>
      <trkpt lat="51.456911" lon="0.236983">
        <ele>7.129</ele>
        <time>2024-08-10T20:11:58.000Z</time>
      </trkpt>
      <trkpt lat="51.456893" lon="0.236974">
        <ele>7.130323</ele>
        <time>2024-08-10T20:11:58.000Z</time>
      </trkpt>
      <trkpt lat="51.456908" lon="0.236983">
        <ele>7.131658</ele>
        <time>2024-08-10T20:11:58.000Z</time>
      </trkpt>
      <trkpt lat="51.456891" lon="0.236989">
        <ele>7.133888</ele>
        <time>2024-08-10T20:11:58.000Z</time>
      </trkpt>
      <trkpt lat="51.456895" lon="0.236984">
        <ele>7.134874</ele>
        <time>2024-08-10T20:11:58.000Z</time>
      </trkpt>
      <trkpt lat="51.456893" lon="0.236984">
        <ele>7.135898</ele>
        <time>2024-08-10T20:11:58.000Z</time>
      </trkpt>
      <trkpt lat="51.456892" lon="0.236993">
        <ele>7.137234</ele>
        <time>2024-08-10T20:11:58.000Z</time>
      </trkpt>
      <trkpt lat="51.456558" lon="0.237945">
        <ele>7.707725</ele>
        <time>2024-08-10T20:12:06.000Z</time>
      </trkpt>
      <trkpt lat="51.456544" lon="0.237971">
        <ele>7.724085</ele>
        <time>2024-08-10T20:12:06.000Z</time>
      </trkpt>
      <trkpt lat="51.456542" lon="0.237981">
        <ele>7.727173</ele>
        <time>2024-08-10T20:12:06.000Z</time>
      </trkpt>
      <trkpt lat="51.45655" lon="0.237983">
        <ele>7.728154</ele>
        <time>2024-08-10T20:12:06.000Z</time>
      </trkpt>
      <trkpt lat="51.456536" lon="0.237985">
        <ele>7.729923</ele>
        <time>2024-08-10T20:12:06.000Z</time>
      </trkpt>
      <trkpt lat="51.456539" lon="0.237982">
        <ele>7.731246</ele>
        <time>2024-08-10T20:12:06.000Z</time>
      </trkpt>
      <trkpt lat="51.456531" lon="0.237982">
        <ele>7.733209</ele>
        <time>2024-08-10T20:12:06.000Z</time>
      </trkpt>
      <trkpt lat="51.456543" lon="0.237991">
        <ele>7.734537</ele>
        <time>2024-08-10T20:12:06.000Z</time>
      </trkpt>
      <trkpt lat="51.45654" lon="0.237989">
        <ele>7.736289</ele>
        <time>2024-08-10T20:12:06.000Z</time>
      </trkpt>
      <trkpt lat="51.456532" lon="0.237991">
        <ele>7.738958</ele>
        <time>2024-08-10T20:12:06.000Z</time>
      </trkpt>
      <trkpt lat="51.456539" lon="0.237994">
        <ele>7.740716</ele>
        <time>2024-08-10T20:12:06.000Z</time>
      </trkpt>
      <trkpt lat="51.456533" lon="0.238001">
        <ele>7.741706</ele>
        <time>2024-08-10T20:12:06.000Z</time>
      </trkpt>
      <trkpt lat="51.456535" lon="0.237994">
        <ele>7.74303</ele>
        <time>2024-08-10T20:12:06.000Z</time>
      </trkpt>
      <trkpt lat="51.456524" lon="0.238004">
        <ele>7.744798</ele>
        <time>2024-08-10T20:12:06.000Z</time>
      </trkpt>
      <trkpt lat="51.456091" lon="0.23892">
        <ele>8.35069</ele>
        <time>2024-08-10T20:12:14.000Z</time>
      </trkpt>
      <trkpt lat="51.455856" lon="0.239303">
        <ele>8.520743</ele>
        <time>2024-08-10T20:12:18.000Z</time>
      </trkpt>
      <trkpt lat="51.455859" lon="0.239292">
        <ele>8.522067</ele>
        <time>2024-08-10T20:12:18.000Z</time>
      </trkpt>
      <trkpt lat="51.455861" lon="0.239296">
        <ele>8.523206</ele>
        <time>2024-08-10T20:12:18.000Z</time>
      </trkpt>
      <trkpt lat="51.455855" lon="0.239304">
        <ele>8.52424</ele>
        <time>2024-08-10T20:12:18.000Z</time>
      </trkpt>
      <trkpt lat="51.455844" lon="0.23931">
        <ele>8.524805</ele>
        <time>2024-08-10T20:12:18.000Z</time>
      </trkpt>
      <trkpt lat="51.455842" lon="0.2393">
        <ele>8.525386</ele>
        <time>2024-08-10T20:12:18.000Z</time>
      </trkpt>
      <trkpt lat="51.45585" lon="0.239303">
        <ele>8.526149</ele>
        <time>2024-08-10T20:12:18.000Z</time>
      </trkpt>
      <trkpt lat="51.455851" lon="0.239306">
        <ele>8.526926</ele>
        <time>2024-08-10T20:12:18.000Z</time>
      </trkpt>
      <trkpt lat="51.45585" lon="0.239316">
        <ele>8.527496</ele>
        <time>2024-08-10T20:12:18.000Z</time>
      </trkpt>
      <trkpt lat="51.455853" lon="0.239314">
        <ele>8.528269</ele>
        <time>2024-08-10T20:12:18.000Z</time>
      </trkpt>
      <trkpt lat="51.455771" lon="0.239442">
        <ele>8.580231</ele>
        <time>2024-08-10T20:12:19.000Z</time>
      </trkpt>
      <trkpt lat="51.455121" lon="0.240237">
        <ele>8.975701</ele>
        <time>2024-08-10T20:12:28.000Z</time>
      </trkpt>
      <trkpt lat="51.455112" lon="0.24024">
        <ele>8.977585</ele>
        <time>2024-08-10T20:12:28.000Z</time>
      </trkpt>
      <trkpt lat="51.455114" lon="0.240236">
        <ele>8.978152</ele>
        <time>2024-08-10T20:12:28.000Z</time>
      </trkpt>
      <trkpt lat="51.455126" lon="0.240243">
        <ele>8.978726</ele>
        <time>2024-08-10T20:12:28.000Z</time>
      </trkpt>
      <trkpt lat="51.45511" lon="0.240239">
        <ele>8.979306</ele>
        <time>2024-08-10T20:12:28.000Z</time>
      </trkpt>
      <trkpt lat="51.455117" lon="0.240252">
        <ele>8.979871</ele>
        <time>2024-08-10T20:12:28.000Z</time>
      </trkpt>
      <trkpt lat="51.455108" lon="0.240252">
        <ele>8.980446</ele>
        <time>2024-08-10T20:12:28.000Z</time>
      </trkpt>
      <trkpt lat="51.455108" lon="0.240239">
        <ele>8.981766</ele>
        <time>2024-08-10T20:12:28.000Z</time>
      </trkpt>
      <trkpt lat="51.455108" lon="0.240248">
        <ele>8.982343</ele>
        <time>2024-08-10T20:12:28.000Z</time>
      </trkpt>
      <trkpt lat="51.455106" lon="0.24025">
        <ele>8.983112</ele>
        <time>2024-08-10T20:12:28.000Z</time>
      </trkpt>
      <trkpt lat="51.455116" lon="0.240258">
        <ele>8.984257</ele>
        <time>2024-08-10T20:12:28.000Z</time>
      </trkpt>
      <trkpt lat="51.455111" lon="0.240252">
        <ele>8.985592</ele>
        <time>2024-08-10T20:12:28.000Z</time>
      </trkpt>
      <trkpt lat="51.455099" lon="0.240259">
        <ele>8.986719</ele>
        <time>2024-08-10T20:12:28.000Z</time>
      </trkpt>
      <trkpt lat="51.455112" lon="0.240258">
        <ele>8.987297</ele>
        <time>2024-08-10T20:12:28.000Z</time>
      </trkpt>
      <trkpt lat="51.45508" lon="0.240281">
        <ele>9.001296</ele>
        <time>2024-08-10T20:12:28.000Z</time>
      </trkpt>
      <trkpt lat="51.454678" lon="0.24062">
        <ele>9.217243</ele>
        <time>2024-08-10T20:12:33.000Z</time>
      </trkpt>
      <trkpt lat="51.454607" lon="0.240677">
        <ele>9.243104</ele>
        <time>2024-08-10T20:12:34.000Z</time>
      </trkpt>
      <trkpt lat="51.454599" lon="0.24068">
        <ele>9.242084</ele>
        <time>2024-08-10T20:12:34.000Z</time>
      </trkpt>
      <trkpt lat="51.454609" lon="0.240684">
        <ele>9.242089</ele>
        <time>2024-08-10T20:12:34.000Z</time>
      </trkpt>
      <trkpt lat="51.454612" lon="0.240679">
        <ele>9.242081</ele>
        <time>2024-08-10T20:12:34.000Z</time>
      </trkpt>
      <trkpt lat="51.455109" lon="0.240246">
        <ele>8.963418</ele>
        <time>2024-08-10T20:12:40.000Z</time>
      </trkpt>
      <trkpt lat="51.455125" lon="0.240236">
        <ele>8.963404</ele>
        <time>2024-08-10T20:12:40.000Z</time>
      </trkpt>
      <trkpt lat="51.455486" lon="0.239786">
        <ele>8.738485</ele>
        <time>2024-08-10T20:12:45.000Z</time>
      </trkpt>
      <trkpt lat="51.455845" lon="0.239304">
        <ele>8.513738</ele>
        <time>2024-08-10T20:12:50.000Z</time>
      </trkpt>
      <trkpt lat="51.455842" lon="0.239303">
        <ele>8.513725</ele>
        <time>2024-08-10T20:12:50.000Z</time>
      </trkpt>
      <trkpt lat="51.456187" lon="0.238645">
        <ele>8.175603</ele>
        <time>2024-08-10T20:12:56.000Z</time>
      </trkpt>
      <trkpt lat="51.456543" lon="0.237981">
        <ele>7.760211</ele>
        <time>2024-08-10T20:13:02.000Z</time>
      </trkpt>
      <trkpt lat="51.456527" lon="0.237981">
        <ele>7.760202</ele>
        <time>2024-08-10T20:13:02.000Z</time>
      </trkpt>
      <trkpt lat="51.456897" lon="0.236995">
        <ele>7.201577</ele>
        <time>2024-08-10T20:13:10.000Z</time>
      </trkpt>
      <trkpt lat="51.456896" lon="0.236983">
        <ele>7.201568</ele>
        <time>2024-08-10T20:13:10.000Z</time>
      </trkpt>
      <trkpt lat="51.457192" lon="0.235811">
        <ele>6.624482</ele>
        <time>2024-08-10T20:13:19.000Z</time>
      </trkpt>
      <trkpt lat="51.457475" lon="0.234621">
        <ele>6.065148</ele>
        <time>2024-08-10T20:13:28.000Z</time>
      </trkpt>
      <trkpt lat="51.457479" lon="0.234623">
        <ele>6.065139</ele>
        <time>2024-08-10T20:13:28.000Z</time>
      </trkpt>
      <trkpt lat="51.457832" lon="0.233617">
        <ele>5.628731</ele>
        <time>2024-08-10T20:13:36.000Z</time>
      </trkpt>
      <trkpt lat="51.458174" lon="0.2326">
        <ele>5.348235</ele>
        <time>2024-08-10T20:13:44.000Z</time>
      </trkpt>
      <trkpt lat="51.458176" lon="0.2326">
        <ele>5.348233</ele>
        <time>2024-08-10T20:13:44.000Z</time>
      </trkpt>
      <trkpt lat="51.458704" lon="0.231645">
        <ele>5.038174</ele>
        <time>2024-08-10T20:13:53.000Z</time>
      </trkpt>
      <trkpt lat="51.458715" lon="0.23164">
        <ele>5.038173</ele>
        <time>2024-08-10T20:13:53.000Z</time>
      </trkpt>
      <trkpt lat="51.458715" lon="0.231646">
        <ele>5.038171</ele>
        <time>2024-08-10T20:13:53.000Z</time>
      </trkpt>
      <trkpt lat="51.459103" lon="0.23123">
        <ele>5.178616</ele>
        <time>2024-08-10T20:13:58.000Z</time>
      </trkpt>
      <trkpt lat="51.4591" lon="0.231214">
        <ele>5.178606</ele>
        <time>2024-08-10T20:13:58.000Z</time>
      </trkpt>
      <trkpt lat="51.459114" lon="0.231222">
        <ele>5.178613</ele>
        <time>2024-08-10T20:13:58.000Z</time>
      </trkpt>
      <trkpt lat="51.459144" lon="0.230621">
        <ele>5.313809</ele>
        <time>2024-08-10T20:14:02.000Z</time>
      </trkpt>
      <trkpt lat="51.459155" lon="0.230616">
        <ele>5.313802</ele>
        <time>2024-08-10T20:14:02.000Z</time>
      </trkpt>
      <trkpt lat="51.459152" lon="0.230616">
        <ele>5.313803</ele>
        <time>2024-08-10T20:14:02.000Z</time>
      </trkpt>
      <trkpt lat="51.459273" lon="0.229851">
        <ele>5.492349</ele>
        <time>2024-08-10T20:14:07.000Z</time>
      </trkpt>
      <trkpt lat="51.459392" lon="0.229072">
        <ele>5.671044</ele>
        <time>2024-08-10T20:14:13.000Z</time>
      </trkpt>
      <trkpt lat="51.459406" lon="0.229069">
        <ele>5.671048</ele>
        <time>2024-08-10T20:14:13.000Z</time>
      </trkpt>
      <trkpt lat="51.459393" lon="0.229079">
        <ele>5.671046</ele>
        <time>2024-08-10T20:14:13.000Z</time>
      </trkpt>
      <trkpt lat="51.45944" lon="0.228179">
        <ele>5.885381</ele>
        <time>2024-08-10T20:14:19.000Z</time>
      </trkpt>
      <trkpt lat="51.459495" lon="0.227269">
        <ele>6.099728</ele>
        <time>2024-08-10T20:14:25.000Z</time>
      </trkpt>
      <trkpt lat="51.459504" lon="0.227277">
        <ele>6.099729</ele>
        <time>2024-08-10T20:14:25.000Z</time>
      </trkpt>
      <trkpt lat="51.459484" lon="0.2261">
        <ele>6.358413</ele>
        <time>2024-08-10T20:14:33.000Z</time>
      </trkpt>
      <trkpt lat="51.459459" lon="0.224912">
        <ele>6.414896</ele>
        <time>2024-08-10T20:14:41.000Z</time>
      </trkpt>
      <trkpt lat="51.459436" lon="0.223725">
        <ele>6.47135</ele>
        <time>2024-08-10T20:14:49.000Z</time>
      </trkpt>
      <trkpt lat="51.459446" lon="0.223715">
        <ele>6.471343</ele>
        <time>2024-08-10T20:14:49.000Z</time>
      </trkpt>
      <trkpt lat="51.459388" lon="0.222663">
        <ele>6.470721</ele>
        <time>2024-08-10T20:14:56.000Z</time>
      </trkpt>
      <trkpt lat="51.459338" lon="0.221593">
        <ele>6.43946</ele>
        <time>2024-08-10T20:15:03.000Z</time>
      </trkpt>
      <trkpt lat="51.459295" lon="0.220517">
        <ele>6.40819</ele>
        <time>2024-08-10T20:15:10.000Z</time>
      </trkpt>
      <trkpt lat="51.459289" lon="0.22053">
        <ele>6.408101</ele>
        <time>2024-08-10T20:15:10.000Z</time>
      </trkpt>
      <trkpt lat="51.459295" lon="0.220533">
        <ele>6.408047</ele>
        <time>2024-08-10T20:15:10.000Z</time>
      </trkpt>
      <trkpt lat="51.459303" lon="0.220527">
        <ele>6.407977</ele>
        <time>2024-08-10T20:15:10.000Z</time>
      </trkpt>
      <trkpt lat="51.459307" lon="0.220526">
        <ele>6.407838</ele>
        <time>2024-08-10T20:15:10.000Z</time>
      </trkpt>
      <trkpt lat="51.45929" lon="0.22054">
        <ele>6.407722</ele>
        <time>2024-08-10T20:15:10.000Z</time>
      </trkpt>
      <trkpt lat="51.459308" lon="0.220538">
        <ele>6.407632</ele>
        <time>2024-08-10T20:15:10.000Z</time>
      </trkpt>
      <trkpt lat="51.459313" lon="0.221225">
        <ele>6.423895</ele>
        <time>2024-08-10T20:15:15.000Z</time>
      </trkpt>
      <trkpt lat="51.459433" lon="0.22371">
        <ele>6.493202</ele>
        <time>2024-08-10T20:15:32.000Z</time>
      </trkpt>
      <trkpt lat="51.45949" lon="0.227295">
        <ele>6.28828</ele>
        <time>2024-08-10T20:15:57.000Z</time>
      </trkpt>
      <trkpt lat="51.459477" lon="0.228229">
        <ele>6.020382</ele>
        <time>2024-08-10T20:16:03.000Z</time>
      </trkpt>
      <trkpt lat="51.459368" lon="0.229417">
        <ele>5.675437</ele>
        <time>2024-08-10T20:16:11.000Z</time>
      </trkpt>
      <trkpt lat="51.459296" lon="0.229783">
        <ele>5.559732</ele>
        <time>2024-08-10T20:16:14.000Z</time>
      </trkpt>
      <trkpt lat="51.459163" lon="0.230436">
        <ele>5.353182</ele>
        <time>2024-08-10T20:16:19.000Z</time>
      </trkpt>
      <trkpt lat="51.459138" lon="0.230712">
        <ele>5.268625</ele>
        <time>2024-08-10T20:16:21.000Z</time>
      </trkpt>
      <trkpt lat="51.459126" lon="0.230965">
        <ele>5.191619</ele>
        <time>2024-08-10T20:16:23.000Z</time>
      </trkpt>
      <trkpt lat="51.459142" lon="0.23101">
        <ele>5.180997</ele>
        <time>2024-08-10T20:16:23.000Z</time>
      </trkpt>
      <trkpt lat="51.459223" lon="0.231114">
        <ele>5.127572</ele>
        <time>2024-08-10T20:16:24.000Z</time>
      </trkpt>
      <trkpt lat="51.459467" lon="0.231349">
        <ele>4.987393</ele>
        <time>2024-08-10T20:16:27.000Z</time>
      </trkpt>
      <trkpt lat="51.459796" lon="0.231789">
        <ele>4.914797</ele>
        <time>2024-08-10T20:16:32.000Z</time>
      </trkpt>
      <trkpt lat="51.460023" lon="0.231914">
        <ele>4.994305</ele>
        <time>2024-08-10T20:16:35.000Z</time>
      </trkpt>
      <trkpt lat="51.460127" lon="0.231892">
        <ele>5.032755</ele>
        <time>2024-08-10T20:16:36.000Z</time>
      </trkpt>
      <trkpt lat="51.460204" lon="0.231827">
        <ele>5.0591</ele>
        <time>2024-08-10T20:16:37.000Z</time>
      </trkpt>
      <trkpt lat="51.460225" lon="0.231762">
        <ele>5.074998</ele>
        <time>2024-08-10T20:16:38.000Z</time>
      </trkpt>
      <trkpt lat="51.46025" lon="0.23171">
        <ele>5.091064</ele>
        <time>2024-08-10T20:16:38.000Z</time>
      </trkpt>
      <trkpt lat="51.460312" lon="0.231668">
        <ele>5.111629</ele>
        <time>2024-08-10T20:16:39.000Z</time>
      </trkpt>
      <trkpt lat="51.460374" lon="0.231685">
        <ele>5.131725</ele>
        <time>2024-08-10T20:16:40.000Z</time>
      </trkpt>
      <trkpt lat="51.460414" lon="0.231714">
        <ele>5.147657</ele>
        <time>2024-08-10T20:16:40.000Z</time>
      </trkpt>
      <trkpt lat="51.460446" lon="0.231758">
        <ele>5.163348</ele>
        <time>2024-08-10T20:16:40.000Z</time>
      </trkpt>
      <trkpt lat="51.460557" lon="0.231818">
        <ele>5.197794</ele>
        <time>2024-08-10T20:16:41.000Z</time>
      </trkpt>
      <trkpt lat="51.460655" lon="0.231856">
        <ele>5.234119</ele>
        <time>2024-08-10T20:16:42.000Z</time>
      </trkpt>
      <trkpt lat="51.460785" lon="0.231895">
        <ele>5.276713</ele>
        <time>2024-08-10T20:16:43.000Z</time>
      </trkpt>
      <trkpt lat="51.461356" lon="0.231953">
        <ele>5.470196</ele>
        <time>2024-08-10T20:16:49.000Z</time>
      </trkpt>
      <trkpt lat="51.461414" lon="0.231956">
        <ele>5.518201</ele>
        <time>2024-08-10T20:16:50.000Z</time>
      </trkpt>
      <trkpt lat="51.461456" lon="0.231834">
        <ele>5.577308</ele>
        <time>2024-08-10T20:16:51.000Z</time>
      </trkpt>
      <trkpt lat="51.461513" lon="0.231597">
        <ele>5.681767</ele>
        <time>2024-08-10T20:16:53.000Z</time>
      </trkpt>
      <trkpt lat="51.46158" lon="0.231347">
        <ele>5.790351</ele>
        <time>2024-08-10T20:16:55.000Z</time>
      </trkpt>
      <trkpt lat="51.461609" lon="0.231131">
        <ele>5.877747</ele>
        <time>2024-08-10T20:16:57.000Z</time>
      </trkpt>
      <trkpt lat="51.461665" lon="0.230501">
        <ele>6.141218</ele>
        <time>2024-08-10T20:17:01.000Z</time>
      </trkpt>
      <trkpt lat="51.46186" lon="0.226902">
        <ele>7.532099</ele>
        <time>2024-08-10T20:17:26.000Z</time>
      </trkpt>
      <trkpt lat="51.461867" lon="0.226733">
        <ele>7.599699</ele>
        <time>2024-08-10T20:17:27.000Z</time>
      </trkpt>
      <trkpt lat="51.461849" lon="0.226365">
        <ele>7.721571</ele>
        <time>2024-08-10T20:17:30.000Z</time>
      </trkpt>
      <trkpt lat="51.461818" lon="0.226207">
        <ele>7.718871</ele>
        <time>2024-08-10T20:17:31.000Z</time>
      </trkpt>
      <trkpt lat="51.460982" lon="0.22409">
        <ele>7.676037</ele>
        <time>2024-08-10T20:17:48.000Z</time>
      </trkpt>
      <trkpt lat="51.460789" lon="0.223759">
        <ele>7.68215</ele>
        <time>2024-08-10T20:17:51.000Z</time>
      </trkpt>
      <trkpt lat="51.460527" lon="0.223443">
        <ele>7.700631</ele>
        <time>2024-08-10T20:17:55.000Z</time>
      </trkpt>
      <trkpt lat="51.460497" lon="0.223416">
        <ele>7.702435</ele>
        <time>2024-08-10T20:17:55.000Z</time>
      </trkpt>
      <trkpt lat="51.4605" lon="0.223408">
        <ele>7.703003</ele>
        <time>2024-08-10T20:17:55.000Z</time>
      </trkpt>
      <trkpt lat="51.460495" lon="0.223408">
        <ele>7.703005</ele>
        <time>2024-08-10T20:17:55.000Z</time>
      </trkpt>
      <trkpt lat="51.460501" lon="0.223405">
        <ele>7.703001</ele>
        <time>2024-08-10T20:17:55.000Z</time>
      </trkpt>
      <trkpt lat="51.46051" lon="0.223406">
        <ele>7.703569</ele>
        <time>2024-08-10T20:17:55.000Z</time>
      </trkpt>
      <trkpt lat="51.460539" lon="0.223448">
        <ele>7.705364</ele>
        <time>2024-08-10T20:17:55.000Z</time>
      </trkpt>
      <trkpt lat="51.460788" lon="0.223757">
        <ele>7.723863</ele>
        <time>2024-08-10T20:17:58.000Z</time>
      </trkpt>
      <trkpt lat="51.460971" lon="0.224083">
        <ele>7.739031</ele>
        <time>2024-08-10T20:18:01.000Z</time>
      </trkpt>
      <trkpt lat="51.461826" lon="0.226217">
        <ele>7.559857</ele>
        <time>2024-08-10T20:18:19.000Z</time>
      </trkpt>
      <trkpt lat="51.461845" lon="0.226367">
        <ele>7.537605</ele>
        <time>2024-08-10T20:18:20.000Z</time>
      </trkpt>
      <trkpt lat="51.461869" lon="0.226732">
        <ele>7.486739</ele>
        <time>2024-08-10T20:18:23.000Z</time>
      </trkpt>
      <trkpt lat="51.461859" lon="0.226898">
        <ele>7.461308</ele>
        <time>2024-08-10T20:18:24.000Z</time>
      </trkpt>
      <trkpt lat="51.461663" lon="0.230508">
        <ele>6.072599</ele>
        <time>2024-08-10T20:18:49.000Z</time>
      </trkpt>
      <trkpt lat="51.461614" lon="0.231135">
        <ele>5.941969</ele>
        <time>2024-08-10T20:18:53.000Z</time>
      </trkpt>
      <trkpt lat="51.461574" lon="0.231349">
        <ele>5.898621</ele>
        <time>2024-08-10T20:18:55.000Z</time>
      </trkpt>
      <trkpt lat="51.46152" lon="0.231599">
        <ele>5.844792</ele>
        <time>2024-08-10T20:18:57.000Z</time>
      </trkpt>
      <trkpt lat="51.461466" lon="0.231835">
        <ele>5.792996</ele>
        <time>2024-08-10T20:18:59.000Z</time>
      </trkpt>
      <trkpt lat="51.461416" lon="0.231953">
        <ele>5.763682</ele>
        <time>2024-08-10T20:19:00.000Z</time>
      </trkpt>
      <trkpt lat="51.461391" lon="0.232069">
        <ele>5.740153</ele>
        <time>2024-08-10T20:19:01.000Z</time>
      </trkpt>
      <trkpt lat="51.46132" lon="0.232244">
        <ele>5.696659</ele>
        <time>2024-08-10T20:19:02.000Z</time>
      </trkpt>
      <trkpt lat="51.461251" lon="0.232392">
        <ele>5.659916</ele>
        <time>2024-08-10T20:19:03.000Z</time>
      </trkpt>
      <trkpt lat="51.460687" lon="0.233728">
        <ele>5.353383</ele>
        <time>2024-08-10T20:19:14.000Z</time>
      </trkpt>
      <trkpt lat="51.460344" lon="0.235043">
        <ele>5.104904</ele>
        <time>2024-08-10T20:19:24.000Z</time>
      </trkpt>
      <trkpt lat="51.460315" lon="0.235216">
        <ele>5.073733</ele>
        <time>2024-08-10T20:19:25.000Z</time>
      </trkpt>
      <trkpt lat="51.460284" lon="0.235746">
        <ele>4.97248</ele>
        <time>2024-08-10T20:19:29.000Z</time>
      </trkpt>
      <trkpt lat="51.460276" lon="0.235743">
        <ele>4.97126</ele>
        <time>2024-08-10T20:19:29.000Z</time>
      </trkpt>
      <trkpt lat="51.460253" lon="0.236072">
        <ele>4.872783</ele>
        <time>2024-08-10T20:19:31.000Z</time>
      </trkpt>
      <trkpt lat="51.460256" lon="0.23759">
        <ele>4.409303</ele>
        <time>2024-08-10T20:19:42.000Z</time>
      </trkpt>
      <trkpt lat="51.460201" lon="0.238153">
        <ele>4.231164</ele>
        <time>2024-08-10T20:19:46.000Z</time>
      </trkpt>
      <trkpt lat="51.460105" lon="0.238641">
        <ele>4.110684</ele>
        <time>2024-08-10T20:19:50.000Z</time>
      </trkpt>
      <trkpt lat="51.460091" lon="0.238682">
        <ele>4.109096</ele>
        <time>2024-08-10T20:19:50.000Z</time>
      </trkpt>
      <trkpt lat="51.460042" lon="0.238856">
        <ele>4.104366</ele>
        <time>2024-08-10T20:19:51.000Z</time>
      </trkpt>
      <trkpt lat="51.459602" lon="0.240154">
        <ele>4.064185</ele>
        <time>2024-08-10T20:20:01.000Z</time>
      </trkpt>
      <trkpt lat="51.459315" lon="0.240736">
        <ele>4.044032</ele>
        <time>2024-08-10T20:20:06.000Z</time>
      </trkpt>
      <trkpt lat="51.45861" lon="0.241567">
        <ele>4.029746</ele>
        <time>2024-08-10T20:20:16.000Z</time>
      </trkpt>
      <trkpt lat="51.458555" lon="0.241612">
        <ele>4.029255</ele>
        <time>2024-08-10T20:20:17.000Z</time>
      </trkpt>
      <trkpt lat="51.458559" lon="0.241613">
        <ele>4.029238</ele>
        <time>2024-08-10T20:20:17.000Z</time>
      </trkpt>
      <trkpt lat="51.458551" lon="0.241617">
        <ele>4.029216</ele>
        <time>2024-08-10T20:20:17.000Z</time>
      </trkpt>
      <trkpt lat="51.458549" lon="0.241609">
        <ele>4.029195</ele>
        <time>2024-08-10T20:20:17.000Z</time>
      </trkpt>
      <trkpt lat="51.458559" lon="0.241619">
        <ele>4.029186</ele>
        <time>2024-08-10T20:20:17.000Z</time>
      </trkpt>
      <trkpt lat="51.458549" lon="0.241611">
        <ele>4.029161</ele>
        <time>2024-08-10T20:20:17.000Z</time>
      </trkpt>
      <trkpt lat="51.458558" lon="0.241618">
        <ele>4.029146</ele>
        <time>2024-08-10T20:20:17.000Z</time>
      </trkpt>
      <trkpt lat="51.458559" lon="0.241608">
        <ele>4.029125</ele>
        <time>2024-08-10T20:20:17.000Z</time>
      </trkpt>
      <trkpt lat="51.458556" lon="0.241617">
        <ele>4.029109</ele>
        <time>2024-08-10T20:20:17.000Z</time>
      </trkpt>
      <trkpt lat="51.45855" lon="0.241617">
        <ele>4.029099</ele>
        <time>2024-08-10T20:20:17.000Z</time>
      </trkpt>
      <trkpt lat="51.458555" lon="0.24161">
        <ele>4.029071</ele>
        <time>2024-08-10T20:20:17.000Z</time>
      </trkpt>
      <trkpt lat="51.458606" lon="0.241563">
        <ele>4.028588</ele>
        <time>2024-08-10T20:20:18.000Z</time>
      </trkpt>
      <trkpt lat="51.459297" lon="0.240729">
        <ele>4.020717</ele>
        <time>2024-08-10T20:20:28.000Z</time>
      </trkpt>
      <trkpt lat="51.459601" lon="0.24016">
        <ele>4.057249</ele>
        <time>2024-08-10T20:20:33.000Z</time>
      </trkpt>
      <trkpt lat="51.460048" lon="0.238841">
        <ele>4.155928</ele>
        <time>2024-08-10T20:20:43.000Z</time>
      </trkpt>
      <trkpt lat="51.4601" lon="0.238697">
        <ele>4.167532</ele>
        <time>2024-08-10T20:20:44.000Z</time>
      </trkpt>
      <trkpt lat="51.460106" lon="0.238636">
        <ele>4.171449</ele>
        <time>2024-08-10T20:20:44.000Z</time>
      </trkpt>
      <trkpt lat="51.460207" lon="0.23817">
        <ele>4.204468</ele>
        <time>2024-08-10T20:20:47.000Z</time>
      </trkpt>
      <trkpt lat="51.460263" lon="0.237591">
        <ele>4.366837</ele>
        <time>2024-08-10T20:20:51.000Z</time>
      </trkpt>
      <trkpt lat="51.46024" lon="0.236067">
        <ele>4.852926</ele>
        <time>2024-08-10T20:21:02.000Z</time>
      </trkpt>
      <trkpt lat="51.460282" lon="0.235748">
        <ele>4.956203</ele>
        <time>2024-08-10T20:21:04.000Z</time>
      </trkpt>
      <trkpt lat="51.46028" lon="0.235734">
        <ele>4.957472</ele>
        <time>2024-08-10T20:21:04.000Z</time>
      </trkpt>
      <trkpt lat="51.460315" lon="0.235213">
        <ele>5.125854</ele>
        <time>2024-08-10T20:21:08.000Z</time>
      </trkpt>
      <trkpt lat="51.460337" lon="0.235046">
        <ele>5.154598</ele>
        <time>2024-08-10T20:21:09.000Z</time>
      </trkpt>
      <trkpt lat="51.460673" lon="0.233732">
        <ele>5.346006</ele>
        <time>2024-08-10T20:21:19.000Z</time>
      </trkpt>
      <trkpt lat="51.461251" lon="0.232396">
        <ele>5.46205</ele>
        <time>2024-08-10T20:21:30.000Z</time>
      </trkpt>
      <trkpt lat="51.461313" lon="0.232255">
        <ele>5.426622</ele>
        <time>2024-08-10T20:21:31.000Z</time>
      </trkpt>
      <trkpt lat="51.461389" lon="0.232053">
        <ele>5.384669</ele>
        <time>2024-08-10T20:21:33.000Z</time>
      </trkpt>
      <trkpt lat="51.461424" lon="0.231952">
        <ele>5.361975</ele>
        <time>2024-08-10T20:21:34.000Z</time>
      </trkpt>
      <trkpt lat="51.461385" lon="0.231964">
        <ele>5.352846</ele>
        <time>2024-08-10T20:21:34.000Z</time>
      </trkpt>
      <trkpt lat="51.461398" lon="0.231966">
        <ele>5.352222</ele>
        <time>2024-08-10T20:21:34.000Z</time>
      </trkpt>
      <trkpt lat="51.46138" lon="0.23196">
        <ele>5.351602</ele>
        <time>2024-08-10T20:21:34.000Z</time>
      </trkpt>
      <trkpt lat="51.461395" lon="0.231959">
        <ele>5.351284</ele>
        <time>2024-08-10T20:21:34.000Z</time>
      </trkpt>
      <trkpt lat="51.461382" lon="0.231954">
        <ele>5.350653</ele>
        <time>2024-08-10T20:21:34.000Z</time>
      </trkpt>
      <trkpt lat="51.461388" lon="0.231951">
        <ele>5.350341</ele>
        <time>2024-08-10T20:21:34.000Z</time>
      </trkpt>
      <trkpt lat="51.461382" lon="0.23196">
        <ele>5.349708</ele>
        <time>2024-08-10T20:21:34.000Z</time>
      </trkpt>
      <trkpt lat="51.461341" lon="0.231951">
        <ele>5.33902</ele>
        <time>2024-08-10T20:21:34.000Z</time>
      </trkpt>
      <trkpt lat="51.460773" lon="0.231887">
        <ele>5.160232</ele>
        <time>2024-08-10T20:21:40.000Z</time>
      </trkpt>
      <trkpt lat="51.460707" lon="0.231902">
        <ele>5.134371</ele>
        <time>2024-08-10T20:21:41.000Z</time>
      </trkpt>
      <trkpt lat="51.46064" lon="0.231903">
        <ele>5.117021</ele>
        <time>2024-08-10T20:21:42.000Z</time>
      </trkpt>
      <trkpt lat="51.460572" lon="0.231917">
        <ele>5.093915</ele>
        <time>2024-08-10T20:21:43.000Z</time>
      </trkpt>
      <trkpt lat="51.460463" lon="0.231989">
        <ele>5.060935</ele>
        <time>2024-08-10T20:21:44.000Z</time>
      </trkpt>
      <trkpt lat="51.460447" lon="0.23205">
        <ele>5.04759</ele>
        <time>2024-08-10T20:21:44.000Z</time>
      </trkpt>
      <trkpt lat="51.460382" lon="0.23213">
        <ele>5.021215</ele>
        <time>2024-08-10T20:21:45.000Z</time>
      </trkpt>
      <trkpt lat="51.460338" lon="0.232143">
        <ele>5.007984</ele>
        <time>2024-08-10T20:21:45.000Z</time>
      </trkpt>
      <trkpt lat="51.460297" lon="0.232132">
        <ele>4.995346</ele>
        <time>2024-08-10T20:21:45.000Z</time>
      </trkpt>
      <trkpt lat="51.460304" lon="0.232141">
        <ele>4.994403</ele>
        <time>2024-08-10T20:21:45.000Z</time>
      </trkpt>
      <trkpt lat="51.460301" lon="0.23214">
        <ele>4.993437</ele>
        <time>2024-08-10T20:21:45.000Z</time>
      </trkpt>
      <trkpt lat="51.460297" lon="0.232136">
        <ele>4.993124</ele>
        <time>2024-08-10T20:21:45.000Z</time>
      </trkpt>
      <trkpt lat="51.460305" lon="0.232123">
        <ele>4.993119</ele>
        <time>2024-08-10T20:21:45.000Z</time>
      </trkpt>
      <trkpt lat="51.460295" lon="0.23214">
        <ele>4.992751</ele>
        <time>2024-08-10T20:21:45.000Z</time>
      </trkpt>
      <trkpt lat="51.460289" lon="0.232132">
        <ele>4.992379</ele>
        <time>2024-08-10T20:21:45.000Z</time>
      </trkpt>
      <trkpt lat="51.460288" lon="0.232132">
        <ele>4.991728</ele>
        <time>2024-08-10T20:21:45.000Z</time>
      </trkpt>
      <trkpt lat="51.460257" lon="0.232107">
        <ele>4.978375</ele>
        <time>2024-08-10T20:21:45.000Z</time>
      </trkpt>
      <trkpt lat="51.460226" lon="0.232055">
        <ele>4.963636</ele>
        <time>2024-08-10T20:21:45.000Z</time>
      </trkpt>
      <trkpt lat="51.460151" lon="0.23205">
        <ele>4.952908</ele>
        <time>2024-08-10T20:21:46.000Z</time>
      </trkpt>
      <trkpt lat="51.459809" lon="0.231974">
        <ele>4.920283</ele>
        <time>2024-08-10T20:21:50.000Z</time>
      </trkpt>
      <trkpt lat="51.459454" lon="0.231519">
        <ele>4.878459</ele>
        <time>2024-08-10T20:21:55.000Z</time>
      </trkpt>
      <trkpt lat="51.459165" lon="0.231332">
        <ele>4.849651</ele>
        <time>2024-08-10T20:21:58.000Z</time>
      </trkpt>
      <trkpt lat="51.459062" lon="0.23132">
        <ele>4.839334</ele>
        <time>2024-08-10T20:21:59.000Z</time>
      </trkpt>
      <trkpt lat="51.459016" lon="0.231361">
        <ele>4.834737</ele>
        <time>2024-08-10T20:22:00.000Z</time>
      </trkpt>
      <trkpt lat="51.458978" lon="0.2314">
        <ele>4.830219</ele>
        <time>2024-08-10T20:22:01.000Z</time>
      </trkpt>
      <trkpt lat="51.458757" lon="0.231584">
        <ele>4.80788</ele>
        <time>2024-08-10T20:22:04.000Z</time>
      </trkpt>
      <trkpt lat="51.458713" lon="0.231631">
        <ele>4.802523</ele>
        <time>2024-08-10T20:22:05.000Z</time>
      </trkpt>
      <trkpt lat="51.458718" lon="0.231642">
        <ele>4.802202</ele>
        <time>2024-08-10T20:22:05.000Z</time>
      </trkpt>
      <trkpt lat="51.458704" lon="0.23163">
        <ele>4.802086</ele>
        <time>2024-08-10T20:22:05.000Z</time>
      </trkpt>
      <trkpt lat="51.458716" lon="0.23163">
        <ele>4.801869</ele>
        <time>2024-08-10T20:22:05.000Z</time>
      </trkpt>
      <trkpt lat="51.458713" lon="0.231632">
        <ele>4.80166</ele>
        <time>2024-08-10T20:22:05.000Z</time>
      </trkpt>
      <trkpt lat="51.458702" lon="0.231634">
        <ele>4.801544</ele>
        <time>2024-08-10T20:22:05.000Z</time>
      </trkpt>
      <trkpt lat="51.458697" lon="0.231637">
        <ele>4.801331</ele>
        <time>2024-08-10T20:22:05.000Z</time>
      </trkpt>
      <trkpt lat="51.458709" lon="0.231653">
        <ele>4.801176</ele>
        <time>2024-08-10T20:22:05.000Z</time>
      </trkpt>
      <trkpt lat="51.458698" lon="0.231639">
        <ele>4.801175</ele>
        <time>2024-08-10T20:22:05.000Z</time>
      </trkpt>
      <trkpt lat="51.458696" lon="0.231649">
        <ele>4.80106</ele>
        <time>2024-08-10T20:22:05.000Z</time>
      </trkpt>
      <trkpt lat="51.458692" lon="0.231643">
        <ele>4.800868</ele>
        <time>2024-08-10T20:22:05.000Z</time>
      </trkpt>
      <trkpt lat="51.458698" lon="0.231649">
        <ele>4.800728</ele>
        <time>2024-08-10T20:22:05.000Z</time>
      </trkpt>
      <trkpt lat="51.458698" lon="0.231651">
        <ele>4.800502</ele>
        <time>2024-08-10T20:22:05.000Z</time>
      </trkpt>
      <trkpt lat="51.4587" lon="0.23165">
        <ele>4.800344</ele>
        <time>2024-08-10T20:22:05.000Z</time>
      </trkpt>
      <trkpt lat="51.458188" lon="0.232572">
        <ele>5.185744</ele>
        <time>2024-08-10T20:22:14.000Z</time>
      </trkpt>
      <trkpt lat="51.458183" lon="0.232578">
        <ele>5.189603</ele>
        <time>2024-08-10T20:22:14.000Z</time>
      </trkpt>
      <trkpt lat="51.458171" lon="0.23258">
        <ele>5.191831</ele>
        <time>2024-08-10T20:22:14.000Z</time>
      </trkpt>
      <trkpt lat="51.458186" lon="0.232587">
        <ele>5.192581</ele>
        <time>2024-08-10T20:22:14.000Z</time>
      </trkpt>
      <trkpt lat="51.458174" lon="0.232598">
        <ele>5.193297</ele>
        <time>2024-08-10T20:22:14.000Z</time>
      </trkpt>
      <trkpt lat="51.458177" lon="0.232594">
        <ele>5.194579</ele>
        <time>2024-08-10T20:22:14.000Z</time>
      </trkpt>
      <trkpt lat="51.45817" lon="0.232582">
        <ele>5.195287</ele>
        <time>2024-08-10T20:22:14.000Z</time>
      </trkpt>
      <trkpt lat="51.458187" lon="0.23259">
        <ele>5.196005</ele>
        <time>2024-08-10T20:22:14.000Z</time>
      </trkpt>
      <trkpt lat="51.45818" lon="0.2326">
        <ele>5.19676</ele>
        <time>2024-08-10T20:22:14.000Z</time>
      </trkpt>
      <trkpt lat="51.458181" lon="0.232594">
        <ele>5.197729</ele>
        <time>2024-08-10T20:22:14.000Z</time>
      </trkpt>
      <trkpt lat="51.458179" lon="0.232601">
        <ele>5.198691</ele>
        <time>2024-08-10T20:22:14.000Z</time>
      </trkpt>
      <trkpt lat="51.458181" lon="0.232606">
        <ele>5.199666</ele>
        <time>2024-08-10T20:22:14.000Z</time>
      </trkpt>
      <trkpt lat="51.458184" lon="0.232594">
        <ele>5.200406</ele>
        <time>2024-08-10T20:22:14.000Z</time>
      </trkpt>
      <trkpt lat="51.458165" lon="0.232599">
        <ele>5.201381</ele>
        <time>2024-08-10T20:22:14.000Z</time>
      </trkpt>
      <trkpt lat="51.45818" lon="0.232598">
        <ele>5.202334</ele>
        <time>2024-08-10T20:22:14.000Z</time>
      </trkpt>
      <trkpt lat="51.458181" lon="0.232599">
        <ele>5.203312</ele>
        <time>2024-08-10T20:22:14.000Z</time>
      </trkpt>
      <trkpt lat="51.45779" lon="0.233625">
        <ele>5.650112</ele>
        <time>2024-08-10T20:22:22.000Z</time>
      </trkpt>
      <trkpt lat="51.457481" lon="0.234605">
        <ele>6.078301</ele>
        <time>2024-08-10T20:22:30.000Z</time>
      </trkpt>
      <trkpt lat="51.457478" lon="0.234606">
        <ele>6.078706</ele>
        <time>2024-08-10T20:22:30.000Z</time>
      </trkpt>
      <trkpt lat="51.457477" lon="0.234617">
        <ele>6.079462</ele>
        <time>2024-08-10T20:22:30.000Z</time>
      </trkpt>
      <trkpt lat="51.457466" lon="0.234623">
        <ele>6.08024</ele>
        <time>2024-08-10T20:22:30.000Z</time>
      </trkpt>
      <trkpt lat="51.457477" lon="0.234613">
        <ele>6.081033</ele>
        <time>2024-08-10T20:22:30.000Z</time>
      </trkpt>
      <trkpt lat="51.45748" lon="0.234612">
        <ele>6.081779</ele>
        <time>2024-08-10T20:22:30.000Z</time>
      </trkpt>
      <trkpt lat="51.457478" lon="0.234623">
        <ele>6.082582</ele>
        <time>2024-08-10T20:22:30.000Z</time>
      </trkpt>
      <trkpt lat="51.457469" lon="0.234617">
        <ele>6.083933</ele>
        <time>2024-08-10T20:22:30.000Z</time>
      </trkpt>
      <trkpt lat="51.457463" lon="0.234633">
        <ele>6.084715</ele>
        <time>2024-08-10T20:22:30.000Z</time>
      </trkpt>
      <trkpt lat="51.457477" lon="0.234632">
        <ele>6.085462</ele>
        <time>2024-08-10T20:22:30.000Z</time>
      </trkpt>
      <trkpt lat="51.457473" lon="0.234636">
        <ele>6.086654</ele>
        <time>2024-08-10T20:22:30.000Z</time>
      </trkpt>
      <trkpt lat="51.457468" lon="0.234627">
        <ele>6.087411</ele>
        <time>2024-08-10T20:22:30.000Z</time>
      </trkpt>
      <trkpt lat="51.457469" lon="0.234629">
        <ele>6.088602</ele>
        <time>2024-08-10T20:22:30.000Z</time>
      </trkpt>
      <trkpt lat="51.457466" lon="0.234632">
        <ele>6.090677</ele>
        <time>2024-08-10T20:22:30.000Z</time>
      </trkpt>
      <trkpt lat="51.456907" lon="0.236939">
        <ele>7.084156</ele>
        <time>2024-08-10T20:22:47.000Z</time>
      </trkpt>
      <trkpt lat="51.45691" lon="0.236968">
        <ele>7.101066</ele>
        <time>2024-08-10T20:22:47.000Z</time>
      </trkpt>
      <trkpt lat="51.456909" lon="0.236963">
        <ele>7.102838</ele>
        <time>2024-08-10T20:22:47.000Z</time>
      </trkpt>
      <trkpt lat="51.456902" lon="0.236965">
        <ele>7.104176</ele>
        <time>2024-08-10T20:22:47.000Z</time>
      </trkpt>
      <trkpt lat="51.456909" lon="0.236969">
        <ele>7.105238</ele>
        <time>2024-08-10T20:22:47.000Z</time>
      </trkpt>
      <trkpt lat="51.456911" lon="0.236972">
        <ele>7.106566</ele>
        <time>2024-08-10T20:22:47.000Z</time>
      </trkpt>
      <trkpt lat="51.456892" lon="0.236976">
        <ele>7.107919</ele>
        <time>2024-08-10T20:22:47.000Z</time>
      </trkpt>
      <trkpt lat="51.456899" lon="0.236987">
        <ele>7.110168</ele>
        <time>2024-08-10T20:22:47.000Z</time>
      </trkpt>
      <trkpt lat="51.456897" lon="0.236977">
        <ele>7.11116</ele>
        <time>2024-08-10T20:22:47.000Z</time>
      </trkpt>
      <trkpt lat="51.456907" lon="0.236983">
        <ele>7.112216</ele>
        <time>2024-08-10T20:22:47.000Z</time>
      </trkpt>
      <trkpt lat="51.456898" lon="0.23699">
        <ele>7.113564</ele>
        <time>2024-08-10T20:22:47.000Z</time>
      </trkpt>
      <trkpt lat="51.456559" lon="0.237953">
        <ele>7.69018</ele>
        <time>2024-08-10T20:22:55.000Z</time>
      </trkpt>
      <trkpt lat="51.456536" lon="0.237963">
        <ele>7.706708</ele>
        <time>2024-08-10T20:22:55.000Z</time>
      </trkpt>
      <trkpt lat="51.456535" lon="0.237975">
        <ele>7.709815</ele>
        <time>2024-08-10T20:22:55.000Z</time>
      </trkpt>
      <trkpt lat="51.456535" lon="0.23797">
        <ele>7.710798</ele>
        <time>2024-08-10T20:22:55.000Z</time>
      </trkpt>
      <trkpt lat="51.456541" lon="0.23798">
        <ele>7.712583</ele>
        <time>2024-08-10T20:22:55.000Z</time>
      </trkpt>
      <trkpt lat="51.456542" lon="0.237981">
        <ele>7.713939</ele>
        <time>2024-08-10T20:22:55.000Z</time>
      </trkpt>
      <trkpt lat="51.456543" lon="0.237985">
        <ele>7.71591</ele>
        <time>2024-08-10T20:22:55.000Z</time>
      </trkpt>
      <trkpt lat="51.456529" lon="0.237988">
        <ele>7.717258</ele>
        <time>2024-08-10T20:22:55.000Z</time>
      </trkpt>
      <trkpt lat="51.456531" lon="0.237996">
        <ele>7.719035</ele>
        <time>2024-08-10T20:22:55.000Z</time>
      </trkpt>
      <trkpt lat="51.456536" lon="0.237986">
        <ele>7.721718</ele>
        <time>2024-08-10T20:22:55.000Z</time>
      </trkpt>
      <trkpt lat="51.456541" lon="0.237991">
        <ele>7.723502</ele>
        <time>2024-08-10T20:22:55.000Z</time>
      </trkpt>
      <trkpt lat="51.456537" lon="0.237996">
        <ele>7.724501</ele>
        <time>2024-08-10T20:22:55.000Z</time>
      </trkpt>
      <trkpt lat="51.456532" lon="0.238001">
        <ele>7.725842</ele>
        <time>2024-08-10T20:22:55.000Z</time>
      </trkpt>
      <trkpt lat="51.456535" lon="0.237997">
        <ele>7.727622</ele>
        <time>2024-08-10T20:22:55.000Z</time>
      </trkpt>
      <trkpt lat="51.456084" lon="0.238927">
        <ele>8.340032</ele>
        <time>2024-08-10T20:23:03.000Z</time>
      </trkpt>
      <trkpt lat="51.455858" lon="0.239292">
        <ele>8.573846</ele>
        <time>2024-08-10T20:23:07.000Z</time>
      </trkpt>
      <trkpt lat="51.455859" lon="0.239305">
        <ele>8.575001</ele>
        <time>2024-08-10T20:23:07.000Z</time>
      </trkpt>
      <trkpt lat="51.455856" lon="0.239301">
        <ele>8.575992</ele>
        <time>2024-08-10T20:23:07.000Z</time>
      </trkpt>
      <trkpt lat="51.455842" lon="0.239313">
        <ele>8.576907</ele>
        <time>2024-08-10T20:23:07.000Z</time>
      </trkpt>
      <trkpt lat="51.455859" lon="0.239303">
        <ele>8.577397</ele>
        <time>2024-08-10T20:23:07.000Z</time>
      </trkpt>
      <trkpt lat="51.455849" lon="0.239301">
        <ele>8.577891</ele>
        <time>2024-08-10T20:23:07.000Z</time>
      </trkpt>
      <trkpt lat="51.455844" lon="0.239313">
        <ele>8.578584</ele>
        <time>2024-08-10T20:23:07.000Z</time>
      </trkpt>
      <trkpt lat="51.455841" lon="0.239317">
        <ele>8.57925</ele>
        <time>2024-08-10T20:23:07.000Z</time>
      </trkpt>
      <trkpt lat="51.455851" lon="0.23932">
        <ele>8.579748</ele>
        <time>2024-08-10T20:23:07.000Z</time>
      </trkpt>
      <trkpt lat="51.455847" lon="0.239316">
        <ele>8.58043</ele>
        <time>2024-08-10T20:23:07.000Z</time>
      </trkpt>
      <trkpt lat="51.455761" lon="0.239446">
        <ele>8.625904</ele>
        <time>2024-08-10T20:23:08.000Z</time>
      </trkpt>
      <trkpt lat="51.45512" lon="0.240235">
        <ele>8.971971</ele>
        <time>2024-08-10T20:23:17.000Z</time>
      </trkpt>
      <trkpt lat="51.455116" lon="0.240248">
        <ele>8.973629</ele>
        <time>2024-08-10T20:23:17.000Z</time>
      </trkpt>
      <trkpt lat="51.455115" lon="0.24025">
        <ele>8.974116</ele>
        <time>2024-08-10T20:23:17.000Z</time>
      </trkpt>
      <trkpt lat="51.455118" lon="0.240249">
        <ele>8.974627</ele>
        <time>2024-08-10T20:23:17.000Z</time>
      </trkpt>
      <trkpt lat="51.455118" lon="0.240238">
        <ele>8.975122</ele>
        <time>2024-08-10T20:23:17.000Z</time>
      </trkpt>
      <trkpt lat="51.45512" lon="0.240238">
        <ele>8.975619</ele>
        <time>2024-08-10T20:23:17.000Z</time>
      </trkpt>
      <trkpt lat="51.45512" lon="0.240249">
        <ele>8.976127</ele>
        <time>2024-08-10T20:23:17.000Z</time>
      </trkpt>
      <trkpt lat="51.455107" lon="0.240244">
        <ele>8.977287</ele>
        <time>2024-08-10T20:23:17.000Z</time>
      </trkpt>
      <trkpt lat="51.455116" lon="0.240257">
        <ele>8.977781</ele>
        <time>2024-08-10T20:23:17.000Z</time>
      </trkpt>
      <trkpt lat="51.455108" lon="0.240249">
        <ele>8.978455</ele>
        <time>2024-08-10T20:23:17.000Z</time>
      </trkpt>
      <trkpt lat="51.4551" lon="0.240259">
        <ele>8.979467</ele>
        <time>2024-08-10T20:23:17.000Z</time>
      </trkpt>
      <trkpt lat="51.455114" lon="0.24025">
        <ele>8.980622</ele>
        <time>2024-08-10T20:23:17.000Z</time>
      </trkpt>
      <trkpt lat="51.455097" lon="0.240261">
        <ele>8.981627</ele>
        <time>2024-08-10T20:23:17.000Z</time>
      </trkpt>
      <trkpt lat="51.455111" lon="0.240253">
        <ele>8.982126</ele>
        <time>2024-08-10T20:23:17.000Z</time>
      </trkpt>
      <trkpt lat="51.455072" lon="0.240279">
        <ele>8.994361</ele>
        <time>2024-08-10T20:23:17.000Z</time>
      </trkpt>
      <trkpt lat="51.454678" lon="0.240612">
        <ele>9.183353</ele>
        <time>2024-08-10T20:23:22.000Z</time>
      </trkpt>
      <trkpt lat="51.454613" lon="0.240693">
        <ele>9.220733</ele>
        <time>2024-08-10T20:23:23.000Z</time>
      </trkpt>
      <trkpt lat="51.454612" lon="0.24069">
        <ele>9.221626</ele>
        <time>2024-08-10T20:23:23.000Z</time>
      </trkpt>
      <trkpt lat="51.45461" lon="0.240694">
        <ele>9.222634</ele>
        <time>2024-08-10T20:23:23.000Z</time>
      </trkpt>
      <trkpt lat="51.454594" lon="0.240684">
        <ele>9.223125</ele>
        <time>2024-08-10T20:23:23.000Z</time>
      </trkpt>
      <trkpt lat="51.454599" lon="0.240685">
        <ele>9.224129</ele>
        <time>2024-08-10T20:23:23.000Z</time>
      </trkpt>
      <trkpt lat="51.454602" lon="0.240698">
        <ele>9.225026</ele>
        <time>2024-08-10T20:23:23.000Z</time>
      </trkpt>
      <trkpt lat="51.454597" lon="0.240687">
        <ele>9.225515</ele>
        <time>2024-08-10T20:23:23.000Z</time>
      </trkpt>
      <trkpt lat="51.454599" lon="0.240701">
        <ele>9.227021</ele>
        <time>2024-08-10T20:23:23.000Z</time>
      </trkpt>
      <trkpt lat="51.4546" lon="0.240704">
        <ele>9.227007</ele>
        <time>2024-08-10T20:23:23.000Z</time>
      </trkpt>
      <trkpt lat="51.454593" lon="0.240704">
        <ele>9.227012</ele>
        <time>2024-08-10T20:23:23.000Z</time>
      </trkpt>
      <trkpt lat="51.455116" lon="0.240237">
        <ele>9.056794</ele>
        <time>2024-08-10T20:23:30.000Z</time>
      </trkpt>
      <trkpt lat="51.455129" lon="0.24023">
        <ele>9.056806</ele>
        <time>2024-08-10T20:23:30.000Z</time>
      </trkpt>
      <trkpt lat="51.455482" lon="0.239764">
        <ele>8.803648</ele>
        <time>2024-08-10T20:23:35.000Z</time>
      </trkpt>
      <trkpt lat="51.455844" lon="0.239305">
        <ele>8.550508</ele>
        <time>2024-08-10T20:23:40.000Z</time>
      </trkpt>
      <trkpt lat="51.455858" lon="0.239313">
        <ele>8.5505</ele>
        <time>2024-08-10T20:23:40.000Z</time>
      </trkpt>
      <trkpt lat="51.456196" lon="0.238635">
        <ele>8.233889</ele>
        <time>2024-08-10T20:23:46.000Z</time>
      </trkpt>
      <trkpt lat="51.456534" lon="0.237974">
        <ele>7.83183</ele>
        <time>2024-08-10T20:23:52.000Z</time>
      </trkpt>
      <trkpt lat="51.456546" lon="0.237982">
        <ele>7.831831</ele>
        <time>2024-08-10T20:23:52.000Z</time>
      </trkpt>
      <trkpt lat="51.456901" lon="0.236975">
        <ele>7.294843</ele>
        <time>2024-08-10T20:24:00.000Z</time>
      </trkpt>
      <trkpt lat="51.456897" lon="0.236979">
        <ele>7.294838</ele>
        <time>2024-08-10T20:24:00.000Z</time>
      </trkpt>
      <trkpt lat="51.457192" lon="0.235814">
        <ele>6.722608</ele>
        <time>2024-08-10T20:24:09.000Z</time>
      </trkpt>
      <trkpt lat="51.457461" lon="0.234634">
        <ele>6.159647</ele>
        <time>2024-08-10T20:24:18.000Z</time>
      </trkpt>
      <trkpt lat="51.457475" lon="0.234629">
        <ele>6.15964</ele>
        <time>2024-08-10T20:24:18.000Z</time>
      </trkpt>
      <trkpt lat="51.457831" lon="0.233615">
        <ele>5.655578</ele>
        <time>2024-08-10T20:24:26.000Z</time>
      </trkpt>
      <trkpt lat="51.458187" lon="0.232587">
        <ele>5.394706</ele>
        <time>2024-08-10T20:24:34.000Z</time>
      </trkpt>
      <trkpt lat="51.458181" lon="0.232591">
        <ele>5.394706</ele>
        <time>2024-08-10T20:24:34.000Z</time>
      </trkpt>
      <trkpt lat="51.458701" lon="0.231635">
        <ele>5.112492</ele>
        <time>2024-08-10T20:24:43.000Z</time>
      </trkpt>
      <trkpt lat="51.458712" lon="0.23164">
        <ele>5.112495</ele>
        <time>2024-08-10T20:24:43.000Z</time>
      </trkpt>
      <trkpt lat="51.458712" lon="0.231645">
        <ele>5.112499</ele>
        <time>2024-08-10T20:24:43.000Z</time>
      </trkpt>
      <trkpt lat="51.459101" lon="0.231219">
        <ele>5.145797</ele>
        <time>2024-08-10T20:24:48.000Z</time>
      </trkpt>
      <trkpt lat="51.45911" lon="0.231216">
        <ele>5.145787</ele>
        <time>2024-08-10T20:24:48.000Z</time>
      </trkpt>
      <trkpt lat="51.459108" lon="0.231215">
        <ele>5.145796</ele>
        <time>2024-08-10T20:24:48.000Z</time>
      </trkpt>
      <trkpt lat="51.459157" lon="0.230623">
        <ele>5.292717</ele>
        <time>2024-08-10T20:24:52.000Z</time>
      </trkpt>
      <trkpt lat="51.459153" lon="0.230626">
        <ele>5.292717</ele>
        <time>2024-08-10T20:24:52.000Z</time>
      </trkpt>
      <trkpt lat="51.459147" lon="0.230622">
        <ele>5.292719</ele>
        <time>2024-08-10T20:24:52.000Z</time>
      </trkpt>
      <trkpt lat="51.459269" lon="0.229842">
        <ele>5.48997</ele>
        <time>2024-08-10T20:24:58.000Z</time>
      </trkpt>
      <trkpt lat="51.459401" lon="0.229071">
        <ele>5.687241</ele>
        <time>2024-08-10T20:25:04.000Z</time>
      </trkpt>
      <trkpt lat="51.459395" lon="0.229077">
        <ele>5.687235</ele>
        <time>2024-08-10T20:25:04.000Z</time>
      </trkpt>
      <trkpt lat="51.4594" lon="0.229075">
        <ele>5.687246</ele>
        <time>2024-08-10T20:25:04.000Z</time>
      </trkpt>
      <trkpt lat="51.459454" lon="0.228184">
        <ele>5.89236</ele>
        <time>2024-08-10T20:25:10.000Z</time>
      </trkpt>
      <trkpt lat="51.45949" lon="0.227275">
        <ele>6.090721</ele>
        <time>2024-08-10T20:25:16.000Z</time>
      </trkpt>
      <trkpt lat="51.459499" lon="0.22728">
        <ele>6.090721</ele>
        <time>2024-08-10T20:25:16.000Z</time>
      </trkpt>
      <trkpt lat="51.459481" lon="0.226099">
        <ele>6.35225</ele>
        <time>2024-08-10T20:25:24.000Z</time>
      </trkpt>
      <trkpt lat="51.459462" lon="0.224912">
        <ele>6.420654</ele>
        <time>2024-08-10T20:25:32.000Z</time>
      </trkpt>
      <trkpt lat="51.459442" lon="0.223716">
        <ele>6.460266</ele>
        <time>2024-08-10T20:25:40.000Z</time>
      </trkpt>
      <trkpt lat="51.459445" lon="0.223724">
        <ele>6.460253</ele>
        <time>2024-08-10T20:25:40.000Z</time>
      </trkpt>
      <trkpt lat="51.459398" lon="0.222646">
        <ele>6.472064</ele>
        <time>2024-08-10T20:25:47.000Z</time>
      </trkpt>
      <trkpt lat="51.459341" lon="0.221591">
        <ele>6.444565</ele>
        <time>2024-08-10T20:25:54.000Z</time>
      </trkpt>
      <trkpt lat="51.459301" lon="0.220515">
        <ele>6.41707</ele>
        <time>2024-08-10T20:26:01.000Z</time>
      </trkpt>
      <trkpt lat="51.459304" lon="0.220534">
        <ele>6.416992</ele>
        <time>2024-08-10T20:26:01.000Z</time>
      </trkpt>
      <trkpt lat="51.459301" lon="0.220522">
        <ele>6.416936</ele>
        <time>2024-08-10T20:26:01.000Z</time>
      </trkpt>
      <trkpt lat="51.459293" lon="0.220527">
        <ele>6.416877</ele>
        <time>2024-08-10T20:26:01.000Z</time>
      </trkpt>
      <trkpt lat="51.459301" lon="0.220533">
        <ele>6.416756</ele>
        <time>2024-08-10T20:26:01.000Z</time>
      </trkpt>
      <trkpt lat="51.459301" lon="0.220534">
        <ele>6.416642</ele>
        <time>2024-08-10T20:26:01.000Z</time>
      </trkpt>
      <trkpt lat="51.459293" lon="0.220532">
        <ele>6.41656</ele>
        <time>2024-08-10T20:26:01.000Z</time>
      </trkpt>
      <trkpt lat="51.459311" lon="0.221225">
        <ele>6.419296</ele>
        <time>2024-08-10T20:26:06.000Z</time>
      </trkpt>
      <trkpt lat="51.459441" lon="0.223719">
        <ele>6.495669</ele>
        <time>2024-08-10T20:26:23.000Z</time>
      </trkpt>
      <trkpt lat="51.459488" lon="0.227301">
        <ele>6.326717</ele>
        <time>2024-08-10T20:26:48.000Z</time>
      </trkpt>
      <trkpt lat="51.45947" lon="0.228232">
        <ele>6.02235</ele>
        <time>2024-08-10T20:26:54.000Z</time>
      </trkpt>
      <trkpt lat="51.459364" lon="0.229408">
        <ele>5.633162</ele>
        <time>2024-08-10T20:27:02.000Z</time>
      </trkpt>
      <trkpt lat="51.459299" lon="0.229781">
        <ele>5.527081</ele>
        <time>2024-08-10T20:27:05.000Z</time>
      </trkpt>
      <trkpt lat="51.459171" lon="0.230438">
        <ele>5.348709</ele>
        <time>2024-08-10T20:27:10.000Z</time>
      </trkpt>
      <trkpt lat="51.459132" lon="0.230718">
        <ele>5.275679</ele>
        <time>2024-08-10T20:27:12.000Z</time>
      </trkpt>
      <trkpt lat="51.459127" lon="0.230978">
        <ele>5.209167</ele>
        <time>2024-08-10T20:27:14.000Z</time>
      </trkpt>
      <trkpt lat="51.459138" lon="0.231013">
        <ele>5.199988</ele>
        <time>2024-08-10T20:27:14.000Z</time>
      </trkpt>
      <trkpt lat="51.459213" lon="0.231127">
        <ele>5.153865</ele>
        <time>2024-08-10T20:27:15.000Z</time>
      </trkpt>
      <trkpt lat="51.459472" lon="0.231343">
        <ele>5.032799</ele>
        <time>2024-08-10T20:27:18.000Z</time>
      </trkpt>
      <trkpt lat="51.459797" lon="0.231793">
        <ele>4.858631</ele>
        <time>2024-08-10T20:27:23.000Z</time>
      </trkpt>
      <trkpt lat="51.460016" lon="0.231918">
        <ele>4.943802</ele>
        <time>2024-08-10T20:27:26.000Z</time>
      </trkpt>
      <trkpt lat="51.46013" lon="0.231894">
        <ele>4.989369</ele>
        <time>2024-08-10T20:27:27.000Z</time>
      </trkpt>
      <trkpt lat="51.460195" lon="0.231817">
        <ele>5.020579</ele>
        <time>2024-08-10T20:27:28.000Z</time>
      </trkpt>
      <trkpt lat="51.460212" lon="0.231747">
        <ele>5.039433</ele>
        <time>2024-08-10T20:27:29.000Z</time>
      </trkpt>
      <trkpt lat="51.460252" lon="0.2317">
        <ele>5.058445</ele>
        <time>2024-08-10T20:27:30.000Z</time>
      </trkpt>
      <trkpt lat="51.460305" lon="0.231665">
        <ele>5.082817</ele>
        <time>2024-08-10T20:27:31.000Z</time>
      </trkpt>
      <trkpt lat="51.460369" lon="0.23167">
        <ele>5.106628</ele>
        <time>2024-08-10T20:27:32.000Z</time>
      </trkpt>
      <trkpt lat="51.460425" lon="0.231703">
        <ele>5.125509</ele>
        <time>2024-08-10T20:27:33.000Z</time>
      </trkpt>
      <trkpt lat="51.460458" lon="0.231765">
        <ele>5.144092</ele>
        <time>2024-08-10T20:27:34.000Z</time>
      </trkpt>
      <trkpt lat="51.460558" lon="0.231801">
        <ele>5.184902</ele>
        <time>2024-08-10T20:27:35.000Z</time>
      </trkpt>
      <trkpt lat="51.460646" lon="0.231857">
        <ele>5.227952</ele>
        <time>2024-08-10T20:27:36.000Z</time>
      </trkpt>
      <trkpt lat="51.460779" lon="0.231896">
        <ele>5.278406</ele>
        <time>2024-08-10T20:27:38.000Z</time>
      </trkpt>
      <trkpt lat="51.46134" lon="0.231955">
        <ele>5.503496</ele>
        <time>2024-08-10T20:27:44.000Z</time>
      </trkpt>
      <trkpt lat="51.461416" lon="0.231959">
        <ele>5.532414</ele>
        <time>2024-08-10T20:27:45.000Z</time>
      </trkpt>
      <trkpt lat="51.461463" lon="0.23182">
        <ele>5.569231</ele>
        <time>2024-08-10T20:27:46.000Z</time>
      </trkpt>
      <trkpt lat="51.461516" lon="0.231598">
        <ele>5.675222</ele>
        <time>2024-08-10T20:27:48.000Z</time>
      </trkpt>
      <trkpt lat="51.461572" lon="0.23135">
        <ele>5.785404</ele>
        <time>2024-08-10T20:27:50.000Z</time>
      </trkpt>
      <trkpt lat="51.461603" lon="0.231138">
        <ele>5.874086</ele>
        <time>2024-08-10T20:27:52.000Z</time>
      </trkpt>
      <trkpt lat="51.461666" lon="0.23051">
        <ele>6.141441</ele>
        <time>2024-08-10T20:27:56.000Z</time>
      </trkpt>
      <trkpt lat="51.461862" lon="0.226912">
        <ele>7.493948</ele>
        <time>2024-08-10T20:28:21.000Z</time>
      </trkpt>
      <trkpt lat="51.461867" lon="0.226723">
        <ele>7.556594</ele>
        <time>2024-08-10T20:28:22.000Z</time>
      </trkpt>
      <trkpt lat="51.46185" lon="0.22637">
        <ele>7.681937</ele>
        <time>2024-08-10T20:28:24.000Z</time>
      </trkpt>
      <trkpt lat="51.461825" lon="0.226202">
        <ele>7.736763</ele>
        <time>2024-08-10T20:28:25.000Z</time>
      </trkpt>
      <trkpt lat="51.460967" lon="0.224093">
        <ele>7.674227</ele>
        <time>2024-08-10T20:28:42.000Z</time>
      </trkpt>
      <trkpt lat="51.460788" lon="0.223761">
        <ele>7.65823</ele>
        <time>2024-08-10T20:28:45.000Z</time>
      </trkpt>
      <trkpt lat="51.460524" lon="0.223439">
        <ele>7.68257</ele>
        <time>2024-08-10T20:28:49.000Z</time>
      </trkpt>
      <trkpt lat="51.460505" lon="0.223414">
        <ele>7.685035</ele>
        <time>2024-08-10T20:28:49.000Z</time>
      </trkpt>
      <trkpt lat="51.4605" lon="0.223407">
        <ele>7.685821</ele>
        <time>2024-08-10T20:28:49.000Z</time>
      </trkpt>
      <trkpt lat="51.460503" lon="0.223407">
        <ele>7.685822</ele>
        <time>2024-08-10T20:28:49.000Z</time>
      </trkpt>
      <trkpt lat="51.46049" lon="0.223409">
        <ele>7.685806</ele>
        <time>2024-08-10T20:28:49.000Z</time>
      </trkpt>
      <trkpt lat="51.460513" lon="0.223408">
        <ele>7.686596</ele>
        <time>2024-08-10T20:28:49.000Z</time>
      </trkpt>
      <trkpt lat="51.460541" lon="0.223437">
        <ele>7.689048</ele>
        <time>2024-08-10T20:28:49.000Z</time>
      </trkpt>
      <trkpt lat="51.460793" lon="0.223751">
        <ele>7.714309</ele>
        <time>2024-08-10T20:28:53.000Z</time>
      </trkpt>
      <trkpt lat="51.460968" lon="0.22408">
        <ele>7.735045</ele>
        <time>2024-08-10T20:28:56.000Z</time>
      </trkpt>
      <trkpt lat="51.461829" lon="0.226207">
        <ele>7.560663</ele>
        <time>2024-08-10T20:29:14.000Z</time>
      </trkpt>
      <trkpt lat="51.461845" lon="0.226364">
        <ele>7.53093</ele>
        <time>2024-08-10T20:29:15.000Z</time>
      </trkpt>
      <trkpt lat="51.461862" lon="0.226721">
        <ele>7.463014</ele>
        <time>2024-08-10T20:29:17.000Z</time>
      </trkpt>
      <trkpt lat="51.461847" lon="0.226905">
        <ele>7.429067</ele>
        <time>2024-08-10T20:29:18.000Z</time>
      </trkpt>
      <trkpt lat="51.461669" lon="0.230504">
        <ele>6.078572</ele>
        <time>2024-08-10T20:29:43.000Z</time>
      </trkpt>
      <trkpt lat="51.461608" lon="0.231144">
        <ele>5.909899</ele>
        <time>2024-08-10T20:29:47.000Z</time>
      </trkpt>
      <trkpt lat="51.461573" lon="0.231348">
        <ele>5.87205</ele>
        <time>2024-08-10T20:29:48.000Z</time>
      </trkpt>
      <trkpt lat="51.461524" lon="0.231586">
        <ele>5.825021</ele>
        <time>2024-08-10T20:29:50.000Z</time>
      </trkpt>
      <trkpt lat="51.461457" lon="0.231835">
        <ele>5.77978</ele>
        <time>2024-08-10T20:29:52.000Z</time>
      </trkpt>
      <trkpt lat="51.461415" lon="0.23195">
        <ele>5.754175</ele>
        <time>2024-08-10T20:29:53.000Z</time>
      </trkpt>
      <trkpt lat="51.461384" lon="0.232066">
        <ele>5.733605</ele>
        <time>2024-08-10T20:29:54.000Z</time>
      </trkpt>
      <trkpt lat="51.461323" lon="0.232245">
        <ele>5.695629</ele>
        <time>2024-08-10T20:29:55.000Z</time>
      </trkpt>
      <trkpt lat="51.461266" lon="0.232409">
        <ele>5.663535</ele>
        <time>2024-08-10T20:29:56.000Z</time>
      </trkpt>
      <trkpt lat="51.46067" lon="0.233724">
        <ele>5.364777</ele>
        <time>2024-08-10T20:30:07.000Z</time>
      </trkpt>
      <trkpt lat="51.460342" lon="0.235033">
        <ele>5.086153</ele>
        <time>2024-08-10T20:30:17.000Z</time>
      </trkpt>
      <trkpt lat="51.460316" lon="0.235225">
        <ele>5.051187</ele>
        <time>2024-08-10T20:30:18.000Z</time>
      </trkpt>
      <trkpt lat="51.460281" lon="0.235746">
        <ele>4.947915</ele>
        <time>2024-08-10T20:30:22.000Z</time>
      </trkpt>
      <trkpt lat="51.460285" lon="0.235745">
        <ele>4.947139</ele>
        <time>2024-08-10T20:30:22.000Z</time>
      </trkpt>
      <trkpt lat="51.460246" lon="0.236062">
        <ele>4.872061</ele>
        <time>2024-08-10T20:30:24.000Z</time>
      </trkpt>
      <trkpt lat="51.460262" lon="0.237582">
        <ele>4.432107</ele>
        <time>2024-08-10T20:30:35.000Z</time>
      </trkpt>
      <trkpt lat="51.460215" lon="0.238154">
        <ele>4.26302</ele>
        <time>2024-08-10T20:30:39.000Z</time>
      </trkpt>
      <trkpt lat="51.460119" lon="0.238632">
        <ele>4.118638</ele>
        <time>2024-08-10T20:30:42.000Z</time>
      </trkpt>
      <trkpt lat="51.460095" lon="0.238691">
        <ele>4.101512</ele>
        <time>2024-08-10T20:30:42.000Z</time>
      </trkpt>
      <trkpt lat="51.460046" lon="0.238849">
        <ele>4.072181</ele>
        <time>2024-08-10T20:30:43.000Z</time>
      </trkpt>
      <trkpt lat="51.459598" lon="0.240156">
        <ele>4.056863</ele>
        <time>2024-08-10T20:30:53.000Z</time>
      </trkpt>
      <trkpt lat="51.459297" lon="0.24073">
        <ele>4.049168</ele>
        <time>2024-08-10T20:30:58.000Z</time>
      </trkpt>
      <trkpt lat="51.458606" lon="0.24156">
        <ele>4.03421</ele>
        <time>2024-08-10T20:31:08.000Z</time>
      </trkpt>
      <trkpt lat="51.458563" lon="0.241616">
        <ele>4.03328</ele>
        <time>2024-08-10T20:31:09.000Z</time>
      </trkpt>
      <trkpt lat="51.458559" lon="0.241616">
        <ele>4.033226</ele>
        <time>2024-08-10T20:31:09.000Z</time>
      </trkpt>
      <trkpt lat="51.45856" lon="0.24161">
        <ele>4.033194</ele>
        <time>2024-08-10T20:31:09.000Z</time>
      </trkpt>
      <trkpt lat="51.458548" lon="0.241607">
        <ele>4.033158</ele>
        <time>2024-08-10T20:31:09.000Z</time>
      </trkpt>
      <trkpt lat="51.458552" lon="0.241614">
        <ele>4.033113</ele>
        <time>2024-08-10T20:31:09.000Z</time>
      </trkpt>
      <trkpt lat="51.458613" lon="0.241561">
        <ele>4.032182</ele>
        <time>2024-08-10T20:31:10.000Z</time>
      </trkpt>
      <trkpt lat="51.4593" lon="0.240738">
        <ele>4.016849</ele>
        <time>2024-08-10T20:31:20.000Z</time>
      </trkpt>
      <trkpt lat="51.459599" lon="0.240147">
        <ele>4.03782</ele>
        <time>2024-08-10T20:31:25.000Z</time>
      </trkpt>
      <trkpt lat="51.460057" lon="0.238857">
        <ele>4.178804</ele>
        <time>2024-08-10T20:31:35.000Z</time>
      </trkpt>
      <trkpt lat="51.460093" lon="0.238683">
        <ele>4.195378</ele>
        <time>2024-08-10T20:31:36.000Z</time>
      </trkpt>
      <trkpt lat="51.460103" lon="0.238628">
        <ele>4.200981</ele>
        <time>2024-08-10T20:31:36.000Z</time>
      </trkpt>
      <trkpt lat="51.4602" lon="0.238155">
        <ele>4.248173</ele>
        <time>2024-08-10T20:31:39.000Z</time>
      </trkpt>
      <trkpt lat="51.460253" lon="0.237577">
        <ele>4.348045</ele>
        <time>2024-08-10T20:31:43.000Z</time>
      </trkpt>
      <trkpt lat="51.460248" lon="0.236066">
        <ele>4.835604</ele>
        <time>2024-08-10T20:31:53.000Z</time>
      </trkpt>
      <trkpt lat="51.460282" lon="0.23574">
        <ele>4.939169</ele>
        <time>2024-08-10T20:31:55.000Z</time>
      </trkpt>
      <trkpt lat="51.460283" lon="0.235737">
        <ele>4.940457</ele>
        <time>2024-08-10T20:31:55.000Z</time>
      </trkpt>
      <trkpt lat="51.460326" lon="0.23522">
        <ele>5.109333</ele>
        <time>2024-08-10T20:31:59.000Z</time>
      </trkpt>
      <trkpt lat="51.460341" lon="0.235038">
        <ele>5.166496</ele>
        <time>2024-08-10T20:32:00.000Z</time>
      </trkpt>
      <trkpt lat="51.460679" lon="0.233727">
        <ele>5.34007</ele>
        <time>2024-08-10T20:32:10.000Z</time>
      </trkpt>
      <trkpt lat="51.461255" lon="0.232398">
        <ele>5.497519</ele>
        <time>2024-08-10T20:32:21.000Z</time>
      </trkpt>
      <trkpt lat="51.461323" lon="0.232249">
        <ele>5.459419</ele>
        <time>2024-08-10T20:32:22.000Z</time>
      </trkpt>
      <trkpt lat="51.46139" lon="0.232062">
        <ele>5.414319</ele>
        <time>2024-08-10T20:32:23.000Z</time>
      </trkpt>
      <trkpt lat="51.461412" lon="0.231951">
        <ele>5.389919</ele>
        <time>2024-08-10T20:32:24.000Z</time>
      </trkpt>
      <trkpt lat="51.461386" lon="0.231957">
        <ele>5.380121</ele>
        <time>2024-08-10T20:32:24.000Z</time>
      </trkpt>
      <trkpt lat="51.461393" lon="0.231958">
        <ele>5.379441</ele>
        <time>2024-08-10T20:32:24.000Z</time>
      </trkpt>
      <trkpt lat="51.461385" lon="0.231968">
        <ele>5.378766</ele>
        <time>2024-08-10T20:32:24.000Z</time>
      </trkpt>
      <trkpt lat="51.461384" lon="0.231956">
        <ele>5.378435</ele>
        <time>2024-08-10T20:32:24.000Z</time>
      </trkpt>
      <trkpt lat="51.461393" lon="0.231954">
        <ele>5.377752</ele>
        <time>2024-08-10T20:32:24.000Z</time>
      </trkpt>
      <trkpt lat="51.461388" lon="0.231954">
        <ele>5.377407</ele>
        <time>2024-08-10T20:32:24.000Z</time>
      </trkpt>
      <trkpt lat="51.461387" lon="0.231958">
        <ele>5.376737</ele>
        <time>2024-08-10T20:32:24.000Z</time>
      </trkpt>
      <trkpt lat="51.461352" lon="0.231967">
        <ele>5.365237</ele>
        <time>2024-08-10T20:32:24.000Z</time>
      </trkpt>
      <trkpt lat="51.460786" lon="0.231885">
        <ele>5.173024</ele>
        <time>2024-08-10T20:32:30.000Z</time>
      </trkpt>
      <trkpt lat="51.460707" lon="0.231901">
        <ele>5.145244</ele>
        <time>2024-08-10T20:32:31.000Z</time>
      </trkpt>
      <trkpt lat="51.460649" lon="0.231909">
        <ele>5.126573</ele>
        <time>2024-08-10T20:32:32.000Z</time>
      </trkpt>
      <trkpt lat="51.460576" lon="0.231925">
        <ele>5.10175</ele>
        <time>2024-08-10T20:32:33.000Z</time>
      </trkpt>
      <trkpt lat="51.460468" lon="0.231991">
        <ele>5.066268</ele>
        <time>2024-08-10T20:32:34.000Z</time>
      </trkpt>
      <trkpt lat="51.460454" lon="0.232044">
        <ele>5.051935</ele>
        <time>2024-08-10T20:32:34.000Z</time>
      </trkpt>
      <trkpt lat="51.460376" lon="0.232131">
        <ele>5.023572</ele>
        <time>2024-08-10T20:32:35.000Z</time>
      </trkpt>
      <trkpt lat="51.460338" lon="0.232148">
        <ele>5.009353</ele>
        <time>2024-08-10T20:32:35.000Z</time>
      </trkpt>
      <trkpt lat="51.460307" lon="0.232131">
        <ele>4.995764</ele>
        <time>2024-08-10T20:32:35.000Z</time>
      </trkpt>
      <trkpt lat="51.460305" lon="0.23214">
        <ele>4.99475</ele>
        <time>2024-08-10T20:32:35.000Z</time>
      </trkpt>
      <trkpt lat="51.460305" lon="0.232134">
        <ele>4.993731</ele>
        <time>2024-08-10T20:32:35.000Z</time>
      </trkpt>
      <trkpt lat="51.460291" lon="0.232134">
        <ele>4.993386</ele>
        <time>2024-08-10T20:32:35.000Z</time>
      </trkpt>
      <trkpt lat="51.460305" lon="0.232127">
        <ele>4.993389</ele>
        <time>2024-08-10T20:32:35.000Z</time>
      </trkpt>
      <trkpt lat="51.460288" lon="0.232133">
        <ele>4.99298</ele>
        <time>2024-08-10T20:32:35.000Z</time>
      </trkpt>
      <trkpt lat="51.460288" lon="0.232126">
        <ele>4.99258</ele>
        <time>2024-08-10T20:32:35.000Z</time>
      </trkpt>
      <trkpt lat="51.4603" lon="0.232127">
        <ele>4.991879</ele>
        <time>2024-08-10T20:32:35.000Z</time>
      </trkpt>
      <trkpt lat="51.46025" lon="0.232097">
        <ele>4.977512</ele>
        <time>2024-08-10T20:32:36.000Z</time>
      </trkpt>
      <trkpt lat="51.46021" lon="0.232059">
        <ele>4.961673</ele>
        <time>2024-08-10T20:32:37.000Z</time>
      </trkpt>
      <trkpt lat="51.460149" lon="0.232059">
        <ele>4.939017</ele>
        <time>2024-08-10T20:32:38.000Z</time>
      </trkpt>
      <trkpt lat="51.459801" lon="0.231973">
        <ele>4.889559</ele>
        <time>2024-08-10T20:32:42.000Z</time>
      </trkpt>
      <trkpt lat="51.459464" lon="0.231511">
        <ele>4.88111</ele>
        <time>2024-08-10T20:32:47.000Z</time>
      </trkpt>
      <trkpt lat="51.459175" lon="0.231316">
        <ele>4.875274</ele>
        <time>2024-08-10T20:32:50.000Z</time>
      </trkpt>
      <trkpt lat="51.459052" lon="0.231328">
        <ele>4.873193</ele>
        <time>2024-08-10T20:32:51.000Z</time>
      </trkpt>
      <trkpt lat="51.45902" lon="0.231373">
        <ele>4.872265</ele>
        <time>2024-08-10T20:32:51.000Z</time>
      </trkpt>
      <trkpt lat="51.458968" lon="0.231387">
        <ele>4.871351</ele>
        <time>2024-08-10T20:32:52.000Z</time>
      </trkpt>
      <trkpt lat="51.458765" lon="0.231571">
        <ele>4.866835</ele>
        <time>2024-08-10T20:32:55.000Z</time>
      </trkpt>
      <trkpt lat="51.458718" lon="0.231636">
        <ele>4.865747</ele>
        <time>2024-08-10T20:32:56.000Z</time>
      </trkpt>
      <trkpt lat="51.458712" lon="0.231635">
        <ele>4.865684</ele>
        <time>2024-08-10T20:32:56.000Z</time>
      </trkpt>
      <trkpt lat="51.458711" lon="0.231636">
        <ele>4.865655</ele>
        <time>2024-08-10T20:32:56.000Z</time>
      </trkpt>
      <trkpt lat="51.458715" lon="0.231643">
        <ele>4.865609</ele>
        <time>2024-08-10T20:32:56.000Z</time>
      </trkpt>
      <trkpt lat="51.458699" lon="0.231642">
        <ele>4.865568</ele>
        <time>2024-08-10T20:32:56.000Z</time>
      </trkpt>
      <trkpt lat="51.458711" lon="0.23164">
        <ele>4.865551</ele>
        <time>2024-08-10T20:32:56.000Z</time>
      </trkpt>
      <trkpt lat="51.45871" lon="0.231636">
        <ele>4.865503</ele>
        <time>2024-08-10T20:32:56.000Z</time>
      </trkpt>
      <trkpt lat="51.458702" lon="0.23164">
        <ele>4.86548</ele>
        <time>2024-08-10T20:32:56.000Z</time>
      </trkpt>
      <trkpt lat="51.458706" lon="0.231653">
        <ele>4.865485</ele>
        <time>2024-08-10T20:32:56.000Z</time>
      </trkpt>
      <trkpt lat="51.458705" lon="0.231651">
        <ele>4.865464</ele>
        <time>2024-08-10T20:32:56.000Z</time>
      </trkpt>
      <trkpt lat="51.458702" lon="0.231653">
        <ele>4.865409</ele>
        <time>2024-08-10T20:32:56.000Z</time>
      </trkpt>
      <trkpt lat="51.458699" lon="0.231651">
        <ele>4.865389</ele>
        <time>2024-08-10T20:32:56.000Z</time>
      </trkpt>
      <trkpt lat="51.458692" lon="0.231654">
        <ele>4.865335</ele>
        <time>2024-08-10T20:32:56.000Z</time>
      </trkpt>
      <trkpt lat="51.458699" lon="0.231654">
        <ele>4.86531</ele>
        <time>2024-08-10T20:32:56.000Z</time>
      </trkpt>
      <trkpt lat="51.458193" lon="0.232568">
        <ele>5.157889</ele>
        <time>2024-08-10T20:33:04.000Z</time>
      </trkpt>
      <trkpt lat="51.458188" lon="0.232574">
        <ele>5.16191</ele>
        <time>2024-08-10T20:33:04.000Z</time>
      </trkpt>
      <trkpt lat="51.458181" lon="0.232593">
        <ele>5.164227</ele>
        <time>2024-08-10T20:33:04.000Z</time>
      </trkpt>
      <trkpt lat="51.458178" lon="0.232586">
        <ele>5.16502</ele>
        <time>2024-08-10T20:33:04.000Z</time>
      </trkpt>
      <trkpt lat="51.458181" lon="0.23258">
        <ele>5.16576</ele>
        <time>2024-08-10T20:33:04.000Z</time>
      </trkpt>
      <trkpt lat="51.458185" lon="0.232598">
        <ele>5.167101</ele>
        <time>2024-08-10T20:33:04.000Z</time>
      </trkpt>
      <trkpt lat="51.458183" lon="0.232591">
        <ele>5.167826</ele>
        <time>2024-08-10T20:33:04.000Z</time>
      </trkpt>
      <trkpt lat="51.45817" lon="0.232584">
        <ele>5.168573</ele>
        <time>2024-08-10T20:33:04.000Z</time>
      </trkpt>
      <trkpt lat="51.458184" lon="0.232593">
        <ele>5.169366</ele>
        <time>2024-08-10T20:33:04.000Z</time>
      </trkpt>
      <trkpt lat="51.458178" lon="0.232601">
        <ele>5.170368</ele>
        <time>2024-08-10T20:33:04.000Z</time>
      </trkpt>
      <trkpt lat="51.458182" lon="0.232602">
        <ele>5.17136</ele>
        <time>2024-08-10T20:33:04.000Z</time>
      </trkpt>
      <trkpt lat="51.458182" lon="0.2326">
        <ele>5.172376</ele>
        <time>2024-08-10T20:33:04.000Z</time>
      </trkpt>
      <trkpt lat="51.458169" lon="0.232601">
        <ele>5.173149</ele>
        <time>2024-08-10T20:33:04.000Z</time>
      </trkpt>
      <trkpt lat="51.458183" lon="0.2326">
        <ele>5.174162</ele>
        <time>2024-08-10T20:33:04.000Z</time>
      </trkpt>
      <trkpt lat="51.458182" lon="0.232613">
        <ele>5.175174</ele>
        <time>2024-08-10T20:33:04.000Z</time>
      </trkpt>
      <trkpt lat="51.458176" lon="0.232607">
        <ele>5.176179</ele>
        <time>2024-08-10T20:33:04.000Z</time>
      </trkpt>
      <trkpt lat="51.457791" lon="0.233628">
        <ele>5.641192</ele>
        <time>2024-08-10T20:33:12.000Z</time>
      </trkpt>
      <trkpt lat="51.457469" lon="0.234603">
        <ele>6.079066</ele>
        <time>2024-08-10T20:33:20.000Z</time>
      </trkpt>
      <trkpt lat="51.457483" lon="0.234621">
        <ele>6.079472</ele>
        <time>2024-08-10T20:33:20.000Z</time>
      </trkpt>
      <trkpt lat="51.457465" lon="0.234612">
        <ele>6.080234</ele>
        <time>2024-08-10T20:33:20.000Z</time>
      </trkpt>
      <trkpt lat="51.457478" lon="0.234616">
        <ele>6.081044</ele>
        <time>2024-08-10T20:33:20.000Z</time>
      </trkpt>
      <trkpt lat="51.45748" lon="0.234623">
        <ele>6.081849</ele>
        <time>2024-08-10T20:33:20.000Z</time>
      </trkpt>
      <trkpt lat="51.457479" lon="0.23461">
        <ele>6.082623</ele>
        <time>2024-08-10T20:33:20.000Z</time>
      </trkpt>
      <trkpt lat="51.457469" lon="0.234623">
        <ele>6.083427</ele>
        <time>2024-08-10T20:33:20.000Z</time>
      </trkpt>
      <trkpt lat="51.457462" lon="0.234621">
        <ele>6.084795</ele>
        <time>2024-08-10T20:33:20.000Z</time>
      </trkpt>
      <trkpt lat="51.457465" lon="0.234631">
        <ele>6.085604</ele>
        <time>2024-08-10T20:33:20.000Z</time>
      </trkpt>
      <trkpt lat="51.457464" lon="0.234627">
        <ele>6.086376</ele>
        <time>2024-08-10T20:33:20.000Z</time>
      </trkpt>
      <trkpt lat="51.457462" lon="0.234625">
        <ele>6.087583</ele>
        <time>2024-08-10T20:33:20.000Z</time>
      </trkpt>
      <trkpt lat="51.457466" lon="0.234625">
        <ele>6.088356</ele>
        <time>2024-08-10T20:33:20.000Z</time>
      </trkpt>
      <trkpt lat="51.457463" lon="0.23464">
        <ele>6.089557</ele>
        <time>2024-08-10T20:33:20.000Z</time>
      </trkpt>
      <trkpt lat="51.457463" lon="0.234646">
        <ele>6.091679</ele>
        <time>2024-08-10T20:33:20.000Z</time>
      </trkpt>
      <trkpt lat="51.456909" lon="0.236934">
        <ele>7.089225</ele>
        <time>2024-08-10T20:33:37.000Z</time>
      </trkpt>
      <trkpt lat="51.456914" lon="0.236968">
        <ele>7.102256</ele>
        <time>2024-08-10T20:33:37.000Z</time>
      </trkpt>
      <trkpt lat="51.456905" lon="0.236981">
        <ele>7.103633</ele>
        <time>2024-08-10T20:33:37.000Z</time>
      </trkpt>
      <trkpt lat="51.456908" lon="0.236973">
        <ele>7.104682</ele>
        <time>2024-08-10T20:33:37.000Z</time>
      </trkpt>
      <trkpt lat="51.456899" lon="0.236972">
        <ele>7.105476</ele>
        <time>2024-08-10T20:33:37.000Z</time>
      </trkpt>
      <trkpt lat="51.456905" lon="0.236971">
        <ele>7.106517</ele>
        <time>2024-08-10T20:33:37.000Z</time>
      </trkpt>
      <trkpt lat="51.456897" lon="0.236987">
        <ele>7.10755</ele>
        <time>2024-08-10T20:33:37.000Z</time>
      </trkpt>
      <trkpt lat="51.456905" lon="0.236988">
        <ele>7.109299</ele>
        <time>2024-08-10T20:33:37.000Z</time>
      </trkpt>
      <trkpt lat="51.456902" lon="0.236977">
        <ele>7.110063</ele>
        <time>2024-08-10T20:33:37.000Z</time>
      </trkpt>
      <trkpt lat="51.456894" lon="0.236987">
        <ele>7.110866</ele>
        <time>2024-08-10T20:33:37.000Z</time>
      </trkpt>
      <trkpt lat="51.456894" lon="0.236989">
        <ele>7.111912</ele>
        <time>2024-08-10T20:33:37.000Z</time>
      </trkpt>
      <trkpt lat="51.456556" lon="0.237946">
        <ele>7.673864</ele>
        <time>2024-08-10T20:33:45.000Z</time>
      </trkpt>
      <trkpt lat="51.45654" lon="0.23796">
        <ele>7.690365</ele>
        <time>2024-08-10T20:33:45.000Z</time>
      </trkpt>
      <trkpt lat="51.456539" lon="0.237974">
        <ele>7.693483</ele>
        <time>2024-08-10T20:33:45.000Z</time>
      </trkpt>
      <trkpt lat="51.456545" lon="0.237976">
        <ele>7.694467</ele>
        <time>2024-08-10T20:33:45.000Z</time>
      </trkpt>
      <trkpt lat="51.456548" lon="0.237982">
        <ele>7.696246</ele>
        <time>2024-08-10T20:33:45.000Z</time>
      </trkpt>
      <trkpt lat="51.456539" lon="0.237975">
        <ele>7.697579</ele>
        <time>2024-08-10T20:33:45.000Z</time>
      </trkpt>
      <trkpt lat="51.456539" lon="0.237975">
        <ele>7.699556</ele>
        <time>2024-08-10T20:33:45.000Z</time>
      </trkpt>
      <trkpt lat="51.456542" lon="0.237992">
        <ele>7.700909</ele>
        <time>2024-08-10T20:33:45.000Z</time>
      </trkpt>
      <trkpt lat="51.45653" lon="0.237994">
        <ele>7.702675</ele>
        <time>2024-08-10T20:33:45.000Z</time>
      </trkpt>
      <trkpt lat="51.456528" lon="0.237985">
        <ele>7.705364</ele>
        <time>2024-08-10T20:33:45.000Z</time>
      </trkpt>
      <trkpt lat="51.456541" lon="0.237993">
        <ele>7.707134</ele>
        <time>2024-08-10T20:33:45.000Z</time>
      </trkpt>
      <trkpt lat="51.456538" lon="0.237994">
        <ele>7.708133</ele>
        <time>2024-08-10T20:33:45.000Z</time>
      </trkpt>
      <trkpt lat="51.45654" lon="0.23799">
        <ele>7.709469</ele>
        <time>2024-08-10T20:33:45.000Z</time>
      </trkpt>
      <trkpt lat="51.456526" lon="0.238001">
        <ele>7.71125</ele>
        <time>2024-08-10T20:33:45.000Z</time>
      </trkpt>
      <trkpt lat="51.456089" lon="0.238921">
        <ele>8.32238</ele>
        <time>2024-08-10T20:33:53.000Z</time>
      </trkpt>
      <trkpt lat="51.455853" lon="0.239297">
        <ele>8.595726</ele>
        <time>2024-08-10T20:33:57.000Z</time>
      </trkpt>
      <trkpt lat="51.455851" lon="0.239307">
        <ele>8.598011</ele>
        <time>2024-08-10T20:33:57.000Z</time>
      </trkpt>
      <trkpt lat="51.455856" lon="0.239308">
        <ele>8.599998</ele>
        <time>2024-08-10T20:33:57.000Z</time>
      </trkpt>
      <trkpt lat="51.455843" lon="0.239303">
        <ele>8.601773</ele>
        <time>2024-08-10T20:33:57.000Z</time>
      </trkpt>
      <trkpt lat="51.455843" lon="0.239315">
        <ele>8.602758</ele>
        <time>2024-08-10T20:33:57.000Z</time>
      </trkpt>
      <trkpt lat="51.455857" lon="0.239306">
        <ele>8.603753</ele>
        <time>2024-08-10T20:33:57.000Z</time>
      </trkpt>
      <trkpt lat="51.455842" lon="0.239302">
        <ele>8.605083</ele>
        <time>2024-08-10T20:33:57.000Z</time>
      </trkpt>
      <trkpt lat="51.455838" lon="0.239313">
        <ele>8.60642</ele>
        <time>2024-08-10T20:33:57.000Z</time>
      </trkpt>
      <trkpt lat="51.455853" lon="0.239315">
        <ele>8.607413</ele>
        <time>2024-08-10T20:33:57.000Z</time>
      </trkpt>
      <trkpt lat="51.455847" lon="0.239313">
        <ele>8.608754</ele>
        <time>2024-08-10T20:33:57.000Z</time>
      </trkpt>
      <trkpt lat="51.455762" lon="0.239441">
        <ele>8.678278</ele>
        <time>2024-08-10T20:33:58.000Z</time>
      </trkpt>
      <trkpt lat="51.455123" lon="0.240243">
        <ele>8.92361</ele>
        <time>2024-08-10T20:34:07.000Z</time>
      </trkpt>
      <trkpt lat="51.455119" lon="0.240232">
        <ele>8.924797</ele>
        <time>2024-08-10T20:34:07.000Z</time>
      </trkpt>
      <trkpt lat="51.455128" lon="0.240246">
        <ele>8.925152</ele>
        <time>2024-08-10T20:34:07.000Z</time>
      </trkpt>
      <trkpt lat="51.455118" lon="0.240238">
        <ele>8.925492</ele>
        <time>2024-08-10T20:34:07.000Z</time>
      </trkpt>
      <trkpt lat="51.455126" lon="0.240243">
        <ele>8.925853</ele>
        <time>2024-08-10T20:34:07.000Z</time>
      </trkpt>
      <trkpt lat="51.455109" lon="0.240252">
        <ele>8.926201</ele>
        <time>2024-08-10T20:34:07.000Z</time>
      </trkpt>
      <trkpt lat="51.455111" lon="0.240242">
        <ele>8.926557</ele>
        <time>2024-08-10T20:34:07.000Z</time>
      </trkpt>
      <trkpt lat="51.455112" lon="0.240243">
        <ele>8.927385</ele>
        <time>2024-08-10T20:34:07.000Z</time>
      </trkpt>
      <trkpt lat="51.455104" lon="0.240258">
        <ele>8.927741</ele>
        <time>2024-08-10T20:34:07.000Z</time>
      </trkpt>
      <trkpt lat="51.45512" lon="0.240256">
        <ele>8.928227</ele>
        <time>2024-08-10T20:34:07.000Z</time>
      </trkpt>
      <trkpt lat="51.455117" lon="0.240257">
        <ele>8.928926</ele>
        <time>2024-08-10T20:34:07.000Z</time>
      </trkpt>
      <trkpt lat="51.455108" lon="0.24025">
        <ele>8.929748</ele>
        <time>2024-08-10T20:34:07.000Z</time>
      </trkpt>
      <trkpt lat="51.455107" lon="0.240264">
        <ele>8.930457</ele>
        <time>2024-08-10T20:34:07.000Z</time>
      </trkpt>
      <trkpt lat="51.455105" lon="0.240256">
        <ele>8.930808</ele>
        <time>2024-08-10T20:34:07.000Z</time>
      </trkpt>
      <trkpt lat="51.455083" lon="0.240286">
        <ele>8.939496</ele>
        <time>2024-08-10T20:34:07.000Z</time>
      </trkpt>
      <trkpt lat="51.454693" lon="0.240625">
        <ele>9.073472</ele>
        <time>2024-08-10T20:34:12.000Z</time>
      </trkpt>
      <trkpt lat="51.454603" lon="0.24068">
        <ele>9.099984</ele>
        <time>2024-08-10T20:34:13.000Z</time>
      </trkpt>
      <trkpt lat="51.454613" lon="0.240687">
        <ele>9.099974</ele>
        <time>2024-08-10T20:34:13.000Z</time>
      </trkpt>
      <trkpt lat="51.454599" lon="0.24068">
        <ele>9.09998</ele>
        <time>2024-08-10T20:34:13.000Z</time>
      </trkpt>
      <trkpt lat="51.455109" lon="0.240243">
        <ele>9.064501</ele>
        <time>2024-08-10T20:34:19.000Z</time>
      </trkpt>
      <trkpt lat="51.455125" lon="0.240248">
        <ele>9.064492</ele>
        <time>2024-08-10T20:34:19.000Z</time>
      </trkpt>
      <trkpt lat="51.455492" lon="0.239773">
        <ele>8.757749</ele>
        <time>2024-08-10T20:34:24.000Z</time>
      </trkpt>
      <trkpt lat="51.455856" lon="0.2393">
        <ele>8.450743</ele>
        <time>2024-08-10T20:34:29.000Z</time>
      </trkpt>
      <trkpt lat="51.455847" lon="0.239291">
        <ele>8.450737</ele>
        <time>2024-08-10T20:34:29.000Z</time>
      </trkpt>
      <trkpt lat="51.456198" lon="0.238638">
        <ele>8.103621</ele>
        <time>2024-08-10T20:34:35.000Z</time>
      </trkpt>
      <trkpt lat="51.456548" lon="0.237981">
        <ele>7.723092</ele>
        <time>2024-08-10T20:34:41.000Z</time>
      </trkpt>
      <trkpt lat="51.456546" lon="0.237981">
        <ele>7.723097</ele>
        <time>2024-08-10T20:34:41.000Z</time>
      </trkpt>
      <trkpt lat="51.456904" lon="0.23698">
        <ele>7.197795</ele>
        <time>2024-08-10T20:34:49.000Z</time>
      </trkpt>
      <trkpt lat="51.456894" lon="0.236984">
        <ele>7.197804</ele>
        <time>2024-08-10T20:34:49.000Z</time>
      </trkpt>
      <trkpt lat="51.457179" lon="0.235791">
        <ele>6.626813</ele>
        <time>2024-08-10T20:34:58.000Z</time>
      </trkpt>
      <trkpt lat="51.457465" lon="0.234622">
        <ele>6.070827</ele>
        <time>2024-08-10T20:35:07.000Z</time>
      </trkpt>
      <trkpt lat="51.457467" lon="0.234614">
        <ele>6.070827</ele>
        <time>2024-08-10T20:35:07.000Z</time>
      </trkpt>
      <trkpt lat="51.457823" lon="0.233594">
        <ele>5.559293</ele>
        <time>2024-08-10T20:35:15.000Z</time>
      </trkpt>
      <trkpt lat="51.458179" lon="0.232574">
        <ele>5.329627</ele>
        <time>2024-08-10T20:35:23.000Z</time>
      </trkpt>
      <trkpt lat="51.458182" lon="0.232584">
        <ele>5.32962</ele>
        <time>2024-08-10T20:35:23.000Z</time>
      </trkpt>
      <trkpt lat="51.458174" lon="0.232574">
        <ele>5.329618</ele>
        <time>2024-08-10T20:35:23.000Z</time>
      </trkpt>
      <trkpt lat="51.458715" lon="0.231647">
        <ele>5.150286</ele>
        <time>2024-08-10T20:35:32.000Z</time>
      </trkpt>
      <trkpt lat="51.458713" lon="0.231642">
        <ele>5.150295</ele>
        <time>2024-08-10T20:35:32.000Z</time>
      </trkpt>
      <trkpt lat="51.458713" lon="0.231632">
        <ele>5.150303</ele>
        <time>2024-08-10T20:35:32.000Z</time>
      </trkpt>
      <trkpt lat="51.459101" lon="0.231227">
        <ele>5.077333</ele>
        <time>2024-08-10T20:35:37.000Z</time>
      </trkpt>
      <trkpt lat="51.4591" lon="0.231235">
        <ele>5.077327</ele>
        <time>2024-08-10T20:35:37.000Z</time>
      </trkpt>
      <trkpt lat="51.459096" lon="0.231235">
        <ele>5.077328</ele>
        <time>2024-08-10T20:35:37.000Z</time>
      </trkpt>
      <trkpt lat="51.459144" lon="0.23062">
        <ele>5.248029</ele>
        <time>2024-08-10T20:35:41.000Z</time>
      </trkpt>
      <trkpt lat="51.459154" lon="0.230619">
        <ele>5.248034</ele>
        <time>2024-08-10T20:35:41.000Z</time>
      </trkpt>
      <trkpt lat="51.459147" lon="0.230621">
        <ele>5.248035</ele>
        <time>2024-08-10T20:35:41.000Z</time>
      </trkpt>
      <trkpt lat="51.459267" lon="0.229847">
        <ele>5.467842</ele>
        <time>2024-08-10T20:35:47.000Z</time>
      </trkpt>
      <trkpt lat="51.459402" lon="0.229062">
        <ele>5.687801</ele>
        <time>2024-08-10T20:35:53.000Z</time>
      </trkpt>
      <trkpt lat="51.459405" lon="0.229076">
        <ele>5.687802</ele>
        <time>2024-08-10T20:35:53.000Z</time>
      </trkpt>
      <trkpt lat="51.459392" lon="0.229064">
        <ele>5.687792</ele>
        <time>2024-08-10T20:35:53.000Z</time>
      </trkpt>
      <trkpt lat="51.459442" lon="0.228179">
        <ele>5.911651</ele>
        <time>2024-08-10T20:35:59.000Z</time>
      </trkpt>
      <trkpt lat="51.45949" lon="0.227272">
        <ele>6.089365</ele>
        <time>2024-08-10T20:36:05.000Z</time>
      </trkpt>
      <trkpt lat="51.459498" lon="0.227276">
        <ele>6.089369</ele>
        <time>2024-08-10T20:36:05.000Z</time>
      </trkpt>
      <trkpt lat="51.459471" lon="0.226098">
        <ele>6.322706</ele>
        <time>2024-08-10T20:36:13.000Z</time>
      </trkpt>
      <trkpt lat="51.459456" lon="0.224912">
        <ele>6.432255</ele>
        <time>2024-08-10T20:36:21.000Z</time>
      </trkpt>
      <trkpt lat="51.459448" lon="0.223723">
        <ele>6.452876</ele>
        <time>2024-08-10T20:36:29.000Z</time>
      </trkpt>
      <trkpt lat="51.459436" lon="0.223739">
        <ele>6.452877</ele>
        <time>2024-08-10T20:36:29.000Z</time>
      </trkpt>
      <trkpt lat="51.459388" lon="0.222658">
        <ele>6.469444</ele>
        <time>2024-08-10T20:36:37.000Z</time>
      </trkpt>
      <trkpt lat="51.459337" lon="0.221597">
        <ele>6.448365</ele>
        <time>2024-08-10T20:36:44.000Z</time>
      </trkpt>
      <trkpt lat="51.459289" lon="0.220518">
        <ele>6.427271</ele>
        <time>2024-08-10T20:36:51.000Z</time>
      </trkpt>
      <trkpt lat="51.459302" lon="0.22053">
        <ele>6.427218</ele>
        <time>2024-08-10T20:36:51.000Z</time>
      </trkpt>
      <trkpt lat="51.459296" lon="0.220522">
        <ele>6.427148</ele>
        <time>2024-08-10T20:36:51.000Z</time>
      </trkpt>
      <trkpt lat="51.459289" lon="0.220524">
        <ele>6.42711</ele>
        <time>2024-08-10T20:36:51.000Z</time>
      </trkpt>
      <trkpt lat="51.459291" lon="0.220519">
        <ele>6.427077</ele>
        <time>2024-08-10T20:36:51.000Z</time>
      </trkpt>
      <trkpt lat="51.459295" lon="0.220529">
        <ele>6.426967</ele>
        <time>2024-08-10T20:36:51.000Z</time>
      </trkpt>
      <trkpt lat="51.459293" lon="0.220539">
        <ele>6.42688</ele>
        <time>2024-08-10T20:36:51.000Z</time>
      </trkpt>
      <trkpt lat="51.459296" lon="0.220529">
        <ele>6.426826</ele>
        <time>2024-08-10T20:36:51.000Z</time>
      </trkpt>
      <trkpt lat="51.459318" lon="0.221239">
        <ele>6.414911</ele>
        <time>2024-08-10T20:36:56.000Z</time>
      </trkpt>
      <trkpt lat="51.459447" lon="0.223723">
        <ele>6.495849</ele>
        <time>2024-08-10T20:37:13.000Z</time>
      </trkpt>
      <trkpt lat="51.459505" lon="0.227294">
        <ele>6.390184</ele>
        <time>2024-08-10T20:37:38.000Z</time>
      </trkpt>
      <trkpt lat="51.459468" lon="0.228239">
        <ele>6.044178</ele>
        <time>2024-08-10T20:37:45.000Z</time>
      </trkpt>
      <trkpt lat="51.459374" lon="0.229417">
        <ele>5.601755</ele>
        <time>2024-08-10T20:37:53.000Z</time>
      </trkpt>
      <trkpt lat="51.459306" lon="0.229791">
        <ele>5.458893</ele>
        <time>2024-08-10T20:37:56.000Z</time>
      </trkpt>
      <trkpt lat="51.459179" lon="0.230433">
        <ele>5.315468</ele>
        <time>2024-08-10T20:38:01.000Z</time>
      </trkpt>
      <trkpt lat="51.459141" lon="0.230716">
        <ele>5.259541</ele>
        <time>2024-08-10T20:38:03.000Z</time>
      </trkpt>
      <trkpt lat="51.459124" lon="0.230966">
        <ele>5.2086</ele>
        <time>2024-08-10T20:38:05.000Z</time>
      </trkpt>
      <trkpt lat="51.45914" lon="0.231009">
        <ele>5.201576</ele>
        <time>2024-08-10T20:38:05.000Z</time>
      </trkpt>
      <trkpt lat="51.459221" lon="0.23112">
        <ele>5.166249</ele>
        <time>2024-08-10T20:38:06.000Z</time>
      </trkpt>
      <trkpt lat="51.459474" lon="0.231347">
        <ele>5.073541</ele>
        <time>2024-08-10T20:38:09.000Z</time>
      </trkpt>
      <trkpt lat="51.459797" lon="0.231788">
        <ele>4.940152</ele>
        <time>2024-08-10T20:38:14.000Z</time>
      </trkpt>
      <trkpt lat="51.460013" lon="0.231918">
        <ele>4.879603</ele>
        <time>2024-08-10T20:38:17.000Z</time>
      </trkpt>
      <trkpt lat="51.460134" lon="0.231882">
        <ele>4.932581</ele>
        <time>2024-08-10T20:38:18.000Z</time>
      </trkpt>
      <trkpt lat="51.460192" lon="0.231817">
        <ele>4.968871</ele>
        <time>2024-08-10T20:38:19.000Z</time>
      </trkpt>
      <trkpt lat="51.460217" lon="0.231749">
        <ele>4.990794</ele>
        <time>2024-08-10T20:38:20.000Z</time>
      </trkpt>
      <trkpt lat="51.46026" lon="0.231712">
        <ele>5.01291</ele>
        <time>2024-08-10T20:38:21.000Z</time>
      </trkpt>
      <trkpt lat="51.46032" lon="0.231679">
        <ele>5.041235</ele>
        <time>2024-08-10T20:38:22.000Z</time>
      </trkpt>
      <trkpt lat="51.460383" lon="0.231686">
        <ele>5.068937</ele>
        <time>2024-08-10T20:38:23.000Z</time>
      </trkpt>
      <trkpt lat="51.460409" lon="0.231705">
        <ele>5.090883</ele>
        <time>2024-08-10T20:38:23.000Z</time>
      </trkpt>
      <trkpt lat="51.460453" lon="0.231754">
        <ele>5.11252</ele>
        <time>2024-08-10T20:38:24.000Z</time>
      </trkpt>
      <trkpt lat="51.460545" lon="0.231806">
        <ele>5.159976</ele>
        <time>2024-08-10T20:38:25.000Z</time>
      </trkpt>
      <trkpt lat="51.460658" lon="0.231854">
        <ele>5.210012</ele>
        <time>2024-08-10T20:38:26.000Z</time>
      </trkpt>
      <trkpt lat="51.460772" lon="0.231893">
        <ele>5.2687</ele>
        <time>2024-08-10T20:38:27.000Z</time>
      </trkpt>
      <trkpt lat="51.461338" lon="0.231952">
        <ele>5.53043</ele>
        <time>2024-08-10T20:38:33.000Z</time>
      </trkpt>
      <trkpt lat="51.461424" lon="0.231955">
        <ele>5.564046</ele>
        <time>2024-08-10T20:38:34.000Z</time>
      </trkpt>
      <trkpt lat="51.461462" lon="0.231833">
        <ele>5.605435</ele>
        <time>2024-08-10T20:38:35.000Z</time>
      </trkpt>
      <trkpt lat="51.461521" lon="0.231601">
        <ele>5.678565</ele>
        <time>2024-08-10T20:38:37.000Z</time>
      </trkpt>
      <trkpt lat="51.461571" lon="0.231341">
        <ele>5.780703</ele>
        <time>2024-08-10T20:38:39.000Z</time>
      </trkpt>
      <trkpt lat="51.461607" lon="0.231142">
        <ele>5.870478</ele>
        <time>2024-08-10T20:38:40.000Z</time>
      </trkpt>
      <trkpt lat="51.461663" lon="0.230511">
        <ele>6.141137</ele>
        <time>2024-08-10T20:38:44.000Z</time>
      </trkpt>
      <trkpt lat="51.46186" lon="0.226897">
        <ele>7.456163</ele>
        <time>2024-08-10T20:39:09.000Z</time>
      </trkpt>
      <trkpt lat="51.461853" lon="0.226729">
        <ele>7.511637</ele>
        <time>2024-08-10T20:39:10.000Z</time>
      </trkpt>
      <trkpt lat="51.461847" lon="0.226371">
        <ele>7.622587</ele>
        <time>2024-08-10T20:39:12.000Z</time>
      </trkpt>
      <trkpt lat="51.461824" lon="0.226215">
        <ele>7.671135</ele>
        <time>2024-08-10T20:39:13.000Z</time>
      </trkpt>
      <trkpt lat="51.460979" lon="0.224089">
        <ele>7.689073</ele>
        <time>2024-08-10T20:39:30.000Z</time>
      </trkpt>
      <trkpt lat="51.460804" lon="0.223754">
        <ele>7.66685</ele>
        <time>2024-08-10T20:39:33.000Z</time>
      </trkpt>
      <trkpt lat="51.460531" lon="0.223432">
        <ele>7.659575</ele>
        <time>2024-08-10T20:39:37.000Z</time>
      </trkpt>
      <trkpt lat="51.460505" lon="0.223419">
        <ele>7.662404</ele>
        <time>2024-08-10T20:39:37.000Z</time>
      </trkpt>
      <trkpt lat="51.460493" lon="0.223399">
        <ele>7.663318</ele>
        <time>2024-08-10T20:39:37.000Z</time>
      </trkpt>
      <trkpt lat="51.460502" lon="0.223408">
        <ele>7.663309</ele>
        <time>2024-08-10T20:39:37.000Z</time>
      </trkpt>
      <trkpt lat="51.460502" lon="0.223398">
        <ele>7.663319</ele>
        <time>2024-08-10T20:39:37.000Z</time>
      </trkpt>
      <trkpt lat="51.460508" lon="0.223418">
        <ele>7.664222</ele>
        <time>2024-08-10T20:39:37.000Z</time>
      </trkpt>
      <trkpt lat="51.460534" lon="0.223449">
        <ele>7.667032</ele>
        <time>2024-08-10T20:39:37.000Z</time>
      </trkpt>
      <trkpt lat="51.460802" lon="0.223766">
        <ele>7.696156</ele>
        <time>2024-08-10T20:39:41.000Z</time>
      </trkpt>
      <trkpt lat="51.460968" lon="0.224093">
        <ele>7.720053</ele>
        <time>2024-08-10T20:39:44.000Z</time>
      </trkpt>
      <trkpt lat="51.461825" lon="0.226211">
        <ele>7.583731</ele>
        <time>2024-08-10T20:40:01.000Z</time>
      </trkpt>
      <trkpt lat="51.461852" lon="0.22637">
        <ele>7.545119</ele>
        <time>2024-08-10T20:40:02.000Z</time>
      </trkpt>
      <trkpt lat="51.461857" lon="0.22672">
        <ele>7.45687</ele>
        <time>2024-08-10T20:40:04.000Z</time>
      </trkpt>
      <trkpt lat="51.461851" lon="0.226912">
        <ele>7.41275</ele>
        <time>2024-08-10T20:40:05.000Z</time>
      </trkpt>
      <trkpt lat="51.461669" lon="0.230503">
        <ele>6.105278</ele>
        <time>2024-08-10T20:40:30.000Z</time>
      </trkpt>
      <trkpt lat="51.461598" lon="0.231131">
        <ele>5.859513</ele>
        <time>2024-08-10T20:40:34.000Z</time>
      </trkpt>
      <trkpt lat="51.461579" lon="0.231335">
        <ele>5.827832</ele>
        <time>2024-08-10T20:40:35.000Z</time>
      </trkpt>
      <trkpt lat="51.46152" lon="0.231586">
        <ele>5.78848</ele>
        <time>2024-08-10T20:40:37.000Z</time>
      </trkpt>
      <trkpt lat="51.461453" lon="0.231834">
        <ele>5.750624</ele>
        <time>2024-08-10T20:40:39.000Z</time>
      </trkpt>
      <trkpt lat="51.461422" lon="0.231957">
        <ele>5.729199</ele>
        <time>2024-08-10T20:40:40.000Z</time>
      </trkpt>
      <trkpt lat="51.461379" lon="0.232066">
        <ele>5.711988</ele>
        <time>2024-08-10T20:40:41.000Z</time>
      </trkpt>
      <trkpt lat="51.46132" lon="0.232244">
        <ele>5.680208</ele>
        <time>2024-08-10T20:40:42.000Z</time>
      </trkpt>
      <trkpt lat="51.461262" lon="0.232392">
        <ele>5.653355</ele>
        <time>2024-08-10T20:40:43.000Z</time>
      </trkpt>
      <trkpt lat="51.460677" lon="0.233728">
        <ele>5.394772</ele>
        <time>2024-08-10T20:40:54.000Z</time>
      </trkpt>
      <trkpt lat="51.460331" lon="0.235042">
        <ele>5.075725</ele>
        <time>2024-08-10T20:41:04.000Z</time>
      </trkpt>
      <trkpt lat="51.46032" lon="0.235212">
        <ele>5.035693</ele>
        <time>2024-08-10T20:41:05.000Z</time>
      </trkpt>
      <trkpt lat="51.46028" lon="0.235744">
        <ele>4.917436</ele>
        <time>2024-08-10T20:41:09.000Z</time>
      </trkpt>
      <trkpt lat="51.46027" lon="0.235739">
        <ele>4.916535</ele>
        <time>2024-08-10T20:41:09.000Z</time>
      </trkpt>
      <trkpt lat="51.460245" lon="0.236066">
        <ele>4.844013</ele>
        <time>2024-08-10T20:41:11.000Z</time>
      </trkpt>
      <trkpt lat="51.460252" lon="0.23758">
        <ele>4.451357</ele>
        <time>2024-08-10T20:41:21.000Z</time>
      </trkpt>
      <trkpt lat="51.460215" lon="0.238152">
        <ele>4.297346</ele>
        <time>2024-08-10T20:41:25.000Z</time>
      </trkpt>
      <trkpt lat="51.460116" lon="0.238636">
        <ele>4.165837</ele>
        <time>2024-08-10T20:41:29.000Z</time>
      </trkpt>
      <trkpt lat="51.460098" lon="0.238691">
        <ele>4.150253</ele>
        <time>2024-08-10T20:41:29.000Z</time>
      </trkpt>
      <trkpt lat="51.460056" lon="0.238843">
        <ele>4.104046</ele>
        <time>2024-08-10T20:41:30.000Z</time>
      </trkpt>
      <trkpt lat="51.459597" lon="0.24015">
        <ele>4.042186</ele>
        <time>2024-08-10T20:41:40.000Z</time>
      </trkpt>
      <trkpt lat="51.459298" lon="0.240722">
        <ele>4.045555</ele>
        <time>2024-08-10T20:41:45.000Z</time>
      </trkpt>
      <trkpt lat="51.458608" lon="0.241573">
        <ele>4.041934</ele>
        <time>2024-08-10T20:41:55.000Z</time>
      </trkpt>
      <trkpt lat="51.458549" lon="0.24161">
        <ele>4.0406</ele>
        <time>2024-08-10T20:41:56.000Z</time>
      </trkpt>
      <trkpt lat="51.458611" lon="0.241563">
        <ele>4.039289</ele>
        <time>2024-08-10T20:41:57.000Z</time>
      </trkpt>
      <trkpt lat="51.459305" lon="0.240736">
        <ele>4.017522</ele>
        <time>2024-08-10T20:42:07.000Z</time>
      </trkpt>
      <trkpt lat="51.459612" lon="0.240148">
        <ele>4.005941</ele>
        <time>2024-08-10T20:42:12.000Z</time>
      </trkpt>
      <trkpt lat="51.460052" lon="0.238854">
        <ele>4.193297</ele>
        <time>2024-08-10T20:42:22.000Z</time>
      </trkpt>
      <trkpt lat="51.460103" lon="0.238697">
        <ele>4.216569</ele>
        <time>2024-08-10T20:42:23.000Z</time>
      </trkpt>
      <trkpt lat="51.460115" lon="0.238644">
        <ele>4.22442</ele>
        <time>2024-08-10T20:42:23.000Z</time>
      </trkpt>
      <trkpt lat="51.460209" lon="0.238162">
        <ele>4.29063</ele>
        <time>2024-08-10T20:42:26.000Z</time>
      </trkpt>
      <trkpt lat="51.460254" lon="0.237578">
        <ele>4.368179</ele>
        <time>2024-08-10T20:42:30.000Z</time>
      </trkpt>
      <trkpt lat="51.460252" lon="0.236072">
        <ele>4.816306</ele>
        <time>2024-08-10T20:42:40.000Z</time>
      </trkpt>
      <trkpt lat="51.460281" lon="0.235748">
        <ele>4.917209</ele>
        <time>2024-08-10T20:42:42.000Z</time>
      </trkpt>
      <trkpt lat="51.460283" lon="0.235738">
        <ele>4.918471</ele>
        <time>2024-08-10T20:42:42.000Z</time>
      </trkpt>
      <trkpt lat="51.46032" lon="0.235218">
        <ele>5.082993</ele>
        <time>2024-08-10T20:42:46.000Z</time>
      </trkpt>
      <trkpt lat="51.460339" lon="0.235044">
        <ele>5.138687</ele>
        <time>2024-08-10T20:42:47.000Z</time>
      </trkpt>
      <trkpt lat="51.460674" lon="0.233731">
        <ele>5.346501</ele>
        <time>2024-08-10T20:42:57.000Z</time>
      </trkpt>
      <trkpt lat="51.461257" lon="0.2324">
        <ele>5.444441</ele>
        <time>2024-08-10T20:43:08.000Z</time>
      </trkpt>
      <trkpt lat="51.461321" lon="0.232247">
        <ele>5.455337</ele>
        <time>2024-08-10T20:43:09.000Z</time>
      </trkpt>
      <trkpt lat="51.46139" lon="0.232061">
        <ele>5.448822</ele>
        <time>2024-08-10T20:43:10.000Z</time>
      </trkpt>
      <trkpt lat="51.461416" lon="0.231955">
        <ele>5.423042</ele>
        <time>2024-08-10T20:43:11.000Z</time>
      </trkpt>
      <trkpt lat="51.461386" lon="0.23195">
        <ele>5.412674</ele>
        <time>2024-08-10T20:43:11.000Z</time>
      </trkpt>
      <trkpt lat="51.461389" lon="0.231965">
        <ele>5.411966</ele>
        <time>2024-08-10T20:43:11.000Z</time>
      </trkpt>
      <trkpt lat="51.461381" lon="0.231958">
        <ele>5.411253</ele>
        <time>2024-08-10T20:43:11.000Z</time>
      </trkpt>
      <trkpt lat="51.461386" lon="0.231951">
        <ele>5.410892</ele>
        <time>2024-08-10T20:43:11.000Z</time>
      </trkpt>
      <trkpt lat="51.461376" lon="0.231965">
        <ele>5.41017</ele>
        <time>2024-08-10T20:43:11.000Z</time>
      </trkpt>
      <trkpt lat="51.46138" lon="0.231968">
        <ele>5.40982</ele>
        <time>2024-08-10T20:43:11.000Z</time>
      </trkpt>
      <trkpt lat="51.461375" lon="0.231959">
        <ele>5.409102</ele>
        <time>2024-08-10T20:43:11.000Z</time>
      </trkpt>
      <trkpt lat="51.461354" lon="0.231968">
        <ele>5.396944</ele>
        <time>2024-08-10T20:43:11.000Z</time>
      </trkpt>
      <trkpt lat="51.460787" lon="0.231902">
        <ele>5.193799</ele>
        <time>2024-08-10T20:43:17.000Z</time>
      </trkpt>
      <trkpt lat="51.460705" lon="0.231904">
        <ele>5.164436</ele>
        <time>2024-08-10T20:43:18.000Z</time>
      </trkpt>
      <trkpt lat="51.460647" lon="0.231908">
        <ele>5.144704</ele>
        <time>2024-08-10T20:43:19.000Z</time>
      </trkpt>
      <trkpt lat="51.460562" lon="0.231923">
        <ele>5.118469</ele>
        <time>2024-08-10T20:43:20.000Z</time>
      </trkpt>
      <trkpt lat="51.460481" lon="0.231986">
        <ele>5.080979</ele>
        <time>2024-08-10T20:43:21.000Z</time>
      </trkpt>
      <trkpt lat="51.460443" lon="0.232042">
        <ele>5.065835</ele>
        <time>2024-08-10T20:43:22.000Z</time>
      </trkpt>
      <trkpt lat="51.460388" lon="0.232131">
        <ele>5.035856</ele>
        <time>2024-08-10T20:43:23.000Z</time>
      </trkpt>
      <trkpt lat="51.460352" lon="0.232144">
        <ele>5.020823</ele>
        <time>2024-08-10T20:43:23.000Z</time>
      </trkpt>
      <trkpt lat="51.460297" lon="0.23214">
        <ele>5.006464</ele>
        <time>2024-08-10T20:43:24.000Z</time>
      </trkpt>
      <trkpt lat="51.460308" lon="0.232129">
        <ele>5.005402</ele>
        <time>2024-08-10T20:43:24.000Z</time>
      </trkpt>
      <trkpt lat="51.460307" lon="0.23213">
        <ele>5.004291</ele>
        <time>2024-08-10T20:43:24.000Z</time>
      </trkpt>
      <trkpt lat="51.460295" lon="0.232128">
        <ele>5.003941</ele>
        <time>2024-08-10T20:43:24.000Z</time>
      </trkpt>
      <trkpt lat="51.460299" lon="0.232125">
        <ele>5.003944</ele>
        <time>2024-08-10T20:43:24.000Z</time>
      </trkpt>
      <trkpt lat="51.46029" lon="0.23213">
        <ele>5.003524</ele>
        <time>2024-08-10T20:43:24.000Z</time>
      </trkpt>
      <trkpt lat="51.460291" lon="0.23213">
        <ele>5.00309</ele>
        <time>2024-08-10T20:43:24.000Z</time>
      </trkpt>
      <trkpt lat="51.460288" lon="0.232128">
        <ele>5.002353</ele>
        <time>2024-08-10T20:43:24.000Z</time>
      </trkpt>
      <trkpt lat="51.460255" lon="0.232098">
        <ele>4.987168</ele>
        <time>2024-08-10T20:43:24.000Z</time>
      </trkpt>
      <trkpt lat="51.460213" lon="0.232044">
        <ele>4.970431</ele>
        <time>2024-08-10T20:43:25.000Z</time>
      </trkpt>
      <trkpt lat="51.460147" lon="0.232041">
        <ele>4.946486</ele>
        <time>2024-08-10T20:43:26.000Z</time>
      </trkpt>
      <trkpt lat="51.459801" lon="0.231975">
        <ele>4.821366</ele>
        <time>2024-08-10T20:43:30.000Z</time>
      </trkpt>
      <trkpt lat="51.459461" lon="0.23152">
        <ele>4.858153</ele>
        <time>2024-08-10T20:43:35.000Z</time>
      </trkpt>
      <trkpt lat="51.459176" lon="0.231317">
        <ele>4.883486</ele>
        <time>2024-08-10T20:43:38.000Z</time>
      </trkpt>
      <trkpt lat="51.459063" lon="0.231313">
        <ele>4.892563</ele>
        <time>2024-08-10T20:43:39.000Z</time>
      </trkpt>
      <trkpt lat="51.459023" lon="0.231371">
        <ele>4.896604</ele>
        <time>2024-08-10T20:43:40.000Z</time>
      </trkpt>
      <trkpt lat="51.45898" lon="0.231386">
        <ele>4.900568</ele>
        <time>2024-08-10T20:43:40.000Z</time>
      </trkpt>
      <trkpt lat="51.458766" lon="0.231571">
        <ele>4.920215</ele>
        <time>2024-08-10T20:43:43.000Z</time>
      </trkpt>
      <trkpt lat="51.458708" lon="0.231632">
        <ele>4.924932</ele>
        <time>2024-08-10T20:43:44.000Z</time>
      </trkpt>
      <trkpt lat="51.458712" lon="0.231642">
        <ele>4.92521</ele>
        <time>2024-08-10T20:43:44.000Z</time>
      </trkpt>
      <trkpt lat="51.458704" lon="0.231635">
        <ele>4.925312</ele>
        <time>2024-08-10T20:43:44.000Z</time>
      </trkpt>
      <trkpt lat="51.4587" lon="0.231628">
        <ele>4.925504</ele>
        <time>2024-08-10T20:43:44.000Z</time>
      </trkpt>
      <trkpt lat="51.458713" lon="0.231646">
        <ele>4.9257</ele>
        <time>2024-08-10T20:43:44.000Z</time>
      </trkpt>
      <trkpt lat="51.458696" lon="0.231646">
        <ele>4.925789</ele>
        <time>2024-08-10T20:43:44.000Z</time>
      </trkpt>
      <trkpt lat="51.458703" lon="0.231638">
        <ele>4.92598</ele>
        <time>2024-08-10T20:43:44.000Z</time>
      </trkpt>
      <trkpt lat="51.458705" lon="0.23165">
        <ele>4.926115</ele>
        <time>2024-08-10T20:43:44.000Z</time>
      </trkpt>
      <trkpt lat="51.458711" lon="0.231643">
        <ele>4.926113</ele>
        <time>2024-08-10T20:43:44.000Z</time>
      </trkpt>
      <trkpt lat="51.458706" lon="0.231651">
        <ele>4.92621</ele>
        <time>2024-08-10T20:43:44.000Z</time>
      </trkpt>
      <trkpt lat="51.458705" lon="0.231657">
        <ele>4.926386</ele>
        <time>2024-08-10T20:43:44.000Z</time>
      </trkpt>
      <trkpt lat="51.458703" lon="0.231655">
        <ele>4.926519</ele>
        <time>2024-08-10T20:43:44.000Z</time>
      </trkpt>
      <trkpt lat="51.458696" lon="0.231651">
        <ele>4.926712</ele>
        <time>2024-08-10T20:43:44.000Z</time>
      </trkpt>
      <trkpt lat="51.458697" lon="0.231657">
        <ele>4.926841</ele>
        <time>2024-08-10T20:43:44.000Z</time>
      </trkpt>
      <trkpt lat="51.458192" lon="0.232572">
        <ele>5.133882</ele>
        <time>2024-08-10T20:43:52.000Z</time>
      </trkpt>
      <trkpt lat="51.45818" lon="0.232579">
        <ele>5.137982</ele>
        <time>2024-08-10T20:43:52.000Z</time>
      </trkpt>
      <trkpt lat="51.458179" lon="0.232583">
        <ele>5.140346</ele>
        <time>2024-08-10T20:43:52.000Z</time>
      </trkpt>
      <trkpt lat="51.458179" lon="0.232586">
        <ele>5.141142</ele>
        <time>2024-08-10T20:43:52.000Z</time>
      </trkpt>
      <trkpt lat="51.458177" lon="0.232592">
        <ele>5.141899</ele>
        <time>2024-08-10T20:43:52.000Z</time>
      </trkpt>
      <trkpt lat="51.458169" lon="0.232583">
        <ele>5.143268</ele>
        <time>2024-08-10T20:43:52.000Z</time>
      </trkpt>
      <trkpt lat="51.458185" lon="0.232594">
        <ele>5.144014</ele>
        <time>2024-08-10T20:43:52.000Z</time>
      </trkpt>
      <trkpt lat="51.458171" lon="0.232593">
        <ele>5.144784</ele>
        <time>2024-08-10T20:43:52.000Z</time>
      </trkpt>
      <trkpt lat="51.458176" lon="0.2326">
        <ele>5.145567</ele>
        <time>2024-08-10T20:43:52.000Z</time>
      </trkpt>
      <trkpt lat="51.458175" lon="0.232597">
        <ele>5.146604</ele>
        <time>2024-08-10T20:43:52.000Z</time>
      </trkpt>
      <trkpt lat="51.458168" lon="0.232604">
        <ele>5.147621</ele>
        <time>2024-08-10T20:43:52.000Z</time>
      </trkpt>
      <trkpt lat="51.458166" lon="0.232602">
        <ele>5.148647</ele>
        <time>2024-08-10T20:43:52.000Z</time>
      </trkpt>
      <trkpt lat="51.458182" lon="0.232606">
        <ele>5.14944</ele>
        <time>2024-08-10T20:43:52.000Z</time>
      </trkpt>
      <trkpt lat="51.458172" lon="0.232606">
        <ele>5.15047</ele>
        <time>2024-08-10T20:43:52.000Z</time>
      </trkpt>
      <trkpt lat="51.458164" lon="0.232611">
        <ele>5.151505</ele>
        <time>2024-08-10T20:43:52.000Z</time>
      </trkpt>
      <trkpt lat="51.458164" lon="0.232605">
        <ele>5.152529</ele>
        <time>2024-08-10T20:43:52.000Z</time>
      </trkpt>
      <trkpt lat="51.457782" lon="0.233623">
        <ele>5.626646</ele>
        <time>2024-08-10T20:44:00.000Z</time>
      </trkpt>
      <trkpt lat="51.457468" lon="0.234608">
        <ele>6.07038</ele>
        <time>2024-08-10T20:44:08.000Z</time>
      </trkpt>
      <trkpt lat="51.457478" lon="0.234611">
        <ele>6.070789</ele>
        <time>2024-08-10T20:44:08.000Z</time>
      </trkpt>
      <trkpt lat="51.457473" lon="0.234611">
        <ele>6.071537</ele>
        <time>2024-08-10T20:44:08.000Z</time>
      </trkpt>
      <trkpt lat="51.45748" lon="0.234624">
        <ele>6.072343</ele>
        <time>2024-08-10T20:44:08.000Z</time>
      </trkpt>
      <trkpt lat="51.457482" lon="0.234622">
        <ele>6.073146</ele>
        <time>2024-08-10T20:44:08.000Z</time>
      </trkpt>
      <trkpt lat="51.457478" lon="0.234626">
        <ele>6.073887</ele>
        <time>2024-08-10T20:44:08.000Z</time>
      </trkpt>
      <trkpt lat="51.457463" lon="0.234613">
        <ele>6.074694</ele>
        <time>2024-08-10T20:44:08.000Z</time>
      </trkpt>
      <trkpt lat="51.457477" lon="0.234615">
        <ele>6.076053</ele>
        <time>2024-08-10T20:44:08.000Z</time>
      </trkpt>
      <trkpt lat="51.457479" lon="0.234634">
        <ele>6.076848</ele>
        <time>2024-08-10T20:44:08.000Z</time>
      </trkpt>
      <trkpt lat="51.457478" lon="0.234628">
        <ele>6.077599</ele>
        <time>2024-08-10T20:44:08.000Z</time>
      </trkpt>
      <trkpt lat="51.457461" lon="0.234638">
        <ele>6.078814</ele>
        <time>2024-08-10T20:44:08.000Z</time>
      </trkpt>
      <trkpt lat="51.457478" lon="0.234628">
        <ele>6.079569</ele>
        <time>2024-08-10T20:44:08.000Z</time>
      </trkpt>
      <trkpt lat="51.457474" lon="0.234631">
        <ele>6.080753</ele>
        <time>2024-08-10T20:44:08.000Z</time>
      </trkpt>
      <trkpt lat="51.457459" lon="0.234646">
        <ele>6.082851</ele>
        <time>2024-08-10T20:44:08.000Z</time>
      </trkpt>
      <trkpt lat="51.456908" lon="0.236949">
        <ele>7.114057</ele>
        <time>2024-08-10T20:44:25.000Z</time>
      </trkpt>
      <trkpt lat="51.456902" lon="0.236966">
        <ele>7.127572</ele>
        <time>2024-08-10T20:44:25.000Z</time>
      </trkpt>
      <trkpt lat="51.456901" lon="0.236973">
        <ele>7.128989</ele>
        <time>2024-08-10T20:44:25.000Z</time>
      </trkpt>
      <trkpt lat="51.456895" lon="0.236965">
        <ele>7.130065</ele>
        <time>2024-08-10T20:44:25.000Z</time>
      </trkpt>
      <trkpt lat="51.456902" lon="0.236982">
        <ele>7.130898</ele>
        <time>2024-08-10T20:44:25.000Z</time>
      </trkpt>
      <trkpt lat="51.456911" lon="0.236974">
        <ele>7.131973</ele>
        <time>2024-08-10T20:44:25.000Z</time>
      </trkpt>
      <trkpt lat="51.456906" lon="0.236984">
        <ele>7.133037</ele>
        <time>2024-08-10T20:44:25.000Z</time>
      </trkpt>
      <trkpt lat="51.456908" lon="0.23699">
        <ele>7.13485</ele>
        <time>2024-08-10T20:44:25.000Z</time>
      </trkpt>
      <trkpt lat="51.456894" lon="0.236978">
        <ele>7.135643</ele>
        <time>2024-08-10T20:44:25.000Z</time>
      </trkpt>
      <trkpt lat="51.456896" lon="0.23698">
        <ele>7.136469</ele>
        <time>2024-08-10T20:44:25.000Z</time>
      </trkpt>
      <trkpt lat="51.456902" lon="0.236998">
        <ele>7.137553</ele>
        <time>2024-08-10T20:44:25.000Z</time>
      </trkpt>
      <trkpt lat="51.456557" lon="0.237947">
        <ele>7.661083</ele>
        <time>2024-08-10T20:44:33.000Z</time>
      </trkpt>
      <trkpt lat="51.456537" lon="0.237978">
        <ele>7.677387</ele>
        <time>2024-08-10T20:44:33.000Z</time>
      </trkpt>
      <trkpt lat="51.456534" lon="0.237966">
        <ele>7.680475</ele>
        <time>2024-08-10T20:44:33.000Z</time>
      </trkpt>
      <trkpt lat="51.456544" lon="0.237969">
        <ele>7.681452</ele>
        <time>2024-08-10T20:44:33.000Z</time>
      </trkpt>
      <trkpt lat="51.456535" lon="0.237976">
        <ele>7.683191</ele>
        <time>2024-08-10T20:44:33.000Z</time>
      </trkpt>
      <trkpt lat="51.456533" lon="0.237988">
        <ele>7.684524</ele>
        <time>2024-08-10T20:44:33.000Z</time>
      </trkpt>
      <trkpt lat="51.456544" lon="0.237986">
        <ele>7.686479</ele>
        <time>2024-08-10T20:44:33.000Z</time>
      </trkpt>
      <trkpt lat="51.456536" lon="0.237979">
        <ele>7.687813</ele>
        <time>2024-08-10T20:44:33.000Z</time>
      </trkpt>
      <trkpt lat="51.456544" lon="0.237978">
        <ele>7.689561</ele>
        <time>2024-08-10T20:44:33.000Z</time>
      </trkpt>
      <trkpt lat="51.456528" lon="0.237982">
        <ele>7.692211</ele>
        <time>2024-08-10T20:44:33.000Z</time>
      </trkpt>
      <trkpt lat="51.45653" lon="0.237998">
        <ele>7.693977</ele>
        <time>2024-08-10T20:44:33.000Z</time>
      </trkpt>
      <trkpt lat="51.456535" lon="0.237999">
        <ele>7.69494</ele>
        <time>2024-08-10T20:44:33.000Z</time>
      </trkpt>
      <trkpt lat="51.456527" lon="0.238006">
        <ele>7.696271</ele>
        <time>2024-08-10T20:44:33.000Z</time>
      </trkpt>
      <trkpt lat="51.456528" lon="0.237993">
        <ele>7.698032</ele>
        <time>2024-08-10T20:44:33.000Z</time>
      </trkpt>
      <trkpt lat="51.456089" lon="0.238925">
        <ele>8.302012</ele>
        <time>2024-08-10T20:44:41.000Z</time>
      </trkpt>
      <trkpt lat="51.455864" lon="0.239307">
        <ele>8.572124</ele>
        <time>2024-08-10T20:44:45.000Z</time>
      </trkpt>
      <trkpt lat="51.455863" lon="0.239293">
        <ele>8.574402</ele>
        <time>2024-08-10T20:44:45.000Z</time>
      </trkpt>
      <trkpt lat="51.455851" lon="0.239302">
        <ele>8.576358</ele>
        <time>2024-08-10T20:44:45.000Z</time>
      </trkpt>
      <trkpt lat="51.455859" lon="0.239305">
        <ele>8.578113</ele>
        <time>2024-08-10T20:44:45.000Z</time>
      </trkpt>
      <trkpt lat="51.455849" lon="0.239307">
        <ele>8.579085</ele>
        <time>2024-08-10T20:44:45.000Z</time>
      </trkpt>
      <trkpt lat="51.455844" lon="0.239312">
        <ele>8.580072</ele>
        <time>2024-08-10T20:44:45.000Z</time>
      </trkpt>
      <trkpt lat="51.455847" lon="0.239305">
        <ele>8.581385</ele>
        <time>2024-08-10T20:44:45.000Z</time>
      </trkpt>
      <trkpt lat="51.455852" lon="0.239306">
        <ele>8.582709</ele>
        <time>2024-08-10T20:44:45.000Z</time>
      </trkpt>
      <trkpt lat="51.455851" lon="0.239318">
        <ele>8.583685</ele>
        <time>2024-08-10T20:44:45.000Z</time>
      </trkpt>
      <trkpt lat="51.455839" lon="0.23931">
        <ele>8.585022</ele>
        <time>2024-08-10T20:44:45.000Z</time>
      </trkpt>
      <trkpt lat="51.455771" lon="0.239447">
        <ele>8.673925</ele>
        <time>2024-08-10T20:44:46.000Z</time>
      </trkpt>
      <trkpt lat="51.455131" lon="0.240236">
        <ele>8.94986</ele>
        <time>2024-08-10T20:44:55.000Z</time>
      </trkpt>
      <trkpt lat="51.455121" lon="0.240241">
        <ele>8.950644</ele>
        <time>2024-08-10T20:44:55.000Z</time>
      </trkpt>
      <trkpt lat="51.455125" lon="0.240242">
        <ele>8.950878</ele>
        <time>2024-08-10T20:44:55.000Z</time>
      </trkpt>
      <trkpt lat="51.455124" lon="0.240241">
        <ele>8.951115</ele>
        <time>2024-08-10T20:44:55.000Z</time>
      </trkpt>
      <trkpt lat="51.455113" lon="0.240239">
        <ele>8.951339</ele>
        <time>2024-08-10T20:44:55.000Z</time>
      </trkpt>
      <trkpt lat="51.455121" lon="0.240244">
        <ele>8.951593</ele>
        <time>2024-08-10T20:44:55.000Z</time>
      </trkpt>
      <trkpt lat="51.45511" lon="0.240242">
        <ele>8.951828</ele>
        <time>2024-08-10T20:44:55.000Z</time>
      </trkpt>
      <trkpt lat="51.455122" lon="0.240244">
        <ele>8.952369</ele>
        <time>2024-08-10T20:44:55.000Z</time>
      </trkpt>
      <trkpt lat="51.455115" lon="0.240257">
        <ele>8.952612</ele>
        <time>2024-08-10T20:44:55.000Z</time>
      </trkpt>
      <trkpt lat="51.455104" lon="0.240245">
        <ele>8.952923</ele>
        <time>2024-08-10T20:44:55.000Z</time>
      </trkpt>
      <trkpt lat="51.455105" lon="0.240252">
        <ele>8.953407</ele>
        <time>2024-08-10T20:44:55.000Z</time>
      </trkpt>
      <trkpt lat="51.45511" lon="0.240258">
        <ele>8.953963</ele>
        <time>2024-08-10T20:44:55.000Z</time>
      </trkpt>
      <trkpt lat="51.455111" lon="0.240256">
        <ele>8.954434</ele>
        <time>2024-08-10T20:44:55.000Z</time>
      </trkpt>
      <trkpt lat="51.455107" lon="0.240252">
        <ele>8.954659</ele>
        <time>2024-08-10T20:44:55.000Z</time>
      </trkpt>
      <trkpt lat="51.455074" lon="0.240295">
        <ele>8.960464</ele>
        <time>2024-08-10T20:44:55.000Z</time>
      </trkpt>
      <trkpt lat="51.454687" lon="0.240612">
        <ele>9.050091</ele>
        <time>2024-08-10T20:45:00.000Z</time>
      </trkpt>
      <trkpt lat="51.454617" lon="0.240675">
        <ele>9.067812</ele>
        <time>2024-08-10T20:45:01.000Z</time>
      </trkpt>
      <trkpt lat="51.454606" lon="0.240693">
        <ele>9.068243</ele>
        <time>2024-08-10T20:45:01.000Z</time>
      </trkpt>
      <trkpt lat="51.454603" lon="0.240686">
        <ele>9.068717</ele>
        <time>2024-08-10T20:45:01.000Z</time>
      </trkpt>
      <trkpt lat="51.454609" lon="0.240681">
        <ele>9.068948</ele>
        <time>2024-08-10T20:45:01.000Z</time>
      </trkpt>
      <trkpt lat="51.454612" lon="0.240682">
        <ele>9.068948</ele>
        <time>2024-08-10T20:45:01.000Z</time>
      </trkpt>
      <trkpt lat="51.454608" lon="0.240692">
        <ele>9.068943</ele>
        <time>2024-08-10T20:45:01.000Z</time>
      </trkpt>
      <trkpt lat="51.45512" lon="0.240233">
        <ele>9.169226</ele>
        <time>2024-08-10T20:45:08.000Z</time>
      </trkpt>
      <trkpt lat="51.455111" lon="0.240239">
        <ele>9.169222</ele>
        <time>2024-08-10T20:45:08.000Z</time>
      </trkpt>
      <trkpt lat="51.455478" lon="0.239765">
        <ele>8.829484</ele>
        <time>2024-08-10T20:45:13.000Z</time>
      </trkpt>
      <trkpt lat="51.455859" lon="0.239293">
        <ele>8.48973</ele>
        <time>2024-08-10T20:45:18.000Z</time>
      </trkpt>
      <trkpt lat="51.455847" lon="0.239297">
        <ele>8.489738</ele>
        <time>2024-08-10T20:45:18.000Z</time>
      </trkpt>
      <trkpt lat="51.456198" lon="0.238632">
        <ele>8.10042</ele>
        <time>2024-08-10T20:45:24.000Z</time>
      </trkpt>
      <trkpt lat="51.456548" lon="0.237984">
        <ele>7.712506</ele>
        <time>2024-08-10T20:45:30.000Z</time>
      </trkpt>
      <trkpt lat="51.456543" lon="0.237982">
        <ele>7.712496</ele>
        <time>2024-08-10T20:45:30.000Z</time>
      </trkpt>
      <trkpt lat="51.456905" lon="0.236968">
        <ele>7.194254</ele>
        <time>2024-08-10T20:45:38.000Z</time>
      </trkpt>
      <trkpt lat="51.456904" lon="0.236981">
        <ele>7.194259</ele>
        <time>2024-08-10T20:45:38.000Z</time>
      </trkpt>
      <trkpt lat="51.45719" lon="0.235792">
        <ele>6.628254</ele>
        <time>2024-08-10T20:45:47.000Z</time>
      </trkpt>
      <trkpt lat="51.457478" lon="0.234618">
        <ele>6.087767</ele>
        <time>2024-08-10T20:45:56.000Z</time>
      </trkpt>
      <trkpt lat="51.457467" lon="0.234621">
        <ele>6.087766</ele>
        <time>2024-08-10T20:45:56.000Z</time>
      </trkpt>
      <trkpt lat="51.457823" lon="0.2336">
        <ele>5.592256</ele>
        <time>2024-08-10T20:46:04.000Z</time>
      </trkpt>
      <trkpt lat="51.458169" lon="0.232589">
        <ele>5.306634</ele>
        <time>2024-08-10T20:46:12.000Z</time>
      </trkpt>
      <trkpt lat="51.458179" lon="0.232601">
        <ele>5.306632</ele>
        <time>2024-08-10T20:46:12.000Z</time>
      </trkpt>
      <trkpt lat="51.458718" lon="0.231643">
        <ele>5.204419</ele>
        <time>2024-08-10T20:46:21.000Z</time>
      </trkpt>
      <trkpt lat="51.458701" lon="0.231626">
        <ele>5.204404</ele>
        <time>2024-08-10T20:46:21.000Z</time>
      </trkpt>
      <trkpt lat="51.458718" lon="0.231637">
        <ele>5.204415</ele>
        <time>2024-08-10T20:46:21.000Z</time>
      </trkpt>
      <trkpt lat="51.45911" lon="0.231235">
        <ele>5.144546</ele>
        <time>2024-08-10T20:46:26.000Z</time>
      </trkpt>
      <trkpt lat="51.459096" lon="0.231237">
        <ele>5.144552</ele>
        <time>2024-08-10T20:46:26.000Z</time>
      </trkpt>
      <trkpt lat="51.459095" lon="0.231219">
        <ele>5.144544</ele>
        <time>2024-08-10T20:46:26.000Z</time>
      </trkpt>
      <trkpt lat="51.459156" lon="0.230628">
        <ele>5.227311</ele>
        <time>2024-08-10T20:46:30.000Z</time>
      </trkpt>
      <trkpt lat="51.459154" lon="0.230619">
        <ele>5.22731</ele>
        <time>2024-08-10T20:46:30.000Z</time>
      </trkpt>
      <trkpt lat="51.459157" lon="0.230636">
        <ele>5.227304</ele>
        <time>2024-08-10T20:46:30.000Z</time>
      </trkpt>
      <trkpt lat="51.459281" lon="0.229848">
        <ele>5.456207</ele>
        <time>2024-08-10T20:46:36.000Z</time>
      </trkpt>
      <trkpt lat="51.459405" lon="0.229059">
        <ele>5.684936</ele>
        <time>2024-08-10T20:46:42.000Z</time>
      </trkpt>
      <trkpt lat="51.459396" lon="0.22906">
        <ele>5.684931</ele>
        <time>2024-08-10T20:46:42.000Z</time>
      </trkpt>
      <trkpt lat="51.4594" lon="0.229071">
        <ele>5.684928</ele>
        <time>2024-08-10T20:46:42.000Z</time>
      </trkpt>
      <trkpt lat="51.459453" lon="0.228178">
        <ele>5.939086</ele>
        <time>2024-08-10T20:46:48.000Z</time>
      </trkpt>
      <trkpt lat="51.459489" lon="0.227277">
        <ele>6.097176</ele>
        <time>2024-08-10T20:46:54.000Z</time>
      </trkpt>
      <trkpt lat="51.459503" lon="0.227292">
        <ele>6.097171</ele>
        <time>2024-08-10T20:46:54.000Z</time>
      </trkpt>
      <trkpt lat="51.459484" lon="0.226106">
        <ele>6.303191</ele>
        <time>2024-08-10T20:47:02.000Z</time>
      </trkpt>
      <trkpt lat="51.459457" lon="0.224915">
        <ele>6.448553</ele>
        <time>2024-08-10T20:47:10.000Z</time>
      </trkpt>
      <trkpt lat="51.459442" lon="0.223726">
        <ele>6.453468</ele>
        <time>2024-08-10T20:47:18.000Z</time>
      </trkpt>
      <trkpt lat="51.459449" lon="0.223723">
        <ele>6.453459</ele>
        <time>2024-08-10T20:47:18.000Z</time>
      </trkpt>
      <trkpt lat="51.459399" lon="0.222662">
        <ele>6.457911</ele>
        <time>2024-08-10T20:47:25.000Z</time>
      </trkpt>
      <trkpt lat="51.459345" lon="0.22159">
        <ele>6.448676</ele>
        <time>2024-08-10T20:47:32.000Z</time>
      </trkpt>
      <trkpt lat="51.459305" lon="0.220534">
        <ele>6.434737</ele>
        <time>2024-08-10T20:47:39.000Z</time>
      </trkpt>
      <trkpt lat="51.459293" lon="0.220523">
        <ele>6.434714</ele>
        <time>2024-08-10T20:47:39.000Z</time>
      </trkpt>
      <trkpt lat="51.459292" lon="0.220539">
        <ele>6.434646</ele>
        <time>2024-08-10T20:47:39.000Z</time>
      </trkpt>
      <trkpt lat="51.459301" lon="0.220531">
        <ele>6.434593</ele>
        <time>2024-08-10T20:47:39.000Z</time>
      </trkpt>
      <trkpt lat="51.459302" lon="0.220539">
        <ele>6.434542</ele>
        <time>2024-08-10T20:47:39.000Z</time>
      </trkpt>
      <trkpt lat="51.45931" lon="0.221239">
        <ele>6.425496</ele>
        <time>2024-08-10T20:47:44.000Z</time>
      </trkpt>
      <trkpt lat="51.459445" lon="0.223707">
        <ele>6.494757</ele>
        <time>2024-08-10T20:48:01.000Z</time>
      </trkpt>
      <trkpt lat="51.459501" lon="0.227307">
        <ele>6.460365</ele>
        <time>2024-08-10T20:48:26.000Z</time>
      </trkpt>
      <trkpt lat="51.45948" lon="0.228241">
        <ele>6.087382</ele>
        <time>2024-08-10T20:48:32.000Z</time>
      </trkpt>
      <trkpt lat="51.459371" lon="0.229407">
        <ele>5.606165</ele>
        <time>2024-08-10T20:48:40.000Z</time>
      </trkpt>
      <trkpt lat="51.459299" lon="0.229778">
        <ele>5.450796</ele>
        <time>2024-08-10T20:48:43.000Z</time>
      </trkpt>
      <trkpt lat="51.459163" lon="0.230429">
        <ele>5.255303</ele>
        <time>2024-08-10T20:48:48.000Z</time>
      </trkpt>
      <trkpt lat="51.459139" lon="0.230711">
        <ele>5.21792</ele>
        <time>2024-08-10T20:48:50.000Z</time>
      </trkpt>
      <trkpt lat="51.459128" lon="0.230976">
        <ele>5.183867</ele>
        <time>2024-08-10T20:48:52.000Z</time>
      </trkpt>
      <trkpt lat="51.459139" lon="0.231013">
        <ele>5.179169</ele>
        <time>2024-08-10T20:48:52.000Z</time>
      </trkpt>
      <trkpt lat="51.459228" lon="0.231117">
        <ele>5.155558</ele>
        <time>2024-08-10T20:48:53.000Z</time>
      </trkpt>
      <trkpt lat="51.459481" lon="0.231345">
        <ele>5.093585</ele>
        <time>2024-08-10T20:48:56.000Z</time>
      </trkpt>
      <trkpt lat="51.459779" lon="0.23179">
        <ele>5.004426</ele>
        <time>2024-08-10T20:49:01.000Z</time>
      </trkpt>
      <trkpt lat="51.460021" lon="0.231908">
        <ele>4.953725</ele>
        <time>2024-08-10T20:49:04.000Z</time>
      </trkpt>
      <trkpt lat="51.46013" lon="0.231882">
        <ele>4.929188</ele>
        <time>2024-08-10T20:49:05.000Z</time>
      </trkpt>
      <trkpt lat="51.460194" lon="0.231814">
        <ele>4.912392</ele>
        <time>2024-08-10T20:49:06.000Z</time>
      </trkpt>
      <trkpt lat="51.460228" lon="0.231756">
        <ele>4.935632</ele>
        <time>2024-08-10T20:49:07.000Z</time>
      </trkpt>
      <trkpt lat="51.460264" lon="0.231704">
        <ele>4.960309</ele>
        <time>2024-08-10T20:49:08.000Z</time>
      </trkpt>
      <trkpt lat="51.460309" lon="0.231678">
        <ele>4.991932</ele>
        <time>2024-08-10T20:49:09.000Z</time>
      </trkpt>
      <trkpt lat="51.460375" lon="0.231672">
        <ele>5.022851</ele>
        <time>2024-08-10T20:49:10.000Z</time>
      </trkpt>
      <trkpt lat="51.460423" lon="0.231707">
        <ele>5.047358</ele>
        <time>2024-08-10T20:49:11.000Z</time>
      </trkpt>
      <trkpt lat="51.460456" lon="0.231761">
        <ele>5.071486</ele>
        <time>2024-08-10T20:49:12.000Z</time>
      </trkpt>
      <trkpt lat="51.460542" lon="0.23181">
        <ele>5.124447</ele>
        <time>2024-08-10T20:49:13.000Z</time>
      </trkpt>
      <trkpt lat="51.46066" lon="0.231862">
        <ele>5.180307</ele>
        <time>2024-08-10T20:49:14.000Z</time>
      </trkpt>
      <trkpt lat="51.460771" lon="0.231902">
        <ele>5.245801</ele>
        <time>2024-08-10T20:49:15.000Z</time>
      </trkpt>
      <trkpt lat="51.461356" lon="0.231961">
        <ele>5.53795</ele>
        <time>2024-08-10T20:49:22.000Z</time>
      </trkpt>
      <trkpt lat="51.461416" lon="0.231959">
        <ele>5.575466</ele>
        <time>2024-08-10T20:49:23.000Z</time>
      </trkpt>
      <trkpt lat="51.461466" lon="0.231834">
        <ele>5.621652</ele>
        <time>2024-08-10T20:49:24.000Z</time>
      </trkpt>
      <trkpt lat="51.461531" lon="0.2316">
        <ele>5.703279</ele>
        <time>2024-08-10T20:49:26.000Z</time>
      </trkpt>
      <trkpt lat="51.461571" lon="0.231339">
        <ele>5.788134</ele>
        <time>2024-08-10T20:49:28.000Z</time>
      </trkpt>
      <trkpt lat="51.461603" lon="0.231128">
        <ele>5.863068</ele>
        <time>2024-08-10T20:49:30.000Z</time>
      </trkpt>
      <trkpt lat="51.461678" lon="0.230509">
        <ele>6.137181</ele>
        <time>2024-08-10T20:49:34.000Z</time>
      </trkpt>
      <trkpt lat="51.461852" lon="0.22691">
        <ele>7.434375</ele>
        <time>2024-08-10T20:49:59.000Z</time>
      </trkpt>
      <trkpt lat="51.461859" lon="0.226723">
        <ele>7.481028</ele>
        <time>2024-08-10T20:50:00.000Z</time>
      </trkpt>
      <trkpt lat="51.461846" lon="0.226357">
        <ele>7.574367</ele>
        <time>2024-08-10T20:50:03.000Z</time>
      </trkpt>
      <trkpt lat="51.461822" lon="0.226206">
        <ele>7.615207</ele>
        <time>2024-08-10T20:50:04.000Z</time>
      </trkpt>
      <trkpt lat="51.460972" lon="0.224083">
        <ele>7.710835</ele>
        <time>2024-08-10T20:50:21.000Z</time>
      </trkpt>
      <trkpt lat="51.460787" lon="0.223754">
        <ele>7.686391</ele>
        <time>2024-08-10T20:50:24.000Z</time>
      </trkpt>
      <trkpt lat="51.460528" lon="0.223443">
        <ele>7.656629</ele>
        <time>2024-08-10T20:50:28.000Z</time>
      </trkpt>
      <trkpt lat="51.460502" lon="0.223418">
        <ele>7.653733</ele>
        <time>2024-08-10T20:50:28.000Z</time>
      </trkpt>
      <trkpt lat="51.460504" lon="0.223404">
        <ele>7.65282</ele>
        <time>2024-08-10T20:50:28.000Z</time>
      </trkpt>
      <trkpt lat="51.460492" lon="0.223407">
        <ele>7.652816</ele>
        <time>2024-08-10T20:50:28.000Z</time>
      </trkpt>
      <trkpt lat="51.460504" lon="0.223416">
        <ele>7.652812</ele>
        <time>2024-08-10T20:50:28.000Z</time>
      </trkpt>
      <trkpt lat="51.460513" lon="0.223407">
        <ele>7.651889</ele>
        <time>2024-08-10T20:50:28.000Z</time>
      </trkpt>
      <trkpt lat="51.460538" lon="0.223448">
        <ele>7.649006</ele>
        <time>2024-08-10T20:50:28.000Z</time>
      </trkpt>
      <trkpt lat="51.460805" lon="0.223755">
        <ele>7.675514</ele>
        <time>2024-08-10T20:50:32.000Z</time>
      </trkpt>
      <trkpt lat="51.460966" lon="0.224093">
        <ele>7.699316</ele>
        <time>2024-08-10T20:50:35.000Z</time>
      </trkpt>
      <trkpt lat="51.461825" lon="0.226214">
        <ele>7.633451</ele>
        <time>2024-08-10T20:50:53.000Z</time>
      </trkpt>
      <trkpt lat="51.461837" lon="0.226358">
        <ele>7.585973</ele>
        <time>2024-08-10T20:50:54.000Z</time>
      </trkpt>
      <trkpt lat="51.461866" lon="0.22672">
        <ele>7.477501</ele>
        <time>2024-08-10T20:50:57.000Z</time>
      </trkpt>
      <trkpt lat="51.461844" lon="0.226902">
        <ele>7.423278</ele>
        <time>2024-08-10T20:50:58.000Z</time>
      </trkpt>
      <trkpt lat="51.461678" lon="0.23051">
        <ele>6.132497</ele>
        <time>2024-08-10T20:51:23.000Z</time>
      </trkpt>
      <trkpt lat="51.461616" lon="0.231132">
        <ele>5.8722</ele>
        <time>2024-08-10T20:51:27.000Z</time>
      </trkpt>
      <trkpt lat="51.461581" lon="0.231352">
        <ele>5.785846</ele>
        <time>2024-08-10T20:51:29.000Z</time>
      </trkpt>
      <trkpt lat="51.461519" lon="0.231597">
        <ele>5.744226</ele>
        <time>2024-08-10T20:51:31.000Z</time>
      </trkpt>
      <trkpt lat="51.461457" lon="0.231829">
        <ele>5.712266</ele>
        <time>2024-08-10T20:51:33.000Z</time>
      </trkpt>
      <trkpt lat="51.461424" lon="0.231953">
        <ele>5.694162</ele>
        <time>2024-08-10T20:51:34.000Z</time>
      </trkpt>
      <trkpt lat="51.46139" lon="0.232056">
        <ele>5.679628</ele>
        <time>2024-08-10T20:51:35.000Z</time>
      </trkpt>
      <trkpt lat="51.461325" lon="0.232257">
        <ele>5.652785</ele>
        <time>2024-08-10T20:51:37.000Z</time>
      </trkpt>
      <trkpt lat="51.46126" lon="0.232397">
        <ele>5.630102</ele>
        <time>2024-08-10T20:51:38.000Z</time>
      </trkpt>
      <trkpt lat="51.460676" lon="0.233728">
        <ele>5.426338</ele>
        <time>2024-08-10T20:51:49.000Z</time>
      </trkpt>
      <trkpt lat="51.460341" lon="0.235041">
        <ele>5.079537</ele>
        <time>2024-08-10T20:51:59.000Z</time>
      </trkpt>
      <trkpt lat="51.460313" lon="0.235219">
        <ele>5.034128</ele>
        <time>2024-08-10T20:52:00.000Z</time>
      </trkpt>
      <trkpt lat="51.460271" lon="0.235737">
        <ele>4.899962</ele>
        <time>2024-08-10T20:52:04.000Z</time>
      </trkpt>
      <trkpt lat="51.460284" lon="0.235745">
        <ele>4.89895</ele>
        <time>2024-08-10T20:52:04.000Z</time>
      </trkpt>
      <trkpt lat="51.460245" lon="0.236057">
        <ele>4.816663</ele>
        <time>2024-08-10T20:52:06.000Z</time>
      </trkpt>
      <trkpt lat="51.460251" lon="0.237585">
        <ele>4.453709</ele>
        <time>2024-08-10T20:52:17.000Z</time>
      </trkpt>
      <trkpt lat="51.460213" lon="0.238164">
        <ele>4.319557</ele>
        <time>2024-08-10T20:52:21.000Z</time>
      </trkpt>
      <trkpt lat="51.460104" lon="0.238645">
        <ele>4.205</ele>
        <time>2024-08-10T20:52:25.000Z</time>
      </trkpt>
      <trkpt lat="51.460096" lon="0.238696">
        <ele>4.191426</ele>
        <time>2024-08-10T20:52:25.000Z</time>
      </trkpt>
      <trkpt lat="51.460054" lon="0.238854">
        <ele>4.151164</ele>
        <time>2024-08-10T20:52:26.000Z</time>
      </trkpt>
      <trkpt lat="51.459596" lon="0.240148">
        <ele>4.025558</ele>
        <time>2024-08-10T20:52:36.000Z</time>
      </trkpt>
      <trkpt lat="51.45931" lon="0.240724">
        <ele>4.036</ele>
        <time>2024-08-10T20:52:41.000Z</time>
      </trkpt>
      <trkpt lat="51.4586" lon="0.241561">
        <ele>4.05079</ele>
        <time>2024-08-10T20:52:51.000Z</time>
      </trkpt>
      <trkpt lat="51.458565" lon="0.241609">
        <ele>4.049251</ele>
        <time>2024-08-10T20:52:52.000Z</time>
      </trkpt>
      <trkpt lat="51.458613" lon="0.241557">
        <ele>4.047725</ele>
        <time>2024-08-10T20:52:53.000Z</time>
      </trkpt>
      <trkpt lat="51.459303" lon="0.240737">
        <ele>4.022514</ele>
        <time>2024-08-10T20:53:03.000Z</time>
      </trkpt>
      <trkpt lat="51.459597" lon="0.24015">
        <ele>4.009076</ele>
        <time>2024-08-10T20:53:08.000Z</time>
      </trkpt>
      <trkpt lat="51.460052" lon="0.238843">
        <ele>4.188681</ele>
        <time>2024-08-10T20:53:18.000Z</time>
      </trkpt>
      <trkpt lat="51.460087" lon="0.238688">
        <ele>4.219205</ele>
        <time>2024-08-10T20:53:19.000Z</time>
      </trkpt>
      <trkpt lat="51.460117" lon="0.238637">
        <ele>4.229491</ele>
        <time>2024-08-10T20:53:19.000Z</time>
      </trkpt>
      <trkpt lat="51.460206" lon="0.238153">
        <ele>4.316351</ele>
        <time>2024-08-10T20:53:22.000Z</time>
      </trkpt>
      <trkpt lat="51.460254" lon="0.237575">
        <ele>4.418066</ele>
        <time>2024-08-10T20:53:26.000Z</time>
      </trkpt>
      <trkpt lat="51.460257" lon="0.236056">
        <ele>4.807347</ele>
        <time>2024-08-10T20:53:37.000Z</time>
      </trkpt>
      <trkpt lat="51.46027" lon="0.235743">
        <ele>4.90282</ele>
        <time>2024-08-10T20:53:39.000Z</time>
      </trkpt>
      <trkpt lat="51.460281" lon="0.235745">
        <ele>4.903987</ele>
        <time>2024-08-10T20:53:39.000Z</time>
      </trkpt>
      <trkpt lat="51.46032" lon="0.235225">
        <ele>5.059659</ele>
        <time>2024-08-10T20:53:43.000Z</time>
      </trkpt>
      <trkpt lat="51.460342" lon="0.235046">
        <ele>5.112365</ele>
        <time>2024-08-10T20:53:44.000Z</time>
      </trkpt>
      <trkpt lat="51.460685" lon="0.233724">
        <ele>5.370044</ele>
        <time>2024-08-10T20:53:54.000Z</time>
      </trkpt>
      <trkpt lat="51.461258" lon="0.232396">
        <ele>5.403928</ele>
        <time>2024-08-10T20:54:05.000Z</time>
      </trkpt>
      <trkpt lat="51.461312" lon="0.232257">
        <ele>5.407695</ele>
        <time>2024-08-10T20:54:06.000Z</time>
      </trkpt>
      <trkpt lat="51.461379" lon="0.232071">
        <ele>5.412154</ele>
        <time>2024-08-10T20:54:07.000Z</time>
      </trkpt>
      <trkpt lat="51.461425" lon="0.231953">
        <ele>5.414572</ele>
        <time>2024-08-10T20:54:08.000Z</time>
      </trkpt>
      <trkpt lat="51.461392" lon="0.231964">
        <ele>5.41554</ele>
        <time>2024-08-10T20:54:08.000Z</time>
      </trkpt>
      <trkpt lat="51.461397" lon="0.231958">
        <ele>5.415615</ele>
        <time>2024-08-10T20:54:08.000Z</time>
      </trkpt>
      <trkpt lat="51.461384" lon="0.231964">
        <ele>5.415683</ele>
        <time>2024-08-10T20:54:08.000Z</time>
      </trkpt>
      <trkpt lat="51.461388" lon="0.231958">
        <ele>5.415708</ele>
        <time>2024-08-10T20:54:08.000Z</time>
      </trkpt>
      <trkpt lat="51.461388" lon="0.231958">
        <ele>5.415782</ele>
        <time>2024-08-10T20:54:08.000Z</time>
      </trkpt>
      <trkpt lat="51.461382" lon="0.231961">
        <ele>5.415819</ele>
        <time>2024-08-10T20:54:08.000Z</time>
      </trkpt>
      <trkpt lat="51.461378" lon="0.231962">
        <ele>5.415886</ele>
        <time>2024-08-10T20:54:08.000Z</time>
      </trkpt>
      <trkpt lat="51.461345" lon="0.231953">
        <ele>5.417021</ele>
        <time>2024-08-10T20:54:08.000Z</time>
      </trkpt>
      <trkpt lat="51.46078" lon="0.231903">
        <ele>5.219781</ele>
        <time>2024-08-10T20:54:14.000Z</time>
      </trkpt>
      <trkpt lat="51.460703" lon="0.231902">
        <ele>5.189691</ele>
        <time>2024-08-10T20:54:15.000Z</time>
      </trkpt>
      <trkpt lat="51.460635" lon="0.231913">
        <ele>5.169488</ele>
        <time>2024-08-10T20:54:16.000Z</time>
      </trkpt>
      <trkpt lat="51.460562" lon="0.231924">
        <ele>5.142593</ele>
        <time>2024-08-10T20:54:17.000Z</time>
      </trkpt>
      <trkpt lat="51.460477" lon="0.231981">
        <ele>5.104193</ele>
        <time>2024-08-10T20:54:18.000Z</time>
      </trkpt>
      <trkpt lat="51.460461" lon="0.232052">
        <ele>5.088662</ele>
        <time>2024-08-10T20:54:19.000Z</time>
      </trkpt>
      <trkpt lat="51.460383" lon="0.232117">
        <ele>5.057942</ele>
        <time>2024-08-10T20:54:20.000Z</time>
      </trkpt>
      <trkpt lat="51.460342" lon="0.232146">
        <ele>5.042542</ele>
        <time>2024-08-10T20:54:20.000Z</time>
      </trkpt>
      <trkpt lat="51.460297" lon="0.232127">
        <ele>5.027844</ele>
        <time>2024-08-10T20:54:21.000Z</time>
      </trkpt>
      <trkpt lat="51.460307" lon="0.232139">
        <ele>5.02673</ele>
        <time>2024-08-10T20:54:21.000Z</time>
      </trkpt>
      <trkpt lat="51.460291" lon="0.232127">
        <ele>5.025617</ele>
        <time>2024-08-10T20:54:21.000Z</time>
      </trkpt>
      <trkpt lat="51.460297" lon="0.232138">
        <ele>5.025257</ele>
        <time>2024-08-10T20:54:21.000Z</time>
      </trkpt>
      <trkpt lat="51.460302" lon="0.232123">
        <ele>5.025256</ele>
        <time>2024-08-10T20:54:21.000Z</time>
      </trkpt>
      <trkpt lat="51.460287" lon="0.232125">
        <ele>5.024815</ele>
        <time>2024-08-10T20:54:21.000Z</time>
      </trkpt>
      <trkpt lat="51.46029" lon="0.232127">
        <ele>5.024385</ele>
        <time>2024-08-10T20:54:21.000Z</time>
      </trkpt>
      <trkpt lat="51.46029" lon="0.232134">
        <ele>5.023628</ele>
        <time>2024-08-10T20:54:21.000Z</time>
      </trkpt>
      <trkpt lat="51.460248" lon="0.232095">
        <ele>5.008068</ele>
        <time>2024-08-10T20:54:22.000Z</time>
      </trkpt>
      <trkpt lat="51.46022" lon="0.232058">
        <ele>4.990909</ele>
        <time>2024-08-10T20:54:22.000Z</time>
      </trkpt>
      <trkpt lat="51.460156" lon="0.232056">
        <ele>4.966383</ele>
        <time>2024-08-10T20:54:23.000Z</time>
      </trkpt>
      <trkpt lat="51.459806" lon="0.231966">
        <ele>4.837912</ele>
        <time>2024-08-10T20:54:27.000Z</time>
      </trkpt>
      <trkpt lat="51.459453" lon="0.231506">
        <ele>4.802909</ele>
        <time>2024-08-10T20:54:32.000Z</time>
      </trkpt>
      <trkpt lat="51.459164" lon="0.231318">
        <ele>4.860325</ele>
        <time>2024-08-10T20:54:35.000Z</time>
      </trkpt>
      <trkpt lat="51.459051" lon="0.231319">
        <ele>4.880897</ele>
        <time>2024-08-10T20:54:36.000Z</time>
      </trkpt>
      <trkpt lat="51.459022" lon="0.231357">
        <ele>4.890058</ele>
        <time>2024-08-10T20:54:36.000Z</time>
      </trkpt>
      <trkpt lat="51.458964" lon="0.231388">
        <ele>4.899034</ele>
        <time>2024-08-10T20:54:37.000Z</time>
      </trkpt>
      <trkpt lat="51.458755" lon="0.231589">
        <ele>4.943574</ele>
        <time>2024-08-10T20:54:40.000Z</time>
      </trkpt>
      <trkpt lat="51.45872" lon="0.231629">
        <ele>4.954255</ele>
        <time>2024-08-10T20:54:40.000Z</time>
      </trkpt>
      <trkpt lat="51.458706" lon="0.231637">
        <ele>4.954901</ele>
        <time>2024-08-10T20:54:40.000Z</time>
      </trkpt>
      <trkpt lat="51.458715" lon="0.231629">
        <ele>4.955125</ele>
        <time>2024-08-10T20:54:40.000Z</time>
      </trkpt>
      <trkpt lat="51.458704" lon="0.231635">
        <ele>4.955561</ele>
        <time>2024-08-10T20:54:40.000Z</time>
      </trkpt>
      <trkpt lat="51.458707" lon="0.231631">
        <ele>4.955997</ele>
        <time>2024-08-10T20:54:40.000Z</time>
      </trkpt>
      <trkpt lat="51.458705" lon="0.231631">
        <ele>4.956227</ele>
        <time>2024-08-10T20:54:40.000Z</time>
      </trkpt>
      <trkpt lat="51.458702" lon="0.231642">
        <ele>4.956658</ele>
        <time>2024-08-10T20:54:40.000Z</time>
      </trkpt>
      <trkpt lat="51.45871" lon="0.231653">
        <ele>4.956943</ele>
        <time>2024-08-10T20:54:40.000Z</time>
      </trkpt>
      <trkpt lat="51.458703" lon="0.231637">
        <ele>4.956959</ele>
        <time>2024-08-10T20:54:40.000Z</time>
      </trkpt>
      <trkpt lat="51.458699" lon="0.231646">
        <ele>4.957173</ele>
        <time>2024-08-10T20:54:40.000Z</time>
      </trkpt>
      <trkpt lat="51.458692" lon="0.23164">
        <ele>4.957561</ele>
        <time>2024-08-10T20:54:40.000Z</time>
      </trkpt>
      <trkpt lat="51.458695" lon="0.231656">
        <ele>4.957856</ele>
        <time>2024-08-10T20:54:40.000Z</time>
      </trkpt>
      <trkpt lat="51.458689" lon="0.231653">
        <ele>4.958299</ele>
        <time>2024-08-10T20:54:40.000Z</time>
      </trkpt>
      <trkpt lat="51.458703" lon="0.231649">
        <ele>4.9586</ele>
        <time>2024-08-10T20:54:40.000Z</time>
      </trkpt>
      <trkpt lat="51.458191" lon="0.232576">
        <ele>5.120265</ele>
        <time>2024-08-10T20:54:49.000Z</time>
      </trkpt>
      <trkpt lat="51.458189" lon="0.232573">
        <ele>5.124371</ele>
        <time>2024-08-10T20:54:49.000Z</time>
      </trkpt>
      <trkpt lat="51.458183" lon="0.232586">
        <ele>5.126755</ele>
        <time>2024-08-10T20:54:49.000Z</time>
      </trkpt>
      <trkpt lat="51.458184" lon="0.232584">
        <ele>5.127553</ele>
        <time>2024-08-10T20:54:49.000Z</time>
      </trkpt>
      <trkpt lat="51.458183" lon="0.232586">
        <ele>5.128313</ele>
        <time>2024-08-10T20:54:49.000Z</time>
      </trkpt>
      <trkpt lat="51.458169" lon="0.232598">
        <ele>5.129671</ele>
        <time>2024-08-10T20:54:49.000Z</time>
      </trkpt>
      <trkpt lat="51.458174" lon="0.232584">
        <ele>5.130431</ele>
        <time>2024-08-10T20:54:49.000Z</time>
      </trkpt>
      <trkpt lat="51.45817" lon="0.232591">
        <ele>5.131186</ele>
        <time>2024-08-10T20:54:49.000Z</time>
      </trkpt>
      <trkpt lat="51.458187" lon="0.232599">
        <ele>5.131986</ele>
        <time>2024-08-10T20:54:49.000Z</time>
      </trkpt>
      <trkpt lat="51.458181" lon="0.232599">
        <ele>5.133009</ele>
        <time>2024-08-10T20:54:49.000Z</time>
      </trkpt>
      <trkpt lat="51.458167" lon="0.232607">
        <ele>5.134025</ele>
        <time>2024-08-10T20:54:49.000Z</time>
      </trkpt>
      <trkpt lat="51.458181" lon="0.232597">
        <ele>5.135063</ele>
        <time>2024-08-10T20:54:49.000Z</time>
      </trkpt>
      <trkpt lat="51.458184" lon="0.232597">
        <ele>5.135862</ele>
        <time>2024-08-10T20:54:49.000Z</time>
      </trkpt>
      <trkpt lat="51.458182" lon="0.232607">
        <ele>5.136883</ele>
        <time>2024-08-10T20:54:49.000Z</time>
      </trkpt>
      <trkpt lat="51.458175" lon="0.232599">
        <ele>5.137915</ele>
        <time>2024-08-10T20:54:49.000Z</time>
      </trkpt>
      <trkpt lat="51.458181" lon="0.232611">
        <ele>5.138922</ele>
        <time>2024-08-10T20:54:49.000Z</time>
      </trkpt>
      <trkpt lat="51.45779" lon="0.233616">
        <ele>5.613438</ele>
        <time>2024-08-10T20:54:57.000Z</time>
      </trkpt>
      <trkpt lat="51.457481" lon="0.234607">
        <ele>6.05756</ele>
        <time>2024-08-10T20:55:05.000Z</time>
      </trkpt>
      <trkpt lat="51.457466" lon="0.234616">
        <ele>6.057957</ele>
        <time>2024-08-10T20:55:05.000Z</time>
      </trkpt>
      <trkpt lat="51.457469" lon="0.234615">
        <ele>6.058703</ele>
        <time>2024-08-10T20:55:05.000Z</time>
      </trkpt>
      <trkpt lat="51.457476" lon="0.234612">
        <ele>6.059502</ele>
        <time>2024-08-10T20:55:05.000Z</time>
      </trkpt>
      <trkpt lat="51.457474" lon="0.234621">
        <ele>6.060304</ele>
        <time>2024-08-10T20:55:05.000Z</time>
      </trkpt>
      <trkpt lat="51.457467" lon="0.234621">
        <ele>6.06106</ele>
        <time>2024-08-10T20:55:05.000Z</time>
      </trkpt>
      <trkpt lat="51.457475" lon="0.234612">
        <ele>6.061865</ele>
        <time>2024-08-10T20:55:05.000Z</time>
      </trkpt>
      <trkpt lat="51.457477" lon="0.234619">
        <ele>6.06323</ele>
        <time>2024-08-10T20:55:05.000Z</time>
      </trkpt>
      <trkpt lat="51.457471" lon="0.234622">
        <ele>6.064019</ele>
        <time>2024-08-10T20:55:05.000Z</time>
      </trkpt>
      <trkpt lat="51.457474" lon="0.234621">
        <ele>6.064777</ele>
        <time>2024-08-10T20:55:05.000Z</time>
      </trkpt>
      <trkpt lat="51.457462" lon="0.234622">
        <ele>6.065986</ele>
        <time>2024-08-10T20:55:05.000Z</time>
      </trkpt>
      <trkpt lat="51.457473" lon="0.234628">
        <ele>6.066739</ele>
        <time>2024-08-10T20:55:05.000Z</time>
      </trkpt>
      <trkpt lat="51.457475" lon="0.234636">
        <ele>6.067944</ele>
        <time>2024-08-10T20:55:05.000Z</time>
      </trkpt>
      <trkpt lat="51.457464" lon="0.234644">
        <ele>6.07004</ele>
        <time>2024-08-10T20:55:05.000Z</time>
      </trkpt>
      <trkpt lat="51.45691" lon="0.23695">
        <ele>7.134183</ele>
        <time>2024-08-10T20:55:22.000Z</time>
      </trkpt>
      <trkpt lat="51.456907" lon="0.236961">
        <ele>7.148312</ele>
        <time>2024-08-10T20:55:22.000Z</time>
      </trkpt>
      <trkpt lat="51.456906" lon="0.236978">
        <ele>7.149797</ele>
        <time>2024-08-10T20:55:22.000Z</time>
      </trkpt>
      <trkpt lat="51.456903" lon="0.236968">
        <ele>7.150922</ele>
        <time>2024-08-10T20:55:22.000Z</time>
      </trkpt>
      <trkpt lat="51.456903" lon="0.236967">
        <ele>7.1518</ele>
        <time>2024-08-10T20:55:22.000Z</time>
      </trkpt>
      <trkpt lat="51.4569" lon="0.236969">
        <ele>7.152923</ele>
        <time>2024-08-10T20:55:22.000Z</time>
      </trkpt>
      <trkpt lat="51.456904" lon="0.236977">
        <ele>7.154053</ele>
        <time>2024-08-10T20:55:22.000Z</time>
      </trkpt>
      <trkpt lat="51.456905" lon="0.236977">
        <ele>7.155946</ele>
        <time>2024-08-10T20:55:22.000Z</time>
      </trkpt>
      <trkpt lat="51.456905" lon="0.236982">
        <ele>7.156773</ele>
        <time>2024-08-10T20:55:22.000Z</time>
      </trkpt>
      <trkpt lat="51.45689" lon="0.236984">
        <ele>7.157649</ele>
        <time>2024-08-10T20:55:22.000Z</time>
      </trkpt>
      <trkpt lat="51.456891" lon="0.236997">
        <ele>7.158757</ele>
        <time>2024-08-10T20:55:22.000Z</time>
      </trkpt>
      <trkpt lat="51.456564" lon="0.237948">
        <ele>7.659344</ele>
        <time>2024-08-10T20:55:30.000Z</time>
      </trkpt>
      <trkpt lat="51.456543" lon="0.237968">
        <ele>7.675145</ele>
        <time>2024-08-10T20:55:30.000Z</time>
      </trkpt>
      <trkpt lat="51.456538" lon="0.23797">
        <ele>7.678114</ele>
        <time>2024-08-10T20:55:30.000Z</time>
      </trkpt>
      <trkpt lat="51.456551" lon="0.23797">
        <ele>7.679075</ele>
        <time>2024-08-10T20:55:30.000Z</time>
      </trkpt>
      <trkpt lat="51.456532" lon="0.237972">
        <ele>7.680772</ele>
        <time>2024-08-10T20:55:30.000Z</time>
      </trkpt>
      <trkpt lat="51.456536" lon="0.237987">
        <ele>7.682059</ele>
        <time>2024-08-10T20:55:30.000Z</time>
      </trkpt>
      <trkpt lat="51.456543" lon="0.237981">
        <ele>7.683953</ele>
        <time>2024-08-10T20:55:30.000Z</time>
      </trkpt>
      <trkpt lat="51.456544" lon="0.237992">
        <ele>7.685239</ele>
        <time>2024-08-10T20:55:30.000Z</time>
      </trkpt>
      <trkpt lat="51.456534" lon="0.237983">
        <ele>7.686929</ele>
        <time>2024-08-10T20:55:30.000Z</time>
      </trkpt>
      <trkpt lat="51.456533" lon="0.237987">
        <ele>7.689511</ele>
        <time>2024-08-10T20:55:30.000Z</time>
      </trkpt>
      <trkpt lat="51.456539" lon="0.237988">
        <ele>7.691205</ele>
        <time>2024-08-10T20:55:30.000Z</time>
      </trkpt>
      <trkpt lat="51.456541" lon="0.237997">
        <ele>7.692162</ele>
        <time>2024-08-10T20:55:30.000Z</time>
      </trkpt>
      <trkpt lat="51.456533" lon="0.238004">
        <ele>7.693433</ele>
        <time>2024-08-10T20:55:30.000Z</time>
      </trkpt>
      <trkpt lat="51.456523" lon="0.237994">
        <ele>7.695134</ele>
        <time>2024-08-10T20:55:30.000Z</time>
      </trkpt>
      <trkpt lat="51.45608" lon="0.238918">
        <ele>8.280386</ele>
        <time>2024-08-10T20:55:38.000Z</time>
      </trkpt>
      <trkpt lat="51.455865" lon="0.239302">
        <ele>8.542129</ele>
        <time>2024-08-10T20:55:42.000Z</time>
      </trkpt>
      <trkpt lat="51.455857" lon="0.239295">
        <ele>8.544329</ele>
        <time>2024-08-10T20:55:42.000Z</time>
      </trkpt>
      <trkpt lat="51.455854" lon="0.239311">
        <ele>8.546207</ele>
        <time>2024-08-10T20:55:42.000Z</time>
      </trkpt>
      <trkpt lat="51.45585" lon="0.239314">
        <ele>8.547908</ele>
        <time>2024-08-10T20:55:42.000Z</time>
      </trkpt>
      <trkpt lat="51.455858" lon="0.239312">
        <ele>8.548855</ele>
        <time>2024-08-10T20:55:42.000Z</time>
      </trkpt>
      <trkpt lat="51.455854" lon="0.239305">
        <ele>8.549811</ele>
        <time>2024-08-10T20:55:42.000Z</time>
      </trkpt>
      <trkpt lat="51.455855" lon="0.239305">
        <ele>8.551099</ele>
        <time>2024-08-10T20:55:42.000Z</time>
      </trkpt>
      <trkpt lat="51.455845" lon="0.23932">
        <ele>8.552369</ele>
        <time>2024-08-10T20:55:42.000Z</time>
      </trkpt>
      <trkpt lat="51.455838" lon="0.239311">
        <ele>8.553317</ele>
        <time>2024-08-10T20:55:42.000Z</time>
      </trkpt>
      <trkpt lat="51.45585" lon="0.239311">
        <ele>8.5546</ele>
        <time>2024-08-10T20:55:42.000Z</time>
      </trkpt>
      <trkpt lat="51.455774" lon="0.239442">
        <ele>8.640766</ele>
        <time>2024-08-10T20:55:43.000Z</time>
      </trkpt>
      <trkpt lat="51.455119" lon="0.240238">
        <ele>8.972805</ele>
        <time>2024-08-10T20:55:52.000Z</time>
      </trkpt>
      <trkpt lat="51.455114" lon="0.240235">
        <ele>8.972966</ele>
        <time>2024-08-10T20:55:52.000Z</time>
      </trkpt>
      <trkpt lat="51.455123" lon="0.240238">
        <ele>8.973008</ele>
        <time>2024-08-10T20:55:52.000Z</time>
      </trkpt>
      <trkpt lat="51.455121" lon="0.240239">
        <ele>8.973048</ele>
        <time>2024-08-10T20:55:52.000Z</time>
      </trkpt>
      <trkpt lat="51.455116" lon="0.240234">
        <ele>8.973089</ele>
        <time>2024-08-10T20:55:52.000Z</time>
      </trkpt>
      <trkpt lat="51.455117" lon="0.240251">
        <ele>8.973127</ele>
        <time>2024-08-10T20:55:52.000Z</time>
      </trkpt>
      <trkpt lat="51.455114" lon="0.240248">
        <ele>8.973173</ele>
        <time>2024-08-10T20:55:52.000Z</time>
      </trkpt>
      <trkpt lat="51.455111" lon="0.240249">
        <ele>8.973281</ele>
        <time>2024-08-10T20:55:52.000Z</time>
      </trkpt>
      <trkpt lat="51.455112" lon="0.240258">
        <ele>8.973336</ele>
        <time>2024-08-10T20:55:52.000Z</time>
      </trkpt>
      <trkpt lat="51.455114" lon="0.240257">
        <ele>8.973382</ele>
        <time>2024-08-10T20:55:52.000Z</time>
      </trkpt>
      <trkpt lat="51.455102" lon="0.240249">
        <ele>8.973488</ele>
        <time>2024-08-10T20:55:52.000Z</time>
      </trkpt>
      <trkpt lat="51.455105" lon="0.240254">
        <ele>8.973587</ele>
        <time>2024-08-10T20:55:52.000Z</time>
      </trkpt>
      <trkpt lat="51.455114" lon="0.240259">
        <ele>8.973669</ele>
        <time>2024-08-10T20:55:52.000Z</time>
      </trkpt>
      <trkpt lat="51.455095" lon="0.240255">
        <ele>8.973711</ele>
        <time>2024-08-10T20:55:52.000Z</time>
      </trkpt>
      <trkpt lat="51.455072" lon="0.240284">
        <ele>8.974825</ele>
        <time>2024-08-10T20:55:52.000Z</time>
      </trkpt>
      <trkpt lat="51.454693" lon="0.240609">
        <ele>8.991769</ele>
        <time>2024-08-10T20:55:57.000Z</time>
      </trkpt>
      <trkpt lat="51.454607" lon="0.240677">
        <ele>8.995135</ele>
        <time>2024-08-10T20:55:58.000Z</time>
      </trkpt>
      <trkpt lat="51.454599" lon="0.240693">
        <ele>8.995206</ele>
        <time>2024-08-10T20:55:58.000Z</time>
      </trkpt>
      <trkpt lat="51.454601" lon="0.24068">
        <ele>8.9953</ele>
        <time>2024-08-10T20:55:58.000Z</time>
      </trkpt>
      <trkpt lat="51.454601" lon="0.240692">
        <ele>8.995301</ele>
        <time>2024-08-10T20:55:58.000Z</time>
      </trkpt>
      <trkpt lat="51.454596" lon="0.240679">
        <ele>8.995302</ele>
        <time>2024-08-10T20:55:58.000Z</time>
      </trkpt>
      <trkpt lat="51.455107" lon="0.240263">
        <ele>9.017006</ele>
        <time>2024-08-10T20:56:04.000Z</time>
      </trkpt>
      <trkpt lat="51.455113" lon="0.240251">
        <ele>9.016999</ele>
        <time>2024-08-10T20:56:04.000Z</time>
      </trkpt>
      <trkpt lat="51.455481" lon="0.239772">
        <ele>8.835596</ele>
        <time>2024-08-10T20:56:09.000Z</time>
      </trkpt>
      <trkpt lat="51.455851" lon="0.239299">
        <ele>8.489632</ele>
        <time>2024-08-10T20:56:14.000Z</time>
      </trkpt>
      <trkpt lat="51.455847" lon="0.239302">
        <ele>8.489627</ele>
        <time>2024-08-10T20:56:14.000Z</time>
      </trkpt>
      <trkpt lat="51.456188" lon="0.238634">
        <ele>8.100515</ele>
        <time>2024-08-10T20:56:20.000Z</time>
      </trkpt>
      <trkpt lat="51.456534" lon="0.237992">
        <ele>7.711828</ele>
        <time>2024-08-10T20:56:26.000Z</time>
      </trkpt>
      <trkpt lat="51.456541" lon="0.237987">
        <ele>7.711833</ele>
        <time>2024-08-10T20:56:26.000Z</time>
      </trkpt>
      <trkpt lat="51.456894" lon="0.23698">
        <ele>7.192749</ele>
        <time>2024-08-10T20:56:34.000Z</time>
      </trkpt>
      <trkpt lat="51.456905" lon="0.23698">
        <ele>7.192739</ele>
        <time>2024-08-10T20:56:34.000Z</time>
      </trkpt>
      <trkpt lat="51.457183" lon="0.235799">
        <ele>6.628306</ele>
        <time>2024-08-10T20:56:43.000Z</time>
      </trkpt>
      <trkpt lat="51.457464" lon="0.234625">
        <ele>6.08253</ele>
        <time>2024-08-10T20:56:52.000Z</time>
      </trkpt>
      <trkpt lat="51.457461" lon="0.234626">
        <ele>6.082525</ele>
        <time>2024-08-10T20:56:52.000Z</time>
      </trkpt>
      <trkpt lat="51.457828" lon="0.233616">
        <ele>5.586966</ele>
        <time>2024-08-10T20:57:00.000Z</time>
      </trkpt>
      <trkpt lat="51.458173" lon="0.232595">
        <ele>5.200068</ele>
        <time>2024-08-10T20:57:08.000Z</time>
      </trkpt>
      <trkpt lat="51.45817" lon="0.232588">
        <ele>5.200065</ele>
        <time>2024-08-10T20:57:08.000Z</time>
      </trkpt>
      <trkpt lat="51.45817" lon="0.232587">
        <ele>5.200069</ele>
        <time>2024-08-10T20:57:08.000Z</time>
      </trkpt>
      <trkpt lat="51.458715" lon="0.231638">
        <ele>5.193111</ele>
        <time>2024-08-10T20:57:17.000Z</time>
      </trkpt>
      <trkpt lat="51.458707" lon="0.231634">
        <ele>5.193112</ele>
        <time>2024-08-10T20:57:17.000Z</time>
      </trkpt>
      <trkpt lat="51.458697" lon="0.231644">
        <ele>5.193115</ele>
        <time>2024-08-10T20:57:17.000Z</time>
      </trkpt>
      <trkpt lat="51.459102" lon="0.231219">
        <ele>5.188959</ele>
        <time>2024-08-10T20:57:22.000Z</time>
      </trkpt>
      <trkpt lat="51.459112" lon="0.231225">
        <ele>5.188951</ele>
        <time>2024-08-10T20:57:22.000Z</time>
      </trkpt>
      <trkpt lat="51.459098" lon="0.231225">
        <ele>5.188968</ele>
        <time>2024-08-10T20:57:22.000Z</time>
      </trkpt>
      <trkpt lat="51.459145" lon="0.230612">
        <ele>5.192743</ele>
        <time>2024-08-10T20:57:26.000Z</time>
      </trkpt>
      <trkpt lat="51.459158" lon="0.23061">
        <ele>5.19275</ele>
        <time>2024-08-10T20:57:26.000Z</time>
      </trkpt>
      <trkpt lat="51.459149" lon="0.230612">
        <ele>5.192757</ele>
        <time>2024-08-10T20:57:26.000Z</time>
      </trkpt>
      <trkpt lat="51.459277" lon="0.229851">
        <ele>5.427873</ele>
        <time>2024-08-10T20:57:31.000Z</time>
      </trkpt>
      <trkpt lat="51.459403" lon="0.229075">
        <ele>5.662859</ele>
        <time>2024-08-10T20:57:37.000Z</time>
      </trkpt>
      <trkpt lat="51.459393" lon="0.229074">
        <ele>5.662859</ele>
        <time>2024-08-10T20:57:37.000Z</time>
      </trkpt>
      <trkpt lat="51.459402" lon="0.229071">
        <ele>5.662872</ele>
        <time>2024-08-10T20:57:37.000Z</time>
      </trkpt>
      <trkpt lat="51.459449" lon="0.228177">
        <ele>5.927677</ele>
        <time>2024-08-10T20:57:43.000Z</time>
      </trkpt>
      <trkpt lat="51.459506" lon="0.227289">
        <ele>6.115659</ele>
        <time>2024-08-10T20:57:49.000Z</time>
      </trkpt>
      <trkpt lat="51.459495" lon="0.227282">
        <ele>6.115663</ele>
        <time>2024-08-10T20:57:49.000Z</time>
      </trkpt>
      <trkpt lat="51.459478" lon="0.226104">
        <ele>6.29209</ele>
        <time>2024-08-10T20:57:57.000Z</time>
      </trkpt>
      <trkpt lat="51.459465" lon="0.224919">
        <ele>6.468268</ele>
        <time>2024-08-10T20:58:05.000Z</time>
      </trkpt>
      <trkpt lat="51.459438" lon="0.223745">
        <ele>6.459414</ele>
        <time>2024-08-10T20:58:13.000Z</time>
      </trkpt>
      <trkpt lat="51.459433" lon="0.223738">
        <ele>6.459401</ele>
        <time>2024-08-10T20:58:13.000Z</time>
      </trkpt>
      <trkpt lat="51.4594" lon="0.222674">
        <ele>6.451371</ele>
        <time>2024-08-10T20:58:20.000Z</time>
      </trkpt>
      <trkpt lat="51.459337" lon="0.221612">
        <ele>6.444328</ele>
        <time>2024-08-10T20:58:27.000Z</time>
      </trkpt>
      <trkpt lat="51.459307" lon="0.220546">
        <ele>6.438713</ele>
        <time>2024-08-10T20:58:34.000Z</time>
      </trkpt>
      <trkpt lat="51.459325" lon="0.221233">
        <ele>6.435083</ele>
        <time>2024-08-10T20:58:39.000Z</time>
      </trkpt>
      <trkpt lat="51.459433" lon="0.223709">
        <ele>6.493032</ele>
        <time>2024-08-10T20:58:56.000Z</time>
      </trkpt>
      <trkpt lat="51.459504" lon="0.2273">
        <ele>6.393271</ele>
        <time>2024-08-10T20:59:21.000Z</time>
      </trkpt>
      <trkpt lat="51.459475" lon="0.228229">
        <ele>6.14006</ele>
        <time>2024-08-10T20:59:27.000Z</time>
      </trkpt>
      <trkpt lat="51.45936" lon="0.229407">
        <ele>5.637271</ele>
        <time>2024-08-10T20:59:35.000Z</time>
      </trkpt>
      <trkpt lat="51.459297" lon="0.229786">
        <ele>5.474918</ele>
        <time>2024-08-10T20:59:38.000Z</time>
      </trkpt>
      <trkpt lat="51.459169" lon="0.230444">
        <ele>5.185118</ele>
        <time>2024-08-10T20:59:43.000Z</time>
      </trkpt>
      <trkpt lat="51.459145" lon="0.23072">
        <ele>5.14295</ele>
        <time>2024-08-10T20:59:45.000Z</time>
      </trkpt>
      <trkpt lat="51.459138" lon="0.230963">
        <ele>5.127702</ele>
        <time>2024-08-10T20:59:47.000Z</time>
      </trkpt>
      <trkpt lat="51.459145" lon="0.231">
        <ele>5.125587</ele>
        <time>2024-08-10T20:59:47.000Z</time>
      </trkpt>
      <trkpt lat="51.459217" lon="0.231114">
        <ele>5.115013</ele>
        <time>2024-08-10T20:59:48.000Z</time>
      </trkpt>
      <trkpt lat="51.459474" lon="0.231338">
        <ele>5.087274</ele>
        <time>2024-08-10T20:59:51.000Z</time>
      </trkpt>
      <trkpt lat="51.459795" lon="0.231793">
        <ele>5.047329</ele>
        <time>2024-08-10T20:59:56.000Z</time>
      </trkpt>
      <trkpt lat="51.460022" lon="0.231905">
        <ele>5.024623</ele>
        <time>2024-08-10T20:59:59.000Z</time>
      </trkpt>
      <trkpt lat="51.460127" lon="0.231878">
        <ele>5.013648</ele>
        <time>2024-08-10T21:00:00.000Z</time>
      </trkpt>
      <trkpt lat="51.460204" lon="0.231824">
        <ele>5.006128</ele>
        <time>2024-08-10T21:00:01.000Z</time>
      </trkpt>
      <trkpt lat="51.460227" lon="0.231756">
        <ele>5.001576</ele>
        <time>2024-08-10T21:00:02.000Z</time>
      </trkpt>
      <trkpt lat="51.46025" lon="0.231696">
        <ele>4.996982</ele>
        <time>2024-08-10T21:00:02.000Z</time>
      </trkpt>
      <trkpt lat="51.460319" lon="0.231663">
        <ele>4.991122</ele>
        <time>2024-08-10T21:00:03.000Z</time>
      </trkpt>
      <trkpt lat="51.460372" lon="0.231684">
        <ele>4.985369</ele>
        <time>2024-08-10T21:00:04.000Z</time>
      </trkpt>
      <trkpt lat="51.460424" lon="0.231716">
        <ele>5.001108</ele>
        <time>2024-08-10T21:00:05.000Z</time>
      </trkpt>
      <trkpt lat="51.460449" lon="0.231757">
        <ele>5.027249</ele>
        <time>2024-08-10T21:00:05.000Z</time>
      </trkpt>
      <trkpt lat="51.460543" lon="0.231814">
        <ele>5.084629</ele>
        <time>2024-08-10T21:00:06.000Z</time>
      </trkpt>
      <trkpt lat="51.460656" lon="0.231861">
        <ele>5.145134</ele>
        <time>2024-08-10T21:00:07.000Z</time>
      </trkpt>
      <trkpt lat="51.460779" lon="0.2319">
        <ele>5.216097</ele>
        <time>2024-08-10T21:00:08.000Z</time>
      </trkpt>
      <trkpt lat="51.461353" lon="0.231958">
        <ele>5.532566</ele>
        <time>2024-08-10T21:00:14.000Z</time>
      </trkpt>
      <trkpt lat="51.46142" lon="0.231958">
        <ele>5.573195</ele>
        <time>2024-08-10T21:00:15.000Z</time>
      </trkpt>
      <trkpt lat="51.461459" lon="0.231834">
        <ele>5.623247</ele>
        <time>2024-08-10T21:00:16.000Z</time>
      </trkpt>
      <trkpt lat="51.461516" lon="0.231601">
        <ele>5.711668</ele>
        <time>2024-08-10T21:00:18.000Z</time>
      </trkpt>
      <trkpt lat="51.46157" lon="0.231345">
        <ele>5.803594</ele>
        <time>2024-08-10T21:00:20.000Z</time>
      </trkpt>
      <trkpt lat="51.461609" lon="0.231138">
        <ele>5.877581</ele>
        <time>2024-08-10T21:00:21.000Z</time>
      </trkpt>
      <trkpt lat="51.461667" lon="0.230508">
        <ele>6.128808</ele>
        <time>2024-08-10T21:00:25.000Z</time>
      </trkpt>
      <trkpt lat="51.461862" lon="0.226899">
        <ele>7.439231</ele>
        <time>2024-08-10T21:00:50.000Z</time>
      </trkpt>
      <trkpt lat="51.461863" lon="0.226727">
        <ele>7.47503</ele>
        <time>2024-08-10T21:00:51.000Z</time>
      </trkpt>
      <trkpt lat="51.461854" lon="0.226368">
        <ele>7.546631</ele>
        <time>2024-08-10T21:00:53.000Z</time>
      </trkpt>
      <trkpt lat="51.461825" lon="0.2262">
        <ele>7.577962</ele>
        <time>2024-08-10T21:00:54.000Z</time>
      </trkpt>
      <trkpt lat="51.460972" lon="0.224088">
        <ele>7.729863</ele>
        <time>2024-08-10T21:01:11.000Z</time>
      </trkpt>
      <trkpt lat="51.460802" lon="0.223757">
        <ele>7.707648</ele>
        <time>2024-08-10T21:01:14.000Z</time>
      </trkpt>
      <trkpt lat="51.460541" lon="0.223435">
        <ele>7.680585</ele>
        <time>2024-08-10T21:01:18.000Z</time>
      </trkpt>
      <trkpt lat="51.460507" lon="0.22341">
        <ele>7.677952</ele>
        <time>2024-08-10T21:01:18.000Z</time>
      </trkpt>
      <trkpt lat="51.460491" lon="0.223404">
        <ele>7.677106</ele>
        <time>2024-08-10T21:01:18.000Z</time>
      </trkpt>
      <trkpt lat="51.460494" lon="0.223406">
        <ele>7.677117</ele>
        <time>2024-08-10T21:01:18.000Z</time>
      </trkpt>
      <trkpt lat="51.460494" lon="0.223404">
        <ele>7.677113</ele>
        <time>2024-08-10T21:01:18.000Z</time>
      </trkpt>
      <trkpt lat="51.460501" lon="0.223414">
        <ele>7.676273</ele>
        <time>2024-08-10T21:01:18.000Z</time>
      </trkpt>
      <trkpt lat="51.46054" lon="0.223449">
        <ele>7.673652</ele>
        <time>2024-08-10T21:01:18.000Z</time>
      </trkpt>
      <trkpt lat="51.460802" lon="0.223766">
        <ele>7.659281</ele>
        <time>2024-08-10T21:01:22.000Z</time>
      </trkpt>
      <trkpt lat="51.460975" lon="0.224085">
        <ele>7.677924</ele>
        <time>2024-08-10T21:01:25.000Z</time>
      </trkpt>
      <trkpt lat="51.461812" lon="0.226213">
        <ele>7.706145</ele>
        <time>2024-08-10T21:01:42.000Z</time>
      </trkpt>
      <trkpt lat="51.461854" lon="0.226353">
        <ele>7.650579</ele>
        <time>2024-08-10T21:01:43.000Z</time>
      </trkpt>
      <trkpt lat="51.461861" lon="0.226727">
        <ele>7.523608</ele>
        <time>2024-08-10T21:01:46.000Z</time>
      </trkpt>
      <trkpt lat="51.461857" lon="0.226899">
        <ele>7.46015</ele>
        <time>2024-08-10T21:01:47.000Z</time>
      </trkpt>
      <trkpt lat="51.461665" lon="0.230502">
        <ele>6.157696</ele>
        <time>2024-08-10T21:02:12.000Z</time>
      </trkpt>
      <trkpt lat="51.461613" lon="0.231144">
        <ele>5.917098</ele>
        <time>2024-08-10T21:02:16.000Z</time>
      </trkpt>
      <trkpt lat="51.461583" lon="0.231346">
        <ele>5.8373</ele>
        <time>2024-08-10T21:02:17.000Z</time>
      </trkpt>
      <trkpt lat="51.461527" lon="0.231591">
        <ele>5.738133</ele>
        <time>2024-08-10T21:02:19.000Z</time>
      </trkpt>
      <trkpt lat="51.461459" lon="0.231837">
        <ele>5.673569</ele>
        <time>2024-08-10T21:02:21.000Z</time>
      </trkpt>
      <trkpt lat="51.461418" lon="0.231959">
        <ele>5.657512</ele>
        <time>2024-08-10T21:02:22.000Z</time>
      </trkpt>
      <trkpt lat="51.461386" lon="0.232055">
        <ele>5.644631</ele>
        <time>2024-08-10T21:02:23.000Z</time>
      </trkpt>
      <trkpt lat="51.461313" lon="0.232241">
        <ele>5.620831</ele>
        <time>2024-08-10T21:02:25.000Z</time>
      </trkpt>
      <trkpt lat="51.461257" lon="0.232407">
        <ele>5.600722</ele>
        <time>2024-08-10T21:02:26.000Z</time>
      </trkpt>
      <trkpt lat="51.460676" lon="0.233728">
        <ele>5.420031</ele>
        <time>2024-08-10T21:02:37.000Z</time>
      </trkpt>
      <trkpt lat="51.460334" lon="0.235047">
        <ele>5.099323</ele>
        <time>2024-08-10T21:02:47.000Z</time>
      </trkpt>
      <trkpt lat="51.460328" lon="0.235225">
        <ele>5.048339</ele>
        <time>2024-08-10T21:02:48.000Z</time>
      </trkpt>
      <trkpt lat="51.460277" lon="0.235737">
        <ele>4.897702</ele>
        <time>2024-08-10T21:02:52.000Z</time>
      </trkpt>
      <trkpt lat="51.460284" lon="0.235745">
        <ele>4.896569</ele>
        <time>2024-08-10T21:02:52.000Z</time>
      </trkpt>
      <trkpt lat="51.460253" lon="0.23607">
        <ele>4.804187</ele>
        <time>2024-08-10T21:02:54.000Z</time>
      </trkpt>
      <trkpt lat="51.460261" lon="0.23759">
        <ele>4.428819</ele>
        <time>2024-08-10T21:03:05.000Z</time>
      </trkpt>
      <trkpt lat="51.460207" lon="0.238154">
        <ele>4.320077</ele>
        <time>2024-08-10T21:03:09.000Z</time>
      </trkpt>
      <trkpt lat="51.460108" lon="0.238641">
        <ele>4.227217</ele>
        <time>2024-08-10T21:03:13.000Z</time>
      </trkpt>
      <trkpt lat="51.460094" lon="0.238699">
        <ele>4.216222</ele>
        <time>2024-08-10T21:03:13.000Z</time>
      </trkpt>
      <trkpt lat="51.460058" lon="0.238847">
        <ele>4.183593</ele>
        <time>2024-08-10T21:03:14.000Z</time>
      </trkpt>
      <trkpt lat="51.459612" lon="0.240162">
        <ele>4.011883</ele>
        <time>2024-08-10T21:03:24.000Z</time>
      </trkpt>
      <trkpt lat="51.459299" lon="0.240728">
        <ele>4.025705</ele>
        <time>2024-08-10T21:03:29.000Z</time>
      </trkpt>
      <trkpt lat="51.458608" lon="0.24156">
        <ele>4.05166</ele>
        <time>2024-08-10T21:03:39.000Z</time>
      </trkpt>
      <trkpt lat="51.458557" lon="0.241614">
        <ele>4.053234</ele>
        <time>2024-08-10T21:03:40.000Z</time>
      </trkpt>
      <trkpt lat="51.458552" lon="0.241603">
        <ele>4.053308</ele>
        <time>2024-08-10T21:03:40.000Z</time>
      </trkpt>
      <trkpt lat="51.458545" lon="0.241612">
        <ele>4.053357</ele>
        <time>2024-08-10T21:03:40.000Z</time>
      </trkpt>
      <trkpt lat="51.458545" lon="0.241607">
        <ele>4.053436</ele>
        <time>2024-08-10T21:03:40.000Z</time>
      </trkpt>
      <trkpt lat="51.458554" lon="0.24162">
        <ele>4.053475</ele>
        <time>2024-08-10T21:03:40.000Z</time>
      </trkpt>
      <trkpt lat="51.458541" lon="0.241624">
        <ele>4.053536</ele>
        <time>2024-08-10T21:03:40.000Z</time>
      </trkpt>
      <trkpt lat="51.458545" lon="0.241616">
        <ele>4.053679</ele>
        <time>2024-08-10T21:03:40.000Z</time>
      </trkpt>
      <trkpt lat="51.458546" lon="0.241624">
        <ele>4.053817</ele>
        <time>2024-08-10T21:03:40.000Z</time>
      </trkpt>
      <trkpt lat="51.458545" lon="0.241617">
        <ele>4.053885</ele>
        <time>2024-08-10T21:03:40.000Z</time>
      </trkpt>
      <trkpt lat="51.458548" lon="0.241619">
        <ele>4.053927</ele>
        <time>2024-08-10T21:03:40.000Z</time>
      </trkpt>
      <trkpt lat="51.458548" lon="0.241611">
        <ele>4.053998</ele>
        <time>2024-08-10T21:03:40.000Z</time>
      </trkpt>
      <trkpt lat="51.458554" lon="0.241613">
        <ele>4.054052</ele>
        <time>2024-08-10T21:03:40.000Z</time>
      </trkpt>
      <trkpt lat="51.458549" lon="0.241601">
        <ele>4.054122</ele>
        <time>2024-08-10T21:03:40.000Z</time>
      </trkpt>
      <trkpt lat="51.458595" lon="0.241555">
        <ele>4.055711</ele>
        <time>2024-08-10T21:03:41.000Z</time>
      </trkpt>
      <trkpt lat="51.459311" lon="0.240724">
        <ele>4.032267</ele>
        <time>2024-08-10T21:03:51.000Z</time>
      </trkpt>
      <trkpt lat="51.459605" lon="0.24015">
        <ele>4.019729</ele>
        <time>2024-08-10T21:03:56.000Z</time>
      </trkpt>
      <trkpt lat="51.460056" lon="0.238857">
        <ele>4.166683</ele>
        <time>2024-08-10T21:04:06.000Z</time>
      </trkpt>
      <trkpt lat="51.460097" lon="0.238685">
        <ele>4.20394</ele>
        <time>2024-08-10T21:04:07.000Z</time>
      </trkpt>
      <trkpt lat="51.460106" lon="0.238632">
        <ele>4.216503</ele>
        <time>2024-08-10T21:04:07.000Z</time>
      </trkpt>
      <trkpt lat="51.460208" lon="0.238166">
        <ele>4.322514</ele>
        <time>2024-08-10T21:04:10.000Z</time>
      </trkpt>
      <trkpt lat="51.460268" lon="0.237577">
        <ele>4.446656</ele>
        <time>2024-08-10T21:04:14.000Z</time>
      </trkpt>
      <trkpt lat="51.460252" lon="0.236061">
        <ele>4.812378</ele>
        <time>2024-08-10T21:04:25.000Z</time>
      </trkpt>
      <trkpt lat="51.460267" lon="0.235752">
        <ele>4.900674</ele>
        <time>2024-08-10T21:04:27.000Z</time>
      </trkpt>
      <trkpt lat="51.460285" lon="0.235745">
        <ele>4.901773</ele>
        <time>2024-08-10T21:04:27.000Z</time>
      </trkpt>
      <trkpt lat="51.460323" lon="0.235208">
        <ele>5.045742</ele>
        <time>2024-08-10T21:04:31.000Z</time>
      </trkpt>
      <trkpt lat="51.460339" lon="0.235036">
        <ele>5.09447</ele>
        <time>2024-08-10T21:04:32.000Z</time>
      </trkpt>
      <trkpt lat="51.460669" lon="0.233738">
        <ele>5.405196</ele>
        <time>2024-08-10T21:04:42.000Z</time>
      </trkpt>
      <trkpt lat="51.461259" lon="0.232397">
        <ele>5.375364</ele>
        <time>2024-08-10T21:04:53.000Z</time>
      </trkpt>
      <trkpt lat="51.461318" lon="0.232253">
        <ele>5.372029</ele>
        <time>2024-08-10T21:04:54.000Z</time>
      </trkpt>
      <trkpt lat="51.461381" lon="0.23207">
        <ele>5.368109</ele>
        <time>2024-08-10T21:04:55.000Z</time>
      </trkpt>
      <trkpt lat="51.461424" lon="0.231965">
        <ele>5.365977</ele>
        <time>2024-08-10T21:04:56.000Z</time>
      </trkpt>
      <trkpt lat="51.4614" lon="0.231958">
        <ele>5.365115</ele>
        <time>2024-08-10T21:04:56.000Z</time>
      </trkpt>
      <trkpt lat="51.461385" lon="0.231953">
        <ele>5.365052</ele>
        <time>2024-08-10T21:04:56.000Z</time>
      </trkpt>
      <trkpt lat="51.461388" lon="0.231951">
        <ele>5.36501</ele>
        <time>2024-08-10T21:04:56.000Z</time>
      </trkpt>
      <trkpt lat="51.461382" lon="0.231951">
        <ele>5.364971</ele>
        <time>2024-08-10T21:04:56.000Z</time>
      </trkpt>
      <trkpt lat="51.461378" lon="0.231954">
        <ele>5.364906</ele>
        <time>2024-08-10T21:04:56.000Z</time>
      </trkpt>
      <trkpt lat="51.46139" lon="0.231957">
        <ele>5.364877</ele>
        <time>2024-08-10T21:04:56.000Z</time>
      </trkpt>
      <trkpt lat="51.461374" lon="0.231959">
        <ele>5.364831</ele>
        <time>2024-08-10T21:04:56.000Z</time>
      </trkpt>
      <trkpt lat="51.461349" lon="0.231965">
        <ele>5.363823</ele>
        <time>2024-08-10T21:04:56.000Z</time>
      </trkpt>
      <trkpt lat="51.460784" lon="0.231892">
        <ele>5.234968</ele>
        <time>2024-08-10T21:05:02.000Z</time>
      </trkpt>
      <trkpt lat="51.460704" lon="0.231903">
        <ele>5.205372</ele>
        <time>2024-08-10T21:05:03.000Z</time>
      </trkpt>
      <trkpt lat="51.460639" lon="0.231911">
        <ele>5.185491</ele>
        <time>2024-08-10T21:05:04.000Z</time>
      </trkpt>
      <trkpt lat="51.460572" lon="0.231919">
        <ele>5.159042</ele>
        <time>2024-08-10T21:05:05.000Z</time>
      </trkpt>
      <trkpt lat="51.460474" lon="0.231977">
        <ele>5.121278</ele>
        <time>2024-08-10T21:05:06.000Z</time>
      </trkpt>
      <trkpt lat="51.460449" lon="0.23205">
        <ele>5.106004</ele>
        <time>2024-08-10T21:05:07.000Z</time>
      </trkpt>
      <trkpt lat="51.460377" lon="0.23213">
        <ele>5.075792</ele>
        <time>2024-08-10T21:05:08.000Z</time>
      </trkpt>
      <trkpt lat="51.46035" lon="0.232134">
        <ele>5.060647</ele>
        <time>2024-08-10T21:05:08.000Z</time>
      </trkpt>
      <trkpt lat="51.460313" lon="0.232128">
        <ele>5.046185</ele>
        <time>2024-08-10T21:05:08.000Z</time>
      </trkpt>
      <trkpt lat="51.460296" lon="0.232135">
        <ele>5.045117</ele>
        <time>2024-08-10T21:05:08.000Z</time>
      </trkpt>
      <trkpt lat="51.460303" lon="0.232134">
        <ele>5.04401</ele>
        <time>2024-08-10T21:05:08.000Z</time>
      </trkpt>
      <trkpt lat="51.460304" lon="0.232128">
        <ele>5.043638</ele>
        <time>2024-08-10T21:05:08.000Z</time>
      </trkpt>
      <trkpt lat="51.460291" lon="0.232141">
        <ele>5.043648</ele>
        <time>2024-08-10T21:05:08.000Z</time>
      </trkpt>
      <trkpt lat="51.460301" lon="0.232139">
        <ele>5.043224</ele>
        <time>2024-08-10T21:05:08.000Z</time>
      </trkpt>
      <trkpt lat="51.460292" lon="0.232127">
        <ele>5.042793</ele>
        <time>2024-08-10T21:05:08.000Z</time>
      </trkpt>
      <trkpt lat="51.460288" lon="0.232134">
        <ele>5.04204</ele>
        <time>2024-08-10T21:05:08.000Z</time>
      </trkpt>
      <trkpt lat="51.460258" lon="0.232098">
        <ele>5.026748</ele>
        <time>2024-08-10T21:05:08.000Z</time>
      </trkpt>
      <trkpt lat="51.460227" lon="0.232044">
        <ele>5.009871</ele>
        <time>2024-08-10T21:05:09.000Z</time>
      </trkpt>
      <trkpt lat="51.460151" lon="0.232046">
        <ele>4.985746</ele>
        <time>2024-08-10T21:05:10.000Z</time>
      </trkpt>
      <trkpt lat="51.459802" lon="0.231973">
        <ele>4.859406</ele>
        <time>2024-08-10T21:05:14.000Z</time>
      </trkpt>
      <trkpt lat="51.459457" lon="0.231513">
        <ele>4.718841</ele>
        <time>2024-08-10T21:05:19.000Z</time>
      </trkpt>
      <trkpt lat="51.459166" lon="0.231322">
        <ele>4.808179</ele>
        <time>2024-08-10T21:05:22.000Z</time>
      </trkpt>
      <trkpt lat="51.459067" lon="0.231321">
        <ele>4.84021</ele>
        <time>2024-08-10T21:05:23.000Z</time>
      </trkpt>
      <trkpt lat="51.459013" lon="0.231357">
        <ele>4.854448</ele>
        <time>2024-08-10T21:05:24.000Z</time>
      </trkpt>
      <trkpt lat="51.458964" lon="0.231399">
        <ele>4.868437</ele>
        <time>2024-08-10T21:05:25.000Z</time>
      </trkpt>
      <trkpt lat="51.458753" lon="0.231588">
        <ele>4.937743</ele>
        <time>2024-08-10T21:05:28.000Z</time>
      </trkpt>
      <trkpt lat="51.458711" lon="0.231629">
        <ele>4.954354</ele>
        <time>2024-08-10T21:05:29.000Z</time>
      </trkpt>
      <trkpt lat="51.45872" lon="0.231627">
        <ele>4.955388</ele>
        <time>2024-08-10T21:05:29.000Z</time>
      </trkpt>
      <trkpt lat="51.458705" lon="0.231642">
        <ele>4.955717</ele>
        <time>2024-08-10T21:05:29.000Z</time>
      </trkpt>
      <trkpt lat="51.45871" lon="0.231637">
        <ele>4.956401</ele>
        <time>2024-08-10T21:05:29.000Z</time>
      </trkpt>
      <trkpt lat="51.458714" lon="0.231644">
        <ele>4.957078</ele>
        <time>2024-08-10T21:05:29.000Z</time>
      </trkpt>
      <trkpt lat="51.458696" lon="0.231643">
        <ele>4.957417</ele>
        <time>2024-08-10T21:05:29.000Z</time>
      </trkpt>
      <trkpt lat="51.458711" lon="0.231649">
        <ele>4.958109</ele>
        <time>2024-08-10T21:05:29.000Z</time>
      </trkpt>
      <trkpt lat="51.458696" lon="0.231645">
        <ele>4.95856</ele>
        <time>2024-08-10T21:05:29.000Z</time>
      </trkpt>
      <trkpt lat="51.458701" lon="0.23165">
        <ele>4.958558</ele>
        <time>2024-08-10T21:05:29.000Z</time>
      </trkpt>
      <trkpt lat="51.458694" lon="0.231651">
        <ele>4.958894</ele>
        <time>2024-08-10T21:05:29.000Z</time>
      </trkpt>
      <trkpt lat="51.458693" lon="0.231642">
        <ele>4.959505</ele>
        <time>2024-08-10T21:05:29.000Z</time>
      </trkpt>
      <trkpt lat="51.458706" lon="0.231652">
        <ele>4.95998</ele>
        <time>2024-08-10T21:05:29.000Z</time>
      </trkpt>
      <trkpt lat="51.4587" lon="0.23166">
        <ele>4.960647</ele>
        <time>2024-08-10T21:05:29.000Z</time>
      </trkpt>
      <trkpt lat="51.458703" lon="0.231661">
        <ele>4.961126</ele>
        <time>2024-08-10T21:05:29.000Z</time>
      </trkpt>
      <trkpt lat="51.458193" lon="0.232574">
        <ele>5.182398</ele>
        <time>2024-08-10T21:05:37.000Z</time>
      </trkpt>
      <trkpt lat="51.458191" lon="0.232575">
        <ele>5.184258</ele>
        <time>2024-08-10T21:05:37.000Z</time>
      </trkpt>
      <trkpt lat="51.458172" lon="0.232589">
        <ele>5.18532</ele>
        <time>2024-08-10T21:05:37.000Z</time>
      </trkpt>
      <trkpt lat="51.458171" lon="0.232597">
        <ele>5.185673</ele>
        <time>2024-08-10T21:05:37.000Z</time>
      </trkpt>
      <trkpt lat="51.458171" lon="0.232593">
        <ele>5.186023</ele>
        <time>2024-08-10T21:05:37.000Z</time>
      </trkpt>
      <trkpt lat="51.458184" lon="0.232595">
        <ele>5.186631</ele>
        <time>2024-08-10T21:05:37.000Z</time>
      </trkpt>
      <trkpt lat="51.458184" lon="0.232591">
        <ele>5.186964</ele>
        <time>2024-08-10T21:05:37.000Z</time>
      </trkpt>
      <trkpt lat="51.458173" lon="0.232599">
        <ele>5.187307</ele>
        <time>2024-08-10T21:05:37.000Z</time>
      </trkpt>
      <trkpt lat="51.458179" lon="0.232593">
        <ele>5.187677</ele>
        <time>2024-08-10T21:05:37.000Z</time>
      </trkpt>
      <trkpt lat="51.458186" lon="0.232604">
        <ele>5.188122</ele>
        <time>2024-08-10T21:05:37.000Z</time>
      </trkpt>
      <trkpt lat="51.458174" lon="0.232595">
        <ele>5.188583</ele>
        <time>2024-08-10T21:05:37.000Z</time>
      </trkpt>
      <trkpt lat="51.458183" lon="0.232603">
        <ele>5.189049</ele>
        <time>2024-08-10T21:05:37.000Z</time>
      </trkpt>
      <trkpt lat="51.458171" lon="0.232605">
        <ele>5.189414</ele>
        <time>2024-08-10T21:05:37.000Z</time>
      </trkpt>
      <trkpt lat="51.458183" lon="0.232596">
        <ele>5.189879</ele>
        <time>2024-08-10T21:05:37.000Z</time>
      </trkpt>
      <trkpt lat="51.45818" lon="0.232601">
        <ele>5.190329</ele>
        <time>2024-08-10T21:05:37.000Z</time>
      </trkpt>
      <trkpt lat="51.45818" lon="0.232609">
        <ele>5.190788</ele>
        <time>2024-08-10T21:05:37.000Z</time>
      </trkpt>
      <trkpt lat="51.457787" lon="0.233617">
        <ele>5.613903</ele>
        <time>2024-08-10T21:05:45.000Z</time>
      </trkpt>
      <trkpt lat="51.45748" lon="0.234613">
        <ele>6.051894</ele>
        <time>2024-08-10T21:05:53.000Z</time>
      </trkpt>
      <trkpt lat="51.457465" lon="0.234613">
        <ele>6.052287</ele>
        <time>2024-08-10T21:05:53.000Z</time>
      </trkpt>
      <trkpt lat="51.457473" lon="0.234609">
        <ele>6.053041</ele>
        <time>2024-08-10T21:05:53.000Z</time>
      </trkpt>
      <trkpt lat="51.457475" lon="0.234616">
        <ele>6.053823</ele>
        <time>2024-08-10T21:05:53.000Z</time>
      </trkpt>
      <trkpt lat="51.457469" lon="0.234625">
        <ele>6.054623</ele>
        <time>2024-08-10T21:05:53.000Z</time>
      </trkpt>
      <trkpt lat="51.457473" lon="0.234626">
        <ele>6.055369</ele>
        <time>2024-08-10T21:05:53.000Z</time>
      </trkpt>
      <trkpt lat="51.45748" lon="0.234619">
        <ele>6.056153</ele>
        <time>2024-08-10T21:05:53.000Z</time>
      </trkpt>
      <trkpt lat="51.45748" lon="0.234631">
        <ele>6.057498</ele>
        <time>2024-08-10T21:05:53.000Z</time>
      </trkpt>
      <trkpt lat="51.457468" lon="0.234623">
        <ele>6.058281</ele>
        <time>2024-08-10T21:05:53.000Z</time>
      </trkpt>
      <trkpt lat="51.457468" lon="0.234619">
        <ele>6.059018</ele>
        <time>2024-08-10T21:05:53.000Z</time>
      </trkpt>
      <trkpt lat="51.457478" lon="0.234629">
        <ele>6.06021</ele>
        <time>2024-08-10T21:05:53.000Z</time>
      </trkpt>
      <trkpt lat="51.45746" lon="0.234623">
        <ele>6.060954</ele>
        <time>2024-08-10T21:05:53.000Z</time>
      </trkpt>
      <trkpt lat="51.457461" lon="0.234639">
        <ele>6.062134</ele>
        <time>2024-08-10T21:05:53.000Z</time>
      </trkpt>
      <trkpt lat="51.457462" lon="0.234647">
        <ele>6.0642</ele>
        <time>2024-08-10T21:05:53.000Z</time>
      </trkpt>
      <trkpt lat="51.456917" lon="0.236934">
        <ele>7.147757</ele>
        <time>2024-08-10T21:06:10.000Z</time>
      </trkpt>
      <trkpt lat="51.456905" lon="0.236966">
        <ele>7.162575</ele>
        <time>2024-08-10T21:06:10.000Z</time>
      </trkpt>
      <trkpt lat="51.456904" lon="0.236976">
        <ele>7.164142</ele>
        <time>2024-08-10T21:06:10.000Z</time>
      </trkpt>
      <trkpt lat="51.456899" lon="0.23697">
        <ele>7.165316</ele>
        <time>2024-08-10T21:06:10.000Z</time>
      </trkpt>
      <trkpt lat="51.456896" lon="0.236969">
        <ele>7.166246</ele>
        <time>2024-08-10T21:06:10.000Z</time>
      </trkpt>
      <trkpt lat="51.4569" lon="0.23698">
        <ele>7.167407</ele>
        <time>2024-08-10T21:06:10.000Z</time>
      </trkpt>
      <trkpt lat="51.456902" lon="0.236977">
        <ele>7.16859</ele>
        <time>2024-08-10T21:06:10.000Z</time>
      </trkpt>
      <trkpt lat="51.4569" lon="0.236977">
        <ele>7.170573</ele>
        <time>2024-08-10T21:06:10.000Z</time>
      </trkpt>
      <trkpt lat="51.456904" lon="0.236988">
        <ele>7.171441</ele>
        <time>2024-08-10T21:06:10.000Z</time>
      </trkpt>
      <trkpt lat="51.456907" lon="0.236986">
        <ele>7.17235</ele>
        <time>2024-08-10T21:06:10.000Z</time>
      </trkpt>
      <trkpt lat="51.456893" lon="0.236988">
        <ele>7.173537</ele>
        <time>2024-08-10T21:06:10.000Z</time>
      </trkpt>
      <trkpt lat="51.45656" lon="0.237948">
        <ele>7.678935</ele>
        <time>2024-08-10T21:06:18.000Z</time>
      </trkpt>
      <trkpt lat="51.456542" lon="0.237975">
        <ele>7.69345</ele>
        <time>2024-08-10T21:06:18.000Z</time>
      </trkpt>
      <trkpt lat="51.456544" lon="0.237968">
        <ele>7.696258</ele>
        <time>2024-08-10T21:06:18.000Z</time>
      </trkpt>
      <trkpt lat="51.456545" lon="0.23798">
        <ele>7.697156</ele>
        <time>2024-08-10T21:06:18.000Z</time>
      </trkpt>
      <trkpt lat="51.456542" lon="0.237979">
        <ele>7.698767</ele>
        <time>2024-08-10T21:06:18.000Z</time>
      </trkpt>
      <trkpt lat="51.456545" lon="0.237989">
        <ele>7.699982</ele>
        <time>2024-08-10T21:06:18.000Z</time>
      </trkpt>
      <trkpt lat="51.456541" lon="0.237984">
        <ele>7.701777</ele>
        <time>2024-08-10T21:06:18.000Z</time>
      </trkpt>
      <trkpt lat="51.456532" lon="0.237987">
        <ele>7.702978</ele>
        <time>2024-08-10T21:06:18.000Z</time>
      </trkpt>
      <trkpt lat="51.456541" lon="0.237988">
        <ele>7.704596</ele>
        <time>2024-08-10T21:06:18.000Z</time>
      </trkpt>
      <trkpt lat="51.456529" lon="0.237995">
        <ele>7.70702</ele>
        <time>2024-08-10T21:06:18.000Z</time>
      </trkpt>
      <trkpt lat="51.456538" lon="0.23799">
        <ele>7.708623</ele>
        <time>2024-08-10T21:06:18.000Z</time>
      </trkpt>
      <trkpt lat="51.456536" lon="0.237999">
        <ele>7.709516</ele>
        <time>2024-08-10T21:06:18.000Z</time>
      </trkpt>
      <trkpt lat="51.456535" lon="0.237997">
        <ele>7.710733</ele>
        <time>2024-08-10T21:06:18.000Z</time>
      </trkpt>
      <trkpt lat="51.456533" lon="0.238009">
        <ele>7.712351</ele>
        <time>2024-08-10T21:06:18.000Z</time>
      </trkpt>
      <trkpt lat="51.456083" lon="0.238921">
        <ele>8.265367</ele>
        <time>2024-08-10T21:06:26.000Z</time>
      </trkpt>
      <trkpt lat="51.455852" lon="0.2393">
        <ele>8.512705</ele>
        <time>2024-08-10T21:06:30.000Z</time>
      </trkpt>
      <trkpt lat="51.455863" lon="0.23931">
        <ele>8.514788</ele>
        <time>2024-08-10T21:06:30.000Z</time>
      </trkpt>
      <trkpt lat="51.455845" lon="0.239308">
        <ele>8.51658</ele>
        <time>2024-08-10T21:06:30.000Z</time>
      </trkpt>
      <trkpt lat="51.455842" lon="0.239308">
        <ele>8.518185</ele>
        <time>2024-08-10T21:06:30.000Z</time>
      </trkpt>
      <trkpt lat="51.455849" lon="0.239305">
        <ele>8.519073</ele>
        <time>2024-08-10T21:06:30.000Z</time>
      </trkpt>
      <trkpt lat="51.455852" lon="0.239299">
        <ele>8.519981</ele>
        <time>2024-08-10T21:06:30.000Z</time>
      </trkpt>
      <trkpt lat="51.45584" lon="0.239309">
        <ele>8.521184</ele>
        <time>2024-08-10T21:06:30.000Z</time>
      </trkpt>
      <trkpt lat="51.455856" lon="0.239314">
        <ele>8.522412</ele>
        <time>2024-08-10T21:06:30.000Z</time>
      </trkpt>
      <trkpt lat="51.455854" lon="0.239305">
        <ele>8.523299</ele>
        <time>2024-08-10T21:06:30.000Z</time>
      </trkpt>
      <trkpt lat="51.455851" lon="0.239317">
        <ele>8.524503</ele>
        <time>2024-08-10T21:06:30.000Z</time>
      </trkpt>
      <trkpt lat="51.455773" lon="0.239443">
        <ele>8.605924</ele>
        <time>2024-08-10T21:06:31.000Z</time>
      </trkpt>
      <trkpt lat="51.455131" lon="0.240234">
        <ele>9.049329</ele>
        <time>2024-08-10T21:06:40.000Z</time>
      </trkpt>
      <trkpt lat="51.455123" lon="0.240231">
        <ele>9.049177</ele>
        <time>2024-08-10T21:06:40.000Z</time>
      </trkpt>
      <trkpt lat="51.45512" lon="0.24025">
        <ele>9.049137</ele>
        <time>2024-08-10T21:06:40.000Z</time>
      </trkpt>
      <trkpt lat="51.455121" lon="0.24025">
        <ele>9.049085</ele>
        <time>2024-08-10T21:06:40.000Z</time>
      </trkpt>
      <trkpt lat="51.455116" lon="0.240246">
        <ele>9.04904</ele>
        <time>2024-08-10T21:06:40.000Z</time>
      </trkpt>
      <trkpt lat="51.455125" lon="0.240237">
        <ele>9.048999</ele>
        <time>2024-08-10T21:06:40.000Z</time>
      </trkpt>
      <trkpt lat="51.455116" lon="0.240251">
        <ele>9.048948</ele>
        <time>2024-08-10T21:06:40.000Z</time>
      </trkpt>
      <trkpt lat="51.455117" lon="0.240249">
        <ele>9.048831</ele>
        <time>2024-08-10T21:06:40.000Z</time>
      </trkpt>
      <trkpt lat="51.455108" lon="0.240255">
        <ele>9.048789</ele>
        <time>2024-08-10T21:06:40.000Z</time>
      </trkpt>
      <trkpt lat="51.455116" lon="0.240243">
        <ele>9.048724</ele>
        <time>2024-08-10T21:06:40.000Z</time>
      </trkpt>
      <trkpt lat="51.455106" lon="0.240246">
        <ele>9.048633</ele>
        <time>2024-08-10T21:06:40.000Z</time>
      </trkpt>
      <trkpt lat="51.455114" lon="0.240262">
        <ele>9.048523</ele>
        <time>2024-08-10T21:06:40.000Z</time>
      </trkpt>
      <trkpt lat="51.455113" lon="0.240255">
        <ele>9.048446</ele>
        <time>2024-08-10T21:06:40.000Z</time>
      </trkpt>
      <trkpt lat="51.455095" lon="0.24025">
        <ele>9.048397</ele>
        <time>2024-08-10T21:06:40.000Z</time>
      </trkpt>
      <trkpt lat="51.455078" lon="0.240283">
        <ele>9.047259</ele>
        <time>2024-08-10T21:06:40.000Z</time>
      </trkpt>
      <trkpt lat="51.454685" lon="0.240626">
        <ele>9.029886</ele>
        <time>2024-08-10T21:06:45.000Z</time>
      </trkpt>
      <trkpt lat="51.454599" lon="0.240684">
        <ele>9.026462</ele>
        <time>2024-08-10T21:06:46.000Z</time>
      </trkpt>
      <trkpt lat="51.454604" lon="0.240681">
        <ele>9.026371</ele>
        <time>2024-08-10T21:06:46.000Z</time>
      </trkpt>
      <trkpt lat="51.454611" lon="0.240692">
        <ele>9.026276</ele>
        <time>2024-08-10T21:06:46.000Z</time>
      </trkpt>
      <trkpt lat="51.454609" lon="0.240686">
        <ele>9.026275</ele>
        <time>2024-08-10T21:06:46.000Z</time>
      </trkpt>
      <trkpt lat="51.454597" lon="0.240693">
        <ele>9.026288</ele>
        <time>2024-08-10T21:06:46.000Z</time>
      </trkpt>
      <trkpt lat="51.455115" lon="0.240242">
        <ele>9.003672</ele>
        <time>2024-08-10T21:06:53.000Z</time>
      </trkpt>
      <trkpt lat="51.455108" lon="0.240239">
        <ele>9.00367</ele>
        <time>2024-08-10T21:06:53.000Z</time>
      </trkpt>
      <trkpt lat="51.455477" lon="0.239779">
        <ele>8.939887</ele>
        <time>2024-08-10T21:06:58.000Z</time>
      </trkpt>
      <trkpt lat="51.455856" lon="0.239293">
        <ele>8.593982</ele>
        <time>2024-08-10T21:07:03.000Z</time>
      </trkpt>
      <trkpt lat="51.455849" lon="0.239309">
        <ele>8.593982</ele>
        <time>2024-08-10T21:07:03.000Z</time>
      </trkpt>
      <trkpt lat="51.456193" lon="0.238639">
        <ele>8.204733</ele>
        <time>2024-08-10T21:07:09.000Z</time>
      </trkpt>
      <trkpt lat="51.456531" lon="0.237993">
        <ele>7.815478</ele>
        <time>2024-08-10T21:07:15.000Z</time>
      </trkpt>
      <trkpt lat="51.456544" lon="0.237994">
        <ele>7.815487</ele>
        <time>2024-08-10T21:07:15.000Z</time>
      </trkpt>
      <trkpt lat="51.456898" lon="0.236982">
        <ele>7.285074</ele>
        <time>2024-08-10T21:07:23.000Z</time>
      </trkpt>
      <trkpt lat="51.456911" lon="0.236969">
        <ele>7.285069</ele>
        <time>2024-08-10T21:07:23.000Z</time>
      </trkpt>
      <trkpt lat="51.457183" lon="0.235805">
        <ele>6.716539</ele>
        <time>2024-08-10T21:07:32.000Z</time>
      </trkpt>
      <trkpt lat="51.457463" lon="0.234621">
        <ele>6.16428</ele>
        <time>2024-08-10T21:07:41.000Z</time>
      </trkpt>
      <trkpt lat="51.457477" lon="0.234627">
        <ele>6.164278</ele>
        <time>2024-08-10T21:07:41.000Z</time>
      </trkpt>
      <trkpt lat="51.457831" lon="0.233603">
        <ele>5.674759</ele>
        <time>2024-08-10T21:07:49.000Z</time>
      </trkpt>
      <trkpt lat="51.458174" lon="0.232574">
        <ele>5.18559</ele>
        <time>2024-08-10T21:07:57.000Z</time>
      </trkpt>
      <trkpt lat="51.458183" lon="0.232585">
        <ele>5.1856</ele>
        <time>2024-08-10T21:07:57.000Z</time>
      </trkpt>
      <trkpt lat="51.45871" lon="0.231633">
        <ele>5.21161</ele>
        <time>2024-08-10T21:08:06.000Z</time>
      </trkpt>
      <trkpt lat="51.458697" lon="0.23164">
        <ele>5.21162</ele>
        <time>2024-08-10T21:08:06.000Z</time>
      </trkpt>
      <trkpt lat="51.458709" lon="0.231636">
        <ele>5.211606</ele>
        <time>2024-08-10T21:08:06.000Z</time>
      </trkpt>
      <trkpt lat="51.459101" lon="0.23123">
        <ele>5.241883</ele>
        <time>2024-08-10T21:08:11.000Z</time>
      </trkpt>
      <trkpt lat="51.459101" lon="0.231234">
        <ele>5.241887</ele>
        <time>2024-08-10T21:08:11.000Z</time>
      </trkpt>
      <trkpt lat="51.459108" lon="0.231231">
        <ele>5.24189</ele>
        <time>2024-08-10T21:08:11.000Z</time>
      </trkpt>
      <trkpt lat="51.459157" lon="0.23062">
        <ele>5.266696</ele>
        <time>2024-08-10T21:08:15.000Z</time>
      </trkpt>
      <trkpt lat="51.459155" lon="0.230619">
        <ele>5.266691</ele>
        <time>2024-08-10T21:08:15.000Z</time>
      </trkpt>
      <trkpt lat="51.459157" lon="0.230612">
        <ele>5.266694</ele>
        <time>2024-08-10T21:08:15.000Z</time>
      </trkpt>
      <trkpt lat="51.45928" lon="0.22986">
        <ele>5.421047</ele>
        <time>2024-08-10T21:08:20.000Z</time>
      </trkpt>
      <trkpt lat="51.459399" lon="0.229092">
        <ele>5.651493</ele>
        <time>2024-08-10T21:08:25.000Z</time>
      </trkpt>
      <trkpt lat="51.459388" lon="0.229089">
        <ele>5.651479</ele>
        <time>2024-08-10T21:08:25.000Z</time>
      </trkpt>
      <trkpt lat="51.459396" lon="0.229082">
        <ele>5.651485</ele>
        <time>2024-08-10T21:08:25.000Z</time>
      </trkpt>
      <trkpt lat="51.459442" lon="0.228178">
        <ele>5.915427</ele>
        <time>2024-08-10T21:08:31.000Z</time>
      </trkpt>
      <trkpt lat="51.459499" lon="0.227282">
        <ele>6.145577</ele>
        <time>2024-08-10T21:08:37.000Z</time>
      </trkpt>
      <trkpt lat="51.459506" lon="0.227275">
        <ele>6.145572</ele>
        <time>2024-08-10T21:08:37.000Z</time>
      </trkpt>
      <trkpt lat="51.459471" lon="0.226092">
        <ele>6.293985</ele>
        <time>2024-08-10T21:08:45.000Z</time>
      </trkpt>
      <trkpt lat="51.459465" lon="0.224908">
        <ele>6.442513</ele>
        <time>2024-08-10T21:08:53.000Z</time>
      </trkpt>
      <trkpt lat="51.459433" lon="0.22373">
        <ele>6.467467</ele>
        <time>2024-08-10T21:09:01.000Z</time>
      </trkpt>
      <trkpt lat="51.459441" lon="0.223723">
        <ele>6.467461</ele>
        <time>2024-08-10T21:09:01.000Z</time>
      </trkpt>
      <trkpt lat="51.459387" lon="0.222649">
        <ele>6.450681</ele>
        <time>2024-08-10T21:09:08.000Z</time>
      </trkpt>
      <trkpt lat="51.459339" lon="0.221595">
        <ele>6.436097</ele>
        <time>2024-08-10T21:09:15.000Z</time>
      </trkpt>
      <trkpt lat="51.459295" lon="0.220519">
        <ele>6.437947</ele>
        <time>2024-08-10T21:09:22.000Z</time>
      </trkpt>
      <trkpt lat="51.459289" lon="0.220521">
        <ele>6.437954</ele>
        <time>2024-08-10T21:09:22.000Z</time>
      </trkpt>
      <trkpt lat="51.459301" lon="0.220522">
        <ele>6.437953</ele>
        <time>2024-08-10T21:09:22.000Z</time>
      </trkpt>
      <trkpt lat="51.459297" lon="0.220534">
        <ele>6.437967</ele>
        <time>2024-08-10T21:09:22.000Z</time>
      </trkpt>
      <trkpt lat="51.459296" lon="0.220536">
        <ele>6.437975</ele>
        <time>2024-08-10T21:09:22.000Z</time>
      </trkpt>
      <trkpt lat="51.4593" lon="0.220535">
        <ele>6.437973</ele>
        <time>2024-08-10T21:09:22.000Z</time>
      </trkpt>
      <trkpt lat="51.459327" lon="0.221231">
        <ele>6.439187</ele>
        <time>2024-08-10T21:09:27.000Z</time>
      </trkpt>
      <trkpt lat="51.45944" lon="0.223711">
        <ele>6.491877</ele>
        <time>2024-08-10T21:09:44.000Z</time>
      </trkpt>
      <trkpt lat="51.459502" lon="0.227306">
        <ele>6.341849</ele>
        <time>2024-08-10T21:10:09.000Z</time>
      </trkpt>
      <trkpt lat="51.459479" lon="0.228229">
        <ele>6.174139</ele>
        <time>2024-08-10T21:10:15.000Z</time>
      </trkpt>
      <trkpt lat="51.459358" lon="0.22942">
        <ele>5.671156</ele>
        <time>2024-08-10T21:10:23.000Z</time>
      </trkpt>
      <trkpt lat="51.459301" lon="0.229788">
        <ele>5.508758</ele>
        <time>2024-08-10T21:10:26.000Z</time>
      </trkpt>
      <trkpt lat="51.459172" lon="0.230435">
        <ele>5.218842</ele>
        <time>2024-08-10T21:10:31.000Z</time>
      </trkpt>
      <trkpt lat="51.459133" lon="0.23072">
        <ele>5.100146</ele>
        <time>2024-08-10T21:10:33.000Z</time>
      </trkpt>
      <trkpt lat="51.459124" lon="0.230969">
        <ele>5.06353</ele>
        <time>2024-08-10T21:10:35.000Z</time>
      </trkpt>
      <trkpt lat="51.459135" lon="0.231002">
        <ele>5.063417</ele>
        <time>2024-08-10T21:10:35.000Z</time>
      </trkpt>
      <trkpt lat="51.459217" lon="0.231117">
        <ele>5.062816</ele>
        <time>2024-08-10T21:10:36.000Z</time>
      </trkpt>
      <trkpt lat="51.459467" lon="0.23134">
        <ele>5.061264</ele>
        <time>2024-08-10T21:10:39.000Z</time>
      </trkpt>
      <trkpt lat="51.459788" lon="0.231796">
        <ele>5.059029</ele>
        <time>2024-08-10T21:10:44.000Z</time>
      </trkpt>
      <trkpt lat="51.460018" lon="0.231907">
        <ele>5.057751</ele>
        <time>2024-08-10T21:10:47.000Z</time>
      </trkpt>
      <trkpt lat="51.460121" lon="0.231876">
        <ele>5.057136</ele>
        <time>2024-08-10T21:10:48.000Z</time>
      </trkpt>
      <trkpt lat="51.460196" lon="0.231821">
        <ele>5.056711</ele>
        <time>2024-08-10T21:10:49.000Z</time>
      </trkpt>
      <trkpt lat="51.460228" lon="0.231764">
        <ele>5.056461</ele>
        <time>2024-08-10T21:10:50.000Z</time>
      </trkpt>
      <trkpt lat="51.460263" lon="0.231704">
        <ele>5.056201</ele>
        <time>2024-08-10T21:10:51.000Z</time>
      </trkpt>
      <trkpt lat="51.46031" lon="0.231665">
        <ele>5.055881</ele>
        <time>2024-08-10T21:10:52.000Z</time>
      </trkpt>
      <trkpt lat="51.46038" lon="0.23167">
        <ele>5.055556</ele>
        <time>2024-08-10T21:10:53.000Z</time>
      </trkpt>
      <trkpt lat="51.460418" lon="0.231716">
        <ele>5.055305</ele>
        <time>2024-08-10T21:10:54.000Z</time>
      </trkpt>
      <trkpt lat="51.460446" lon="0.231757">
        <ele>5.055044</ele>
        <time>2024-08-10T21:10:54.000Z</time>
      </trkpt>
      <trkpt lat="51.460555" lon="0.231817">
        <ele>5.054497</ele>
        <time>2024-08-10T21:10:55.000Z</time>
      </trkpt>
      <trkpt lat="51.460658" lon="0.231853">
        <ele>5.115795</ele>
        <time>2024-08-10T21:10:56.000Z</time>
      </trkpt>
      <trkpt lat="51.460783" lon="0.231893">
        <ele>5.190261</ele>
        <time>2024-08-10T21:10:57.000Z</time>
      </trkpt>
      <trkpt lat="51.461348" lon="0.231952">
        <ele>5.522414</ele>
        <time>2024-08-10T21:11:03.000Z</time>
      </trkpt>
      <trkpt lat="51.461429" lon="0.231958">
        <ele>5.565062</ele>
        <time>2024-08-10T21:11:04.000Z</time>
      </trkpt>
      <trkpt lat="51.461452" lon="0.231828">
        <ele>5.617601</ele>
        <time>2024-08-10T21:11:05.000Z</time>
      </trkpt>
      <trkpt lat="51.46153" lon="0.231598">
        <ele>5.710394</ele>
        <time>2024-08-10T21:11:07.000Z</time>
      </trkpt>
      <trkpt lat="51.461569" lon="0.231347">
        <ele>5.806879</ele>
        <time>2024-08-10T21:11:09.000Z</time>
      </trkpt>
      <trkpt lat="51.461611" lon="0.231144">
        <ele>5.884515</ele>
        <time>2024-08-10T21:11:10.000Z</time>
      </trkpt>
      <trkpt lat="51.461672" lon="0.230503">
        <ele>6.12103</ele>
        <time>2024-08-10T21:11:14.000Z</time>
      </trkpt>
      <trkpt lat="51.461846" lon="0.226911">
        <ele>7.464298</ele>
        <time>2024-08-10T21:11:39.000Z</time>
      </trkpt>
      <trkpt lat="51.461864" lon="0.226715">
        <ele>7.491501</ele>
        <time>2024-08-10T21:11:40.000Z</time>
      </trkpt>
      <trkpt lat="51.461836" lon="0.226367">
        <ele>7.545917</ele>
        <time>2024-08-10T21:11:42.000Z</time>
      </trkpt>
      <trkpt lat="51.461823" lon="0.226213">
        <ele>7.569731</ele>
        <time>2024-08-10T21:11:43.000Z</time>
      </trkpt>
      <trkpt lat="51.460979" lon="0.224094">
        <ele>7.739256</ele>
        <time>2024-08-10T21:12:00.000Z</time>
      </trkpt>
      <trkpt lat="51.4608" lon="0.223767">
        <ele>7.721629</ele>
        <time>2024-08-10T21:12:03.000Z</time>
      </trkpt>
      <trkpt lat="51.460527" lon="0.223435">
        <ele>7.700135</ele>
        <time>2024-08-10T21:12:07.000Z</time>
      </trkpt>
      <trkpt lat="51.460511" lon="0.223417">
        <ele>7.698047</ele>
        <time>2024-08-10T21:12:07.000Z</time>
      </trkpt>
      <trkpt lat="51.460497" lon="0.223402">
        <ele>7.697379</ele>
        <time>2024-08-10T21:12:07.000Z</time>
      </trkpt>
      <trkpt lat="51.460499" lon="0.223401">
        <ele>7.697382</ele>
        <time>2024-08-10T21:12:07.000Z</time>
      </trkpt>
      <trkpt lat="51.460487" lon="0.223413">
        <ele>7.697364</ele>
        <time>2024-08-10T21:12:07.000Z</time>
      </trkpt>
      <trkpt lat="51.460498" lon="0.223419">
        <ele>7.696696</ele>
        <time>2024-08-10T21:12:07.000Z</time>
      </trkpt>
      <trkpt lat="51.460537" lon="0.223434">
        <ele>7.694629</ele>
        <time>2024-08-10T21:12:07.000Z</time>
      </trkpt>
      <trkpt lat="51.460795" lon="0.223758">
        <ele>7.673129</ele>
        <time>2024-08-10T21:12:11.000Z</time>
      </trkpt>
      <trkpt lat="51.460966" lon="0.224087">
        <ele>7.673128</ele>
        <time>2024-08-10T21:12:14.000Z</time>
      </trkpt>
      <trkpt lat="51.46183" lon="0.226201">
        <ele>7.733383</ele>
        <time>2024-08-10T21:12:32.000Z</time>
      </trkpt>
      <trkpt lat="51.461844" lon="0.226354">
        <ele>7.71068</ele>
        <time>2024-08-10T21:12:33.000Z</time>
      </trkpt>
      <trkpt lat="51.461859" lon="0.226732">
        <ele>7.571406</ele>
        <time>2024-08-10T21:12:36.000Z</time>
      </trkpt>
      <trkpt lat="51.461851" lon="0.226906">
        <ele>7.501799</ele>
        <time>2024-08-10T21:12:37.000Z</time>
      </trkpt>
      <trkpt lat="51.461671" lon="0.230495">
        <ele>6.168926</ele>
        <time>2024-08-10T21:13:02.000Z</time>
      </trkpt>
      <trkpt lat="51.461603" lon="0.231132">
        <ele>5.947477</ele>
        <time>2024-08-10T21:13:06.000Z</time>
      </trkpt>
      <trkpt lat="51.461579" lon="0.231339">
        <ele>5.874013</ele>
        <time>2024-08-10T21:13:07.000Z</time>
      </trkpt>
      <trkpt lat="51.461527" lon="0.231596">
        <ele>5.78274</ele>
        <time>2024-08-10T21:13:09.000Z</time>
      </trkpt>
      <trkpt lat="51.461465" lon="0.231835">
        <ele>5.694948</ele>
        <time>2024-08-10T21:13:11.000Z</time>
      </trkpt>
      <trkpt lat="51.461421" lon="0.231956">
        <ele>5.645246</ele>
        <time>2024-08-10T21:13:12.000Z</time>
      </trkpt>
      <trkpt lat="51.461382" lon="0.232056">
        <ele>5.624261</ele>
        <time>2024-08-10T21:13:13.000Z</time>
      </trkpt>
      <trkpt lat="51.461326" lon="0.232242">
        <ele>5.600753</ele>
        <time>2024-08-10T21:13:14.000Z</time>
      </trkpt>
      <trkpt lat="51.461258" lon="0.232409">
        <ele>5.580887</ele>
        <time>2024-08-10T21:13:15.000Z</time>
      </trkpt>
      <trkpt lat="51.460683" lon="0.233723">
        <ele>5.402432</ele>
        <time>2024-08-10T21:13:26.000Z</time>
      </trkpt>
      <trkpt lat="51.460349" lon="0.23504">
        <ele>5.123001</ele>
        <time>2024-08-10T21:13:36.000Z</time>
      </trkpt>
      <trkpt lat="51.460316" lon="0.235212">
        <ele>5.068736</ele>
        <time>2024-08-10T21:13:37.000Z</time>
      </trkpt>
      <trkpt lat="51.460277" lon="0.23573">
        <ele>4.908395</ele>
        <time>2024-08-10T21:13:41.000Z</time>
      </trkpt>
      <trkpt lat="51.460276" lon="0.235735">
        <ele>4.907172</ele>
        <time>2024-08-10T21:13:41.000Z</time>
      </trkpt>
      <trkpt lat="51.460249" lon="0.23607">
        <ele>4.808847</ele>
        <time>2024-08-10T21:13:43.000Z</time>
      </trkpt>
      <trkpt lat="51.460256" lon="0.23758">
        <ele>4.392003</ele>
        <time>2024-08-10T21:13:53.000Z</time>
      </trkpt>
      <trkpt lat="51.460209" lon="0.238154">
        <ele>4.304143</ele>
        <time>2024-08-10T21:13:57.000Z</time>
      </trkpt>
      <trkpt lat="51.460109" lon="0.238638">
        <ele>4.229128</ele>
        <time>2024-08-10T21:14:01.000Z</time>
      </trkpt>
      <trkpt lat="51.46009" lon="0.238694">
        <ele>4.22023</ele>
        <time>2024-08-10T21:14:01.000Z</time>
      </trkpt>
      <trkpt lat="51.460049" lon="0.238851">
        <ele>4.193865</ele>
        <time>2024-08-10T21:14:02.000Z</time>
      </trkpt>
      <trkpt lat="51.459613" lon="0.240156">
        <ele>4.006573</ele>
        <time>2024-08-10T21:14:12.000Z</time>
      </trkpt>
      <trkpt lat="51.459306" lon="0.240736">
        <ele>4.01942</ele>
        <time>2024-08-10T21:14:17.000Z</time>
      </trkpt>
      <trkpt lat="51.458608" lon="0.241559">
        <ele>4.043516</ele>
        <time>2024-08-10T21:14:27.000Z</time>
      </trkpt>
      <trkpt lat="51.458563" lon="0.241602">
        <ele>4.044992</ele>
        <time>2024-08-10T21:14:28.000Z</time>
      </trkpt>
      <trkpt lat="51.458549" lon="0.241605">
        <ele>4.045062</ele>
        <time>2024-08-10T21:14:28.000Z</time>
      </trkpt>
      <trkpt lat="51.458561" lon="0.241607">
        <ele>4.045107</ele>
        <time>2024-08-10T21:14:28.000Z</time>
      </trkpt>
      <trkpt lat="51.458561" lon="0.241605">
        <ele>4.045184</ele>
        <time>2024-08-10T21:14:28.000Z</time>
      </trkpt>
      <trkpt lat="51.458552" lon="0.241617">
        <ele>4.045241</ele>
        <time>2024-08-10T21:14:28.000Z</time>
      </trkpt>
      <trkpt lat="51.458552" lon="0.2416">
        <ele>4.045302</ele>
        <time>2024-08-10T21:14:28.000Z</time>
      </trkpt>
      <trkpt lat="51.458551" lon="0.241605">
        <ele>4.045368</ele>
        <time>2024-08-10T21:14:28.000Z</time>
      </trkpt>
      <trkpt lat="51.458604" lon="0.24157">
        <ele>4.046825</ele>
        <time>2024-08-10T21:14:29.000Z</time>
      </trkpt>
      <trkpt lat="51.459307" lon="0.24073">
        <ele>4.041532</ele>
        <time>2024-08-10T21:14:39.000Z</time>
      </trkpt>
      <trkpt lat="51.459603" lon="0.240164">
        <ele>4.033979</ele>
        <time>2024-08-10T21:14:44.000Z</time>
      </trkpt>
      <trkpt lat="51.460057" lon="0.238855">
        <ele>4.128963</ele>
        <time>2024-08-10T21:14:54.000Z</time>
      </trkpt>
      <trkpt lat="51.460091" lon="0.238697">
        <ele>4.172398</ele>
        <time>2024-08-10T21:14:55.000Z</time>
      </trkpt>
      <trkpt lat="51.46011" lon="0.238638">
        <ele>4.187036</ele>
        <time>2024-08-10T21:14:55.000Z</time>
      </trkpt>
      <trkpt lat="51.460202" lon="0.238161">
        <ele>4.310631</ele>
        <time>2024-08-10T21:14:58.000Z</time>
      </trkpt>
      <trkpt lat="51.460251" lon="0.237586">
        <ele>4.455375</ele>
        <time>2024-08-10T21:15:02.000Z</time>
      </trkpt>
      <trkpt lat="51.460256" lon="0.236066">
        <ele>4.831989</ele>
        <time>2024-08-10T21:15:13.000Z</time>
      </trkpt>
      <trkpt lat="51.460283" lon="0.235734">
        <ele>4.911994</ele>
        <time>2024-08-10T21:15:15.000Z</time>
      </trkpt>
      <trkpt lat="51.460279" lon="0.235733">
        <ele>4.91299</ele>
        <time>2024-08-10T21:15:15.000Z</time>
      </trkpt>
      <trkpt lat="51.460311" lon="0.235212">
        <ele>5.043452</ele>
        <time>2024-08-10T21:15:19.000Z</time>
      </trkpt>
      <trkpt lat="51.460335" lon="0.235042">
        <ele>5.087603</ele>
        <time>2024-08-10T21:15:20.000Z</time>
      </trkpt>
      <trkpt lat="51.46067" lon="0.233725">
        <ele>5.439606</ele>
        <time>2024-08-10T21:15:30.000Z</time>
      </trkpt>
      <trkpt lat="51.461268" lon="0.232394">
        <ele>5.357852</ele>
        <time>2024-08-10T21:15:41.000Z</time>
      </trkpt>
      <trkpt lat="51.461315" lon="0.232244">
        <ele>5.346817</ele>
        <time>2024-08-10T21:15:42.000Z</time>
      </trkpt>
      <trkpt lat="51.461387" lon="0.232068">
        <ele>5.333733</ele>
        <time>2024-08-10T21:15:43.000Z</time>
      </trkpt>
      <trkpt lat="51.461418" lon="0.231965">
        <ele>5.326639</ele>
        <time>2024-08-10T21:15:44.000Z</time>
      </trkpt>
      <trkpt lat="51.461382" lon="0.231961">
        <ele>5.323809</ele>
        <time>2024-08-10T21:15:44.000Z</time>
      </trkpt>
      <trkpt lat="51.461383" lon="0.231962">
        <ele>5.323612</ele>
        <time>2024-08-10T21:15:44.000Z</time>
      </trkpt>
      <trkpt lat="51.461395" lon="0.23195">
        <ele>5.323415</ele>
        <time>2024-08-10T21:15:44.000Z</time>
      </trkpt>
      <trkpt lat="51.461378" lon="0.231959">
        <ele>5.32332</ele>
        <time>2024-08-10T21:15:44.000Z</time>
      </trkpt>
      <trkpt lat="51.461391" lon="0.231959">
        <ele>5.323111</ele>
        <time>2024-08-10T21:15:44.000Z</time>
      </trkpt>
      <trkpt lat="51.461376" lon="0.231967">
        <ele>5.323023</ele>
        <time>2024-08-10T21:15:44.000Z</time>
      </trkpt>
      <trkpt lat="51.461375" lon="0.231962">
        <ele>5.322816</ele>
        <time>2024-08-10T21:15:44.000Z</time>
      </trkpt>
      <trkpt lat="51.46134" lon="0.231964">
        <ele>5.319492</ele>
        <time>2024-08-10T21:15:44.000Z</time>
      </trkpt>
      <trkpt lat="51.460773" lon="0.231888">
        <ele>5.23274</ele>
        <time>2024-08-10T21:15:50.000Z</time>
      </trkpt>
      <trkpt lat="51.460705" lon="0.231901">
        <ele>5.206179</ele>
        <time>2024-08-10T21:15:51.000Z</time>
      </trkpt>
      <trkpt lat="51.460651" lon="0.231906">
        <ele>5.188332</ele>
        <time>2024-08-10T21:15:52.000Z</time>
      </trkpt>
      <trkpt lat="51.460574" lon="0.231925">
        <ele>5.164607</ele>
        <time>2024-08-10T21:15:53.000Z</time>
      </trkpt>
      <trkpt lat="51.460472" lon="0.231984">
        <ele>5.130711</ele>
        <time>2024-08-10T21:15:54.000Z</time>
      </trkpt>
      <trkpt lat="51.460455" lon="0.232042">
        <ele>5.117002</ele>
        <time>2024-08-10T21:15:54.000Z</time>
      </trkpt>
      <trkpt lat="51.460391" lon="0.232121">
        <ele>5.089902</ele>
        <time>2024-08-10T21:15:55.000Z</time>
      </trkpt>
      <trkpt lat="51.460352" lon="0.232145">
        <ele>5.076305</ele>
        <time>2024-08-10T21:15:55.000Z</time>
      </trkpt>
      <trkpt lat="51.4603" lon="0.232126">
        <ele>5.063338</ele>
        <time>2024-08-10T21:15:56.000Z</time>
      </trkpt>
      <trkpt lat="51.460308" lon="0.232132">
        <ele>5.062357</ele>
        <time>2024-08-10T21:15:56.000Z</time>
      </trkpt>
      <trkpt lat="51.460296" lon="0.232127">
        <ele>5.061372</ele>
        <time>2024-08-10T21:15:56.000Z</time>
      </trkpt>
      <trkpt lat="51.460296" lon="0.232124">
        <ele>5.061046</ele>
        <time>2024-08-10T21:15:56.000Z</time>
      </trkpt>
      <trkpt lat="51.460295" lon="0.232131">
        <ele>5.061047</ele>
        <time>2024-08-10T21:15:56.000Z</time>
      </trkpt>
      <trkpt lat="51.460305" lon="0.232137">
        <ele>5.060657</ele>
        <time>2024-08-10T21:15:56.000Z</time>
      </trkpt>
      <trkpt lat="51.460298" lon="0.232124">
        <ele>5.060284</ele>
        <time>2024-08-10T21:15:56.000Z</time>
      </trkpt>
      <trkpt lat="51.460284" lon="0.232136">
        <ele>5.059615</ele>
        <time>2024-08-10T21:15:56.000Z</time>
      </trkpt>
      <trkpt lat="51.460252" lon="0.232093">
        <ele>5.045877</ele>
        <time>2024-08-10T21:15:56.000Z</time>
      </trkpt>
      <trkpt lat="51.460216" lon="0.23205">
        <ele>5.030746</ele>
        <time>2024-08-10T21:15:56.000Z</time>
      </trkpt>
      <trkpt lat="51.46015" lon="0.23205">
        <ele>5.009091</ele>
        <time>2024-08-10T21:15:57.000Z</time>
      </trkpt>
      <trkpt lat="51.459804" lon="0.231974">
        <ele>4.895716</ele>
        <time>2024-08-10T21:16:01.000Z</time>
      </trkpt>
      <trkpt lat="51.459454" lon="0.231514">
        <ele>4.750409</ele>
        <time>2024-08-10T21:16:06.000Z</time>
      </trkpt>
      <trkpt lat="51.459178" lon="0.231324">
        <ele>4.747569</ele>
        <time>2024-08-10T21:16:09.000Z</time>
      </trkpt>
      <trkpt lat="51.459064" lon="0.23132">
        <ele>4.788167</ele>
        <time>2024-08-10T21:16:10.000Z</time>
      </trkpt>
      <trkpt lat="51.459012" lon="0.231366">
        <ele>4.806211</ele>
        <time>2024-08-10T21:16:11.000Z</time>
      </trkpt>
      <trkpt lat="51.458971" lon="0.231392">
        <ele>4.823953</ele>
        <time>2024-08-10T21:16:11.000Z</time>
      </trkpt>
      <trkpt lat="51.458768" lon="0.231578">
        <ele>4.911785</ele>
        <time>2024-08-10T21:16:14.000Z</time>
      </trkpt>
      <trkpt lat="51.458708" lon="0.231631">
        <ele>4.93283</ele>
        <time>2024-08-10T21:16:15.000Z</time>
      </trkpt>
      <trkpt lat="51.458717" lon="0.231631">
        <ele>4.934127</ele>
        <time>2024-08-10T21:16:15.000Z</time>
      </trkpt>
      <trkpt lat="51.458707" lon="0.231631">
        <ele>4.934547</ele>
        <time>2024-08-10T21:16:15.000Z</time>
      </trkpt>
      <trkpt lat="51.458702" lon="0.23163">
        <ele>4.935407</ele>
        <time>2024-08-10T21:16:15.000Z</time>
      </trkpt>
      <trkpt lat="51.458699" lon="0.231644">
        <ele>4.93628</ele>
        <time>2024-08-10T21:16:15.000Z</time>
      </trkpt>
      <trkpt lat="51.458698" lon="0.231633">
        <ele>4.936715</ele>
        <time>2024-08-10T21:16:15.000Z</time>
      </trkpt>
      <trkpt lat="51.45871" lon="0.231638">
        <ele>4.937559</ele>
        <time>2024-08-10T21:16:15.000Z</time>
      </trkpt>
      <trkpt lat="51.458708" lon="0.231643">
        <ele>4.938148</ele>
        <time>2024-08-10T21:16:15.000Z</time>
      </trkpt>
      <trkpt lat="51.458697" lon="0.231647">
        <ele>4.938153</ele>
        <time>2024-08-10T21:16:15.000Z</time>
      </trkpt>
      <trkpt lat="51.458697" lon="0.231652">
        <ele>4.938578</ele>
        <time>2024-08-10T21:16:15.000Z</time>
      </trkpt>
      <trkpt lat="51.458708" lon="0.231657">
        <ele>4.939361</ele>
        <time>2024-08-10T21:16:15.000Z</time>
      </trkpt>
      <trkpt lat="51.458692" lon="0.231644">
        <ele>4.939952</ele>
        <time>2024-08-10T21:16:15.000Z</time>
      </trkpt>
      <trkpt lat="51.458694" lon="0.231657">
        <ele>4.940797</ele>
        <time>2024-08-10T21:16:15.000Z</time>
      </trkpt>
      <trkpt lat="51.458689" lon="0.231648">
        <ele>4.941392</ele>
        <time>2024-08-10T21:16:15.000Z</time>
      </trkpt>
      <trkpt lat="51.458185" lon="0.232564">
        <ele>5.221809</ele>
        <time>2024-08-10T21:16:23.000Z</time>
      </trkpt>
      <trkpt lat="51.458183" lon="0.23258">
        <ele>5.224155</ele>
        <time>2024-08-10T21:16:23.000Z</time>
      </trkpt>
      <trkpt lat="51.458184" lon="0.232578">
        <ele>5.2255</ele>
        <time>2024-08-10T21:16:23.000Z</time>
      </trkpt>
      <trkpt lat="51.458187" lon="0.232586">
        <ele>5.225969</ele>
        <time>2024-08-10T21:16:23.000Z</time>
      </trkpt>
      <trkpt lat="51.458175" lon="0.232595">
        <ele>5.226387</ele>
        <time>2024-08-10T21:16:23.000Z</time>
      </trkpt>
      <trkpt lat="51.458172" lon="0.232587">
        <ele>5.227171</ele>
        <time>2024-08-10T21:16:23.000Z</time>
      </trkpt>
      <trkpt lat="51.458187" lon="0.2326">
        <ele>5.227596</ele>
        <time>2024-08-10T21:16:23.000Z</time>
      </trkpt>
      <trkpt lat="51.458177" lon="0.232586">
        <ele>5.228039</ele>
        <time>2024-08-10T21:16:23.000Z</time>
      </trkpt>
      <trkpt lat="51.458178" lon="0.2326">
        <ele>5.228479</ele>
        <time>2024-08-10T21:16:23.000Z</time>
      </trkpt>
      <trkpt lat="51.458175" lon="0.232601">
        <ele>5.229072</ele>
        <time>2024-08-10T21:16:23.000Z</time>
      </trkpt>
      <trkpt lat="51.458179" lon="0.2326">
        <ele>5.229651</ele>
        <time>2024-08-10T21:16:23.000Z</time>
      </trkpt>
      <trkpt lat="51.458172" lon="0.232599">
        <ele>5.230239</ele>
        <time>2024-08-10T21:16:23.000Z</time>
      </trkpt>
      <trkpt lat="51.458176" lon="0.232611">
        <ele>5.230697</ele>
        <time>2024-08-10T21:16:23.000Z</time>
      </trkpt>
      <trkpt lat="51.458173" lon="0.232603">
        <ele>5.231276</ele>
        <time>2024-08-10T21:16:23.000Z</time>
      </trkpt>
      <trkpt lat="51.458178" lon="0.232612">
        <ele>5.231873</ele>
        <time>2024-08-10T21:16:23.000Z</time>
      </trkpt>
      <trkpt lat="51.458181" lon="0.23261">
        <ele>5.232454</ele>
        <time>2024-08-10T21:16:23.000Z</time>
      </trkpt>
      <trkpt lat="51.457791" lon="0.233624">
        <ele>5.6115</ele>
        <time>2024-08-10T21:16:31.000Z</time>
      </trkpt>
      <trkpt lat="51.457475" lon="0.234618">
        <ele>6.049026</ele>
        <time>2024-08-10T21:16:39.000Z</time>
      </trkpt>
      <trkpt lat="51.457481" lon="0.234606">
        <ele>6.049427</ele>
        <time>2024-08-10T21:16:39.000Z</time>
      </trkpt>
      <trkpt lat="51.457475" lon="0.234619">
        <ele>6.050171</ele>
        <time>2024-08-10T21:16:39.000Z</time>
      </trkpt>
      <trkpt lat="51.457473" lon="0.234606">
        <ele>6.050951</ele>
        <time>2024-08-10T21:16:39.000Z</time>
      </trkpt>
      <trkpt lat="51.457471" lon="0.234618">
        <ele>6.051732</ele>
        <time>2024-08-10T21:16:39.000Z</time>
      </trkpt>
      <trkpt lat="51.45747" lon="0.234616">
        <ele>6.05248</ele>
        <time>2024-08-10T21:16:39.000Z</time>
      </trkpt>
      <trkpt lat="51.457468" lon="0.234613">
        <ele>6.053276</ele>
        <time>2024-08-10T21:16:39.000Z</time>
      </trkpt>
      <trkpt lat="51.45747" lon="0.234627">
        <ele>6.05462</ele>
        <time>2024-08-10T21:16:39.000Z</time>
      </trkpt>
      <trkpt lat="51.457479" lon="0.234627">
        <ele>6.055409</ele>
        <time>2024-08-10T21:16:39.000Z</time>
      </trkpt>
      <trkpt lat="51.457473" lon="0.234626">
        <ele>6.056141</ele>
        <time>2024-08-10T21:16:39.000Z</time>
      </trkpt>
      <trkpt lat="51.457461" lon="0.234626">
        <ele>6.057327</ele>
        <time>2024-08-10T21:16:39.000Z</time>
      </trkpt>
      <trkpt lat="51.45746" lon="0.234636">
        <ele>6.058081</ele>
        <time>2024-08-10T21:16:39.000Z</time>
      </trkpt>
      <trkpt lat="51.457469" lon="0.234625">
        <ele>6.059246</ele>
        <time>2024-08-10T21:16:39.000Z</time>
      </trkpt>
      <trkpt lat="51.457465" lon="0.234647">
        <ele>6.061321</ele>
        <time>2024-08-10T21:16:39.000Z</time>
      </trkpt>
      <trkpt lat="51.456921" lon="0.236934">
        <ele>7.156236</ele>
        <time>2024-08-10T21:16:56.000Z</time>
      </trkpt>
      <trkpt lat="51.456913" lon="0.23696">
        <ele>7.171822</ele>
        <time>2024-08-10T21:16:56.000Z</time>
      </trkpt>
      <trkpt lat="51.456911" lon="0.23698">
        <ele>7.173472</ele>
        <time>2024-08-10T21:16:56.000Z</time>
      </trkpt>
      <trkpt lat="51.456896" lon="0.23697">
        <ele>7.174702</ele>
        <time>2024-08-10T21:16:56.000Z</time>
      </trkpt>
      <trkpt lat="51.456903" lon="0.236972">
        <ele>7.175674</ele>
        <time>2024-08-10T21:16:56.000Z</time>
      </trkpt>
      <trkpt lat="51.456893" lon="0.236973">
        <ele>7.176911</ele>
        <time>2024-08-10T21:16:56.000Z</time>
      </trkpt>
      <trkpt lat="51.456896" lon="0.236984">
        <ele>7.178145</ele>
        <time>2024-08-10T21:16:56.000Z</time>
      </trkpt>
      <trkpt lat="51.456891" lon="0.23699">
        <ele>7.180236</ele>
        <time>2024-08-10T21:16:56.000Z</time>
      </trkpt>
      <trkpt lat="51.456895" lon="0.236984">
        <ele>7.181153</ele>
        <time>2024-08-10T21:16:56.000Z</time>
      </trkpt>
      <trkpt lat="51.456896" lon="0.236993">
        <ele>7.182111</ele>
        <time>2024-08-10T21:16:56.000Z</time>
      </trkpt>
      <trkpt lat="51.4569" lon="0.236994">
        <ele>7.183345</ele>
        <time>2024-08-10T21:16:56.000Z</time>
      </trkpt>
      <trkpt lat="51.456554" lon="0.237946">
        <ele>7.71491</ele>
        <time>2024-08-10T21:17:04.000Z</time>
      </trkpt>
      <trkpt lat="51.456549" lon="0.237963">
        <ele>7.730164</ele>
        <time>2024-08-10T21:17:04.000Z</time>
      </trkpt>
      <trkpt lat="51.456539" lon="0.23797">
        <ele>7.733036</ele>
        <time>2024-08-10T21:17:04.000Z</time>
      </trkpt>
      <trkpt lat="51.456549" lon="0.23797">
        <ele>7.733947</ele>
        <time>2024-08-10T21:17:04.000Z</time>
      </trkpt>
      <trkpt lat="51.456546" lon="0.237971">
        <ele>7.735588</ele>
        <time>2024-08-10T21:17:04.000Z</time>
      </trkpt>
      <trkpt lat="51.456542" lon="0.237983">
        <ele>7.736813</ele>
        <time>2024-08-10T21:17:04.000Z</time>
      </trkpt>
      <trkpt lat="51.456532" lon="0.237975">
        <ele>7.738658</ele>
        <time>2024-08-10T21:17:04.000Z</time>
      </trkpt>
      <trkpt lat="51.456544" lon="0.237986">
        <ele>7.73988</ele>
        <time>2024-08-10T21:17:04.000Z</time>
      </trkpt>
      <trkpt lat="51.456536" lon="0.237992">
        <ele>7.741535</ele>
        <time>2024-08-10T21:17:04.000Z</time>
      </trkpt>
      <trkpt lat="51.456539" lon="0.237987">
        <ele>7.744003</ele>
        <time>2024-08-10T21:17:04.000Z</time>
      </trkpt>
      <trkpt lat="51.456534" lon="0.238">
        <ele>7.745643</ele>
        <time>2024-08-10T21:17:04.000Z</time>
      </trkpt>
      <trkpt lat="51.456536" lon="0.237991">
        <ele>7.746569</ele>
        <time>2024-08-10T21:17:04.000Z</time>
      </trkpt>
      <trkpt lat="51.456531" lon="0.238006">
        <ele>7.747797</ele>
        <time>2024-08-10T21:17:04.000Z</time>
      </trkpt>
      <trkpt lat="51.456534" lon="0.238007">
        <ele>7.749451</ele>
        <time>2024-08-10T21:17:04.000Z</time>
      </trkpt>
      <trkpt lat="51.456076" lon="0.238926">
        <ele>8.266745</ele>
        <time>2024-08-10T21:17:12.000Z</time>
      </trkpt>
      <trkpt lat="51.455857" lon="0.239294">
        <ele>8.491433</ele>
        <time>2024-08-10T21:17:16.000Z</time>
      </trkpt>
      <trkpt lat="51.455856" lon="0.239302">
        <ele>8.493321</ele>
        <time>2024-08-10T21:17:16.000Z</time>
      </trkpt>
      <trkpt lat="51.455848" lon="0.239296">
        <ele>8.49494</ele>
        <time>2024-08-10T21:17:16.000Z</time>
      </trkpt>
      <trkpt lat="51.455857" lon="0.239304">
        <ele>8.496409</ele>
        <time>2024-08-10T21:17:16.000Z</time>
      </trkpt>
      <trkpt lat="51.455857" lon="0.23931">
        <ele>8.497224</ele>
        <time>2024-08-10T21:17:16.000Z</time>
      </trkpt>
      <trkpt lat="51.455842" lon="0.239299">
        <ele>8.498028</ele>
        <time>2024-08-10T21:17:16.000Z</time>
      </trkpt>
      <trkpt lat="51.455848" lon="0.239311">
        <ele>8.499142</ele>
        <time>2024-08-10T21:17:16.000Z</time>
      </trkpt>
      <trkpt lat="51.455844" lon="0.239305">
        <ele>8.500235</ele>
        <time>2024-08-10T21:17:16.000Z</time>
      </trkpt>
      <trkpt lat="51.455853" lon="0.239319">
        <ele>8.501041</ele>
        <time>2024-08-10T21:17:16.000Z</time>
      </trkpt>
      <trkpt lat="51.455839" lon="0.239313">
        <ele>8.502153</ele>
        <time>2024-08-10T21:17:16.000Z</time>
      </trkpt>
      <trkpt lat="51.455773" lon="0.239429">
        <ele>8.576104</ele>
        <time>2024-08-10T21:17:17.000Z</time>
      </trkpt>
      <trkpt lat="51.455117" lon="0.240242">
        <ele>9.122866</ele>
        <time>2024-08-10T21:17:26.000Z</time>
      </trkpt>
      <trkpt lat="51.455117" lon="0.240245">
        <ele>9.122315</ele>
        <time>2024-08-10T21:17:26.000Z</time>
      </trkpt>
      <trkpt lat="51.455111" lon="0.240244">
        <ele>9.122153</ele>
        <time>2024-08-10T21:17:26.000Z</time>
      </trkpt>
      <trkpt lat="51.455127" lon="0.240241">
        <ele>9.121989</ele>
        <time>2024-08-10T21:17:26.000Z</time>
      </trkpt>
      <trkpt lat="51.455121" lon="0.24025">
        <ele>9.121823</ele>
        <time>2024-08-10T21:17:26.000Z</time>
      </trkpt>
      <trkpt lat="51.455123" lon="0.240237">
        <ele>9.121666</ele>
        <time>2024-08-10T21:17:26.000Z</time>
      </trkpt>
      <trkpt lat="51.45512" lon="0.240254">
        <ele>9.121493</ele>
        <time>2024-08-10T21:17:26.000Z</time>
      </trkpt>
      <trkpt lat="51.455122" lon="0.240245">
        <ele>9.121106</ele>
        <time>2024-08-10T21:17:26.000Z</time>
      </trkpt>
      <trkpt lat="51.455111" lon="0.240242">
        <ele>9.120932</ele>
        <time>2024-08-10T21:17:26.000Z</time>
      </trkpt>
      <trkpt lat="51.455119" lon="0.240244">
        <ele>9.120714</ele>
        <time>2024-08-10T21:17:26.000Z</time>
      </trkpt>
      <trkpt lat="51.455118" lon="0.240249">
        <ele>9.120391</ele>
        <time>2024-08-10T21:17:26.000Z</time>
      </trkpt>
      <trkpt lat="51.45511" lon="0.240251">
        <ele>9.119999</ele>
        <time>2024-08-10T21:17:26.000Z</time>
      </trkpt>
      <trkpt lat="51.455108" lon="0.240264">
        <ele>9.119664</ele>
        <time>2024-08-10T21:17:26.000Z</time>
      </trkpt>
      <trkpt lat="51.455111" lon="0.240265">
        <ele>9.119501</ele>
        <time>2024-08-10T21:17:26.000Z</time>
      </trkpt>
      <trkpt lat="51.45508" lon="0.240286">
        <ele>9.115446</ele>
        <time>2024-08-10T21:17:26.000Z</time>
      </trkpt>
      <trkpt lat="51.454688" lon="0.240612">
        <ele>9.052845</ele>
        <time>2024-08-10T21:17:31.000Z</time>
      </trkpt>
      <trkpt lat="51.454608" lon="0.240686">
        <ele>9.040473</ele>
        <time>2024-08-10T21:17:32.000Z</time>
      </trkpt>
      <trkpt lat="51.454601" lon="0.240682">
        <ele>9.040166</ele>
        <time>2024-08-10T21:17:32.000Z</time>
      </trkpt>
      <trkpt lat="51.454613" lon="0.240692">
        <ele>9.039848</ele>
        <time>2024-08-10T21:17:32.000Z</time>
      </trkpt>
      <trkpt lat="51.454607" lon="0.240684">
        <ele>9.039668</ele>
        <time>2024-08-10T21:17:32.000Z</time>
      </trkpt>
      <trkpt lat="51.454594" lon="0.240685">
        <ele>9.039352</ele>
        <time>2024-08-10T21:17:32.000Z</time>
      </trkpt>
      <trkpt lat="51.454599" lon="0.240687">
        <ele>9.039343</ele>
        <time>2024-08-10T21:17:32.000Z</time>
      </trkpt>
      <trkpt lat="51.454596" lon="0.240683">
        <ele>9.039352</ele>
        <time>2024-08-10T21:17:32.000Z</time>
      </trkpt>
      <trkpt lat="51.455107" lon="0.240246">
        <ele>8.957127</ele>
        <time>2024-08-10T21:17:38.000Z</time>
      </trkpt>
      <trkpt lat="51.455117" lon="0.240242">
        <ele>8.957142</ele>
        <time>2024-08-10T21:17:38.000Z</time>
      </trkpt>
      <trkpt lat="51.455477" lon="0.239775">
        <ele>8.891125</ele>
        <time>2024-08-10T21:17:43.000Z</time>
      </trkpt>
      <trkpt lat="51.45586" lon="0.239304">
        <ele>8.618507</ele>
        <time>2024-08-10T21:17:48.000Z</time>
      </trkpt>
      <trkpt lat="51.455855" lon="0.239312">
        <ele>8.618499</ele>
        <time>2024-08-10T21:17:48.000Z</time>
      </trkpt>
      <trkpt lat="51.456189" lon="0.238644">
        <ele>8.222458</ele>
        <time>2024-08-10T21:17:54.000Z</time>
      </trkpt>
      <trkpt lat="51.456532" lon="0.238">
        <ele>7.825569</ele>
        <time>2024-08-10T21:18:00.000Z</time>
      </trkpt>
      <trkpt lat="51.456522" lon="0.237996">
        <ele>7.82557</ele>
        <time>2024-08-10T21:18:00.000Z</time>
      </trkpt>
      <trkpt lat="51.456905" lon="0.236976">
        <ele>7.281742</ele>
        <time>2024-08-10T21:18:08.000Z</time>
      </trkpt>
      <trkpt lat="51.456901" lon="0.236979">
        <ele>7.28174</ele>
        <time>2024-08-10T21:18:08.000Z</time>
      </trkpt>
      <trkpt lat="51.457186" lon="0.2358">
        <ele>6.708312</ele>
        <time>2024-08-10T21:18:17.000Z</time>
      </trkpt>
      <trkpt lat="51.457468" lon="0.234616">
        <ele>6.14688</ele>
        <time>2024-08-10T21:18:26.000Z</time>
      </trkpt>
      <trkpt lat="51.457465" lon="0.234623">
        <ele>6.146878</ele>
        <time>2024-08-10T21:18:26.000Z</time>
      </trkpt>
      <trkpt lat="51.457821" lon="0.233598">
        <ele>5.69534</ele>
        <time>2024-08-10T21:18:34.000Z</time>
      </trkpt>
      <trkpt lat="51.458184" lon="0.232584">
        <ele>5.243814</ele>
        <time>2024-08-10T21:18:42.000Z</time>
      </trkpt>
      <trkpt lat="51.458185" lon="0.232581">
        <ele>5.243815</ele>
        <time>2024-08-10T21:18:42.000Z</time>
      </trkpt>
      <trkpt lat="51.458699" lon="0.231635">
        <ele>5.180089</ele>
        <time>2024-08-10T21:18:51.000Z</time>
      </trkpt>
      <trkpt lat="51.458713" lon="0.231642">
        <ele>5.180092</ele>
        <time>2024-08-10T21:18:51.000Z</time>
      </trkpt>
      <trkpt lat="51.458712" lon="0.23164">
        <ele>5.180091</ele>
        <time>2024-08-10T21:18:51.000Z</time>
      </trkpt>
      <trkpt lat="51.459114" lon="0.231228">
        <ele>5.250558</ele>
        <time>2024-08-10T21:18:56.000Z</time>
      </trkpt>
      <trkpt lat="51.459108" lon="0.231214">
        <ele>5.25057</ele>
        <time>2024-08-10T21:18:56.000Z</time>
      </trkpt>
      <trkpt lat="51.459114" lon="0.231216">
        <ele>5.250568</ele>
        <time>2024-08-10T21:18:56.000Z</time>
      </trkpt>
      <trkpt lat="51.459143" lon="0.230628">
        <ele>5.306048</ele>
        <time>2024-08-10T21:19:00.000Z</time>
      </trkpt>
      <trkpt lat="51.459145" lon="0.230627">
        <ele>5.306049</ele>
        <time>2024-08-10T21:19:00.000Z</time>
      </trkpt>
      <trkpt lat="51.459148" lon="0.23062">
        <ele>5.306059</ele>
        <time>2024-08-10T21:19:00.000Z</time>
      </trkpt>
      <trkpt lat="51.45927" lon="0.229841">
        <ele>5.414696</ele>
        <time>2024-08-10T21:19:06.000Z</time>
      </trkpt>
      <trkpt lat="51.459388" lon="0.229074">
        <ele>5.644301</ele>
        <time>2024-08-10T21:19:11.000Z</time>
      </trkpt>
      <trkpt lat="51.459388" lon="0.229065">
        <ele>5.64431</ele>
        <time>2024-08-10T21:19:11.000Z</time>
      </trkpt>
      <trkpt lat="51.459393" lon="0.229073">
        <ele>5.644296</ele>
        <time>2024-08-10T21:19:11.000Z</time>
      </trkpt>
      <trkpt lat="51.459445" lon="0.228188">
        <ele>5.902614</ele>
        <time>2024-08-10T21:19:17.000Z</time>
      </trkpt>
      <trkpt lat="51.459495" lon="0.227282">
        <ele>6.160643</ele>
        <time>2024-08-10T21:19:23.000Z</time>
      </trkpt>
      <trkpt lat="51.459489" lon="0.227286">
        <ele>6.160643</ele>
        <time>2024-08-10T21:19:23.000Z</time>
      </trkpt>
      <trkpt lat="51.459476" lon="0.226105">
        <ele>6.303445</ele>
        <time>2024-08-10T21:19:31.000Z</time>
      </trkpt>
      <trkpt lat="51.459459" lon="0.224917">
        <ele>6.425288</ele>
        <time>2024-08-10T21:19:39.000Z</time>
      </trkpt>
      <trkpt lat="51.459441" lon="0.223735">
        <ele>6.477891</ele>
        <time>2024-08-10T21:19:47.000Z</time>
      </trkpt>
      <trkpt lat="51.459443" lon="0.223735">
        <ele>6.477889</ele>
        <time>2024-08-10T21:19:47.000Z</time>
      </trkpt>
      <trkpt lat="51.459398" lon="0.222661">
        <ele>6.453528</ele>
        <time>2024-08-10T21:19:54.000Z</time>
      </trkpt>
      <trkpt lat="51.459337" lon="0.221603">
        <ele>6.429148</ele>
        <time>2024-08-10T21:20:01.000Z</time>
      </trkpt>
      <trkpt lat="51.45929" lon="0.220519">
        <ele>6.433121</ele>
        <time>2024-08-10T21:20:09.000Z</time>
      </trkpt>
      <trkpt lat="51.459305" lon="0.220528">
        <ele>6.433142</ele>
        <time>2024-08-10T21:20:09.000Z</time>
      </trkpt>
      <trkpt lat="51.459304" lon="0.220535">
        <ele>6.433162</ele>
        <time>2024-08-10T21:20:09.000Z</time>
      </trkpt>
      <trkpt lat="51.459292" lon="0.22053">
        <ele>6.433163</ele>
        <time>2024-08-10T21:20:09.000Z</time>
      </trkpt>
      <trkpt lat="51.459307" lon="0.220533">
        <ele>6.433217</ele>
        <time>2024-08-10T21:20:09.000Z</time>
      </trkpt>
      <trkpt lat="51.459302" lon="0.220543">
        <ele>6.433258</ele>
        <time>2024-08-10T21:20:09.000Z</time>
      </trkpt>
      <trkpt lat="51.459291" lon="0.220534">
        <ele>6.433293</ele>
        <time>2024-08-10T21:20:09.000Z</time>
      </trkpt>
      <trkpt lat="51.459324" lon="0.221238">
        <ele>6.439757</ele>
        <time>2024-08-10T21:20:14.000Z</time>
      </trkpt>
      <trkpt lat="51.459442" lon="0.223712">
        <ele>6.491417</ele>
        <time>2024-08-10T21:20:31.000Z</time>
      </trkpt>
      <trkpt lat="51.459497" lon="0.227293">
        <ele>6.297766</ele>
        <time>2024-08-10T21:20:56.000Z</time>
      </trkpt>
      <trkpt lat="51.459483" lon="0.228223">
        <ele>6.175496</ele>
        <time>2024-08-10T21:21:02.000Z</time>
      </trkpt>
      <trkpt lat="51.459363" lon="0.229415">
        <ele>5.702072</ele>
        <time>2024-08-10T21:21:10.000Z</time>
      </trkpt>
      <trkpt lat="51.459302" lon="0.229776">
        <ele>5.544475</ele>
        <time>2024-08-10T21:21:13.000Z</time>
      </trkpt>
      <trkpt lat="51.459164" lon="0.230431">
        <ele>5.263128</ele>
        <time>2024-08-10T21:21:18.000Z</time>
      </trkpt>
      <trkpt lat="51.459139" lon="0.230708">
        <ele>5.147965</ele>
        <time>2024-08-10T21:21:20.000Z</time>
      </trkpt>
      <trkpt lat="51.45913" lon="0.230973">
        <ele>5.043064</ele>
        <time>2024-08-10T21:21:22.000Z</time>
      </trkpt>
      <trkpt lat="51.459135" lon="0.231005">
        <ele>5.028598</ele>
        <time>2024-08-10T21:21:22.000Z</time>
      </trkpt>
      <trkpt lat="51.459223" lon="0.231111">
        <ele>4.991309</ele>
        <time>2024-08-10T21:21:23.000Z</time>
      </trkpt>
      <trkpt lat="51.459473" lon="0.231345">
        <ele>5.016188</ele>
        <time>2024-08-10T21:21:26.000Z</time>
      </trkpt>
      <trkpt lat="51.459782" lon="0.23179">
        <ele>5.051985</ele>
        <time>2024-08-10T21:21:31.000Z</time>
      </trkpt>
      <trkpt lat="51.460011" lon="0.231907">
        <ele>5.072351</ele>
        <time>2024-08-10T21:21:34.000Z</time>
      </trkpt>
      <trkpt lat="51.460133" lon="0.231877">
        <ele>5.082195</ele>
        <time>2024-08-10T21:21:35.000Z</time>
      </trkpt>
      <trkpt lat="51.4602" lon="0.231813">
        <ele>5.088941</ele>
        <time>2024-08-10T21:21:36.000Z</time>
      </trkpt>
      <trkpt lat="51.460217" lon="0.231757">
        <ele>5.093013</ele>
        <time>2024-08-10T21:21:36.000Z</time>
      </trkpt>
      <trkpt lat="51.46025" lon="0.231713">
        <ele>5.097131</ele>
        <time>2024-08-10T21:21:36.000Z</time>
      </trkpt>
      <trkpt lat="51.460313" lon="0.231675">
        <ele>5.102404</ele>
        <time>2024-08-10T21:21:37.000Z</time>
      </trkpt>
      <trkpt lat="51.460374" lon="0.231682">
        <ele>5.10754</ele>
        <time>2024-08-10T21:21:38.000Z</time>
      </trkpt>
      <trkpt lat="51.460418" lon="0.231714">
        <ele>5.111617</ele>
        <time>2024-08-10T21:21:39.000Z</time>
      </trkpt>
      <trkpt lat="51.460444" lon="0.231771">
        <ele>5.115637</ele>
        <time>2024-08-10T21:21:39.000Z</time>
      </trkpt>
      <trkpt lat="51.460543" lon="0.231807">
        <ele>5.124467</ele>
        <time>2024-08-10T21:21:40.000Z</time>
      </trkpt>
      <trkpt lat="51.460651" lon="0.231852">
        <ele>5.133776</ele>
        <time>2024-08-10T21:21:41.000Z</time>
      </trkpt>
      <trkpt lat="51.46078" lon="0.2319">
        <ele>5.16598</ele>
        <time>2024-08-10T21:21:42.000Z</time>
      </trkpt>
      <trkpt lat="51.461355" lon="0.231951">
        <ele>5.510335</ele>
        <time>2024-08-10T21:21:48.000Z</time>
      </trkpt>
      <trkpt lat="51.461419" lon="0.231955">
        <ele>5.554561</ele>
        <time>2024-08-10T21:21:49.000Z</time>
      </trkpt>
      <trkpt lat="51.461467" lon="0.23183">
        <ele>5.609014</ele>
        <time>2024-08-10T21:21:50.000Z</time>
      </trkpt>
      <trkpt lat="51.461525" lon="0.231597">
        <ele>5.705227</ele>
        <time>2024-08-10T21:21:52.000Z</time>
      </trkpt>
      <trkpt lat="51.461578" lon="0.231335">
        <ele>5.805257</ele>
        <time>2024-08-10T21:21:54.000Z</time>
      </trkpt>
      <trkpt lat="51.461606" lon="0.231139">
        <ele>5.88575</ele>
        <time>2024-08-10T21:21:55.000Z</time>
      </trkpt>
      <trkpt lat="51.461664" lon="0.230503">
        <ele>6.128439</ele>
        <time>2024-08-10T21:21:59.000Z</time>
      </trkpt>
      <trkpt lat="51.461847" lon="0.226912">
        <ele>7.511947</ele>
        <time>2024-08-10T21:22:24.000Z</time>
      </trkpt>
      <trkpt lat="51.461855" lon="0.226731">
        <ele>7.529905</ele>
        <time>2024-08-10T21:22:25.000Z</time>
      </trkpt>
      <trkpt lat="51.46185" lon="0.226361">
        <ele>7.565822</ele>
        <time>2024-08-10T21:22:28.000Z</time>
      </trkpt>
      <trkpt lat="51.461826" lon="0.226203">
        <ele>7.581552</ele>
        <time>2024-08-10T21:22:29.000Z</time>
      </trkpt>
      <trkpt lat="51.460971" lon="0.224091">
        <ele>7.735423</ele>
        <time>2024-08-10T21:22:46.000Z</time>
      </trkpt>
      <trkpt lat="51.460792" lon="0.223764">
        <ele>7.725622</ele>
        <time>2024-08-10T21:22:49.000Z</time>
      </trkpt>
      <trkpt lat="51.460523" lon="0.223444">
        <ele>7.713674</ele>
        <time>2024-08-10T21:22:53.000Z</time>
      </trkpt>
      <trkpt lat="51.460495" lon="0.223416">
        <ele>7.712514</ele>
        <time>2024-08-10T21:22:53.000Z</time>
      </trkpt>
      <trkpt lat="51.460494" lon="0.22341">
        <ele>7.712142</ele>
        <time>2024-08-10T21:22:53.000Z</time>
      </trkpt>
      <trkpt lat="51.460503" lon="0.223399">
        <ele>7.712154</ele>
        <time>2024-08-10T21:22:53.000Z</time>
      </trkpt>
      <trkpt lat="51.460486" lon="0.223398">
        <ele>7.712155</ele>
        <time>2024-08-10T21:22:53.000Z</time>
      </trkpt>
      <trkpt lat="51.460502" lon="0.223413">
        <ele>7.711772</ele>
        <time>2024-08-10T21:22:53.000Z</time>
      </trkpt>
      <trkpt lat="51.460533" lon="0.223441">
        <ele>7.710607</ele>
        <time>2024-08-10T21:22:53.000Z</time>
      </trkpt>
      <trkpt lat="51.460789" lon="0.223756">
        <ele>7.698681</ele>
        <time>2024-08-10T21:22:57.000Z</time>
      </trkpt>
      <trkpt lat="51.460981" lon="0.224079">
        <ele>7.688878</ele>
        <time>2024-08-10T21:23:00.000Z</time>
      </trkpt>
      <trkpt lat="51.461818" lon="0.226214">
        <ele>7.676737</ele>
        <time>2024-08-10T21:23:17.000Z</time>
      </trkpt>
      <trkpt lat="51.46185" lon="0.226356">
        <ele>7.676021</ele>
        <time>2024-08-10T21:23:18.000Z</time>
      </trkpt>
      <trkpt lat="51.461865" lon="0.226718">
        <ele>7.625341</ele>
        <time>2024-08-10T21:23:21.000Z</time>
      </trkpt>
      <trkpt lat="51.461849" lon="0.226908">
        <ele>7.550728</ele>
        <time>2024-08-10T21:23:22.000Z</time>
      </trkpt>
      <trkpt lat="51.461661" lon="0.230493">
        <ele>6.168516</ele>
        <time>2024-08-10T21:23:47.000Z</time>
      </trkpt>
      <trkpt lat="51.461598" lon="0.231128">
        <ele>5.968398</ele>
        <time>2024-08-10T21:23:51.000Z</time>
      </trkpt>
      <trkpt lat="51.461577" lon="0.231348">
        <ele>5.902017</ele>
        <time>2024-08-10T21:23:53.000Z</time>
      </trkpt>
      <trkpt lat="51.461524" lon="0.231597">
        <ele>5.819535</ele>
        <time>2024-08-10T21:23:55.000Z</time>
      </trkpt>
      <trkpt lat="51.461466" lon="0.231825">
        <ele>5.740206</ele>
        <time>2024-08-10T21:23:57.000Z</time>
      </trkpt>
      <trkpt lat="51.461419" lon="0.231962">
        <ele>5.695297</ele>
        <time>2024-08-10T21:23:58.000Z</time>
      </trkpt>
      <trkpt lat="51.461396" lon="0.232056">
        <ele>5.65924</ele>
        <time>2024-08-10T21:23:59.000Z</time>
      </trkpt>
      <trkpt lat="51.461326" lon="0.232251">
        <ele>5.592631</ele>
        <time>2024-08-10T21:24:01.000Z</time>
      </trkpt>
      <trkpt lat="51.461258" lon="0.232393">
        <ele>5.569213</ele>
        <time>2024-08-10T21:24:02.000Z</time>
      </trkpt>
      <trkpt lat="51.460684" lon="0.233722">
        <ele>5.381029</ele>
        <time>2024-08-10T21:24:13.000Z</time>
      </trkpt>
      <trkpt lat="51.460333" lon="0.235033">
        <ele>5.150758</ele>
        <time>2024-08-10T21:24:23.000Z</time>
      </trkpt>
      <trkpt lat="51.460325" lon="0.235213">
        <ele>5.09425</ele>
        <time>2024-08-10T21:24:24.000Z</time>
      </trkpt>
      <trkpt lat="51.460284" lon="0.235734">
        <ele>4.927306</ele>
        <time>2024-08-10T21:24:28.000Z</time>
      </trkpt>
      <trkpt lat="51.460268" lon="0.235745">
        <ele>4.926048</ele>
        <time>2024-08-10T21:24:28.000Z</time>
      </trkpt>
      <trkpt lat="51.460252" lon="0.236059">
        <ele>4.823651</ele>
        <time>2024-08-10T21:24:30.000Z</time>
      </trkpt>
      <trkpt lat="51.460259" lon="0.237584">
        <ele>4.341682</ele>
        <time>2024-08-10T21:24:41.000Z</time>
      </trkpt>
      <trkpt lat="51.460202" lon="0.238157">
        <ele>4.27289</ele>
        <time>2024-08-10T21:24:45.000Z</time>
      </trkpt>
      <trkpt lat="51.460111" lon="0.238642">
        <ele>4.215615</ele>
        <time>2024-08-10T21:24:49.000Z</time>
      </trkpt>
      <trkpt lat="51.460098" lon="0.238681">
        <ele>4.208837</ele>
        <time>2024-08-10T21:24:49.000Z</time>
      </trkpt>
      <trkpt lat="51.460058" lon="0.238847">
        <ele>4.188708</ele>
        <time>2024-08-10T21:24:50.000Z</time>
      </trkpt>
      <trkpt lat="51.459611" lon="0.240164">
        <ele>4.017663</ele>
        <time>2024-08-10T21:25:00.000Z</time>
      </trkpt>
      <trkpt lat="51.459302" lon="0.240738">
        <ele>4.016733</ele>
        <time>2024-08-10T21:25:05.000Z</time>
      </trkpt>
      <trkpt lat="51.458612" lon="0.241567">
        <ele>4.036181</ele>
        <time>2024-08-10T21:25:15.000Z</time>
      </trkpt>
      <trkpt lat="51.458558" lon="0.241614">
        <ele>4.037383</ele>
        <time>2024-08-10T21:25:16.000Z</time>
      </trkpt>
      <trkpt lat="51.458564" lon="0.241613">
        <ele>4.037435</ele>
        <time>2024-08-10T21:25:16.000Z</time>
      </trkpt>
      <trkpt lat="51.458549" lon="0.241605">
        <ele>4.037465</ele>
        <time>2024-08-10T21:25:16.000Z</time>
      </trkpt>
      <trkpt lat="51.45855" lon="0.241617">
        <ele>4.03753</ele>
        <time>2024-08-10T21:25:16.000Z</time>
      </trkpt>
      <trkpt lat="51.458563" lon="0.241607">
        <ele>4.037577</ele>
        <time>2024-08-10T21:25:16.000Z</time>
      </trkpt>
      <trkpt lat="51.458561" lon="0.241605">
        <ele>4.037621</ele>
        <time>2024-08-10T21:25:16.000Z</time>
      </trkpt>
      <trkpt lat="51.458563" lon="0.2416">
        <ele>4.037685</ele>
        <time>2024-08-10T21:25:16.000Z</time>
      </trkpt>
      <trkpt lat="51.458599" lon="0.241562">
        <ele>4.038867</ele>
        <time>2024-08-10T21:25:16.000Z</time>
      </trkpt>
      <trkpt lat="51.459315" lon="0.240732">
        <ele>4.048204</ele>
        <time>2024-08-10T21:25:26.000Z</time>
      </trkpt>
      <trkpt lat="51.459596" lon="0.240154">
        <ele>4.048766</ele>
        <time>2024-08-10T21:25:31.000Z</time>
      </trkpt>
      <trkpt lat="51.460056" lon="0.238854">
        <ele>4.082666</ele>
        <time>2024-08-10T21:25:41.000Z</time>
      </trkpt>
      <trkpt lat="51.460099" lon="0.238694">
        <ele>4.130881</ele>
        <time>2024-08-10T21:25:42.000Z</time>
      </trkpt>
      <trkpt lat="51.460106" lon="0.23863">
        <ele>4.147154</ele>
        <time>2024-08-10T21:25:42.000Z</time>
      </trkpt>
      <trkpt lat="51.460212" lon="0.238154">
        <ele>4.284363</ele>
        <time>2024-08-10T21:25:46.000Z</time>
      </trkpt>
      <trkpt lat="51.460252" lon="0.237589">
        <ele>4.445065</ele>
        <time>2024-08-10T21:25:50.000Z</time>
      </trkpt>
      <trkpt lat="51.460248" lon="0.236062">
        <ele>4.859598</ele>
        <time>2024-08-10T21:26:01.000Z</time>
      </trkpt>
      <trkpt lat="51.460272" lon="0.235748">
        <ele>4.932088</ele>
        <time>2024-08-10T21:26:03.000Z</time>
      </trkpt>
      <trkpt lat="51.460279" lon="0.23574">
        <ele>4.933</ele>
        <time>2024-08-10T21:26:03.000Z</time>
      </trkpt>
      <trkpt lat="51.460311" lon="0.235223">
        <ele>5.051206</ele>
        <time>2024-08-10T21:26:07.000Z</time>
      </trkpt>
      <trkpt lat="51.460345" lon="0.235047">
        <ele>5.091203</ele>
        <time>2024-08-10T21:26:08.000Z</time>
      </trkpt>
      <trkpt lat="51.460685" lon="0.233725">
        <ele>5.410126</ele>
        <time>2024-08-10T21:26:18.000Z</time>
      </trkpt>
      <trkpt lat="51.461259" lon="0.232407">
        <ele>5.361056</ele>
        <time>2024-08-10T21:26:29.000Z</time>
      </trkpt>
      <trkpt lat="51.461328" lon="0.232247">
        <ele>5.342284</ele>
        <time>2024-08-10T21:26:30.000Z</time>
      </trkpt>
      <trkpt lat="51.461385" lon="0.232071">
        <ele>5.320077</ele>
        <time>2024-08-10T21:26:31.000Z</time>
      </trkpt>
      <trkpt lat="51.461411" lon="0.231965">
        <ele>5.308052</ele>
        <time>2024-08-10T21:26:32.000Z</time>
      </trkpt>
      <trkpt lat="51.461387" lon="0.231967">
        <ele>5.303225</ele>
        <time>2024-08-10T21:26:32.000Z</time>
      </trkpt>
      <trkpt lat="51.461388" lon="0.231953">
        <ele>5.302891</ele>
        <time>2024-08-10T21:26:32.000Z</time>
      </trkpt>
      <trkpt lat="51.461382" lon="0.231953">
        <ele>5.302554</ele>
        <time>2024-08-10T21:26:32.000Z</time>
      </trkpt>
      <trkpt lat="51.461383" lon="0.231963">
        <ele>5.302396</ele>
        <time>2024-08-10T21:26:32.000Z</time>
      </trkpt>
      <trkpt lat="51.461381" lon="0.23196">
        <ele>5.302062</ele>
        <time>2024-08-10T21:26:32.000Z</time>
      </trkpt>
      <trkpt lat="51.461391" lon="0.231959">
        <ele>5.301892</ele>
        <time>2024-08-10T21:26:32.000Z</time>
      </trkpt>
      <trkpt lat="51.461383" lon="0.231966">
        <ele>5.301561</ele>
        <time>2024-08-10T21:26:32.000Z</time>
      </trkpt>
      <trkpt lat="51.461341" lon="0.231959">
        <ele>5.295896</ele>
        <time>2024-08-10T21:26:32.000Z</time>
      </trkpt>
      <trkpt lat="51.460775" lon="0.231889">
        <ele>5.20119</ele>
        <time>2024-08-10T21:26:38.000Z</time>
      </trkpt>
      <trkpt lat="51.460702" lon="0.231907">
        <ele>5.184438</ele>
        <time>2024-08-10T21:26:39.000Z</time>
      </trkpt>
      <trkpt lat="51.460634" lon="0.231909">
        <ele>5.169298</ele>
        <time>2024-08-10T21:26:40.000Z</time>
      </trkpt>
      <trkpt lat="51.460578" lon="0.231914">
        <ele>5.149155</ele>
        <time>2024-08-10T21:26:41.000Z</time>
      </trkpt>
      <trkpt lat="51.460464" lon="0.231981">
        <ele>5.120388</ele>
        <time>2024-08-10T21:26:42.000Z</time>
      </trkpt>
      <trkpt lat="51.460454" lon="0.232052">
        <ele>5.108749</ele>
        <time>2024-08-10T21:26:43.000Z</time>
      </trkpt>
      <trkpt lat="51.460386" lon="0.232133">
        <ele>5.085736</ele>
        <time>2024-08-10T21:26:44.000Z</time>
      </trkpt>
      <trkpt lat="51.460345" lon="0.23214">
        <ele>5.074209</ele>
        <time>2024-08-10T21:26:44.000Z</time>
      </trkpt>
      <trkpt lat="51.460299" lon="0.232127">
        <ele>5.063192</ele>
        <time>2024-08-10T21:26:45.000Z</time>
      </trkpt>
      <trkpt lat="51.460298" lon="0.232129">
        <ele>5.062369</ele>
        <time>2024-08-10T21:26:45.000Z</time>
      </trkpt>
      <trkpt lat="51.460302" lon="0.232133">
        <ele>5.061512</ele>
        <time>2024-08-10T21:26:45.000Z</time>
      </trkpt>
      <trkpt lat="51.460291" lon="0.232128">
        <ele>5.061255</ele>
        <time>2024-08-10T21:26:45.000Z</time>
      </trkpt>
      <trkpt lat="51.460304" lon="0.232128">
        <ele>5.061253</ele>
        <time>2024-08-10T21:26:45.000Z</time>
      </trkpt>
      <trkpt lat="51.460304" lon="0.232136">
        <ele>5.060928</ele>
        <time>2024-08-10T21:26:45.000Z</time>
      </trkpt>
      <trkpt lat="51.460294" lon="0.232128">
        <ele>5.0606</ele>
        <time>2024-08-10T21:26:45.000Z</time>
      </trkpt>
      <trkpt lat="51.460292" lon="0.232131">
        <ele>5.060033</ele>
        <time>2024-08-10T21:26:45.000Z</time>
      </trkpt>
      <trkpt lat="51.460256" lon="0.232107">
        <ele>5.048381</ele>
        <time>2024-08-10T21:26:45.000Z</time>
      </trkpt>
      <trkpt lat="51.46021" lon="0.23205">
        <ele>5.035518</ele>
        <time>2024-08-10T21:26:46.000Z</time>
      </trkpt>
      <trkpt lat="51.460159" lon="0.232047">
        <ele>5.017129</ele>
        <time>2024-08-10T21:26:47.000Z</time>
      </trkpt>
      <trkpt lat="51.459812" lon="0.231973">
        <ele>4.920885</ele>
        <time>2024-08-10T21:26:51.000Z</time>
      </trkpt>
      <trkpt lat="51.459457" lon="0.231522">
        <ele>4.797545</ele>
        <time>2024-08-10T21:26:56.000Z</time>
      </trkpt>
      <trkpt lat="51.459176" lon="0.231323">
        <ele>4.71264</ele>
        <time>2024-08-10T21:26:59.000Z</time>
      </trkpt>
      <trkpt lat="51.459052" lon="0.231323">
        <ele>4.724956</ele>
        <time>2024-08-10T21:27:00.000Z</time>
      </trkpt>
      <trkpt lat="51.459009" lon="0.231371">
        <ele>4.746219</ele>
        <time>2024-08-10T21:27:01.000Z</time>
      </trkpt>
      <trkpt lat="51.458976" lon="0.231396">
        <ele>4.767115</ele>
        <time>2024-08-10T21:27:01.000Z</time>
      </trkpt>
      <trkpt lat="51.458766" lon="0.231585">
        <ele>4.870579</ele>
        <time>2024-08-10T21:27:04.000Z</time>
      </trkpt>
      <trkpt lat="51.458713" lon="0.231625">
        <ele>4.895383</ele>
        <time>2024-08-10T21:27:05.000Z</time>
      </trkpt>
      <trkpt lat="51.458713" lon="0.231634">
        <ele>4.896917</ele>
        <time>2024-08-10T21:27:05.000Z</time>
      </trkpt>
      <trkpt lat="51.458701" lon="0.231631">
        <ele>4.897425</ele>
        <time>2024-08-10T21:27:05.000Z</time>
      </trkpt>
      <trkpt lat="51.458708" lon="0.231636">
        <ele>4.898443</ele>
        <time>2024-08-10T21:27:05.000Z</time>
      </trkpt>
      <trkpt lat="51.458713" lon="0.231641">
        <ele>4.899449</ele>
        <time>2024-08-10T21:27:05.000Z</time>
      </trkpt>
      <trkpt lat="51.458713" lon="0.231638">
        <ele>4.899957</ele>
        <time>2024-08-10T21:27:05.000Z</time>
      </trkpt>
      <trkpt lat="51.458699" lon="0.231651">
        <ele>4.900974</ele>
        <time>2024-08-10T21:27:05.000Z</time>
      </trkpt>
      <trkpt lat="51.458708" lon="0.231637">
        <ele>4.901659</ele>
        <time>2024-08-10T21:27:05.000Z</time>
      </trkpt>
      <trkpt lat="51.458702" lon="0.231645">
        <ele>4.901667</ele>
        <time>2024-08-10T21:27:05.000Z</time>
      </trkpt>
      <trkpt lat="51.458698" lon="0.231645">
        <ele>4.902168</ele>
        <time>2024-08-10T21:27:05.000Z</time>
      </trkpt>
      <trkpt lat="51.4587" lon="0.231649">
        <ele>4.903074</ele>
        <time>2024-08-10T21:27:05.000Z</time>
      </trkpt>
      <trkpt lat="51.458695" lon="0.231653">
        <ele>4.903768</ele>
        <time>2024-08-10T21:27:05.000Z</time>
      </trkpt>
      <trkpt lat="51.45869" lon="0.231651">
        <ele>4.904796</ele>
        <time>2024-08-10T21:27:05.000Z</time>
      </trkpt>
      <trkpt lat="51.458697" lon="0.231661">
        <ele>4.905468</ele>
        <time>2024-08-10T21:27:05.000Z</time>
      </trkpt>
      <trkpt lat="51.458181" lon="0.232579">
        <ele>5.23588</ele>
        <time>2024-08-10T21:27:14.000Z</time>
      </trkpt>
      <trkpt lat="51.458178" lon="0.232587">
        <ele>5.238619</ele>
        <time>2024-08-10T21:27:14.000Z</time>
      </trkpt>
      <trkpt lat="51.458188" lon="0.232584">
        <ele>5.240221</ele>
        <time>2024-08-10T21:27:14.000Z</time>
      </trkpt>
      <trkpt lat="51.458187" lon="0.232594">
        <ele>5.240758</ele>
        <time>2024-08-10T21:27:14.000Z</time>
      </trkpt>
      <trkpt lat="51.458171" lon="0.232588">
        <ele>5.24127</ele>
        <time>2024-08-10T21:27:14.000Z</time>
      </trkpt>
      <trkpt lat="51.458178" lon="0.232586">
        <ele>5.242176</ele>
        <time>2024-08-10T21:27:14.000Z</time>
      </trkpt>
      <trkpt lat="51.458177" lon="0.232592">
        <ele>5.242683</ele>
        <time>2024-08-10T21:27:14.000Z</time>
      </trkpt>
      <trkpt lat="51.458176" lon="0.232588">
        <ele>5.243196</ele>
        <time>2024-08-10T21:27:14.000Z</time>
      </trkpt>
      <trkpt lat="51.45818" lon="0.232602">
        <ele>5.24373</ele>
        <time>2024-08-10T21:27:14.000Z</time>
      </trkpt>
      <trkpt lat="51.45817" lon="0.232604">
        <ele>5.24442</ele>
        <time>2024-08-10T21:27:14.000Z</time>
      </trkpt>
      <trkpt lat="51.458184" lon="0.23259">
        <ele>5.245105</ele>
        <time>2024-08-10T21:27:14.000Z</time>
      </trkpt>
      <trkpt lat="51.458179" lon="0.232608">
        <ele>5.245791</ele>
        <time>2024-08-10T21:27:14.000Z</time>
      </trkpt>
      <trkpt lat="51.458182" lon="0.2326">
        <ele>5.246338</ele>
        <time>2024-08-10T21:27:14.000Z</time>
      </trkpt>
      <trkpt lat="51.458178" lon="0.232612">
        <ele>5.247029</ele>
        <time>2024-08-10T21:27:14.000Z</time>
      </trkpt>
      <trkpt lat="51.458167" lon="0.232613">
        <ele>5.247711</ele>
        <time>2024-08-10T21:27:14.000Z</time>
      </trkpt>
      <trkpt lat="51.458165" lon="0.232614">
        <ele>5.248405</ele>
        <time>2024-08-10T21:27:14.000Z</time>
      </trkpt>
      <trkpt lat="51.457791" lon="0.233625">
        <ele>5.611683</ele>
        <time>2024-08-10T21:27:22.000Z</time>
      </trkpt>
      <trkpt lat="51.45747" lon="0.234606">
        <ele>6.052955</ele>
        <time>2024-08-10T21:27:30.000Z</time>
      </trkpt>
      <trkpt lat="51.457477" lon="0.234615">
        <ele>6.053348</ele>
        <time>2024-08-10T21:27:30.000Z</time>
      </trkpt>
      <trkpt lat="51.457481" lon="0.234614">
        <ele>6.054104</ele>
        <time>2024-08-10T21:27:30.000Z</time>
      </trkpt>
      <trkpt lat="51.457473" lon="0.23461">
        <ele>6.054899</ele>
        <time>2024-08-10T21:27:30.000Z</time>
      </trkpt>
      <trkpt lat="51.457468" lon="0.234612">
        <ele>6.055694</ele>
        <time>2024-08-10T21:27:30.000Z</time>
      </trkpt>
      <trkpt lat="51.457469" lon="0.234609">
        <ele>6.056448</ele>
        <time>2024-08-10T21:27:30.000Z</time>
      </trkpt>
      <trkpt lat="51.457472" lon="0.234624">
        <ele>6.05723</ele>
        <time>2024-08-10T21:27:30.000Z</time>
      </trkpt>
      <trkpt lat="51.457473" lon="0.234615">
        <ele>6.058582</ele>
        <time>2024-08-10T21:27:30.000Z</time>
      </trkpt>
      <trkpt lat="51.457471" lon="0.234619">
        <ele>6.059375</ele>
        <time>2024-08-10T21:27:30.000Z</time>
      </trkpt>
      <trkpt lat="51.457479" lon="0.234635">
        <ele>6.06013</ele>
        <time>2024-08-10T21:27:30.000Z</time>
      </trkpt>
      <trkpt lat="51.457476" lon="0.23462">
        <ele>6.061327</ele>
        <time>2024-08-10T21:27:30.000Z</time>
      </trkpt>
      <trkpt lat="51.457464" lon="0.234637">
        <ele>6.062082</ele>
        <time>2024-08-10T21:27:30.000Z</time>
      </trkpt>
      <trkpt lat="51.457466" lon="0.234626">
        <ele>6.063276</ele>
        <time>2024-08-10T21:27:30.000Z</time>
      </trkpt>
      <trkpt lat="51.457466" lon="0.234634">
        <ele>6.065355</ele>
        <time>2024-08-10T21:27:30.000Z</time>
      </trkpt>
      <trkpt lat="51.45691" lon="0.236942">
        <ele>7.151255</ele>
        <time>2024-08-10T21:27:47.000Z</time>
      </trkpt>
      <trkpt lat="51.456912" lon="0.236968">
        <ele>7.167259</ele>
        <time>2024-08-10T21:27:47.000Z</time>
      </trkpt>
      <trkpt lat="51.456908" lon="0.236981">
        <ele>7.168941</ele>
        <time>2024-08-10T21:27:47.000Z</time>
      </trkpt>
      <trkpt lat="51.45691" lon="0.236967">
        <ele>7.170209</ele>
        <time>2024-08-10T21:27:47.000Z</time>
      </trkpt>
      <trkpt lat="51.456905" lon="0.236979">
        <ele>7.171212</ele>
        <time>2024-08-10T21:27:47.000Z</time>
      </trkpt>
      <trkpt lat="51.456896" lon="0.236986">
        <ele>7.172472</ele>
        <time>2024-08-10T21:27:47.000Z</time>
      </trkpt>
      <trkpt lat="51.456909" lon="0.236976">
        <ele>7.173739</ele>
        <time>2024-08-10T21:27:47.000Z</time>
      </trkpt>
      <trkpt lat="51.456901" lon="0.236979">
        <ele>7.175876</ele>
        <time>2024-08-10T21:27:47.000Z</time>
      </trkpt>
      <trkpt lat="51.456899" lon="0.236986">
        <ele>7.176831</ele>
        <time>2024-08-10T21:27:47.000Z</time>
      </trkpt>
      <trkpt lat="51.456894" lon="0.236995">
        <ele>7.177808</ele>
        <time>2024-08-10T21:27:47.000Z</time>
      </trkpt>
      <trkpt lat="51.456903" lon="0.236983">
        <ele>7.17909</ele>
        <time>2024-08-10T21:27:47.000Z</time>
      </trkpt>
      <trkpt lat="51.45655" lon="0.237937">
        <ele>7.724636</ele>
        <time>2024-08-10T21:27:55.000Z</time>
      </trkpt>
      <trkpt lat="51.456543" lon="0.237976">
        <ele>7.740275</ele>
        <time>2024-08-10T21:27:55.000Z</time>
      </trkpt>
      <trkpt lat="51.456542" lon="0.237966">
        <ele>7.743216</ele>
        <time>2024-08-10T21:27:55.000Z</time>
      </trkpt>
      <trkpt lat="51.45655" lon="0.237974">
        <ele>7.744147</ele>
        <time>2024-08-10T21:27:55.000Z</time>
      </trkpt>
      <trkpt lat="51.45654" lon="0.237986">
        <ele>7.745837</ele>
        <time>2024-08-10T21:27:55.000Z</time>
      </trkpt>
      <trkpt lat="51.456532" lon="0.237972">
        <ele>7.747105</ele>
        <time>2024-08-10T21:27:55.000Z</time>
      </trkpt>
      <trkpt lat="51.456544" lon="0.237973">
        <ele>7.748995</ele>
        <time>2024-08-10T21:27:55.000Z</time>
      </trkpt>
      <trkpt lat="51.456532" lon="0.237993">
        <ele>7.750249</ele>
        <time>2024-08-10T21:27:55.000Z</time>
      </trkpt>
      <trkpt lat="51.456545" lon="0.237991">
        <ele>7.751939</ele>
        <time>2024-08-10T21:27:55.000Z</time>
      </trkpt>
      <trkpt lat="51.456532" lon="0.237997">
        <ele>7.754478</ele>
        <time>2024-08-10T21:27:55.000Z</time>
      </trkpt>
      <trkpt lat="51.456531" lon="0.237989">
        <ele>7.756173</ele>
        <time>2024-08-10T21:27:55.000Z</time>
      </trkpt>
      <trkpt lat="51.456526" lon="0.237986">
        <ele>7.757119</ele>
        <time>2024-08-10T21:27:55.000Z</time>
      </trkpt>
      <trkpt lat="51.456537" lon="0.237999">
        <ele>7.758375</ele>
        <time>2024-08-10T21:27:55.000Z</time>
      </trkpt>
      <trkpt lat="51.456536" lon="0.238003">
        <ele>7.760066</ele>
        <time>2024-08-10T21:27:55.000Z</time>
      </trkpt>
      <trkpt lat="51.456091" lon="0.238916">
        <ele>8.279639</ele>
        <time>2024-08-10T21:28:03.000Z</time>
      </trkpt>
      <trkpt lat="51.455864" lon="0.239301">
        <ele>8.484938</ele>
        <time>2024-08-10T21:28:07.000Z</time>
      </trkpt>
      <trkpt lat="51.455858" lon="0.23931">
        <ele>8.486662</ele>
        <time>2024-08-10T21:28:07.000Z</time>
      </trkpt>
      <trkpt lat="51.455858" lon="0.239297">
        <ele>8.488142</ele>
        <time>2024-08-10T21:28:07.000Z</time>
      </trkpt>
      <trkpt lat="51.455842" lon="0.239313">
        <ele>8.489474</ele>
        <time>2024-08-10T21:28:07.000Z</time>
      </trkpt>
      <trkpt lat="51.455859" lon="0.239307">
        <ele>8.490222</ele>
        <time>2024-08-10T21:28:07.000Z</time>
      </trkpt>
      <trkpt lat="51.455852" lon="0.239299">
        <ele>8.490967</ele>
        <time>2024-08-10T21:28:07.000Z</time>
      </trkpt>
      <trkpt lat="51.455847" lon="0.239301">
        <ele>8.491976</ele>
        <time>2024-08-10T21:28:07.000Z</time>
      </trkpt>
      <trkpt lat="51.455855" lon="0.239306">
        <ele>8.492969</ele>
        <time>2024-08-10T21:28:07.000Z</time>
      </trkpt>
      <trkpt lat="51.45584" lon="0.239322">
        <ele>8.493718</ele>
        <time>2024-08-10T21:28:07.000Z</time>
      </trkpt>
      <trkpt lat="51.455847" lon="0.239322">
        <ele>8.494718</ele>
        <time>2024-08-10T21:28:07.000Z</time>
      </trkpt>
      <trkpt lat="51.455765" lon="0.239442">
        <ele>8.562292</ele>
        <time>2024-08-10T21:28:08.000Z</time>
      </trkpt>
      <trkpt lat="51.45512" lon="0.240232">
        <ele>9.076494</ele>
        <time>2024-08-10T21:28:17.000Z</time>
      </trkpt>
      <trkpt lat="51.455122" lon="0.240234">
        <ele>9.078946</ele>
        <time>2024-08-10T21:28:17.000Z</time>
      </trkpt>
      <trkpt lat="51.455111" lon="0.240245">
        <ele>9.079692</ele>
        <time>2024-08-10T21:28:17.000Z</time>
      </trkpt>
      <trkpt lat="51.455124" lon="0.240239">
        <ele>9.080428</ele>
        <time>2024-08-10T21:28:17.000Z</time>
      </trkpt>
      <trkpt lat="51.455116" lon="0.240237">
        <ele>9.081173</ele>
        <time>2024-08-10T21:28:17.000Z</time>
      </trkpt>
      <trkpt lat="51.455114" lon="0.240242">
        <ele>9.081909</ele>
        <time>2024-08-10T21:28:17.000Z</time>
      </trkpt>
      <trkpt lat="51.455123" lon="0.240245">
        <ele>9.082662</ele>
        <time>2024-08-10T21:28:17.000Z</time>
      </trkpt>
      <trkpt lat="51.455107" lon="0.240252">
        <ele>9.084378</ele>
        <time>2024-08-10T21:28:17.000Z</time>
      </trkpt>
      <trkpt lat="51.455115" lon="0.240242">
        <ele>9.085136</ele>
        <time>2024-08-10T21:28:17.000Z</time>
      </trkpt>
      <trkpt lat="51.45511" lon="0.240245">
        <ele>9.086126</ele>
        <time>2024-08-10T21:28:17.000Z</time>
      </trkpt>
      <trkpt lat="51.455118" lon="0.240248">
        <ele>9.08762</ele>
        <time>2024-08-10T21:28:17.000Z</time>
      </trkpt>
      <trkpt lat="51.455116" lon="0.240248">
        <ele>9.089351</ele>
        <time>2024-08-10T21:28:17.000Z</time>
      </trkpt>
      <trkpt lat="51.455109" lon="0.240259">
        <ele>9.090839</ele>
        <time>2024-08-10T21:28:17.000Z</time>
      </trkpt>
      <trkpt lat="51.455113" lon="0.240256">
        <ele>9.091575</ele>
        <time>2024-08-10T21:28:17.000Z</time>
      </trkpt>
      <trkpt lat="51.455073" lon="0.240281">
        <ele>9.109762</ele>
        <time>2024-08-10T21:28:17.000Z</time>
      </trkpt>
      <trkpt lat="51.454686" lon="0.240613">
        <ele>9.098742</ele>
        <time>2024-08-10T21:28:22.000Z</time>
      </trkpt>
      <trkpt lat="51.454605" lon="0.240693">
        <ele>9.075423</ele>
        <time>2024-08-10T21:28:23.000Z</time>
      </trkpt>
      <trkpt lat="51.454611" lon="0.240685">
        <ele>9.074869</ele>
        <time>2024-08-10T21:28:23.000Z</time>
      </trkpt>
      <trkpt lat="51.454605" lon="0.240693">
        <ele>9.074248</ele>
        <time>2024-08-10T21:28:23.000Z</time>
      </trkpt>
      <trkpt lat="51.454607" lon="0.240685">
        <ele>9.073945</ele>
        <time>2024-08-10T21:28:23.000Z</time>
      </trkpt>
      <trkpt lat="51.454601" lon="0.240687">
        <ele>9.073928</ele>
        <time>2024-08-10T21:28:23.000Z</time>
      </trkpt>
      <trkpt lat="51.45461" lon="0.240689">
        <ele>9.073946</ele>
        <time>2024-08-10T21:28:23.000Z</time>
      </trkpt>
      <trkpt lat="51.455113" lon="0.240234">
        <ele>8.918857</ele>
        <time>2024-08-10T21:28:29.000Z</time>
      </trkpt>
      <trkpt lat="51.455115" lon="0.240231">
        <ele>8.918858</ele>
        <time>2024-08-10T21:28:29.000Z</time>
      </trkpt>
      <trkpt lat="51.455479" lon="0.239776">
        <ele>8.796383</ele>
        <time>2024-08-10T21:28:34.000Z</time>
      </trkpt>
      <trkpt lat="51.455853" lon="0.239312">
        <ele>8.602827</ele>
        <time>2024-08-10T21:28:39.000Z</time>
      </trkpt>
      <trkpt lat="51.455837" lon="0.23932">
        <ele>8.602831</ele>
        <time>2024-08-10T21:28:39.000Z</time>
      </trkpt>
      <trkpt lat="51.456193" lon="0.238662">
        <ele>8.178042</ele>
        <time>2024-08-10T21:28:45.000Z</time>
      </trkpt>
      <trkpt lat="51.456526" lon="0.237993">
        <ele>7.753766</ele>
        <time>2024-08-10T21:28:51.000Z</time>
      </trkpt>
      <trkpt lat="51.456542" lon="0.237986">
        <ele>7.753772</ele>
        <time>2024-08-10T21:28:51.000Z</time>
      </trkpt>
      <trkpt lat="51.456905" lon="0.236976">
        <ele>7.190535</ele>
        <time>2024-08-10T21:28:59.000Z</time>
      </trkpt>
      <trkpt lat="51.456894" lon="0.236982">
        <ele>7.190531</ele>
        <time>2024-08-10T21:28:59.000Z</time>
      </trkpt>
      <trkpt lat="51.457187" lon="0.235817">
        <ele>6.625456</ele>
        <time>2024-08-10T21:29:08.000Z</time>
      </trkpt>
      <trkpt lat="51.457465" lon="0.234636">
        <ele>6.05998</ele>
        <time>2024-08-10T21:29:17.000Z</time>
      </trkpt>
      <trkpt lat="51.45747" lon="0.234635">
        <ele>6.059979</ele>
        <time>2024-08-10T21:29:17.000Z</time>
      </trkpt>
      <trkpt lat="51.45783" lon="0.233619">
        <ele>5.660717</ele>
        <time>2024-08-10T21:29:25.000Z</time>
      </trkpt>
      <trkpt lat="51.458169" lon="0.232597">
        <ele>5.27832</ele>
        <time>2024-08-10T21:29:33.000Z</time>
      </trkpt>
      <trkpt lat="51.458166" lon="0.232606">
        <ele>5.278331</ele>
        <time>2024-08-10T21:29:33.000Z</time>
      </trkpt>
      <trkpt lat="51.458707" lon="0.231642">
        <ele>5.126259</ele>
        <time>2024-08-10T21:29:42.000Z</time>
      </trkpt>
      <trkpt lat="51.458698" lon="0.231637">
        <ele>5.126258</ele>
        <time>2024-08-10T21:29:42.000Z</time>
      </trkpt>
      <trkpt lat="51.4587" lon="0.23165">
        <ele>5.126255</ele>
        <time>2024-08-10T21:29:42.000Z</time>
      </trkpt>
      <trkpt lat="51.459109" lon="0.231222">
        <ele>5.2363</ele>
        <time>2024-08-10T21:29:47.000Z</time>
      </trkpt>
      <trkpt lat="51.459106" lon="0.231222">
        <ele>5.236295</ele>
        <time>2024-08-10T21:29:47.000Z</time>
      </trkpt>
      <trkpt lat="51.459105" lon="0.231222">
        <ele>5.236294</ele>
        <time>2024-08-10T21:29:47.000Z</time>
      </trkpt>
      <trkpt lat="51.459145" lon="0.230618">
        <ele>5.321999</ele>
        <time>2024-08-10T21:29:51.000Z</time>
      </trkpt>
      <trkpt lat="51.45915" lon="0.230626">
        <ele>5.321994</ele>
        <time>2024-08-10T21:29:51.000Z</time>
      </trkpt>
      <trkpt lat="51.459159" lon="0.230624">
        <ele>5.321987</ele>
        <time>2024-08-10T21:29:51.000Z</time>
      </trkpt>
      <trkpt lat="51.459265" lon="0.229847">
        <ele>5.434998</ele>
        <time>2024-08-10T21:29:57.000Z</time>
      </trkpt>
      <trkpt lat="51.459398" lon="0.229077">
        <ele>5.637952</ele>
        <time>2024-08-10T21:30:03.000Z</time>
      </trkpt>
      <trkpt lat="51.459404" lon="0.229076">
        <ele>5.637948</ele>
        <time>2024-08-10T21:30:03.000Z</time>
      </trkpt>
      <trkpt lat="51.459393" lon="0.229084">
        <ele>5.637946</ele>
        <time>2024-08-10T21:30:03.000Z</time>
      </trkpt>
      <trkpt lat="51.45945" lon="0.22818">
        <ele>5.88697</ele>
        <time>2024-08-10T21:30:09.000Z</time>
      </trkpt>
      <trkpt lat="51.459502" lon="0.227282">
        <ele>6.136268</ele>
        <time>2024-08-10T21:30:15.000Z</time>
      </trkpt>
      <trkpt lat="51.459502" lon="0.227284">
        <ele>6.136273</ele>
        <time>2024-08-10T21:30:15.000Z</time>
      </trkpt>
      <trkpt lat="51.459471" lon="0.226092">
        <ele>6.318492</ele>
        <time>2024-08-10T21:30:23.000Z</time>
      </trkpt>
      <trkpt lat="51.45946" lon="0.224906">
        <ele>6.417843</ele>
        <time>2024-08-10T21:30:31.000Z</time>
      </trkpt>
      <trkpt lat="51.459449" lon="0.223719">
        <ele>6.488822</ele>
        <time>2024-08-10T21:30:39.000Z</time>
      </trkpt>
      <trkpt lat="51.459439" lon="0.22372">
        <ele>6.488831</ele>
        <time>2024-08-10T21:30:39.000Z</time>
      </trkpt>
      <trkpt lat="51.459392" lon="0.222656">
        <ele>6.458817</ele>
        <time>2024-08-10T21:30:46.000Z</time>
      </trkpt>
      <trkpt lat="51.459345" lon="0.221597">
        <ele>6.42884</ele>
        <time>2024-08-10T21:30:53.000Z</time>
      </trkpt>
      <trkpt lat="51.459293" lon="0.220535">
        <ele>6.42428</ele>
        <time>2024-08-10T21:31:00.000Z</time>
      </trkpt>
      <trkpt lat="51.459312" lon="0.221233">
        <ele>6.436403</ele>
        <time>2024-08-10T21:31:05.000Z</time>
      </trkpt>
      <trkpt lat="51.459444" lon="0.223708">
        <ele>6.492107</ele>
        <time>2024-08-10T21:31:22.000Z</time>
      </trkpt>
      <trkpt lat="51.459499" lon="0.227291">
        <ele>6.26811</ele>
        <time>2024-08-10T21:31:47.000Z</time>
      </trkpt>
      <trkpt lat="51.459476" lon="0.22824">
        <ele>6.095229</ele>
        <time>2024-08-10T21:31:54.000Z</time>
      </trkpt>
      <trkpt lat="51.459358" lon="0.229404">
        <ele>5.718201</ele>
        <time>2024-08-10T21:32:02.000Z</time>
      </trkpt>
      <trkpt lat="51.459301" lon="0.229783">
        <ele>5.571272</ele>
        <time>2024-08-10T21:32:05.000Z</time>
      </trkpt>
      <trkpt lat="51.459178" lon="0.230432">
        <ele>5.308996</ele>
        <time>2024-08-10T21:32:10.000Z</time>
      </trkpt>
      <trkpt lat="51.459134" lon="0.230721">
        <ele>5.201608</ele>
        <time>2024-08-10T21:32:12.000Z</time>
      </trkpt>
      <trkpt lat="51.459134" lon="0.230965">
        <ele>5.103817</ele>
        <time>2024-08-10T21:32:14.000Z</time>
      </trkpt>
      <trkpt lat="51.459141" lon="0.230997">
        <ele>5.090331</ele>
        <time>2024-08-10T21:32:14.000Z</time>
      </trkpt>
      <trkpt lat="51.459217" lon="0.231118">
        <ele>5.022517</ele>
        <time>2024-08-10T21:32:15.000Z</time>
      </trkpt>
      <trkpt lat="51.459483" lon="0.231336">
        <ele>4.943109</ele>
        <time>2024-08-10T21:32:18.000Z</time>
      </trkpt>
      <trkpt lat="51.459796" lon="0.231786">
        <ele>5.020757</ele>
        <time>2024-08-10T21:32:23.000Z</time>
      </trkpt>
      <trkpt lat="51.460023" lon="0.231902">
        <ele>5.064917</ele>
        <time>2024-08-10T21:32:26.000Z</time>
      </trkpt>
      <trkpt lat="51.46012" lon="0.231882">
        <ele>5.08629</ele>
        <time>2024-08-10T21:32:27.000Z</time>
      </trkpt>
      <trkpt lat="51.460195" lon="0.231828">
        <ele>5.100925</ele>
        <time>2024-08-10T21:32:28.000Z</time>
      </trkpt>
      <trkpt lat="51.460212" lon="0.231762">
        <ele>5.109751</ele>
        <time>2024-08-10T21:32:28.000Z</time>
      </trkpt>
      <trkpt lat="51.460249" lon="0.231706">
        <ele>5.118668</ele>
        <time>2024-08-10T21:32:29.000Z</time>
      </trkpt>
      <trkpt lat="51.460313" lon="0.231669">
        <ele>5.130093</ele>
        <time>2024-08-10T21:32:30.000Z</time>
      </trkpt>
      <trkpt lat="51.460378" lon="0.231685">
        <ele>5.141271</ele>
        <time>2024-08-10T21:32:31.000Z</time>
      </trkpt>
      <trkpt lat="51.460423" lon="0.231704">
        <ele>5.150112</ele>
        <time>2024-08-10T21:32:32.000Z</time>
      </trkpt>
      <trkpt lat="51.460445" lon="0.23176">
        <ele>5.158841</ele>
        <time>2024-08-10T21:32:32.000Z</time>
      </trkpt>
      <trkpt lat="51.460545" lon="0.231808">
        <ele>5.17798</ele>
        <time>2024-08-10T21:32:33.000Z</time>
      </trkpt>
      <trkpt lat="51.460658" lon="0.231861">
        <ele>5.198144</ele>
        <time>2024-08-10T21:32:34.000Z</time>
      </trkpt>
      <trkpt lat="51.460774" lon="0.231898">
        <ele>5.221809</ele>
        <time>2024-08-10T21:32:35.000Z</time>
      </trkpt>
      <trkpt lat="51.461354" lon="0.231955">
        <ele>5.499548</ele>
        <time>2024-08-10T21:32:41.000Z</time>
      </trkpt>
      <trkpt lat="51.461427" lon="0.231964">
        <ele>5.544959</ele>
        <time>2024-08-10T21:32:42.000Z</time>
      </trkpt>
      <trkpt lat="51.461459" lon="0.231821">
        <ele>5.600874</ele>
        <time>2024-08-10T21:32:43.000Z</time>
      </trkpt>
      <trkpt lat="51.461518" lon="0.231587">
        <ele>5.699685</ele>
        <time>2024-08-10T21:32:45.000Z</time>
      </trkpt>
      <trkpt lat="51.461566" lon="0.231337">
        <ele>5.802414</ele>
        <time>2024-08-10T21:32:47.000Z</time>
      </trkpt>
      <trkpt lat="51.461609" lon="0.23114">
        <ele>5.885092</ele>
        <time>2024-08-10T21:32:48.000Z</time>
      </trkpt>
      <trkpt lat="51.461661" lon="0.230511">
        <ele>6.13433</ele>
        <time>2024-08-10T21:32:52.000Z</time>
      </trkpt>
      <trkpt lat="51.461862" lon="0.226904">
        <ele>7.583299</ele>
        <time>2024-08-10T21:33:17.000Z</time>
      </trkpt>
      <trkpt lat="51.461861" lon="0.226715">
        <ele>7.592329</ele>
        <time>2024-08-10T21:33:18.000Z</time>
      </trkpt>
      <trkpt lat="51.461849" lon="0.226367">
        <ele>7.610377</ele>
        <time>2024-08-10T21:33:20.000Z</time>
      </trkpt>
      <trkpt lat="51.461813" lon="0.226208">
        <ele>7.618274</ele>
        <time>2024-08-10T21:33:21.000Z</time>
      </trkpt>
      <trkpt lat="51.460969" lon="0.224078">
        <ele>7.720758</ele>
        <time>2024-08-10T21:33:38.000Z</time>
      </trkpt>
      <trkpt lat="51.460789" lon="0.223753">
        <ele>7.719865</ele>
        <time>2024-08-10T21:33:41.000Z</time>
      </trkpt>
      <trkpt lat="51.46053" lon="0.223446">
        <ele>7.718768</ele>
        <time>2024-08-10T21:33:45.000Z</time>
      </trkpt>
      <trkpt lat="51.460505" lon="0.223424">
        <ele>7.718651</ele>
        <time>2024-08-10T21:33:45.000Z</time>
      </trkpt>
      <trkpt lat="51.460487" lon="0.223413">
        <ele>7.718626</ele>
        <time>2024-08-10T21:33:45.000Z</time>
      </trkpt>
      <trkpt lat="51.460486" lon="0.223402">
        <ele>7.718628</ele>
        <time>2024-08-10T21:33:45.000Z</time>
      </trkpt>
      <trkpt lat="51.460486" lon="0.223415">
        <ele>7.718621</ele>
        <time>2024-08-10T21:33:45.000Z</time>
      </trkpt>
      <trkpt lat="51.460507" lon="0.223408">
        <ele>7.718596</ele>
        <time>2024-08-10T21:33:45.000Z</time>
      </trkpt>
      <trkpt lat="51.460528" lon="0.223434">
        <ele>7.718488</ele>
        <time>2024-08-10T21:33:45.000Z</time>
      </trkpt>
      <trkpt lat="51.460788" lon="0.223762">
        <ele>7.717381</ele>
        <time>2024-08-10T21:33:49.000Z</time>
      </trkpt>
      <trkpt lat="51.460977" lon="0.224082">
        <ele>7.716484</ele>
        <time>2024-08-10T21:33:52.000Z</time>
      </trkpt>
      <trkpt lat="51.461814" lon="0.226201">
        <ele>7.619001</ele>
        <time>2024-08-10T21:34:09.000Z</time>
      </trkpt>
      <trkpt lat="51.461837" lon="0.226361">
        <ele>7.611825</ele>
        <time>2024-08-10T21:34:10.000Z</time>
      </trkpt>
      <trkpt lat="51.461868" lon="0.22672">
        <ele>7.595437</ele>
        <time>2024-08-10T21:34:13.000Z</time>
      </trkpt>
      <trkpt lat="51.461844" lon="0.226896">
        <ele>7.587244</ele>
        <time>2024-08-10T21:34:14.000Z</time>
      </trkpt>
      <trkpt lat="51.461675" lon="0.230508">
        <ele>6.151167</ele>
        <time>2024-08-10T21:34:39.000Z</time>
      </trkpt>
      <trkpt lat="51.461615" lon="0.231136">
        <ele>5.976492</ele>
        <time>2024-08-10T21:34:43.000Z</time>
      </trkpt>
      <trkpt lat="51.46158" lon="0.23135">
        <ele>5.91856</ele>
        <time>2024-08-10T21:34:45.000Z</time>
      </trkpt>
      <trkpt lat="51.461521" lon="0.231598">
        <ele>5.846565</ele>
        <time>2024-08-10T21:34:47.000Z</time>
      </trkpt>
      <trkpt lat="51.461453" lon="0.231828">
        <ele>5.777316</ele>
        <time>2024-08-10T21:34:49.000Z</time>
      </trkpt>
      <trkpt lat="51.461412" lon="0.231957">
        <ele>5.738108</ele>
        <time>2024-08-10T21:34:50.000Z</time>
      </trkpt>
      <trkpt lat="51.461394" lon="0.232063">
        <ele>5.706636</ele>
        <time>2024-08-10T21:34:51.000Z</time>
      </trkpt>
      <trkpt lat="51.461325" lon="0.232241">
        <ele>5.648497</ele>
        <time>2024-08-10T21:34:52.000Z</time>
      </trkpt>
      <trkpt lat="51.461269" lon="0.232398">
        <ele>5.599369</ele>
        <time>2024-08-10T21:34:53.000Z</time>
      </trkpt>
      <trkpt lat="51.460686" lon="0.233725">
        <ele>5.360329</ele>
        <time>2024-08-10T21:35:04.000Z</time>
      </trkpt>
      <trkpt lat="51.46034" lon="0.235034">
        <ele>5.17286</ele>
        <time>2024-08-10T21:35:14.000Z</time>
      </trkpt>
      <trkpt lat="51.460324" lon="0.235224">
        <ele>5.119133</ele>
        <time>2024-08-10T21:35:15.000Z</time>
      </trkpt>
      <trkpt lat="51.460284" lon="0.235731">
        <ele>4.950081</ele>
        <time>2024-08-10T21:35:19.000Z</time>
      </trkpt>
      <trkpt lat="51.460277" lon="0.235745">
        <ele>4.948804</ele>
        <time>2024-08-10T21:35:19.000Z</time>
      </trkpt>
      <trkpt lat="51.460249" lon="0.236071">
        <ele>4.84513</ele>
        <time>2024-08-10T21:35:21.000Z</time>
      </trkpt>
      <trkpt lat="51.460261" lon="0.237574">
        <ele>4.357085</ele>
        <time>2024-08-10T21:35:31.000Z</time>
      </trkpt>
      <trkpt lat="51.460202" lon="0.238167">
        <ele>4.22539</ele>
        <time>2024-08-10T21:35:35.000Z</time>
      </trkpt>
      <trkpt lat="51.46011" lon="0.238627">
        <ele>4.186004</ele>
        <time>2024-08-10T21:35:38.000Z</time>
      </trkpt>
      <trkpt lat="51.460104" lon="0.238682">
        <ele>4.181346</ele>
        <time>2024-08-10T21:35:38.000Z</time>
      </trkpt>
      <trkpt lat="51.460054" lon="0.238847">
        <ele>4.167498</ele>
        <time>2024-08-10T21:35:39.000Z</time>
      </trkpt>
      <trkpt lat="51.459596" lon="0.240157">
        <ele>4.049882</ele>
        <time>2024-08-10T21:35:49.000Z</time>
      </trkpt>
      <trkpt lat="51.459314" lon="0.240734">
        <ele>4.01831</ele>
        <time>2024-08-10T21:35:54.000Z</time>
      </trkpt>
      <trkpt lat="51.458611" lon="0.241572">
        <ele>4.029702</ele>
        <time>2024-08-10T21:36:04.000Z</time>
      </trkpt>
      <trkpt lat="51.458549" lon="0.241604">
        <ele>4.03041</ele>
        <time>2024-08-10T21:36:05.000Z</time>
      </trkpt>
      <trkpt lat="51.458547" lon="0.241605">
        <ele>4.030428</ele>
        <time>2024-08-10T21:36:05.000Z</time>
      </trkpt>
      <trkpt lat="51.458562" lon="0.241619">
        <ele>4.030463</ele>
        <time>2024-08-10T21:36:05.000Z</time>
      </trkpt>
      <trkpt lat="51.458547" lon="0.241613">
        <ele>4.03048</ele>
        <time>2024-08-10T21:36:05.000Z</time>
      </trkpt>
      <trkpt lat="51.458553" lon="0.241607">
        <ele>4.030522</ele>
        <time>2024-08-10T21:36:05.000Z</time>
      </trkpt>
      <trkpt lat="51.458596" lon="0.241565">
        <ele>4.031205</ele>
        <time>2024-08-10T21:36:06.000Z</time>
      </trkpt>
      <trkpt lat="51.459307" lon="0.240731">
        <ele>4.047298</ele>
        <time>2024-08-10T21:36:16.000Z</time>
      </trkpt>
      <trkpt lat="51.459595" lon="0.240154">
        <ele>4.061785</ele>
        <time>2024-08-10T21:36:21.000Z</time>
      </trkpt>
      <trkpt lat="51.460059" lon="0.238845">
        <ele>4.090691</ele>
        <time>2024-08-10T21:36:31.000Z</time>
      </trkpt>
      <trkpt lat="51.460091" lon="0.23869">
        <ele>4.094086</ele>
        <time>2024-08-10T21:36:32.000Z</time>
      </trkpt>
      <trkpt lat="51.460117" lon="0.238634">
        <ele>4.095656</ele>
        <time>2024-08-10T21:36:32.000Z</time>
      </trkpt>
      <trkpt lat="51.460202" lon="0.238166">
        <ele>4.244803</ele>
        <time>2024-08-10T21:36:35.000Z</time>
      </trkpt>
      <trkpt lat="51.46025" lon="0.237584">
        <ele>4.419465</ele>
        <time>2024-08-10T21:36:39.000Z</time>
      </trkpt>
      <trkpt lat="51.46025" lon="0.23607">
        <ele>4.873904</ele>
        <time>2024-08-10T21:36:49.000Z</time>
      </trkpt>
      <trkpt lat="51.460276" lon="0.235738">
        <ele>4.966162</ele>
        <time>2024-08-10T21:36:51.000Z</time>
      </trkpt>
      <trkpt lat="51.460275" lon="0.23573">
        <ele>4.966947</ele>
        <time>2024-08-10T21:36:51.000Z</time>
      </trkpt>
      <trkpt lat="51.460319" lon="0.235225">
        <ele>5.069175</ele>
        <time>2024-08-10T21:36:55.000Z</time>
      </trkpt>
      <trkpt lat="51.460335" lon="0.235047">
        <ele>5.103792</ele>
        <time>2024-08-10T21:36:56.000Z</time>
      </trkpt>
      <trkpt lat="51.460679" lon="0.233737">
        <ele>5.379638</ele>
        <time>2024-08-10T21:37:06.000Z</time>
      </trkpt>
      <trkpt lat="51.461254" lon="0.232406">
        <ele>5.387742</ele>
        <time>2024-08-10T21:37:17.000Z</time>
      </trkpt>
      <trkpt lat="51.461315" lon="0.232247">
        <ele>5.361634</ele>
        <time>2024-08-10T21:37:18.000Z</time>
      </trkpt>
      <trkpt lat="51.461381" lon="0.23206">
        <ele>5.330754</ele>
        <time>2024-08-10T21:37:19.000Z</time>
      </trkpt>
      <trkpt lat="51.461425" lon="0.231965">
        <ele>5.314033</ele>
        <time>2024-08-10T21:37:20.000Z</time>
      </trkpt>
      <trkpt lat="51.461389" lon="0.231953">
        <ele>5.307305</ele>
        <time>2024-08-10T21:37:20.000Z</time>
      </trkpt>
      <trkpt lat="51.461392" lon="0.231966">
        <ele>5.30684</ele>
        <time>2024-08-10T21:37:20.000Z</time>
      </trkpt>
      <trkpt lat="51.461395" lon="0.231965">
        <ele>5.306381</ele>
        <time>2024-08-10T21:37:20.000Z</time>
      </trkpt>
      <trkpt lat="51.461394" lon="0.23195">
        <ele>5.306162</ele>
        <time>2024-08-10T21:37:20.000Z</time>
      </trkpt>
      <trkpt lat="51.461386" lon="0.23195">
        <ele>5.305693</ele>
        <time>2024-08-10T21:37:20.000Z</time>
      </trkpt>
      <trkpt lat="51.461382" lon="0.231962">
        <ele>5.305451</ele>
        <time>2024-08-10T21:37:20.000Z</time>
      </trkpt>
      <trkpt lat="51.461372" lon="0.231955">
        <ele>5.304987</ele>
        <time>2024-08-10T21:37:20.000Z</time>
      </trkpt>
      <trkpt lat="51.461347" lon="0.231955">
        <ele>5.297125</ele>
        <time>2024-08-10T21:37:20.000Z</time>
      </trkpt>
      <trkpt lat="51.460778" lon="0.231898">
        <ele>5.165429</ele>
        <time>2024-08-10T21:37:26.000Z</time>
      </trkpt>
      <trkpt lat="51.460689" lon="0.231899">
        <ele>5.146385</ele>
        <time>2024-08-10T21:37:27.000Z</time>
      </trkpt>
      <trkpt lat="51.460634" lon="0.231903">
        <ele>5.133604</ele>
        <time>2024-08-10T21:37:28.000Z</time>
      </trkpt>
      <trkpt lat="51.460579" lon="0.231916">
        <ele>5.116595</ele>
        <time>2024-08-10T21:37:29.000Z</time>
      </trkpt>
      <trkpt lat="51.460464" lon="0.231975">
        <ele>5.092936</ele>
        <time>2024-08-10T21:37:30.000Z</time>
      </trkpt>
      <trkpt lat="51.460455" lon="0.232044">
        <ele>5.08377</ele>
        <time>2024-08-10T21:37:30.000Z</time>
      </trkpt>
      <trkpt lat="51.460389" lon="0.232117">
        <ele>5.065626</ele>
        <time>2024-08-10T21:37:31.000Z</time>
      </trkpt>
      <trkpt lat="51.46034" lon="0.232147">
        <ele>5.056522</ele>
        <time>2024-08-10T21:37:32.000Z</time>
      </trkpt>
      <trkpt lat="51.460313" lon="0.232128">
        <ele>5.047839</ele>
        <time>2024-08-10T21:37:32.000Z</time>
      </trkpt>
      <trkpt lat="51.460305" lon="0.232137">
        <ele>5.047186</ele>
        <time>2024-08-10T21:37:32.000Z</time>
      </trkpt>
      <trkpt lat="51.4603" lon="0.232134">
        <ele>5.046516</ele>
        <time>2024-08-10T21:37:32.000Z</time>
      </trkpt>
      <trkpt lat="51.460297" lon="0.232123">
        <ele>5.046298</ele>
        <time>2024-08-10T21:37:32.000Z</time>
      </trkpt>
      <trkpt lat="51.460293" lon="0.232141">
        <ele>5.046298</ele>
        <time>2024-08-10T21:37:32.000Z</time>
      </trkpt>
      <trkpt lat="51.460304" lon="0.232122">
        <ele>5.046048</ele>
        <time>2024-08-10T21:37:32.000Z</time>
      </trkpt>
      <trkpt lat="51.460291" lon="0.232126">
        <ele>5.045787</ele>
        <time>2024-08-10T21:37:32.000Z</time>
      </trkpt>
      <trkpt lat="51.460301" lon="0.232127">
        <ele>5.045342</ele>
        <time>2024-08-10T21:37:32.000Z</time>
      </trkpt>
      <trkpt lat="51.460258" lon="0.232093">
        <ele>5.036146</ele>
        <time>2024-08-10T21:37:33.000Z</time>
      </trkpt>
      <trkpt lat="51.460226" lon="0.232046">
        <ele>5.026008</ele>
        <time>2024-08-10T21:37:33.000Z</time>
      </trkpt>
      <trkpt lat="51.46015" lon="0.232047">
        <ele>5.011507</ele>
        <time>2024-08-10T21:37:34.000Z</time>
      </trkpt>
      <trkpt lat="51.4598" lon="0.231961">
        <ele>4.935611</ele>
        <time>2024-08-10T21:37:38.000Z</time>
      </trkpt>
      <trkpt lat="51.45946" lon="0.231509">
        <ele>4.83832</ele>
        <time>2024-08-10T21:37:43.000Z</time>
      </trkpt>
      <trkpt lat="51.45916" lon="0.231322">
        <ele>4.771349</ele>
        <time>2024-08-10T21:37:47.000Z</time>
      </trkpt>
      <trkpt lat="51.459053" lon="0.231317">
        <ele>4.74734</ele>
        <time>2024-08-10T21:37:48.000Z</time>
      </trkpt>
      <trkpt lat="51.459021" lon="0.231363">
        <ele>4.736666</ele>
        <time>2024-08-10T21:37:48.000Z</time>
      </trkpt>
      <trkpt lat="51.458976" lon="0.231386">
        <ele>4.726171</ele>
        <time>2024-08-10T21:37:49.000Z</time>
      </trkpt>
      <trkpt lat="51.458771" lon="0.231589">
        <ele>4.803722</ele>
        <time>2024-08-10T21:37:52.000Z</time>
      </trkpt>
      <trkpt lat="51.458712" lon="0.231625">
        <ele>4.832913</ele>
        <time>2024-08-10T21:37:53.000Z</time>
      </trkpt>
      <trkpt lat="51.458715" lon="0.231629">
        <ele>4.834695</ele>
        <time>2024-08-10T21:37:53.000Z</time>
      </trkpt>
      <trkpt lat="51.458709" lon="0.231631">
        <ele>4.835293</ele>
        <time>2024-08-10T21:37:53.000Z</time>
      </trkpt>
      <trkpt lat="51.458705" lon="0.231633">
        <ele>4.836498</ele>
        <time>2024-08-10T21:37:53.000Z</time>
      </trkpt>
      <trkpt lat="51.458713" lon="0.231637">
        <ele>4.837687</ele>
        <time>2024-08-10T21:37:53.000Z</time>
      </trkpt>
      <trkpt lat="51.458699" lon="0.231639">
        <ele>4.838278</ele>
        <time>2024-08-10T21:37:53.000Z</time>
      </trkpt>
      <trkpt lat="51.458694" lon="0.231638">
        <ele>4.839488</ele>
        <time>2024-08-10T21:37:53.000Z</time>
      </trkpt>
      <trkpt lat="51.458698" lon="0.231646">
        <ele>4.840284</ele>
        <time>2024-08-10T21:37:53.000Z</time>
      </trkpt>
      <trkpt lat="51.458709" lon="0.231635">
        <ele>4.840296</ele>
        <time>2024-08-10T21:37:53.000Z</time>
      </trkpt>
      <trkpt lat="51.458706" lon="0.231647">
        <ele>4.840895</ele>
        <time>2024-08-10T21:37:53.000Z</time>
      </trkpt>
      <trkpt lat="51.458701" lon="0.231644">
        <ele>4.841969</ele>
        <time>2024-08-10T21:37:53.000Z</time>
      </trkpt>
      <trkpt lat="51.458696" lon="0.231645">
        <ele>4.842777</ele>
        <time>2024-08-10T21:37:53.000Z</time>
      </trkpt>
      <trkpt lat="51.458699" lon="0.231651">
        <ele>4.843963</ele>
        <time>2024-08-10T21:37:53.000Z</time>
      </trkpt>
      <trkpt lat="51.45869" lon="0.231645">
        <ele>4.84478</ele>
        <time>2024-08-10T21:37:53.000Z</time>
      </trkpt>
      <trkpt lat="51.458191" lon="0.232568">
        <ele>5.233564</ele>
        <time>2024-08-10T21:38:01.000Z</time>
      </trkpt>
      <trkpt lat="51.458186" lon="0.232574">
        <ele>5.236801</ele>
        <time>2024-08-10T21:38:01.000Z</time>
      </trkpt>
      <trkpt lat="51.458184" lon="0.232581">
        <ele>5.238673</ele>
        <time>2024-08-10T21:38:01.000Z</time>
      </trkpt>
      <trkpt lat="51.458172" lon="0.232585">
        <ele>5.239318</ele>
        <time>2024-08-10T21:38:01.000Z</time>
      </trkpt>
      <trkpt lat="51.458182" lon="0.232587">
        <ele>5.239915</ele>
        <time>2024-08-10T21:38:01.000Z</time>
      </trkpt>
      <trkpt lat="51.458181" lon="0.232584">
        <ele>5.240993</ele>
        <time>2024-08-10T21:38:01.000Z</time>
      </trkpt>
      <trkpt lat="51.458171" lon="0.232589">
        <ele>5.241573</ele>
        <time>2024-08-10T21:38:01.000Z</time>
      </trkpt>
      <trkpt lat="51.458187" lon="0.23259">
        <ele>5.242178</ele>
        <time>2024-08-10T21:38:01.000Z</time>
      </trkpt>
      <trkpt lat="51.458177" lon="0.232596">
        <ele>5.242818</ele>
        <time>2024-08-10T21:38:01.000Z</time>
      </trkpt>
      <trkpt lat="51.458172" lon="0.232591">
        <ele>5.243626</ele>
        <time>2024-08-10T21:38:01.000Z</time>
      </trkpt>
      <trkpt lat="51.458182" lon="0.232596">
        <ele>5.24443</ele>
        <time>2024-08-10T21:38:01.000Z</time>
      </trkpt>
      <trkpt lat="51.458181" lon="0.232602">
        <ele>5.245238</ele>
        <time>2024-08-10T21:38:01.000Z</time>
      </trkpt>
      <trkpt lat="51.458167" lon="0.232596">
        <ele>5.245878</ele>
        <time>2024-08-10T21:38:01.000Z</time>
      </trkpt>
      <trkpt lat="51.458176" lon="0.232603">
        <ele>5.246685</ele>
        <time>2024-08-10T21:38:01.000Z</time>
      </trkpt>
      <trkpt lat="51.458176" lon="0.232602">
        <ele>5.247498</ele>
        <time>2024-08-10T21:38:01.000Z</time>
      </trkpt>
      <trkpt lat="51.458167" lon="0.23261">
        <ele>5.248297</ele>
        <time>2024-08-10T21:38:01.000Z</time>
      </trkpt>
      <trkpt lat="51.457792" lon="0.233623">
        <ele>5.623158</ele>
        <time>2024-08-10T21:38:09.000Z</time>
      </trkpt>
      <trkpt lat="51.45748" lon="0.234602">
        <ele>6.061277</ele>
        <time>2024-08-10T21:38:17.000Z</time>
      </trkpt>
      <trkpt lat="51.457483" lon="0.234607">
        <ele>6.061664</ele>
        <time>2024-08-10T21:38:17.000Z</time>
      </trkpt>
      <trkpt lat="51.457482" lon="0.234621">
        <ele>6.062421</ele>
        <time>2024-08-10T21:38:17.000Z</time>
      </trkpt>
      <trkpt lat="51.457466" lon="0.234615">
        <ele>6.06321</ele>
        <time>2024-08-10T21:38:17.000Z</time>
      </trkpt>
      <trkpt lat="51.45747" lon="0.234615">
        <ele>6.06399</ele>
        <time>2024-08-10T21:38:17.000Z</time>
      </trkpt>
      <trkpt lat="51.457463" lon="0.23461">
        <ele>6.064736</ele>
        <time>2024-08-10T21:38:17.000Z</time>
      </trkpt>
      <trkpt lat="51.457465" lon="0.234626">
        <ele>6.065536</ele>
        <time>2024-08-10T21:38:17.000Z</time>
      </trkpt>
      <trkpt lat="51.457474" lon="0.234615">
        <ele>6.066867</ele>
        <time>2024-08-10T21:38:17.000Z</time>
      </trkpt>
      <trkpt lat="51.457471" lon="0.234627">
        <ele>6.067666</ele>
        <time>2024-08-10T21:38:17.000Z</time>
      </trkpt>
      <trkpt lat="51.45747" lon="0.234624">
        <ele>6.06842</ele>
        <time>2024-08-10T21:38:17.000Z</time>
      </trkpt>
      <trkpt lat="51.457479" lon="0.234638">
        <ele>6.069594</ele>
        <time>2024-08-10T21:38:17.000Z</time>
      </trkpt>
      <trkpt lat="51.45747" lon="0.234624">
        <ele>6.070348</ele>
        <time>2024-08-10T21:38:17.000Z</time>
      </trkpt>
      <trkpt lat="51.457477" lon="0.234641">
        <ele>6.071522</ele>
        <time>2024-08-10T21:38:17.000Z</time>
      </trkpt>
      <trkpt lat="51.457464" lon="0.234632">
        <ele>6.073602</ele>
        <time>2024-08-10T21:38:17.000Z</time>
      </trkpt>
      <trkpt lat="51.456921" lon="0.236943">
        <ele>7.130246</ele>
        <time>2024-08-10T21:38:34.000Z</time>
      </trkpt>
      <trkpt lat="51.456914" lon="0.236973">
        <ele>7.146673</ele>
        <time>2024-08-10T21:38:34.000Z</time>
      </trkpt>
      <trkpt lat="51.456896" lon="0.23698">
        <ele>7.148402</ele>
        <time>2024-08-10T21:38:34.000Z</time>
      </trkpt>
      <trkpt lat="51.456909" lon="0.236976">
        <ele>7.149717</ele>
        <time>2024-08-10T21:38:34.000Z</time>
      </trkpt>
      <trkpt lat="51.456901" lon="0.236977">
        <ele>7.150741</ele>
        <time>2024-08-10T21:38:34.000Z</time>
      </trkpt>
      <trkpt lat="51.456907" lon="0.236982">
        <ele>7.152045</ele>
        <time>2024-08-10T21:38:34.000Z</time>
      </trkpt>
      <trkpt lat="51.456902" lon="0.236987">
        <ele>7.15335</ele>
        <time>2024-08-10T21:38:34.000Z</time>
      </trkpt>
      <trkpt lat="51.456899" lon="0.236977">
        <ele>7.155534</ele>
        <time>2024-08-10T21:38:34.000Z</time>
      </trkpt>
      <trkpt lat="51.456894" lon="0.236984">
        <ele>7.156501</ele>
        <time>2024-08-10T21:38:34.000Z</time>
      </trkpt>
      <trkpt lat="51.45689" lon="0.236995">
        <ele>7.157526</ele>
        <time>2024-08-10T21:38:34.000Z</time>
      </trkpt>
      <trkpt lat="51.456894" lon="0.236988">
        <ele>7.158825</ele>
        <time>2024-08-10T21:38:34.000Z</time>
      </trkpt>
      <trkpt lat="51.456565" lon="0.237948">
        <ele>7.719188</ele>
        <time>2024-08-10T21:38:42.000Z</time>
      </trkpt>
      <trkpt lat="51.456538" lon="0.237976">
        <ele>7.735246</ele>
        <time>2024-08-10T21:38:42.000Z</time>
      </trkpt>
      <trkpt lat="51.456537" lon="0.237982">
        <ele>7.738273</ele>
        <time>2024-08-10T21:38:42.000Z</time>
      </trkpt>
      <trkpt lat="51.456547" lon="0.237974">
        <ele>7.73923</ele>
        <time>2024-08-10T21:38:42.000Z</time>
      </trkpt>
      <trkpt lat="51.456549" lon="0.237975">
        <ele>7.740965</ele>
        <time>2024-08-10T21:38:42.000Z</time>
      </trkpt>
      <trkpt lat="51.456547" lon="0.237987">
        <ele>7.742274</ele>
        <time>2024-08-10T21:38:42.000Z</time>
      </trkpt>
      <trkpt lat="51.456533" lon="0.23799">
        <ele>7.744208</ele>
        <time>2024-08-10T21:38:42.000Z</time>
      </trkpt>
      <trkpt lat="51.456545" lon="0.237992">
        <ele>7.745503</ele>
        <time>2024-08-10T21:38:42.000Z</time>
      </trkpt>
      <trkpt lat="51.456539" lon="0.237981">
        <ele>7.747242</ele>
        <time>2024-08-10T21:38:42.000Z</time>
      </trkpt>
      <trkpt lat="51.456537" lon="0.237993">
        <ele>7.749852</ele>
        <time>2024-08-10T21:38:42.000Z</time>
      </trkpt>
      <trkpt lat="51.456531" lon="0.23799">
        <ele>7.751584</ele>
        <time>2024-08-10T21:38:42.000Z</time>
      </trkpt>
      <trkpt lat="51.456529" lon="0.237993">
        <ele>7.752536</ele>
        <time>2024-08-10T21:38:42.000Z</time>
      </trkpt>
      <trkpt lat="51.456524" lon="0.237996">
        <ele>7.753841</ele>
        <time>2024-08-10T21:38:42.000Z</time>
      </trkpt>
      <trkpt lat="51.456534" lon="0.238008">
        <ele>7.755585</ele>
        <time>2024-08-10T21:38:42.000Z</time>
      </trkpt>
      <trkpt lat="51.456081" lon="0.238916">
        <ele>8.312868</ele>
        <time>2024-08-10T21:38:50.000Z</time>
      </trkpt>
      <trkpt lat="51.455857" lon="0.2393">
        <ele>8.492383</ele>
        <time>2024-08-10T21:38:54.000Z</time>
      </trkpt>
      <trkpt lat="51.455862" lon="0.239293">
        <ele>8.493901</ele>
        <time>2024-08-10T21:38:54.000Z</time>
      </trkpt>
      <trkpt lat="51.455855" lon="0.239304">
        <ele>8.4952</ele>
        <time>2024-08-10T21:38:54.000Z</time>
      </trkpt>
      <trkpt lat="51.455851" lon="0.239314">
        <ele>8.496365</ele>
        <time>2024-08-10T21:38:54.000Z</time>
      </trkpt>
      <trkpt lat="51.45585" lon="0.239307">
        <ele>8.497012</ele>
        <time>2024-08-10T21:38:54.000Z</time>
      </trkpt>
      <trkpt lat="51.455852" lon="0.239304">
        <ele>8.497651</ele>
        <time>2024-08-10T21:38:54.000Z</time>
      </trkpt>
      <trkpt lat="51.455855" lon="0.239301">
        <ele>8.498548</ele>
        <time>2024-08-10T21:38:54.000Z</time>
      </trkpt>
      <trkpt lat="51.455846" lon="0.239316">
        <ele>8.49942</ele>
        <time>2024-08-10T21:38:54.000Z</time>
      </trkpt>
      <trkpt lat="51.455854" lon="0.23932">
        <ele>8.500069</ele>
        <time>2024-08-10T21:38:54.000Z</time>
      </trkpt>
      <trkpt lat="51.455839" lon="0.239317">
        <ele>8.500943</ele>
        <time>2024-08-10T21:38:54.000Z</time>
      </trkpt>
      <trkpt lat="51.455766" lon="0.239439">
        <ele>8.560033</ele>
        <time>2024-08-10T21:38:55.000Z</time>
      </trkpt>
      <trkpt lat="51.455122" lon="0.240239">
        <ele>9.009693</ele>
        <time>2024-08-10T21:39:04.000Z</time>
      </trkpt>
      <trkpt lat="51.455124" lon="0.240245">
        <ele>9.011857</ele>
        <time>2024-08-10T21:39:04.000Z</time>
      </trkpt>
      <trkpt lat="51.455125" lon="0.240234">
        <ele>9.012498</ele>
        <time>2024-08-10T21:39:04.000Z</time>
      </trkpt>
      <trkpt lat="51.455115" lon="0.240242">
        <ele>9.013139</ele>
        <time>2024-08-10T21:39:04.000Z</time>
      </trkpt>
      <trkpt lat="51.455123" lon="0.240234">
        <ele>9.013798</ele>
        <time>2024-08-10T21:39:04.000Z</time>
      </trkpt>
      <trkpt lat="51.455122" lon="0.24024">
        <ele>9.014438</ele>
        <time>2024-08-10T21:39:04.000Z</time>
      </trkpt>
      <trkpt lat="51.455117" lon="0.240236">
        <ele>9.015093</ele>
        <time>2024-08-10T21:39:04.000Z</time>
      </trkpt>
      <trkpt lat="51.455114" lon="0.240255">
        <ele>9.016595</ele>
        <time>2024-08-10T21:39:04.000Z</time>
      </trkpt>
      <trkpt lat="51.455113" lon="0.240257">
        <ele>9.01725</ele>
        <time>2024-08-10T21:39:04.000Z</time>
      </trkpt>
      <trkpt lat="51.455114" lon="0.240249">
        <ele>9.018124</ele>
        <time>2024-08-10T21:39:04.000Z</time>
      </trkpt>
      <trkpt lat="51.455116" lon="0.240256">
        <ele>9.019435</ele>
        <time>2024-08-10T21:39:04.000Z</time>
      </trkpt>
      <trkpt lat="51.455106" lon="0.240256">
        <ele>9.020943</ele>
        <time>2024-08-10T21:39:04.000Z</time>
      </trkpt>
      <trkpt lat="51.455096" lon="0.240249">
        <ele>9.022233</ele>
        <time>2024-08-10T21:39:04.000Z</time>
      </trkpt>
      <trkpt lat="51.455096" lon="0.240264">
        <ele>9.022881</ele>
        <time>2024-08-10T21:39:04.000Z</time>
      </trkpt>
      <trkpt lat="51.455073" lon="0.240284">
        <ele>9.038801</ele>
        <time>2024-08-10T21:39:04.000Z</time>
      </trkpt>
      <trkpt lat="51.454682" lon="0.240619">
        <ele>9.187142</ele>
        <time>2024-08-10T21:39:09.000Z</time>
      </trkpt>
      <trkpt lat="51.454612" lon="0.240689">
        <ele>9.155365</ele>
        <time>2024-08-10T21:39:10.000Z</time>
      </trkpt>
      <trkpt lat="51.454614" lon="0.240677">
        <ele>9.154605</ele>
        <time>2024-08-10T21:39:10.000Z</time>
      </trkpt>
      <trkpt lat="51.454604" lon="0.240681">
        <ele>9.15377</ele>
        <time>2024-08-10T21:39:10.000Z</time>
      </trkpt>
      <trkpt lat="51.454597" lon="0.240683">
        <ele>9.153345</ele>
        <time>2024-08-10T21:39:10.000Z</time>
      </trkpt>
      <trkpt lat="51.454594" lon="0.240693">
        <ele>9.15334</ele>
        <time>2024-08-10T21:39:10.000Z</time>
      </trkpt>
      <trkpt lat="51.454607" lon="0.240693">
        <ele>9.153342</ele>
        <time>2024-08-10T21:39:10.000Z</time>
      </trkpt>
      <trkpt lat="51.455104" lon="0.240249">
        <ele>8.948252</ele>
        <time>2024-08-10T21:39:16.000Z</time>
      </trkpt>
      <trkpt lat="51.455109" lon="0.240262">
        <ele>8.948263</ele>
        <time>2024-08-10T21:39:16.000Z</time>
      </trkpt>
      <trkpt lat="51.455483" lon="0.239782">
        <ele>8.776937</ele>
        <time>2024-08-10T21:39:21.000Z</time>
      </trkpt>
      <trkpt lat="51.455844" lon="0.239311">
        <ele>8.6056</ele>
        <time>2024-08-10T21:39:26.000Z</time>
      </trkpt>
      <trkpt lat="51.455853" lon="0.2393">
        <ele>8.605607</ele>
        <time>2024-08-10T21:39:26.000Z</time>
      </trkpt>
      <trkpt lat="51.455853" lon="0.239317">
        <ele>8.605609</ele>
        <time>2024-08-10T21:39:26.000Z</time>
      </trkpt>
      <trkpt lat="51.456186" lon="0.238643">
        <ele>8.23443</ele>
        <time>2024-08-10T21:39:32.000Z</time>
      </trkpt>
      <trkpt lat="51.456539" lon="0.23799">
        <ele>7.833498</ele>
        <time>2024-08-10T21:39:38.000Z</time>
      </trkpt>
      <trkpt lat="51.456542" lon="0.237994">
        <ele>7.833491</ele>
        <time>2024-08-10T21:39:38.000Z</time>
      </trkpt>
      <trkpt lat="51.456892" lon="0.236979">
        <ele>7.28642</ele>
        <time>2024-08-10T21:39:46.000Z</time>
      </trkpt>
      <trkpt lat="51.456907" lon="0.236987">
        <ele>7.286426</ele>
        <time>2024-08-10T21:39:46.000Z</time>
      </trkpt>
      <trkpt lat="51.457193" lon="0.235797">
        <ele>6.720007</ele>
        <time>2024-08-10T21:39:55.000Z</time>
      </trkpt>
      <trkpt lat="51.457472" lon="0.234633">
        <ele>6.156401</ele>
        <time>2024-08-10T21:40:04.000Z</time>
      </trkpt>
      <trkpt lat="51.457462" lon="0.234621">
        <ele>6.156389</ele>
        <time>2024-08-10T21:40:04.000Z</time>
      </trkpt>
      <trkpt lat="51.457816" lon="0.233605">
        <ele>5.722565</ele>
        <time>2024-08-10T21:40:12.000Z</time>
      </trkpt>
      <trkpt lat="51.458183" lon="0.23258">
        <ele>5.350504</ele>
        <time>2024-08-10T21:40:20.000Z</time>
      </trkpt>
      <trkpt lat="51.458187" lon="0.232596">
        <ele>5.3505</ele>
        <time>2024-08-10T21:40:20.000Z</time>
      </trkpt>
      <trkpt lat="51.458713" lon="0.231634">
        <ele>5.062516</ele>
        <time>2024-08-10T21:40:29.000Z</time>
      </trkpt>
      <trkpt lat="51.458707" lon="0.231646">
        <ele>5.062523</ele>
        <time>2024-08-10T21:40:29.000Z</time>
      </trkpt>
      <trkpt lat="51.458711" lon="0.23163">
        <ele>5.062514</ele>
        <time>2024-08-10T21:40:29.000Z</time>
      </trkpt>
      <trkpt lat="51.459111" lon="0.231219">
        <ele>5.212281</ele>
        <time>2024-08-10T21:40:34.000Z</time>
      </trkpt>
      <trkpt lat="51.459112" lon="0.231213">
        <ele>5.212269</ele>
        <time>2024-08-10T21:40:34.000Z</time>
      </trkpt>
      <trkpt lat="51.459115" lon="0.231218">
        <ele>5.212269</ele>
        <time>2024-08-10T21:40:34.000Z</time>
      </trkpt>
      <trkpt lat="51.459149" lon="0.23063">
        <ele>5.326101</ele>
        <time>2024-08-10T21:40:38.000Z</time>
      </trkpt>
      <trkpt lat="51.459153" lon="0.230624">
        <ele>5.326101</ele>
        <time>2024-08-10T21:40:38.000Z</time>
      </trkpt>
      <trkpt lat="51.45915" lon="0.230627">
        <ele>5.326097</ele>
        <time>2024-08-10T21:40:38.000Z</time>
      </trkpt>
      <trkpt lat="51.459271" lon="0.229862">
        <ele>5.479134</ele>
        <time>2024-08-10T21:40:43.000Z</time>
      </trkpt>
      <trkpt lat="51.459397" lon="0.229078">
        <ele>5.651139</ele>
        <time>2024-08-10T21:40:49.000Z</time>
      </trkpt>
      <trkpt lat="51.459405" lon="0.22908">
        <ele>5.651139</ele>
        <time>2024-08-10T21:40:49.000Z</time>
      </trkpt>
      <trkpt lat="51.459399" lon="0.22909">
        <ele>5.651154</ele>
        <time>2024-08-10T21:40:49.000Z</time>
      </trkpt>
      <trkpt lat="51.459449" lon="0.228194">
        <ele>5.881376</ele>
        <time>2024-08-10T21:40:55.000Z</time>
      </trkpt>
      <trkpt lat="51.459506" lon="0.227291">
        <ele>6.111825</ele>
        <time>2024-08-10T21:41:01.000Z</time>
      </trkpt>
      <trkpt lat="51.459497" lon="0.227289">
        <ele>6.111828</ele>
        <time>2024-08-10T21:41:01.000Z</time>
      </trkpt>
      <trkpt lat="51.459486" lon="0.226108">
        <ele>6.337936</ele>
        <time>2024-08-10T21:41:09.000Z</time>
      </trkpt>
      <trkpt lat="51.459456" lon="0.224925">
        <ele>6.413427</ele>
        <time>2024-08-10T21:41:17.000Z</time>
      </trkpt>
      <trkpt lat="51.459444" lon="0.223737">
        <ele>6.488943</ele>
        <time>2024-08-10T21:41:25.000Z</time>
      </trkpt>
      <trkpt lat="51.459432" lon="0.223727">
        <ele>6.488932</ele>
        <time>2024-08-10T21:41:25.000Z</time>
      </trkpt>
      <trkpt lat="51.459394" lon="0.222666">
        <ele>6.466545</ele>
        <time>2024-08-10T21:41:32.000Z</time>
      </trkpt>
      <trkpt lat="51.459338" lon="0.221601">
        <ele>6.433915</ele>
        <time>2024-08-10T21:41:39.000Z</time>
      </trkpt>
      <trkpt lat="51.459297" lon="0.220533">
        <ele>6.412527</ele>
        <time>2024-08-10T21:41:46.000Z</time>
      </trkpt>
      <trkpt lat="51.459315" lon="0.221234">
        <ele>6.429473</ele>
        <time>2024-08-10T21:41:51.000Z</time>
      </trkpt>
      <trkpt lat="51.459438" lon="0.223713">
        <ele>6.49275</ele>
        <time>2024-08-10T21:42:08.000Z</time>
      </trkpt>
      <trkpt lat="51.459488" lon="0.227292">
        <ele>6.267642</ele>
        <time>2024-08-10T21:42:33.000Z</time>
      </trkpt>
      <trkpt lat="51.45948" lon="0.228231">
        <ele>6.038795</ele>
        <time>2024-08-10T21:42:40.000Z</time>
      </trkpt>
      <trkpt lat="51.459358" lon="0.229414">
        <ele>5.70546</ele>
        <time>2024-08-10T21:42:48.000Z</time>
      </trkpt>
      <trkpt lat="51.459298" lon="0.229777">
        <ele>5.575514</ele>
        <time>2024-08-10T21:42:51.000Z</time>
      </trkpt>
      <trkpt lat="51.45917" lon="0.230445">
        <ele>5.343531</ele>
        <time>2024-08-10T21:42:56.000Z</time>
      </trkpt>
      <trkpt lat="51.459143" lon="0.23071">
        <ele>5.248561</ele>
        <time>2024-08-10T21:42:58.000Z</time>
      </trkpt>
      <trkpt lat="51.459139" lon="0.230979">
        <ele>5.162061</ele>
        <time>2024-08-10T21:43:00.000Z</time>
      </trkpt>
      <trkpt lat="51.459127" lon="0.230998">
        <ele>5.150129</ele>
        <time>2024-08-10T21:43:00.000Z</time>
      </trkpt>
      <trkpt lat="51.459217" lon="0.231121">
        <ele>5.090134</ele>
        <time>2024-08-10T21:43:01.000Z</time>
      </trkpt>
      <trkpt lat="51.459481" lon="0.231345">
        <ele>4.932694</ele>
        <time>2024-08-10T21:43:04.000Z</time>
      </trkpt>
      <trkpt lat="51.459779" lon="0.231788">
        <ele>4.967884</ele>
        <time>2024-08-10T21:43:09.000Z</time>
      </trkpt>
      <trkpt lat="51.46001" lon="0.231905">
        <ele>5.03238</ele>
        <time>2024-08-10T21:43:12.000Z</time>
      </trkpt>
      <trkpt lat="51.460128" lon="0.231882">
        <ele>5.063589</ele>
        <time>2024-08-10T21:43:13.000Z</time>
      </trkpt>
      <trkpt lat="51.460198" lon="0.231823">
        <ele>5.084969</ele>
        <time>2024-08-10T21:43:14.000Z</time>
      </trkpt>
      <trkpt lat="51.460218" lon="0.231756">
        <ele>5.097879</ele>
        <time>2024-08-10T21:43:15.000Z</time>
      </trkpt>
      <trkpt lat="51.460248" lon="0.231696">
        <ele>5.110904</ele>
        <time>2024-08-10T21:43:16.000Z</time>
      </trkpt>
      <trkpt lat="51.460307" lon="0.231672">
        <ele>5.127588</ele>
        <time>2024-08-10T21:43:17.000Z</time>
      </trkpt>
      <trkpt lat="51.460373" lon="0.231672">
        <ele>5.143904</ele>
        <time>2024-08-10T21:43:18.000Z</time>
      </trkpt>
      <trkpt lat="51.460426" lon="0.23171">
        <ele>5.156832</ele>
        <time>2024-08-10T21:43:19.000Z</time>
      </trkpt>
      <trkpt lat="51.460443" lon="0.231763">
        <ele>5.169561</ele>
        <time>2024-08-10T21:43:19.000Z</time>
      </trkpt>
      <trkpt lat="51.46055" lon="0.231801">
        <ele>5.197523</ele>
        <time>2024-08-10T21:43:20.000Z</time>
      </trkpt>
      <trkpt lat="51.460661" lon="0.231856">
        <ele>5.22699</ele>
        <time>2024-08-10T21:43:21.000Z</time>
      </trkpt>
      <trkpt lat="51.460781" lon="0.231897">
        <ele>5.261552</ele>
        <time>2024-08-10T21:43:22.000Z</time>
      </trkpt>
      <trkpt lat="51.461346" lon="0.23196">
        <ele>5.481013</ele>
        <time>2024-08-10T21:43:28.000Z</time>
      </trkpt>
      <trkpt lat="51.461426" lon="0.231967">
        <ele>5.528111</ele>
        <time>2024-08-10T21:43:29.000Z</time>
      </trkpt>
      <trkpt lat="51.461459" lon="0.231831">
        <ele>5.586103</ele>
        <time>2024-08-10T21:43:30.000Z</time>
      </trkpt>
      <trkpt lat="51.461522" lon="0.231599">
        <ele>5.688555</ele>
        <time>2024-08-10T21:43:32.000Z</time>
      </trkpt>
      <trkpt lat="51.46157" lon="0.23135">
        <ele>5.795071</ele>
        <time>2024-08-10T21:43:34.000Z</time>
      </trkpt>
      <trkpt lat="51.461616" lon="0.231129">
        <ele>5.880784</ele>
        <time>2024-08-10T21:43:36.000Z</time>
      </trkpt>
      <trkpt lat="51.461665" lon="0.230495">
        <ele>6.139223</ele>
        <time>2024-08-10T21:43:40.000Z</time>
      </trkpt>
      <trkpt lat="51.461847" lon="0.226901">
        <ele>7.571518</ele>
        <time>2024-08-10T21:44:05.000Z</time>
      </trkpt>
      <trkpt lat="51.461863" lon="0.226725">
        <ele>7.64314</ele>
        <time>2024-08-10T21:44:06.000Z</time>
      </trkpt>
      <trkpt lat="51.461842" lon="0.226359">
        <ele>7.671404</ele>
        <time>2024-08-10T21:44:09.000Z</time>
      </trkpt>
      <trkpt lat="51.461814" lon="0.226216">
        <ele>7.672688</ele>
        <time>2024-08-10T21:44:10.000Z</time>
      </trkpt>
      <trkpt lat="51.460968" lon="0.224087">
        <ele>7.693998</ele>
        <time>2024-08-10T21:44:27.000Z</time>
      </trkpt>
      <trkpt lat="51.460795" lon="0.223759">
        <ele>7.70239</ele>
        <time>2024-08-10T21:44:30.000Z</time>
      </trkpt>
      <trkpt lat="51.46054" lon="0.223442">
        <ele>7.712601</ele>
        <time>2024-08-10T21:44:34.000Z</time>
      </trkpt>
      <trkpt lat="51.460497" lon="0.223421">
        <ele>7.713585</ele>
        <time>2024-08-10T21:44:34.000Z</time>
      </trkpt>
      <trkpt lat="51.46049" lon="0.223414">
        <ele>7.713901</ele>
        <time>2024-08-10T21:44:34.000Z</time>
      </trkpt>
      <trkpt lat="51.460502" lon="0.223414">
        <ele>7.713904</ele>
        <time>2024-08-10T21:44:34.000Z</time>
      </trkpt>
      <trkpt lat="51.460503" lon="0.223411">
        <ele>7.713908</ele>
        <time>2024-08-10T21:44:34.000Z</time>
      </trkpt>
      <trkpt lat="51.460506" lon="0.223418">
        <ele>7.714228</ele>
        <time>2024-08-10T21:44:34.000Z</time>
      </trkpt>
      <trkpt lat="51.460532" lon="0.223445">
        <ele>7.715214</ele>
        <time>2024-08-10T21:44:34.000Z</time>
      </trkpt>
      <trkpt lat="51.460796" lon="0.223763">
        <ele>7.725424</ele>
        <time>2024-08-10T21:44:38.000Z</time>
      </trkpt>
      <trkpt lat="51.460974" lon="0.224088">
        <ele>7.733803</ele>
        <time>2024-08-10T21:44:41.000Z</time>
      </trkpt>
      <trkpt lat="51.461828" lon="0.226213">
        <ele>7.575889</ele>
        <time>2024-08-10T21:44:59.000Z</time>
      </trkpt>
      <trkpt lat="51.461845" lon="0.226364">
        <ele>7.560609</ele>
        <time>2024-08-10T21:45:00.000Z</time>
      </trkpt>
      <trkpt lat="51.461857" lon="0.226722">
        <ele>7.525718</ele>
        <time>2024-08-10T21:45:02.000Z</time>
      </trkpt>
      <trkpt lat="51.461862" lon="0.226903">
        <ele>7.508256</ele>
        <time>2024-08-10T21:45:03.000Z</time>
      </trkpt>
      <trkpt lat="51.461663" lon="0.2305">
        <ele>6.112388</ele>
        <time>2024-08-10T21:45:28.000Z</time>
      </trkpt>
      <trkpt lat="51.461613" lon="0.231132">
        <ele>5.964086</ele>
        <time>2024-08-10T21:45:32.000Z</time>
      </trkpt>
      <trkpt lat="51.461584" lon="0.231344">
        <ele>5.914903</ele>
        <time>2024-08-10T21:45:34.000Z</time>
      </trkpt>
      <trkpt lat="51.461531" lon="0.2316">
        <ele>5.853783</ele>
        <time>2024-08-10T21:45:36.000Z</time>
      </trkpt>
      <trkpt lat="51.461455" lon="0.23182">
        <ele>5.794981</ele>
        <time>2024-08-10T21:45:38.000Z</time>
      </trkpt>
      <trkpt lat="51.461411" lon="0.231957">
        <ele>5.761719</ele>
        <time>2024-08-10T21:45:39.000Z</time>
      </trkpt>
      <trkpt lat="51.461393" lon="0.232055">
        <ele>5.734997</ele>
        <time>2024-08-10T21:45:40.000Z</time>
      </trkpt>
      <trkpt lat="51.461314" lon="0.232245">
        <ele>5.685637</ele>
        <time>2024-08-10T21:45:42.000Z</time>
      </trkpt>
      <trkpt lat="51.461268" lon="0.232398">
        <ele>5.643927</ele>
        <time>2024-08-10T21:45:43.000Z</time>
      </trkpt>
      <trkpt lat="51.460679" lon="0.233738">
        <ele>5.351316</ele>
        <time>2024-08-10T21:45:54.000Z</time>
      </trkpt>
      <trkpt lat="51.460337" lon="0.235039">
        <ele>5.130095</ele>
        <time>2024-08-10T21:46:04.000Z</time>
      </trkpt>
      <trkpt lat="51.460321" lon="0.235209">
        <ele>5.102338</ele>
        <time>2024-08-10T21:46:05.000Z</time>
      </trkpt>
      <trkpt lat="51.460273" lon="0.235743">
        <ele>4.967224</ele>
        <time>2024-08-10T21:46:09.000Z</time>
      </trkpt>
      <trkpt lat="51.460278" lon="0.235747">
        <ele>4.965962</ele>
        <time>2024-08-10T21:46:09.000Z</time>
      </trkpt>
      <trkpt lat="51.460248" lon="0.236055">
        <ele>4.864233</ele>
        <time>2024-08-10T21:46:11.000Z</time>
      </trkpt>
      <trkpt lat="51.46026" lon="0.237583">
        <ele>4.385364</ele>
        <time>2024-08-10T21:46:22.000Z</time>
      </trkpt>
      <trkpt lat="51.460205" lon="0.23817">
        <ele>4.201321</ele>
        <time>2024-08-10T21:46:26.000Z</time>
      </trkpt>
      <trkpt lat="51.460117" lon="0.238639">
        <ele>4.14513</ele>
        <time>2024-08-10T21:46:29.000Z</time>
      </trkpt>
      <trkpt lat="51.460092" lon="0.238696">
        <ele>4.142357</ele>
        <time>2024-08-10T21:46:29.000Z</time>
      </trkpt>
      <trkpt lat="51.460057" lon="0.238857">
        <ele>4.134095</ele>
        <time>2024-08-10T21:46:30.000Z</time>
      </trkpt>
      <trkpt lat="51.459595" lon="0.240153">
        <ele>4.063986</ele>
        <time>2024-08-10T21:46:40.000Z</time>
      </trkpt>
      <trkpt lat="51.459298" lon="0.240724">
        <ele>4.028849</ele>
        <time>2024-08-10T21:46:45.000Z</time>
      </trkpt>
      <trkpt lat="51.458596" lon="0.241561">
        <ele>4.027645</ele>
        <time>2024-08-10T21:46:55.000Z</time>
      </trkpt>
      <trkpt lat="51.458553" lon="0.241605">
        <ele>4.027693</ele>
        <time>2024-08-10T21:46:56.000Z</time>
      </trkpt>
      <trkpt lat="51.458562" lon="0.241608">
        <ele>4.027696</ele>
        <time>2024-08-10T21:46:56.000Z</time>
      </trkpt>
      <trkpt lat="51.458547" lon="0.241603">
        <ele>4.027695</ele>
        <time>2024-08-10T21:46:56.000Z</time>
      </trkpt>
      <trkpt lat="51.45856" lon="0.241611">
        <ele>4.027697</ele>
        <time>2024-08-10T21:46:56.000Z</time>
      </trkpt>
      <trkpt lat="51.458545" lon="0.241612">
        <ele>4.027694</ele>
        <time>2024-08-10T21:46:56.000Z</time>
      </trkpt>
      <trkpt lat="51.458552" lon="0.241611">
        <ele>4.027689</ele>
        <time>2024-08-10T21:46:56.000Z</time>
      </trkpt>
      <trkpt lat="51.458547" lon="0.24161">
        <ele>4.027693</ele>
        <time>2024-08-10T21:46:56.000Z</time>
      </trkpt>
      <trkpt lat="51.458558" lon="0.241606">
        <ele>4.027704</ele>
        <time>2024-08-10T21:46:56.000Z</time>
      </trkpt>
      <trkpt lat="51.458551" lon="0.241607">
        <ele>4.027703</ele>
        <time>2024-08-10T21:46:56.000Z</time>
      </trkpt>
      <trkpt lat="51.458603" lon="0.241566">
        <ele>4.027733</ele>
        <time>2024-08-10T21:46:57.000Z</time>
      </trkpt>
      <trkpt lat="51.459308" lon="0.240732">
        <ele>4.031623</ele>
        <time>2024-08-10T21:47:07.000Z</time>
      </trkpt>
      <trkpt lat="51.459603" lon="0.240158">
        <ele>4.064518</ele>
        <time>2024-08-10T21:47:12.000Z</time>
      </trkpt>
      <trkpt lat="51.460059" lon="0.238843">
        <ele>4.13012</ele>
        <time>2024-08-10T21:47:22.000Z</time>
      </trkpt>
      <trkpt lat="51.460095" lon="0.238694">
        <ele>4.137846</ele>
        <time>2024-08-10T21:47:23.000Z</time>
      </trkpt>
      <trkpt lat="51.460119" lon="0.238643">
        <ele>4.140452</ele>
        <time>2024-08-10T21:47:23.000Z</time>
      </trkpt>
      <trkpt lat="51.460207" lon="0.238165">
        <ele>4.205296</ele>
        <time>2024-08-10T21:47:26.000Z</time>
      </trkpt>
      <trkpt lat="51.460266" lon="0.237588">
        <ele>4.388693</ele>
        <time>2024-08-10T21:47:30.000Z</time>
      </trkpt>
      <trkpt lat="51.460253" lon="0.236072">
        <ele>4.865844</ele>
        <time>2024-08-10T21:47:41.000Z</time>
      </trkpt>
      <trkpt lat="51.460281" lon="0.235741">
        <ele>4.967197</ele>
        <time>2024-08-10T21:47:43.000Z</time>
      </trkpt>
      <trkpt lat="51.460276" lon="0.23574">
        <ele>4.968457</ele>
        <time>2024-08-10T21:47:43.000Z</time>
      </trkpt>
      <trkpt lat="51.460316" lon="0.235208">
        <ele>5.098807</ele>
        <time>2024-08-10T21:47:47.000Z</time>
      </trkpt>
      <trkpt lat="51.460332" lon="0.235041">
        <ele>5.127671</ele>
        <time>2024-08-10T21:47:48.000Z</time>
      </trkpt>
      <trkpt lat="51.46068" lon="0.233737">
        <ele>5.357761</ele>
        <time>2024-08-10T21:47:58.000Z</time>
      </trkpt>
      <trkpt lat="51.461256" lon="0.232402">
        <ele>5.42858</ele>
        <time>2024-08-10T21:48:09.000Z</time>
      </trkpt>
      <trkpt lat="51.461321" lon="0.232255">
        <ele>5.396484</ele>
        <time>2024-08-10T21:48:10.000Z</time>
      </trkpt>
      <trkpt lat="51.461383" lon="0.232065">
        <ele>5.358476</ele>
        <time>2024-08-10T21:48:11.000Z</time>
      </trkpt>
      <trkpt lat="51.461416" lon="0.231961">
        <ele>5.337929</ele>
        <time>2024-08-10T21:48:12.000Z</time>
      </trkpt>
      <trkpt lat="51.461393" lon="0.23196">
        <ele>5.329653</ele>
        <time>2024-08-10T21:48:12.000Z</time>
      </trkpt>
      <trkpt lat="51.461383" lon="0.23195">
        <ele>5.329086</ele>
        <time>2024-08-10T21:48:12.000Z</time>
      </trkpt>
      <trkpt lat="51.461387" lon="0.231963">
        <ele>5.328522</ele>
        <time>2024-08-10T21:48:12.000Z</time>
      </trkpt>
      <trkpt lat="51.461394" lon="0.231958">
        <ele>5.328231</ele>
        <time>2024-08-10T21:48:12.000Z</time>
      </trkpt>
      <trkpt lat="51.461375" lon="0.231968">
        <ele>5.327663</ele>
        <time>2024-08-10T21:48:12.000Z</time>
      </trkpt>
      <trkpt lat="51.461378" lon="0.231959">
        <ele>5.327382</ele>
        <time>2024-08-10T21:48:12.000Z</time>
      </trkpt>
      <trkpt lat="51.461378" lon="0.23196">
        <ele>5.326812</ele>
        <time>2024-08-10T21:48:12.000Z</time>
      </trkpt>
      <trkpt lat="51.461345" lon="0.231967">
        <ele>5.317116</ele>
        <time>2024-08-10T21:48:12.000Z</time>
      </trkpt>
      <trkpt lat="51.460771" lon="0.231893">
        <ele>5.155137</ele>
        <time>2024-08-10T21:48:18.000Z</time>
      </trkpt>
      <trkpt lat="51.460704" lon="0.231908">
        <ele>5.131719</ele>
        <time>2024-08-10T21:48:19.000Z</time>
      </trkpt>
      <trkpt lat="51.460636" lon="0.231911">
        <ele>5.115994</ele>
        <time>2024-08-10T21:48:20.000Z</time>
      </trkpt>
      <trkpt lat="51.460568" lon="0.231914">
        <ele>5.095071</ele>
        <time>2024-08-10T21:48:21.000Z</time>
      </trkpt>
      <trkpt lat="51.460476" lon="0.231982">
        <ele>5.065184</ele>
        <time>2024-08-10T21:48:22.000Z</time>
      </trkpt>
      <trkpt lat="51.460457" lon="0.23205">
        <ele>5.053112</ele>
        <time>2024-08-10T21:48:23.000Z</time>
      </trkpt>
      <trkpt lat="51.460393" lon="0.232119">
        <ele>5.029199</ele>
        <time>2024-08-10T21:48:24.000Z</time>
      </trkpt>
      <trkpt lat="51.46035" lon="0.232134">
        <ele>5.017214</ele>
        <time>2024-08-10T21:48:24.000Z</time>
      </trkpt>
      <trkpt lat="51.460313" lon="0.23214">
        <ele>5.010872</ele>
        <time>2024-08-10T21:48:24.000Z</time>
      </trkpt>
      <trkpt lat="51.460292" lon="0.23213">
        <ele>5.010417</ele>
        <time>2024-08-10T21:48:24.000Z</time>
      </trkpt>
      <trkpt lat="51.460297" lon="0.232128">
        <ele>5.009965</ele>
        <time>2024-08-10T21:48:24.000Z</time>
      </trkpt>
      <trkpt lat="51.460288" lon="0.23214">
        <ele>5.009805</ele>
        <time>2024-08-10T21:48:24.000Z</time>
      </trkpt>
      <trkpt lat="51.460292" lon="0.232141">
        <ele>5.009811</ele>
        <time>2024-08-10T21:48:24.000Z</time>
      </trkpt>
      <trkpt lat="51.460289" lon="0.232133">
        <ele>5.00963</ele>
        <time>2024-08-10T21:48:24.000Z</time>
      </trkpt>
      <trkpt lat="51.460288" lon="0.232135">
        <ele>5.009461</ele>
        <time>2024-08-10T21:48:24.000Z</time>
      </trkpt>
      <trkpt lat="51.460293" lon="0.232136">
        <ele>5.009139</ele>
        <time>2024-08-10T21:48:24.000Z</time>
      </trkpt>
      <trkpt lat="51.460262" lon="0.232095">
        <ele>5.002739</ele>
        <time>2024-08-10T21:48:24.000Z</time>
      </trkpt>
      <trkpt lat="51.46021" lon="0.232059">
        <ele>4.995665</ele>
        <time>2024-08-10T21:48:25.000Z</time>
      </trkpt>
      <trkpt lat="51.460151" lon="0.232046">
        <ele>4.985552</ele>
        <time>2024-08-10T21:48:26.000Z</time>
      </trkpt>
      <trkpt lat="51.459799" lon="0.231962">
        <ele>4.932623</ele>
        <time>2024-08-10T21:48:30.000Z</time>
      </trkpt>
      <trkpt lat="51.459448" lon="0.231505">
        <ele>4.864796</ele>
        <time>2024-08-10T21:48:35.000Z</time>
      </trkpt>
      <trkpt lat="51.459172" lon="0.231331">
        <ele>4.818088</ele>
        <time>2024-08-10T21:48:38.000Z</time>
      </trkpt>
      <trkpt lat="51.459056" lon="0.231323">
        <ele>4.801341</ele>
        <time>2024-08-10T21:48:39.000Z</time>
      </trkpt>
      <trkpt lat="51.459013" lon="0.231367">
        <ele>4.793901</ele>
        <time>2024-08-10T21:48:40.000Z</time>
      </trkpt>
      <trkpt lat="51.45898" lon="0.231399">
        <ele>4.786594</ele>
        <time>2024-08-10T21:48:40.000Z</time>
      </trkpt>
      <trkpt lat="51.458767" lon="0.231579">
        <ele>4.750348</ele>
        <time>2024-08-10T21:48:43.000Z</time>
      </trkpt>
      <trkpt lat="51.458711" lon="0.231632">
        <ele>4.758895</ele>
        <time>2024-08-10T21:48:44.000Z</time>
      </trkpt>
      <trkpt lat="51.458702" lon="0.23164">
        <ele>4.760915</ele>
        <time>2024-08-10T21:48:44.000Z</time>
      </trkpt>
      <trkpt lat="51.45871" lon="0.231632">
        <ele>4.761577</ele>
        <time>2024-08-10T21:48:44.000Z</time>
      </trkpt>
      <trkpt lat="51.458699" lon="0.23164">
        <ele>4.762925</ele>
        <time>2024-08-10T21:48:44.000Z</time>
      </trkpt>
      <trkpt lat="51.458709" lon="0.231646">
        <ele>4.764275</ele>
        <time>2024-08-10T21:48:44.000Z</time>
      </trkpt>
      <trkpt lat="51.458714" lon="0.231634">
        <ele>4.764956</ele>
        <time>2024-08-10T21:48:44.000Z</time>
      </trkpt>
      <trkpt lat="51.458695" lon="0.231638">
        <ele>4.766294</ele>
        <time>2024-08-10T21:48:44.000Z</time>
      </trkpt>
      <trkpt lat="51.458698" lon="0.231637">
        <ele>4.76721</ele>
        <time>2024-08-10T21:48:44.000Z</time>
      </trkpt>
      <trkpt lat="51.458701" lon="0.231653">
        <ele>4.767214</ele>
        <time>2024-08-10T21:48:44.000Z</time>
      </trkpt>
      <trkpt lat="51.458702" lon="0.231646">
        <ele>4.767877</ele>
        <time>2024-08-10T21:48:44.000Z</time>
      </trkpt>
      <trkpt lat="51.458699" lon="0.231639">
        <ele>4.7691</ele>
        <time>2024-08-10T21:48:44.000Z</time>
      </trkpt>
      <trkpt lat="51.458695" lon="0.231648">
        <ele>4.770012</ele>
        <time>2024-08-10T21:48:44.000Z</time>
      </trkpt>
      <trkpt lat="51.458695" lon="0.231649">
        <ele>4.771353</ele>
        <time>2024-08-10T21:48:44.000Z</time>
      </trkpt>
      <trkpt lat="51.458692" lon="0.231656">
        <ele>4.772266</ele>
        <time>2024-08-10T21:48:44.000Z</time>
      </trkpt>
      <trkpt lat="51.45818" lon="0.23257">
        <ele>5.210495</ele>
        <time>2024-08-10T21:48:53.000Z</time>
      </trkpt>
      <trkpt lat="51.458184" lon="0.232578">
        <ele>5.21414</ele>
        <time>2024-08-10T21:48:53.000Z</time>
      </trkpt>
      <trkpt lat="51.458173" lon="0.232586">
        <ele>5.216251</ele>
        <time>2024-08-10T21:48:53.000Z</time>
      </trkpt>
      <trkpt lat="51.458171" lon="0.23258">
        <ele>5.216967</ele>
        <time>2024-08-10T21:48:53.000Z</time>
      </trkpt>
      <trkpt lat="51.458187" lon="0.232594">
        <ele>5.21765</ele>
        <time>2024-08-10T21:48:53.000Z</time>
      </trkpt>
      <trkpt lat="51.458186" lon="0.23259">
        <ele>5.218852</ele>
        <time>2024-08-10T21:48:53.000Z</time>
      </trkpt>
      <trkpt lat="51.458187" lon="0.232586">
        <ele>5.219535</ele>
        <time>2024-08-10T21:48:53.000Z</time>
      </trkpt>
      <trkpt lat="51.458187" lon="0.232591">
        <ele>5.220195</ele>
        <time>2024-08-10T21:48:53.000Z</time>
      </trkpt>
      <trkpt lat="51.458178" lon="0.232594">
        <ele>5.220914</ele>
        <time>2024-08-10T21:48:53.000Z</time>
      </trkpt>
      <trkpt lat="51.458173" lon="0.232589">
        <ele>5.221831</ele>
        <time>2024-08-10T21:48:53.000Z</time>
      </trkpt>
      <trkpt lat="51.458169" lon="0.232593">
        <ele>5.222734</ele>
        <time>2024-08-10T21:48:53.000Z</time>
      </trkpt>
      <trkpt lat="51.458181" lon="0.232602">
        <ele>5.223657</ele>
        <time>2024-08-10T21:48:53.000Z</time>
      </trkpt>
      <trkpt lat="51.458176" lon="0.23261">
        <ele>5.224368</ele>
        <time>2024-08-10T21:48:53.000Z</time>
      </trkpt>
      <trkpt lat="51.458183" lon="0.232598">
        <ele>5.225284</ele>
        <time>2024-08-10T21:48:53.000Z</time>
      </trkpt>
      <trkpt lat="51.458177" lon="0.232603">
        <ele>5.226201</ele>
        <time>2024-08-10T21:48:53.000Z</time>
      </trkpt>
      <trkpt lat="51.458164" lon="0.232609">
        <ele>5.227115</ele>
        <time>2024-08-10T21:48:53.000Z</time>
      </trkpt>
      <trkpt lat="51.457793" lon="0.233621">
        <ele>5.649624</ele>
        <time>2024-08-10T21:49:01.000Z</time>
      </trkpt>
      <trkpt lat="51.45747" lon="0.234618">
        <ele>6.073256</ele>
        <time>2024-08-10T21:49:09.000Z</time>
      </trkpt>
      <trkpt lat="51.45748" lon="0.23462">
        <ele>6.073657</ele>
        <time>2024-08-10T21:49:09.000Z</time>
      </trkpt>
      <trkpt lat="51.457466" lon="0.234606">
        <ele>6.074396</ele>
        <time>2024-08-10T21:49:09.000Z</time>
      </trkpt>
      <trkpt lat="51.457482" lon="0.234614">
        <ele>6.075191</ele>
        <time>2024-08-10T21:49:09.000Z</time>
      </trkpt>
      <trkpt lat="51.457476" lon="0.234616">
        <ele>6.075967</ele>
        <time>2024-08-10T21:49:09.000Z</time>
      </trkpt>
      <trkpt lat="51.457478" lon="0.234616">
        <ele>6.076707</ele>
        <time>2024-08-10T21:49:09.000Z</time>
      </trkpt>
      <trkpt lat="51.457469" lon="0.234617">
        <ele>6.077502</ele>
        <time>2024-08-10T21:49:09.000Z</time>
      </trkpt>
      <trkpt lat="51.457475" lon="0.234618">
        <ele>6.078841</ele>
        <time>2024-08-10T21:49:09.000Z</time>
      </trkpt>
      <trkpt lat="51.457472" lon="0.234634">
        <ele>6.079632</ele>
        <time>2024-08-10T21:49:09.000Z</time>
      </trkpt>
      <trkpt lat="51.457475" lon="0.234628">
        <ele>6.080371</ele>
        <time>2024-08-10T21:49:09.000Z</time>
      </trkpt>
      <trkpt lat="51.457464" lon="0.234628">
        <ele>6.081554</ele>
        <time>2024-08-10T21:49:09.000Z</time>
      </trkpt>
      <trkpt lat="51.457474" lon="0.234623">
        <ele>6.0823</ele>
        <time>2024-08-10T21:49:09.000Z</time>
      </trkpt>
      <trkpt lat="51.457469" lon="0.234632">
        <ele>6.083463</ele>
        <time>2024-08-10T21:49:09.000Z</time>
      </trkpt>
      <trkpt lat="51.457461" lon="0.234642">
        <ele>6.085525</ele>
        <time>2024-08-10T21:49:09.000Z</time>
      </trkpt>
      <trkpt lat="51.45691" lon="0.236935">
        <ele>7.103332</ele>
        <time>2024-08-10T21:49:26.000Z</time>
      </trkpt>
      <trkpt lat="51.456901" lon="0.236969">
        <ele>7.120113</ele>
        <time>2024-08-10T21:49:26.000Z</time>
      </trkpt>
      <trkpt lat="51.456896" lon="0.236966">
        <ele>7.121875</ele>
        <time>2024-08-10T21:49:26.000Z</time>
      </trkpt>
      <trkpt lat="51.456901" lon="0.236983">
        <ele>7.12322</ele>
        <time>2024-08-10T21:49:26.000Z</time>
      </trkpt>
      <trkpt lat="51.456901" lon="0.236984">
        <ele>7.124257</ele>
        <time>2024-08-10T21:49:26.000Z</time>
      </trkpt>
      <trkpt lat="51.456894" lon="0.23697">
        <ele>7.125575</ele>
        <time>2024-08-10T21:49:26.000Z</time>
      </trkpt>
      <trkpt lat="51.456905" lon="0.236989">
        <ele>7.126912</ele>
        <time>2024-08-10T21:49:26.000Z</time>
      </trkpt>
      <trkpt lat="51.456899" lon="0.236988">
        <ele>7.129155</ele>
        <time>2024-08-10T21:49:26.000Z</time>
      </trkpt>
      <trkpt lat="51.456895" lon="0.236985">
        <ele>7.130135</ele>
        <time>2024-08-10T21:49:26.000Z</time>
      </trkpt>
      <trkpt lat="51.456902" lon="0.236985">
        <ele>7.131181</ele>
        <time>2024-08-10T21:49:26.000Z</time>
      </trkpt>
      <trkpt lat="51.456889" lon="0.23698">
        <ele>7.132519</ele>
        <time>2024-08-10T21:49:26.000Z</time>
      </trkpt>
      <trkpt lat="51.456558" lon="0.237939">
        <ele>7.704827</ele>
        <time>2024-08-10T21:49:34.000Z</time>
      </trkpt>
      <trkpt lat="51.45654" lon="0.237968">
        <ele>7.72123</ele>
        <time>2024-08-10T21:49:34.000Z</time>
      </trkpt>
      <trkpt lat="51.456534" lon="0.237967">
        <ele>7.724324</ele>
        <time>2024-08-10T21:49:34.000Z</time>
      </trkpt>
      <trkpt lat="51.456548" lon="0.237975">
        <ele>7.725307</ele>
        <time>2024-08-10T21:49:34.000Z</time>
      </trkpt>
      <trkpt lat="51.456538" lon="0.237985">
        <ele>7.727086</ele>
        <time>2024-08-10T21:49:34.000Z</time>
      </trkpt>
      <trkpt lat="51.456541" lon="0.237985">
        <ele>7.728408</ele>
        <time>2024-08-10T21:49:34.000Z</time>
      </trkpt>
      <trkpt lat="51.456538" lon="0.237976">
        <ele>7.730372</ele>
        <time>2024-08-10T21:49:34.000Z</time>
      </trkpt>
      <trkpt lat="51.456545" lon="0.237985">
        <ele>7.731709</ele>
        <time>2024-08-10T21:49:34.000Z</time>
      </trkpt>
      <trkpt lat="51.456539" lon="0.237989">
        <ele>7.733491</ele>
        <time>2024-08-10T21:49:34.000Z</time>
      </trkpt>
      <trkpt lat="51.456539" lon="0.237985">
        <ele>7.73615</ele>
        <time>2024-08-10T21:49:34.000Z</time>
      </trkpt>
      <trkpt lat="51.456526" lon="0.237995">
        <ele>7.737917</ele>
        <time>2024-08-10T21:49:34.000Z</time>
      </trkpt>
      <trkpt lat="51.456525" lon="0.238">
        <ele>7.738898</ele>
        <time>2024-08-10T21:49:34.000Z</time>
      </trkpt>
      <trkpt lat="51.45653" lon="0.237994">
        <ele>7.740227</ele>
        <time>2024-08-10T21:49:34.000Z</time>
      </trkpt>
      <trkpt lat="51.456534" lon="0.237994">
        <ele>7.742008</ele>
        <time>2024-08-10T21:49:34.000Z</time>
      </trkpt>
      <trkpt lat="51.456083" lon="0.238919">
        <ele>8.34985</ele>
        <time>2024-08-10T21:49:42.000Z</time>
      </trkpt>
      <trkpt lat="51.455854" lon="0.239304">
        <ele>8.531074</ele>
        <time>2024-08-10T21:49:46.000Z</time>
      </trkpt>
      <trkpt lat="51.455855" lon="0.239304">
        <ele>8.532381</ele>
        <time>2024-08-10T21:49:46.000Z</time>
      </trkpt>
      <trkpt lat="51.455843" lon="0.239297">
        <ele>8.533525</ele>
        <time>2024-08-10T21:49:46.000Z</time>
      </trkpt>
      <trkpt lat="51.45585" lon="0.239298">
        <ele>8.534539</ele>
        <time>2024-08-10T21:49:46.000Z</time>
      </trkpt>
      <trkpt lat="51.455843" lon="0.239314">
        <ele>8.5351</ele>
        <time>2024-08-10T21:49:46.000Z</time>
      </trkpt>
      <trkpt lat="51.455841" lon="0.239302">
        <ele>8.535657</ele>
        <time>2024-08-10T21:49:46.000Z</time>
      </trkpt>
      <trkpt lat="51.455853" lon="0.239306">
        <ele>8.536432</ele>
        <time>2024-08-10T21:49:46.000Z</time>
      </trkpt>
      <trkpt lat="51.455841" lon="0.239309">
        <ele>8.537194</ele>
        <time>2024-08-10T21:49:46.000Z</time>
      </trkpt>
      <trkpt lat="51.455855" lon="0.23931">
        <ele>8.537771</ele>
        <time>2024-08-10T21:49:46.000Z</time>
      </trkpt>
      <trkpt lat="51.455849" lon="0.239306">
        <ele>8.538534</ele>
        <time>2024-08-10T21:49:46.000Z</time>
      </trkpt>
      <trkpt lat="51.455764" lon="0.23944">
        <ele>8.589955</ele>
        <time>2024-08-10T21:49:47.000Z</time>
      </trkpt>
      <trkpt lat="51.455126" lon="0.240237">
        <ele>8.981287</ele>
        <time>2024-08-10T21:49:56.000Z</time>
      </trkpt>
      <trkpt lat="51.455119" lon="0.240244">
        <ele>8.983156</ele>
        <time>2024-08-10T21:49:56.000Z</time>
      </trkpt>
      <trkpt lat="51.455118" lon="0.240232">
        <ele>8.983715</ele>
        <time>2024-08-10T21:49:56.000Z</time>
      </trkpt>
      <trkpt lat="51.455119" lon="0.240236">
        <ele>8.984295</ele>
        <time>2024-08-10T21:49:56.000Z</time>
      </trkpt>
      <trkpt lat="51.455113" lon="0.24024">
        <ele>8.984856</ele>
        <time>2024-08-10T21:49:56.000Z</time>
      </trkpt>
      <trkpt lat="51.455107" lon="0.240242">
        <ele>8.985413</ele>
        <time>2024-08-10T21:49:56.000Z</time>
      </trkpt>
      <trkpt lat="51.455119" lon="0.240249">
        <ele>8.985993</ele>
        <time>2024-08-10T21:49:56.000Z</time>
      </trkpt>
      <trkpt lat="51.455107" lon="0.240251">
        <ele>8.987301</ele>
        <time>2024-08-10T21:49:56.000Z</time>
      </trkpt>
      <trkpt lat="51.455117" lon="0.240251">
        <ele>8.98787</ele>
        <time>2024-08-10T21:49:56.000Z</time>
      </trkpt>
      <trkpt lat="51.455118" lon="0.240244">
        <ele>8.988636</ele>
        <time>2024-08-10T21:49:56.000Z</time>
      </trkpt>
      <trkpt lat="51.455111" lon="0.240256">
        <ele>8.989753</ele>
        <time>2024-08-10T21:49:56.000Z</time>
      </trkpt>
      <trkpt lat="51.455107" lon="0.240251">
        <ele>8.99108</ele>
        <time>2024-08-10T21:49:56.000Z</time>
      </trkpt>
      <trkpt lat="51.45511" lon="0.240257">
        <ele>8.992207</ele>
        <time>2024-08-10T21:49:56.000Z</time>
      </trkpt>
      <trkpt lat="51.455097" lon="0.240258">
        <ele>8.992774</ele>
        <time>2024-08-10T21:49:56.000Z</time>
      </trkpt>
      <trkpt lat="51.455089" lon="0.240282">
        <ele>9.006606</ele>
        <time>2024-08-10T21:49:56.000Z</time>
      </trkpt>
      <trkpt lat="51.454691" lon="0.240609">
        <ele>9.220321</ele>
        <time>2024-08-10T21:50:01.000Z</time>
      </trkpt>
      <trkpt lat="51.4546" lon="0.240693">
        <ele>9.262592</ele>
        <time>2024-08-10T21:50:02.000Z</time>
      </trkpt>
      <trkpt lat="51.454599" lon="0.240691">
        <ele>9.263606</ele>
        <time>2024-08-10T21:50:02.000Z</time>
      </trkpt>
      <trkpt lat="51.4546" lon="0.240688">
        <ele>9.264737</ele>
        <time>2024-08-10T21:50:02.000Z</time>
      </trkpt>
      <trkpt lat="51.454599" lon="0.24069">
        <ele>9.265291</ele>
        <time>2024-08-10T21:50:02.000Z</time>
      </trkpt>
      <trkpt lat="51.454603" lon="0.240685">
        <ele>9.266421</ele>
        <time>2024-08-10T21:50:02.000Z</time>
      </trkpt>
      <trkpt lat="51.454599" lon="0.240688">
        <ele>9.26643</ele>
        <time>2024-08-10T21:50:02.000Z</time>
      </trkpt>
      <trkpt lat="51.454603" lon="0.240699">
        <ele>9.266424</ele>
        <time>2024-08-10T21:50:02.000Z</time>
      </trkpt>
      <trkpt lat="51.455113" lon="0.240268">
        <ele>9.00468</ele>
        <time>2024-08-10T21:50:08.000Z</time>
      </trkpt>
      <trkpt lat="51.455097" lon="0.240266">
        <ele>9.004692</ele>
        <time>2024-08-10T21:50:08.000Z</time>
      </trkpt>
      <trkpt lat="51.455482" lon="0.239785">
        <ele>8.777241</ele>
        <time>2024-08-10T21:50:13.000Z</time>
      </trkpt>
      <trkpt lat="51.455857" lon="0.23931">
        <ele>8.549797</ele>
        <time>2024-08-10T21:50:18.000Z</time>
      </trkpt>
      <trkpt lat="51.455848" lon="0.239294">
        <ele>8.549799</ele>
        <time>2024-08-10T21:50:18.000Z</time>
      </trkpt>
      <trkpt lat="51.456195" lon="0.23865">
        <ele>8.229736</ele>
        <time>2024-08-10T21:50:24.000Z</time>
      </trkpt>
      <trkpt lat="51.456533" lon="0.238003">
        <ele>7.834715</ele>
        <time>2024-08-10T21:50:30.000Z</time>
      </trkpt>
      <trkpt lat="51.456527" lon="0.237995">
        <ele>7.834711</ele>
        <time>2024-08-10T21:50:30.000Z</time>
      </trkpt>
      <trkpt lat="51.456903" lon="0.236987">
        <ele>7.29482</ele>
        <time>2024-08-10T21:50:38.000Z</time>
      </trkpt>
      <trkpt lat="51.456905" lon="0.236993">
        <ele>7.294822</ele>
        <time>2024-08-10T21:50:38.000Z</time>
      </trkpt>
      <trkpt lat="51.457189" lon="0.235796">
        <ele>6.719482</ele>
        <time>2024-08-10T21:50:47.000Z</time>
      </trkpt>
      <trkpt lat="51.457468" lon="0.234613">
        <ele>6.152525</ele>
        <time>2024-08-10T21:50:56.000Z</time>
      </trkpt>
      <trkpt lat="51.457466" lon="0.234609">
        <ele>6.152527</ele>
        <time>2024-08-10T21:50:56.000Z</time>
      </trkpt>
      <trkpt lat="51.457829" lon="0.233597">
        <ele>5.696967</ele>
        <time>2024-08-10T21:51:04.000Z</time>
      </trkpt>
      <trkpt lat="51.458185" lon="0.232582">
        <ele>5.388525</ele>
        <time>2024-08-10T21:51:12.000Z</time>
      </trkpt>
      <trkpt lat="51.458181" lon="0.23258">
        <ele>5.388525</ele>
        <time>2024-08-10T21:51:12.000Z</time>
      </trkpt>
      <trkpt lat="51.4587" lon="0.231639">
        <ele>5.052225</ele>
        <time>2024-08-10T21:51:21.000Z</time>
      </trkpt>
      <trkpt lat="51.458699" lon="0.231637">
        <ele>5.052227</ele>
        <time>2024-08-10T21:51:21.000Z</time>
      </trkpt>
      <trkpt lat="51.458709" lon="0.231648">
        <ele>5.052215</ele>
        <time>2024-08-10T21:51:21.000Z</time>
      </trkpt>
      <trkpt lat="51.459119" lon="0.231216">
        <ele>5.176788</ele>
        <time>2024-08-10T21:51:26.000Z</time>
      </trkpt>
      <trkpt lat="51.459114" lon="0.231205">
        <ele>5.176777</ele>
        <time>2024-08-10T21:51:26.000Z</time>
      </trkpt>
      <trkpt lat="51.459103" lon="0.231218">
        <ele>5.176785</ele>
        <time>2024-08-10T21:51:26.000Z</time>
      </trkpt>
      <trkpt lat="51.459145" lon="0.230636">
        <ele>5.309231</ele>
        <time>2024-08-10T21:51:30.000Z</time>
      </trkpt>
      <trkpt lat="51.459159" lon="0.230641">
        <ele>5.309238</ele>
        <time>2024-08-10T21:51:30.000Z</time>
      </trkpt>
      <trkpt lat="51.459152" lon="0.230639">
        <ele>5.309231</ele>
        <time>2024-08-10T21:51:30.000Z</time>
      </trkpt>
      <trkpt lat="51.459278" lon="0.229855">
        <ele>5.492182</ele>
        <time>2024-08-10T21:51:36.000Z</time>
      </trkpt>
      <trkpt lat="51.459405" lon="0.229071">
        <ele>5.675445</ele>
        <time>2024-08-10T21:51:42.000Z</time>
      </trkpt>
      <trkpt lat="51.459392" lon="0.229068">
        <ele>5.675434</ele>
        <time>2024-08-10T21:51:42.000Z</time>
      </trkpt>
      <trkpt lat="51.459406" lon="0.229076">
        <ele>5.675444</ele>
        <time>2024-08-10T21:51:42.000Z</time>
      </trkpt>
      <trkpt lat="51.459439" lon="0.228171">
        <ele>5.886197</ele>
        <time>2024-08-10T21:51:48.000Z</time>
      </trkpt>
      <trkpt lat="51.459495" lon="0.227295">
        <ele>6.096896</ele>
        <time>2024-08-10T21:51:54.000Z</time>
      </trkpt>
      <trkpt lat="51.459491" lon="0.227295">
        <ele>6.096888</ele>
        <time>2024-08-10T21:51:54.000Z</time>
      </trkpt>
      <trkpt lat="51.45947" lon="0.226097">
        <ele>6.362149</ele>
        <time>2024-08-10T21:52:02.000Z</time>
      </trkpt>
      <trkpt lat="51.459462" lon="0.224919">
        <ele>6.415695</ele>
        <time>2024-08-10T21:52:10.000Z</time>
      </trkpt>
      <trkpt lat="51.459435" lon="0.223726">
        <ele>6.469286</ele>
        <time>2024-08-10T21:52:18.000Z</time>
      </trkpt>
      <trkpt lat="51.459433" lon="0.223725">
        <ele>6.469286</ele>
        <time>2024-08-10T21:52:18.000Z</time>
      </trkpt>
      <trkpt lat="51.459393" lon="0.222662">
        <ele>6.471182</ele>
        <time>2024-08-10T21:52:25.000Z</time>
      </trkpt>
      <trkpt lat="51.459349" lon="0.221602">
        <ele>6.440579</ele>
        <time>2024-08-10T21:52:32.000Z</time>
      </trkpt>
      <trkpt lat="51.459295" lon="0.220542">
        <ele>6.409962</ele>
        <time>2024-08-10T21:52:39.000Z</time>
      </trkpt>
      <trkpt lat="51.459295" lon="0.22053">
        <ele>6.409878</ele>
        <time>2024-08-10T21:52:39.000Z</time>
      </trkpt>
      <trkpt lat="51.459322" lon="0.221234">
        <ele>6.422762</ele>
        <time>2024-08-10T21:52:44.000Z</time>
      </trkpt>
      <trkpt lat="51.459449" lon="0.223712">
        <ele>6.493596</ele>
        <time>2024-08-10T21:53:01.000Z</time>
      </trkpt>
      <trkpt lat="51.459503" lon="0.227293">
        <ele>6.296423</ele>
        <time>2024-08-10T21:53:26.000Z</time>
      </trkpt>
      <trkpt lat="51.459482" lon="0.228224">
        <ele>6.019416</ele>
        <time>2024-08-10T21:53:32.000Z</time>
      </trkpt>
      <trkpt lat="51.459368" lon="0.229406">
        <ele>5.665838</ele>
        <time>2024-08-10T21:53:40.000Z</time>
      </trkpt>
      <trkpt lat="51.459303" lon="0.229793">
        <ele>5.55367</ele>
        <time>2024-08-10T21:53:43.000Z</time>
      </trkpt>
      <trkpt lat="51.459163" lon="0.230446">
        <ele>5.353412</ele>
        <time>2024-08-10T21:53:48.000Z</time>
      </trkpt>
      <trkpt lat="51.459137" lon="0.230724">
        <ele>5.271434</ele>
        <time>2024-08-10T21:53:50.000Z</time>
      </trkpt>
      <trkpt lat="51.459133" lon="0.230972">
        <ele>5.196773</ele>
        <time>2024-08-10T21:53:52.000Z</time>
      </trkpt>
      <trkpt lat="51.45914" lon="0.231001">
        <ele>5.186487</ele>
        <time>2024-08-10T21:53:52.000Z</time>
      </trkpt>
      <trkpt lat="51.459229" lon="0.231128">
        <ele>5.134695</ele>
        <time>2024-08-10T21:53:53.000Z</time>
      </trkpt>
      <trkpt lat="51.459473" lon="0.231343">
        <ele>4.998788</ele>
        <time>2024-08-10T21:53:56.000Z</time>
      </trkpt>
      <trkpt lat="51.459795" lon="0.231789">
        <ele>4.898629</ele>
        <time>2024-08-10T21:54:01.000Z</time>
      </trkpt>
      <trkpt lat="51.460015" lon="0.231907">
        <ele>4.982027</ele>
        <time>2024-08-10T21:54:04.000Z</time>
      </trkpt>
      <trkpt lat="51.460124" lon="0.231876">
        <ele>5.022375</ele>
        <time>2024-08-10T21:54:05.000Z</time>
      </trkpt>
      <trkpt lat="51.460201" lon="0.231822">
        <ele>5.050032</ele>
        <time>2024-08-10T21:54:06.000Z</time>
      </trkpt>
      <trkpt lat="51.460227" lon="0.231755">
        <ele>5.066726</ele>
        <time>2024-08-10T21:54:07.000Z</time>
      </trkpt>
      <trkpt lat="51.460259" lon="0.231708">
        <ele>5.08356</ele>
        <time>2024-08-10T21:54:07.000Z</time>
      </trkpt>
      <trkpt lat="51.460311" lon="0.231663">
        <ele>5.105137</ele>
        <time>2024-08-10T21:54:08.000Z</time>
      </trkpt>
      <trkpt lat="51.460381" lon="0.231677">
        <ele>5.126234</ele>
        <time>2024-08-10T21:54:09.000Z</time>
      </trkpt>
      <trkpt lat="51.460417" lon="0.231702">
        <ele>5.142949</ele>
        <time>2024-08-10T21:54:09.000Z</time>
      </trkpt>
      <trkpt lat="51.460449" lon="0.231772">
        <ele>5.159406</ele>
        <time>2024-08-10T21:54:10.000Z</time>
      </trkpt>
      <trkpt lat="51.460545" lon="0.231816">
        <ele>5.195549</ele>
        <time>2024-08-10T21:54:11.000Z</time>
      </trkpt>
      <trkpt lat="51.46065" lon="0.231853">
        <ele>5.233663</ele>
        <time>2024-08-10T21:54:12.000Z</time>
      </trkpt>
      <trkpt lat="51.460781" lon="0.231903">
        <ele>5.278354</ele>
        <time>2024-08-10T21:54:13.000Z</time>
      </trkpt>
      <trkpt lat="51.461356" lon="0.231961">
        <ele>5.477686</ele>
        <time>2024-08-10T21:54:19.000Z</time>
      </trkpt>
      <trkpt lat="51.461418" lon="0.231953">
        <ele>5.516367</ele>
        <time>2024-08-10T21:54:20.000Z</time>
      </trkpt>
      <trkpt lat="51.46145" lon="0.231829">
        <ele>5.575694</ele>
        <time>2024-08-10T21:54:21.000Z</time>
      </trkpt>
      <trkpt lat="51.461517" lon="0.231604">
        <ele>5.68052</ele>
        <time>2024-08-10T21:54:23.000Z</time>
      </trkpt>
      <trkpt lat="51.461582" lon="0.231337">
        <ele>5.789498</ele>
        <time>2024-08-10T21:54:25.000Z</time>
      </trkpt>
      <trkpt lat="51.461616" lon="0.231132">
        <ele>5.877208</ele>
        <time>2024-08-10T21:54:26.000Z</time>
      </trkpt>
      <trkpt lat="51.461672" lon="0.230502">
        <ele>6.141631</ele>
        <time>2024-08-10T21:54:30.000Z</time>
      </trkpt>
      <trkpt lat="51.461844" lon="0.22691">
        <ele>7.522357</ele>
        <time>2024-08-10T21:54:55.000Z</time>
      </trkpt>
      <trkpt lat="51.461854" lon="0.226727">
        <ele>7.58883</ele>
        <time>2024-08-10T21:54:56.000Z</time>
      </trkpt>
      <trkpt lat="51.461846" lon="0.226371">
        <ele>7.721785</ele>
        <time>2024-08-10T21:54:58.000Z</time>
      </trkpt>
      <trkpt lat="51.461827" lon="0.226204">
        <ele>7.73079</ele>
        <time>2024-08-10T21:54:59.000Z</time>
      </trkpt>
      <trkpt lat="51.460973" lon="0.224077">
        <ele>7.674024</ele>
        <time>2024-08-10T21:55:17.000Z</time>
      </trkpt>
      <trkpt lat="51.460787" lon="0.223754">
        <ele>7.676106</ele>
        <time>2024-08-10T21:55:20.000Z</time>
      </trkpt>
      <trkpt lat="51.460537" lon="0.223446">
        <ele>7.696661</ele>
        <time>2024-08-10T21:55:24.000Z</time>
      </trkpt>
      <trkpt lat="51.460503" lon="0.223413">
        <ele>7.698648</ele>
        <time>2024-08-10T21:55:24.000Z</time>
      </trkpt>
      <trkpt lat="51.460497" lon="0.223405">
        <ele>7.699281</ele>
        <time>2024-08-10T21:55:24.000Z</time>
      </trkpt>
      <trkpt lat="51.460496" lon="0.223413">
        <ele>7.699296</ele>
        <time>2024-08-10T21:55:24.000Z</time>
      </trkpt>
      <trkpt lat="51.460494" lon="0.223399">
        <ele>7.699279</ele>
        <time>2024-08-10T21:55:24.000Z</time>
      </trkpt>
      <trkpt lat="51.460508" lon="0.223418">
        <ele>7.699933</ele>
        <time>2024-08-10T21:55:24.000Z</time>
      </trkpt>
      <trkpt lat="51.460523" lon="0.223447">
        <ele>7.701918</ele>
        <time>2024-08-10T21:55:24.000Z</time>
      </trkpt>
      <trkpt lat="51.460797" lon="0.223767">
        <ele>7.722453</ele>
        <time>2024-08-10T21:55:28.000Z</time>
      </trkpt>
      <trkpt lat="51.460976" lon="0.224088">
        <ele>7.739327</ele>
        <time>2024-08-10T21:55:31.000Z</time>
      </trkpt>
      <trkpt lat="51.461818" lon="0.226205">
        <ele>7.558504</ele>
        <time>2024-08-10T21:55:48.000Z</time>
      </trkpt>
      <trkpt lat="51.461838" lon="0.22636">
        <ele>7.534354</ele>
        <time>2024-08-10T21:55:49.000Z</time>
      </trkpt>
      <trkpt lat="51.461866" lon="0.226732">
        <ele>7.479158</ele>
        <time>2024-08-10T21:55:52.000Z</time>
      </trkpt>
      <trkpt lat="51.461862" lon="0.226906">
        <ele>7.451564</ele>
        <time>2024-08-10T21:55:53.000Z</time>
      </trkpt>
      <trkpt lat="51.461673" lon="0.230508">
        <ele>6.061733</ele>
        <time>2024-08-10T21:56:18.000Z</time>
      </trkpt>
      <trkpt lat="51.461616" lon="0.231146">
        <ele>5.934638</ele>
        <time>2024-08-10T21:56:22.000Z</time>
      </trkpt>
      <trkpt lat="51.461577" lon="0.231335">
        <ele>5.892759</ele>
        <time>2024-08-10T21:56:23.000Z</time>
      </trkpt>
      <trkpt lat="51.46153" lon="0.231601">
        <ele>5.840744</ele>
        <time>2024-08-10T21:56:25.000Z</time>
      </trkpt>
      <trkpt lat="51.461452" lon="0.231831">
        <ele>5.79069</ele>
        <time>2024-08-10T21:56:27.000Z</time>
      </trkpt>
      <trkpt lat="51.461414" lon="0.231958">
        <ele>5.762368</ele>
        <time>2024-08-10T21:56:28.000Z</time>
      </trkpt>
      <trkpt lat="51.461395" lon="0.232064">
        <ele>5.739634</ele>
        <time>2024-08-10T21:56:29.000Z</time>
      </trkpt>
      <trkpt lat="51.461329" lon="0.23224">
        <ele>5.697615</ele>
        <time>2024-08-10T21:56:30.000Z</time>
      </trkpt>
      <trkpt lat="51.461262" lon="0.232398">
        <ele>5.662127</ele>
        <time>2024-08-10T21:56:31.000Z</time>
      </trkpt>
      <trkpt lat="51.460682" lon="0.233727">
        <ele>5.355607</ele>
        <time>2024-08-10T21:56:42.000Z</time>
      </trkpt>
      <trkpt lat="51.460346" lon="0.235047">
        <ele>5.099688</ele>
        <time>2024-08-10T21:56:52.000Z</time>
      </trkpt>
      <trkpt lat="51.460325" lon="0.235208">
        <ele>5.067575</ele>
        <time>2024-08-10T21:56:53.000Z</time>
      </trkpt>
      <trkpt lat="51.460283" lon="0.23573">
        <ele>4.97227</ele>
        <time>2024-08-10T21:56:57.000Z</time>
      </trkpt>
      <trkpt lat="51.460269" lon="0.235738">
        <ele>4.971047</ele>
        <time>2024-08-10T21:56:57.000Z</time>
      </trkpt>
      <trkpt lat="51.46024" lon="0.236057">
        <ele>4.873667</ele>
        <time>2024-08-10T21:56:59.000Z</time>
      </trkpt>
      <trkpt lat="51.46025" lon="0.237576">
        <ele>4.415228</ele>
        <time>2024-08-10T21:57:10.000Z</time>
      </trkpt>
      <trkpt lat="51.460208" lon="0.238167">
        <ele>4.239049</ele>
        <time>2024-08-10T21:57:14.000Z</time>
      </trkpt>
      <trkpt lat="51.460107" lon="0.238638">
        <ele>4.101748</ele>
        <time>2024-08-10T21:57:17.000Z</time>
      </trkpt>
      <trkpt lat="51.4601" lon="0.238696">
        <ele>4.10042</ele>
        <time>2024-08-10T21:57:17.000Z</time>
      </trkpt>
      <trkpt lat="51.46005" lon="0.238855">
        <ele>4.09647</ele>
        <time>2024-08-10T21:57:18.000Z</time>
      </trkpt>
      <trkpt lat="51.459596" lon="0.240149">
        <ele>4.062992</ele>
        <time>2024-08-10T21:57:28.000Z</time>
      </trkpt>
      <trkpt lat="51.459306" lon="0.240738">
        <ele>4.046214</ele>
        <time>2024-08-10T21:57:33.000Z</time>
      </trkpt>
      <trkpt lat="51.458612" lon="0.241561">
        <ele>4.030695</ele>
        <time>2024-08-10T21:57:43.000Z</time>
      </trkpt>
      <trkpt lat="51.458562" lon="0.2416">
        <ele>4.03009</ele>
        <time>2024-08-10T21:57:44.000Z</time>
      </trkpt>
      <trkpt lat="51.458556" lon="0.241605">
        <ele>4.03007</ele>
        <time>2024-08-10T21:57:44.000Z</time>
      </trkpt>
      <trkpt lat="51.458559" lon="0.241608">
        <ele>4.030045</ele>
        <time>2024-08-10T21:57:44.000Z</time>
      </trkpt>
      <trkpt lat="51.458557" lon="0.241616">
        <ele>4.030014</ele>
        <time>2024-08-10T21:57:44.000Z</time>
      </trkpt>
      <trkpt lat="51.458553" lon="0.241617">
        <ele>4.029992</ele>
        <time>2024-08-10T21:57:44.000Z</time>
      </trkpt>
      <trkpt lat="51.458557" lon="0.24162">
        <ele>4.029981</ele>
        <time>2024-08-10T21:57:44.000Z</time>
      </trkpt>
      <trkpt lat="51.458558" lon="0.241613">
        <ele>4.029954</ele>
        <time>2024-08-10T21:57:44.000Z</time>
      </trkpt>
      <trkpt lat="51.458561" lon="0.241619">
        <ele>4.029941</ele>
        <time>2024-08-10T21:57:44.000Z</time>
      </trkpt>
      <trkpt lat="51.458549" lon="0.241605">
        <ele>4.0299</ele>
        <time>2024-08-10T21:57:44.000Z</time>
      </trkpt>
      <trkpt lat="51.458564" lon="0.241604">
        <ele>4.02988</ele>
        <time>2024-08-10T21:57:44.000Z</time>
      </trkpt>
      <trkpt lat="51.458566" lon="0.24161">
        <ele>4.029856</ele>
        <time>2024-08-10T21:57:44.000Z</time>
      </trkpt>
      <trkpt lat="51.458596" lon="0.241559">
        <ele>4.029249</ele>
        <time>2024-08-10T21:57:44.000Z</time>
      </trkpt>
      <trkpt lat="51.459313" lon="0.24073">
        <ele>4.019413</ele>
        <time>2024-08-10T21:57:54.000Z</time>
      </trkpt>
      <trkpt lat="51.459598" lon="0.240156">
        <ele>4.05392</ele>
        <time>2024-08-10T21:57:59.000Z</time>
      </trkpt>
      <trkpt lat="51.460048" lon="0.238853">
        <ele>4.161871</ele>
        <time>2024-08-10T21:58:09.000Z</time>
      </trkpt>
      <trkpt lat="51.4601" lon="0.238684">
        <ele>4.17457</ele>
        <time>2024-08-10T21:58:10.000Z</time>
      </trkpt>
      <trkpt lat="51.460119" lon="0.238635">
        <ele>4.17886</ele>
        <time>2024-08-10T21:58:10.000Z</time>
      </trkpt>
      <trkpt lat="51.460199" lon="0.238167">
        <ele>4.214993</ele>
        <time>2024-08-10T21:58:13.000Z</time>
      </trkpt>
      <trkpt lat="51.460264" lon="0.237585">
        <ele>4.361793</ele>
        <time>2024-08-10T21:58:17.000Z</time>
      </trkpt>
      <trkpt lat="51.460255" lon="0.23607">
        <ele>4.849098</ele>
        <time>2024-08-10T21:58:27.000Z</time>
      </trkpt>
      <trkpt lat="51.460278" lon="0.235737">
        <ele>4.952617</ele>
        <time>2024-08-10T21:58:29.000Z</time>
      </trkpt>
      <trkpt lat="51.460267" lon="0.235733">
        <ele>4.953886</ele>
        <time>2024-08-10T21:58:29.000Z</time>
      </trkpt>
      <trkpt lat="51.460318" lon="0.235223">
        <ele>5.122697</ele>
        <time>2024-08-10T21:58:33.000Z</time>
      </trkpt>
      <trkpt lat="51.460332" lon="0.235041">
        <ele>5.163189</ele>
        <time>2024-08-10T21:58:34.000Z</time>
      </trkpt>
      <trkpt lat="51.460678" lon="0.233734">
        <ele>5.343847</ele>
        <time>2024-08-10T21:58:44.000Z</time>
      </trkpt>
      <trkpt lat="51.461259" lon="0.232392">
        <ele>5.470547</ele>
        <time>2024-08-10T21:58:55.000Z</time>
      </trkpt>
      <trkpt lat="51.46132" lon="0.232247">
        <ele>5.434406</ele>
        <time>2024-08-10T21:58:56.000Z</time>
      </trkpt>
      <trkpt lat="51.461389" lon="0.23206">
        <ele>5.391614</ele>
        <time>2024-08-10T21:58:58.000Z</time>
      </trkpt>
      <trkpt lat="51.461412" lon="0.231955">
        <ele>5.368457</ele>
        <time>2024-08-10T21:58:59.000Z</time>
      </trkpt>
      <trkpt lat="51.461397" lon="0.231957">
        <ele>5.359158</ele>
        <time>2024-08-10T21:58:59.000Z</time>
      </trkpt>
      <trkpt lat="51.461388" lon="0.231957">
        <ele>5.358524</ele>
        <time>2024-08-10T21:58:59.000Z</time>
      </trkpt>
      <trkpt lat="51.461395" lon="0.231961">
        <ele>5.357879</ele>
        <time>2024-08-10T21:58:59.000Z</time>
      </trkpt>
      <trkpt lat="51.461381" lon="0.231956">
        <ele>5.357552</ele>
        <time>2024-08-10T21:58:59.000Z</time>
      </trkpt>
      <trkpt lat="51.461382" lon="0.231964">
        <ele>5.35692</ele>
        <time>2024-08-10T21:58:59.000Z</time>
      </trkpt>
      <trkpt lat="51.461388" lon="0.231954">
        <ele>5.356599</ele>
        <time>2024-08-10T21:58:59.000Z</time>
      </trkpt>
      <trkpt lat="51.461375" lon="0.231961">
        <ele>5.355952</ele>
        <time>2024-08-10T21:58:59.000Z</time>
      </trkpt>
      <trkpt lat="51.46135" lon="0.231966">
        <ele>5.345053</ele>
        <time>2024-08-10T21:58:59.000Z</time>
      </trkpt>
      <trkpt lat="51.460783" lon="0.231896">
        <ele>5.162683</ele>
        <time>2024-08-10T21:59:05.000Z</time>
      </trkpt>
      <trkpt lat="51.460703" lon="0.231895">
        <ele>5.136314</ele>
        <time>2024-08-10T21:59:06.000Z</time>
      </trkpt>
      <trkpt lat="51.460642" lon="0.231909">
        <ele>5.118604</ele>
        <time>2024-08-10T21:59:07.000Z</time>
      </trkpt>
      <trkpt lat="51.460567" lon="0.231932">
        <ele>5.095044</ele>
        <time>2024-08-10T21:59:08.000Z</time>
      </trkpt>
      <trkpt lat="51.460477" lon="0.231984">
        <ele>5.061392</ele>
        <time>2024-08-10T21:59:09.000Z</time>
      </trkpt>
      <trkpt lat="51.460458" lon="0.232038">
        <ele>5.047797</ele>
        <time>2024-08-10T21:59:09.000Z</time>
      </trkpt>
      <trkpt lat="51.460378" lon="0.232118">
        <ele>5.020886</ele>
        <time>2024-08-10T21:59:10.000Z</time>
      </trkpt>
      <trkpt lat="51.460347" lon="0.232144">
        <ele>5.007392</ele>
        <time>2024-08-10T21:59:10.000Z</time>
      </trkpt>
      <trkpt lat="51.460311" lon="0.232127">
        <ele>4.994506</ele>
        <time>2024-08-10T21:59:10.000Z</time>
      </trkpt>
      <trkpt lat="51.460303" lon="0.232138">
        <ele>4.993537</ele>
        <time>2024-08-10T21:59:10.000Z</time>
      </trkpt>
      <trkpt lat="51.460293" lon="0.232126">
        <ele>4.992562</ele>
        <time>2024-08-10T21:59:10.000Z</time>
      </trkpt>
      <trkpt lat="51.460296" lon="0.232124">
        <ele>4.992231</ele>
        <time>2024-08-10T21:59:10.000Z</time>
      </trkpt>
      <trkpt lat="51.460288" lon="0.232141">
        <ele>4.992244</ele>
        <time>2024-08-10T21:59:10.000Z</time>
      </trkpt>
      <trkpt lat="51.46029" lon="0.232131">
        <ele>4.991854</ele>
        <time>2024-08-10T21:59:10.000Z</time>
      </trkpt>
      <trkpt lat="51.460294" lon="0.232124">
        <ele>4.991476</ele>
        <time>2024-08-10T21:59:10.000Z</time>
      </trkpt>
      <trkpt lat="51.460298" lon="0.232134">
        <ele>4.990802</ele>
        <time>2024-08-10T21:59:10.000Z</time>
      </trkpt>
      <trkpt lat="51.460245" lon="0.232101">
        <ele>4.977175</ele>
        <time>2024-08-10T21:59:11.000Z</time>
      </trkpt>
      <trkpt lat="51.460225" lon="0.232044">
        <ele>4.962152</ele>
        <time>2024-08-10T21:59:11.000Z</time>
      </trkpt>
      <trkpt lat="51.460147" lon="0.232056">
        <ele>4.941932</ele>
        <time>2024-08-10T21:59:12.000Z</time>
      </trkpt>
      <trkpt lat="51.459796" lon="0.231961">
        <ele>4.914985</ele>
        <time>2024-08-10T21:59:16.000Z</time>
      </trkpt>
      <trkpt lat="51.459464" lon="0.231508">
        <ele>4.880425</ele>
        <time>2024-08-10T21:59:21.000Z</time>
      </trkpt>
      <trkpt lat="51.459173" lon="0.231327">
        <ele>4.856647</ele>
        <time>2024-08-10T21:59:24.000Z</time>
      </trkpt>
      <trkpt lat="51.459049" lon="0.231324">
        <ele>4.848115</ele>
        <time>2024-08-10T21:59:25.000Z</time>
      </trkpt>
      <trkpt lat="51.459016" lon="0.231364">
        <ele>4.844329</ele>
        <time>2024-08-10T21:59:25.000Z</time>
      </trkpt>
      <trkpt lat="51.458966" lon="0.231394">
        <ele>4.840604</ele>
        <time>2024-08-10T21:59:26.000Z</time>
      </trkpt>
      <trkpt lat="51.45877" lon="0.231579">
        <ele>4.82216</ele>
        <time>2024-08-10T21:59:29.000Z</time>
      </trkpt>
      <trkpt lat="51.458717" lon="0.231634">
        <ele>4.817731</ele>
        <time>2024-08-10T21:59:30.000Z</time>
      </trkpt>
      <trkpt lat="51.458705" lon="0.231642">
        <ele>4.817468</ele>
        <time>2024-08-10T21:59:30.000Z</time>
      </trkpt>
      <trkpt lat="51.458707" lon="0.231633">
        <ele>4.817372</ele>
        <time>2024-08-10T21:59:30.000Z</time>
      </trkpt>
      <trkpt lat="51.458701" lon="0.23164">
        <ele>4.817191</ele>
        <time>2024-08-10T21:59:30.000Z</time>
      </trkpt>
      <trkpt lat="51.458714" lon="0.23163">
        <ele>4.817014</ele>
        <time>2024-08-10T21:59:30.000Z</time>
      </trkpt>
      <trkpt lat="51.458701" lon="0.231641">
        <ele>4.816913</ele>
        <time>2024-08-10T21:59:30.000Z</time>
      </trkpt>
      <trkpt lat="51.458699" lon="0.231638">
        <ele>4.816744</ele>
        <time>2024-08-10T21:59:30.000Z</time>
      </trkpt>
      <trkpt lat="51.4587" lon="0.231653">
        <ele>4.816622</ele>
        <time>2024-08-10T21:59:30.000Z</time>
      </trkpt>
      <trkpt lat="51.458706" lon="0.231639">
        <ele>4.816613</ele>
        <time>2024-08-10T21:59:30.000Z</time>
      </trkpt>
      <trkpt lat="51.458693" lon="0.231648">
        <ele>4.816527</ele>
        <time>2024-08-10T21:59:30.000Z</time>
      </trkpt>
      <trkpt lat="51.458691" lon="0.231639">
        <ele>4.816368</ele>
        <time>2024-08-10T21:59:30.000Z</time>
      </trkpt>
      <trkpt lat="51.458701" lon="0.231653">
        <ele>4.816243</ele>
        <time>2024-08-10T21:59:30.000Z</time>
      </trkpt>
      <trkpt lat="51.458696" lon="0.231645">
        <ele>4.816051</ele>
        <time>2024-08-10T21:59:30.000Z</time>
      </trkpt>
      <trkpt lat="51.458691" lon="0.231661">
        <ele>4.815941</ele>
        <time>2024-08-10T21:59:30.000Z</time>
      </trkpt>
      <trkpt lat="51.458189" lon="0.232577">
        <ele>5.17905</ele>
        <time>2024-08-10T21:59:38.000Z</time>
      </trkpt>
      <trkpt lat="51.458181" lon="0.232575">
        <ele>5.182964</ele>
        <time>2024-08-10T21:59:38.000Z</time>
      </trkpt>
      <trkpt lat="51.458188" lon="0.232589">
        <ele>5.185223</ele>
        <time>2024-08-10T21:59:38.000Z</time>
      </trkpt>
      <trkpt lat="51.458189" lon="0.232584">
        <ele>5.185993</ele>
        <time>2024-08-10T21:59:38.000Z</time>
      </trkpt>
      <trkpt lat="51.45817" lon="0.232588">
        <ele>5.186714</ele>
        <time>2024-08-10T21:59:38.000Z</time>
      </trkpt>
      <trkpt lat="51.458182" lon="0.232592">
        <ele>5.187999</ele>
        <time>2024-08-10T21:59:38.000Z</time>
      </trkpt>
      <trkpt lat="51.458187" lon="0.232583">
        <ele>5.188716</ele>
        <time>2024-08-10T21:59:38.000Z</time>
      </trkpt>
      <trkpt lat="51.458178" lon="0.232591">
        <ele>5.189438</ele>
        <time>2024-08-10T21:59:38.000Z</time>
      </trkpt>
      <trkpt lat="51.458169" lon="0.2326">
        <ele>5.190207</ele>
        <time>2024-08-10T21:59:38.000Z</time>
      </trkpt>
      <trkpt lat="51.45817" lon="0.232594">
        <ele>5.191181</ele>
        <time>2024-08-10T21:59:38.000Z</time>
      </trkpt>
      <trkpt lat="51.458171" lon="0.232593">
        <ele>5.192158</ele>
        <time>2024-08-10T21:59:38.000Z</time>
      </trkpt>
      <trkpt lat="51.458176" lon="0.232591">
        <ele>5.193133</ele>
        <time>2024-08-10T21:59:38.000Z</time>
      </trkpt>
      <trkpt lat="51.458176" lon="0.232603">
        <ele>5.193894</ele>
        <time>2024-08-10T21:59:38.000Z</time>
      </trkpt>
      <trkpt lat="51.458175" lon="0.232611">
        <ele>5.19487</ele>
        <time>2024-08-10T21:59:38.000Z</time>
      </trkpt>
      <trkpt lat="51.45818" lon="0.232611">
        <ele>5.195844</ele>
        <time>2024-08-10T21:59:38.000Z</time>
      </trkpt>
      <trkpt lat="51.458163" lon="0.232616">
        <ele>5.196827</ele>
        <time>2024-08-10T21:59:38.000Z</time>
      </trkpt>
      <trkpt lat="51.457794" lon="0.23361">
        <ele>5.648707</ele>
        <time>2024-08-10T21:59:46.000Z</time>
      </trkpt>
      <trkpt lat="51.457478" lon="0.234615">
        <ele>6.079112</ele>
        <time>2024-08-10T21:59:54.000Z</time>
      </trkpt>
      <trkpt lat="51.457479" lon="0.234612">
        <ele>6.079503</ele>
        <time>2024-08-10T21:59:54.000Z</time>
      </trkpt>
      <trkpt lat="51.457465" lon="0.234608">
        <ele>6.080251</ele>
        <time>2024-08-10T21:59:54.000Z</time>
      </trkpt>
      <trkpt lat="51.457466" lon="0.234609">
        <ele>6.081056</ele>
        <time>2024-08-10T21:59:54.000Z</time>
      </trkpt>
      <trkpt lat="51.457475" lon="0.23461">
        <ele>6.081836</ele>
        <time>2024-08-10T21:59:54.000Z</time>
      </trkpt>
      <trkpt lat="51.45748" lon="0.234615">
        <ele>6.082605</ele>
        <time>2024-08-10T21:59:54.000Z</time>
      </trkpt>
      <trkpt lat="51.457479" lon="0.234624">
        <ele>6.083396</ele>
        <time>2024-08-10T21:59:54.000Z</time>
      </trkpt>
      <trkpt lat="51.457466" lon="0.234626">
        <ele>6.084739</ele>
        <time>2024-08-10T21:59:54.000Z</time>
      </trkpt>
      <trkpt lat="51.457468" lon="0.234628">
        <ele>6.085548</ele>
        <time>2024-08-10T21:59:54.000Z</time>
      </trkpt>
      <trkpt lat="51.457465" lon="0.234635">
        <ele>6.086294</ele>
        <time>2024-08-10T21:59:54.000Z</time>
      </trkpt>
      <trkpt lat="51.457472" lon="0.234623">
        <ele>6.087483</ele>
        <time>2024-08-10T21:59:54.000Z</time>
      </trkpt>
      <trkpt lat="51.457474" lon="0.234634">
        <ele>6.088237</ele>
        <time>2024-08-10T21:59:54.000Z</time>
      </trkpt>
      <trkpt lat="51.457472" lon="0.234625">
        <ele>6.089431</ele>
        <time>2024-08-10T21:59:54.000Z</time>
      </trkpt>
      <trkpt lat="51.457469" lon="0.234638">
        <ele>6.091515</ele>
        <time>2024-08-10T21:59:54.000Z</time>
      </trkpt>
      <trkpt lat="51.456919" lon="0.236943">
        <ele>7.08005</ele>
        <time>2024-08-10T22:00:11.000Z</time>
      </trkpt>
      <trkpt lat="51.456913" lon="0.236962">
        <ele>7.096964</ele>
        <time>2024-08-10T22:00:11.000Z</time>
      </trkpt>
      <trkpt lat="51.456906" lon="0.236971">
        <ele>7.098745</ele>
        <time>2024-08-10T22:00:11.000Z</time>
      </trkpt>
      <trkpt lat="51.456908" lon="0.236979">
        <ele>7.100094</ele>
        <time>2024-08-10T22:00:11.000Z</time>
      </trkpt>
      <trkpt lat="51.456901" lon="0.236974">
        <ele>7.101145</ele>
        <time>2024-08-10T22:00:11.000Z</time>
      </trkpt>
      <trkpt lat="51.456897" lon="0.236985">
        <ele>7.102481</ele>
        <time>2024-08-10T22:00:11.000Z</time>
      </trkpt>
      <trkpt lat="51.456892" lon="0.236971">
        <ele>7.103838</ele>
        <time>2024-08-10T22:00:11.000Z</time>
      </trkpt>
      <trkpt lat="51.456906" lon="0.236986">
        <ele>7.10609</ele>
        <time>2024-08-10T22:00:11.000Z</time>
      </trkpt>
      <trkpt lat="51.456892" lon="0.236979">
        <ele>7.107078</ele>
        <time>2024-08-10T22:00:11.000Z</time>
      </trkpt>
      <trkpt lat="51.456902" lon="0.23698">
        <ele>7.108129</ele>
        <time>2024-08-10T22:00:11.000Z</time>
      </trkpt>
      <trkpt lat="51.456896" lon="0.236991">
        <ele>7.109467</ele>
        <time>2024-08-10T22:00:11.000Z</time>
      </trkpt>
      <trkpt lat="51.456549" lon="0.237946">
        <ele>7.686252</ele>
        <time>2024-08-10T22:00:19.000Z</time>
      </trkpt>
      <trkpt lat="51.456553" lon="0.237978">
        <ele>7.702786</ele>
        <time>2024-08-10T22:00:19.000Z</time>
      </trkpt>
      <trkpt lat="51.456548" lon="0.237966">
        <ele>7.7059</ele>
        <time>2024-08-10T22:00:19.000Z</time>
      </trkpt>
      <trkpt lat="51.456545" lon="0.237973">
        <ele>7.7069</ele>
        <time>2024-08-10T22:00:19.000Z</time>
      </trkpt>
      <trkpt lat="51.456539" lon="0.237971">
        <ele>7.708669</ele>
        <time>2024-08-10T22:00:19.000Z</time>
      </trkpt>
      <trkpt lat="51.456531" lon="0.237983">
        <ele>7.710021</ele>
        <time>2024-08-10T22:00:19.000Z</time>
      </trkpt>
      <trkpt lat="51.456535" lon="0.237977">
        <ele>7.711991</ele>
        <time>2024-08-10T22:00:19.000Z</time>
      </trkpt>
      <trkpt lat="51.456537" lon="0.237983">
        <ele>7.713338</ele>
        <time>2024-08-10T22:00:19.000Z</time>
      </trkpt>
      <trkpt lat="51.45653" lon="0.237991">
        <ele>7.715132</ele>
        <time>2024-08-10T22:00:19.000Z</time>
      </trkpt>
      <trkpt lat="51.45653" lon="0.237998">
        <ele>7.717806</ele>
        <time>2024-08-10T22:00:19.000Z</time>
      </trkpt>
      <trkpt lat="51.456535" lon="0.237989">
        <ele>7.719601</ele>
        <time>2024-08-10T22:00:19.000Z</time>
      </trkpt>
      <trkpt lat="51.456533" lon="0.238004">
        <ele>7.720582</ele>
        <time>2024-08-10T22:00:19.000Z</time>
      </trkpt>
      <trkpt lat="51.456533" lon="0.238004">
        <ele>7.721925</ele>
        <time>2024-08-10T22:00:19.000Z</time>
      </trkpt>
      <trkpt lat="51.456523" lon="0.237994">
        <ele>7.723705</ele>
        <time>2024-08-10T22:00:19.000Z</time>
      </trkpt>
      <trkpt lat="51.456089" lon="0.238929">
        <ele>8.336294</ele>
        <time>2024-08-10T22:00:27.000Z</time>
      </trkpt>
      <trkpt lat="51.455857" lon="0.23929">
        <ele>8.585366</ele>
        <time>2024-08-10T22:00:31.000Z</time>
      </trkpt>
      <trkpt lat="51.455863" lon="0.2393">
        <ele>8.586433</ele>
        <time>2024-08-10T22:00:31.000Z</time>
      </trkpt>
      <trkpt lat="51.45586" lon="0.2393">
        <ele>8.587343</ele>
        <time>2024-08-10T22:00:31.000Z</time>
      </trkpt>
      <trkpt lat="51.455851" lon="0.239301">
        <ele>8.588149</ele>
        <time>2024-08-10T22:00:31.000Z</time>
      </trkpt>
      <trkpt lat="51.455855" lon="0.239311">
        <ele>8.588615</ele>
        <time>2024-08-10T22:00:31.000Z</time>
      </trkpt>
      <trkpt lat="51.455853" lon="0.239314">
        <ele>8.589057</ele>
        <time>2024-08-10T22:00:31.000Z</time>
      </trkpt>
      <trkpt lat="51.455848" lon="0.239316">
        <ele>8.589674</ele>
        <time>2024-08-10T22:00:31.000Z</time>
      </trkpt>
      <trkpt lat="51.455854" lon="0.239308">
        <ele>8.590299</ele>
        <time>2024-08-10T22:00:31.000Z</time>
      </trkpt>
      <trkpt lat="51.455852" lon="0.239315">
        <ele>8.590751</ele>
        <time>2024-08-10T22:00:31.000Z</time>
      </trkpt>
      <trkpt lat="51.455845" lon="0.239316">
        <ele>8.59137</ele>
        <time>2024-08-10T22:00:31.000Z</time>
      </trkpt>
      <trkpt lat="51.455765" lon="0.239434">
        <ele>8.632722</ele>
        <time>2024-08-10T22:00:32.000Z</time>
      </trkpt>
      <trkpt lat="51.455115" lon="0.240238">
        <ele>8.947379</ele>
        <time>2024-08-10T22:00:41.000Z</time>
      </trkpt>
      <trkpt lat="51.455114" lon="0.240247">
        <ele>8.948872</ele>
        <time>2024-08-10T22:00:41.000Z</time>
      </trkpt>
      <trkpt lat="51.45512" lon="0.240232">
        <ele>8.949331</ele>
        <time>2024-08-10T22:00:41.000Z</time>
      </trkpt>
      <trkpt lat="51.455113" lon="0.240245">
        <ele>8.949786</ele>
        <time>2024-08-10T22:00:41.000Z</time>
      </trkpt>
      <trkpt lat="51.455109" lon="0.240243">
        <ele>8.95024</ele>
        <time>2024-08-10T22:00:41.000Z</time>
      </trkpt>
      <trkpt lat="51.455107" lon="0.240244">
        <ele>8.950687</ele>
        <time>2024-08-10T22:00:41.000Z</time>
      </trkpt>
      <trkpt lat="51.455118" lon="0.240243">
        <ele>8.951155</ele>
        <time>2024-08-10T22:00:41.000Z</time>
      </trkpt>
      <trkpt lat="51.455111" lon="0.240252">
        <ele>8.952207</ele>
        <time>2024-08-10T22:00:41.000Z</time>
      </trkpt>
      <trkpt lat="51.455114" lon="0.240243">
        <ele>8.952662</ele>
        <time>2024-08-10T22:00:41.000Z</time>
      </trkpt>
      <trkpt lat="51.455106" lon="0.240242">
        <ele>8.953277</ele>
        <time>2024-08-10T22:00:41.000Z</time>
      </trkpt>
      <trkpt lat="51.455103" lon="0.240248">
        <ele>8.954183</ele>
        <time>2024-08-10T22:00:41.000Z</time>
      </trkpt>
      <trkpt lat="51.455112" lon="0.240265">
        <ele>8.955247</ele>
        <time>2024-08-10T22:00:41.000Z</time>
      </trkpt>
      <trkpt lat="51.455097" lon="0.240264">
        <ele>8.956155</ele>
        <time>2024-08-10T22:00:41.000Z</time>
      </trkpt>
      <trkpt lat="51.45511" lon="0.240256">
        <ele>8.956603</ele>
        <time>2024-08-10T22:00:41.000Z</time>
      </trkpt>
      <trkpt lat="51.455076" lon="0.240281">
        <ele>8.967741</ele>
        <time>2024-08-10T22:00:41.000Z</time>
      </trkpt>
      <trkpt lat="51.454679" lon="0.240612">
        <ele>9.139561</ele>
        <time>2024-08-10T22:00:46.000Z</time>
      </trkpt>
      <trkpt lat="51.454605" lon="0.240686">
        <ele>9.173574</ele>
        <time>2024-08-10T22:00:47.000Z</time>
      </trkpt>
      <trkpt lat="51.4546" lon="0.240681">
        <ele>9.174368</ele>
        <time>2024-08-10T22:00:47.000Z</time>
      </trkpt>
      <trkpt lat="51.454603" lon="0.240688">
        <ele>9.175286</ele>
        <time>2024-08-10T22:00:47.000Z</time>
      </trkpt>
      <trkpt lat="51.454608" lon="0.240696">
        <ele>9.175275</ele>
        <time>2024-08-10T22:00:47.000Z</time>
      </trkpt>
      <trkpt lat="51.45461" lon="0.240691">
        <ele>9.175278</ele>
        <time>2024-08-10T22:00:47.000Z</time>
      </trkpt>
      <trkpt lat="51.455117" lon="0.240254">
        <ele>9.055591</ele>
        <time>2024-08-10T22:00:53.000Z</time>
      </trkpt>
      <trkpt lat="51.45511" lon="0.24026">
        <ele>9.055589</ele>
        <time>2024-08-10T22:00:53.000Z</time>
      </trkpt>
      <trkpt lat="51.455486" lon="0.239784">
        <ele>8.790556</ele>
        <time>2024-08-10T22:00:58.000Z</time>
      </trkpt>
      <trkpt lat="51.455855" lon="0.239314">
        <ele>8.52573</ele>
        <time>2024-08-10T22:01:03.000Z</time>
      </trkpt>
      <trkpt lat="51.455847" lon="0.239308">
        <ele>8.525729</ele>
        <time>2024-08-10T22:01:03.000Z</time>
      </trkpt>
      <trkpt lat="51.455851" lon="0.239313">
        <ele>8.52573</ele>
        <time>2024-08-10T22:01:03.000Z</time>
      </trkpt>
      <trkpt lat="51.456186" lon="0.238645">
        <ele>8.217715</ele>
        <time>2024-08-10T22:01:09.000Z</time>
      </trkpt>
      <trkpt lat="51.456539" lon="0.237983">
        <ele>7.839672</ele>
        <time>2024-08-10T22:01:15.000Z</time>
      </trkpt>
      <trkpt lat="51.45654" lon="0.237974">
        <ele>7.839673</ele>
        <time>2024-08-10T22:01:15.000Z</time>
      </trkpt>
      <trkpt lat="51.456901" lon="0.236979">
        <ele>7.336114</ele>
        <time>2024-08-10T22:01:23.000Z</time>
      </trkpt>
      <trkpt lat="51.456897" lon="0.236975">
        <ele>7.336103</ele>
        <time>2024-08-10T22:01:23.000Z</time>
      </trkpt>
      <trkpt lat="51.457193" lon="0.235812">
        <ele>6.79678</ele>
        <time>2024-08-10T22:01:32.000Z</time>
      </trkpt>
      <trkpt lat="51.457463" lon="0.234634">
        <ele>6.279978</ele>
        <time>2024-08-10T22:01:41.000Z</time>
      </trkpt>
      <trkpt lat="51.457465" lon="0.234622">
        <ele>6.279964</ele>
        <time>2024-08-10T22:01:41.000Z</time>
      </trkpt>
      <trkpt lat="51.457824" lon="0.23362">
        <ele>5.804759</ele>
        <time>2024-08-10T22:01:49.000Z</time>
      </trkpt>
      <trkpt lat="51.458186" lon="0.232584">
        <ele>5.57219</ele>
        <time>2024-08-10T22:01:57.000Z</time>
      </trkpt>
      <trkpt lat="51.458172" lon="0.232594">
        <ele>5.572196</ele>
        <time>2024-08-10T22:01:57.000Z</time>
      </trkpt>
      <trkpt lat="51.458704" lon="0.231639">
        <ele>5.319572</ele>
        <time>2024-08-10T22:02:06.000Z</time>
      </trkpt>
      <trkpt lat="51.458706" lon="0.231651">
        <ele>5.319569</ele>
        <time>2024-08-10T22:02:06.000Z</time>
      </trkpt>
      <trkpt lat="51.458697" lon="0.231648">
        <ele>5.319578</ele>
        <time>2024-08-10T22:02:06.000Z</time>
      </trkpt>
      <trkpt lat="51.459098" lon="0.231224">
        <ele>5.298167</ele>
        <time>2024-08-10T22:02:11.000Z</time>
      </trkpt>
      <trkpt lat="51.459101" lon="0.231239">
        <ele>5.298163</ele>
        <time>2024-08-10T22:02:11.000Z</time>
      </trkpt>
      <trkpt lat="51.459109" lon="0.231221">
        <ele>5.298163</ele>
        <time>2024-08-10T22:02:11.000Z</time>
      </trkpt>
      <trkpt lat="51.45916" lon="0.230628">
        <ele>5.427815</ele>
        <time>2024-08-10T22:02:15.000Z</time>
      </trkpt>
      <trkpt lat="51.459158" lon="0.230616">
        <ele>5.427821</ele>
        <time>2024-08-10T22:02:15.000Z</time>
      </trkpt>
      <trkpt lat="51.45916" lon="0.230619">
        <ele>5.427819</ele>
        <time>2024-08-10T22:02:15.000Z</time>
      </trkpt>
      <trkpt lat="51.459269" lon="0.229843">
        <ele>5.595439</ele>
        <time>2024-08-10T22:02:21.000Z</time>
      </trkpt>
      <trkpt lat="51.459399" lon="0.229084">
        <ele>5.763138</ele>
        <time>2024-08-10T22:02:26.000Z</time>
      </trkpt>
      <trkpt lat="51.459405" lon="0.229083">
        <ele>5.763137</ele>
        <time>2024-08-10T22:02:26.000Z</time>
      </trkpt>
      <trkpt lat="51.459394" lon="0.22907">
        <ele>5.763134</ele>
        <time>2024-08-10T22:02:26.000Z</time>
      </trkpt>
      <trkpt lat="51.459451" lon="0.228176">
        <ele>5.942739</ele>
        <time>2024-08-10T22:02:32.000Z</time>
      </trkpt>
      <trkpt lat="51.459494" lon="0.227282">
        <ele>6.116458</ele>
        <time>2024-08-10T22:02:38.000Z</time>
      </trkpt>
      <trkpt lat="51.459504" lon="0.22729">
        <ele>6.116449</ele>
        <time>2024-08-10T22:02:38.000Z</time>
      </trkpt>
      <trkpt lat="51.459488" lon="0.226106">
        <ele>6.346556</ele>
        <time>2024-08-10T22:02:46.000Z</time>
      </trkpt>
      <trkpt lat="51.459461" lon="0.224921">
        <ele>6.42385</ele>
        <time>2024-08-10T22:02:54.000Z</time>
      </trkpt>
      <trkpt lat="51.459438" lon="0.223741">
        <ele>6.45686</ele>
        <time>2024-08-10T22:03:02.000Z</time>
      </trkpt>
      <trkpt lat="51.459449" lon="0.223743">
        <ele>6.456861</ele>
        <time>2024-08-10T22:03:02.000Z</time>
      </trkpt>
      <trkpt lat="51.459391" lon="0.222674">
        <ele>6.471698</ele>
        <time>2024-08-10T22:03:09.000Z</time>
      </trkpt>
      <trkpt lat="51.45934" lon="0.221588">
        <ele>6.446154</ele>
        <time>2024-08-10T22:03:17.000Z</time>
      </trkpt>
      <trkpt lat="51.459303" lon="0.220535">
        <ele>6.420615</ele>
        <time>2024-08-10T22:03:24.000Z</time>
      </trkpt>
      <trkpt lat="51.459292" lon="0.220531">
        <ele>6.420595</ele>
        <time>2024-08-10T22:03:24.000Z</time>
      </trkpt>
      <trkpt lat="51.459296" lon="0.220522">
        <ele>6.420468</ele>
        <time>2024-08-10T22:03:24.000Z</time>
      </trkpt>
      <trkpt lat="51.459306" lon="0.220538">
        <ele>6.420367</ele>
        <time>2024-08-10T22:03:24.000Z</time>
      </trkpt>
      <trkpt lat="51.459307" lon="0.220541">
        <ele>6.420312</ele>
        <time>2024-08-10T22:03:24.000Z</time>
      </trkpt>
      <trkpt lat="51.459313" lon="0.221236">
        <ele>6.417822</ele>
        <time>2024-08-10T22:03:29.000Z</time>
      </trkpt>
      <trkpt lat="51.459442" lon="0.223713">
        <ele>6.495902</ele>
        <time>2024-08-10T22:03:46.000Z</time>
      </trkpt>
      <trkpt lat="51.45949" lon="0.227293">
        <ele>6.345878</ele>
        <time>2024-08-10T22:04:11.000Z</time>
      </trkpt>
      <trkpt lat="51.459471" lon="0.228224">
        <ele>6.02659</ele>
        <time>2024-08-10T22:04:17.000Z</time>
      </trkpt>
      <trkpt lat="51.459371" lon="0.229411">
        <ele>5.618325</ele>
        <time>2024-08-10T22:04:25.000Z</time>
      </trkpt>
      <trkpt lat="51.459311" lon="0.229788">
        <ele>5.505215</ele>
        <time>2024-08-10T22:04:28.000Z</time>
      </trkpt>
      <trkpt lat="51.459181" lon="0.230437">
        <ele>5.340499</ele>
        <time>2024-08-10T22:04:33.000Z</time>
      </trkpt>
      <trkpt lat="51.459144" lon="0.230721">
        <ele>5.273092</ele>
        <time>2024-08-10T22:04:35.000Z</time>
      </trkpt>
      <trkpt lat="51.459125" lon="0.230974">
        <ele>5.211666</ele>
        <time>2024-08-10T22:04:37.000Z</time>
      </trkpt>
      <trkpt lat="51.459145" lon="0.231009">
        <ele>5.203215</ele>
        <time>2024-08-10T22:04:37.000Z</time>
      </trkpt>
      <trkpt lat="51.459212" lon="0.231128">
        <ele>5.160611</ele>
        <time>2024-08-10T22:04:38.000Z</time>
      </trkpt>
      <trkpt lat="51.459476" lon="0.23135">
        <ele>5.048833</ele>
        <time>2024-08-10T22:04:41.000Z</time>
      </trkpt>
      <trkpt lat="51.459789" lon="0.231783">
        <ele>4.888022</ele>
        <time>2024-08-10T22:04:46.000Z</time>
      </trkpt>
      <trkpt lat="51.46001" lon="0.231917">
        <ele>4.923265</ele>
        <time>2024-08-10T22:04:49.000Z</time>
      </trkpt>
      <trkpt lat="51.460133" lon="0.231881">
        <ele>4.971434</ele>
        <time>2024-08-10T22:04:50.000Z</time>
      </trkpt>
      <trkpt lat="51.460198" lon="0.231817">
        <ele>5.004439</ele>
        <time>2024-08-10T22:04:51.000Z</time>
      </trkpt>
      <trkpt lat="51.460222" lon="0.231764">
        <ele>5.024368</ele>
        <time>2024-08-10T22:04:51.000Z</time>
      </trkpt>
      <trkpt lat="51.460255" lon="0.231709">
        <ele>5.044483</ele>
        <time>2024-08-10T22:04:52.000Z</time>
      </trkpt>
      <trkpt lat="51.460311" lon="0.231668">
        <ele>5.070247</ele>
        <time>2024-08-10T22:04:53.000Z</time>
      </trkpt>
      <trkpt lat="51.460376" lon="0.231675">
        <ele>5.095434</ele>
        <time>2024-08-10T22:04:54.000Z</time>
      </trkpt>
      <trkpt lat="51.460421" lon="0.231718">
        <ele>5.115375</ele>
        <time>2024-08-10T22:04:55.000Z</time>
      </trkpt>
      <trkpt lat="51.460447" lon="0.23177">
        <ele>5.135051</ele>
        <time>2024-08-10T22:04:55.000Z</time>
      </trkpt>
      <trkpt lat="51.460541" lon="0.231815">
        <ele>5.178201</ele>
        <time>2024-08-10T22:04:56.000Z</time>
      </trkpt>
      <trkpt lat="51.460657" lon="0.231846">
        <ele>5.223705</ele>
        <time>2024-08-10T22:04:57.000Z</time>
      </trkpt>
      <trkpt lat="51.460775" lon="0.231889">
        <ele>5.277059</ele>
        <time>2024-08-10T22:04:58.000Z</time>
      </trkpt>
      <trkpt lat="51.461351" lon="0.231967">
        <ele>5.515054</ele>
        <time>2024-08-10T22:05:04.000Z</time>
      </trkpt>
      <trkpt lat="51.461421" lon="0.231965">
        <ele>5.545619</ele>
        <time>2024-08-10T22:05:05.000Z</time>
      </trkpt>
      <trkpt lat="51.461465" lon="0.231838">
        <ele>5.583255</ele>
        <time>2024-08-10T22:05:06.000Z</time>
      </trkpt>
      <trkpt lat="51.461518" lon="0.231602">
        <ele>5.673468</ele>
        <time>2024-08-10T22:05:08.000Z</time>
      </trkpt>
      <trkpt lat="51.46158" lon="0.23134">
        <ele>5.784125</ele>
        <time>2024-08-10T22:05:10.000Z</time>
      </trkpt>
      <trkpt lat="51.461605" lon="0.231146">
        <ele>5.873184</ele>
        <time>2024-08-10T22:05:11.000Z</time>
      </trkpt>
      <trkpt lat="51.461677" lon="0.2305">
        <ele>6.141647</ele>
        <time>2024-08-10T22:05:16.000Z</time>
      </trkpt>
      <trkpt lat="51.461856" lon="0.2269">
        <ele>7.479966</ele>
        <time>2024-08-10T22:05:41.000Z</time>
      </trkpt>
      <trkpt lat="51.461858" lon="0.226718">
        <ele>7.540348</ele>
        <time>2024-08-10T22:05:42.000Z</time>
      </trkpt>
      <trkpt lat="51.461846" lon="0.226361">
        <ele>7.66118</ele>
        <time>2024-08-10T22:05:44.000Z</time>
      </trkpt>
      <trkpt lat="51.461816" lon="0.226209">
        <ele>7.714045</ele>
        <time>2024-08-10T22:05:45.000Z</time>
      </trkpt>
      <trkpt lat="51.460967" lon="0.224087">
        <ele>7.677657</ele>
        <time>2024-08-10T22:06:02.000Z</time>
      </trkpt>
      <trkpt lat="51.460805" lon="0.223761">
        <ele>7.659066</ele>
        <time>2024-08-10T22:06:05.000Z</time>
      </trkpt>
      <trkpt lat="51.460539" lon="0.22344">
        <ele>7.674601</ele>
        <time>2024-08-10T22:06:09.000Z</time>
      </trkpt>
      <trkpt lat="51.460502" lon="0.223408">
        <ele>7.677217</ele>
        <time>2024-08-10T22:06:09.000Z</time>
      </trkpt>
      <trkpt lat="51.460497" lon="0.223406">
        <ele>7.678062</ele>
        <time>2024-08-10T22:06:09.000Z</time>
      </trkpt>
      <trkpt lat="51.460493" lon="0.223408">
        <ele>7.678047</ele>
        <time>2024-08-10T22:06:09.000Z</time>
      </trkpt>
      <trkpt lat="51.460495" lon="0.223398">
        <ele>7.678056</ele>
        <time>2024-08-10T22:06:09.000Z</time>
      </trkpt>
      <trkpt lat="51.460498" lon="0.223423">
        <ele>7.678886</ele>
        <time>2024-08-10T22:06:09.000Z</time>
      </trkpt>
      <trkpt lat="51.460533" lon="0.223447">
        <ele>7.6815</ele>
        <time>2024-08-10T22:06:09.000Z</time>
      </trkpt>
      <trkpt lat="51.460789" lon="0.22376">
        <ele>7.708385</ele>
        <time>2024-08-10T22:06:13.000Z</time>
      </trkpt>
      <trkpt lat="51.460981" lon="0.224086">
        <ele>7.730455</ele>
        <time>2024-08-10T22:06:16.000Z</time>
      </trkpt>
      <trkpt lat="51.461813" lon="0.22621">
        <ele>7.565463</ele>
        <time>2024-08-10T22:06:33.000Z</time>
      </trkpt>
      <trkpt lat="51.461847" lon="0.226355">
        <ele>7.532845</ele>
        <time>2024-08-10T22:06:34.000Z</time>
      </trkpt>
      <trkpt lat="51.461856" lon="0.226725">
        <ele>7.458308</ele>
        <time>2024-08-10T22:06:37.000Z</time>
      </trkpt>
      <trkpt lat="51.46185" lon="0.226914">
        <ele>7.42105</ele>
        <time>2024-08-10T22:06:38.000Z</time>
      </trkpt>
      <trkpt lat="51.461663" lon="0.230511">
        <ele>6.08819</ele>
        <time>2024-08-10T22:07:03.000Z</time>
      </trkpt>
      <trkpt lat="51.461599" lon="0.231145">
        <ele>5.894731</ele>
        <time>2024-08-10T22:07:07.000Z</time>
      </trkpt>
      <trkpt lat="51.461575" lon="0.231337">
        <ele>5.858933</ele>
        <time>2024-08-10T22:07:08.000Z</time>
      </trkpt>
      <trkpt lat="51.461522" lon="0.231594">
        <ele>5.814455</ele>
        <time>2024-08-10T22:07:10.000Z</time>
      </trkpt>
      <trkpt lat="51.461463" lon="0.231828">
        <ele>5.771664</ele>
        <time>2024-08-10T22:07:12.000Z</time>
      </trkpt>
      <trkpt lat="51.461428" lon="0.231959">
        <ele>5.747432</ele>
        <time>2024-08-10T22:07:13.000Z</time>
      </trkpt>
      <trkpt lat="51.461383" lon="0.232065">
        <ele>5.728002</ele>
        <time>2024-08-10T22:07:14.000Z</time>
      </trkpt>
      <trkpt lat="51.461314" lon="0.232254">
        <ele>5.692077</ele>
        <time>2024-08-10T22:07:16.000Z</time>
      </trkpt>
      <trkpt lat="51.461262" lon="0.232398">
        <ele>5.661723</ele>
        <time>2024-08-10T22:07:17.000Z</time>
      </trkpt>
      <trkpt lat="51.460682" lon="0.233721">
        <ele>5.372279</ele>
        <time>2024-08-10T22:07:28.000Z</time>
      </trkpt>
      <trkpt lat="51.460334" lon="0.235045">
        <ele>5.08082</ele>
        <time>2024-08-10T22:07:38.000Z</time>
      </trkpt>
      <trkpt lat="51.460312" lon="0.235215">
        <ele>5.044269</ele>
        <time>2024-08-10T22:07:39.000Z</time>
      </trkpt>
      <trkpt lat="51.460278" lon="0.235742">
        <ele>4.936242</ele>
        <time>2024-08-10T22:07:43.000Z</time>
      </trkpt>
      <trkpt lat="51.460285" lon="0.235738">
        <ele>4.935423</ele>
        <time>2024-08-10T22:07:43.000Z</time>
      </trkpt>
      <trkpt lat="51.460251" lon="0.236055">
        <ele>4.868035</ele>
        <time>2024-08-10T22:07:45.000Z</time>
      </trkpt>
      <trkpt lat="51.460259" lon="0.237584">
        <ele>4.439902</ele>
        <time>2024-08-10T22:07:56.000Z</time>
      </trkpt>
      <trkpt lat="51.4602" lon="0.238153">
        <ele>4.275361</ele>
        <time>2024-08-10T22:08:00.000Z</time>
      </trkpt>
      <trkpt lat="51.460119" lon="0.238644">
        <ele>4.134865</ele>
        <time>2024-08-10T22:08:04.000Z</time>
      </trkpt>
      <trkpt lat="51.460096" lon="0.238682">
        <ele>4.118219</ele>
        <time>2024-08-10T22:08:04.000Z</time>
      </trkpt>
      <trkpt lat="51.460042" lon="0.238848">
        <ele>4.068832</ele>
        <time>2024-08-10T22:08:05.000Z</time>
      </trkpt>
      <trkpt lat="51.4596" lon="0.240151">
        <ele>4.05257</ele>
        <time>2024-08-10T22:08:15.000Z</time>
      </trkpt>
      <trkpt lat="51.459308" lon="0.240735">
        <ele>4.049171</ele>
        <time>2024-08-10T22:08:20.000Z</time>
      </trkpt>
      <trkpt lat="51.458604" lon="0.24157">
        <ele>4.036975</ele>
        <time>2024-08-10T22:08:30.000Z</time>
      </trkpt>
      <trkpt lat="51.458556" lon="0.241616">
        <ele>4.035892</ele>
        <time>2024-08-10T22:08:31.000Z</time>
      </trkpt>
      <trkpt lat="51.458563" lon="0.241606">
        <ele>4.035843</ele>
        <time>2024-08-10T22:08:31.000Z</time>
      </trkpt>
      <trkpt lat="51.45856" lon="0.241615">
        <ele>4.035796</ele>
        <time>2024-08-10T22:08:31.000Z</time>
      </trkpt>
      <trkpt lat="51.458548" lon="0.241606">
        <ele>4.035764</ele>
        <time>2024-08-10T22:08:31.000Z</time>
      </trkpt>
      <trkpt lat="51.45856" lon="0.241609">
        <ele>4.035736</ele>
        <time>2024-08-10T22:08:31.000Z</time>
      </trkpt>
      <trkpt lat="51.458547" lon="0.241611">
        <ele>4.035688</ele>
        <time>2024-08-10T22:08:31.000Z</time>
      </trkpt>
      <trkpt lat="51.458548" lon="0.241611">
        <ele>4.035646</ele>
        <time>2024-08-10T22:08:31.000Z</time>
      </trkpt>
      <trkpt lat="51.458553" lon="0.241605">
        <ele>4.035614</ele>
        <time>2024-08-10T22:08:31.000Z</time>
      </trkpt>
      <trkpt lat="51.458551" lon="0.241603">
        <ele>4.035561</ele>
        <time>2024-08-10T22:08:31.000Z</time>
      </trkpt>
      <trkpt lat="51.458561" lon="0.241603">
        <ele>4.035526</ele>
        <time>2024-08-10T22:08:31.000Z</time>
      </trkpt>
      <trkpt lat="51.458549" lon="0.241614">
        <ele>4.035466</ele>
        <time>2024-08-10T22:08:31.000Z</time>
      </trkpt>
      <trkpt lat="51.458603" lon="0.241561">
        <ele>4.034387</ele>
        <time>2024-08-10T22:08:32.000Z</time>
      </trkpt>
      <trkpt lat="51.459308" lon="0.240733">
        <ele>4.016698</ele>
        <time>2024-08-10T22:08:42.000Z</time>
      </trkpt>
      <trkpt lat="51.459604" lon="0.24015">
        <ele>4.028821</ele>
        <time>2024-08-10T22:08:47.000Z</time>
      </trkpt>
      <trkpt lat="51.460043" lon="0.23885">
        <ele>4.184183</ele>
        <time>2024-08-10T22:08:57.000Z</time>
      </trkpt>
      <trkpt lat="51.460102" lon="0.238686">
        <ele>4.202462</ele>
        <time>2024-08-10T22:08:58.000Z</time>
      </trkpt>
      <trkpt lat="51.460115" lon="0.238635">
        <ele>4.208626</ele>
        <time>2024-08-10T22:08:58.000Z</time>
      </trkpt>
      <trkpt lat="51.460204" lon="0.238169">
        <ele>4.260644</ele>
        <time>2024-08-10T22:09:01.000Z</time>
      </trkpt>
      <trkpt lat="51.460252" lon="0.23758">
        <ele>4.344229</ele>
        <time>2024-08-10T22:09:05.000Z</time>
      </trkpt>
      <trkpt lat="51.460254" lon="0.236065">
        <ele>4.829981</ele>
        <time>2024-08-10T22:09:15.000Z</time>
      </trkpt>
      <trkpt lat="51.460278" lon="0.235747">
        <ele>4.933189</ele>
        <time>2024-08-10T22:09:17.000Z</time>
      </trkpt>
      <trkpt lat="51.460272" lon="0.235748">
        <ele>4.934466</ele>
        <time>2024-08-10T22:09:17.000Z</time>
      </trkpt>
      <trkpt lat="51.460326" lon="0.235223">
        <ele>5.102711</ele>
        <time>2024-08-10T22:09:21.000Z</time>
      </trkpt>
      <trkpt lat="51.460332" lon="0.235041">
        <ele>5.159676</ele>
        <time>2024-08-10T22:09:22.000Z</time>
      </trkpt>
      <trkpt lat="51.460686" lon="0.23372">
        <ele>5.340144</ele>
        <time>2024-08-10T22:09:32.000Z</time>
      </trkpt>
      <trkpt lat="51.461256" lon="0.232407">
        <ele>5.486207</ele>
        <time>2024-08-10T22:09:43.000Z</time>
      </trkpt>
      <trkpt lat="51.461323" lon="0.232251">
        <ele>5.469179</ele>
        <time>2024-08-10T22:09:44.000Z</time>
      </trkpt>
      <trkpt lat="51.461387" lon="0.232063">
        <ele>5.423333</ele>
        <time>2024-08-10T22:09:45.000Z</time>
      </trkpt>
      <trkpt lat="51.461412" lon="0.23195">
        <ele>5.398537</ele>
        <time>2024-08-10T22:09:46.000Z</time>
      </trkpt>
      <trkpt lat="51.4614" lon="0.231951">
        <ele>5.388565</ele>
        <time>2024-08-10T22:09:46.000Z</time>
      </trkpt>
      <trkpt lat="51.461398" lon="0.231959">
        <ele>5.387877</ele>
        <time>2024-08-10T22:09:46.000Z</time>
      </trkpt>
      <trkpt lat="51.461393" lon="0.231964">
        <ele>5.387184</ele>
        <time>2024-08-10T22:09:46.000Z</time>
      </trkpt>
      <trkpt lat="51.461393" lon="0.231966">
        <ele>5.386844</ele>
        <time>2024-08-10T22:09:46.000Z</time>
      </trkpt>
      <trkpt lat="51.461392" lon="0.231963">
        <ele>5.386159</ele>
        <time>2024-08-10T22:09:46.000Z</time>
      </trkpt>
      <trkpt lat="51.461391" lon="0.231952">
        <ele>5.385821</ele>
        <time>2024-08-10T22:09:46.000Z</time>
      </trkpt>
      <trkpt lat="51.461387" lon="0.231962">
        <ele>5.385132</ele>
        <time>2024-08-10T22:09:46.000Z</time>
      </trkpt>
      <trkpt lat="51.461345" lon="0.231951">
        <ele>5.373439</ele>
        <time>2024-08-10T22:09:46.000Z</time>
      </trkpt>
      <trkpt lat="51.460778" lon="0.231887">
        <ele>5.178019</ele>
        <time>2024-08-10T22:09:52.000Z</time>
      </trkpt>
      <trkpt lat="51.460704" lon="0.231911">
        <ele>5.149758</ele>
        <time>2024-08-10T22:09:53.000Z</time>
      </trkpt>
      <trkpt lat="51.460644" lon="0.231915">
        <ele>5.130791</ele>
        <time>2024-08-10T22:09:54.000Z</time>
      </trkpt>
      <trkpt lat="51.460571" lon="0.231932">
        <ele>5.105544</ele>
        <time>2024-08-10T22:09:55.000Z</time>
      </trkpt>
      <trkpt lat="51.460479" lon="0.231982">
        <ele>5.069489</ele>
        <time>2024-08-10T22:09:56.000Z</time>
      </trkpt>
      <trkpt lat="51.460453" lon="0.23205">
        <ele>5.054917</ele>
        <time>2024-08-10T22:09:57.000Z</time>
      </trkpt>
      <trkpt lat="51.460376" lon="0.232119">
        <ele>5.026075</ele>
        <time>2024-08-10T22:09:58.000Z</time>
      </trkpt>
      <trkpt lat="51.460344" lon="0.232132">
        <ele>5.01161</ele>
        <time>2024-08-10T22:09:58.000Z</time>
      </trkpt>
      <trkpt lat="51.460308" lon="0.232124">
        <ele>4.997808</ele>
        <time>2024-08-10T22:09:58.000Z</time>
      </trkpt>
      <trkpt lat="51.460303" lon="0.232136">
        <ele>4.996769</ele>
        <time>2024-08-10T22:09:58.000Z</time>
      </trkpt>
      <trkpt lat="51.460298" lon="0.232126">
        <ele>4.995719</ele>
        <time>2024-08-10T22:09:58.000Z</time>
      </trkpt>
      <trkpt lat="51.460306" lon="0.232138">
        <ele>4.995387</ele>
        <time>2024-08-10T22:09:58.000Z</time>
      </trkpt>
      <trkpt lat="51.460303" lon="0.232141">
        <ele>4.995385</ele>
        <time>2024-08-10T22:09:58.000Z</time>
      </trkpt>
      <trkpt lat="51.460294" lon="0.23213">
        <ele>4.99498</ele>
        <time>2024-08-10T22:09:58.000Z</time>
      </trkpt>
      <trkpt lat="51.460296" lon="0.232132">
        <ele>4.994576</ele>
        <time>2024-08-10T22:09:58.000Z</time>
      </trkpt>
      <trkpt lat="51.46029" lon="0.232121">
        <ele>4.993838</ele>
        <time>2024-08-10T22:09:58.000Z</time>
      </trkpt>
      <trkpt lat="51.460247" lon="0.232093">
        <ele>4.979252</ele>
        <time>2024-08-10T22:09:59.000Z</time>
      </trkpt>
      <trkpt lat="51.460216" lon="0.232054">
        <ele>4.963141</ele>
        <time>2024-08-10T22:09:59.000Z</time>
      </trkpt>
      <trkpt lat="51.460144" lon="0.232052">
        <ele>4.940092</ele>
        <time>2024-08-10T22:10:00.000Z</time>
      </trkpt>
      <trkpt lat="51.459801" lon="0.231962">
        <ele>4.875333</ele>
        <time>2024-08-10T22:10:04.000Z</time>
      </trkpt>
      <trkpt lat="51.459456" lon="0.231523">
        <ele>4.878324</ele>
        <time>2024-08-10T22:10:09.000Z</time>
      </trkpt>
      <trkpt lat="51.459173" lon="0.231325">
        <ele>4.880374</ele>
        <time>2024-08-10T22:10:12.000Z</time>
      </trkpt>
      <trkpt lat="51.459052" lon="0.231313">
        <ele>4.881104</ele>
        <time>2024-08-10T22:10:13.000Z</time>
      </trkpt>
      <trkpt lat="51.459017" lon="0.231371">
        <ele>4.881438</ele>
        <time>2024-08-10T22:10:14.000Z</time>
      </trkpt>
      <trkpt lat="51.458973" lon="0.231387">
        <ele>4.881751</ele>
        <time>2024-08-10T22:10:15.000Z</time>
      </trkpt>
      <trkpt lat="51.45876" lon="0.231588">
        <ele>4.883337</ele>
        <time>2024-08-10T22:10:18.000Z</time>
      </trkpt>
      <trkpt lat="51.458718" lon="0.231629">
        <ele>4.883724</ele>
        <time>2024-08-10T22:10:19.000Z</time>
      </trkpt>
      <trkpt lat="51.45872" lon="0.23164">
        <ele>4.883744</ele>
        <time>2024-08-10T22:10:19.000Z</time>
      </trkpt>
      <trkpt lat="51.458712" lon="0.231629">
        <ele>4.88375</ele>
        <time>2024-08-10T22:10:19.000Z</time>
      </trkpt>
      <trkpt lat="51.458715" lon="0.231632">
        <ele>4.883769</ele>
        <time>2024-08-10T22:10:19.000Z</time>
      </trkpt>
      <trkpt lat="51.458713" lon="0.231647">
        <ele>4.883796</ele>
        <time>2024-08-10T22:10:19.000Z</time>
      </trkpt>
      <trkpt lat="51.458706" lon="0.231641">
        <ele>4.883796</ele>
        <time>2024-08-10T22:10:19.000Z</time>
      </trkpt>
      <trkpt lat="51.458705" lon="0.231646">
        <ele>4.883816</ele>
        <time>2024-08-10T22:10:19.000Z</time>
      </trkpt>
      <trkpt lat="51.458693" lon="0.231653">
        <ele>4.883815</ele>
        <time>2024-08-10T22:10:19.000Z</time>
      </trkpt>
      <trkpt lat="51.458708" lon="0.231653">
        <ele>4.883817</ele>
        <time>2024-08-10T22:10:19.000Z</time>
      </trkpt>
      <trkpt lat="51.458695" lon="0.231651">
        <ele>4.883834</ele>
        <time>2024-08-10T22:10:19.000Z</time>
      </trkpt>
      <trkpt lat="51.458693" lon="0.231644">
        <ele>4.883844</ele>
        <time>2024-08-10T22:10:19.000Z</time>
      </trkpt>
      <trkpt lat="51.458704" lon="0.23165">
        <ele>4.88386</ele>
        <time>2024-08-10T22:10:19.000Z</time>
      </trkpt>
      <trkpt lat="51.458691" lon="0.231654">
        <ele>4.883874</ele>
        <time>2024-08-10T22:10:19.000Z</time>
      </trkpt>
      <trkpt lat="51.458692" lon="0.231657">
        <ele>4.883888</ele>
        <time>2024-08-10T22:10:19.000Z</time>
      </trkpt>
      <trkpt lat="51.458177" lon="0.232575">
        <ele>5.150319</ele>
        <time>2024-08-10T22:10:28.000Z</time>
      </trkpt>
      <trkpt lat="51.458178" lon="0.23258">
        <ele>5.154385</ele>
        <time>2024-08-10T22:10:28.000Z</time>
      </trkpt>
      <trkpt lat="51.458179" lon="0.232584">
        <ele>5.156733</ele>
        <time>2024-08-10T22:10:28.000Z</time>
      </trkpt>
      <trkpt lat="51.458182" lon="0.232588">
        <ele>5.157515</ele>
        <time>2024-08-10T22:10:28.000Z</time>
      </trkpt>
      <trkpt lat="51.458188" lon="0.232598">
        <ele>5.158268</ele>
        <time>2024-08-10T22:10:28.000Z</time>
      </trkpt>
      <trkpt lat="51.458181" lon="0.232591">
        <ele>5.159606</ele>
        <time>2024-08-10T22:10:28.000Z</time>
      </trkpt>
      <trkpt lat="51.458187" lon="0.232592">
        <ele>5.160356</ele>
        <time>2024-08-10T22:10:28.000Z</time>
      </trkpt>
      <trkpt lat="51.458181" lon="0.232588">
        <ele>5.161107</ele>
        <time>2024-08-10T22:10:28.000Z</time>
      </trkpt>
      <trkpt lat="51.458176" lon="0.232585">
        <ele>5.161882</ele>
        <time>2024-08-10T22:10:28.000Z</time>
      </trkpt>
      <trkpt lat="51.458183" lon="0.232598">
        <ele>5.162896</ele>
        <time>2024-08-10T22:10:28.000Z</time>
      </trkpt>
      <trkpt lat="51.458183" lon="0.232591">
        <ele>5.163907</ele>
        <time>2024-08-10T22:10:28.000Z</time>
      </trkpt>
      <trkpt lat="51.458183" lon="0.232605">
        <ele>5.164935</ele>
        <time>2024-08-10T22:10:28.000Z</time>
      </trkpt>
      <trkpt lat="51.458179" lon="0.232603">
        <ele>5.165726</ele>
        <time>2024-08-10T22:10:28.000Z</time>
      </trkpt>
      <trkpt lat="51.458178" lon="0.232604">
        <ele>5.166733</ele>
        <time>2024-08-10T22:10:28.000Z</time>
      </trkpt>
      <trkpt lat="51.458167" lon="0.232612">
        <ele>5.167754</ele>
        <time>2024-08-10T22:10:28.000Z</time>
      </trkpt>
      <trkpt lat="51.45818" lon="0.2326">
        <ele>5.168749</ele>
        <time>2024-08-10T22:10:28.000Z</time>
      </trkpt>
      <trkpt lat="51.45779" lon="0.233612">
        <ele>5.637404</ele>
        <time>2024-08-10T22:10:36.000Z</time>
      </trkpt>
      <trkpt lat="51.45747" lon="0.234615">
        <ele>6.0776</ele>
        <time>2024-08-10T22:10:44.000Z</time>
      </trkpt>
      <trkpt lat="51.45748" lon="0.234608">
        <ele>6.078006</ele>
        <time>2024-08-10T22:10:44.000Z</time>
      </trkpt>
      <trkpt lat="51.457471" lon="0.234622">
        <ele>6.078775</ele>
        <time>2024-08-10T22:10:44.000Z</time>
      </trkpt>
      <trkpt lat="51.457478" lon="0.234617">
        <ele>6.079579</ele>
        <time>2024-08-10T22:10:44.000Z</time>
      </trkpt>
      <trkpt lat="51.457464" lon="0.234612">
        <ele>6.080411</ele>
        <time>2024-08-10T22:10:44.000Z</time>
      </trkpt>
      <trkpt lat="51.457476" lon="0.234627">
        <ele>6.081168</ele>
        <time>2024-08-10T22:10:44.000Z</time>
      </trkpt>
      <trkpt lat="51.457463" lon="0.234616">
        <ele>6.08199</ele>
        <time>2024-08-10T22:10:44.000Z</time>
      </trkpt>
      <trkpt lat="51.457477" lon="0.234626">
        <ele>6.083381</ele>
        <time>2024-08-10T22:10:44.000Z</time>
      </trkpt>
      <trkpt lat="51.457464" lon="0.234617">
        <ele>6.084192</ele>
        <time>2024-08-10T22:10:44.000Z</time>
      </trkpt>
      <trkpt lat="51.457474" lon="0.234626">
        <ele>6.084966</ele>
        <time>2024-08-10T22:10:44.000Z</time>
      </trkpt>
      <trkpt lat="51.457465" lon="0.23462">
        <ele>6.086186</ele>
        <time>2024-08-10T22:10:44.000Z</time>
      </trkpt>
      <trkpt lat="51.457477" lon="0.234637">
        <ele>6.086954</ele>
        <time>2024-08-10T22:10:44.000Z</time>
      </trkpt>
      <trkpt lat="51.457461" lon="0.23463">
        <ele>6.088184</ele>
        <time>2024-08-10T22:10:44.000Z</time>
      </trkpt>
      <trkpt lat="51.45747" lon="0.234641">
        <ele>6.090311</ele>
        <time>2024-08-10T22:10:44.000Z</time>
      </trkpt>
      <trkpt lat="51.456924" lon="0.236947">
        <ele>7.095965</ele>
        <time>2024-08-10T22:11:01.000Z</time>
      </trkpt>
      <trkpt lat="51.456901" lon="0.236974">
        <ele>7.109113</ele>
        <time>2024-08-10T22:11:01.000Z</time>
      </trkpt>
      <trkpt lat="51.456909" lon="0.236969">
        <ele>7.110505</ele>
        <time>2024-08-10T22:11:01.000Z</time>
      </trkpt>
      <trkpt lat="51.456911" lon="0.23698">
        <ele>7.11154</ele>
        <time>2024-08-10T22:11:01.000Z</time>
      </trkpt>
      <trkpt lat="51.4569" lon="0.236984">
        <ele>7.112367</ele>
        <time>2024-08-10T22:11:01.000Z</time>
      </trkpt>
      <trkpt lat="51.456907" lon="0.236987">
        <ele>7.1134</ele>
        <time>2024-08-10T22:11:01.000Z</time>
      </trkpt>
      <trkpt lat="51.456904" lon="0.236986">
        <ele>7.114454</ele>
        <time>2024-08-10T22:11:01.000Z</time>
      </trkpt>
      <trkpt lat="51.4569" lon="0.23698">
        <ele>7.116209</ele>
        <time>2024-08-10T22:11:01.000Z</time>
      </trkpt>
      <trkpt lat="51.4569" lon="0.236991">
        <ele>7.116966</ele>
        <time>2024-08-10T22:11:01.000Z</time>
      </trkpt>
      <trkpt lat="51.456902" lon="0.236992">
        <ele>7.117791</ele>
        <time>2024-08-10T22:11:01.000Z</time>
      </trkpt>
      <trkpt lat="51.456891" lon="0.236998">
        <ele>7.118844</ele>
        <time>2024-08-10T22:11:01.000Z</time>
      </trkpt>
      <trkpt lat="51.456564" lon="0.237935">
        <ele>7.66998</ele>
        <time>2024-08-10T22:11:08.000Z</time>
      </trkpt>
      <trkpt lat="51.456553" lon="0.237976">
        <ele>7.686463</ele>
        <time>2024-08-10T22:11:08.000Z</time>
      </trkpt>
      <trkpt lat="51.456537" lon="0.237982">
        <ele>7.689561</ele>
        <time>2024-08-10T22:11:08.000Z</time>
      </trkpt>
      <trkpt lat="51.456549" lon="0.237973">
        <ele>7.690541</ele>
        <time>2024-08-10T22:11:08.000Z</time>
      </trkpt>
      <trkpt lat="51.456534" lon="0.237974">
        <ele>7.692331</ele>
        <time>2024-08-10T22:11:08.000Z</time>
      </trkpt>
      <trkpt lat="51.456532" lon="0.237972">
        <ele>7.69367</ele>
        <time>2024-08-10T22:11:08.000Z</time>
      </trkpt>
      <trkpt lat="51.456537" lon="0.237977">
        <ele>7.695641</ele>
        <time>2024-08-10T22:11:08.000Z</time>
      </trkpt>
      <trkpt lat="51.45654" lon="0.237985">
        <ele>7.696983</ele>
        <time>2024-08-10T22:11:08.000Z</time>
      </trkpt>
      <trkpt lat="51.456539" lon="0.237983">
        <ele>7.698753</ele>
        <time>2024-08-10T22:11:08.000Z</time>
      </trkpt>
      <trkpt lat="51.456543" lon="0.237986">
        <ele>7.701432</ele>
        <time>2024-08-10T22:11:08.000Z</time>
      </trkpt>
      <trkpt lat="51.456536" lon="0.237996">
        <ele>7.703214</ele>
        <time>2024-08-10T22:11:08.000Z</time>
      </trkpt>
      <trkpt lat="51.456527" lon="0.237989">
        <ele>7.704191</ele>
        <time>2024-08-10T22:11:08.000Z</time>
      </trkpt>
      <trkpt lat="51.456531" lon="0.238005">
        <ele>7.705529</ele>
        <time>2024-08-10T22:11:08.000Z</time>
      </trkpt>
      <trkpt lat="51.456525" lon="0.238008">
        <ele>7.707319</ele>
        <time>2024-08-10T22:11:08.000Z</time>
      </trkpt>
      <trkpt lat="51.456087" lon="0.238916">
        <ele>8.317685</ele>
        <time>2024-08-10T22:11:16.000Z</time>
      </trkpt>
      <trkpt lat="51.455857" lon="0.239299">
        <ele>8.590659</ele>
        <time>2024-08-10T22:11:20.000Z</time>
      </trkpt>
      <trkpt lat="51.455847" lon="0.239302">
        <ele>8.592959</ele>
        <time>2024-08-10T22:11:20.000Z</time>
      </trkpt>
      <trkpt lat="51.455855" lon="0.239307">
        <ele>8.594935</ele>
        <time>2024-08-10T22:11:20.000Z</time>
      </trkpt>
      <trkpt lat="51.455847" lon="0.239297">
        <ele>8.596697</ele>
        <time>2024-08-10T22:11:20.000Z</time>
      </trkpt>
      <trkpt lat="51.455847" lon="0.239314">
        <ele>8.597691</ele>
        <time>2024-08-10T22:11:20.000Z</time>
      </trkpt>
      <trkpt lat="51.45584" lon="0.239316">
        <ele>8.598672</ele>
        <time>2024-08-10T22:11:20.000Z</time>
      </trkpt>
      <trkpt lat="51.455856" lon="0.239318">
        <ele>8.600025</ele>
        <time>2024-08-10T22:11:20.000Z</time>
      </trkpt>
      <trkpt lat="51.455842" lon="0.239314">
        <ele>8.601351</ele>
        <time>2024-08-10T22:11:20.000Z</time>
      </trkpt>
      <trkpt lat="51.455841" lon="0.239314">
        <ele>8.602351</ele>
        <time>2024-08-10T22:11:20.000Z</time>
      </trkpt>
      <trkpt lat="51.455848" lon="0.239323">
        <ele>8.603685</ele>
        <time>2024-08-10T22:11:20.000Z</time>
      </trkpt>
      <trkpt lat="51.455775" lon="0.239435">
        <ele>8.693539</ele>
        <time>2024-08-10T22:11:21.000Z</time>
      </trkpt>
      <trkpt lat="51.455129" lon="0.240231">
        <ele>8.95996</ele>
        <time>2024-08-10T22:11:30.000Z</time>
      </trkpt>
      <trkpt lat="51.455128" lon="0.240242">
        <ele>8.96119</ele>
        <time>2024-08-10T22:11:30.000Z</time>
      </trkpt>
      <trkpt lat="51.455114" lon="0.24025">
        <ele>8.961546</ele>
        <time>2024-08-10T22:11:30.000Z</time>
      </trkpt>
      <trkpt lat="51.455112" lon="0.240243">
        <ele>8.961929</ele>
        <time>2024-08-10T22:11:30.000Z</time>
      </trkpt>
      <trkpt lat="51.455117" lon="0.24024">
        <ele>8.962286</ele>
        <time>2024-08-10T22:11:30.000Z</time>
      </trkpt>
      <trkpt lat="51.455123" lon="0.240239">
        <ele>8.962655</ele>
        <time>2024-08-10T22:11:30.000Z</time>
      </trkpt>
      <trkpt lat="51.455115" lon="0.240254">
        <ele>8.963031</ele>
        <time>2024-08-10T22:11:30.000Z</time>
      </trkpt>
      <trkpt lat="51.455111" lon="0.240247">
        <ele>8.963898</ele>
        <time>2024-08-10T22:11:30.000Z</time>
      </trkpt>
      <trkpt lat="51.455119" lon="0.24025">
        <ele>8.964268</ele>
        <time>2024-08-10T22:11:30.000Z</time>
      </trkpt>
      <trkpt lat="51.455112" lon="0.240259">
        <ele>8.964758</ele>
        <time>2024-08-10T22:11:30.000Z</time>
      </trkpt>
      <trkpt lat="51.45511" lon="0.240244">
        <ele>8.965509</ele>
        <time>2024-08-10T22:11:30.000Z</time>
      </trkpt>
      <trkpt lat="51.455111" lon="0.240259">
        <ele>8.96637</ele>
        <time>2024-08-10T22:11:30.000Z</time>
      </trkpt>
      <trkpt lat="51.45511" lon="0.240258">
        <ele>8.967115</ele>
        <time>2024-08-10T22:11:30.000Z</time>
      </trkpt>
      <trkpt lat="51.4551" lon="0.240257">
        <ele>8.967475</ele>
        <time>2024-08-10T22:11:30.000Z</time>
      </trkpt>
      <trkpt lat="51.455074" lon="0.240291">
        <ele>8.976549</ele>
        <time>2024-08-10T22:11:30.000Z</time>
      </trkpt>
      <trkpt lat="51.45468" lon="0.240611">
        <ele>9.116523</ele>
        <time>2024-08-10T22:11:35.000Z</time>
      </trkpt>
      <trkpt lat="51.454601" lon="0.240675">
        <ele>9.144212</ele>
        <time>2024-08-10T22:11:36.000Z</time>
      </trkpt>
      <trkpt lat="51.454608" lon="0.240682">
        <ele>9.144875</ele>
        <time>2024-08-10T22:11:36.000Z</time>
      </trkpt>
      <trkpt lat="51.454596" lon="0.240683">
        <ele>9.145621</ele>
        <time>2024-08-10T22:11:36.000Z</time>
      </trkpt>
      <trkpt lat="51.454598" lon="0.240697">
        <ele>9.145984</ele>
        <time>2024-08-10T22:11:36.000Z</time>
      </trkpt>
      <trkpt lat="51.454593" lon="0.240687">
        <ele>9.14673</ele>
        <time>2024-08-10T22:11:36.000Z</time>
      </trkpt>
      <trkpt lat="51.454601" lon="0.240682">
        <ele>9.147379</ele>
        <time>2024-08-10T22:11:36.000Z</time>
      </trkpt>
      <trkpt lat="51.454601" lon="0.240685">
        <ele>9.147756</ele>
        <time>2024-08-10T22:11:36.000Z</time>
      </trkpt>
      <trkpt lat="51.454602" lon="0.240686">
        <ele>9.14887</ele>
        <time>2024-08-10T22:11:36.000Z</time>
      </trkpt>
      <trkpt lat="51.454586" lon="0.240692">
        <ele>9.148874</ele>
        <time>2024-08-10T22:11:36.000Z</time>
      </trkpt>
      <trkpt lat="51.45459" lon="0.240691">
        <ele>9.148869</ele>
        <time>2024-08-10T22:11:36.000Z</time>
      </trkpt>
      <trkpt lat="51.455111" lon="0.240254">
        <ele>9.152302</ele>
        <time>2024-08-10T22:11:43.000Z</time>
      </trkpt>
      <trkpt lat="51.455108" lon="0.240239">
        <ele>9.152302</ele>
        <time>2024-08-10T22:11:43.000Z</time>
      </trkpt>
      <trkpt lat="51.455483" lon="0.239784">
        <ele>8.849088</ele>
        <time>2024-08-10T22:11:48.000Z</time>
      </trkpt>
      <trkpt lat="51.455858" lon="0.239312">
        <ele>8.546118</ele>
        <time>2024-08-10T22:11:53.000Z</time>
      </trkpt>
      <trkpt lat="51.45586" lon="0.23931">
        <ele>8.546117</ele>
        <time>2024-08-10T22:11:53.000Z</time>
      </trkpt>
      <trkpt lat="51.456198" lon="0.238645">
        <ele>8.198364</ele>
        <time>2024-08-10T22:11:59.000Z</time>
      </trkpt>
      <trkpt lat="51.456546" lon="0.237983">
        <ele>7.832041</ele>
        <time>2024-08-10T22:12:05.000Z</time>
      </trkpt>
      <trkpt lat="51.456543" lon="0.237982">
        <ele>7.832044</ele>
        <time>2024-08-10T22:12:05.000Z</time>
      </trkpt>
      <trkpt lat="51.456901" lon="0.23698">
        <ele>7.336394</ele>
        <time>2024-08-10T22:12:13.000Z</time>
      </trkpt>
      <trkpt lat="51.456896" lon="0.236984">
        <ele>7.336391</ele>
        <time>2024-08-10T22:12:13.000Z</time>
      </trkpt>
      <trkpt lat="51.457188" lon="0.235804">
        <ele>6.798772</ele>
        <time>2024-08-10T22:12:22.000Z</time>
      </trkpt>
      <trkpt lat="51.457469" lon="0.234629">
        <ele>6.285093</ele>
        <time>2024-08-10T22:12:31.000Z</time>
      </trkpt>
      <trkpt lat="51.457464" lon="0.234635">
        <ele>6.285092</ele>
        <time>2024-08-10T22:12:31.000Z</time>
      </trkpt>
      <trkpt lat="51.457817" lon="0.233604">
        <ele>5.808669</ele>
        <time>2024-08-10T22:12:39.000Z</time>
      </trkpt>
      <trkpt lat="51.458179" lon="0.232583">
        <ele>5.559603</ele>
        <time>2024-08-10T22:12:47.000Z</time>
      </trkpt>
      <trkpt lat="51.458185" lon="0.232594">
        <ele>5.5596</ele>
        <time>2024-08-10T22:12:47.000Z</time>
      </trkpt>
      <trkpt lat="51.458691" lon="0.231656">
        <ele>5.367498</ele>
        <time>2024-08-10T22:12:56.000Z</time>
      </trkpt>
      <trkpt lat="51.458691" lon="0.231658">
        <ele>5.367503</ele>
        <time>2024-08-10T22:12:56.000Z</time>
      </trkpt>
      <trkpt lat="51.458704" lon="0.231658">
        <ele>5.367504</ele>
        <time>2024-08-10T22:12:56.000Z</time>
      </trkpt>
      <trkpt lat="51.459112" lon="0.231216">
        <ele>5.2642</ele>
        <time>2024-08-10T22:13:01.000Z</time>
      </trkpt>
      <trkpt lat="51.459102" lon="0.231226">
        <ele>5.2642</ele>
        <time>2024-08-10T22:13:01.000Z</time>
      </trkpt>
      <trkpt lat="51.459099" lon="0.231223">
        <ele>5.264215</ele>
        <time>2024-08-10T22:13:01.000Z</time>
      </trkpt>
      <trkpt lat="51.459148" lon="0.23062">
        <ele>5.403564</ele>
        <time>2024-08-10T22:13:05.000Z</time>
      </trkpt>
      <trkpt lat="51.459144" lon="0.23061">
        <ele>5.403567</ele>
        <time>2024-08-10T22:13:05.000Z</time>
      </trkpt>
      <trkpt lat="51.459158" lon="0.230624">
        <ele>5.403572</ele>
        <time>2024-08-10T22:13:05.000Z</time>
      </trkpt>
      <trkpt lat="51.459282" lon="0.229848">
        <ele>5.584583</ele>
        <time>2024-08-10T22:13:11.000Z</time>
      </trkpt>
      <trkpt lat="51.459397" lon="0.229067">
        <ele>5.765504</ele>
        <time>2024-08-10T22:13:17.000Z</time>
      </trkpt>
      <trkpt lat="51.459401" lon="0.229078">
        <ele>5.765505</ele>
        <time>2024-08-10T22:13:17.000Z</time>
      </trkpt>
      <trkpt lat="51.459395" lon="0.22908">
        <ele>5.7655</ele>
        <time>2024-08-10T22:13:17.000Z</time>
      </trkpt>
      <trkpt lat="51.459452" lon="0.228188">
        <ele>5.956449</ele>
        <time>2024-08-10T22:13:23.000Z</time>
      </trkpt>
      <trkpt lat="51.459499" lon="0.227287">
        <ele>6.116312</ele>
        <time>2024-08-10T22:13:29.000Z</time>
      </trkpt>
      <trkpt lat="51.459501" lon="0.227283">
        <ele>6.116302</ele>
        <time>2024-08-10T22:13:29.000Z</time>
      </trkpt>
      <trkpt lat="51.459478" lon="0.226103">
        <ele>6.327649</ele>
        <time>2024-08-10T22:13:37.000Z</time>
      </trkpt>
      <trkpt lat="51.459469" lon="0.224916">
        <ele>6.434504</ele>
        <time>2024-08-10T22:13:45.000Z</time>
      </trkpt>
      <trkpt lat="51.459445" lon="0.223732">
        <ele>6.452627</ele>
        <time>2024-08-10T22:13:53.000Z</time>
      </trkpt>
      <trkpt lat="51.459433" lon="0.223729">
        <ele>6.452631</ele>
        <time>2024-08-10T22:13:53.000Z</time>
      </trkpt>
      <trkpt lat="51.459391" lon="0.222671">
        <ele>6.468655</ele>
        <time>2024-08-10T22:14:00.000Z</time>
      </trkpt>
      <trkpt lat="51.459342" lon="0.221607">
        <ele>6.44882</ele>
        <time>2024-08-10T22:14:07.000Z</time>
      </trkpt>
      <trkpt lat="51.459305" lon="0.220533">
        <ele>6.428955</ele>
        <time>2024-08-10T22:14:14.000Z</time>
      </trkpt>
      <trkpt lat="51.459304" lon="0.22054">
        <ele>6.428871</ele>
        <time>2024-08-10T22:14:14.000Z</time>
      </trkpt>
      <trkpt lat="51.459302" lon="0.220543">
        <ele>6.428815</ele>
        <time>2024-08-10T22:14:14.000Z</time>
      </trkpt>
      <trkpt lat="51.459324" lon="0.221223">
        <ele>6.415917</ele>
        <time>2024-08-10T22:14:19.000Z</time>
      </trkpt>
      <trkpt lat="51.459441" lon="0.223723">
        <ele>6.495704</ele>
        <time>2024-08-10T22:14:36.000Z</time>
      </trkpt>
      <trkpt lat="51.45949" lon="0.2273">
        <ele>6.40504</ele>
        <time>2024-08-10T22:15:01.000Z</time>
      </trkpt>
      <trkpt lat="51.459479" lon="0.228226">
        <ele>6.051818</ele>
        <time>2024-08-10T22:15:07.000Z</time>
      </trkpt>
      <trkpt lat="51.459367" lon="0.229413">
        <ele>5.600139</ele>
        <time>2024-08-10T22:15:15.000Z</time>
      </trkpt>
      <trkpt lat="51.459302" lon="0.229776">
        <ele>5.454315</ele>
        <time>2024-08-10T22:15:18.000Z</time>
      </trkpt>
      <trkpt lat="51.459165" lon="0.230445">
        <ele>5.305484</ele>
        <time>2024-08-10T22:15:23.000Z</time>
      </trkpt>
      <trkpt lat="51.45915" lon="0.230716">
        <ele>5.253251</ele>
        <time>2024-08-10T22:15:25.000Z</time>
      </trkpt>
      <trkpt lat="51.45913" lon="0.230971">
        <ele>5.205655</ele>
        <time>2024-08-10T22:15:27.000Z</time>
      </trkpt>
      <trkpt lat="51.459134" lon="0.231002">
        <ele>5.19909</ele>
        <time>2024-08-10T22:15:27.000Z</time>
      </trkpt>
      <trkpt lat="51.459215" lon="0.231117">
        <ele>5.166081</ele>
        <time>2024-08-10T22:15:28.000Z</time>
      </trkpt>
      <trkpt lat="51.459478" lon="0.231337">
        <ele>5.079456</ele>
        <time>2024-08-10T22:15:31.000Z</time>
      </trkpt>
      <trkpt lat="51.459794" lon="0.231793">
        <ele>4.95484</ele>
        <time>2024-08-10T22:15:36.000Z</time>
      </trkpt>
      <trkpt lat="51.460017" lon="0.231912">
        <ele>4.883968</ele>
        <time>2024-08-10T22:15:39.000Z</time>
      </trkpt>
      <trkpt lat="51.460125" lon="0.231885">
        <ele>4.919777</ele>
        <time>2024-08-10T22:15:40.000Z</time>
      </trkpt>
      <trkpt lat="51.460189" lon="0.231827">
        <ele>4.957041</ele>
        <time>2024-08-10T22:15:41.000Z</time>
      </trkpt>
      <trkpt lat="51.460225" lon="0.231748">
        <ele>4.979532</ele>
        <time>2024-08-10T22:15:42.000Z</time>
      </trkpt>
      <trkpt lat="51.46025" lon="0.231698">
        <ele>5.002226</ele>
        <time>2024-08-10T22:15:42.000Z</time>
      </trkpt>
      <trkpt lat="51.460315" lon="0.231666">
        <ele>5.031307</ele>
        <time>2024-08-10T22:15:43.000Z</time>
      </trkpt>
      <trkpt lat="51.460376" lon="0.231673">
        <ele>5.059732</ele>
        <time>2024-08-10T22:15:44.000Z</time>
      </trkpt>
      <trkpt lat="51.460412" lon="0.231717">
        <ele>5.082253</ele>
        <time>2024-08-10T22:15:45.000Z</time>
      </trkpt>
      <trkpt lat="51.46046" lon="0.231766">
        <ele>5.104436</ele>
        <time>2024-08-10T22:15:46.000Z</time>
      </trkpt>
      <trkpt lat="51.460547" lon="0.231811">
        <ele>5.153132</ele>
        <time>2024-08-10T22:15:47.000Z</time>
      </trkpt>
      <trkpt lat="51.460648" lon="0.231846">
        <ele>5.204496</ele>
        <time>2024-08-10T22:15:48.000Z</time>
      </trkpt>
      <trkpt lat="51.460779" lon="0.231902">
        <ele>5.264712</ele>
        <time>2024-08-10T22:15:50.000Z</time>
      </trkpt>
      <trkpt lat="51.46134" lon="0.231964">
        <ele>5.533309</ele>
        <time>2024-08-10T22:15:56.000Z</time>
      </trkpt>
      <trkpt lat="51.461413" lon="0.231953">
        <ele>5.567798</ele>
        <time>2024-08-10T22:15:57.000Z</time>
      </trkpt>
      <trkpt lat="51.461464" lon="0.23182">
        <ele>5.610277</ele>
        <time>2024-08-10T22:15:58.000Z</time>
      </trkpt>
      <trkpt lat="51.461517" lon="0.231603">
        <ele>5.685334</ele>
        <time>2024-08-10T22:16:00.000Z</time>
      </trkpt>
      <trkpt lat="51.461571" lon="0.231344">
        <ele>5.779253</ele>
        <time>2024-08-10T22:16:02.000Z</time>
      </trkpt>
      <trkpt lat="51.461605" lon="0.231135">
        <ele>5.869258</ele>
        <time>2024-08-10T22:16:03.000Z</time>
      </trkpt>
      <trkpt lat="51.461677" lon="0.230495">
        <ele>6.140632</ele>
        <time>2024-08-10T22:16:08.000Z</time>
      </trkpt>
      <trkpt lat="51.461851" lon="0.226904">
        <ele>7.450061</ele>
        <time>2024-08-10T22:16:33.000Z</time>
      </trkpt>
      <trkpt lat="51.461869" lon="0.226733">
        <ele>7.503834</ele>
        <time>2024-08-10T22:16:34.000Z</time>
      </trkpt>
      <trkpt lat="51.461841" lon="0.226356">
        <ele>7.61143</ele>
        <time>2024-08-10T22:16:37.000Z</time>
      </trkpt>
      <trkpt lat="51.461823" lon="0.226214">
        <ele>7.658523</ele>
        <time>2024-08-10T22:16:38.000Z</time>
      </trkpt>
      <trkpt lat="51.460984" lon="0.224082">
        <ele>7.693365</ele>
        <time>2024-08-10T22:16:55.000Z</time>
      </trkpt>
      <trkpt lat="51.460791" lon="0.223757">
        <ele>7.670322</ele>
        <time>2024-08-10T22:16:58.000Z</time>
      </trkpt>
      <trkpt lat="51.460535" lon="0.223432">
        <ele>7.654981</ele>
        <time>2024-08-10T22:17:02.000Z</time>
      </trkpt>
      <trkpt lat="51.460511" lon="0.223411">
        <ele>7.657846</ele>
        <time>2024-08-10T22:17:02.000Z</time>
      </trkpt>
      <trkpt lat="51.460497" lon="0.223401">
        <ele>7.65877</ele>
        <time>2024-08-10T22:17:02.000Z</time>
      </trkpt>
      <trkpt lat="51.460497" lon="0.223399">
        <ele>7.658764</ele>
        <time>2024-08-10T22:17:02.000Z</time>
      </trkpt>
      <trkpt lat="51.460487" lon="0.22341">
        <ele>7.65877</ele>
        <time>2024-08-10T22:17:02.000Z</time>
      </trkpt>
      <trkpt lat="51.460507" lon="0.22341">
        <ele>7.659689</ele>
        <time>2024-08-10T22:17:02.000Z</time>
      </trkpt>
      <trkpt lat="51.460534" lon="0.223444">
        <ele>7.662544</ele>
        <time>2024-08-10T22:17:02.000Z</time>
      </trkpt>
      <trkpt lat="51.460791" lon="0.223754">
        <ele>7.692122</ele>
        <time>2024-08-10T22:17:06.000Z</time>
      </trkpt>
      <trkpt lat="51.460968" lon="0.224083">
        <ele>7.716384</ele>
        <time>2024-08-10T22:17:09.000Z</time>
      </trkpt>
      <trkpt lat="51.46182" lon="0.226199">
        <ele>7.592088</ele>
        <time>2024-08-10T22:17:26.000Z</time>
      </trkpt>
      <trkpt lat="51.46185" lon="0.226356">
        <ele>7.551563</ele>
        <time>2024-08-10T22:17:27.000Z</time>
      </trkpt>
      <trkpt lat="51.461859" lon="0.226732">
        <ele>7.458917</ele>
        <time>2024-08-10T22:17:30.000Z</time>
      </trkpt>
      <trkpt lat="51.461848" lon="0.226913">
        <ele>7.412613</ele>
        <time>2024-08-10T22:17:31.000Z</time>
      </trkpt>
      <trkpt lat="51.461675" lon="0.230495">
        <ele>6.110732</ele>
        <time>2024-08-10T22:17:56.000Z</time>
      </trkpt>
      <trkpt lat="51.461613" lon="0.231143">
        <ele>5.84802</ele>
        <time>2024-08-10T22:18:01.000Z</time>
      </trkpt>
      <trkpt lat="51.461567" lon="0.231348">
        <ele>5.817497</ele>
        <time>2024-08-10T22:18:03.000Z</time>
      </trkpt>
      <trkpt lat="51.461515" lon="0.231602">
        <ele>5.779585</ele>
        <time>2024-08-10T22:18:05.000Z</time>
      </trkpt>
      <trkpt lat="51.461468" lon="0.231834">
        <ele>5.743113</ele>
        <time>2024-08-10T22:18:07.000Z</time>
      </trkpt>
      <trkpt lat="51.461421" lon="0.231968">
        <ele>5.722459</ele>
        <time>2024-08-10T22:18:08.000Z</time>
      </trkpt>
      <trkpt lat="51.461382" lon="0.232058">
        <ele>5.705898</ele>
        <time>2024-08-10T22:18:09.000Z</time>
      </trkpt>
      <trkpt lat="51.461326" lon="0.232248">
        <ele>5.675273</ele>
        <time>2024-08-10T22:18:10.000Z</time>
      </trkpt>
      <trkpt lat="51.461257" lon="0.232399">
        <ele>5.649408</ele>
        <time>2024-08-10T22:18:11.000Z</time>
      </trkpt>
      <trkpt lat="51.460674" lon="0.233731">
        <ele>5.403155</ele>
        <time>2024-08-10T22:18:22.000Z</time>
      </trkpt>
      <trkpt lat="51.460349" lon="0.235044">
        <ele>5.075387</ele>
        <time>2024-08-10T22:18:32.000Z</time>
      </trkpt>
      <trkpt lat="51.460313" lon="0.235209">
        <ele>5.034259</ele>
        <time>2024-08-10T22:18:33.000Z</time>
      </trkpt>
      <trkpt lat="51.460285" lon="0.235734">
        <ele>4.912771</ele>
        <time>2024-08-10T22:18:37.000Z</time>
      </trkpt>
      <trkpt lat="51.460268" lon="0.235738">
        <ele>4.911857</ele>
        <time>2024-08-10T22:18:37.000Z</time>
      </trkpt>
      <trkpt lat="51.460258" lon="0.236072">
        <ele>4.837359</ele>
        <time>2024-08-10T22:18:39.000Z</time>
      </trkpt>
      <trkpt lat="51.460265" lon="0.23758">
        <ele>4.453577</ele>
        <time>2024-08-10T22:18:49.000Z</time>
      </trkpt>
      <trkpt lat="51.460208" lon="0.238165">
        <ele>4.303246</ele>
        <time>2024-08-10T22:18:53.000Z</time>
      </trkpt>
      <trkpt lat="51.460113" lon="0.238639">
        <ele>4.17488</ele>
        <time>2024-08-10T22:18:56.000Z</time>
      </trkpt>
      <trkpt lat="51.460101" lon="0.238693">
        <ele>4.159668</ele>
        <time>2024-08-10T22:18:56.000Z</time>
      </trkpt>
      <trkpt lat="51.460051" lon="0.238851">
        <ele>4.114569</ele>
        <time>2024-08-10T22:18:57.000Z</time>
      </trkpt>
      <trkpt lat="51.459598" lon="0.240152">
        <ele>4.03902</ele>
        <time>2024-08-10T22:19:07.000Z</time>
      </trkpt>
      <trkpt lat="51.459301" lon="0.240732">
        <ele>4.044377</ele>
        <time>2024-08-10T22:19:12.000Z</time>
      </trkpt>
      <trkpt lat="51.458612" lon="0.24156">
        <ele>4.0444</ele>
        <time>2024-08-10T22:19:22.000Z</time>
      </trkpt>
      <trkpt lat="51.458551" lon="0.241604">
        <ele>4.042997</ele>
        <time>2024-08-10T22:19:23.000Z</time>
      </trkpt>
      <trkpt lat="51.458555" lon="0.241609">
        <ele>4.042929</ele>
        <time>2024-08-10T22:19:23.000Z</time>
      </trkpt>
      <trkpt lat="51.458558" lon="0.241616">
        <ele>4.042889</ele>
        <time>2024-08-10T22:19:23.000Z</time>
      </trkpt>
      <trkpt lat="51.458543" lon="0.241608">
        <ele>4.042818</ele>
        <time>2024-08-10T22:19:23.000Z</time>
      </trkpt>
      <trkpt lat="51.458554" lon="0.241615">
        <ele>4.042796</ele>
        <time>2024-08-10T22:19:23.000Z</time>
      </trkpt>
      <trkpt lat="51.458548" lon="0.241612">
        <ele>4.042725</ele>
        <time>2024-08-10T22:19:23.000Z</time>
      </trkpt>
      <trkpt lat="51.458553" lon="0.24162">
        <ele>4.042667</ele>
        <time>2024-08-10T22:19:23.000Z</time>
      </trkpt>
      <trkpt lat="51.458547" lon="0.241616">
        <ele>4.042645</ele>
        <time>2024-08-10T22:19:23.000Z</time>
      </trkpt>
      <trkpt lat="51.458553" lon="0.241616">
        <ele>4.042579</ele>
        <time>2024-08-10T22:19:23.000Z</time>
      </trkpt>
      <trkpt lat="51.458556" lon="0.241614">
        <ele>4.042518</ele>
        <time>2024-08-10T22:19:23.000Z</time>
      </trkpt>
      <trkpt lat="51.458566" lon="0.241608">
        <ele>4.04246</ele>
        <time>2024-08-10T22:19:23.000Z</time>
      </trkpt>
      <trkpt lat="51.458611" lon="0.241558">
        <ele>4.041071</ele>
        <time>2024-08-10T22:19:24.000Z</time>
      </trkpt>
      <trkpt lat="51.459312" lon="0.240727">
        <ele>4.018216</ele>
        <time>2024-08-10T22:19:34.000Z</time>
      </trkpt>
      <trkpt lat="51.459611" lon="0.240165">
        <ele>4.006026</ele>
        <time>2024-08-10T22:19:39.000Z</time>
      </trkpt>
      <trkpt lat="51.460059" lon="0.238856">
        <ele>4.193798</ele>
        <time>2024-08-10T22:19:49.000Z</time>
      </trkpt>
      <trkpt lat="51.460094" lon="0.238684">
        <ele>4.217818</ele>
        <time>2024-08-10T22:19:50.000Z</time>
      </trkpt>
      <trkpt lat="51.460112" lon="0.238635">
        <ele>4.225925</ele>
        <time>2024-08-10T22:19:50.000Z</time>
      </trkpt>
      <trkpt lat="51.460211" lon="0.238152">
        <ele>4.294289</ele>
        <time>2024-08-10T22:19:54.000Z</time>
      </trkpt>
      <trkpt lat="51.460263" lon="0.237584">
        <ele>4.374366</ele>
        <time>2024-08-10T22:19:58.000Z</time>
      </trkpt>
      <trkpt lat="51.460241" lon="0.236055">
        <ele>4.814726</ele>
        <time>2024-08-10T22:20:09.000Z</time>
      </trkpt>
      <trkpt lat="51.460285" lon="0.23574">
        <ele>4.915164</ele>
        <time>2024-08-10T22:20:11.000Z</time>
      </trkpt>
      <trkpt lat="51.460273" lon="0.235731">
        <ele>4.91642</ele>
        <time>2024-08-10T22:20:11.000Z</time>
      </trkpt>
      <trkpt lat="51.460314" lon="0.23521">
        <ele>5.08019</ele>
        <time>2024-08-10T22:20:15.000Z</time>
      </trkpt>
      <trkpt lat="51.460334" lon="0.235048">
        <ele>5.135621</ele>
        <time>2024-08-10T22:20:16.000Z</time>
      </trkpt>
      <trkpt lat="51.460675" lon="0.233721">
        <ele>5.348288</ele>
        <time>2024-08-10T22:20:26.000Z</time>
      </trkpt>
      <trkpt lat="51.461263" lon="0.232398">
        <ele>5.439473</ele>
        <time>2024-08-10T22:20:37.000Z</time>
      </trkpt>
      <trkpt lat="51.461315" lon="0.232245">
        <ele>5.449627</ele>
        <time>2024-08-10T22:20:38.000Z</time>
      </trkpt>
      <trkpt lat="51.46138" lon="0.232066">
        <ele>5.452775</ele>
        <time>2024-08-10T22:20:39.000Z</time>
      </trkpt>
      <trkpt lat="51.461427" lon="0.231961">
        <ele>5.426849</ele>
        <time>2024-08-10T22:20:40.000Z</time>
      </trkpt>
      <trkpt lat="51.461389" lon="0.231958">
        <ele>5.416432</ele>
        <time>2024-08-10T22:20:40.000Z</time>
      </trkpt>
      <trkpt lat="51.461394" lon="0.231961">
        <ele>5.4157</ele>
        <time>2024-08-10T22:20:40.000Z</time>
      </trkpt>
      <trkpt lat="51.461379" lon="0.231966">
        <ele>5.414978</ele>
        <time>2024-08-10T22:20:40.000Z</time>
      </trkpt>
      <trkpt lat="51.461381" lon="0.231961">
        <ele>5.414626</ele>
        <time>2024-08-10T22:20:40.000Z</time>
      </trkpt>
      <trkpt lat="51.461391" lon="0.231958">
        <ele>5.413908</ele>
        <time>2024-08-10T22:20:40.000Z</time>
      </trkpt>
      <trkpt lat="51.461386" lon="0.231963">
        <ele>5.413541</ele>
        <time>2024-08-10T22:20:40.000Z</time>
      </trkpt>
      <trkpt lat="51.461375" lon="0.231956">
        <ele>5.412838</ele>
        <time>2024-08-10T22:20:40.000Z</time>
      </trkpt>
      <trkpt lat="51.461345" lon="0.231958">
        <ele>5.400617</ele>
        <time>2024-08-10T22:20:40.000Z</time>
      </trkpt>
      <trkpt lat="51.460781" lon="0.231886">
        <ele>5.196377</ele>
        <time>2024-08-10T22:20:46.000Z</time>
      </trkpt>
      <trkpt lat="51.4607" lon="0.231899">
        <ele>5.166856</ele>
        <time>2024-08-10T22:20:47.000Z</time>
      </trkpt>
      <trkpt lat="51.460637" lon="0.231916">
        <ele>5.147031</ele>
        <time>2024-08-10T22:20:48.000Z</time>
      </trkpt>
      <trkpt lat="51.460578" lon="0.231919">
        <ele>5.120636</ele>
        <time>2024-08-10T22:20:49.000Z</time>
      </trkpt>
      <trkpt lat="51.460468" lon="0.231991">
        <ele>5.082958</ele>
        <time>2024-08-10T22:20:50.000Z</time>
      </trkpt>
      <trkpt lat="51.46046" lon="0.232046">
        <ele>5.067726</ele>
        <time>2024-08-10T22:20:50.000Z</time>
      </trkpt>
      <trkpt lat="51.460381" lon="0.23212">
        <ele>5.037591</ele>
        <time>2024-08-10T22:20:51.000Z</time>
      </trkpt>
      <trkpt lat="51.460349" lon="0.232144">
        <ele>5.022486</ele>
        <time>2024-08-10T22:20:51.000Z</time>
      </trkpt>
      <trkpt lat="51.460313" lon="0.232141">
        <ele>5.008042</ele>
        <time>2024-08-10T22:20:51.000Z</time>
      </trkpt>
      <trkpt lat="51.460306" lon="0.232129">
        <ele>5.006977</ele>
        <time>2024-08-10T22:20:51.000Z</time>
      </trkpt>
      <trkpt lat="51.460293" lon="0.232141">
        <ele>5.005861</ele>
        <time>2024-08-10T22:20:51.000Z</time>
      </trkpt>
      <trkpt lat="51.460306" lon="0.232139">
        <ele>5.005505</ele>
        <time>2024-08-10T22:20:51.000Z</time>
      </trkpt>
      <trkpt lat="51.460294" lon="0.232139">
        <ele>5.005509</ele>
        <time>2024-08-10T22:20:51.000Z</time>
      </trkpt>
      <trkpt lat="51.460304" lon="0.232137">
        <ele>5.005078</ele>
        <time>2024-08-10T22:20:51.000Z</time>
      </trkpt>
      <trkpt lat="51.460304" lon="0.232139">
        <ele>5.004661</ele>
        <time>2024-08-10T22:20:51.000Z</time>
      </trkpt>
      <trkpt lat="51.460286" lon="0.232121">
        <ele>5.003917</ele>
        <time>2024-08-10T22:20:51.000Z</time>
      </trkpt>
      <trkpt lat="51.460263" lon="0.232105">
        <ele>4.988646</ele>
        <time>2024-08-10T22:20:51.000Z</time>
      </trkpt>
      <trkpt lat="51.460216" lon="0.232044">
        <ele>4.971809</ele>
        <time>2024-08-10T22:20:52.000Z</time>
      </trkpt>
      <trkpt lat="51.460143" lon="0.232058">
        <ele>4.947738</ele>
        <time>2024-08-10T22:20:53.000Z</time>
      </trkpt>
      <trkpt lat="51.459807" lon="0.231967">
        <ele>4.821686</ele>
        <time>2024-08-10T22:20:57.000Z</time>
      </trkpt>
      <trkpt lat="51.459453" lon="0.231506">
        <ele>4.853473</ele>
        <time>2024-08-10T22:21:02.000Z</time>
      </trkpt>
      <trkpt lat="51.459171" lon="0.231318">
        <ele>4.882347</ele>
        <time>2024-08-10T22:21:05.000Z</time>
      </trkpt>
      <trkpt lat="51.459063" lon="0.231315">
        <ele>4.892701</ele>
        <time>2024-08-10T22:21:06.000Z</time>
      </trkpt>
      <trkpt lat="51.459009" lon="0.231371">
        <ele>4.897297</ele>
        <time>2024-08-10T22:21:07.000Z</time>
      </trkpt>
      <trkpt lat="51.458966" lon="0.231389">
        <ele>4.90182</ele>
        <time>2024-08-10T22:21:07.000Z</time>
      </trkpt>
      <trkpt lat="51.458761" lon="0.231583">
        <ele>4.924217</ele>
        <time>2024-08-10T22:21:10.000Z</time>
      </trkpt>
      <trkpt lat="51.458712" lon="0.231634">
        <ele>4.929578</ele>
        <time>2024-08-10T22:21:11.000Z</time>
      </trkpt>
      <trkpt lat="51.458704" lon="0.231627">
        <ele>4.929913</ele>
        <time>2024-08-10T22:21:11.000Z</time>
      </trkpt>
      <trkpt lat="51.458707" lon="0.23164">
        <ele>4.930027</ele>
        <time>2024-08-10T22:21:11.000Z</time>
      </trkpt>
      <trkpt lat="51.458704" lon="0.231644">
        <ele>4.93024</ele>
        <time>2024-08-10T22:21:11.000Z</time>
      </trkpt>
      <trkpt lat="51.45871" lon="0.231641">
        <ele>4.930458</ele>
        <time>2024-08-10T22:21:11.000Z</time>
      </trkpt>
      <trkpt lat="51.458713" lon="0.231631">
        <ele>4.930576</ele>
        <time>2024-08-10T22:21:11.000Z</time>
      </trkpt>
      <trkpt lat="51.4587" lon="0.231645">
        <ele>4.930788</ele>
        <time>2024-08-10T22:21:11.000Z</time>
      </trkpt>
      <trkpt lat="51.458704" lon="0.231646">
        <ele>4.930935</ele>
        <time>2024-08-10T22:21:11.000Z</time>
      </trkpt>
      <trkpt lat="51.4587" lon="0.231641">
        <ele>4.930941</ele>
        <time>2024-08-10T22:21:11.000Z</time>
      </trkpt>
      <trkpt lat="51.458708" lon="0.231641">
        <ele>4.931043</ele>
        <time>2024-08-10T22:21:11.000Z</time>
      </trkpt>
      <trkpt lat="51.458692" lon="0.231653">
        <ele>4.931236</ele>
        <time>2024-08-10T22:21:11.000Z</time>
      </trkpt>
      <trkpt lat="51.458696" lon="0.231646">
        <ele>4.9314</ele>
        <time>2024-08-10T22:21:11.000Z</time>
      </trkpt>
      <trkpt lat="51.4587" lon="0.231643">
        <ele>4.931622</ele>
        <time>2024-08-10T22:21:11.000Z</time>
      </trkpt>
      <trkpt lat="51.4587" lon="0.231652">
        <ele>4.93176</ele>
        <time>2024-08-10T22:21:11.000Z</time>
      </trkpt>
      <trkpt lat="51.45819" lon="0.232577">
        <ele>5.132082</ele>
        <time>2024-08-10T22:21:20.000Z</time>
      </trkpt>
      <trkpt lat="51.458191" lon="0.232587">
        <ele>5.136185</ele>
        <time>2024-08-10T22:21:20.000Z</time>
      </trkpt>
      <trkpt lat="51.45818" lon="0.232579">
        <ele>5.138562</ele>
        <time>2024-08-10T22:21:20.000Z</time>
      </trkpt>
      <trkpt lat="51.458175" lon="0.232581">
        <ele>5.139362</ele>
        <time>2024-08-10T22:21:20.000Z</time>
      </trkpt>
      <trkpt lat="51.458174" lon="0.23259">
        <ele>5.140124</ele>
        <time>2024-08-10T22:21:20.000Z</time>
      </trkpt>
      <trkpt lat="51.458176" lon="0.232584">
        <ele>5.141467</ele>
        <time>2024-08-10T22:21:20.000Z</time>
      </trkpt>
      <trkpt lat="51.458177" lon="0.232584">
        <ele>5.142237</ele>
        <time>2024-08-10T22:21:20.000Z</time>
      </trkpt>
      <trkpt lat="51.45817" lon="0.232597">
        <ele>5.142981</ele>
        <time>2024-08-10T22:21:20.000Z</time>
      </trkpt>
      <trkpt lat="51.45817" lon="0.2326">
        <ele>5.14379</ele>
        <time>2024-08-10T22:21:20.000Z</time>
      </trkpt>
      <trkpt lat="51.458173" lon="0.232601">
        <ele>5.144821</ele>
        <time>2024-08-10T22:21:20.000Z</time>
      </trkpt>
      <trkpt lat="51.458182" lon="0.232607">
        <ele>5.145837</ele>
        <time>2024-08-10T22:21:20.000Z</time>
      </trkpt>
      <trkpt lat="51.458167" lon="0.232601">
        <ele>5.146863</ele>
        <time>2024-08-10T22:21:20.000Z</time>
      </trkpt>
      <trkpt lat="51.458183" lon="0.232607">
        <ele>5.14767</ele>
        <time>2024-08-10T22:21:20.000Z</time>
      </trkpt>
      <trkpt lat="51.458181" lon="0.232604">
        <ele>5.148687</ele>
        <time>2024-08-10T22:21:20.000Z</time>
      </trkpt>
      <trkpt lat="51.458171" lon="0.232607">
        <ele>5.149716</ele>
        <time>2024-08-10T22:21:20.000Z</time>
      </trkpt>
      <trkpt lat="51.458173" lon="0.232605">
        <ele>5.150744</ele>
        <time>2024-08-10T22:21:20.000Z</time>
      </trkpt>
      <trkpt lat="51.457777" lon="0.233618">
        <ele>5.625165</ele>
        <time>2024-08-10T22:21:28.000Z</time>
      </trkpt>
      <trkpt lat="51.457479" lon="0.234604">
        <ele>6.069172</ele>
        <time>2024-08-10T22:21:36.000Z</time>
      </trkpt>
      <trkpt lat="51.45747" lon="0.234603">
        <ele>6.069579</ele>
        <time>2024-08-10T22:21:36.000Z</time>
      </trkpt>
      <trkpt lat="51.457466" lon="0.234619">
        <ele>6.070338</ele>
        <time>2024-08-10T22:21:36.000Z</time>
      </trkpt>
      <trkpt lat="51.457473" lon="0.234617">
        <ele>6.071127</ele>
        <time>2024-08-10T22:21:36.000Z</time>
      </trkpt>
      <trkpt lat="51.457475" lon="0.234624">
        <ele>6.071928</ele>
        <time>2024-08-10T22:21:36.000Z</time>
      </trkpt>
      <trkpt lat="51.457468" lon="0.234627">
        <ele>6.072692</ele>
        <time>2024-08-10T22:21:36.000Z</time>
      </trkpt>
      <trkpt lat="51.457474" lon="0.234627">
        <ele>6.073489</ele>
        <time>2024-08-10T22:21:36.000Z</time>
      </trkpt>
      <trkpt lat="51.457476" lon="0.234627">
        <ele>6.074854</ele>
        <time>2024-08-10T22:21:36.000Z</time>
      </trkpt>
      <trkpt lat="51.457474" lon="0.234624">
        <ele>6.075644</ele>
        <time>2024-08-10T22:21:36.000Z</time>
      </trkpt>
      <trkpt lat="51.457461" lon="0.234631">
        <ele>6.07641</ele>
        <time>2024-08-10T22:21:36.000Z</time>
      </trkpt>
      <trkpt lat="51.457471" lon="0.234629">
        <ele>6.077612</ele>
        <time>2024-08-10T22:21:36.000Z</time>
      </trkpt>
      <trkpt lat="51.457471" lon="0.234635">
        <ele>6.078369</ele>
        <time>2024-08-10T22:21:36.000Z</time>
      </trkpt>
      <trkpt lat="51.457463" lon="0.234624">
        <ele>6.079562</ele>
        <time>2024-08-10T22:21:36.000Z</time>
      </trkpt>
      <trkpt lat="51.457459" lon="0.23463">
        <ele>6.081651</ele>
        <time>2024-08-10T22:21:36.000Z</time>
      </trkpt>
      <trkpt lat="51.456906" lon="0.236939">
        <ele>7.11651</ele>
        <time>2024-08-10T22:21:53.000Z</time>
      </trkpt>
      <trkpt lat="51.456912" lon="0.236972">
        <ele>7.130073</ele>
        <time>2024-08-10T22:21:53.000Z</time>
      </trkpt>
      <trkpt lat="51.456911" lon="0.236981">
        <ele>7.131514</ele>
        <time>2024-08-10T22:21:53.000Z</time>
      </trkpt>
      <trkpt lat="51.456909" lon="0.236982">
        <ele>7.132589</ele>
        <time>2024-08-10T22:21:53.000Z</time>
      </trkpt>
      <trkpt lat="51.4569" lon="0.23697">
        <ele>7.133431</ele>
        <time>2024-08-10T22:21:53.000Z</time>
      </trkpt>
      <trkpt lat="51.456895" lon="0.23697">
        <ele>7.134503</ele>
        <time>2024-08-10T22:21:53.000Z</time>
      </trkpt>
      <trkpt lat="51.456893" lon="0.236984">
        <ele>7.135583</ele>
        <time>2024-08-10T22:21:53.000Z</time>
      </trkpt>
      <trkpt lat="51.456891" lon="0.23698">
        <ele>7.137397</ele>
        <time>2024-08-10T22:21:53.000Z</time>
      </trkpt>
      <trkpt lat="51.456895" lon="0.236988">
        <ele>7.138185</ele>
        <time>2024-08-10T22:21:53.000Z</time>
      </trkpt>
      <trkpt lat="51.456893" lon="0.236978">
        <ele>7.139044</ele>
        <time>2024-08-10T22:21:53.000Z</time>
      </trkpt>
      <trkpt lat="51.456902" lon="0.236985">
        <ele>7.140104</ele>
        <time>2024-08-10T22:21:53.000Z</time>
      </trkpt>
      <trkpt lat="51.456549" lon="0.237947">
        <ele>7.6602</ele>
        <time>2024-08-10T22:22:01.000Z</time>
      </trkpt>
      <trkpt lat="51.456553" lon="0.237975">
        <ele>7.67646</ele>
        <time>2024-08-10T22:22:01.000Z</time>
      </trkpt>
      <trkpt lat="51.456541" lon="0.237967">
        <ele>7.679524</ele>
        <time>2024-08-10T22:22:01.000Z</time>
      </trkpt>
      <trkpt lat="51.456546" lon="0.237974">
        <ele>7.680501</ele>
        <time>2024-08-10T22:22:01.000Z</time>
      </trkpt>
      <trkpt lat="51.456541" lon="0.237986">
        <ele>7.682256</ele>
        <time>2024-08-10T22:22:01.000Z</time>
      </trkpt>
      <trkpt lat="51.456532" lon="0.23798">
        <ele>7.683585</ele>
        <time>2024-08-10T22:22:01.000Z</time>
      </trkpt>
      <trkpt lat="51.456543" lon="0.237973">
        <ele>7.68552</ele>
        <time>2024-08-10T22:22:01.000Z</time>
      </trkpt>
      <trkpt lat="51.456542" lon="0.237986">
        <ele>7.686842</ele>
        <time>2024-08-10T22:22:01.000Z</time>
      </trkpt>
      <trkpt lat="51.456529" lon="0.237993">
        <ele>7.688611</ele>
        <time>2024-08-10T22:22:01.000Z</time>
      </trkpt>
      <trkpt lat="51.456536" lon="0.237999">
        <ele>7.691249</ele>
        <time>2024-08-10T22:22:01.000Z</time>
      </trkpt>
      <trkpt lat="51.456539" lon="0.237993">
        <ele>7.693006</ele>
        <time>2024-08-10T22:22:01.000Z</time>
      </trkpt>
      <trkpt lat="51.456537" lon="0.238002">
        <ele>7.693965</ele>
        <time>2024-08-10T22:22:01.000Z</time>
      </trkpt>
      <trkpt lat="51.456523" lon="0.237989">
        <ele>7.695298</ele>
        <time>2024-08-10T22:22:01.000Z</time>
      </trkpt>
      <trkpt lat="51.456537" lon="0.238007">
        <ele>7.697052</ele>
        <time>2024-08-10T22:22:01.000Z</time>
      </trkpt>
      <trkpt lat="51.456086" lon="0.23892">
        <ele>8.299576</ele>
        <time>2024-08-10T22:22:09.000Z</time>
      </trkpt>
      <trkpt lat="51.455854" lon="0.239299">
        <ele>8.56904</ele>
        <time>2024-08-10T22:22:13.000Z</time>
      </trkpt>
      <trkpt lat="51.455845" lon="0.239293">
        <ele>8.571312</ele>
        <time>2024-08-10T22:22:13.000Z</time>
      </trkpt>
      <trkpt lat="51.455845" lon="0.239294">
        <ele>8.573271</ele>
        <time>2024-08-10T22:22:13.000Z</time>
      </trkpt>
      <trkpt lat="51.455846" lon="0.239303">
        <ele>8.575021</ele>
        <time>2024-08-10T22:22:13.000Z</time>
      </trkpt>
      <trkpt lat="51.455846" lon="0.239303">
        <ele>8.575992</ele>
        <time>2024-08-10T22:22:13.000Z</time>
      </trkpt>
      <trkpt lat="51.455857" lon="0.239306">
        <ele>8.576968</ele>
        <time>2024-08-10T22:22:13.000Z</time>
      </trkpt>
      <trkpt lat="51.455842" lon="0.239303">
        <ele>8.57828</ele>
        <time>2024-08-10T22:22:13.000Z</time>
      </trkpt>
      <trkpt lat="51.455856" lon="0.239309">
        <ele>8.579615</ele>
        <time>2024-08-10T22:22:13.000Z</time>
      </trkpt>
      <trkpt lat="51.455848" lon="0.239321">
        <ele>8.580583</ele>
        <time>2024-08-10T22:22:13.000Z</time>
      </trkpt>
      <trkpt lat="51.455852" lon="0.239324">
        <ele>8.581904</ele>
        <time>2024-08-10T22:22:13.000Z</time>
      </trkpt>
      <trkpt lat="51.455779" lon="0.239442">
        <ele>8.670604</ele>
        <time>2024-08-10T22:22:14.000Z</time>
      </trkpt>
      <trkpt lat="51.45513" lon="0.240239">
        <ele>8.954969</ele>
        <time>2024-08-10T22:22:23.000Z</time>
      </trkpt>
      <trkpt lat="51.455118" lon="0.240236">
        <ele>8.955708</ele>
        <time>2024-08-10T22:22:23.000Z</time>
      </trkpt>
      <trkpt lat="51.455112" lon="0.24025">
        <ele>8.955934</ele>
        <time>2024-08-10T22:22:23.000Z</time>
      </trkpt>
      <trkpt lat="51.455112" lon="0.240241">
        <ele>8.95616</ele>
        <time>2024-08-10T22:22:23.000Z</time>
      </trkpt>
      <trkpt lat="51.455109" lon="0.240247">
        <ele>8.956389</ele>
        <time>2024-08-10T22:22:23.000Z</time>
      </trkpt>
      <trkpt lat="51.455113" lon="0.240235">
        <ele>8.956617</ele>
        <time>2024-08-10T22:22:23.000Z</time>
      </trkpt>
      <trkpt lat="51.455122" lon="0.240252">
        <ele>8.956839</ele>
        <time>2024-08-10T22:22:23.000Z</time>
      </trkpt>
      <trkpt lat="51.455112" lon="0.240241">
        <ele>8.957373</ele>
        <time>2024-08-10T22:22:23.000Z</time>
      </trkpt>
      <trkpt lat="51.455121" lon="0.240256">
        <ele>8.957599</ele>
        <time>2024-08-10T22:22:23.000Z</time>
      </trkpt>
      <trkpt lat="51.455112" lon="0.240251">
        <ele>8.9579</ele>
        <time>2024-08-10T22:22:23.000Z</time>
      </trkpt>
      <trkpt lat="51.455117" lon="0.240256">
        <ele>8.95836</ele>
        <time>2024-08-10T22:22:23.000Z</time>
      </trkpt>
      <trkpt lat="51.455114" lon="0.240254">
        <ele>8.958883</ele>
        <time>2024-08-10T22:22:23.000Z</time>
      </trkpt>
      <trkpt lat="51.45511" lon="0.240258">
        <ele>8.95933</ele>
        <time>2024-08-10T22:22:23.000Z</time>
      </trkpt>
      <trkpt lat="51.455102" lon="0.240256">
        <ele>8.959555</ele>
        <time>2024-08-10T22:22:23.000Z</time>
      </trkpt>
      <trkpt lat="51.455083" lon="0.240289">
        <ele>8.965102</ele>
        <time>2024-08-10T22:22:23.000Z</time>
      </trkpt>
      <trkpt lat="51.454681" lon="0.24062">
        <ele>9.050643</ele>
        <time>2024-08-10T22:22:28.000Z</time>
      </trkpt>
      <trkpt lat="51.454612" lon="0.24068">
        <ele>9.067556</ele>
        <time>2024-08-10T22:22:29.000Z</time>
      </trkpt>
      <trkpt lat="51.454609" lon="0.240693">
        <ele>9.067968</ele>
        <time>2024-08-10T22:22:29.000Z</time>
      </trkpt>
      <trkpt lat="51.454596" lon="0.240684">
        <ele>9.068416</ele>
        <time>2024-08-10T22:22:29.000Z</time>
      </trkpt>
      <trkpt lat="51.454603" lon="0.240682">
        <ele>9.068649</ele>
        <time>2024-08-10T22:22:29.000Z</time>
      </trkpt>
      <trkpt lat="51.454599" lon="0.240687">
        <ele>9.068646</ele>
        <time>2024-08-10T22:22:29.000Z</time>
      </trkpt>
      <trkpt lat="51.454612" lon="0.240687">
        <ele>9.068641</ele>
        <time>2024-08-10T22:22:29.000Z</time>
      </trkpt>
      <trkpt lat="51.455119" lon="0.240248">
        <ele>9.179553</ele>
        <time>2024-08-10T22:22:35.000Z</time>
      </trkpt>
      <trkpt lat="51.455115" lon="0.240241">
        <ele>9.17956</ele>
        <time>2024-08-10T22:22:35.000Z</time>
      </trkpt>
      <trkpt lat="51.455478" lon="0.239785">
        <ele>8.870487</ele>
        <time>2024-08-10T22:22:40.000Z</time>
      </trkpt>
      <trkpt lat="51.45585" lon="0.239301">
        <ele>8.549554</ele>
        <time>2024-08-10T22:22:45.000Z</time>
      </trkpt>
      <trkpt lat="51.455847" lon="0.239308">
        <ele>8.549549</ele>
        <time>2024-08-10T22:22:45.000Z</time>
      </trkpt>
      <trkpt lat="51.45619" lon="0.238641">
        <ele>8.185141</ele>
        <time>2024-08-10T22:22:51.000Z</time>
      </trkpt>
      <trkpt lat="51.456534" lon="0.237973">
        <ele>7.820832</ele>
        <time>2024-08-10T22:22:57.000Z</time>
      </trkpt>
      <trkpt lat="51.45655" lon="0.237985">
        <ele>7.820844</ele>
        <time>2024-08-10T22:22:57.000Z</time>
      </trkpt>
      <trkpt lat="51.456894" lon="0.236979">
        <ele>7.336672</ele>
        <time>2024-08-10T22:23:05.000Z</time>
      </trkpt>
      <trkpt lat="51.456901" lon="0.236984">
        <ele>7.336669</ele>
        <time>2024-08-10T22:23:05.000Z</time>
      </trkpt>
      <trkpt lat="51.457194" lon="0.235789">
        <ele>6.802751</ele>
        <time>2024-08-10T22:23:14.000Z</time>
      </trkpt>
      <trkpt lat="51.457482" lon="0.234614">
        <ele>6.306309</ele>
        <time>2024-08-10T22:23:23.000Z</time>
      </trkpt>
      <trkpt lat="51.457476" lon="0.234606">
        <ele>6.306302</ele>
        <time>2024-08-10T22:23:23.000Z</time>
      </trkpt>
      <trkpt lat="51.45783" lon="0.233602">
        <ele>5.860189</ele>
        <time>2024-08-10T22:23:31.000Z</time>
      </trkpt>
      <trkpt lat="51.458183" lon="0.232599">
        <ele>5.567825</ele>
        <time>2024-08-10T22:23:39.000Z</time>
      </trkpt>
      <trkpt lat="51.458165" lon="0.232607">
        <ele>5.567826</ele>
        <time>2024-08-10T22:23:39.000Z</time>
      </trkpt>
      <trkpt lat="51.45869" lon="0.231653">
        <ele>5.425498</ele>
        <time>2024-08-10T22:23:48.000Z</time>
      </trkpt>
      <trkpt lat="51.458705" lon="0.231656">
        <ele>5.425503</ele>
        <time>2024-08-10T22:23:48.000Z</time>
      </trkpt>
      <trkpt lat="51.459105" lon="0.231214">
        <ele>5.335838</ele>
        <time>2024-08-10T22:23:53.000Z</time>
      </trkpt>
      <trkpt lat="51.459112" lon="0.231214">
        <ele>5.33585</ele>
        <time>2024-08-10T22:23:53.000Z</time>
      </trkpt>
      <trkpt lat="51.459111" lon="0.231222">
        <ele>5.335851</ele>
        <time>2024-08-10T22:23:53.000Z</time>
      </trkpt>
      <trkpt lat="51.459152" lon="0.23062">
        <ele>5.376865</ele>
        <time>2024-08-10T22:23:57.000Z</time>
      </trkpt>
      <trkpt lat="51.459153" lon="0.230613">
        <ele>5.376867</ele>
        <time>2024-08-10T22:23:57.000Z</time>
      </trkpt>
      <trkpt lat="51.459159" lon="0.23061">
        <ele>5.376872</ele>
        <time>2024-08-10T22:23:57.000Z</time>
      </trkpt>
      <trkpt lat="51.459277" lon="0.229849">
        <ele>5.545985</ele>
        <time>2024-08-10T22:24:02.000Z</time>
      </trkpt>
      <trkpt lat="51.4594" lon="0.229063">
        <ele>5.71509</ele>
        <time>2024-08-10T22:24:08.000Z</time>
      </trkpt>
      <trkpt lat="51.459395" lon="0.229063">
        <ele>5.715091</ele>
        <time>2024-08-10T22:24:08.000Z</time>
      </trkpt>
      <trkpt lat="51.459396" lon="0.229063">
        <ele>5.715097</ele>
        <time>2024-08-10T22:24:08.000Z</time>
      </trkpt>
      <trkpt lat="51.459455" lon="0.228157">
        <ele>5.906973</ele>
        <time>2024-08-10T22:24:14.000Z</time>
      </trkpt>
      <trkpt lat="51.459503" lon="0.227256">
        <ele>6.017032</ele>
        <time>2024-08-10T22:24:20.000Z</time>
      </trkpt>
      <trkpt lat="51.459505" lon="0.227263">
        <ele>6.017029</ele>
        <time>2024-08-10T22:24:20.000Z</time>
      </trkpt>
      <trkpt lat="51.459474" lon="0.226073">
        <ele>6.155062</ele>
        <time>2024-08-10T22:24:28.000Z</time>
      </trkpt>
      <trkpt lat="51.459457" lon="0.22489">
        <ele>6.258901</ele>
        <time>2024-08-10T22:24:36.000Z</time>
      </trkpt>
      <trkpt lat="51.459445" lon="0.223708">
        <ele>6.278004</ele>
        <time>2024-08-10T22:24:44.000Z</time>
      </trkpt>
      <trkpt lat="51.459433" lon="0.223705">
        <ele>6.277997</ele>
        <time>2024-08-10T22:24:44.000Z</time>
      </trkpt>
      <trkpt lat="51.459386" lon="0.222645">
        <ele>6.295144</ele>
        <time>2024-08-10T22:24:51.000Z</time>
      </trkpt>
      <trkpt lat="51.459353" lon="0.221585">
        <ele>6.311944</ele>
        <time>2024-08-10T22:24:58.000Z</time>
      </trkpt>
      <trkpt lat="51.459301" lon="0.220534">
        <ele>6.328582</ele>
        <time>2024-08-10T22:25:05.000Z</time>
      </trkpt>
      <trkpt lat="51.459297" lon="0.220528">
        <ele>6.328637</ele>
        <time>2024-08-10T22:25:05.000Z</time>
      </trkpt>
      <trkpt lat="51.45929" lon="0.22054">
        <ele>6.328683</ele>
        <time>2024-08-10T22:25:05.000Z</time>
      </trkpt>
      <trkpt lat="51.45931" lon="0.22124">
        <ele>6.339559</ele>
        <time>2024-08-10T22:25:10.000Z</time>
      </trkpt>
      <trkpt lat="51.459449" lon="0.223723">
        <ele>6.47188</ele>
        <time>2024-08-10T22:25:27.000Z</time>
      </trkpt>
      <trkpt lat="51.459502" lon="0.227297">
        <ele>6.452083</ele>
        <time>2024-08-10T22:25:52.000Z</time>
      </trkpt>
      <trkpt lat="51.459471" lon="0.228223">
        <ele>6.093957</ele>
        <time>2024-08-10T22:25:58.000Z</time>
      </trkpt>
      <trkpt lat="51.459368" lon="0.229418">
        <ele>5.608787</ele>
        <time>2024-08-10T22:26:06.000Z</time>
      </trkpt>
      <trkpt lat="51.459306" lon="0.229788">
        <ele>5.452151</ele>
        <time>2024-08-10T22:26:09.000Z</time>
      </trkpt>
      <trkpt lat="51.459176" lon="0.230441">
        <ele>5.244923</ele>
        <time>2024-08-10T22:26:14.000Z</time>
      </trkpt>
      <trkpt lat="51.459139" lon="0.23071">
        <ele>5.210122</ele>
        <time>2024-08-10T22:26:16.000Z</time>
      </trkpt>
      <trkpt lat="51.459132" lon="0.230965">
        <ele>5.178457</ele>
        <time>2024-08-10T22:26:18.000Z</time>
      </trkpt>
      <trkpt lat="51.459127" lon="0.231015">
        <ele>5.174091</ele>
        <time>2024-08-10T22:26:18.000Z</time>
      </trkpt>
      <trkpt lat="51.459214" lon="0.231123">
        <ele>5.152113</ele>
        <time>2024-08-10T22:26:19.000Z</time>
      </trkpt>
      <trkpt lat="51.459475" lon="0.231343">
        <ele>5.094434</ele>
        <time>2024-08-10T22:26:22.000Z</time>
      </trkpt>
      <trkpt lat="51.459784" lon="0.231798">
        <ele>5.011475</ele>
        <time>2024-08-10T22:26:27.000Z</time>
      </trkpt>
      <trkpt lat="51.460009" lon="0.231907">
        <ele>4.964291</ele>
        <time>2024-08-10T22:26:30.000Z</time>
      </trkpt>
      <trkpt lat="51.460128" lon="0.231876">
        <ele>4.941467</ele>
        <time>2024-08-10T22:26:31.000Z</time>
      </trkpt>
      <trkpt lat="51.4602" lon="0.231821">
        <ele>4.925827</ele>
        <time>2024-08-10T22:26:32.000Z</time>
      </trkpt>
      <trkpt lat="51.460212" lon="0.231755">
        <ele>4.928465</ele>
        <time>2024-08-10T22:26:32.000Z</time>
      </trkpt>
      <trkpt lat="51.460262" lon="0.231698">
        <ele>4.953434</ele>
        <time>2024-08-10T22:26:33.000Z</time>
      </trkpt>
      <trkpt lat="51.460308" lon="0.231673">
        <ele>4.985421</ele>
        <time>2024-08-10T22:26:34.000Z</time>
      </trkpt>
      <trkpt lat="51.460369" lon="0.231679">
        <ele>5.016714</ele>
        <time>2024-08-10T22:26:35.000Z</time>
      </trkpt>
      <trkpt lat="51.460418" lon="0.231705">
        <ele>5.041497</ele>
        <time>2024-08-10T22:26:36.000Z</time>
      </trkpt>
      <trkpt lat="51.460453" lon="0.231761">
        <ele>5.06591</ele>
        <time>2024-08-10T22:26:37.000Z</time>
      </trkpt>
      <trkpt lat="51.460554" lon="0.2318">
        <ele>5.119514</ele>
        <time>2024-08-10T22:26:38.000Z</time>
      </trkpt>
      <trkpt lat="51.460662" lon="0.23186">
        <ele>5.176023</ele>
        <time>2024-08-10T22:26:39.000Z</time>
      </trkpt>
      <trkpt lat="51.460771" lon="0.231888">
        <ele>5.242317</ele>
        <time>2024-08-10T22:26:40.000Z</time>
      </trkpt>
      <trkpt lat="51.461348" lon="0.231961">
        <ele>5.537897</ele>
        <time>2024-08-10T22:26:46.000Z</time>
      </trkpt>
      <trkpt lat="51.461411" lon="0.231965">
        <ele>5.57587</ele>
        <time>2024-08-10T22:26:47.000Z</time>
      </trkpt>
      <trkpt lat="51.461467" lon="0.231838">
        <ele>5.622612</ele>
        <time>2024-08-10T22:26:48.000Z</time>
      </trkpt>
      <trkpt lat="51.461531" lon="0.231594">
        <ele>5.705203</ele>
        <time>2024-08-10T22:26:50.000Z</time>
      </trkpt>
      <trkpt lat="51.461583" lon="0.231353">
        <ele>5.791063</ele>
        <time>2024-08-10T22:26:52.000Z</time>
      </trkpt>
      <trkpt lat="51.461603" lon="0.23113">
        <ele>5.8618</ele>
        <time>2024-08-10T22:26:54.000Z</time>
      </trkpt>
      <trkpt lat="51.461677" lon="0.23051">
        <ele>6.136391</ele>
        <time>2024-08-10T22:26:58.000Z</time>
      </trkpt>
      <trkpt lat="51.46185" lon="0.22691">
        <ele>7.433208</ele>
        <time>2024-08-10T22:27:23.000Z</time>
      </trkpt>
      <trkpt lat="51.461864" lon="0.226717">
        <ele>7.478554</ele>
        <time>2024-08-10T22:27:24.000Z</time>
      </trkpt>
      <trkpt lat="51.461845" lon="0.226356">
        <ele>7.569291</ele>
        <time>2024-08-10T22:27:27.000Z</time>
      </trkpt>
      <trkpt lat="51.461825" lon="0.22621">
        <ele>7.608992</ele>
        <time>2024-08-10T22:27:28.000Z</time>
      </trkpt>
      <trkpt lat="51.460978" lon="0.224085">
        <ele>7.713651</ele>
        <time>2024-08-10T22:27:45.000Z</time>
      </trkpt>
      <trkpt lat="51.460791" lon="0.223753">
        <ele>7.689258</ele>
        <time>2024-08-10T22:27:48.000Z</time>
      </trkpt>
      <trkpt lat="51.460524" lon="0.223447">
        <ele>7.659517</ele>
        <time>2024-08-10T22:27:52.000Z</time>
      </trkpt>
      <trkpt lat="51.460501" lon="0.223417">
        <ele>7.656638</ele>
        <time>2024-08-10T22:27:52.000Z</time>
      </trkpt>
      <trkpt lat="51.460501" lon="0.223413">
        <ele>7.655715</ele>
        <time>2024-08-10T22:27:52.000Z</time>
      </trkpt>
      <trkpt lat="51.460502" lon="0.223413">
        <ele>7.655722</ele>
        <time>2024-08-10T22:27:52.000Z</time>
      </trkpt>
      <trkpt lat="51.4605" lon="0.223414">
        <ele>7.655714</ele>
        <time>2024-08-10T22:27:52.000Z</time>
      </trkpt>
      <trkpt lat="51.460505" lon="0.223407">
        <ele>7.654799</ele>
        <time>2024-08-10T22:27:52.000Z</time>
      </trkpt>
      <trkpt lat="51.460539" lon="0.223442">
        <ele>7.651914</ele>
        <time>2024-08-10T22:27:52.000Z</time>
      </trkpt>
      <trkpt lat="51.4608" lon="0.223764">
        <ele>7.672861</ele>
        <time>2024-08-10T22:27:56.000Z</time>
      </trkpt>
      <trkpt lat="51.460974" lon="0.224079">
        <ele>7.6963</ele>
        <time>2024-08-10T22:27:59.000Z</time>
      </trkpt>
      <trkpt lat="51.461815" lon="0.226208">
        <ele>7.641669</ele>
        <time>2024-08-10T22:28:16.000Z</time>
      </trkpt>
      <trkpt lat="51.461846" lon="0.226371">
        <ele>7.593104</ele>
        <time>2024-08-10T22:28:17.000Z</time>
      </trkpt>
      <trkpt lat="51.461869" lon="0.226718">
        <ele>7.482124</ele>
        <time>2024-08-10T22:28:19.000Z</time>
      </trkpt>
      <trkpt lat="51.461861" lon="0.226897">
        <ele>7.426662</ele>
        <time>2024-08-10T22:28:20.000Z</time>
      </trkpt>
      <trkpt lat="51.461666" lon="0.230497">
        <ele>6.136072</ele>
        <time>2024-08-10T22:28:45.000Z</time>
      </trkpt>
      <trkpt lat="51.461601" lon="0.231146">
        <ele>5.877963</ele>
        <time>2024-08-10T22:28:50.000Z</time>
      </trkpt>
      <trkpt lat="51.461577" lon="0.23134">
        <ele>5.792357</ele>
        <time>2024-08-10T22:28:51.000Z</time>
      </trkpt>
      <trkpt lat="51.461516" lon="0.231592">
        <ele>5.738411</ele>
        <time>2024-08-10T22:28:53.000Z</time>
      </trkpt>
      <trkpt lat="51.46145" lon="0.231834">
        <ele>5.70707</ele>
        <time>2024-08-10T22:28:55.000Z</time>
      </trkpt>
      <trkpt lat="51.461425" lon="0.231964">
        <ele>5.689351</ele>
        <time>2024-08-10T22:28:56.000Z</time>
      </trkpt>
      <trkpt lat="51.461393" lon="0.232053">
        <ele>5.67511</ele>
        <time>2024-08-10T22:28:57.000Z</time>
      </trkpt>
      <trkpt lat="51.461323" lon="0.232257">
        <ele>5.648809</ele>
        <time>2024-08-10T22:28:59.000Z</time>
      </trkpt>
      <trkpt lat="51.461256" lon="0.232397">
        <ele>5.626576</ele>
        <time>2024-08-10T22:29:00.000Z</time>
      </trkpt>
      <trkpt lat="51.460678" lon="0.233729">
        <ele>5.426923</ele>
        <time>2024-08-10T22:29:11.000Z</time>
      </trkpt>
      <trkpt lat="51.460339" lon="0.235048">
        <ele>5.081166</ele>
        <time>2024-08-10T22:29:21.000Z</time>
      </trkpt>
      <trkpt lat="51.460321" lon="0.235217">
        <ele>5.03498</ele>
        <time>2024-08-10T22:29:22.000Z</time>
      </trkpt>
      <trkpt lat="51.460285" lon="0.235748">
        <ele>4.898531</ele>
        <time>2024-08-10T22:29:26.000Z</time>
      </trkpt>
      <trkpt lat="51.460275" lon="0.235746">
        <ele>4.897509</ele>
        <time>2024-08-10T22:29:26.000Z</time>
      </trkpt>
      <trkpt lat="51.460247" lon="0.236068">
        <ele>4.813818</ele>
        <time>2024-08-10T22:29:28.000Z</time>
      </trkpt>
      <trkpt lat="51.460258" lon="0.237589">
        <ele>4.451975</ele>
        <time>2024-08-10T22:29:39.000Z</time>
      </trkpt>
      <trkpt lat="51.460201" lon="0.238161">
        <ele>4.320894</ele>
        <time>2024-08-10T22:29:43.000Z</time>
      </trkpt>
      <trkpt lat="51.46011" lon="0.238629">
        <ele>4.208977</ele>
        <time>2024-08-10T22:29:46.000Z</time>
      </trkpt>
      <trkpt lat="51.460093" lon="0.238693">
        <ele>4.195704</ele>
        <time>2024-08-10T22:29:46.000Z</time>
      </trkpt>
      <trkpt lat="51.460043" lon="0.238855">
        <ele>4.156374</ele>
        <time>2024-08-10T22:29:47.000Z</time>
      </trkpt>
      <trkpt lat="51.459596" lon="0.240147">
        <ele>4.023718</ele>
        <time>2024-08-10T22:29:57.000Z</time>
      </trkpt>
      <trkpt lat="51.459302" lon="0.240727">
        <ele>4.034986</ele>
        <time>2024-08-10T22:30:02.000Z</time>
      </trkpt>
      <trkpt lat="51.458599" lon="0.241571">
        <ele>4.052623</ele>
        <time>2024-08-10T22:30:12.000Z</time>
      </trkpt>
      <trkpt lat="51.458552" lon="0.241598">
        <ele>4.051059</ele>
        <time>2024-08-10T22:30:13.000Z</time>
      </trkpt>
      <trkpt lat="51.458565" lon="0.24161">
        <ele>4.05099</ele>
        <time>2024-08-10T22:30:13.000Z</time>
      </trkpt>
      <trkpt lat="51.458545" lon="0.241615">
        <ele>4.050931</ele>
        <time>2024-08-10T22:30:13.000Z</time>
      </trkpt>
      <trkpt lat="51.458555" lon="0.241613">
        <ele>4.05085</ele>
        <time>2024-08-10T22:30:13.000Z</time>
      </trkpt>
      <trkpt lat="51.458555" lon="0.241611">
        <ele>4.050828</ele>
        <time>2024-08-10T22:30:13.000Z</time>
      </trkpt>
      <trkpt lat="51.458557" lon="0.241605">
        <ele>4.050796</ele>
        <time>2024-08-10T22:30:13.000Z</time>
      </trkpt>
      <trkpt lat="51.458552" lon="0.241614">
        <ele>4.050713</ele>
        <time>2024-08-10T22:30:13.000Z</time>
      </trkpt>
      <trkpt lat="51.458551" lon="0.241606">
        <ele>4.050649</ele>
        <time>2024-08-10T22:30:13.000Z</time>
      </trkpt>
      <trkpt lat="51.458565" lon="0.241602">
        <ele>4.050594</ele>
        <time>2024-08-10T22:30:13.000Z</time>
      </trkpt>
      <trkpt lat="51.458612" lon="0.241557">
        <ele>4.049032</ele>
        <time>2024-08-10T22:30:14.000Z</time>
      </trkpt>
      <trkpt lat="51.459315" lon="0.240735">
        <ele>4.023347</ele>
        <time>2024-08-10T22:30:24.000Z</time>
      </trkpt>
      <trkpt lat="51.459608" lon="0.240153">
        <ele>4.009672</ele>
        <time>2024-08-10T22:30:29.000Z</time>
      </trkpt>
      <trkpt lat="51.460057" lon="0.238847">
        <ele>4.187738</ele>
        <time>2024-08-10T22:30:39.000Z</time>
      </trkpt>
      <trkpt lat="51.460097" lon="0.23869">
        <ele>4.218713</ele>
        <time>2024-08-10T22:30:40.000Z</time>
      </trkpt>
      <trkpt lat="51.460111" lon="0.238633">
        <ele>4.229153</ele>
        <time>2024-08-10T22:30:40.000Z</time>
      </trkpt>
      <trkpt lat="51.460208" lon="0.238163">
        <ele>4.317272</ele>
        <time>2024-08-10T22:30:43.000Z</time>
      </trkpt>
      <trkpt lat="51.460251" lon="0.237584">
        <ele>4.420479</ele>
        <time>2024-08-10T22:30:47.000Z</time>
      </trkpt>
      <trkpt lat="51.460258" lon="0.236062">
        <ele>4.807224</ele>
        <time>2024-08-10T22:30:58.000Z</time>
      </trkpt>
      <trkpt lat="51.460268" lon="0.235748">
        <ele>4.902296</ele>
        <time>2024-08-10T22:31:00.000Z</time>
      </trkpt>
      <trkpt lat="51.46028" lon="0.235731">
        <ele>4.903477</ele>
        <time>2024-08-10T22:31:00.000Z</time>
      </trkpt>
      <trkpt lat="51.460325" lon="0.235216">
        <ele>5.058483</ele>
        <time>2024-08-10T22:31:04.000Z</time>
      </trkpt>
      <trkpt lat="51.460349" lon="0.235042">
        <ele>5.110952</ele>
        <time>2024-08-10T22:31:05.000Z</time>
      </trkpt>
      <trkpt lat="51.460685" lon="0.233737">
        <ele>5.371951</ele>
        <time>2024-08-10T22:31:15.000Z</time>
      </trkpt>
      <trkpt lat="51.461258" lon="0.232404">
        <ele>5.401825</ele>
        <time>2024-08-10T22:31:26.000Z</time>
      </trkpt>
      <trkpt lat="51.461322" lon="0.23225">
        <ele>5.405151</ele>
        <time>2024-08-10T22:31:27.000Z</time>
      </trkpt>
      <trkpt lat="51.461395" lon="0.23206">
        <ele>5.409085</ele>
        <time>2024-08-10T22:31:29.000Z</time>
      </trkpt>
      <trkpt lat="51.461413" lon="0.231961">
        <ele>5.411205</ele>
        <time>2024-08-10T22:31:30.000Z</time>
      </trkpt>
      <trkpt lat="51.4614" lon="0.23195">
        <ele>5.412061</ele>
        <time>2024-08-10T22:31:30.000Z</time>
      </trkpt>
      <trkpt lat="51.461381" lon="0.231956">
        <ele>5.412132</ele>
        <time>2024-08-10T22:31:30.000Z</time>
      </trkpt>
      <trkpt lat="51.461381" lon="0.231956">
        <ele>5.412178</ele>
        <time>2024-08-10T22:31:30.000Z</time>
      </trkpt>
      <trkpt lat="51.461395" lon="0.231964">
        <ele>5.412219</ele>
        <time>2024-08-10T22:31:30.000Z</time>
      </trkpt>
      <trkpt lat="51.461393" lon="0.231968">
        <ele>5.412281</ele>
        <time>2024-08-10T22:31:30.000Z</time>
      </trkpt>
      <trkpt lat="51.461387" lon="0.231958">
        <ele>5.412301</ele>
        <time>2024-08-10T22:31:30.000Z</time>
      </trkpt>
      <trkpt lat="51.461381" lon="0.231952">
        <ele>5.412368</ele>
        <time>2024-08-10T22:31:30.000Z</time>
      </trkpt>
      <trkpt lat="51.461338" lon="0.231954">
        <ele>5.413357</ele>
        <time>2024-08-10T22:31:30.000Z</time>
      </trkpt>
      <trkpt lat="51.460782" lon="0.231885">
        <ele>5.221104</ele>
        <time>2024-08-10T22:31:36.000Z</time>
      </trkpt>
      <trkpt lat="51.460695" lon="0.231912">
        <ele>5.190995</ele>
        <time>2024-08-10T22:31:37.000Z</time>
      </trkpt>
      <trkpt lat="51.460637" lon="0.231914">
        <ele>5.170769</ele>
        <time>2024-08-10T22:31:38.000Z</time>
      </trkpt>
      <trkpt lat="51.460569" lon="0.231929">
        <ele>5.143858</ele>
        <time>2024-08-10T22:31:39.000Z</time>
      </trkpt>
      <trkpt lat="51.460481" lon="0.231983">
        <ele>5.105431</ele>
        <time>2024-08-10T22:31:40.000Z</time>
      </trkpt>
      <trkpt lat="51.460451" lon="0.232044">
        <ele>5.089896</ele>
        <time>2024-08-10T22:31:41.000Z</time>
      </trkpt>
      <trkpt lat="51.460379" lon="0.232129">
        <ele>5.059157</ele>
        <time>2024-08-10T22:31:42.000Z</time>
      </trkpt>
      <trkpt lat="51.460348" lon="0.232134">
        <ele>5.04375</ele>
        <time>2024-08-10T22:31:42.000Z</time>
      </trkpt>
      <trkpt lat="51.460296" lon="0.232139">
        <ele>5.029032</ele>
        <time>2024-08-10T22:31:43.000Z</time>
      </trkpt>
      <trkpt lat="51.460301" lon="0.232134">
        <ele>5.027926</ele>
        <time>2024-08-10T22:31:43.000Z</time>
      </trkpt>
      <trkpt lat="51.460307" lon="0.232124">
        <ele>5.026808</ele>
        <time>2024-08-10T22:31:43.000Z</time>
      </trkpt>
      <trkpt lat="51.460303" lon="0.232139">
        <ele>5.026443</ele>
        <time>2024-08-10T22:31:43.000Z</time>
      </trkpt>
      <trkpt lat="51.460292" lon="0.232132">
        <ele>5.02645</ele>
        <time>2024-08-10T22:31:43.000Z</time>
      </trkpt>
      <trkpt lat="51.460289" lon="0.232129">
        <ele>5.026014</ele>
        <time>2024-08-10T22:31:43.000Z</time>
      </trkpt>
      <trkpt lat="51.460287" lon="0.232124">
        <ele>5.025575</ele>
        <time>2024-08-10T22:31:43.000Z</time>
      </trkpt>
      <trkpt lat="51.460295" lon="0.232124">
        <ele>5.024822</ele>
        <time>2024-08-10T22:31:43.000Z</time>
      </trkpt>
      <trkpt lat="51.460253" lon="0.232097">
        <ele>5.009261</ele>
        <time>2024-08-10T22:31:44.000Z</time>
      </trkpt>
      <trkpt lat="51.460213" lon="0.232049">
        <ele>4.992075</ele>
        <time>2024-08-10T22:31:45.000Z</time>
      </trkpt>
      <trkpt lat="51.460144" lon="0.232044">
        <ele>4.967538</ele>
        <time>2024-08-10T22:31:46.000Z</time>
      </trkpt>
      <trkpt lat="51.459805" lon="0.23196">
        <ele>4.838984</ele>
        <time>2024-08-10T22:31:50.000Z</time>
      </trkpt>
      <trkpt lat="51.459457" lon="0.231511">
        <ele>4.798205</ele>
        <time>2024-08-10T22:31:55.000Z</time>
      </trkpt>
      <trkpt lat="51.459164" lon="0.231333">
        <ele>4.857727</ele>
        <time>2024-08-10T22:31:58.000Z</time>
      </trkpt>
      <trkpt lat="51.459063" lon="0.231323">
        <ele>4.879086</ele>
        <time>2024-08-10T22:31:59.000Z</time>
      </trkpt>
      <trkpt lat="51.459019" lon="0.23136">
        <ele>4.888563</ele>
        <time>2024-08-10T22:32:00.000Z</time>
      </trkpt>
      <trkpt lat="51.458963" lon="0.231385">
        <ele>4.897887</ele>
        <time>2024-08-10T22:32:01.000Z</time>
      </trkpt>
      <trkpt lat="51.45877" lon="0.231584">
        <ele>4.94406</ele>
        <time>2024-08-10T22:32:04.000Z</time>
      </trkpt>
      <trkpt lat="51.458723" lon="0.231633">
        <ele>4.955134</ele>
        <time>2024-08-10T22:32:05.000Z</time>
      </trkpt>
      <trkpt lat="51.458712" lon="0.231639">
        <ele>4.955817</ele>
        <time>2024-08-10T22:32:05.000Z</time>
      </trkpt>
      <trkpt lat="51.458704" lon="0.231627">
        <ele>4.956043</ele>
        <time>2024-08-10T22:32:05.000Z</time>
      </trkpt>
      <trkpt lat="51.458716" lon="0.231643">
        <ele>4.956502</ele>
        <time>2024-08-10T22:32:05.000Z</time>
      </trkpt>
      <trkpt lat="51.458705" lon="0.231643">
        <ele>4.956951</ele>
        <time>2024-08-10T22:32:05.000Z</time>
      </trkpt>
      <trkpt lat="51.458706" lon="0.231648">
        <ele>4.957179</ele>
        <time>2024-08-10T22:32:05.000Z</time>
      </trkpt>
      <trkpt lat="51.458699" lon="0.231643">
        <ele>4.957627</ele>
        <time>2024-08-10T22:32:05.000Z</time>
      </trkpt>
      <trkpt lat="51.45871" lon="0.231652">
        <ele>4.957946</ele>
        <time>2024-08-10T22:32:05.000Z</time>
      </trkpt>
      <trkpt lat="51.458707" lon="0.231636">
        <ele>4.957929</ele>
        <time>2024-08-10T22:32:05.000Z</time>
      </trkpt>
      <trkpt lat="51.45871" lon="0.231645">
        <ele>4.95816</ele>
        <time>2024-08-10T22:32:05.000Z</time>
      </trkpt>
      <trkpt lat="51.458702" lon="0.231646">
        <ele>4.958571</ele>
        <time>2024-08-10T22:32:05.000Z</time>
      </trkpt>
      <trkpt lat="51.458692" lon="0.231651">
        <ele>4.958872</ele>
        <time>2024-08-10T22:32:05.000Z</time>
      </trkpt>
      <trkpt lat="51.45869" lon="0.231643">
        <ele>4.959333</ele>
        <time>2024-08-10T22:32:05.000Z</time>
      </trkpt>
      <trkpt lat="51.458695" lon="0.231654">
        <ele>4.959638</ele>
        <time>2024-08-10T22:32:05.000Z</time>
      </trkpt>
      <trkpt lat="51.458179" lon="0.232572">
        <ele>5.120364</ele>
        <time>2024-08-10T22:32:14.000Z</time>
      </trkpt>
      <trkpt lat="51.458184" lon="0.232577">
        <ele>5.124464</ele>
        <time>2024-08-10T22:32:14.000Z</time>
      </trkpt>
      <trkpt lat="51.458188" lon="0.232594">
        <ele>5.126823</ele>
        <time>2024-08-10T22:32:14.000Z</time>
      </trkpt>
      <trkpt lat="51.45818" lon="0.232587">
        <ele>5.127629</ele>
        <time>2024-08-10T22:32:14.000Z</time>
      </trkpt>
      <trkpt lat="51.458175" lon="0.232589">
        <ele>5.128382</ele>
        <time>2024-08-10T22:32:14.000Z</time>
      </trkpt>
      <trkpt lat="51.458175" lon="0.232601">
        <ele>5.129744</ele>
        <time>2024-08-10T22:32:14.000Z</time>
      </trkpt>
      <trkpt lat="51.45817" lon="0.232596">
        <ele>5.130508</ele>
        <time>2024-08-10T22:32:14.000Z</time>
      </trkpt>
      <trkpt lat="51.458169" lon="0.23259">
        <ele>5.131265</ele>
        <time>2024-08-10T22:32:14.000Z</time>
      </trkpt>
      <trkpt lat="51.458176" lon="0.232591">
        <ele>5.132059</ele>
        <time>2024-08-10T22:32:14.000Z</time>
      </trkpt>
      <trkpt lat="51.458174" lon="0.232598">
        <ele>5.133074</ele>
        <time>2024-08-10T22:32:14.000Z</time>
      </trkpt>
      <trkpt lat="51.458175" lon="0.232606">
        <ele>5.134098</ele>
        <time>2024-08-10T22:32:14.000Z</time>
      </trkpt>
      <trkpt lat="51.458166" lon="0.232605">
        <ele>5.135128</ele>
        <time>2024-08-10T22:32:14.000Z</time>
      </trkpt>
      <trkpt lat="51.45817" lon="0.232607">
        <ele>5.135921</ele>
        <time>2024-08-10T22:32:14.000Z</time>
      </trkpt>
      <trkpt lat="51.45818" lon="0.232597">
        <ele>5.13695</ele>
        <time>2024-08-10T22:32:14.000Z</time>
      </trkpt>
      <trkpt lat="51.458182" lon="0.232612">
        <ele>5.137981</ele>
        <time>2024-08-10T22:32:14.000Z</time>
      </trkpt>
      <trkpt lat="51.458175" lon="0.232617">
        <ele>5.139004</ele>
        <time>2024-08-10T22:32:14.000Z</time>
      </trkpt>
      <trkpt lat="51.457783" lon="0.23362">
        <ele>5.613167</ele>
        <time>2024-08-10T22:32:22.000Z</time>
      </trkpt>
      <trkpt lat="51.457466" lon="0.234612">
        <ele>6.056942</ele>
        <time>2024-08-10T22:32:30.000Z</time>
      </trkpt>
      <trkpt lat="51.457479" lon="0.234603">
        <ele>6.05734</ele>
        <time>2024-08-10T22:32:30.000Z</time>
      </trkpt>
      <trkpt lat="51.457467" lon="0.234611">
        <ele>6.058091</ele>
        <time>2024-08-10T22:32:30.000Z</time>
      </trkpt>
      <trkpt lat="51.457473" lon="0.234622">
        <ele>6.058895</ele>
        <time>2024-08-10T22:32:30.000Z</time>
      </trkpt>
      <trkpt lat="51.457471" lon="0.23461">
        <ele>6.059691</ele>
        <time>2024-08-10T22:32:30.000Z</time>
      </trkpt>
      <trkpt lat="51.457467" lon="0.234625">
        <ele>6.060458</ele>
        <time>2024-08-10T22:32:30.000Z</time>
      </trkpt>
      <trkpt lat="51.457472" lon="0.234623">
        <ele>6.061242</ele>
        <time>2024-08-10T22:32:30.000Z</time>
      </trkpt>
      <trkpt lat="51.457462" lon="0.234617">
        <ele>6.062599</ele>
        <time>2024-08-10T22:32:30.000Z</time>
      </trkpt>
      <trkpt lat="51.457467" lon="0.234631">
        <ele>6.063405</ele>
        <time>2024-08-10T22:32:30.000Z</time>
      </trkpt>
      <trkpt lat="51.457478" lon="0.234619">
        <ele>6.064166</ele>
        <time>2024-08-10T22:32:30.000Z</time>
      </trkpt>
      <trkpt lat="51.457479" lon="0.234633">
        <ele>6.065371</ele>
        <time>2024-08-10T22:32:30.000Z</time>
      </trkpt>
      <trkpt lat="51.457467" lon="0.234639">
        <ele>6.066127</ele>
        <time>2024-08-10T22:32:30.000Z</time>
      </trkpt>
      <trkpt lat="51.457469" lon="0.234627">
        <ele>6.067311</ele>
        <time>2024-08-10T22:32:30.000Z</time>
      </trkpt>
      <trkpt lat="51.457471" lon="0.234643">
        <ele>6.069409</ele>
        <time>2024-08-10T22:32:30.000Z</time>
      </trkpt>
      <trkpt lat="51.456924" lon="0.236933">
        <ele>7.135192</ele>
        <time>2024-08-10T22:32:47.000Z</time>
      </trkpt>
      <trkpt lat="51.456911" lon="0.236977">
        <ele>7.149366</ele>
        <time>2024-08-10T22:32:47.000Z</time>
      </trkpt>
      <trkpt lat="51.456907" lon="0.236974">
        <ele>7.150877</ele>
        <time>2024-08-10T22:32:47.000Z</time>
      </trkpt>
      <trkpt lat="51.456898" lon="0.23698">
        <ele>7.151987</ele>
        <time>2024-08-10T22:32:47.000Z</time>
      </trkpt>
      <trkpt lat="51.4569" lon="0.236976">
        <ele>7.152874</ele>
        <time>2024-08-10T22:32:47.000Z</time>
      </trkpt>
      <trkpt lat="51.456895" lon="0.23698">
        <ele>7.153994</ele>
        <time>2024-08-10T22:32:47.000Z</time>
      </trkpt>
      <trkpt lat="51.456907" lon="0.236988">
        <ele>7.155127</ele>
        <time>2024-08-10T22:32:47.000Z</time>
      </trkpt>
      <trkpt lat="51.456908" lon="0.236992">
        <ele>7.157016</ele>
        <time>2024-08-10T22:32:47.000Z</time>
      </trkpt>
      <trkpt lat="51.456894" lon="0.236979">
        <ele>7.157855</ele>
        <time>2024-08-10T22:32:47.000Z</time>
      </trkpt>
      <trkpt lat="51.456898" lon="0.236991">
        <ele>7.158727</ele>
        <time>2024-08-10T22:32:47.000Z</time>
      </trkpt>
      <trkpt lat="51.456906" lon="0.236986">
        <ele>7.159862</ele>
        <time>2024-08-10T22:32:47.000Z</time>
      </trkpt>
      <trkpt lat="51.456557" lon="0.237952">
        <ele>7.659834</ele>
        <time>2024-08-10T22:32:55.000Z</time>
      </trkpt>
      <trkpt lat="51.456548" lon="0.237968">
        <ele>7.675577</ele>
        <time>2024-08-10T22:32:55.000Z</time>
      </trkpt>
      <trkpt lat="51.456536" lon="0.237972">
        <ele>7.678555</ele>
        <time>2024-08-10T22:32:55.000Z</time>
      </trkpt>
      <trkpt lat="51.456533" lon="0.237973">
        <ele>7.679492</ele>
        <time>2024-08-10T22:32:55.000Z</time>
      </trkpt>
      <trkpt lat="51.456533" lon="0.237973">
        <ele>7.681204</ele>
        <time>2024-08-10T22:32:55.000Z</time>
      </trkpt>
      <trkpt lat="51.456531" lon="0.237972">
        <ele>7.682476</ele>
        <time>2024-08-10T22:32:55.000Z</time>
      </trkpt>
      <trkpt lat="51.45654" lon="0.237988">
        <ele>7.684355</ele>
        <time>2024-08-10T22:32:55.000Z</time>
      </trkpt>
      <trkpt lat="51.456544" lon="0.237983">
        <ele>7.685652</ele>
        <time>2024-08-10T22:32:55.000Z</time>
      </trkpt>
      <trkpt lat="51.456537" lon="0.237988">
        <ele>7.68735</ele>
        <time>2024-08-10T22:32:55.000Z</time>
      </trkpt>
      <trkpt lat="51.456531" lon="0.237999">
        <ele>7.689909</ele>
        <time>2024-08-10T22:32:55.000Z</time>
      </trkpt>
      <trkpt lat="51.456535" lon="0.237992">
        <ele>7.691596</ele>
        <time>2024-08-10T22:32:55.000Z</time>
      </trkpt>
      <trkpt lat="51.456525" lon="0.237992">
        <ele>7.692541</ele>
        <time>2024-08-10T22:32:55.000Z</time>
      </trkpt>
      <trkpt lat="51.456532" lon="0.237995">
        <ele>7.693832</ele>
        <time>2024-08-10T22:32:55.000Z</time>
      </trkpt>
      <trkpt lat="51.456524" lon="0.238008">
        <ele>7.695531</ele>
        <time>2024-08-10T22:32:55.000Z</time>
      </trkpt>
      <trkpt lat="51.456092" lon="0.238927">
        <ele>8.279246</ele>
        <time>2024-08-10T22:33:03.000Z</time>
      </trkpt>
      <trkpt lat="51.455865" lon="0.23929">
        <ele>8.540305</ele>
        <time>2024-08-10T22:33:07.000Z</time>
      </trkpt>
      <trkpt lat="51.455863" lon="0.239294">
        <ele>8.542504</ele>
        <time>2024-08-10T22:33:07.000Z</time>
      </trkpt>
      <trkpt lat="51.455846" lon="0.239298">
        <ele>8.544394</ele>
        <time>2024-08-10T22:33:07.000Z</time>
      </trkpt>
      <trkpt lat="51.455845" lon="0.239301">
        <ele>8.546081</ele>
        <time>2024-08-10T22:33:07.000Z</time>
      </trkpt>
      <trkpt lat="51.455844" lon="0.23931">
        <ele>8.547026</ele>
        <time>2024-08-10T22:33:07.000Z</time>
      </trkpt>
      <trkpt lat="51.455842" lon="0.239312">
        <ele>8.547972</ele>
        <time>2024-08-10T22:33:07.000Z</time>
      </trkpt>
      <trkpt lat="51.455842" lon="0.239304">
        <ele>8.549258</ele>
        <time>2024-08-10T22:33:07.000Z</time>
      </trkpt>
      <trkpt lat="51.455845" lon="0.239319">
        <ele>8.550543</ele>
        <time>2024-08-10T22:33:07.000Z</time>
      </trkpt>
      <trkpt lat="51.455849" lon="0.239319">
        <ele>8.551478</ele>
        <time>2024-08-10T22:33:07.000Z</time>
      </trkpt>
      <trkpt lat="51.455852" lon="0.239306">
        <ele>8.552755</ele>
        <time>2024-08-10T22:33:07.000Z</time>
      </trkpt>
      <trkpt lat="51.45577" lon="0.239444">
        <ele>8.638697</ele>
        <time>2024-08-10T22:33:08.000Z</time>
      </trkpt>
      <trkpt lat="51.455119" lon="0.240234">
        <ele>8.992151</ele>
        <time>2024-08-10T22:33:17.000Z</time>
      </trkpt>
      <trkpt lat="51.455127" lon="0.240247">
        <ele>8.992402</ele>
        <time>2024-08-10T22:33:17.000Z</time>
      </trkpt>
      <trkpt lat="51.455115" lon="0.240238">
        <ele>8.992495</ele>
        <time>2024-08-10T22:33:17.000Z</time>
      </trkpt>
      <trkpt lat="51.455122" lon="0.240247">
        <ele>8.992571</ele>
        <time>2024-08-10T22:33:17.000Z</time>
      </trkpt>
      <trkpt lat="51.455121" lon="0.240242">
        <ele>8.992647</ele>
        <time>2024-08-10T22:33:17.000Z</time>
      </trkpt>
      <trkpt lat="51.455121" lon="0.240245">
        <ele>8.992733</ele>
        <time>2024-08-10T22:33:17.000Z</time>
      </trkpt>
      <trkpt lat="51.45512" lon="0.240238">
        <ele>8.992815</ele>
        <time>2024-08-10T22:33:17.000Z</time>
      </trkpt>
      <trkpt lat="51.455111" lon="0.240241">
        <ele>8.993</ele>
        <time>2024-08-10T22:33:17.000Z</time>
      </trkpt>
      <trkpt lat="51.455112" lon="0.24025">
        <ele>8.993069</ele>
        <time>2024-08-10T22:33:17.000Z</time>
      </trkpt>
      <trkpt lat="51.455103" lon="0.240254">
        <ele>8.993182</ele>
        <time>2024-08-10T22:33:17.000Z</time>
      </trkpt>
      <trkpt lat="51.455101" lon="0.240249">
        <ele>8.993349</ele>
        <time>2024-08-10T22:33:17.000Z</time>
      </trkpt>
      <trkpt lat="51.455102" lon="0.240256">
        <ele>8.993519</ele>
        <time>2024-08-10T22:33:17.000Z</time>
      </trkpt>
      <trkpt lat="51.455098" lon="0.240266">
        <ele>8.993692</ele>
        <time>2024-08-10T22:33:17.000Z</time>
      </trkpt>
      <trkpt lat="51.45511" lon="0.240252">
        <ele>8.993769</ele>
        <time>2024-08-10T22:33:17.000Z</time>
      </trkpt>
      <trkpt lat="51.455073" lon="0.240291">
        <ele>8.995732</ele>
        <time>2024-08-10T22:33:17.000Z</time>
      </trkpt>
      <trkpt lat="51.454679" lon="0.240626">
        <ele>9.025954</ele>
        <time>2024-08-10T22:33:22.000Z</time>
      </trkpt>
      <trkpt lat="51.454611" lon="0.24068">
        <ele>9.03192</ele>
        <time>2024-08-10T22:33:23.000Z</time>
      </trkpt>
      <trkpt lat="51.454614" lon="0.240694">
        <ele>9.032062</ele>
        <time>2024-08-10T22:33:23.000Z</time>
      </trkpt>
      <trkpt lat="51.454596" lon="0.240694">
        <ele>9.032231</ele>
        <time>2024-08-10T22:33:23.000Z</time>
      </trkpt>
      <trkpt lat="51.454596" lon="0.240687">
        <ele>9.032308</ele>
        <time>2024-08-10T22:33:23.000Z</time>
      </trkpt>
      <trkpt lat="51.454606" lon="0.240682">
        <ele>9.032299</ele>
        <time>2024-08-10T22:33:23.000Z</time>
      </trkpt>
      <trkpt lat="51.454609" lon="0.240686">
        <ele>9.032297</ele>
        <time>2024-08-10T22:33:23.000Z</time>
      </trkpt>
      <trkpt lat="51.455118" lon="0.240254">
        <ele>9.07182</ele>
        <time>2024-08-10T22:33:29.000Z</time>
      </trkpt>
      <trkpt lat="51.455112" lon="0.24025">
        <ele>9.07181</ele>
        <time>2024-08-10T22:33:29.000Z</time>
      </trkpt>
      <trkpt lat="51.45548" lon="0.239776">
        <ele>8.907704</ele>
        <time>2024-08-10T22:33:34.000Z</time>
      </trkpt>
      <trkpt lat="51.455842" lon="0.239305">
        <ele>8.577229</ele>
        <time>2024-08-10T22:33:39.000Z</time>
      </trkpt>
      <trkpt lat="51.455851" lon="0.239307">
        <ele>8.577239</ele>
        <time>2024-08-10T22:33:39.000Z</time>
      </trkpt>
      <trkpt lat="51.456189" lon="0.238637">
        <ele>8.193913</ele>
        <time>2024-08-10T22:33:45.000Z</time>
      </trkpt>
      <trkpt lat="51.456532" lon="0.237982">
        <ele>7.811112</ele>
        <time>2024-08-10T22:33:51.000Z</time>
      </trkpt>
      <trkpt lat="51.456539" lon="0.237979">
        <ele>7.811114</ele>
        <time>2024-08-10T22:33:51.000Z</time>
      </trkpt>
      <trkpt lat="51.456901" lon="0.236971">
        <ele>7.329717</ele>
        <time>2024-08-10T22:33:59.000Z</time>
      </trkpt>
      <trkpt lat="51.456898" lon="0.236981">
        <ele>7.329723</ele>
        <time>2024-08-10T22:33:59.000Z</time>
      </trkpt>
      <trkpt lat="51.45719" lon="0.235802">
        <ele>6.806298</ele>
        <time>2024-08-10T22:34:08.000Z</time>
      </trkpt>
      <trkpt lat="51.457467" lon="0.234632">
        <ele>6.29759</ele>
        <time>2024-08-10T22:34:17.000Z</time>
      </trkpt>
      <trkpt lat="51.457463" lon="0.234616">
        <ele>6.297595</ele>
        <time>2024-08-10T22:34:17.000Z</time>
      </trkpt>
      <trkpt lat="51.45782" lon="0.23361">
        <ele>5.837072</ele>
        <time>2024-08-10T22:34:25.000Z</time>
      </trkpt>
      <trkpt lat="51.458186" lon="0.232598">
        <ele>5.460738</ele>
        <time>2024-08-10T22:34:33.000Z</time>
      </trkpt>
      <trkpt lat="51.458183" lon="0.232589">
        <ele>5.460741</ele>
        <time>2024-08-10T22:34:33.000Z</time>
      </trkpt>
      <trkpt lat="51.458692" lon="0.231657">
        <ele>5.407908</ele>
        <time>2024-08-10T22:34:42.000Z</time>
      </trkpt>
      <trkpt lat="51.458697" lon="0.231647">
        <ele>5.40789</ele>
        <time>2024-08-10T22:34:42.000Z</time>
      </trkpt>
      <trkpt lat="51.458694" lon="0.231661">
        <ele>5.407896</ele>
        <time>2024-08-10T22:34:42.000Z</time>
      </trkpt>
      <trkpt lat="51.459104" lon="0.231225">
        <ele>5.374628</ele>
        <time>2024-08-10T22:34:47.000Z</time>
      </trkpt>
      <trkpt lat="51.4591" lon="0.231218">
        <ele>5.374619</ele>
        <time>2024-08-10T22:34:47.000Z</time>
      </trkpt>
      <trkpt lat="51.45911" lon="0.231222">
        <ele>5.37462</ele>
        <time>2024-08-10T22:34:47.000Z</time>
      </trkpt>
      <trkpt lat="51.459144" lon="0.230627">
        <ele>5.349543</ele>
        <time>2024-08-10T22:34:51.000Z</time>
      </trkpt>
      <trkpt lat="51.459145" lon="0.230628">
        <ele>5.34954</ele>
        <time>2024-08-10T22:34:51.000Z</time>
      </trkpt>
      <trkpt lat="51.459147" lon="0.230625">
        <ele>5.349555</ele>
        <time>2024-08-10T22:34:51.000Z</time>
      </trkpt>
      <trkpt lat="51.459278" lon="0.229856">
        <ele>5.548475</ele>
        <time>2024-08-10T22:34:57.000Z</time>
      </trkpt>
      <trkpt lat="51.459403" lon="0.229084">
        <ele>5.748028</ele>
        <time>2024-08-10T22:35:03.000Z</time>
      </trkpt>
      <trkpt lat="51.459398" lon="0.229079">
        <ele>5.748026</ele>
        <time>2024-08-10T22:35:03.000Z</time>
      </trkpt>
      <trkpt lat="51.459401" lon="0.229082">
        <ele>5.74804</ele>
        <time>2024-08-10T22:35:03.000Z</time>
      </trkpt>
      <trkpt lat="51.459449" lon="0.228171">
        <ele>5.975671</ele>
        <time>2024-08-10T22:35:09.000Z</time>
      </trkpt>
      <trkpt lat="51.459501" lon="0.227263">
        <ele>6.14402</ele>
        <time>2024-08-10T22:35:15.000Z</time>
      </trkpt>
      <trkpt lat="51.45949" lon="0.227264">
        <ele>6.144017</ele>
        <time>2024-08-10T22:35:15.000Z</time>
      </trkpt>
      <trkpt lat="51.459479" lon="0.226093">
        <ele>6.306161</ele>
        <time>2024-08-10T22:35:23.000Z</time>
      </trkpt>
      <trkpt lat="51.459454" lon="0.224914">
        <ele>6.46844</ele>
        <time>2024-08-10T22:35:31.000Z</time>
      </trkpt>
      <trkpt lat="51.459448" lon="0.223717">
        <ele>6.459369</ele>
        <time>2024-08-10T22:35:39.000Z</time>
      </trkpt>
      <trkpt lat="51.459448" lon="0.223717">
        <ele>6.459366</ele>
        <time>2024-08-10T22:35:39.000Z</time>
      </trkpt>
      <trkpt lat="51.459398" lon="0.222664">
        <ele>6.451195</ele>
        <time>2024-08-10T22:35:46.000Z</time>
      </trkpt>
      <trkpt lat="51.459345" lon="0.221604">
        <ele>6.444161</ele>
        <time>2024-08-10T22:35:53.000Z</time>
      </trkpt>
      <trkpt lat="51.459304" lon="0.220537">
        <ele>6.438876</ele>
        <time>2024-08-10T22:36:00.000Z</time>
      </trkpt>
      <trkpt lat="51.459322" lon="0.221228">
        <ele>6.435419</ele>
        <time>2024-08-10T22:36:05.000Z</time>
      </trkpt>
      <trkpt lat="51.459436" lon="0.223716">
        <ele>6.492961</ele>
        <time>2024-08-10T22:36:22.000Z</time>
      </trkpt>
      <trkpt lat="51.459504" lon="0.227307">
        <ele>6.390533</ele>
        <time>2024-08-10T22:36:47.000Z</time>
      </trkpt>
      <trkpt lat="51.459473" lon="0.228233">
        <ele>6.142109</ele>
        <time>2024-08-10T22:36:53.000Z</time>
      </trkpt>
      <trkpt lat="51.459368" lon="0.229416">
        <ele>5.638936</ele>
        <time>2024-08-10T22:37:01.000Z</time>
      </trkpt>
      <trkpt lat="51.459311" lon="0.22978">
        <ele>5.476465</ele>
        <time>2024-08-10T22:37:04.000Z</time>
      </trkpt>
      <trkpt lat="51.459165" lon="0.230437">
        <ele>5.186436</ele>
        <time>2024-08-10T22:37:09.000Z</time>
      </trkpt>
      <trkpt lat="51.459144" lon="0.230719">
        <ele>5.139274</ele>
        <time>2024-08-10T22:37:11.000Z</time>
      </trkpt>
      <trkpt lat="51.459132" lon="0.230976">
        <ele>5.124795</ele>
        <time>2024-08-10T22:37:13.000Z</time>
      </trkpt>
      <trkpt lat="51.459138" lon="0.230998">
        <ele>5.122791</ele>
        <time>2024-08-10T22:37:13.000Z</time>
      </trkpt>
      <trkpt lat="51.459225" lon="0.231117">
        <ele>5.112743</ele>
        <time>2024-08-10T22:37:14.000Z</time>
      </trkpt>
      <trkpt lat="51.459478" lon="0.231338">
        <ele>5.086381</ele>
        <time>2024-08-10T22:37:17.000Z</time>
      </trkpt>
      <trkpt lat="51.459792" lon="0.231793">
        <ele>5.048448</ele>
        <time>2024-08-10T22:37:22.000Z</time>
      </trkpt>
      <trkpt lat="51.460013" lon="0.231909">
        <ele>5.026859</ele>
        <time>2024-08-10T22:37:25.000Z</time>
      </trkpt>
      <trkpt lat="51.46012" lon="0.231894">
        <ele>5.016436</ele>
        <time>2024-08-10T22:37:26.000Z</time>
      </trkpt>
      <trkpt lat="51.460204" lon="0.231817">
        <ele>5.009279</ele>
        <time>2024-08-10T22:37:27.000Z</time>
      </trkpt>
      <trkpt lat="51.460212" lon="0.231754">
        <ele>5.004968</ele>
        <time>2024-08-10T22:37:27.000Z</time>
      </trkpt>
      <trkpt lat="51.460264" lon="0.231701">
        <ele>5.000594</ele>
        <time>2024-08-10T22:37:28.000Z</time>
      </trkpt>
      <trkpt lat="51.460307" lon="0.23167">
        <ele>4.995018</ele>
        <time>2024-08-10T22:37:29.000Z</time>
      </trkpt>
      <trkpt lat="51.460381" lon="0.231685">
        <ele>4.989566</ele>
        <time>2024-08-10T22:37:30.000Z</time>
      </trkpt>
      <trkpt lat="51.460414" lon="0.23171">
        <ele>4.999238</ele>
        <time>2024-08-10T22:37:30.000Z</time>
      </trkpt>
      <trkpt lat="51.46045" lon="0.231767">
        <ele>5.025443</ele>
        <time>2024-08-10T22:37:31.000Z</time>
      </trkpt>
      <trkpt lat="51.46055" lon="0.231814">
        <ele>5.08298</ele>
        <time>2024-08-10T22:37:32.000Z</time>
      </trkpt>
      <trkpt lat="51.460656" lon="0.231856">
        <ele>5.143644</ele>
        <time>2024-08-10T22:37:33.000Z</time>
      </trkpt>
      <trkpt lat="51.460789" lon="0.231885">
        <ele>5.214814</ele>
        <time>2024-08-10T22:37:34.000Z</time>
      </trkpt>
      <trkpt lat="51.461346" lon="0.231953">
        <ele>5.532126</ele>
        <time>2024-08-10T22:37:40.000Z</time>
      </trkpt>
      <trkpt lat="51.461416" lon="0.231956">
        <ele>5.572875</ele>
        <time>2024-08-10T22:37:41.000Z</time>
      </trkpt>
      <trkpt lat="51.461451" lon="0.23182">
        <ele>5.62306</ele>
        <time>2024-08-10T22:37:42.000Z</time>
      </trkpt>
      <trkpt lat="51.461516" lon="0.231601">
        <ele>5.711714</ele>
        <time>2024-08-10T22:37:44.000Z</time>
      </trkpt>
      <trkpt lat="51.461579" lon="0.231336">
        <ele>5.803906</ele>
        <time>2024-08-10T22:37:46.000Z</time>
      </trkpt>
      <trkpt lat="51.461604" lon="0.231141">
        <ele>5.878072</ele>
        <time>2024-08-10T22:37:47.000Z</time>
      </trkpt>
      <trkpt lat="51.461676" lon="0.230511">
        <ele>6.128349</ele>
        <time>2024-08-10T22:37:51.000Z</time>
      </trkpt>
      <trkpt lat="51.461844" lon="0.226901">
        <ele>7.440088</ele>
        <time>2024-08-10T22:38:16.000Z</time>
      </trkpt>
      <trkpt lat="51.461867" lon="0.226718">
        <ele>7.47543</ele>
        <time>2024-08-10T22:38:17.000Z</time>
      </trkpt>
      <trkpt lat="51.461837" lon="0.226371">
        <ele>7.546163</ele>
        <time>2024-08-10T22:38:19.000Z</time>
      </trkpt>
      <trkpt lat="51.461821" lon="0.226212">
        <ele>7.577109</ele>
        <time>2024-08-10T22:38:20.000Z</time>
      </trkpt>
      <trkpt lat="51.460976" lon="0.224091">
        <ele>7.730527</ele>
        <time>2024-08-10T22:38:37.000Z</time>
      </trkpt>
      <trkpt lat="51.460795" lon="0.223762">
        <ele>7.70847</ele>
        <time>2024-08-10T22:38:40.000Z</time>
      </trkpt>
      <trkpt lat="51.460532" lon="0.223436">
        <ele>7.681604</ele>
        <time>2024-08-10T22:38:44.000Z</time>
      </trkpt>
      <trkpt lat="51.460503" lon="0.223406">
        <ele>7.679008</ele>
        <time>2024-08-10T22:38:44.000Z</time>
      </trkpt>
      <trkpt lat="51.460501" lon="0.223412">
        <ele>7.678164</ele>
        <time>2024-08-10T22:38:44.000Z</time>
      </trkpt>
      <trkpt lat="51.460502" lon="0.223412">
        <ele>7.67817</ele>
        <time>2024-08-10T22:38:44.000Z</time>
      </trkpt>
      <trkpt lat="51.460495" lon="0.223416">
        <ele>7.678174</ele>
        <time>2024-08-10T22:38:44.000Z</time>
      </trkpt>
      <trkpt lat="51.460499" lon="0.22341">
        <ele>7.677339</ele>
        <time>2024-08-10T22:38:44.000Z</time>
      </trkpt>
      <trkpt lat="51.460539" lon="0.223443">
        <ele>7.674724</ele>
        <time>2024-08-10T22:38:45.000Z</time>
      </trkpt>
      <trkpt lat="51.460788" lon="0.223765">
        <ele>7.658991</ele>
        <time>2024-08-10T22:38:49.000Z</time>
      </trkpt>
      <trkpt lat="51.460974" lon="0.224085">
        <ele>7.677308</ele>
        <time>2024-08-10T22:38:52.000Z</time>
      </trkpt>
      <trkpt lat="51.461812" lon="0.226216">
        <ele>7.709415</ele>
        <time>2024-08-10T22:39:09.000Z</time>
      </trkpt>
      <trkpt lat="51.46184" lon="0.226358">
        <ele>7.653544</ele>
        <time>2024-08-10T22:39:10.000Z</time>
      </trkpt>
      <trkpt lat="51.461868" lon="0.226725">
        <ele>7.525883</ele>
        <time>2024-08-10T22:39:13.000Z</time>
      </trkpt>
      <trkpt lat="51.461844" lon="0.226913">
        <ele>7.462075</ele>
        <time>2024-08-10T22:39:14.000Z</time>
      </trkpt>
      <trkpt lat="51.461673" lon="0.230505">
        <ele>6.158519</ele>
        <time>2024-08-10T22:39:39.000Z</time>
      </trkpt>
      <trkpt lat="51.461604" lon="0.231135">
        <ele>5.91884</ele>
        <time>2024-08-10T22:39:43.000Z</time>
      </trkpt>
      <trkpt lat="51.461566" lon="0.231338">
        <ele>5.839327</ele>
        <time>2024-08-10T22:39:44.000Z</time>
      </trkpt>
      <trkpt lat="51.461516" lon="0.231601">
        <ele>5.740543</ele>
        <time>2024-08-10T22:39:46.000Z</time>
      </trkpt>
      <trkpt lat="51.461462" lon="0.231829">
        <ele>5.672199</ele>
        <time>2024-08-10T22:39:48.000Z</time>
      </trkpt>
      <trkpt lat="51.461412" lon="0.231958">
        <ele>5.656191</ele>
        <time>2024-08-10T22:39:49.000Z</time>
      </trkpt>
      <trkpt lat="51.461387" lon="0.232067">
        <ele>5.643354</ele>
        <time>2024-08-10T22:39:50.000Z</time>
      </trkpt>
      <trkpt lat="51.461328" lon="0.232239">
        <ele>5.619608</ele>
        <time>2024-08-10T22:39:51.000Z</time>
      </trkpt>
      <trkpt lat="51.461254" lon="0.232394">
        <ele>5.599541</ele>
        <time>2024-08-10T22:39:52.000Z</time>
      </trkpt>
      <trkpt lat="51.460684" lon="0.233738">
        <ele>5.419303</ele>
        <time>2024-08-10T22:40:03.000Z</time>
      </trkpt>
      <trkpt lat="51.460348" lon="0.235038">
        <ele>5.100424</ele>
        <time>2024-08-10T22:40:13.000Z</time>
      </trkpt>
      <trkpt lat="51.460316" lon="0.235221">
        <ele>5.04925</ele>
        <time>2024-08-10T22:40:14.000Z</time>
      </trkpt>
      <trkpt lat="51.460269" lon="0.235747">
        <ele>4.89804</ele>
        <time>2024-08-10T22:40:18.000Z</time>
      </trkpt>
      <trkpt lat="51.46027" lon="0.235748">
        <ele>4.896885</ele>
        <time>2024-08-10T22:40:18.000Z</time>
      </trkpt>
      <trkpt lat="51.460254" lon="0.236072">
        <ele>4.804164</ele>
        <time>2024-08-10T22:40:20.000Z</time>
      </trkpt>
      <trkpt lat="51.460253" lon="0.237586">
        <ele>4.427291</ele>
        <time>2024-08-10T22:40:30.000Z</time>
      </trkpt>
      <trkpt lat="51.460202" lon="0.23816">
        <ele>4.319628</ele>
        <time>2024-08-10T22:40:34.000Z</time>
      </trkpt>
      <trkpt lat="51.460113" lon="0.238643">
        <ele>4.227681</ele>
        <time>2024-08-10T22:40:37.000Z</time>
      </trkpt>
      <trkpt lat="51.46009" lon="0.238685">
        <ele>4.21677</ele>
        <time>2024-08-10T22:40:37.000Z</time>
      </trkpt>
      <trkpt lat="51.460052" lon="0.238858">
        <ele>4.184462</ele>
        <time>2024-08-10T22:40:38.000Z</time>
      </trkpt>
      <trkpt lat="51.4596" lon="0.24015">
        <ele>4.011306</ele>
        <time>2024-08-10T22:40:48.000Z</time>
      </trkpt>
      <trkpt lat="51.459308" lon="0.240722">
        <ele>4.02495</ele>
        <time>2024-08-10T22:40:53.000Z</time>
      </trkpt>
      <trkpt lat="51.458604" lon="0.241569">
        <ele>4.050567</ele>
        <time>2024-08-10T22:41:03.000Z</time>
      </trkpt>
      <trkpt lat="51.458552" lon="0.241603">
        <ele>4.052124</ele>
        <time>2024-08-10T22:41:04.000Z</time>
      </trkpt>
      <trkpt lat="51.458548" lon="0.241608">
        <ele>4.052195</ele>
        <time>2024-08-10T22:41:04.000Z</time>
      </trkpt>
      <trkpt lat="51.458551" lon="0.241611">
        <ele>4.052263</ele>
        <time>2024-08-10T22:41:04.000Z</time>
      </trkpt>
      <trkpt lat="51.458554" lon="0.24161">
        <ele>4.052335</ele>
        <time>2024-08-10T22:41:04.000Z</time>
      </trkpt>
      <trkpt lat="51.45855" lon="0.241614">
        <ele>4.052371</ele>
        <time>2024-08-10T22:41:04.000Z</time>
      </trkpt>
      <trkpt lat="51.458545" lon="0.241604">
        <ele>4.052403</ele>
        <time>2024-08-10T22:41:04.000Z</time>
      </trkpt>
      <trkpt lat="51.458558" lon="0.241617">
        <ele>4.052474</ele>
        <time>2024-08-10T22:41:04.000Z</time>
      </trkpt>
      <trkpt lat="51.458554" lon="0.241603">
        <ele>4.052527</ele>
        <time>2024-08-10T22:41:04.000Z</time>
      </trkpt>
      <trkpt lat="51.45855" lon="0.241599">
        <ele>4.052593</ele>
        <time>2024-08-10T22:41:04.000Z</time>
      </trkpt>
      <trkpt lat="51.458603" lon="0.24157">
        <ele>4.054168</ele>
        <time>2024-08-10T22:41:05.000Z</time>
      </trkpt>
      <trkpt lat="51.459305" lon="0.240736">
        <ele>4.033048</ele>
        <time>2024-08-10T22:41:15.000Z</time>
      </trkpt>
      <trkpt lat="51.459597" lon="0.240157">
        <ele>4.021052</ele>
        <time>2024-08-10T22:41:20.000Z</time>
      </trkpt>
      <trkpt lat="51.460044" lon="0.238853">
        <ele>4.163031</ele>
        <time>2024-08-10T22:41:30.000Z</time>
      </trkpt>
      <trkpt lat="51.460099" lon="0.238684">
        <ele>4.201058</ele>
        <time>2024-08-10T22:41:31.000Z</time>
      </trkpt>
      <trkpt lat="51.460109" lon="0.238643">
        <ele>4.213898</ele>
        <time>2024-08-10T22:41:31.000Z</time>
      </trkpt>
      <trkpt lat="51.460213" lon="0.23817">
        <ele>4.322119</ele>
        <time>2024-08-10T22:41:34.000Z</time>
      </trkpt>
      <trkpt lat="51.460267" lon="0.237585">
        <ele>4.448855</ele>
        <time>2024-08-10T22:41:38.000Z</time>
      </trkpt>
      <trkpt lat="51.460249" lon="0.236072">
        <ele>4.81406</ele>
        <time>2024-08-10T22:41:48.000Z</time>
      </trkpt>
      <trkpt lat="51.460282" lon="0.235738">
        <ele>4.901394</ele>
        <time>2024-08-10T22:41:50.000Z</time>
      </trkpt>
      <trkpt lat="51.460281" lon="0.235737">
        <ele>4.902466</ele>
        <time>2024-08-10T22:41:50.000Z</time>
      </trkpt>
      <trkpt lat="51.460325" lon="0.235209">
        <ele>5.044853</ele>
        <time>2024-08-10T22:41:54.000Z</time>
      </trkpt>
      <trkpt lat="51.460337" lon="0.235046">
        <ele>5.093065</ele>
        <time>2024-08-10T22:41:55.000Z</time>
      </trkpt>
      <trkpt lat="51.460672" lon="0.233738">
        <ele>5.410262</ele>
        <time>2024-08-10T22:42:05.000Z</time>
      </trkpt>
      <trkpt lat="51.461267" lon="0.232392">
        <ele>5.373132</ele>
        <time>2024-08-10T22:42:16.000Z</time>
      </trkpt>
      <trkpt lat="51.46132" lon="0.232254">
        <ele>5.368994</ele>
        <time>2024-08-10T22:42:17.000Z</time>
      </trkpt>
      <trkpt lat="51.461387" lon="0.23207">
        <ele>5.364104</ele>
        <time>2024-08-10T22:42:18.000Z</time>
      </trkpt>
      <trkpt lat="51.461424" lon="0.231963">
        <ele>5.361449</ele>
        <time>2024-08-10T22:42:19.000Z</time>
      </trkpt>
      <trkpt lat="51.4614" lon="0.231951">
        <ele>5.360386</ele>
        <time>2024-08-10T22:42:19.000Z</time>
      </trkpt>
      <trkpt lat="51.461396" lon="0.231962">
        <ele>5.360311</ele>
        <time>2024-08-10T22:42:19.000Z</time>
      </trkpt>
      <trkpt lat="51.461385" lon="0.231955">
        <ele>5.36024</ele>
        <time>2024-08-10T22:42:19.000Z</time>
      </trkpt>
      <trkpt lat="51.46139" lon="0.23196">
        <ele>5.36021</ele>
        <time>2024-08-10T22:42:19.000Z</time>
      </trkpt>
      <trkpt lat="51.461379" lon="0.231961">
        <ele>5.360124</ele>
        <time>2024-08-10T22:42:19.000Z</time>
      </trkpt>
      <trkpt lat="51.461392" lon="0.231952">
        <ele>5.360094</ele>
        <time>2024-08-10T22:42:19.000Z</time>
      </trkpt>
      <trkpt lat="51.461375" lon="0.231962">
        <ele>5.360028</ele>
        <time>2024-08-10T22:42:19.000Z</time>
      </trkpt>
      <trkpt lat="51.461344" lon="0.231967">
        <ele>5.358766</ele>
        <time>2024-08-10T22:42:19.000Z</time>
      </trkpt>
      <trkpt lat="51.460782" lon="0.231901">
        <ele>5.236594</ele>
        <time>2024-08-10T22:42:25.000Z</time>
      </trkpt>
      <trkpt lat="51.460699" lon="0.231908">
        <ele>5.207158</ele>
        <time>2024-08-10T22:42:26.000Z</time>
      </trkpt>
      <trkpt lat="51.460639" lon="0.231903">
        <ele>5.187408</ele>
        <time>2024-08-10T22:42:27.000Z</time>
      </trkpt>
      <trkpt lat="51.460569" lon="0.231916">
        <ele>5.161123</ele>
        <time>2024-08-10T22:42:28.000Z</time>
      </trkpt>
      <trkpt lat="51.460464" lon="0.231981">
        <ele>5.123567</ele>
        <time>2024-08-10T22:42:29.000Z</time>
      </trkpt>
      <trkpt lat="51.460454" lon="0.232046">
        <ele>5.108401</ele>
        <time>2024-08-10T22:42:29.000Z</time>
      </trkpt>
      <trkpt lat="51.460394" lon="0.232131">
        <ele>5.078375</ele>
        <time>2024-08-10T22:42:30.000Z</time>
      </trkpt>
      <trkpt lat="51.460344" lon="0.232139">
        <ele>5.063318</ele>
        <time>2024-08-10T22:42:31.000Z</time>
      </trkpt>
      <trkpt lat="51.460309" lon="0.232142">
        <ele>5.048938</ele>
        <time>2024-08-10T22:42:31.000Z</time>
      </trkpt>
      <trkpt lat="51.460303" lon="0.232141">
        <ele>5.047862</ele>
        <time>2024-08-10T22:42:31.000Z</time>
      </trkpt>
      <trkpt lat="51.460301" lon="0.23214">
        <ele>5.046767</ele>
        <time>2024-08-10T22:42:31.000Z</time>
      </trkpt>
      <trkpt lat="51.4603" lon="0.23214">
        <ele>5.046403</ele>
        <time>2024-08-10T22:42:31.000Z</time>
      </trkpt>
      <trkpt lat="51.460289" lon="0.232125">
        <ele>5.046413</ele>
        <time>2024-08-10T22:42:31.000Z</time>
      </trkpt>
      <trkpt lat="51.460301" lon="0.232126">
        <ele>5.045995</ele>
        <time>2024-08-10T22:42:31.000Z</time>
      </trkpt>
      <trkpt lat="51.4603" lon="0.232139">
        <ele>5.045556</ele>
        <time>2024-08-10T22:42:31.000Z</time>
      </trkpt>
      <trkpt lat="51.460299" lon="0.232132">
        <ele>5.044818</ele>
        <time>2024-08-10T22:42:31.000Z</time>
      </trkpt>
      <trkpt lat="51.46025" lon="0.232097">
        <ele>5.029608</ele>
        <time>2024-08-10T22:42:32.000Z</time>
      </trkpt>
      <trkpt lat="51.460216" lon="0.232061">
        <ele>5.012829</ele>
        <time>2024-08-10T22:42:32.000Z</time>
      </trkpt>
      <trkpt lat="51.460161" lon="0.232051">
        <ele>4.98885</ele>
        <time>2024-08-10T22:42:33.000Z</time>
      </trkpt>
      <trkpt lat="51.459814" lon="0.23196">
        <ele>4.863264</ele>
        <time>2024-08-10T22:42:37.000Z</time>
      </trkpt>
      <trkpt lat="51.459447" lon="0.231513">
        <ele>4.708383</ele>
        <time>2024-08-10T22:42:42.000Z</time>
      </trkpt>
      <trkpt lat="51.459166" lon="0.231321">
        <ele>4.800868</ele>
        <time>2024-08-10T22:42:45.000Z</time>
      </trkpt>
      <trkpt lat="51.459052" lon="0.231325">
        <ele>4.834062</ele>
        <time>2024-08-10T22:42:46.000Z</time>
      </trkpt>
      <trkpt lat="51.459021" lon="0.231372">
        <ele>4.84879</ele>
        <time>2024-08-10T22:42:46.000Z</time>
      </trkpt>
      <trkpt lat="51.458964" lon="0.231399">
        <ele>4.863275</ele>
        <time>2024-08-10T22:42:47.000Z</time>
      </trkpt>
      <trkpt lat="51.458757" lon="0.231584">
        <ele>4.935044</ele>
        <time>2024-08-10T22:42:50.000Z</time>
      </trkpt>
      <trkpt lat="51.458713" lon="0.231628">
        <ele>4.952246</ele>
        <time>2024-08-10T22:42:51.000Z</time>
      </trkpt>
      <trkpt lat="51.458704" lon="0.23164">
        <ele>4.953307</ele>
        <time>2024-08-10T22:42:51.000Z</time>
      </trkpt>
      <trkpt lat="51.458708" lon="0.231643">
        <ele>4.953653</ele>
        <time>2024-08-10T22:42:51.000Z</time>
      </trkpt>
      <trkpt lat="51.45871" lon="0.23164">
        <ele>4.954368</ele>
        <time>2024-08-10T22:42:51.000Z</time>
      </trkpt>
      <trkpt lat="51.458704" lon="0.231635">
        <ele>4.955067</ele>
        <time>2024-08-10T22:42:51.000Z</time>
      </trkpt>
      <trkpt lat="51.458709" lon="0.231633">
        <ele>4.955417</ele>
        <time>2024-08-10T22:42:51.000Z</time>
      </trkpt>
      <trkpt lat="51.458707" lon="0.231639">
        <ele>4.956124</ele>
        <time>2024-08-10T22:42:51.000Z</time>
      </trkpt>
      <trkpt lat="51.458694" lon="0.231645">
        <ele>4.956596</ele>
        <time>2024-08-10T22:42:51.000Z</time>
      </trkpt>
      <trkpt lat="51.458697" lon="0.23165">
        <ele>4.956598</ele>
        <time>2024-08-10T22:42:51.000Z</time>
      </trkpt>
      <trkpt lat="51.458692" lon="0.231636">
        <ele>4.956954</ele>
        <time>2024-08-10T22:42:51.000Z</time>
      </trkpt>
      <trkpt lat="51.458699" lon="0.231656">
        <ele>4.957589</ele>
        <time>2024-08-10T22:42:51.000Z</time>
      </trkpt>
      <trkpt lat="51.458697" lon="0.231648">
        <ele>4.958065</ele>
        <time>2024-08-10T22:42:51.000Z</time>
      </trkpt>
      <trkpt lat="51.458703" lon="0.231656">
        <ele>4.958773</ele>
        <time>2024-08-10T22:42:51.000Z</time>
      </trkpt>
      <trkpt lat="51.458699" lon="0.231663">
        <ele>4.959238</ele>
        <time>2024-08-10T22:42:51.000Z</time>
      </trkpt>
      <trkpt lat="51.458179" lon="0.23257">
        <ele>5.188392</ele>
        <time>2024-08-10T22:43:00.000Z</time>
      </trkpt>
      <trkpt lat="51.458173" lon="0.232579">
        <ele>5.190302</ele>
        <time>2024-08-10T22:43:00.000Z</time>
      </trkpt>
      <trkpt lat="51.458188" lon="0.232583">
        <ele>5.191403</ele>
        <time>2024-08-10T22:43:00.000Z</time>
      </trkpt>
      <trkpt lat="51.458183" lon="0.232586">
        <ele>5.191783</ele>
        <time>2024-08-10T22:43:00.000Z</time>
      </trkpt>
      <trkpt lat="51.458183" lon="0.232594">
        <ele>5.192124</ele>
        <time>2024-08-10T22:43:00.000Z</time>
      </trkpt>
      <trkpt lat="51.458174" lon="0.23259">
        <ele>5.192758</ele>
        <time>2024-08-10T22:43:00.000Z</time>
      </trkpt>
      <trkpt lat="51.458177" lon="0.232596">
        <ele>5.193115</ele>
        <time>2024-08-10T22:43:00.000Z</time>
      </trkpt>
      <trkpt lat="51.458177" lon="0.232596">
        <ele>5.193455</ele>
        <time>2024-08-10T22:43:00.000Z</time>
      </trkpt>
      <trkpt lat="51.458179" lon="0.232597">
        <ele>5.193839</ele>
        <time>2024-08-10T22:43:00.000Z</time>
      </trkpt>
      <trkpt lat="51.458181" lon="0.232605">
        <ele>5.194306</ele>
        <time>2024-08-10T22:43:00.000Z</time>
      </trkpt>
      <trkpt lat="51.458177" lon="0.232599">
        <ele>5.194795</ele>
        <time>2024-08-10T22:43:00.000Z</time>
      </trkpt>
      <trkpt lat="51.458175" lon="0.232604">
        <ele>5.195275</ele>
        <time>2024-08-10T22:43:00.000Z</time>
      </trkpt>
      <trkpt lat="51.458166" lon="0.232593">
        <ele>5.195649</ele>
        <time>2024-08-10T22:43:00.000Z</time>
      </trkpt>
      <trkpt lat="51.458179" lon="0.232608">
        <ele>5.196119</ele>
        <time>2024-08-10T22:43:00.000Z</time>
      </trkpt>
      <trkpt lat="51.458168" lon="0.232601">
        <ele>5.196605</ele>
        <time>2024-08-10T22:43:00.000Z</time>
      </trkpt>
      <trkpt lat="51.458173" lon="0.232604">
        <ele>5.197071</ele>
        <time>2024-08-10T22:43:00.000Z</time>
      </trkpt>
      <trkpt lat="51.457776" lon="0.233628">
        <ele>5.613454</ele>
        <time>2024-08-10T22:43:08.000Z</time>
      </trkpt>
      <trkpt lat="51.457471" lon="0.234617">
        <ele>6.05128</ele>
        <time>2024-08-10T22:43:16.000Z</time>
      </trkpt>
      <trkpt lat="51.457479" lon="0.23462">
        <ele>6.051674</ele>
        <time>2024-08-10T22:43:16.000Z</time>
      </trkpt>
      <trkpt lat="51.457473" lon="0.234617">
        <ele>6.052423</ele>
        <time>2024-08-10T22:43:16.000Z</time>
      </trkpt>
      <trkpt lat="51.457466" lon="0.234612">
        <ele>6.053202</ele>
        <time>2024-08-10T22:43:16.000Z</time>
      </trkpt>
      <trkpt lat="51.457472" lon="0.234608">
        <ele>6.054007</ele>
        <time>2024-08-10T22:43:16.000Z</time>
      </trkpt>
      <trkpt lat="51.457476" lon="0.234624">
        <ele>6.054746</ele>
        <time>2024-08-10T22:43:16.000Z</time>
      </trkpt>
      <trkpt lat="51.457473" lon="0.234628">
        <ele>6.055542</ele>
        <time>2024-08-10T22:43:16.000Z</time>
      </trkpt>
      <trkpt lat="51.457464" lon="0.234621">
        <ele>6.056874</ele>
        <time>2024-08-10T22:43:16.000Z</time>
      </trkpt>
      <trkpt lat="51.457466" lon="0.234622">
        <ele>6.057657</ele>
        <time>2024-08-10T22:43:16.000Z</time>
      </trkpt>
      <trkpt lat="51.457467" lon="0.234618">
        <ele>6.058417</ele>
        <time>2024-08-10T22:43:16.000Z</time>
      </trkpt>
      <trkpt lat="51.457462" lon="0.234626">
        <ele>6.059596</ele>
        <time>2024-08-10T22:43:16.000Z</time>
      </trkpt>
      <trkpt lat="51.457472" lon="0.234632">
        <ele>6.060343</ele>
        <time>2024-08-10T22:43:16.000Z</time>
      </trkpt>
      <trkpt lat="51.457472" lon="0.23464">
        <ele>6.061527</ele>
        <time>2024-08-10T22:43:16.000Z</time>
      </trkpt>
      <trkpt lat="51.457464" lon="0.234633">
        <ele>6.063585</ele>
        <time>2024-08-10T22:43:16.000Z</time>
      </trkpt>
      <trkpt lat="51.456915" lon="0.236941">
        <ele>7.149093</ele>
        <time>2024-08-10T22:43:33.000Z</time>
      </trkpt>
      <trkpt lat="51.456909" lon="0.236978">
        <ele>7.163992</ele>
        <time>2024-08-10T22:43:33.000Z</time>
      </trkpt>
      <trkpt lat="51.456912" lon="0.236965">
        <ele>7.165565</ele>
        <time>2024-08-10T22:43:33.000Z</time>
      </trkpt>
      <trkpt lat="51.456896" lon="0.236981">
        <ele>7.166738</ele>
        <time>2024-08-10T22:43:33.000Z</time>
      </trkpt>
      <trkpt lat="51.456912" lon="0.236971">
        <ele>7.167675</ele>
        <time>2024-08-10T22:43:33.000Z</time>
      </trkpt>
      <trkpt lat="51.456909" lon="0.236976">
        <ele>7.168851</ele>
        <time>2024-08-10T22:43:33.000Z</time>
      </trkpt>
      <trkpt lat="51.456902" lon="0.236971">
        <ele>7.170039</ele>
        <time>2024-08-10T22:43:33.000Z</time>
      </trkpt>
      <trkpt lat="51.456903" lon="0.236982">
        <ele>7.172031</ele>
        <time>2024-08-10T22:43:33.000Z</time>
      </trkpt>
      <trkpt lat="51.4569" lon="0.236985">
        <ele>7.172895</ele>
        <time>2024-08-10T22:43:33.000Z</time>
      </trkpt>
      <trkpt lat="51.456907" lon="0.236979">
        <ele>7.173832</ele>
        <time>2024-08-10T22:43:33.000Z</time>
      </trkpt>
      <trkpt lat="51.456895" lon="0.236991">
        <ele>7.175012</ele>
        <time>2024-08-10T22:43:33.000Z</time>
      </trkpt>
      <trkpt lat="51.456565" lon="0.23795">
        <ele>7.683397</ele>
        <time>2024-08-10T22:43:41.000Z</time>
      </trkpt>
      <trkpt lat="51.456536" lon="0.237973">
        <ele>7.697973</ele>
        <time>2024-08-10T22:43:41.000Z</time>
      </trkpt>
      <trkpt lat="51.456535" lon="0.237972">
        <ele>7.700723</ele>
        <time>2024-08-10T22:43:41.000Z</time>
      </trkpt>
      <trkpt lat="51.45655" lon="0.237968">
        <ele>7.701587</ele>
        <time>2024-08-10T22:43:41.000Z</time>
      </trkpt>
      <trkpt lat="51.456547" lon="0.237987">
        <ele>7.703167</ele>
        <time>2024-08-10T22:43:41.000Z</time>
      </trkpt>
      <trkpt lat="51.456533" lon="0.237989">
        <ele>7.704357</ele>
        <time>2024-08-10T22:43:41.000Z</time>
      </trkpt>
      <trkpt lat="51.456543" lon="0.23799">
        <ele>7.7061</ele>
        <time>2024-08-10T22:43:41.000Z</time>
      </trkpt>
      <trkpt lat="51.45653" lon="0.237977">
        <ele>7.707286</ele>
        <time>2024-08-10T22:43:41.000Z</time>
      </trkpt>
      <trkpt lat="51.456532" lon="0.23799">
        <ele>7.708847</ele>
        <time>2024-08-10T22:43:41.000Z</time>
      </trkpt>
      <trkpt lat="51.456539" lon="0.237984">
        <ele>7.711229</ele>
        <time>2024-08-10T22:43:41.000Z</time>
      </trkpt>
      <trkpt lat="51.456533" lon="0.237997">
        <ele>7.712789</ele>
        <time>2024-08-10T22:43:41.000Z</time>
      </trkpt>
      <trkpt lat="51.456541" lon="0.237989">
        <ele>7.713671</ele>
        <time>2024-08-10T22:43:41.000Z</time>
      </trkpt>
      <trkpt lat="51.456534" lon="0.238006">
        <ele>7.71486</ele>
        <time>2024-08-10T22:43:41.000Z</time>
      </trkpt>
      <trkpt lat="51.456529" lon="0.237991">
        <ele>7.716442</ele>
        <time>2024-08-10T22:43:41.000Z</time>
      </trkpt>
      <trkpt lat="51.456076" lon="0.238916">
        <ele>8.264498</ele>
        <time>2024-08-10T22:43:49.000Z</time>
      </trkpt>
      <trkpt lat="51.455851" lon="0.239294">
        <ele>8.509599</ele>
        <time>2024-08-10T22:43:53.000Z</time>
      </trkpt>
      <trkpt lat="51.455855" lon="0.239294">
        <ele>8.51166</ele>
        <time>2024-08-10T22:43:53.000Z</time>
      </trkpt>
      <trkpt lat="51.455855" lon="0.239307">
        <ele>8.513418</ele>
        <time>2024-08-10T22:43:53.000Z</time>
      </trkpt>
      <trkpt lat="51.455844" lon="0.239301">
        <ele>8.515027</ele>
        <time>2024-08-10T22:43:53.000Z</time>
      </trkpt>
      <trkpt lat="51.455851" lon="0.239311">
        <ele>8.515902</ele>
        <time>2024-08-10T22:43:53.000Z</time>
      </trkpt>
      <trkpt lat="51.455854" lon="0.239308">
        <ele>8.516801</ele>
        <time>2024-08-10T22:43:53.000Z</time>
      </trkpt>
      <trkpt lat="51.455854" lon="0.239309">
        <ele>8.518005</ele>
        <time>2024-08-10T22:43:53.000Z</time>
      </trkpt>
      <trkpt lat="51.455843" lon="0.239306">
        <ele>8.519198</ele>
        <time>2024-08-10T22:43:53.000Z</time>
      </trkpt>
      <trkpt lat="51.455844" lon="0.23931">
        <ele>8.520087</ele>
        <time>2024-08-10T22:43:53.000Z</time>
      </trkpt>
      <trkpt lat="51.45584" lon="0.239312">
        <ele>8.521294</ele>
        <time>2024-08-10T22:43:53.000Z</time>
      </trkpt>
      <trkpt lat="51.455773" lon="0.239445">
        <ele>8.60196</ele>
        <time>2024-08-10T22:43:54.000Z</time>
      </trkpt>
      <trkpt lat="51.455124" lon="0.240232">
        <ele>9.057736</ele>
        <time>2024-08-10T22:44:03.000Z</time>
      </trkpt>
      <trkpt lat="51.455112" lon="0.240248">
        <ele>9.057539</ele>
        <time>2024-08-10T22:44:03.000Z</time>
      </trkpt>
      <trkpt lat="51.455123" lon="0.240234">
        <ele>9.057484</ele>
        <time>2024-08-10T22:44:03.000Z</time>
      </trkpt>
      <trkpt lat="51.455121" lon="0.24025">
        <ele>9.057435</ele>
        <time>2024-08-10T22:44:03.000Z</time>
      </trkpt>
      <trkpt lat="51.45512" lon="0.240249">
        <ele>9.057359</ele>
        <time>2024-08-10T22:44:03.000Z</time>
      </trkpt>
      <trkpt lat="51.455113" lon="0.240249">
        <ele>9.057317</ele>
        <time>2024-08-10T22:44:03.000Z</time>
      </trkpt>
      <trkpt lat="51.455106" lon="0.240239">
        <ele>9.057246</ele>
        <time>2024-08-10T22:44:03.000Z</time>
      </trkpt>
      <trkpt lat="51.455117" lon="0.240249">
        <ele>9.057105</ele>
        <time>2024-08-10T22:44:03.000Z</time>
      </trkpt>
      <trkpt lat="51.455104" lon="0.240243">
        <ele>9.057053</ele>
        <time>2024-08-10T22:44:03.000Z</time>
      </trkpt>
      <trkpt lat="51.455108" lon="0.240244">
        <ele>9.056971</ele>
        <time>2024-08-10T22:44:03.000Z</time>
      </trkpt>
      <trkpt lat="51.455107" lon="0.240251">
        <ele>9.05685</ele>
        <time>2024-08-10T22:44:03.000Z</time>
      </trkpt>
      <trkpt lat="51.455112" lon="0.240248">
        <ele>9.05671</ele>
        <time>2024-08-10T22:44:03.000Z</time>
      </trkpt>
      <trkpt lat="51.455114" lon="0.240265">
        <ele>9.056586</ele>
        <time>2024-08-10T22:44:03.000Z</time>
      </trkpt>
      <trkpt lat="51.455111" lon="0.240256">
        <ele>9.056531</ele>
        <time>2024-08-10T22:44:03.000Z</time>
      </trkpt>
      <trkpt lat="51.455079" lon="0.240287">
        <ele>9.055075</ele>
        <time>2024-08-10T22:44:03.000Z</time>
      </trkpt>
      <trkpt lat="51.454686" lon="0.240611">
        <ele>9.032534</ele>
        <time>2024-08-10T22:44:08.000Z</time>
      </trkpt>
      <trkpt lat="51.454616" lon="0.240675">
        <ele>9.028081</ele>
        <time>2024-08-10T22:44:09.000Z</time>
      </trkpt>
      <trkpt lat="51.454611" lon="0.24069">
        <ele>9.027971</ele>
        <time>2024-08-10T22:44:09.000Z</time>
      </trkpt>
      <trkpt lat="51.454612" lon="0.24069">
        <ele>9.027859</ele>
        <time>2024-08-10T22:44:09.000Z</time>
      </trkpt>
      <trkpt lat="51.454609" lon="0.24069">
        <ele>9.02779</ele>
        <time>2024-08-10T22:44:09.000Z</time>
      </trkpt>
      <trkpt lat="51.454597" lon="0.240695">
        <ele>9.027675</ele>
        <time>2024-08-10T22:44:09.000Z</time>
      </trkpt>
      <trkpt lat="51.454595" lon="0.240687">
        <ele>9.027682</ele>
        <time>2024-08-10T22:44:09.000Z</time>
      </trkpt>
      <trkpt lat="51.454597" lon="0.240692">
        <ele>9.027684</ele>
        <time>2024-08-10T22:44:09.000Z</time>
      </trkpt>
      <trkpt lat="51.455118" lon="0.240253">
        <ele>8.998275</ele>
        <time>2024-08-10T22:44:16.000Z</time>
      </trkpt>
      <trkpt lat="51.455121" lon="0.240242">
        <ele>8.998283</ele>
        <time>2024-08-10T22:44:16.000Z</time>
      </trkpt>
      <trkpt lat="51.45549" lon="0.239779">
        <ele>8.943039</ele>
        <time>2024-08-10T22:44:21.000Z</time>
      </trkpt>
      <trkpt lat="51.455859" lon="0.239313">
        <ele>8.598843</ele>
        <time>2024-08-10T22:44:26.000Z</time>
      </trkpt>
      <trkpt lat="51.455843" lon="0.239301">
        <ele>8.598852</ele>
        <time>2024-08-10T22:44:26.000Z</time>
      </trkpt>
      <trkpt lat="51.456187" lon="0.238658">
        <ele>8.211408</ele>
        <time>2024-08-10T22:44:32.000Z</time>
      </trkpt>
      <trkpt lat="51.456528" lon="0.23799">
        <ele>7.82398</ele>
        <time>2024-08-10T22:44:38.000Z</time>
      </trkpt>
      <trkpt lat="51.456523" lon="0.237995">
        <ele>7.823972</ele>
        <time>2024-08-10T22:44:38.000Z</time>
      </trkpt>
      <trkpt lat="51.456898" lon="0.236974">
        <ele>7.318964</ele>
        <time>2024-08-10T22:44:46.000Z</time>
      </trkpt>
      <trkpt lat="51.456914" lon="0.236969">
        <ele>7.318967</ele>
        <time>2024-08-10T22:44:46.000Z</time>
      </trkpt>
      <trkpt lat="51.45719" lon="0.235792">
        <ele>6.804237</ele>
        <time>2024-08-10T22:44:55.000Z</time>
      </trkpt>
      <trkpt lat="51.457466" lon="0.234633">
        <ele>6.310079</ele>
        <time>2024-08-10T22:45:04.000Z</time>
      </trkpt>
      <trkpt lat="51.457461" lon="0.234629">
        <ele>6.310084</ele>
        <time>2024-08-10T22:45:04.000Z</time>
      </trkpt>
      <trkpt lat="51.457827" lon="0.233618">
        <ele>5.884058</ele>
        <time>2024-08-10T22:45:12.000Z</time>
      </trkpt>
      <trkpt lat="51.458177" lon="0.232591">
        <ele>5.457732</ele>
        <time>2024-08-10T22:45:20.000Z</time>
      </trkpt>
      <trkpt lat="51.458172" lon="0.232592">
        <ele>5.457733</ele>
        <time>2024-08-10T22:45:20.000Z</time>
      </trkpt>
      <trkpt lat="51.458698" lon="0.231644">
        <ele>5.400054</ele>
        <time>2024-08-10T22:45:29.000Z</time>
      </trkpt>
      <trkpt lat="51.458705" lon="0.231647">
        <ele>5.400067</ele>
        <time>2024-08-10T22:45:29.000Z</time>
      </trkpt>
      <trkpt lat="51.45869" lon="0.231649">
        <ele>5.400059</ele>
        <time>2024-08-10T22:45:29.000Z</time>
      </trkpt>
      <trkpt lat="51.459106" lon="0.2312">
        <ele>5.385565</ele>
        <time>2024-08-10T22:45:35.000Z</time>
      </trkpt>
      <trkpt lat="51.459105" lon="0.231211">
        <ele>5.385569</ele>
        <time>2024-08-10T22:45:35.000Z</time>
      </trkpt>
      <trkpt lat="51.459107" lon="0.231202">
        <ele>5.385572</ele>
        <time>2024-08-10T22:45:35.000Z</time>
      </trkpt>
      <trkpt lat="51.459156" lon="0.230629">
        <ele>5.375161</ele>
        <time>2024-08-10T22:45:39.000Z</time>
      </trkpt>
      <trkpt lat="51.459152" lon="0.230633">
        <ele>5.375168</ele>
        <time>2024-08-10T22:45:39.000Z</time>
      </trkpt>
      <trkpt lat="51.459149" lon="0.230632">
        <ele>5.375162</ele>
        <time>2024-08-10T22:45:39.000Z</time>
      </trkpt>
      <trkpt lat="51.459279" lon="0.229847">
        <ele>5.488626</ele>
        <time>2024-08-10T22:45:45.000Z</time>
      </trkpt>
      <trkpt lat="51.459388" lon="0.229073">
        <ele>5.698492</ele>
        <time>2024-08-10T22:45:50.000Z</time>
      </trkpt>
      <trkpt lat="51.459401" lon="0.229083">
        <ele>5.698503</ele>
        <time>2024-08-10T22:45:50.000Z</time>
      </trkpt>
      <trkpt lat="51.459388" lon="0.229079">
        <ele>5.698499</ele>
        <time>2024-08-10T22:45:50.000Z</time>
      </trkpt>
      <trkpt lat="51.459452" lon="0.228188">
        <ele>5.935683</ele>
        <time>2024-08-10T22:45:56.000Z</time>
      </trkpt>
      <trkpt lat="51.459506" lon="0.227284">
        <ele>6.148561</ele>
        <time>2024-08-10T22:46:02.000Z</time>
      </trkpt>
      <trkpt lat="51.459493" lon="0.227288">
        <ele>6.148547</ele>
        <time>2024-08-10T22:46:02.000Z</time>
      </trkpt>
      <trkpt lat="51.459473" lon="0.226107">
        <ele>6.294191</ele>
        <time>2024-08-10T22:46:10.000Z</time>
      </trkpt>
      <trkpt lat="51.459452" lon="0.224921">
        <ele>6.439721</ele>
        <time>2024-08-10T22:46:18.000Z</time>
      </trkpt>
      <trkpt lat="51.45944" lon="0.223727">
        <ele>6.468517</ele>
        <time>2024-08-10T22:46:26.000Z</time>
      </trkpt>
      <trkpt lat="51.45944" lon="0.223726">
        <ele>6.468531</ele>
        <time>2024-08-10T22:46:26.000Z</time>
      </trkpt>
      <trkpt lat="51.459397" lon="0.222659">
        <ele>6.450785</ele>
        <time>2024-08-10T22:46:33.000Z</time>
      </trkpt>
      <trkpt lat="51.459347" lon="0.221606">
        <ele>6.434763</ele>
        <time>2024-08-10T22:46:40.000Z</time>
      </trkpt>
      <trkpt lat="51.459305" lon="0.220544">
        <ele>6.437796</ele>
        <time>2024-08-10T22:46:47.000Z</time>
      </trkpt>
      <trkpt lat="51.459293" lon="0.220545">
        <ele>6.437797</ele>
        <time>2024-08-10T22:46:47.000Z</time>
      </trkpt>
      <trkpt lat="51.459312" lon="0.22124">
        <ele>6.439768</ele>
        <time>2024-08-10T22:46:52.000Z</time>
      </trkpt>
      <trkpt lat="51.459436" lon="0.223708">
        <ele>6.491722</ele>
        <time>2024-08-10T22:47:09.000Z</time>
      </trkpt>
      <trkpt lat="51.459501" lon="0.227309">
        <ele>6.333365</ele>
        <time>2024-08-10T22:47:34.000Z</time>
      </trkpt>
      <trkpt lat="51.459483" lon="0.228237">
        <ele>6.178542</ele>
        <time>2024-08-10T22:47:40.000Z</time>
      </trkpt>
      <trkpt lat="51.459372" lon="0.229411">
        <ele>5.677097</ele>
        <time>2024-08-10T22:47:48.000Z</time>
      </trkpt>
      <trkpt lat="51.459299" lon="0.229778">
        <ele>5.515206</ele>
        <time>2024-08-10T22:47:51.000Z</time>
      </trkpt>
      <trkpt lat="51.459165" lon="0.230436">
        <ele>5.226165</ele>
        <time>2024-08-10T22:47:56.000Z</time>
      </trkpt>
      <trkpt lat="51.459148" lon="0.230713">
        <ele>5.10785</ele>
        <time>2024-08-10T22:47:58.000Z</time>
      </trkpt>
      <trkpt lat="51.459125" lon="0.230974">
        <ele>5.050382</ele>
        <time>2024-08-10T22:48:00.000Z</time>
      </trkpt>
      <trkpt lat="51.459143" lon="0.231008">
        <ele>5.050618</ele>
        <time>2024-08-10T22:48:00.000Z</time>
      </trkpt>
      <trkpt lat="51.459225" lon="0.231112">
        <ele>5.051762</ele>
        <time>2024-08-10T22:48:01.000Z</time>
      </trkpt>
      <trkpt lat="51.459482" lon="0.231347">
        <ele>5.054746</ele>
        <time>2024-08-10T22:48:04.000Z</time>
      </trkpt>
      <trkpt lat="51.45978" lon="0.23179">
        <ele>5.059071</ele>
        <time>2024-08-10T22:48:09.000Z</time>
      </trkpt>
      <trkpt lat="51.460019" lon="0.231916">
        <ele>5.061524</ele>
        <time>2024-08-10T22:48:12.000Z</time>
      </trkpt>
      <trkpt lat="51.460133" lon="0.231891">
        <ele>5.062714</ele>
        <time>2024-08-10T22:48:13.000Z</time>
      </trkpt>
      <trkpt lat="51.460191" lon="0.23182">
        <ele>5.063529</ele>
        <time>2024-08-10T22:48:14.000Z</time>
      </trkpt>
      <trkpt lat="51.460225" lon="0.231757">
        <ele>5.064016</ele>
        <time>2024-08-10T22:48:15.000Z</time>
      </trkpt>
      <trkpt lat="51.460259" lon="0.231707">
        <ele>5.0645</ele>
        <time>2024-08-10T22:48:16.000Z</time>
      </trkpt>
      <trkpt lat="51.46032" lon="0.231665">
        <ele>5.065133</ele>
        <time>2024-08-10T22:48:17.000Z</time>
      </trkpt>
      <trkpt lat="51.460383" lon="0.231684">
        <ele>5.065759</ele>
        <time>2024-08-10T22:48:18.000Z</time>
      </trkpt>
      <trkpt lat="51.460413" lon="0.231712">
        <ele>5.066254</ele>
        <time>2024-08-10T22:48:18.000Z</time>
      </trkpt>
      <trkpt lat="51.460447" lon="0.231755">
        <ele>5.066746</ele>
        <time>2024-08-10T22:48:18.000Z</time>
      </trkpt>
      <trkpt lat="51.460557" lon="0.231804">
        <ele>5.067804</ele>
        <time>2024-08-10T22:48:19.000Z</time>
      </trkpt>
      <trkpt lat="51.460658" lon="0.231848">
        <ele>5.110532</ele>
        <time>2024-08-10T22:48:20.000Z</time>
      </trkpt>
      <trkpt lat="51.460789" lon="0.231899">
        <ele>5.18559</ele>
        <time>2024-08-10T22:48:21.000Z</time>
      </trkpt>
      <trkpt lat="51.461356" lon="0.231956">
        <ele>5.520307</ele>
        <time>2024-08-10T22:48:27.000Z</time>
      </trkpt>
      <trkpt lat="51.461423" lon="0.231963">
        <ele>5.563287</ele>
        <time>2024-08-10T22:48:28.000Z</time>
      </trkpt>
      <trkpt lat="51.461452" lon="0.231838">
        <ele>5.616217</ele>
        <time>2024-08-10T22:48:29.000Z</time>
      </trkpt>
      <trkpt lat="51.461514" lon="0.2316">
        <ele>5.709733</ele>
        <time>2024-08-10T22:48:31.000Z</time>
      </trkpt>
      <trkpt lat="51.461567" lon="0.231345">
        <ele>5.806961</ele>
        <time>2024-08-10T22:48:33.000Z</time>
      </trkpt>
      <trkpt lat="51.461604" lon="0.231146">
        <ele>5.885201</ele>
        <time>2024-08-10T22:48:34.000Z</time>
      </trkpt>
      <trkpt lat="51.461666" lon="0.230493">
        <ele>6.121089</ele>
        <time>2024-08-10T22:48:39.000Z</time>
      </trkpt>
      <trkpt lat="51.461844" lon="0.226906">
        <ele>7.47118</ele>
        <time>2024-08-10T22:49:04.000Z</time>
      </trkpt>
      <trkpt lat="51.461864" lon="0.226726">
        <ele>7.496717</ele>
        <time>2024-08-10T22:49:05.000Z</time>
      </trkpt>
      <trkpt lat="51.46184" lon="0.226365">
        <ele>7.547798</ele>
        <time>2024-08-10T22:49:08.000Z</time>
      </trkpt>
      <trkpt lat="51.461828" lon="0.226209">
        <ele>7.57016</ele>
        <time>2024-08-10T22:49:09.000Z</time>
      </trkpt>
      <trkpt lat="51.46098" lon="0.224089">
        <ele>7.739276</ele>
        <time>2024-08-10T22:49:26.000Z</time>
      </trkpt>
      <trkpt lat="51.460799" lon="0.223753">
        <ele>7.722919</ele>
        <time>2024-08-10T22:49:29.000Z</time>
      </trkpt>
      <trkpt lat="51.460528" lon="0.223436">
        <ele>7.702995</ele>
        <time>2024-08-10T22:49:33.000Z</time>
      </trkpt>
      <trkpt lat="51.460504" lon="0.223414">
        <ele>7.701075</ele>
        <time>2024-08-10T22:49:33.000Z</time>
      </trkpt>
      <trkpt lat="51.460495" lon="0.223405">
        <ele>7.700442</ele>
        <time>2024-08-10T22:49:33.000Z</time>
      </trkpt>
      <trkpt lat="51.460503" lon="0.223405">
        <ele>7.700453</ele>
        <time>2024-08-10T22:49:33.000Z</time>
      </trkpt>
      <trkpt lat="51.460503" lon="0.223412">
        <ele>7.700452</ele>
        <time>2024-08-10T22:49:33.000Z</time>
      </trkpt>
      <trkpt lat="51.460506" lon="0.22341">
        <ele>7.699833</ele>
        <time>2024-08-10T22:49:33.000Z</time>
      </trkpt>
      <trkpt lat="51.460526" lon="0.223438">
        <ele>7.697903</ele>
        <time>2024-08-10T22:49:33.000Z</time>
      </trkpt>
      <trkpt lat="51.460799" lon="0.223768">
        <ele>7.677967</ele>
        <time>2024-08-10T22:49:37.000Z</time>
      </trkpt>
      <trkpt lat="51.460982" lon="0.224081">
        <ele>7.674242</ele>
        <time>2024-08-10T22:49:40.000Z</time>
      </trkpt>
      <trkpt lat="51.461829" lon="0.226201">
        <ele>7.723571</ele>
        <time>2024-08-10T22:49:57.000Z</time>
      </trkpt>
      <trkpt lat="51.46185" lon="0.226366">
        <ele>7.721763</ele>
        <time>2024-08-10T22:49:58.000Z</time>
      </trkpt>
      <trkpt lat="51.461852" lon="0.226718">
        <ele>7.580565</ele>
        <time>2024-08-10T22:50:00.000Z</time>
      </trkpt>
      <trkpt lat="51.461846" lon="0.226913">
        <ele>7.509987</ele>
        <time>2024-08-10T22:50:01.000Z</time>
      </trkpt>
      <trkpt lat="51.461676" lon="0.230502">
        <ele>6.169785</ele>
        <time>2024-08-10T22:50:26.000Z</time>
      </trkpt>
      <trkpt lat="51.46161" lon="0.23114">
        <ele>5.951925</ele>
        <time>2024-08-10T22:50:30.000Z</time>
      </trkpt>
      <trkpt lat="51.46158" lon="0.231346">
        <ele>5.879655</ele>
        <time>2024-08-10T22:50:31.000Z</time>
      </trkpt>
      <trkpt lat="51.461531" lon="0.231588">
        <ele>5.789858</ele>
        <time>2024-08-10T22:50:33.000Z</time>
      </trkpt>
      <trkpt lat="51.461465" lon="0.231835">
        <ele>5.703507</ele>
        <time>2024-08-10T22:50:35.000Z</time>
      </trkpt>
      <trkpt lat="51.461415" lon="0.231952">
        <ele>5.654607</ele>
        <time>2024-08-10T22:50:36.000Z</time>
      </trkpt>
      <trkpt lat="51.46138" lon="0.232058">
        <ele>5.621684</ele>
        <time>2024-08-10T22:50:37.000Z</time>
      </trkpt>
      <trkpt lat="51.461314" lon="0.232247">
        <ele>5.598067</ele>
        <time>2024-08-10T22:50:39.000Z</time>
      </trkpt>
      <trkpt lat="51.461269" lon="0.232408">
        <ele>5.578104</ele>
        <time>2024-08-10T22:50:40.000Z</time>
      </trkpt>
      <trkpt lat="51.460682" lon="0.233725">
        <ele>5.39879</ele>
        <time>2024-08-10T22:50:51.000Z</time>
      </trkpt>
      <trkpt lat="51.46034" lon="0.235048">
        <ele>5.127674</ele>
        <time>2024-08-10T22:51:01.000Z</time>
      </trkpt>
      <trkpt lat="51.46032" lon="0.235221">
        <ele>5.072945</ele>
        <time>2024-08-10T22:51:02.000Z</time>
      </trkpt>
      <trkpt lat="51.46027" lon="0.235734">
        <ele>4.911191</ele>
        <time>2024-08-10T22:51:06.000Z</time>
      </trkpt>
      <trkpt lat="51.460285" lon="0.235752">
        <ele>4.909968</ele>
        <time>2024-08-10T22:51:06.000Z</time>
      </trkpt>
      <trkpt lat="51.460241" lon="0.236066">
        <ele>4.810754</ele>
        <time>2024-08-10T22:51:08.000Z</time>
      </trkpt>
      <trkpt lat="51.46026" lon="0.237586">
        <ele>4.383899</ele>
        <time>2024-08-10T22:51:19.000Z</time>
      </trkpt>
      <trkpt lat="51.460197" lon="0.238157">
        <ele>4.299734</ele>
        <time>2024-08-10T22:51:23.000Z</time>
      </trkpt>
      <trkpt lat="51.460115" lon="0.23864">
        <ele>4.227873</ele>
        <time>2024-08-10T22:51:26.000Z</time>
      </trkpt>
      <trkpt lat="51.460101" lon="0.238684">
        <ele>4.219369</ele>
        <time>2024-08-10T22:51:26.000Z</time>
      </trkpt>
      <trkpt lat="51.460055" lon="0.238849">
        <ele>4.194109</ele>
        <time>2024-08-10T22:51:27.000Z</time>
      </trkpt>
      <trkpt lat="51.459601" lon="0.240157">
        <ele>4.006241</ele>
        <time>2024-08-10T22:51:37.000Z</time>
      </trkpt>
      <trkpt lat="51.45931" lon="0.240728">
        <ele>4.01867</ele>
        <time>2024-08-10T22:51:42.000Z</time>
      </trkpt>
      <trkpt lat="51.458611" lon="0.241561">
        <ele>4.041993</ele>
        <time>2024-08-10T22:51:52.000Z</time>
      </trkpt>
      <trkpt lat="51.458554" lon="0.241611">
        <ele>4.043421</ele>
        <time>2024-08-10T22:51:53.000Z</time>
      </trkpt>
      <trkpt lat="51.458559" lon="0.241603">
        <ele>4.04349</ele>
        <time>2024-08-10T22:51:53.000Z</time>
      </trkpt>
      <trkpt lat="51.458557" lon="0.241608">
        <ele>4.043548</ele>
        <time>2024-08-10T22:51:53.000Z</time>
      </trkpt>
      <trkpt lat="51.458557" lon="0.241616">
        <ele>4.043604</ele>
        <time>2024-08-10T22:51:53.000Z</time>
      </trkpt>
      <trkpt lat="51.458551" lon="0.241599">
        <ele>4.043656</ele>
        <time>2024-08-10T22:51:53.000Z</time>
      </trkpt>
      <trkpt lat="51.458596" lon="0.241562">
        <ele>4.045087</ele>
        <time>2024-08-10T22:51:54.000Z</time>
      </trkpt>
      <trkpt lat="51.459308" lon="0.240721">
        <ele>4.043078</ele>
        <time>2024-08-10T22:52:04.000Z</time>
      </trkpt>
      <trkpt lat="51.459604" lon="0.240147">
        <ele>4.036875</ele>
        <time>2024-08-10T22:52:09.000Z</time>
      </trkpt>
      <trkpt lat="51.460041" lon="0.238843">
        <ele>4.120434</ele>
        <time>2024-08-10T22:52:19.000Z</time>
      </trkpt>
      <trkpt lat="51.460094" lon="0.238684">
        <ele>4.164887</ele>
        <time>2024-08-10T22:52:20.000Z</time>
      </trkpt>
      <trkpt lat="51.460106" lon="0.238633">
        <ele>4.179875</ele>
        <time>2024-08-10T22:52:20.000Z</time>
      </trkpt>
      <trkpt lat="51.460212" lon="0.238155">
        <ele>4.306369</ele>
        <time>2024-08-10T22:52:24.000Z</time>
      </trkpt>
      <trkpt lat="51.460261" lon="0.237586">
        <ele>4.454512</ele>
        <time>2024-08-10T22:52:28.000Z</time>
      </trkpt>
      <trkpt lat="51.460249" lon="0.236067">
        <ele>4.836641</ele>
        <time>2024-08-10T22:52:39.000Z</time>
      </trkpt>
      <trkpt lat="51.460278" lon="0.235752">
        <ele>4.915186</ele>
        <time>2024-08-10T22:52:41.000Z</time>
      </trkpt>
      <trkpt lat="51.460277" lon="0.235747">
        <ele>4.916174</ele>
        <time>2024-08-10T22:52:41.000Z</time>
      </trkpt>
      <trkpt lat="51.460324" lon="0.235213">
        <ele>5.044238</ele>
        <time>2024-08-10T22:52:45.000Z</time>
      </trkpt>
      <trkpt lat="51.460332" lon="0.235037">
        <ele>5.087571</ele>
        <time>2024-08-10T22:52:46.000Z</time>
      </trkpt>
      <trkpt lat="51.460671" lon="0.233721">
        <ele>5.433122</ele>
        <time>2024-08-10T22:52:56.000Z</time>
      </trkpt>
      <trkpt lat="51.461252" lon="0.232399">
        <ele>5.356684</ele>
        <time>2024-08-10T22:53:07.000Z</time>
      </trkpt>
      <trkpt lat="51.461327" lon="0.232246">
        <ele>5.344087</ele>
        <time>2024-08-10T22:53:08.000Z</time>
      </trkpt>
      <trkpt lat="51.461394" lon="0.232056">
        <ele>5.329171</ele>
        <time>2024-08-10T22:53:10.000Z</time>
      </trkpt>
      <trkpt lat="51.461421" lon="0.231954">
        <ele>5.3211</ele>
        <time>2024-08-10T22:53:11.000Z</time>
      </trkpt>
      <trkpt lat="51.461382" lon="0.231957">
        <ele>5.317863</ele>
        <time>2024-08-10T22:53:11.000Z</time>
      </trkpt>
      <trkpt lat="51.46139" lon="0.231956">
        <ele>5.317638</ele>
        <time>2024-08-10T22:53:11.000Z</time>
      </trkpt>
      <trkpt lat="51.461378" lon="0.231958">
        <ele>5.317426</ele>
        <time>2024-08-10T22:53:11.000Z</time>
      </trkpt>
      <trkpt lat="51.461393" lon="0.231962">
        <ele>5.317303</ele>
        <time>2024-08-10T22:53:11.000Z</time>
      </trkpt>
      <trkpt lat="51.461381" lon="0.231961">
        <ele>5.317093</ele>
        <time>2024-08-10T22:53:11.000Z</time>
      </trkpt>
      <trkpt lat="51.461386" lon="0.231958">
        <ele>5.316973</ele>
        <time>2024-08-10T22:53:11.000Z</time>
      </trkpt>
      <trkpt lat="51.461387" lon="0.23195">
        <ele>5.316754</ele>
        <time>2024-08-10T22:53:11.000Z</time>
      </trkpt>
      <trkpt lat="51.46134" lon="0.231959">
        <ele>5.312946</ele>
        <time>2024-08-10T22:53:12.000Z</time>
      </trkpt>
      <trkpt lat="51.460785" lon="0.231891">
        <ele>5.229187</ele>
        <time>2024-08-10T22:53:18.000Z</time>
      </trkpt>
      <trkpt lat="51.460694" lon="0.231896">
        <ele>5.203378</ele>
        <time>2024-08-10T22:53:19.000Z</time>
      </trkpt>
      <trkpt lat="51.460641" lon="0.231913">
        <ele>5.18607</ele>
        <time>2024-08-10T22:53:20.000Z</time>
      </trkpt>
      <trkpt lat="51.460563" lon="0.231928">
        <ele>5.163003</ele>
        <time>2024-08-10T22:53:21.000Z</time>
      </trkpt>
      <trkpt lat="51.460478" lon="0.23198">
        <ele>5.130082</ele>
        <time>2024-08-10T22:53:22.000Z</time>
      </trkpt>
      <trkpt lat="51.460444" lon="0.23205">
        <ele>5.116769</ele>
        <time>2024-08-10T22:53:23.000Z</time>
      </trkpt>
      <trkpt lat="51.460381" lon="0.232124">
        <ele>5.090424</ele>
        <time>2024-08-10T22:53:24.000Z</time>
      </trkpt>
      <trkpt lat="51.460349" lon="0.232142">
        <ele>5.07723</ele>
        <time>2024-08-10T22:53:24.000Z</time>
      </trkpt>
      <trkpt lat="51.460309" lon="0.23213">
        <ele>5.064612</ele>
        <time>2024-08-10T22:53:24.000Z</time>
      </trkpt>
      <trkpt lat="51.460293" lon="0.232133">
        <ele>5.063677</ele>
        <time>2024-08-10T22:53:24.000Z</time>
      </trkpt>
      <trkpt lat="51.460291" lon="0.232127">
        <ele>5.062708</ele>
        <time>2024-08-10T22:53:24.000Z</time>
      </trkpt>
      <trkpt lat="51.460292" lon="0.232137">
        <ele>5.0624</ele>
        <time>2024-08-10T22:53:24.000Z</time>
      </trkpt>
      <trkpt lat="51.460291" lon="0.232133">
        <ele>5.062402</ele>
        <time>2024-08-10T22:53:24.000Z</time>
      </trkpt>
      <trkpt lat="51.460293" lon="0.232124">
        <ele>5.062031</ele>
        <time>2024-08-10T22:53:24.000Z</time>
      </trkpt>
      <trkpt lat="51.460291" lon="0.232123">
        <ele>5.061668</ele>
        <time>2024-08-10T22:53:24.000Z</time>
      </trkpt>
      <trkpt lat="51.460298" lon="0.232134">
        <ele>5.061002</ele>
        <time>2024-08-10T22:53:24.000Z</time>
      </trkpt>
      <trkpt lat="51.460256" lon="0.23211">
        <ele>5.047665</ele>
        <time>2024-08-10T22:53:24.000Z</time>
      </trkpt>
      <trkpt lat="51.46022" lon="0.23206">
        <ele>5.032956</ele>
        <time>2024-08-10T22:53:25.000Z</time>
      </trkpt>
      <trkpt lat="51.460156" lon="0.232059">
        <ele>5.011914</ele>
        <time>2024-08-10T22:53:26.000Z</time>
      </trkpt>
      <trkpt lat="51.45981" lon="0.231966">
        <ele>4.901781</ele>
        <time>2024-08-10T22:53:30.000Z</time>
      </trkpt>
      <trkpt lat="51.459451" lon="0.231507">
        <ele>4.760629</ele>
        <time>2024-08-10T22:53:35.000Z</time>
      </trkpt>
      <trkpt lat="51.459175" lon="0.23133">
        <ele>4.73507</ele>
        <time>2024-08-10T22:53:38.000Z</time>
      </trkpt>
      <trkpt lat="51.459064" lon="0.231315">
        <ele>4.777138</ele>
        <time>2024-08-10T22:53:39.000Z</time>
      </trkpt>
      <trkpt lat="51.459015" lon="0.231371">
        <ele>4.795825</ele>
        <time>2024-08-10T22:53:40.000Z</time>
      </trkpt>
      <trkpt lat="51.458977" lon="0.231386">
        <ele>4.814196</ele>
        <time>2024-08-10T22:53:40.000Z</time>
      </trkpt>
      <trkpt lat="51.458762" lon="0.231575">
        <ele>4.905185</ele>
        <time>2024-08-10T22:53:43.000Z</time>
      </trkpt>
      <trkpt lat="51.458709" lon="0.231628">
        <ele>4.926996</ele>
        <time>2024-08-10T22:53:44.000Z</time>
      </trkpt>
      <trkpt lat="51.458709" lon="0.231626">
        <ele>4.928322</ele>
        <time>2024-08-10T22:53:44.000Z</time>
      </trkpt>
      <trkpt lat="51.458708" lon="0.231644">
        <ele>4.928766</ele>
        <time>2024-08-10T22:53:44.000Z</time>
      </trkpt>
      <trkpt lat="51.458707" lon="0.231643">
        <ele>4.929659</ele>
        <time>2024-08-10T22:53:44.000Z</time>
      </trkpt>
      <trkpt lat="51.458698" lon="0.231632">
        <ele>4.930559</ele>
        <time>2024-08-10T22:53:44.000Z</time>
      </trkpt>
      <trkpt lat="51.458707" lon="0.231634">
        <ele>4.930996</ele>
        <time>2024-08-10T22:53:44.000Z</time>
      </trkpt>
      <trkpt lat="51.458711" lon="0.231649">
        <ele>4.9319</ele>
        <time>2024-08-10T22:53:44.000Z</time>
      </trkpt>
      <trkpt lat="51.458708" lon="0.231652">
        <ele>4.932498</ele>
        <time>2024-08-10T22:53:44.000Z</time>
      </trkpt>
      <trkpt lat="51.458696" lon="0.231644">
        <ele>4.932505</ele>
        <time>2024-08-10T22:53:44.000Z</time>
      </trkpt>
      <trkpt lat="51.458705" lon="0.231643">
        <ele>4.932948</ele>
        <time>2024-08-10T22:53:44.000Z</time>
      </trkpt>
      <trkpt lat="51.458693" lon="0.231643">
        <ele>4.933748</ele>
        <time>2024-08-10T22:53:44.000Z</time>
      </trkpt>
      <trkpt lat="51.458707" lon="0.231654">
        <ele>4.934357</ele>
        <time>2024-08-10T22:53:44.000Z</time>
      </trkpt>
      <trkpt lat="51.458703" lon="0.231647">
        <ele>4.935241</ele>
        <time>2024-08-10T22:53:44.000Z</time>
      </trkpt>
      <trkpt lat="51.458693" lon="0.231649">
        <ele>4.935847</ele>
        <time>2024-08-10T22:53:44.000Z</time>
      </trkpt>
      <trkpt lat="51.45819" lon="0.232568">
        <ele>5.226372</ele>
        <time>2024-08-10T22:53:52.000Z</time>
      </trkpt>
      <trkpt lat="51.458187" lon="0.232581">
        <ele>5.228795</ele>
        <time>2024-08-10T22:53:52.000Z</time>
      </trkpt>
      <trkpt lat="51.458171" lon="0.232578">
        <ele>5.230195</ele>
        <time>2024-08-10T22:53:52.000Z</time>
      </trkpt>
      <trkpt lat="51.458189" lon="0.232592">
        <ele>5.230671</ele>
        <time>2024-08-10T22:53:52.000Z</time>
      </trkpt>
      <trkpt lat="51.458182" lon="0.23258">
        <ele>5.231103</ele>
        <time>2024-08-10T22:53:52.000Z</time>
      </trkpt>
      <trkpt lat="51.45817" lon="0.232587">
        <ele>5.231914</ele>
        <time>2024-08-10T22:53:52.000Z</time>
      </trkpt>
      <trkpt lat="51.458175" lon="0.232587">
        <ele>5.232367</ele>
        <time>2024-08-10T22:53:52.000Z</time>
      </trkpt>
      <trkpt lat="51.45817" lon="0.2326">
        <ele>5.23281</ele>
        <time>2024-08-10T22:53:52.000Z</time>
      </trkpt>
      <trkpt lat="51.458173" lon="0.232589">
        <ele>5.233283</ele>
        <time>2024-08-10T22:53:52.000Z</time>
      </trkpt>
      <trkpt lat="51.458177" lon="0.2326">
        <ele>5.233883</ele>
        <time>2024-08-10T22:53:52.000Z</time>
      </trkpt>
      <trkpt lat="51.458179" lon="0.232593">
        <ele>5.234494</ele>
        <time>2024-08-10T22:53:52.000Z</time>
      </trkpt>
      <trkpt lat="51.458168" lon="0.232593">
        <ele>5.235094</ele>
        <time>2024-08-10T22:53:52.000Z</time>
      </trkpt>
      <trkpt lat="51.458183" lon="0.23261">
        <ele>5.235566</ele>
        <time>2024-08-10T22:53:52.000Z</time>
      </trkpt>
      <trkpt lat="51.458171" lon="0.232613">
        <ele>5.236176</ele>
        <time>2024-08-10T22:53:52.000Z</time>
      </trkpt>
      <trkpt lat="51.458164" lon="0.232608">
        <ele>5.236767</ele>
        <time>2024-08-10T22:53:52.000Z</time>
      </trkpt>
      <trkpt lat="51.458175" lon="0.232607">
        <ele>5.23738</ele>
        <time>2024-08-10T22:53:52.000Z</time>
      </trkpt>
      <trkpt lat="51.457789" lon="0.23361">
        <ele>5.611555</ele>
        <time>2024-08-10T22:54:00.000Z</time>
      </trkpt>
      <trkpt lat="51.457472" lon="0.234617">
        <ele>6.049657</ele>
        <time>2024-08-10T22:54:08.000Z</time>
      </trkpt>
      <trkpt lat="51.457466" lon="0.234618">
        <ele>6.050057</ele>
        <time>2024-08-10T22:54:08.000Z</time>
      </trkpt>
      <trkpt lat="51.457477" lon="0.234607">
        <ele>6.050801</ele>
        <time>2024-08-10T22:54:08.000Z</time>
      </trkpt>
      <trkpt lat="51.457479" lon="0.234621">
        <ele>6.051577</ele>
        <time>2024-08-10T22:54:08.000Z</time>
      </trkpt>
      <trkpt lat="51.457476" lon="0.234623">
        <ele>6.052364</ele>
        <time>2024-08-10T22:54:08.000Z</time>
      </trkpt>
      <trkpt lat="51.457481" lon="0.234618">
        <ele>6.053114</ele>
        <time>2024-08-10T22:54:08.000Z</time>
      </trkpt>
      <trkpt lat="51.457467" lon="0.234617">
        <ele>6.053903</ele>
        <time>2024-08-10T22:54:08.000Z</time>
      </trkpt>
      <trkpt lat="51.457476" lon="0.234628">
        <ele>6.055242</ele>
        <time>2024-08-10T22:54:08.000Z</time>
      </trkpt>
      <trkpt lat="51.457468" lon="0.234616">
        <ele>6.056043</ele>
        <time>2024-08-10T22:54:08.000Z</time>
      </trkpt>
      <trkpt lat="51.457478" lon="0.234635">
        <ele>6.056788</ele>
        <time>2024-08-10T22:54:08.000Z</time>
      </trkpt>
      <trkpt lat="51.457476" lon="0.234634">
        <ele>6.057963</ele>
        <time>2024-08-10T22:54:08.000Z</time>
      </trkpt>
      <trkpt lat="51.457476" lon="0.234634">
        <ele>6.058721</ele>
        <time>2024-08-10T22:54:08.000Z</time>
      </trkpt>
      <trkpt lat="51.45747" lon="0.234626">
        <ele>6.059889</ele>
        <time>2024-08-10T22:54:08.000Z</time>
      </trkpt>
      <trkpt lat="51.457474" lon="0.234637">
        <ele>6.061962</ele>
        <time>2024-08-10T22:54:08.000Z</time>
      </trkpt>
      <trkpt lat="51.456917" lon="0.236939">
        <ele>7.156535</ele>
        <time>2024-08-10T22:54:25.000Z</time>
      </trkpt>
      <trkpt lat="51.456905" lon="0.236966">
        <ele>7.172233</ele>
        <time>2024-08-10T22:54:25.000Z</time>
      </trkpt>
      <trkpt lat="51.456912" lon="0.236974">
        <ele>7.173886</ele>
        <time>2024-08-10T22:54:25.000Z</time>
      </trkpt>
      <trkpt lat="51.456897" lon="0.236982">
        <ele>7.175139</ele>
        <time>2024-08-10T22:54:25.000Z</time>
      </trkpt>
      <trkpt lat="51.456899" lon="0.236971">
        <ele>7.176102</ele>
        <time>2024-08-10T22:54:25.000Z</time>
      </trkpt>
      <trkpt lat="51.456904" lon="0.236969">
        <ele>7.177351</ele>
        <time>2024-08-10T22:54:25.000Z</time>
      </trkpt>
      <trkpt lat="51.456908" lon="0.236983">
        <ele>7.178594</ele>
        <time>2024-08-10T22:54:25.000Z</time>
      </trkpt>
      <trkpt lat="51.456898" lon="0.236979">
        <ele>7.180688</ele>
        <time>2024-08-10T22:54:25.000Z</time>
      </trkpt>
      <trkpt lat="51.456897" lon="0.236982">
        <ele>7.181624</ele>
        <time>2024-08-10T22:54:25.000Z</time>
      </trkpt>
      <trkpt lat="51.45689" lon="0.236984">
        <ele>7.182588</ele>
        <time>2024-08-10T22:54:25.000Z</time>
      </trkpt>
      <trkpt lat="51.456899" lon="0.23698">
        <ele>7.183839</ele>
        <time>2024-08-10T22:54:25.000Z</time>
      </trkpt>
      <trkpt lat="51.45656" lon="0.237943">
        <ele>7.719099</ele>
        <time>2024-08-10T22:54:33.000Z</time>
      </trkpt>
      <trkpt lat="51.456546" lon="0.23797">
        <ele>7.734452</ele>
        <time>2024-08-10T22:54:33.000Z</time>
      </trkpt>
      <trkpt lat="51.456549" lon="0.237973">
        <ele>7.737343</ele>
        <time>2024-08-10T22:54:33.000Z</time>
      </trkpt>
      <trkpt lat="51.456547" lon="0.237978">
        <ele>7.738266</ele>
        <time>2024-08-10T22:54:33.000Z</time>
      </trkpt>
      <trkpt lat="51.456538" lon="0.237969">
        <ele>7.739922</ele>
        <time>2024-08-10T22:54:33.000Z</time>
      </trkpt>
      <trkpt lat="51.456535" lon="0.237979">
        <ele>7.74116</ele>
        <time>2024-08-10T22:54:33.000Z</time>
      </trkpt>
      <trkpt lat="51.456536" lon="0.23799">
        <ele>7.742999</ele>
        <time>2024-08-10T22:54:33.000Z</time>
      </trkpt>
      <trkpt lat="51.456543" lon="0.237984">
        <ele>7.744241</ele>
        <time>2024-08-10T22:54:33.000Z</time>
      </trkpt>
      <trkpt lat="51.456529" lon="0.237981">
        <ele>7.745905</ele>
        <time>2024-08-10T22:54:33.000Z</time>
      </trkpt>
      <trkpt lat="51.456543" lon="0.237994">
        <ele>7.748387</ele>
        <time>2024-08-10T22:54:33.000Z</time>
      </trkpt>
      <trkpt lat="51.456535" lon="0.238">
        <ele>7.750055</ele>
        <time>2024-08-10T22:54:33.000Z</time>
      </trkpt>
      <trkpt lat="51.456527" lon="0.237991">
        <ele>7.750976</ele>
        <time>2024-08-10T22:54:33.000Z</time>
      </trkpt>
      <trkpt lat="51.456524" lon="0.238005">
        <ele>7.752213</ele>
        <time>2024-08-10T22:54:33.000Z</time>
      </trkpt>
      <trkpt lat="51.456524" lon="0.238">
        <ele>7.753876</ele>
        <time>2024-08-10T22:54:33.000Z</time>
      </trkpt>
      <trkpt lat="51.456082" lon="0.238926">
        <ele>8.268751</ele>
        <time>2024-08-10T22:54:41.000Z</time>
      </trkpt>
      <trkpt lat="51.455855" lon="0.23929">
        <ele>8.489112</ele>
        <time>2024-08-10T22:54:45.000Z</time>
      </trkpt>
      <trkpt lat="51.45586" lon="0.23931">
        <ele>8.490975</ele>
        <time>2024-08-10T22:54:45.000Z</time>
      </trkpt>
      <trkpt lat="51.455856" lon="0.239302">
        <ele>8.492564</ele>
        <time>2024-08-10T22:54:45.000Z</time>
      </trkpt>
      <trkpt lat="51.455846" lon="0.239303">
        <ele>8.494007</ele>
        <time>2024-08-10T22:54:45.000Z</time>
      </trkpt>
      <trkpt lat="51.455843" lon="0.239313">
        <ele>8.494792</ele>
        <time>2024-08-10T22:54:45.000Z</time>
      </trkpt>
      <trkpt lat="51.455851" lon="0.23931">
        <ele>8.495599</ele>
        <time>2024-08-10T22:54:45.000Z</time>
      </trkpt>
      <trkpt lat="51.455857" lon="0.239311">
        <ele>8.496674</ele>
        <time>2024-08-10T22:54:45.000Z</time>
      </trkpt>
      <trkpt lat="51.455847" lon="0.239316">
        <ele>8.497759</ele>
        <time>2024-08-10T22:54:45.000Z</time>
      </trkpt>
      <trkpt lat="51.455846" lon="0.239308">
        <ele>8.49855</ele>
        <time>2024-08-10T22:54:45.000Z</time>
      </trkpt>
      <trkpt lat="51.455851" lon="0.239308">
        <ele>8.499636</ele>
        <time>2024-08-10T22:54:45.000Z</time>
      </trkpt>
      <trkpt lat="51.455776" lon="0.239434">
        <ele>8.572176</ele>
        <time>2024-08-10T22:54:46.000Z</time>
      </trkpt>
      <trkpt lat="51.455132" lon="0.240242">
        <ele>9.124189</ele>
        <time>2024-08-10T22:54:55.000Z</time>
      </trkpt>
      <trkpt lat="51.455116" lon="0.240238">
        <ele>9.126811</ele>
        <time>2024-08-10T22:54:55.000Z</time>
      </trkpt>
      <trkpt lat="51.455114" lon="0.240246">
        <ele>9.127618</ele>
        <time>2024-08-10T22:54:55.000Z</time>
      </trkpt>
      <trkpt lat="51.455121" lon="0.240236">
        <ele>9.128408</ele>
        <time>2024-08-10T22:54:55.000Z</time>
      </trkpt>
      <trkpt lat="51.455125" lon="0.240252">
        <ele>9.129204</ele>
        <time>2024-08-10T22:54:55.000Z</time>
      </trkpt>
      <trkpt lat="51.455117" lon="0.240251">
        <ele>9.130013</ele>
        <time>2024-08-10T22:54:55.000Z</time>
      </trkpt>
      <trkpt lat="51.455106" lon="0.240244">
        <ele>9.130801</ele>
        <time>2024-08-10T22:54:55.000Z</time>
      </trkpt>
      <trkpt lat="51.455112" lon="0.24025">
        <ele>9.132655</ele>
        <time>2024-08-10T22:54:55.000Z</time>
      </trkpt>
      <trkpt lat="51.455103" lon="0.240253">
        <ele>9.133459</ele>
        <time>2024-08-10T22:54:55.000Z</time>
      </trkpt>
      <trkpt lat="51.45512" lon="0.240253">
        <ele>9.134529</ele>
        <time>2024-08-10T22:54:55.000Z</time>
      </trkpt>
      <trkpt lat="51.455115" lon="0.240257">
        <ele>9.136127</ele>
        <time>2024-08-10T22:54:55.000Z</time>
      </trkpt>
      <trkpt lat="51.455099" lon="0.240247">
        <ele>9.136334</ele>
        <time>2024-08-10T22:54:55.000Z</time>
      </trkpt>
      <trkpt lat="51.455106" lon="0.240261">
        <ele>9.135957</ele>
        <time>2024-08-10T22:54:55.000Z</time>
      </trkpt>
      <trkpt lat="51.455113" lon="0.240254">
        <ele>9.135763</ele>
        <time>2024-08-10T22:54:55.000Z</time>
      </trkpt>
      <trkpt lat="51.455078" lon="0.240285">
        <ele>9.131182</ele>
        <time>2024-08-10T22:54:55.000Z</time>
      </trkpt>
      <trkpt lat="51.45469" lon="0.240624">
        <ele>9.060322</ele>
        <time>2024-08-10T22:55:00.000Z</time>
      </trkpt>
      <trkpt lat="51.454604" lon="0.240683">
        <ele>9.046297</ele>
        <time>2024-08-10T22:55:01.000Z</time>
      </trkpt>
      <trkpt lat="51.454598" lon="0.240677">
        <ele>9.045969</ele>
        <time>2024-08-10T22:55:01.000Z</time>
      </trkpt>
      <trkpt lat="51.454596" lon="0.240696">
        <ele>9.045598</ele>
        <time>2024-08-10T22:55:01.000Z</time>
      </trkpt>
      <trkpt lat="51.454608" lon="0.240679">
        <ele>9.045402</ele>
        <time>2024-08-10T22:55:01.000Z</time>
      </trkpt>
      <trkpt lat="51.454602" lon="0.240695">
        <ele>9.045026</ele>
        <time>2024-08-10T22:55:01.000Z</time>
      </trkpt>
      <trkpt lat="51.454593" lon="0.240693">
        <ele>9.045021</ele>
        <time>2024-08-10T22:55:01.000Z</time>
      </trkpt>
      <trkpt lat="51.45461" lon="0.24069">
        <ele>9.045026</ele>
        <time>2024-08-10T22:55:01.000Z</time>
      </trkpt>
      <trkpt lat="51.455115" lon="0.240244">
        <ele>8.951405</ele>
        <time>2024-08-10T22:55:07.000Z</time>
      </trkpt>
      <trkpt lat="51.455123" lon="0.24025">
        <ele>8.95141</ele>
        <time>2024-08-10T22:55:07.000Z</time>
      </trkpt>
      <trkpt lat="51.45549" lon="0.239765">
        <ele>8.876819</ele>
        <time>2024-08-10T22:55:12.000Z</time>
      </trkpt>
      <trkpt lat="51.455859" lon="0.239308">
        <ele>8.622905</ele>
        <time>2024-08-10T22:55:17.000Z</time>
      </trkpt>
      <trkpt lat="51.455857" lon="0.239307">
        <ele>8.622894</ele>
        <time>2024-08-10T22:55:17.000Z</time>
      </trkpt>
      <trkpt lat="51.456195" lon="0.238648">
        <ele>8.224979</ele>
        <time>2024-08-10T22:55:23.000Z</time>
      </trkpt>
      <trkpt lat="51.456532" lon="0.238">
        <ele>7.826228</ele>
        <time>2024-08-10T22:55:29.000Z</time>
      </trkpt>
      <trkpt lat="51.456534" lon="0.237986">
        <ele>7.826223</ele>
        <time>2024-08-10T22:55:29.000Z</time>
      </trkpt>
      <trkpt lat="51.456912" lon="0.236978">
        <ele>7.285558</ele>
        <time>2024-08-10T22:55:37.000Z</time>
      </trkpt>
      <trkpt lat="51.456905" lon="0.236975">
        <ele>7.285557</ele>
        <time>2024-08-10T22:55:37.000Z</time>
      </trkpt>
      <trkpt lat="51.457185" lon="0.235788">
        <ele>6.722294</ele>
        <time>2024-08-10T22:55:46.000Z</time>
      </trkpt>
      <trkpt lat="51.457476" lon="0.234611">
        <ele>6.16676</ele>
        <time>2024-08-10T22:55:55.000Z</time>
      </trkpt>
      <trkpt lat="51.45748" lon="0.234625">
        <ele>6.166749</ele>
        <time>2024-08-10T22:55:55.000Z</time>
      </trkpt>
      <trkpt lat="51.45782" lon="0.233605">
        <ele>5.71874</ele>
        <time>2024-08-10T22:56:03.000Z</time>
      </trkpt>
      <trkpt lat="51.458185" lon="0.232598">
        <ele>5.27074</ele>
        <time>2024-08-10T22:56:11.000Z</time>
      </trkpt>
      <trkpt lat="51.458175" lon="0.232593">
        <ele>5.270735</ele>
        <time>2024-08-10T22:56:11.000Z</time>
      </trkpt>
      <trkpt lat="51.458715" lon="0.231643">
        <ele>5.183733</ele>
        <time>2024-08-10T22:56:20.000Z</time>
      </trkpt>
      <trkpt lat="51.458713" lon="0.231639">
        <ele>5.183732</ele>
        <time>2024-08-10T22:56:20.000Z</time>
      </trkpt>
      <trkpt lat="51.458708" lon="0.231643">
        <ele>5.183735</ele>
        <time>2024-08-10T22:56:20.000Z</time>
      </trkpt>
      <trkpt lat="51.459115" lon="0.2312">
        <ele>5.258661</ele>
        <time>2024-08-10T22:56:25.000Z</time>
      </trkpt>
      <trkpt lat="51.459115" lon="0.231212">
        <ele>5.258654</ele>
        <time>2024-08-10T22:56:25.000Z</time>
      </trkpt>
      <trkpt lat="51.459119" lon="0.231204">
        <ele>5.258654</ele>
        <time>2024-08-10T22:56:25.000Z</time>
      </trkpt>
      <trkpt lat="51.459156" lon="0.230623">
        <ele>5.314987</ele>
        <time>2024-08-10T22:56:29.000Z</time>
      </trkpt>
      <trkpt lat="51.459147" lon="0.230625">
        <ele>5.314998</ele>
        <time>2024-08-10T22:56:29.000Z</time>
      </trkpt>
      <trkpt lat="51.459155" lon="0.230631">
        <ele>5.314989</ele>
        <time>2024-08-10T22:56:29.000Z</time>
      </trkpt>
      <trkpt lat="51.459271" lon="0.229844">
        <ele>5.414391</ele>
        <time>2024-08-10T22:56:35.000Z</time>
      </trkpt>
      <trkpt lat="51.459404" lon="0.229069">
        <ele>5.643348</ele>
        <time>2024-08-10T22:56:41.000Z</time>
      </trkpt>
      <trkpt lat="51.459399" lon="0.229071">
        <ele>5.643347</ele>
        <time>2024-08-10T22:56:41.000Z</time>
      </trkpt>
      <trkpt lat="51.459401" lon="0.229066">
        <ele>5.643349</ele>
        <time>2024-08-10T22:56:41.000Z</time>
      </trkpt>
      <trkpt lat="51.459442" lon="0.22818">
        <ele>5.900517</ele>
        <time>2024-08-10T22:56:47.000Z</time>
      </trkpt>
      <trkpt lat="51.459503" lon="0.227278">
        <ele>6.157697</ele>
        <time>2024-08-10T22:56:53.000Z</time>
      </trkpt>
      <trkpt lat="51.459493" lon="0.227282">
        <ele>6.15771</ele>
        <time>2024-08-10T22:56:53.000Z</time>
      </trkpt>
      <trkpt lat="51.459474" lon="0.226097">
        <ele>6.30576</ele>
        <time>2024-08-10T22:57:01.000Z</time>
      </trkpt>
      <trkpt lat="51.459457" lon="0.224921">
        <ele>6.422569</ele>
        <time>2024-08-10T22:57:09.000Z</time>
      </trkpt>
      <trkpt lat="51.45944" lon="0.223741">
        <ele>6.480261</ele>
        <time>2024-08-10T22:57:17.000Z</time>
      </trkpt>
      <trkpt lat="51.459436" lon="0.223737">
        <ele>6.48026</ele>
        <time>2024-08-10T22:57:17.000Z</time>
      </trkpt>
      <trkpt lat="51.459394" lon="0.222666">
        <ele>6.454452</ele>
        <time>2024-08-10T22:57:24.000Z</time>
      </trkpt>
      <trkpt lat="51.459343" lon="0.2216">
        <ele>6.428661</ele>
        <time>2024-08-10T22:57:31.000Z</time>
      </trkpt>
      <trkpt lat="51.459302" lon="0.220544">
        <ele>6.431582</ele>
        <time>2024-08-10T22:57:38.000Z</time>
      </trkpt>
      <trkpt lat="51.459302" lon="0.220547">
        <ele>6.431597</ele>
        <time>2024-08-10T22:57:38.000Z</time>
      </trkpt>
      <trkpt lat="51.45932" lon="0.221227">
        <ele>6.439494</ele>
        <time>2024-08-10T22:57:43.000Z</time>
      </trkpt>
      <trkpt lat="51.459448" lon="0.223708">
        <ele>6.491492</ele>
        <time>2024-08-10T22:58:00.000Z</time>
      </trkpt>
      <trkpt lat="51.459494" lon="0.227293">
        <ele>6.287458</ele>
        <time>2024-08-10T22:58:25.000Z</time>
      </trkpt>
      <trkpt lat="51.459468" lon="0.228239">
        <ele>6.152382</ele>
        <time>2024-08-10T22:58:32.000Z</time>
      </trkpt>
      <trkpt lat="51.459367" lon="0.229414">
        <ele>5.708781</ele>
        <time>2024-08-10T22:58:40.000Z</time>
      </trkpt>
      <trkpt lat="51.459311" lon="0.229779">
        <ele>5.553523</ele>
        <time>2024-08-10T22:58:43.000Z</time>
      </trkpt>
      <trkpt lat="51.459169" lon="0.230431">
        <ele>5.27634</ele>
        <time>2024-08-10T22:58:48.000Z</time>
      </trkpt>
      <trkpt lat="51.459138" lon="0.230719">
        <ele>5.162865</ele>
        <time>2024-08-10T22:58:50.000Z</time>
      </trkpt>
      <trkpt lat="51.459124" lon="0.230963">
        <ele>5.059517</ele>
        <time>2024-08-10T22:58:52.000Z</time>
      </trkpt>
      <trkpt lat="51.459134" lon="0.231004">
        <ele>5.045279</ele>
        <time>2024-08-10T22:58:52.000Z</time>
      </trkpt>
      <trkpt lat="51.459225" lon="0.231112">
        <ele>4.973598</ele>
        <time>2024-08-10T22:58:53.000Z</time>
      </trkpt>
      <trkpt lat="51.45948" lon="0.23135">
        <ele>4.999207</ele>
        <time>2024-08-10T22:58:56.000Z</time>
      </trkpt>
      <trkpt lat="51.459795" lon="0.23179">
        <ele>5.046187</ele>
        <time>2024-08-10T22:59:01.000Z</time>
      </trkpt>
      <trkpt lat="51.460019" lon="0.231917">
        <ele>5.072903</ele>
        <time>2024-08-10T22:59:04.000Z</time>
      </trkpt>
      <trkpt lat="51.460137" lon="0.231877">
        <ele>5.085845</ele>
        <time>2024-08-10T22:59:05.000Z</time>
      </trkpt>
      <trkpt lat="51.460196" lon="0.231828">
        <ele>5.094692</ele>
        <time>2024-08-10T22:59:06.000Z</time>
      </trkpt>
      <trkpt lat="51.460223" lon="0.231763">
        <ele>5.100036</ele>
        <time>2024-08-10T22:59:07.000Z</time>
      </trkpt>
      <trkpt lat="51.460264" lon="0.231706">
        <ele>5.10543</ele>
        <time>2024-08-10T22:59:08.000Z</time>
      </trkpt>
      <trkpt lat="51.460314" lon="0.231672">
        <ele>5.112347</ele>
        <time>2024-08-10T22:59:09.000Z</time>
      </trkpt>
      <trkpt lat="51.460374" lon="0.23167">
        <ele>5.119107</ele>
        <time>2024-08-10T22:59:10.000Z</time>
      </trkpt>
      <trkpt lat="51.460423" lon="0.231703">
        <ele>5.124457</ele>
        <time>2024-08-10T22:59:11.000Z</time>
      </trkpt>
      <trkpt lat="51.46045" lon="0.231771">
        <ele>5.129739</ele>
        <time>2024-08-10T22:59:12.000Z</time>
      </trkpt>
      <trkpt lat="51.460558" lon="0.231813">
        <ele>5.141316</ele>
        <time>2024-08-10T22:59:13.000Z</time>
      </trkpt>
      <trkpt lat="51.460663" lon="0.231858">
        <ele>5.153521</ele>
        <time>2024-08-10T22:59:14.000Z</time>
      </trkpt>
      <trkpt lat="51.460773" lon="0.23189">
        <ele>5.16784</ele>
        <time>2024-08-10T22:59:15.000Z</time>
      </trkpt>
      <trkpt lat="51.461342" lon="0.231965">
        <ele>5.507039</ele>
        <time>2024-08-10T22:59:21.000Z</time>
      </trkpt>
      <trkpt lat="51.461413" lon="0.231967">
        <ele>5.551616</ele>
        <time>2024-08-10T22:59:22.000Z</time>
      </trkpt>
      <trkpt lat="51.461453" lon="0.231833">
        <ele>5.60652</ele>
        <time>2024-08-10T22:59:23.000Z</time>
      </trkpt>
      <trkpt lat="51.461524" lon="0.231594">
        <ele>5.703546</ele>
        <time>2024-08-10T22:59:25.000Z</time>
      </trkpt>
      <trkpt lat="51.461569" lon="0.231349">
        <ele>5.804406</ele>
        <time>2024-08-10T22:59:27.000Z</time>
      </trkpt>
      <trkpt lat="51.461599" lon="0.231141">
        <ele>5.885557</ele>
        <time>2024-08-10T22:59:28.000Z</time>
      </trkpt>
      <trkpt lat="51.461666" lon="0.230499">
        <ele>6.130258</ele>
        <time>2024-08-10T22:59:33.000Z</time>
      </trkpt>
      <trkpt lat="51.461851" lon="0.226897">
        <ele>7.529386</ele>
        <time>2024-08-10T22:59:58.000Z</time>
      </trkpt>
      <trkpt lat="51.461866" lon="0.226731">
        <ele>7.544814</ele>
        <time>2024-08-10T22:59:59.000Z</time>
      </trkpt>
      <trkpt lat="51.461846" lon="0.226357">
        <ele>7.575684</ele>
        <time>2024-08-10T23:00:02.000Z</time>
      </trkpt>
      <trkpt lat="51.461821" lon="0.226199">
        <ele>7.5892</ele>
        <time>2024-08-10T23:00:03.000Z</time>
      </trkpt>
      <trkpt lat="51.460977" lon="0.224082">
        <ele>7.73258</ele>
        <time>2024-08-10T23:00:20.000Z</time>
      </trkpt>
      <trkpt lat="51.460793" lon="0.223763">
        <ele>7.725149</ele>
        <time>2024-08-10T23:00:23.000Z</time>
      </trkpt>
      <trkpt lat="51.460536" lon="0.223446">
        <ele>7.716092</ele>
        <time>2024-08-10T23:00:27.000Z</time>
      </trkpt>
      <trkpt lat="51.460498" lon="0.223417">
        <ele>7.715196</ele>
        <time>2024-08-10T23:00:27.000Z</time>
      </trkpt>
      <trkpt lat="51.460489" lon="0.223407">
        <ele>7.714926</ele>
        <time>2024-08-10T23:00:27.000Z</time>
      </trkpt>
      <trkpt lat="51.4605" lon="0.223412">
        <ele>7.714918</ele>
        <time>2024-08-10T23:00:27.000Z</time>
      </trkpt>
      <trkpt lat="51.460486" lon="0.223403">
        <ele>7.714923</ele>
        <time>2024-08-10T23:00:27.000Z</time>
      </trkpt>
      <trkpt lat="51.460512" lon="0.223418">
        <ele>7.714641</ele>
        <time>2024-08-10T23:00:27.000Z</time>
      </trkpt>
      <trkpt lat="51.460529" lon="0.223432">
        <ele>7.713764</ele>
        <time>2024-08-10T23:00:27.000Z</time>
      </trkpt>
      <trkpt lat="51.46079" lon="0.223765">
        <ele>7.704699</ele>
        <time>2024-08-10T23:00:31.000Z</time>
      </trkpt>
      <trkpt lat="51.460967" lon="0.224095">
        <ele>7.697257</ele>
        <time>2024-08-10T23:00:34.000Z</time>
      </trkpt>
      <trkpt lat="51.461823" lon="0.226204">
        <ele>7.660468</ele>
        <time>2024-08-10T23:00:51.000Z</time>
      </trkpt>
      <trkpt lat="51.461836" lon="0.226354">
        <ele>7.658164</ele>
        <time>2024-08-10T23:00:52.000Z</time>
      </trkpt>
      <trkpt lat="51.461863" lon="0.226715">
        <ele>7.641247</ele>
        <time>2024-08-10T23:00:55.000Z</time>
      </trkpt>
      <trkpt lat="51.461854" lon="0.226906">
        <ele>7.565421</ele>
        <time>2024-08-10T23:00:56.000Z</time>
      </trkpt>
      <trkpt lat="51.461676" lon="0.230511">
        <ele>6.165776</ele>
        <time>2024-08-10T23:01:21.000Z</time>
      </trkpt>
      <trkpt lat="51.461605" lon="0.231132">
        <ele>5.972232</ele>
        <time>2024-08-10T23:01:25.000Z</time>
      </trkpt>
      <trkpt lat="51.46157" lon="0.231339">
        <ele>5.908017</ele>
        <time>2024-08-10T23:01:26.000Z</time>
      </trkpt>
      <trkpt lat="51.461523" lon="0.231599">
        <ele>5.82825</ele>
        <time>2024-08-10T23:01:28.000Z</time>
      </trkpt>
      <trkpt lat="51.461456" lon="0.231822">
        <ele>5.751512</ele>
        <time>2024-08-10T23:01:30.000Z</time>
      </trkpt>
      <trkpt lat="51.461424" lon="0.231963">
        <ele>5.708079</ele>
        <time>2024-08-10T23:01:31.000Z</time>
      </trkpt>
      <trkpt lat="51.46139" lon="0.232058">
        <ele>5.673228</ele>
        <time>2024-08-10T23:01:32.000Z</time>
      </trkpt>
      <trkpt lat="51.461319" lon="0.232242">
        <ele>5.608794</ele>
        <time>2024-08-10T23:01:33.000Z</time>
      </trkpt>
      <trkpt lat="51.461257" lon="0.232405">
        <ele>5.568312</ele>
        <time>2024-08-10T23:01:34.000Z</time>
      </trkpt>
      <trkpt lat="51.460677" lon="0.23372">
        <ele>5.374835</ele>
        <time>2024-08-10T23:01:45.000Z</time>
      </trkpt>
      <trkpt lat="51.460348" lon="0.23504">
        <ele>5.158606</ele>
        <time>2024-08-10T23:01:55.000Z</time>
      </trkpt>
      <trkpt lat="51.460322" lon="0.235223">
        <ele>5.101714</ele>
        <time>2024-08-10T23:01:56.000Z</time>
      </trkpt>
      <trkpt lat="51.460282" lon="0.235745">
        <ele>4.933642</ele>
        <time>2024-08-10T23:02:00.000Z</time>
      </trkpt>
      <trkpt lat="51.460273" lon="0.235751">
        <ele>4.932353</ele>
        <time>2024-08-10T23:02:00.000Z</time>
      </trkpt>
      <trkpt lat="51.460248" lon="0.236066">
        <ele>4.829282</ele>
        <time>2024-08-10T23:02:02.000Z</time>
      </trkpt>
      <trkpt lat="51.460267" lon="0.237583">
        <ele>4.344029</ele>
        <time>2024-08-10T23:02:13.000Z</time>
      </trkpt>
      <trkpt lat="51.460197" lon="0.238167">
        <ele>4.261321</ele>
        <time>2024-08-10T23:02:17.000Z</time>
      </trkpt>
      <trkpt lat="51.460116" lon="0.238645">
        <ele>4.209035</ele>
        <time>2024-08-10T23:02:20.000Z</time>
      </trkpt>
      <trkpt lat="51.460096" lon="0.238696">
        <ele>4.202834</ele>
        <time>2024-08-10T23:02:20.000Z</time>
      </trkpt>
      <trkpt lat="51.460058" lon="0.23884">
        <ele>4.184452</ele>
        <time>2024-08-10T23:02:21.000Z</time>
      </trkpt>
      <trkpt lat="51.459611" lon="0.240162">
        <ele>4.028258</ele>
        <time>2024-08-10T23:02:31.000Z</time>
      </trkpt>
      <trkpt lat="51.459298" lon="0.240724">
        <ele>4.016638</ele>
        <time>2024-08-10T23:02:36.000Z</time>
      </trkpt>
      <trkpt lat="51.458604" lon="0.241562">
        <ele>4.03432</ele>
        <time>2024-08-10T23:02:46.000Z</time>
      </trkpt>
      <trkpt lat="51.458557" lon="0.241615">
        <ele>4.035398</ele>
        <time>2024-08-10T23:02:47.000Z</time>
      </trkpt>
      <trkpt lat="51.458547" lon="0.241605">
        <ele>4.035448</ele>
        <time>2024-08-10T23:02:47.000Z</time>
      </trkpt>
      <trkpt lat="51.458551" lon="0.241612">
        <ele>4.035492</ele>
        <time>2024-08-10T23:02:47.000Z</time>
      </trkpt>
      <trkpt lat="51.458543" lon="0.241603">
        <ele>4.035546</ele>
        <time>2024-08-10T23:02:47.000Z</time>
      </trkpt>
      <trkpt lat="51.45855" lon="0.241612">
        <ele>4.035569</ele>
        <time>2024-08-10T23:02:47.000Z</time>
      </trkpt>
      <trkpt lat="51.458546" lon="0.241619">
        <ele>4.035589</ele>
        <time>2024-08-10T23:02:47.000Z</time>
      </trkpt>
      <trkpt lat="51.458557" lon="0.241606">
        <ele>4.035633</ele>
        <time>2024-08-10T23:02:47.000Z</time>
      </trkpt>
      <trkpt lat="51.458547" lon="0.241617">
        <ele>4.035682</ele>
        <time>2024-08-10T23:02:47.000Z</time>
      </trkpt>
      <trkpt lat="51.458563" lon="0.241611">
        <ele>4.035718</ele>
        <time>2024-08-10T23:02:47.000Z</time>
      </trkpt>
      <trkpt lat="51.45861" lon="0.241567">
        <ele>4.036806</ele>
        <time>2024-08-10T23:02:48.000Z</time>
      </trkpt>
      <trkpt lat="51.459301" lon="0.240723">
        <ele>4.049111</ele>
        <time>2024-08-10T23:02:58.000Z</time>
      </trkpt>
      <trkpt lat="51.459599" lon="0.24016">
        <ele>4.052622</ele>
        <time>2024-08-10T23:03:03.000Z</time>
      </trkpt>
      <trkpt lat="51.460048" lon="0.23885">
        <ele>4.068466</ele>
        <time>2024-08-10T23:03:13.000Z</time>
      </trkpt>
      <trkpt lat="51.460096" lon="0.238691">
        <ele>4.117871</ele>
        <time>2024-08-10T23:03:14.000Z</time>
      </trkpt>
      <trkpt lat="51.460104" lon="0.238637">
        <ele>4.134534</ele>
        <time>2024-08-10T23:03:14.000Z</time>
      </trkpt>
      <trkpt lat="51.460212" lon="0.238152">
        <ele>4.275117</ele>
        <time>2024-08-10T23:03:18.000Z</time>
      </trkpt>
      <trkpt lat="51.46025" lon="0.237588">
        <ele>4.439763</ele>
        <time>2024-08-10T23:03:22.000Z</time>
      </trkpt>
      <trkpt lat="51.460244" lon="0.236058">
        <ele>4.868134</ele>
        <time>2024-08-10T23:03:33.000Z</time>
      </trkpt>
      <trkpt lat="51.460271" lon="0.235737">
        <ele>4.939495</ele>
        <time>2024-08-10T23:03:35.000Z</time>
      </trkpt>
      <trkpt lat="51.460267" lon="0.23573">
        <ele>4.940365</ele>
        <time>2024-08-10T23:03:35.000Z</time>
      </trkpt>
      <trkpt lat="51.460325" lon="0.235217">
        <ele>5.054885</ele>
        <time>2024-08-10T23:03:39.000Z</time>
      </trkpt>
      <trkpt lat="51.460338" lon="0.235039">
        <ele>5.093643</ele>
        <time>2024-08-10T23:03:40.000Z</time>
      </trkpt>
      <trkpt lat="51.460677" lon="0.233721">
        <ele>5.402635</ele>
        <time>2024-08-10T23:03:50.000Z</time>
      </trkpt>
      <trkpt lat="51.461268" lon="0.232393">
        <ele>5.365913</ele>
        <time>2024-08-10T23:04:01.000Z</time>
      </trkpt>
      <trkpt lat="51.461316" lon="0.23225">
        <ele>5.345103</ele>
        <time>2024-08-10T23:04:02.000Z</time>
      </trkpt>
      <trkpt lat="51.461395" lon="0.23206">
        <ele>5.320457</ele>
        <time>2024-08-10T23:04:04.000Z</time>
      </trkpt>
      <trkpt lat="51.461413" lon="0.231966">
        <ele>5.307124</ele>
        <time>2024-08-10T23:04:05.000Z</time>
      </trkpt>
      <trkpt lat="51.461399" lon="0.231963">
        <ele>5.301775</ele>
        <time>2024-08-10T23:04:05.000Z</time>
      </trkpt>
      <trkpt lat="51.46138" lon="0.231963">
        <ele>5.301404</ele>
        <time>2024-08-10T23:04:05.000Z</time>
      </trkpt>
      <trkpt lat="51.461383" lon="0.231961">
        <ele>5.301034</ele>
        <time>2024-08-10T23:04:05.000Z</time>
      </trkpt>
      <trkpt lat="51.461378" lon="0.231968">
        <ele>5.300841</ele>
        <time>2024-08-10T23:04:05.000Z</time>
      </trkpt>
      <trkpt lat="51.461382" lon="0.231954">
        <ele>5.30047</ele>
        <time>2024-08-10T23:04:05.000Z</time>
      </trkpt>
      <trkpt lat="51.461379" lon="0.231962">
        <ele>5.300286</ele>
        <time>2024-08-10T23:04:05.000Z</time>
      </trkpt>
      <trkpt lat="51.461379" lon="0.23196">
        <ele>5.299925</ele>
        <time>2024-08-10T23:04:05.000Z</time>
      </trkpt>
      <trkpt lat="51.461351" lon="0.23195">
        <ele>5.293643</ele>
        <time>2024-08-10T23:04:05.000Z</time>
      </trkpt>
      <trkpt lat="51.460788" lon="0.231903">
        <ele>5.188604</ele>
        <time>2024-08-10T23:04:11.000Z</time>
      </trkpt>
      <trkpt lat="51.460691" lon="0.231902">
        <ele>5.17342</ele>
        <time>2024-08-10T23:04:12.000Z</time>
      </trkpt>
      <trkpt lat="51.460643" lon="0.231906">
        <ele>5.161059</ele>
        <time>2024-08-10T23:04:13.000Z</time>
      </trkpt>
      <trkpt lat="51.460568" lon="0.231924">
        <ele>5.141966</ele>
        <time>2024-08-10T23:04:14.000Z</time>
      </trkpt>
      <trkpt lat="51.460474" lon="0.231976">
        <ele>5.11471</ele>
        <time>2024-08-10T23:04:15.000Z</time>
      </trkpt>
      <trkpt lat="51.460449" lon="0.232048">
        <ele>5.103686</ele>
        <time>2024-08-10T23:04:16.000Z</time>
      </trkpt>
      <trkpt lat="51.460387" lon="0.232118">
        <ele>5.081886</ele>
        <time>2024-08-10T23:04:17.000Z</time>
      </trkpt>
      <trkpt lat="51.460353" lon="0.232134">
        <ele>5.070951</ele>
        <time>2024-08-10T23:04:17.000Z</time>
      </trkpt>
      <trkpt lat="51.460307" lon="0.232135">
        <ele>5.060521</ele>
        <time>2024-08-10T23:04:18.000Z</time>
      </trkpt>
      <trkpt lat="51.460304" lon="0.232132">
        <ele>5.059738</ele>
        <time>2024-08-10T23:04:18.000Z</time>
      </trkpt>
      <trkpt lat="51.460305" lon="0.232124">
        <ele>5.058937</ele>
        <time>2024-08-10T23:04:18.000Z</time>
      </trkpt>
      <trkpt lat="51.460297" lon="0.23213">
        <ele>5.058678</ele>
        <time>2024-08-10T23:04:18.000Z</time>
      </trkpt>
      <trkpt lat="51.460289" lon="0.232124">
        <ele>5.058682</ele>
        <time>2024-08-10T23:04:18.000Z</time>
      </trkpt>
      <trkpt lat="51.460288" lon="0.23214">
        <ele>5.058374</ele>
        <time>2024-08-10T23:04:18.000Z</time>
      </trkpt>
      <trkpt lat="51.460297" lon="0.232138">
        <ele>5.058061</ele>
        <time>2024-08-10T23:04:18.000Z</time>
      </trkpt>
      <trkpt lat="51.460286" lon="0.232131">
        <ele>5.057514</ele>
        <time>2024-08-10T23:04:18.000Z</time>
      </trkpt>
      <trkpt lat="51.46026" lon="0.2321">
        <ele>5.046476</ele>
        <time>2024-08-10T23:04:18.000Z</time>
      </trkpt>
      <trkpt lat="51.460225" lon="0.232048">
        <ele>5.034308</ele>
        <time>2024-08-10T23:04:19.000Z</time>
      </trkpt>
      <trkpt lat="51.460158" lon="0.232042">
        <ele>5.016889</ele>
        <time>2024-08-10T23:04:20.000Z</time>
      </trkpt>
      <trkpt lat="51.459802" lon="0.231969">
        <ele>4.925698</ele>
        <time>2024-08-10T23:04:24.000Z</time>
      </trkpt>
      <trkpt lat="51.459448" lon="0.23151">
        <ele>4.808843</ele>
        <time>2024-08-10T23:04:29.000Z</time>
      </trkpt>
      <trkpt lat="51.459165" lon="0.231315">
        <ele>4.728406</ele>
        <time>2024-08-10T23:04:32.000Z</time>
      </trkpt>
      <trkpt lat="51.459053" lon="0.231321">
        <ele>4.70379</ele>
        <time>2024-08-10T23:04:33.000Z</time>
      </trkpt>
      <trkpt lat="51.45902" lon="0.23137">
        <ele>4.725994</ele>
        <time>2024-08-10T23:04:33.000Z</time>
      </trkpt>
      <trkpt lat="51.458981" lon="0.231397">
        <ele>4.747811</ele>
        <time>2024-08-10T23:04:33.000Z</time>
      </trkpt>
      <trkpt lat="51.458753" lon="0.231579">
        <ele>4.85592</ele>
        <time>2024-08-10T23:04:36.000Z</time>
      </trkpt>
      <trkpt lat="51.458715" lon="0.231623">
        <ele>4.881817</ele>
        <time>2024-08-10T23:04:37.000Z</time>
      </trkpt>
      <trkpt lat="51.458706" lon="0.231625">
        <ele>4.883415</ele>
        <time>2024-08-10T23:04:37.000Z</time>
      </trkpt>
      <trkpt lat="51.458706" lon="0.231639">
        <ele>4.883935</ele>
        <time>2024-08-10T23:04:37.000Z</time>
      </trkpt>
      <trkpt lat="51.458706" lon="0.231635">
        <ele>4.884998</ele>
        <time>2024-08-10T23:04:37.000Z</time>
      </trkpt>
      <trkpt lat="51.458715" lon="0.231647">
        <ele>4.886065</ele>
        <time>2024-08-10T23:04:37.000Z</time>
      </trkpt>
      <trkpt lat="51.458698" lon="0.231639">
        <ele>4.886601</ele>
        <time>2024-08-10T23:04:37.000Z</time>
      </trkpt>
      <trkpt lat="51.45871" lon="0.23165">
        <ele>4.887657</ele>
        <time>2024-08-10T23:04:37.000Z</time>
      </trkpt>
      <trkpt lat="51.458708" lon="0.231651">
        <ele>4.888377</ele>
        <time>2024-08-10T23:04:37.000Z</time>
      </trkpt>
      <trkpt lat="51.458701" lon="0.231638">
        <ele>4.88838</ele>
        <time>2024-08-10T23:04:37.000Z</time>
      </trkpt>
      <trkpt lat="51.4587" lon="0.231642">
        <ele>4.888913</ele>
        <time>2024-08-10T23:04:37.000Z</time>
      </trkpt>
      <trkpt lat="51.458699" lon="0.231649">
        <ele>4.88985</ele>
        <time>2024-08-10T23:04:37.000Z</time>
      </trkpt>
      <trkpt lat="51.458699" lon="0.231645">
        <ele>4.890571</ele>
        <time>2024-08-10T23:04:37.000Z</time>
      </trkpt>
      <trkpt lat="51.458691" lon="0.231661">
        <ele>4.891648</ele>
        <time>2024-08-10T23:04:37.000Z</time>
      </trkpt>
      <trkpt lat="51.458705" lon="0.231655">
        <ele>4.892366</ele>
        <time>2024-08-10T23:04:37.000Z</time>
      </trkpt>
      <trkpt lat="51.458183" lon="0.232578">
        <ele>5.237491</ele>
        <time>2024-08-10T23:04:46.000Z</time>
      </trkpt>
      <trkpt lat="51.458183" lon="0.232572">
        <ele>5.240366</ele>
        <time>2024-08-10T23:04:46.000Z</time>
      </trkpt>
      <trkpt lat="51.458187" lon="0.23258">
        <ele>5.242036</ele>
        <time>2024-08-10T23:04:46.000Z</time>
      </trkpt>
      <trkpt lat="51.458184" lon="0.232582">
        <ele>5.242605</ele>
        <time>2024-08-10T23:04:46.000Z</time>
      </trkpt>
      <trkpt lat="51.458188" lon="0.232593">
        <ele>5.243121</ele>
        <time>2024-08-10T23:04:46.000Z</time>
      </trkpt>
      <trkpt lat="51.458181" lon="0.232593">
        <ele>5.244071</ele>
        <time>2024-08-10T23:04:46.000Z</time>
      </trkpt>
      <trkpt lat="51.458171" lon="0.232582">
        <ele>5.244602</ele>
        <time>2024-08-10T23:04:46.000Z</time>
      </trkpt>
      <trkpt lat="51.458175" lon="0.232583">
        <ele>5.245146</ele>
        <time>2024-08-10T23:04:46.000Z</time>
      </trkpt>
      <trkpt lat="51.458179" lon="0.232603">
        <ele>5.24571</ele>
        <time>2024-08-10T23:04:46.000Z</time>
      </trkpt>
      <trkpt lat="51.458174" lon="0.232603">
        <ele>5.246426</ele>
        <time>2024-08-10T23:04:46.000Z</time>
      </trkpt>
      <trkpt lat="51.458176" lon="0.232604">
        <ele>5.247146</ele>
        <time>2024-08-10T23:04:46.000Z</time>
      </trkpt>
      <trkpt lat="51.458177" lon="0.232605">
        <ele>5.247852</ele>
        <time>2024-08-10T23:04:46.000Z</time>
      </trkpt>
      <trkpt lat="51.458175" lon="0.232601">
        <ele>5.248424</ele>
        <time>2024-08-10T23:04:46.000Z</time>
      </trkpt>
      <trkpt lat="51.458176" lon="0.232605">
        <ele>5.24914</ele>
        <time>2024-08-10T23:04:46.000Z</time>
      </trkpt>
      <trkpt lat="51.458171" lon="0.232614">
        <ele>5.249856</ele>
        <time>2024-08-10T23:04:46.000Z</time>
      </trkpt>
      <trkpt lat="51.45817" lon="0.232605">
        <ele>5.250584</ele>
        <time>2024-08-10T23:04:46.000Z</time>
      </trkpt>
      <trkpt lat="51.457778" lon="0.233625">
        <ele>5.613552</ele>
        <time>2024-08-10T23:04:54.000Z</time>
      </trkpt>
      <trkpt lat="51.457476" lon="0.234606">
        <ele>6.054411</ele>
        <time>2024-08-10T23:05:02.000Z</time>
      </trkpt>
      <trkpt lat="51.45748" lon="0.234619">
        <ele>6.054812</ele>
        <time>2024-08-10T23:05:02.000Z</time>
      </trkpt>
      <trkpt lat="51.457464" lon="0.234609">
        <ele>6.055569</ele>
        <time>2024-08-10T23:05:02.000Z</time>
      </trkpt>
      <trkpt lat="51.457472" lon="0.234617">
        <ele>6.056353</ele>
        <time>2024-08-10T23:05:02.000Z</time>
      </trkpt>
      <trkpt lat="51.457478" lon="0.234625">
        <ele>6.057148</ele>
        <time>2024-08-10T23:05:02.000Z</time>
      </trkpt>
      <trkpt lat="51.457468" lon="0.234623">
        <ele>6.057907</ele>
        <time>2024-08-10T23:05:02.000Z</time>
      </trkpt>
      <trkpt lat="51.457469" lon="0.23462">
        <ele>6.058702</ele>
        <time>2024-08-10T23:05:02.000Z</time>
      </trkpt>
      <trkpt lat="51.457467" lon="0.23463">
        <ele>6.060054</ele>
        <time>2024-08-10T23:05:02.000Z</time>
      </trkpt>
      <trkpt lat="51.45747" lon="0.234617">
        <ele>6.060837</ele>
        <time>2024-08-10T23:05:02.000Z</time>
      </trkpt>
      <trkpt lat="51.457476" lon="0.234628">
        <ele>6.06159</ele>
        <time>2024-08-10T23:05:02.000Z</time>
      </trkpt>
      <trkpt lat="51.457464" lon="0.234633">
        <ele>6.062788</ele>
        <time>2024-08-10T23:05:02.000Z</time>
      </trkpt>
      <trkpt lat="51.457471" lon="0.234629">
        <ele>6.063541</ele>
        <time>2024-08-10T23:05:02.000Z</time>
      </trkpt>
      <trkpt lat="51.457475" lon="0.234634">
        <ele>6.064725</ele>
        <time>2024-08-10T23:05:02.000Z</time>
      </trkpt>
      <trkpt lat="51.457476" lon="0.234646">
        <ele>6.066819</ele>
        <time>2024-08-10T23:05:02.000Z</time>
      </trkpt>
      <trkpt lat="51.456907" lon="0.236932">
        <ele>7.146963</ele>
        <time>2024-08-10T23:05:19.000Z</time>
      </trkpt>
      <trkpt lat="51.456901" lon="0.236972">
        <ele>7.16307</ele>
        <time>2024-08-10T23:05:19.000Z</time>
      </trkpt>
      <trkpt lat="51.456908" lon="0.236977">
        <ele>7.164767</ele>
        <time>2024-08-10T23:05:19.000Z</time>
      </trkpt>
      <trkpt lat="51.4569" lon="0.236967">
        <ele>7.166049</ele>
        <time>2024-08-10T23:05:19.000Z</time>
      </trkpt>
      <trkpt lat="51.456912" lon="0.236981">
        <ele>7.167047</ele>
        <time>2024-08-10T23:05:19.000Z</time>
      </trkpt>
      <trkpt lat="51.456897" lon="0.23698">
        <ele>7.168337</ele>
        <time>2024-08-10T23:05:19.000Z</time>
      </trkpt>
      <trkpt lat="51.456909" lon="0.236981">
        <ele>7.169618</ele>
        <time>2024-08-10T23:05:19.000Z</time>
      </trkpt>
      <trkpt lat="51.4569" lon="0.236989">
        <ele>7.171759</ele>
        <time>2024-08-10T23:05:19.000Z</time>
      </trkpt>
      <trkpt lat="51.456908" lon="0.236976">
        <ele>7.172708</ele>
        <time>2024-08-10T23:05:19.000Z</time>
      </trkpt>
      <trkpt lat="51.456892" lon="0.236989">
        <ele>7.173712</ele>
        <time>2024-08-10T23:05:19.000Z</time>
      </trkpt>
      <trkpt lat="51.456901" lon="0.236987">
        <ele>7.174993</ele>
        <time>2024-08-10T23:05:19.000Z</time>
      </trkpt>
      <trkpt lat="51.45656" lon="0.23795">
        <ele>7.724361</ele>
        <time>2024-08-10T23:05:27.000Z</time>
      </trkpt>
      <trkpt lat="51.456539" lon="0.237975">
        <ele>7.740114</ele>
        <time>2024-08-10T23:05:27.000Z</time>
      </trkpt>
      <trkpt lat="51.456545" lon="0.237982">
        <ele>7.74308</ele>
        <time>2024-08-10T23:05:27.000Z</time>
      </trkpt>
      <trkpt lat="51.456537" lon="0.23798">
        <ele>7.744029</ele>
        <time>2024-08-10T23:05:27.000Z</time>
      </trkpt>
      <trkpt lat="51.456535" lon="0.237982">
        <ele>7.745721</ele>
        <time>2024-08-10T23:05:27.000Z</time>
      </trkpt>
      <trkpt lat="51.456538" lon="0.237975">
        <ele>7.746993</ele>
        <time>2024-08-10T23:05:27.000Z</time>
      </trkpt>
      <trkpt lat="51.456534" lon="0.237974">
        <ele>7.748884</ele>
        <time>2024-08-10T23:05:27.000Z</time>
      </trkpt>
      <trkpt lat="51.456543" lon="0.237983">
        <ele>7.750161</ele>
        <time>2024-08-10T23:05:27.000Z</time>
      </trkpt>
      <trkpt lat="51.456534" lon="0.237978">
        <ele>7.751862</ele>
        <time>2024-08-10T23:05:27.000Z</time>
      </trkpt>
      <trkpt lat="51.456541" lon="0.237988">
        <ele>7.754425</ele>
        <time>2024-08-10T23:05:27.000Z</time>
      </trkpt>
      <trkpt lat="51.456526" lon="0.238002">
        <ele>7.75612</ele>
        <time>2024-08-10T23:05:27.000Z</time>
      </trkpt>
      <trkpt lat="51.45653" lon="0.238001">
        <ele>7.757068</ele>
        <time>2024-08-10T23:05:27.000Z</time>
      </trkpt>
      <trkpt lat="51.456525" lon="0.237999">
        <ele>7.758351</ele>
        <time>2024-08-10T23:05:27.000Z</time>
      </trkpt>
      <trkpt lat="51.456539" lon="0.237991">
        <ele>7.760035</ele>
        <time>2024-08-10T23:05:27.000Z</time>
      </trkpt>
      <trkpt lat="51.45609" lon="0.238927">
        <ele>8.283144</ele>
        <time>2024-08-10T23:05:35.000Z</time>
      </trkpt>
      <trkpt lat="51.455854" lon="0.239291">
        <ele>8.480109</ele>
        <time>2024-08-10T23:05:39.000Z</time>
      </trkpt>
      <trkpt lat="51.45586" lon="0.2393">
        <ele>8.481749</ele>
        <time>2024-08-10T23:05:39.000Z</time>
      </trkpt>
      <trkpt lat="51.45586" lon="0.239311">
        <ele>8.48318</ele>
        <time>2024-08-10T23:05:39.000Z</time>
      </trkpt>
      <trkpt lat="51.455849" lon="0.239311">
        <ele>8.484459</ele>
        <time>2024-08-10T23:05:39.000Z</time>
      </trkpt>
      <trkpt lat="51.455844" lon="0.239298">
        <ele>8.485166</ele>
        <time>2024-08-10T23:05:39.000Z</time>
      </trkpt>
      <trkpt lat="51.45585" lon="0.239307">
        <ele>8.485893</ele>
        <time>2024-08-10T23:05:39.000Z</time>
      </trkpt>
      <trkpt lat="51.455857" lon="0.239307">
        <ele>8.486855</ele>
        <time>2024-08-10T23:05:39.000Z</time>
      </trkpt>
      <trkpt lat="51.455843" lon="0.239312">
        <ele>8.487811</ele>
        <time>2024-08-10T23:05:39.000Z</time>
      </trkpt>
      <trkpt lat="51.455847" lon="0.239321">
        <ele>8.488534</ele>
        <time>2024-08-10T23:05:39.000Z</time>
      </trkpt>
      <trkpt lat="51.455847" lon="0.239324">
        <ele>8.489503</ele>
        <time>2024-08-10T23:05:39.000Z</time>
      </trkpt>
      <trkpt lat="51.455777" lon="0.23944">
        <ele>8.554321</ele>
        <time>2024-08-10T23:05:40.000Z</time>
      </trkpt>
      <trkpt lat="51.455115" lon="0.240244">
        <ele>9.047647</ele>
        <time>2024-08-10T23:05:49.000Z</time>
      </trkpt>
      <trkpt lat="51.455129" lon="0.240247">
        <ele>9.050001</ele>
        <time>2024-08-10T23:05:49.000Z</time>
      </trkpt>
      <trkpt lat="51.455114" lon="0.240235">
        <ele>9.050704</ele>
        <time>2024-08-10T23:05:49.000Z</time>
      </trkpt>
      <trkpt lat="51.455127" lon="0.240238">
        <ele>9.051431</ele>
        <time>2024-08-10T23:05:49.000Z</time>
      </trkpt>
      <trkpt lat="51.455115" lon="0.240246">
        <ele>9.05213</ele>
        <time>2024-08-10T23:05:49.000Z</time>
      </trkpt>
      <trkpt lat="51.455124" lon="0.240253">
        <ele>9.052847</ele>
        <time>2024-08-10T23:05:49.000Z</time>
      </trkpt>
      <trkpt lat="51.455112" lon="0.240251">
        <ele>9.053555</ele>
        <time>2024-08-10T23:05:49.000Z</time>
      </trkpt>
      <trkpt lat="51.455106" lon="0.240255">
        <ele>9.055222</ele>
        <time>2024-08-10T23:05:49.000Z</time>
      </trkpt>
      <trkpt lat="51.455115" lon="0.240246">
        <ele>9.055923</ele>
        <time>2024-08-10T23:05:49.000Z</time>
      </trkpt>
      <trkpt lat="51.455119" lon="0.240243">
        <ele>9.056903</ele>
        <time>2024-08-10T23:05:49.000Z</time>
      </trkpt>
      <trkpt lat="51.455114" lon="0.240262">
        <ele>9.058313</ele>
        <time>2024-08-10T23:05:49.000Z</time>
      </trkpt>
      <trkpt lat="51.455108" lon="0.240259">
        <ele>9.059975</ele>
        <time>2024-08-10T23:05:49.000Z</time>
      </trkpt>
      <trkpt lat="51.455105" lon="0.240254">
        <ele>9.061393</ele>
        <time>2024-08-10T23:05:49.000Z</time>
      </trkpt>
      <trkpt lat="51.455099" lon="0.240267">
        <ele>9.062112</ele>
        <time>2024-08-10T23:05:49.000Z</time>
      </trkpt>
      <trkpt lat="51.455087" lon="0.240292">
        <ele>9.079571</ele>
        <time>2024-08-10T23:05:49.000Z</time>
      </trkpt>
      <trkpt lat="51.454695" lon="0.240611">
        <ele>9.110993</ele>
        <time>2024-08-10T23:05:54.000Z</time>
      </trkpt>
      <trkpt lat="51.454599" lon="0.240675">
        <ele>9.087037</ele>
        <time>2024-08-10T23:05:55.000Z</time>
      </trkpt>
      <trkpt lat="51.454611" lon="0.240679">
        <ele>9.086467</ele>
        <time>2024-08-10T23:05:55.000Z</time>
      </trkpt>
      <trkpt lat="51.454607" lon="0.240679">
        <ele>9.086465</ele>
        <time>2024-08-10T23:05:55.000Z</time>
      </trkpt>
      <trkpt lat="51.45461" lon="0.240685">
        <ele>9.08648</ele>
        <time>2024-08-10T23:05:55.000Z</time>
      </trkpt>
      <trkpt lat="51.455113" lon="0.240248">
        <ele>8.92844</ele>
        <time>2024-08-10T23:06:01.000Z</time>
      </trkpt>
      <trkpt lat="51.455117" lon="0.240251">
        <ele>8.928433</ele>
        <time>2024-08-10T23:06:01.000Z</time>
      </trkpt>
      <trkpt lat="51.455487" lon="0.239777">
        <ele>8.802043</ele>
        <time>2024-08-10T23:06:06.000Z</time>
      </trkpt>
      <trkpt lat="51.455854" lon="0.239314">
        <ele>8.640699</ele>
        <time>2024-08-10T23:06:11.000Z</time>
      </trkpt>
      <trkpt lat="51.455849" lon="0.239309">
        <ele>8.640707</ele>
        <time>2024-08-10T23:06:11.000Z</time>
      </trkpt>
      <trkpt lat="51.456191" lon="0.238655">
        <ele>8.244079</ele>
        <time>2024-08-10T23:06:17.000Z</time>
      </trkpt>
      <trkpt lat="51.456537" lon="0.237984">
        <ele>7.847459</ele>
        <time>2024-08-10T23:06:23.000Z</time>
      </trkpt>
      <trkpt lat="51.456534" lon="0.237988">
        <ele>7.847449</ele>
        <time>2024-08-10T23:06:23.000Z</time>
      </trkpt>
      <trkpt lat="51.456905" lon="0.236979">
        <ele>7.311781</ele>
        <time>2024-08-10T23:06:31.000Z</time>
      </trkpt>
      <trkpt lat="51.456897" lon="0.236973">
        <ele>7.31179</ele>
        <time>2024-08-10T23:06:31.000Z</time>
      </trkpt>
      <trkpt lat="51.457186" lon="0.235789">
        <ele>6.800523</ele>
        <time>2024-08-10T23:06:40.000Z</time>
      </trkpt>
      <trkpt lat="51.457479" lon="0.234627">
        <ele>6.28965</ele>
        <time>2024-08-10T23:06:49.000Z</time>
      </trkpt>
      <trkpt lat="51.45748" lon="0.234619">
        <ele>6.289663</ele>
        <time>2024-08-10T23:06:49.000Z</time>
      </trkpt>
      <trkpt lat="51.457833" lon="0.233607">
        <ele>5.908959</ele>
        <time>2024-08-10T23:06:57.000Z</time>
      </trkpt>
      <trkpt lat="51.458172" lon="0.232588">
        <ele>5.550789</ele>
        <time>2024-08-10T23:07:05.000Z</time>
      </trkpt>
      <trkpt lat="51.45817" lon="0.232601">
        <ele>5.550785</ele>
        <time>2024-08-10T23:07:05.000Z</time>
      </trkpt>
      <trkpt lat="51.458711" lon="0.231637">
        <ele>5.362821</ele>
        <time>2024-08-10T23:07:14.000Z</time>
      </trkpt>
      <trkpt lat="51.458704" lon="0.231643">
        <ele>5.362819</ele>
        <time>2024-08-10T23:07:14.000Z</time>
      </trkpt>
      <trkpt lat="51.459112" lon="0.231194">
        <ele>5.457135</ele>
        <time>2024-08-10T23:07:20.000Z</time>
      </trkpt>
      <trkpt lat="51.459105" lon="0.23119">
        <ele>5.457141</ele>
        <time>2024-08-10T23:07:20.000Z</time>
      </trkpt>
      <trkpt lat="51.459118" lon="0.231203">
        <ele>5.457148</ele>
        <time>2024-08-10T23:07:20.000Z</time>
      </trkpt>
      <trkpt lat="51.459157" lon="0.230628">
        <ele>5.526068</ele>
        <time>2024-08-10T23:07:24.000Z</time>
      </trkpt>
      <trkpt lat="51.459144" lon="0.230613">
        <ele>5.526062</ele>
        <time>2024-08-10T23:07:24.000Z</time>
      </trkpt>
      <trkpt lat="51.459154" lon="0.23062">
        <ele>5.526065</ele>
        <time>2024-08-10T23:07:24.000Z</time>
      </trkpt>
      <trkpt lat="51.459265" lon="0.229852">
        <ele>5.620132</ele>
        <time>2024-08-10T23:07:29.000Z</time>
      </trkpt>
      <trkpt lat="51.45939" lon="0.229081">
        <ele>5.773891</ele>
        <time>2024-08-10T23:07:35.000Z</time>
      </trkpt>
      <trkpt lat="51.4594" lon="0.229075">
        <ele>5.773889</ele>
        <time>2024-08-10T23:07:35.000Z</time>
      </trkpt>
      <trkpt lat="51.45939" lon="0.229079">
        <ele>5.7739</ele>
        <time>2024-08-10T23:07:35.000Z</time>
      </trkpt>
      <trkpt lat="51.459438" lon="0.228179">
        <ele>5.980437</ele>
        <time>2024-08-10T23:07:41.000Z</time>
      </trkpt>
      <trkpt lat="51.459501" lon="0.22727">
        <ele>6.18702</ele>
        <time>2024-08-10T23:07:47.000Z</time>
      </trkpt>
      <trkpt lat="51.459492" lon="0.227272">
        <ele>6.187028</ele>
        <time>2024-08-10T23:07:47.000Z</time>
      </trkpt>
      <trkpt lat="51.459492" lon="0.227273">
        <ele>6.187015</ele>
        <time>2024-08-10T23:07:47.000Z</time>
      </trkpt>
      <trkpt lat="51.459484" lon="0.226089">
        <ele>6.347517</ele>
        <time>2024-08-10T23:07:55.000Z</time>
      </trkpt>
      <trkpt lat="51.459466" lon="0.224909">
        <ele>6.426557</ele>
        <time>2024-08-10T23:08:03.000Z</time>
      </trkpt>
      <trkpt lat="51.459435" lon="0.223729">
        <ele>6.492855</ele>
        <time>2024-08-10T23:08:11.000Z</time>
      </trkpt>
      <trkpt lat="51.459442" lon="0.223735">
        <ele>6.492855</ele>
        <time>2024-08-10T23:08:11.000Z</time>
      </trkpt>
      <trkpt lat="51.459393" lon="0.222661">
        <ele>6.461261</ele>
        <time>2024-08-10T23:08:18.000Z</time>
      </trkpt>
      <trkpt lat="51.459352" lon="0.221597">
        <ele>6.429665</ele>
        <time>2024-08-10T23:08:25.000Z</time>
      </trkpt>
      <trkpt lat="51.459303" lon="0.220519">
        <ele>6.420839</ele>
        <time>2024-08-10T23:08:32.000Z</time>
      </trkpt>
      <trkpt lat="51.459307" lon="0.220527">
        <ele>6.420937</ele>
        <time>2024-08-10T23:08:32.000Z</time>
      </trkpt>
      <trkpt lat="51.459291" lon="0.220535">
        <ele>6.421013</ele>
        <time>2024-08-10T23:08:32.000Z</time>
      </trkpt>
      <trkpt lat="51.459297" lon="0.220544">
        <ele>6.421077</ele>
        <time>2024-08-10T23:08:32.000Z</time>
      </trkpt>
      <trkpt lat="51.459327" lon="0.221241">
        <ele>6.434565</ele>
        <time>2024-08-10T23:08:37.000Z</time>
      </trkpt>
      <trkpt lat="51.459447" lon="0.223717">
        <ele>6.49235</ele>
        <time>2024-08-10T23:08:54.000Z</time>
      </trkpt>
      <trkpt lat="51.459502" lon="0.227293">
        <ele>6.26516</ele>
        <time>2024-08-10T23:09:19.000Z</time>
      </trkpt>
      <trkpt lat="51.459474" lon="0.228225">
        <ele>6.079625</ele>
        <time>2024-08-10T23:09:25.000Z</time>
      </trkpt>
      <trkpt lat="51.459362" lon="0.22941">
        <ele>5.718032</ele>
        <time>2024-08-10T23:09:33.000Z</time>
      </trkpt>
      <trkpt lat="51.459311" lon="0.22978">
        <ele>5.574449</ele>
        <time>2024-08-10T23:09:36.000Z</time>
      </trkpt>
      <trkpt lat="51.459168" lon="0.230431">
        <ele>5.318111</ele>
        <time>2024-08-10T23:09:41.000Z</time>
      </trkpt>
      <trkpt lat="51.45915" lon="0.230721">
        <ele>5.213186</ele>
        <time>2024-08-10T23:09:43.000Z</time>
      </trkpt>
      <trkpt lat="51.459126" lon="0.230974">
        <ele>5.117602</ele>
        <time>2024-08-10T23:09:45.000Z</time>
      </trkpt>
      <trkpt lat="51.459142" lon="0.231003">
        <ele>5.104428</ele>
        <time>2024-08-10T23:09:45.000Z</time>
      </trkpt>
      <trkpt lat="51.459221" lon="0.231123">
        <ele>5.038142</ele>
        <time>2024-08-10T23:09:46.000Z</time>
      </trkpt>
      <trkpt lat="51.459476" lon="0.231338">
        <ele>4.923471</ele>
        <time>2024-08-10T23:09:49.000Z</time>
      </trkpt>
      <trkpt lat="51.459792" lon="0.231783">
        <ele>5.010107</ele>
        <time>2024-08-10T23:09:54.000Z</time>
      </trkpt>
      <trkpt lat="51.460018" lon="0.231917">
        <ele>5.059384</ele>
        <time>2024-08-10T23:09:57.000Z</time>
      </trkpt>
      <trkpt lat="51.460125" lon="0.231881">
        <ele>5.083218</ele>
        <time>2024-08-10T23:09:58.000Z</time>
      </trkpt>
      <trkpt lat="51.46019" lon="0.231825">
        <ele>5.099555</ele>
        <time>2024-08-10T23:09:59.000Z</time>
      </trkpt>
      <trkpt lat="51.460217" lon="0.231757">
        <ele>5.109418</ele>
        <time>2024-08-10T23:10:00.000Z</time>
      </trkpt>
      <trkpt lat="51.46026" lon="0.231711">
        <ele>5.119366</ele>
        <time>2024-08-10T23:10:01.000Z</time>
      </trkpt>
      <trkpt lat="51.460319" lon="0.231672">
        <ele>5.132112</ele>
        <time>2024-08-10T23:10:02.000Z</time>
      </trkpt>
      <trkpt lat="51.460368" lon="0.23167">
        <ele>5.144591</ele>
        <time>2024-08-10T23:10:03.000Z</time>
      </trkpt>
      <trkpt lat="51.460408" lon="0.231718">
        <ele>5.15445</ele>
        <time>2024-08-10T23:10:04.000Z</time>
      </trkpt>
      <trkpt lat="51.460457" lon="0.23176">
        <ele>5.164188</ele>
        <time>2024-08-10T23:10:05.000Z</time>
      </trkpt>
      <trkpt lat="51.460558" lon="0.231817">
        <ele>5.18554</ele>
        <time>2024-08-10T23:10:06.000Z</time>
      </trkpt>
      <trkpt lat="51.46066" lon="0.231852">
        <ele>5.208048</ele>
        <time>2024-08-10T23:10:07.000Z</time>
      </trkpt>
      <trkpt lat="51.460789" lon="0.231897">
        <ele>5.234463</ele>
        <time>2024-08-10T23:10:08.000Z</time>
      </trkpt>
      <trkpt lat="51.461356" lon="0.231957">
        <ele>5.496614</ele>
        <time>2024-08-10T23:10:14.000Z</time>
      </trkpt>
      <trkpt lat="51.461429" lon="0.231958">
        <ele>5.54234</ele>
        <time>2024-08-10T23:10:15.000Z</time>
      </trkpt>
      <trkpt lat="51.461461" lon="0.231826">
        <ele>5.598633</ele>
        <time>2024-08-10T23:10:16.000Z</time>
      </trkpt>
      <trkpt lat="51.461526" lon="0.231588">
        <ele>5.698101</ele>
        <time>2024-08-10T23:10:18.000Z</time>
      </trkpt>
      <trkpt lat="51.461574" lon="0.231342">
        <ele>5.801519</ele>
        <time>2024-08-10T23:10:20.000Z</time>
      </trkpt>
      <trkpt lat="51.461607" lon="0.23113">
        <ele>5.884733</ele>
        <time>2024-08-10T23:10:22.000Z</time>
      </trkpt>
      <trkpt lat="51.461664" lon="0.230507">
        <ele>6.135624</ele>
        <time>2024-08-10T23:10:26.000Z</time>
      </trkpt>
      <trkpt lat="51.461855" lon="0.226901">
        <ele>7.601713</ele>
        <time>2024-08-10T23:10:51.000Z</time>
      </trkpt>
      <trkpt lat="51.461861" lon="0.226727">
        <ele>7.608833</ele>
        <time>2024-08-10T23:10:52.000Z</time>
      </trkpt>
      <trkpt lat="51.461853" lon="0.226356">
        <ele>7.623113</ele>
        <time>2024-08-10T23:10:55.000Z</time>
      </trkpt>
      <trkpt lat="51.461819" lon="0.226217">
        <ele>7.629363</ele>
        <time>2024-08-10T23:10:56.000Z</time>
      </trkpt>
      <trkpt lat="51.460979" lon="0.224088">
        <ele>7.715368</ele>
        <time>2024-08-10T23:11:13.000Z</time>
      </trkpt>
      <trkpt lat="51.460794" lon="0.223758">
        <ele>7.716701</ele>
        <time>2024-08-10T23:11:16.000Z</time>
      </trkpt>
      <trkpt lat="51.460538" lon="0.223438">
        <ele>7.718347</ele>
        <time>2024-08-10T23:11:20.000Z</time>
      </trkpt>
      <trkpt lat="51.460501" lon="0.223421">
        <ele>7.718511</ele>
        <time>2024-08-10T23:11:20.000Z</time>
      </trkpt>
      <trkpt lat="51.460492" lon="0.2234">
        <ele>7.718562</ele>
        <time>2024-08-10T23:11:20.000Z</time>
      </trkpt>
      <trkpt lat="51.460496" lon="0.223398">
        <ele>7.718548</ele>
        <time>2024-08-10T23:11:20.000Z</time>
      </trkpt>
      <trkpt lat="51.460486" lon="0.223402">
        <ele>7.718557</ele>
        <time>2024-08-10T23:11:20.000Z</time>
      </trkpt>
      <trkpt lat="51.460508" lon="0.223407">
        <ele>7.718599</ele>
        <time>2024-08-10T23:11:20.000Z</time>
      </trkpt>
      <trkpt lat="51.460536" lon="0.223433">
        <ele>7.718759</ele>
        <time>2024-08-10T23:11:20.000Z</time>
      </trkpt>
      <trkpt lat="51.460789" lon="0.223755">
        <ele>7.720403</ele>
        <time>2024-08-10T23:11:24.000Z</time>
      </trkpt>
      <trkpt lat="51.460969" lon="0.22409">
        <ele>7.721751</ele>
        <time>2024-08-10T23:11:27.000Z</time>
      </trkpt>
      <trkpt lat="51.461823" lon="0.226208">
        <ele>7.607568</ele>
        <time>2024-08-10T23:11:44.000Z</time>
      </trkpt>
      <trkpt lat="51.461851" lon="0.226357">
        <ele>7.598656</ele>
        <time>2024-08-10T23:11:45.000Z</time>
      </trkpt>
      <trkpt lat="51.461858" lon="0.226732">
        <ele>7.578312</ele>
        <time>2024-08-10T23:11:48.000Z</time>
      </trkpt>
      <trkpt lat="51.461859" lon="0.226904">
        <ele>7.568136</ele>
        <time>2024-08-10T23:11:49.000Z</time>
      </trkpt>
      <trkpt lat="51.46167" lon="0.230508">
        <ele>6.143962</ele>
        <time>2024-08-10T23:12:14.000Z</time>
      </trkpt>
      <trkpt lat="51.461611" lon="0.231139">
        <ele>5.97562</ele>
        <time>2024-08-10T23:12:18.000Z</time>
      </trkpt>
      <trkpt lat="51.461583" lon="0.231343">
        <ele>5.919778</ele>
        <time>2024-08-10T23:12:19.000Z</time>
      </trkpt>
      <trkpt lat="51.461519" lon="0.231588">
        <ele>5.850404</ele>
        <time>2024-08-10T23:12:21.000Z</time>
      </trkpt>
      <trkpt lat="51.461451" lon="0.231834">
        <ele>5.783654</ele>
        <time>2024-08-10T23:12:23.000Z</time>
      </trkpt>
      <trkpt lat="51.461419" lon="0.231951">
        <ele>5.745892</ele>
        <time>2024-08-10T23:12:24.000Z</time>
      </trkpt>
      <trkpt lat="51.461378" lon="0.232056">
        <ele>5.715568</ele>
        <time>2024-08-10T23:12:25.000Z</time>
      </trkpt>
      <trkpt lat="51.461328" lon="0.232244">
        <ele>5.659534</ele>
        <time>2024-08-10T23:12:26.000Z</time>
      </trkpt>
      <trkpt lat="51.461258" lon="0.232394">
        <ele>5.612187</ele>
        <time>2024-08-10T23:12:27.000Z</time>
      </trkpt>
      <trkpt lat="51.460675" lon="0.233733">
        <ele>5.357289</ele>
        <time>2024-08-10T23:12:38.000Z</time>
      </trkpt>
      <trkpt lat="51.46034" lon="0.235048">
        <ele>5.162345</ele>
        <time>2024-08-10T23:12:48.000Z</time>
      </trkpt>
      <trkpt lat="51.46032" lon="0.235224">
        <ele>5.123321</ele>
        <time>2024-08-10T23:12:49.000Z</time>
      </trkpt>
      <trkpt lat="51.46028" lon="0.235733">
        <ele>4.954593</ele>
        <time>2024-08-10T23:12:53.000Z</time>
      </trkpt>
      <trkpt lat="51.460284" lon="0.235746">
        <ele>4.953301</ele>
        <time>2024-08-10T23:12:53.000Z</time>
      </trkpt>
      <trkpt lat="51.460252" lon="0.236059">
        <ele>4.849821</ele>
        <time>2024-08-10T23:12:55.000Z</time>
      </trkpt>
      <trkpt lat="51.46026" lon="0.237592">
        <ele>4.362725</ele>
        <time>2024-08-10T23:13:06.000Z</time>
      </trkpt>
      <trkpt lat="51.460207" lon="0.238161">
        <ele>4.213019</ele>
        <time>2024-08-10T23:13:10.000Z</time>
      </trkpt>
      <trkpt lat="51.46011" lon="0.238641">
        <ele>4.177479</ele>
        <time>2024-08-10T23:13:13.000Z</time>
      </trkpt>
      <trkpt lat="51.460094" lon="0.238684">
        <ele>4.173256</ele>
        <time>2024-08-10T23:13:13.000Z</time>
      </trkpt>
      <trkpt lat="51.460052" lon="0.238846">
        <ele>4.160779</ele>
        <time>2024-08-10T23:13:14.000Z</time>
      </trkpt>
      <trkpt lat="51.45961" lon="0.240154">
        <ele>4.054589</ele>
        <time>2024-08-10T23:13:24.000Z</time>
      </trkpt>
      <trkpt lat="51.459311" lon="0.240739">
        <ele>4.019718</ele>
        <time>2024-08-10T23:13:29.000Z</time>
      </trkpt>
      <trkpt lat="51.458613" lon="0.241562">
        <ele>4.029556</ele>
        <time>2024-08-10T23:13:39.000Z</time>
      </trkpt>
      <trkpt lat="51.458558" lon="0.241616">
        <ele>4.030168</ele>
        <time>2024-08-10T23:13:40.000Z</time>
      </trkpt>
      <trkpt lat="51.458556" lon="0.241603">
        <ele>4.030182</ele>
        <time>2024-08-10T23:13:40.000Z</time>
      </trkpt>
      <trkpt lat="51.458562" lon="0.241619">
        <ele>4.030218</ele>
        <time>2024-08-10T23:13:40.000Z</time>
      </trkpt>
      <trkpt lat="51.458547" lon="0.241615">
        <ele>4.030233</ele>
        <time>2024-08-10T23:13:40.000Z</time>
      </trkpt>
      <trkpt lat="51.458552" lon="0.24162">
        <ele>4.030255</ele>
        <time>2024-08-10T23:13:40.000Z</time>
      </trkpt>
      <trkpt lat="51.458542" lon="0.241619">
        <ele>4.030282</ele>
        <time>2024-08-10T23:13:40.000Z</time>
      </trkpt>
      <trkpt lat="51.458541" lon="0.241623">
        <ele>4.030342</ele>
        <time>2024-08-10T23:13:40.000Z</time>
      </trkpt>
      <trkpt lat="51.458541" lon="0.241618">
        <ele>4.030368</ele>
        <time>2024-08-10T23:13:40.000Z</time>
      </trkpt>
      <trkpt lat="51.458546" lon="0.241611">
        <ele>4.030379</ele>
        <time>2024-08-10T23:13:40.000Z</time>
      </trkpt>
      <trkpt lat="51.458557" lon="0.241608">
        <ele>4.030442</ele>
        <time>2024-08-10T23:13:40.000Z</time>
      </trkpt>
      <trkpt lat="51.458552" lon="0.241622">
        <ele>4.030457</ele>
        <time>2024-08-10T23:13:40.000Z</time>
      </trkpt>
      <trkpt lat="51.458543" lon="0.241604">
        <ele>4.030486</ele>
        <time>2024-08-10T23:13:40.000Z</time>
      </trkpt>
      <trkpt lat="51.458562" lon="0.241616">
        <ele>4.030498</ele>
        <time>2024-08-10T23:13:40.000Z</time>
      </trkpt>
      <trkpt lat="51.45855" lon="0.241603">
        <ele>4.030529</ele>
        <time>2024-08-10T23:13:40.000Z</time>
      </trkpt>
      <trkpt lat="51.458564" lon="0.241611">
        <ele>4.030555</ele>
        <time>2024-08-10T23:13:40.000Z</time>
      </trkpt>
      <trkpt lat="51.458609" lon="0.241561">
        <ele>4.031147</ele>
        <time>2024-08-10T23:13:41.000Z</time>
      </trkpt>
      <trkpt lat="51.459315" lon="0.240725">
        <ele>4.046579</ele>
        <time>2024-08-10T23:13:51.000Z</time>
      </trkpt>
      <trkpt lat="51.459607" lon="0.240155">
        <ele>4.062856</ele>
        <time>2024-08-10T23:13:56.000Z</time>
      </trkpt>
      <trkpt lat="51.460052" lon="0.238844">
        <ele>4.095304</ele>
        <time>2024-08-10T23:14:06.000Z</time>
      </trkpt>
      <trkpt lat="51.460102" lon="0.238687">
        <ele>4.099105</ele>
        <time>2024-08-10T23:14:07.000Z</time>
      </trkpt>
      <trkpt lat="51.460108" lon="0.238639">
        <ele>4.100403</ele>
        <time>2024-08-10T23:14:07.000Z</time>
      </trkpt>
      <trkpt lat="51.460206" lon="0.238157">
        <ele>4.240226</ele>
        <time>2024-08-10T23:14:11.000Z</time>
      </trkpt>
      <trkpt lat="51.460262" lon="0.237581">
        <ele>4.41611</ele>
        <time>2024-08-10T23:14:15.000Z</time>
      </trkpt>
      <trkpt lat="51.460242" lon="0.236067">
        <ele>4.873746</ele>
        <time>2024-08-10T23:14:25.000Z</time>
      </trkpt>
      <trkpt lat="51.460268" lon="0.235748">
        <ele>4.970714</ele>
        <time>2024-08-10T23:14:27.000Z</time>
      </trkpt>
      <trkpt lat="51.460282" lon="0.235742">
        <ele>4.971482</ele>
        <time>2024-08-10T23:14:27.000Z</time>
      </trkpt>
      <trkpt lat="51.460312" lon="0.235225">
        <ele>5.071881</ele>
        <time>2024-08-10T23:14:31.000Z</time>
      </trkpt>
      <trkpt lat="51.460332" lon="0.235044">
        <ele>5.10588</ele>
        <time>2024-08-10T23:14:32.000Z</time>
      </trkpt>
      <trkpt lat="51.460679" lon="0.23372">
        <ele>5.376772</ele>
        <time>2024-08-10T23:14:42.000Z</time>
      </trkpt>
      <trkpt lat="51.461252" lon="0.232398">
        <ele>5.391764</ele>
        <time>2024-08-10T23:14:53.000Z</time>
      </trkpt>
      <trkpt lat="51.46132" lon="0.232241">
        <ele>5.364927</ele>
        <time>2024-08-10T23:14:54.000Z</time>
      </trkpt>
      <trkpt lat="51.461394" lon="0.23206">
        <ele>5.333167</ele>
        <time>2024-08-10T23:14:55.000Z</time>
      </trkpt>
      <trkpt lat="51.461425" lon="0.231956">
        <ele>5.315967</ele>
        <time>2024-08-10T23:14:56.000Z</time>
      </trkpt>
      <trkpt lat="51.461397" lon="0.23195">
        <ele>5.309057</ele>
        <time>2024-08-10T23:14:56.000Z</time>
      </trkpt>
      <trkpt lat="51.461395" lon="0.231967">
        <ele>5.308588</ele>
        <time>2024-08-10T23:14:56.000Z</time>
      </trkpt>
      <trkpt lat="51.461393" lon="0.231965">
        <ele>5.308104</ele>
        <time>2024-08-10T23:14:56.000Z</time>
      </trkpt>
      <trkpt lat="51.46139" lon="0.231967">
        <ele>5.30787</ele>
        <time>2024-08-10T23:14:56.000Z</time>
      </trkpt>
      <trkpt lat="51.461384" lon="0.231964">
        <ele>5.307393</ele>
        <time>2024-08-10T23:14:56.000Z</time>
      </trkpt>
      <trkpt lat="51.461374" lon="0.231956">
        <ele>5.307153</ele>
        <time>2024-08-10T23:14:56.000Z</time>
      </trkpt>
      <trkpt lat="51.461382" lon="0.231962">
        <ele>5.306675</ele>
        <time>2024-08-10T23:14:56.000Z</time>
      </trkpt>
      <trkpt lat="51.461348" lon="0.231957">
        <ele>5.298574</ele>
        <time>2024-08-10T23:14:56.000Z</time>
      </trkpt>
      <trkpt lat="51.460776" lon="0.231902">
        <ele>5.163161</ele>
        <time>2024-08-10T23:15:02.000Z</time>
      </trkpt>
      <trkpt lat="51.460693" lon="0.231907">
        <ele>5.143597</ele>
        <time>2024-08-10T23:15:03.000Z</time>
      </trkpt>
      <trkpt lat="51.460647" lon="0.231913">
        <ele>5.130444</ele>
        <time>2024-08-10T23:15:04.000Z</time>
      </trkpt>
      <trkpt lat="51.460567" lon="0.231917">
        <ele>5.112958</ele>
        <time>2024-08-10T23:15:05.000Z</time>
      </trkpt>
      <trkpt lat="51.460472" lon="0.23199">
        <ele>5.088484</ele>
        <time>2024-08-10T23:15:06.000Z</time>
      </trkpt>
      <trkpt lat="51.460456" lon="0.232045">
        <ele>5.079598</ele>
        <time>2024-08-10T23:15:06.000Z</time>
      </trkpt>
      <trkpt lat="51.460381" lon="0.232128">
        <ele>5.06202</ele>
        <time>2024-08-10T23:15:07.000Z</time>
      </trkpt>
      <trkpt lat="51.460337" lon="0.23214">
        <ele>5.053224</ele>
        <time>2024-08-10T23:15:07.000Z</time>
      </trkpt>
      <trkpt lat="51.4603" lon="0.232138">
        <ele>5.044794</ele>
        <time>2024-08-10T23:15:07.000Z</time>
      </trkpt>
      <trkpt lat="51.46031" lon="0.232128">
        <ele>5.044163</ele>
        <time>2024-08-10T23:15:07.000Z</time>
      </trkpt>
      <trkpt lat="51.46029" lon="0.232126">
        <ele>5.043521</ele>
        <time>2024-08-10T23:15:07.000Z</time>
      </trkpt>
      <trkpt lat="51.46029" lon="0.232134">
        <ele>5.043314</ele>
        <time>2024-08-10T23:15:07.000Z</time>
      </trkpt>
      <trkpt lat="51.460294" lon="0.232134">
        <ele>5.043323</ele>
        <time>2024-08-10T23:15:07.000Z</time>
      </trkpt>
      <trkpt lat="51.460287" lon="0.232125">
        <ele>5.043079</ele>
        <time>2024-08-10T23:15:07.000Z</time>
      </trkpt>
      <trkpt lat="51.460293" lon="0.232126">
        <ele>5.042822</ele>
        <time>2024-08-10T23:15:07.000Z</time>
      </trkpt>
      <trkpt lat="51.460299" lon="0.232135">
        <ele>5.042385</ele>
        <time>2024-08-10T23:15:07.000Z</time>
      </trkpt>
      <trkpt lat="51.460256" lon="0.232108">
        <ele>5.033486</ele>
        <time>2024-08-10T23:15:08.000Z</time>
      </trkpt>
      <trkpt lat="51.460214" lon="0.232054">
        <ele>5.023676</ele>
        <time>2024-08-10T23:15:09.000Z</time>
      </trkpt>
      <trkpt lat="51.460144" lon="0.232042">
        <ele>5.009627</ele>
        <time>2024-08-10T23:15:10.000Z</time>
      </trkpt>
      <trkpt lat="51.459803" lon="0.23197">
        <ele>4.93611</ele>
        <time>2024-08-10T23:15:14.000Z</time>
      </trkpt>
      <trkpt lat="51.459448" lon="0.231505">
        <ele>4.8419</ele>
        <time>2024-08-10T23:15:19.000Z</time>
      </trkpt>
      <trkpt lat="51.459174" lon="0.231319">
        <ele>4.777054</ele>
        <time>2024-08-10T23:15:22.000Z</time>
      </trkpt>
      <trkpt lat="51.45905" lon="0.231314">
        <ele>4.753782</ele>
        <time>2024-08-10T23:15:23.000Z</time>
      </trkpt>
      <trkpt lat="51.459011" lon="0.231371">
        <ele>4.743441</ele>
        <time>2024-08-10T23:15:24.000Z</time>
      </trkpt>
      <trkpt lat="51.458965" lon="0.231398">
        <ele>4.733289</ele>
        <time>2024-08-10T23:15:25.000Z</time>
      </trkpt>
      <trkpt lat="51.458761" lon="0.231587">
        <ele>4.795252</ele>
        <time>2024-08-10T23:15:28.000Z</time>
      </trkpt>
      <trkpt lat="51.458721" lon="0.231633">
        <ele>4.824909</ele>
        <time>2024-08-10T23:15:29.000Z</time>
      </trkpt>
      <trkpt lat="51.458707" lon="0.231636">
        <ele>4.826726</ele>
        <time>2024-08-10T23:15:29.000Z</time>
      </trkpt>
      <trkpt lat="51.458709" lon="0.231639">
        <ele>4.827324</ele>
        <time>2024-08-10T23:15:29.000Z</time>
      </trkpt>
      <trkpt lat="51.4587" lon="0.231633">
        <ele>4.82855</ele>
        <time>2024-08-10T23:15:29.000Z</time>
      </trkpt>
      <trkpt lat="51.458709" lon="0.231634">
        <ele>4.829767</ele>
        <time>2024-08-10T23:15:29.000Z</time>
      </trkpt>
      <trkpt lat="51.458707" lon="0.231649">
        <ele>4.830362</ele>
        <time>2024-08-10T23:15:29.000Z</time>
      </trkpt>
      <trkpt lat="51.458711" lon="0.231634">
        <ele>4.831583</ele>
        <time>2024-08-10T23:15:29.000Z</time>
      </trkpt>
      <trkpt lat="51.458705" lon="0.231649">
        <ele>4.832406</ele>
        <time>2024-08-10T23:15:29.000Z</time>
      </trkpt>
      <trkpt lat="51.458699" lon="0.231635">
        <ele>4.832401</ele>
        <time>2024-08-10T23:15:29.000Z</time>
      </trkpt>
      <trkpt lat="51.458692" lon="0.231654">
        <ele>4.833016</ele>
        <time>2024-08-10T23:15:29.000Z</time>
      </trkpt>
      <trkpt lat="51.458691" lon="0.231642">
        <ele>4.834109</ele>
        <time>2024-08-10T23:15:29.000Z</time>
      </trkpt>
      <trkpt lat="51.458697" lon="0.231648">
        <ele>4.834932</ele>
        <time>2024-08-10T23:15:29.000Z</time>
      </trkpt>
      <trkpt lat="51.458698" lon="0.231661">
        <ele>4.836142</ele>
        <time>2024-08-10T23:15:29.000Z</time>
      </trkpt>
      <trkpt lat="51.45869" lon="0.231645">
        <ele>4.83696</ele>
        <time>2024-08-10T23:15:29.000Z</time>
      </trkpt>
      <trkpt lat="51.458187" lon="0.232573">
        <ele>5.231895</ele>
        <time>2024-08-10T23:15:38.000Z</time>
      </trkpt>
      <trkpt lat="51.458183" lon="0.232581">
        <ele>5.235183</ele>
        <time>2024-08-10T23:15:38.000Z</time>
      </trkpt>
      <trkpt lat="51.458172" lon="0.232586">
        <ele>5.237098</ele>
        <time>2024-08-10T23:15:38.000Z</time>
      </trkpt>
      <trkpt lat="51.458181" lon="0.232597">
        <ele>5.237737</ele>
        <time>2024-08-10T23:15:38.000Z</time>
      </trkpt>
      <trkpt lat="51.458182" lon="0.232589">
        <ele>5.23834</ele>
        <time>2024-08-10T23:15:38.000Z</time>
      </trkpt>
      <trkpt lat="51.458183" lon="0.232597">
        <ele>5.239424</ele>
        <time>2024-08-10T23:15:38.000Z</time>
      </trkpt>
      <trkpt lat="51.458179" lon="0.232588">
        <ele>5.240049</ele>
        <time>2024-08-10T23:15:38.000Z</time>
      </trkpt>
      <trkpt lat="51.458179" lon="0.232593">
        <ele>5.240646</ele>
        <time>2024-08-10T23:15:38.000Z</time>
      </trkpt>
      <trkpt lat="51.458186" lon="0.232591">
        <ele>5.241295</ele>
        <time>2024-08-10T23:15:38.000Z</time>
      </trkpt>
      <trkpt lat="51.458182" lon="0.23259">
        <ele>5.242116</ele>
        <time>2024-08-10T23:15:38.000Z</time>
      </trkpt>
      <trkpt lat="51.458178" lon="0.232602">
        <ele>5.242935</ele>
        <time>2024-08-10T23:15:38.000Z</time>
      </trkpt>
      <trkpt lat="51.458169" lon="0.232608">
        <ele>5.243751</ele>
        <time>2024-08-10T23:15:38.000Z</time>
      </trkpt>
      <trkpt lat="51.45817" lon="0.232609">
        <ele>5.244401</ele>
        <time>2024-08-10T23:15:38.000Z</time>
      </trkpt>
      <trkpt lat="51.458166" lon="0.232603">
        <ele>5.245216</ele>
        <time>2024-08-10T23:15:38.000Z</time>
      </trkpt>
      <trkpt lat="51.458166" lon="0.232615">
        <ele>5.246054</ele>
        <time>2024-08-10T23:15:38.000Z</time>
      </trkpt>
      <trkpt lat="51.458178" lon="0.232603">
        <ele>5.246875</ele>
        <time>2024-08-10T23:15:38.000Z</time>
      </trkpt>
      <trkpt lat="51.457779" lon="0.233626">
        <ele>5.627638</ele>
        <time>2024-08-10T23:15:46.000Z</time>
      </trkpt>
      <trkpt lat="51.457483" lon="0.234607">
        <ele>6.062586</ele>
        <time>2024-08-10T23:15:54.000Z</time>
      </trkpt>
      <trkpt lat="51.457475" lon="0.234619">
        <ele>6.06298</ele>
        <time>2024-08-10T23:15:54.000Z</time>
      </trkpt>
      <trkpt lat="51.45748" lon="0.234609">
        <ele>6.063727</ele>
        <time>2024-08-10T23:15:54.000Z</time>
      </trkpt>
      <trkpt lat="51.457473" lon="0.234608">
        <ele>6.064521</ele>
        <time>2024-08-10T23:15:54.000Z</time>
      </trkpt>
      <trkpt lat="51.45748" lon="0.234622">
        <ele>6.065304</ele>
        <time>2024-08-10T23:15:54.000Z</time>
      </trkpt>
      <trkpt lat="51.45748" lon="0.234611">
        <ele>6.066051</ele>
        <time>2024-08-10T23:15:54.000Z</time>
      </trkpt>
      <trkpt lat="51.457473" lon="0.234629">
        <ele>6.066844</ele>
        <time>2024-08-10T23:15:54.000Z</time>
      </trkpt>
      <trkpt lat="51.457476" lon="0.234629">
        <ele>6.068185</ele>
        <time>2024-08-10T23:15:54.000Z</time>
      </trkpt>
      <trkpt lat="51.457462" lon="0.234616">
        <ele>6.068969</ele>
        <time>2024-08-10T23:15:54.000Z</time>
      </trkpt>
      <trkpt lat="51.457461" lon="0.234628">
        <ele>6.069725</ele>
        <time>2024-08-10T23:15:54.000Z</time>
      </trkpt>
      <trkpt lat="51.457461" lon="0.234625">
        <ele>6.070897</ele>
        <time>2024-08-10T23:15:54.000Z</time>
      </trkpt>
      <trkpt lat="51.457466" lon="0.234632">
        <ele>6.071647</ele>
        <time>2024-08-10T23:15:54.000Z</time>
      </trkpt>
      <trkpt lat="51.457469" lon="0.234629">
        <ele>6.072842</ele>
        <time>2024-08-10T23:15:54.000Z</time>
      </trkpt>
      <trkpt lat="51.457464" lon="0.234647">
        <ele>6.074904</ele>
        <time>2024-08-10T23:15:54.000Z</time>
      </trkpt>
      <trkpt lat="51.45692" lon="0.236936">
        <ele>7.127464</ele>
        <time>2024-08-10T23:16:11.000Z</time>
      </trkpt>
      <trkpt lat="51.456911" lon="0.236961">
        <ele>7.143949</ele>
        <time>2024-08-10T23:16:11.000Z</time>
      </trkpt>
      <trkpt lat="51.456898" lon="0.23698">
        <ele>7.145688</ele>
        <time>2024-08-10T23:16:11.000Z</time>
      </trkpt>
      <trkpt lat="51.456906" lon="0.236966">
        <ele>7.146983</ele>
        <time>2024-08-10T23:16:11.000Z</time>
      </trkpt>
      <trkpt lat="51.456901" lon="0.236979">
        <ele>7.148014</ele>
        <time>2024-08-10T23:16:11.000Z</time>
      </trkpt>
      <trkpt lat="51.456901" lon="0.236974">
        <ele>7.149313</ele>
        <time>2024-08-10T23:16:11.000Z</time>
      </trkpt>
      <trkpt lat="51.456902" lon="0.236975">
        <ele>7.150633</ele>
        <time>2024-08-10T23:16:11.000Z</time>
      </trkpt>
      <trkpt lat="51.456893" lon="0.236983">
        <ele>7.15282</ele>
        <time>2024-08-10T23:16:11.000Z</time>
      </trkpt>
      <trkpt lat="51.456907" lon="0.236993">
        <ele>7.153787</ele>
        <time>2024-08-10T23:16:11.000Z</time>
      </trkpt>
      <trkpt lat="51.456907" lon="0.236986">
        <ele>7.154822</ele>
        <time>2024-08-10T23:16:11.000Z</time>
      </trkpt>
      <trkpt lat="51.456904" lon="0.236989">
        <ele>7.156132</ele>
        <time>2024-08-10T23:16:11.000Z</time>
      </trkpt>
      <trkpt lat="51.45655" lon="0.237936">
        <ele>7.717952</ele>
        <time>2024-08-10T23:16:19.000Z</time>
      </trkpt>
      <trkpt lat="51.456541" lon="0.23797">
        <ele>7.734066</ele>
        <time>2024-08-10T23:16:19.000Z</time>
      </trkpt>
      <trkpt lat="51.456534" lon="0.237972">
        <ele>7.737109</ele>
        <time>2024-08-10T23:16:19.000Z</time>
      </trkpt>
      <trkpt lat="51.456543" lon="0.237973">
        <ele>7.738073</ele>
        <time>2024-08-10T23:16:19.000Z</time>
      </trkpt>
      <trkpt lat="51.456538" lon="0.237985">
        <ele>7.739799</ele>
        <time>2024-08-10T23:16:19.000Z</time>
      </trkpt>
      <trkpt lat="51.456544" lon="0.237976">
        <ele>7.74112</ele>
        <time>2024-08-10T23:16:19.000Z</time>
      </trkpt>
      <trkpt lat="51.456546" lon="0.237973">
        <ele>7.743037</ele>
        <time>2024-08-10T23:16:19.000Z</time>
      </trkpt>
      <trkpt lat="51.456532" lon="0.237987">
        <ele>7.744358</ele>
        <time>2024-08-10T23:16:19.000Z</time>
      </trkpt>
      <trkpt lat="51.456545" lon="0.237986">
        <ele>7.74609</ele>
        <time>2024-08-10T23:16:19.000Z</time>
      </trkpt>
      <trkpt lat="51.456528" lon="0.237986">
        <ele>7.748706</ele>
        <time>2024-08-10T23:16:19.000Z</time>
      </trkpt>
      <trkpt lat="51.456537" lon="0.237985">
        <ele>7.750441</ele>
        <time>2024-08-10T23:16:19.000Z</time>
      </trkpt>
      <trkpt lat="51.456526" lon="0.238">
        <ele>7.751415</ele>
        <time>2024-08-10T23:16:19.000Z</time>
      </trkpt>
      <trkpt lat="51.45653" lon="0.237991">
        <ele>7.752722</ele>
        <time>2024-08-10T23:16:19.000Z</time>
      </trkpt>
      <trkpt lat="51.456527" lon="0.237992">
        <ele>7.754446</ele>
        <time>2024-08-10T23:16:19.000Z</time>
      </trkpt>
      <trkpt lat="51.456085" lon="0.23892">
        <ele>8.319799</ele>
        <time>2024-08-10T23:16:27.000Z</time>
      </trkpt>
      <trkpt lat="51.455848" lon="0.23929">
        <ele>8.500239</ele>
        <time>2024-08-10T23:16:31.000Z</time>
      </trkpt>
      <trkpt lat="51.455858" lon="0.239294">
        <ele>8.501749</ele>
        <time>2024-08-10T23:16:31.000Z</time>
      </trkpt>
      <trkpt lat="51.455857" lon="0.23931">
        <ele>8.503064</ele>
        <time>2024-08-10T23:16:31.000Z</time>
      </trkpt>
      <trkpt lat="51.455856" lon="0.23931">
        <ele>8.504228</ele>
        <time>2024-08-10T23:16:31.000Z</time>
      </trkpt>
      <trkpt lat="51.455847" lon="0.239315">
        <ele>8.504881</ele>
        <time>2024-08-10T23:16:31.000Z</time>
      </trkpt>
      <trkpt lat="51.455843" lon="0.239314">
        <ele>8.505528</ele>
        <time>2024-08-10T23:16:31.000Z</time>
      </trkpt>
      <trkpt lat="51.455853" lon="0.239311">
        <ele>8.506423</ele>
        <time>2024-08-10T23:16:31.000Z</time>
      </trkpt>
      <trkpt lat="51.455851" lon="0.239306">
        <ele>8.507303</ele>
        <time>2024-08-10T23:16:31.000Z</time>
      </trkpt>
      <trkpt lat="51.455847" lon="0.239314">
        <ele>8.507957</ele>
        <time>2024-08-10T23:16:31.000Z</time>
      </trkpt>
      <trkpt lat="51.455853" lon="0.239319">
        <ele>8.50885</ele>
        <time>2024-08-10T23:16:31.000Z</time>
      </trkpt>
      <trkpt lat="51.455777" lon="0.239436">
        <ele>8.568234</ele>
        <time>2024-08-10T23:16:32.000Z</time>
      </trkpt>
      <trkpt lat="51.455116" lon="0.240244">
        <ele>9.020227</ele>
        <time>2024-08-10T23:16:41.000Z</time>
      </trkpt>
      <trkpt lat="51.455121" lon="0.240248">
        <ele>9.022388</ele>
        <time>2024-08-10T23:16:41.000Z</time>
      </trkpt>
      <trkpt lat="51.455115" lon="0.240242">
        <ele>9.023039</ele>
        <time>2024-08-10T23:16:41.000Z</time>
      </trkpt>
      <trkpt lat="51.455123" lon="0.240243">
        <ele>9.023677</ele>
        <time>2024-08-10T23:16:41.000Z</time>
      </trkpt>
      <trkpt lat="51.45512" lon="0.240237">
        <ele>9.02433</ele>
        <time>2024-08-10T23:16:41.000Z</time>
      </trkpt>
      <trkpt lat="51.455122" lon="0.240241">
        <ele>9.024997</ele>
        <time>2024-08-10T23:16:41.000Z</time>
      </trkpt>
      <trkpt lat="51.45511" lon="0.240238">
        <ele>9.025648</ele>
        <time>2024-08-10T23:16:41.000Z</time>
      </trkpt>
      <trkpt lat="51.455121" lon="0.24024">
        <ele>9.027155</ele>
        <time>2024-08-10T23:16:41.000Z</time>
      </trkpt>
      <trkpt lat="51.455108" lon="0.24024">
        <ele>9.027817</ele>
        <time>2024-08-10T23:16:41.000Z</time>
      </trkpt>
      <trkpt lat="51.455109" lon="0.240245">
        <ele>9.028693</ele>
        <time>2024-08-10T23:16:41.000Z</time>
      </trkpt>
      <trkpt lat="51.45511" lon="0.240248">
        <ele>9.029994</ele>
        <time>2024-08-10T23:16:41.000Z</time>
      </trkpt>
      <trkpt lat="51.4551" lon="0.240247">
        <ele>9.03151</ele>
        <time>2024-08-10T23:16:41.000Z</time>
      </trkpt>
      <trkpt lat="51.455113" lon="0.240266">
        <ele>9.032825</ele>
        <time>2024-08-10T23:16:41.000Z</time>
      </trkpt>
      <trkpt lat="51.455098" lon="0.240256">
        <ele>9.033467</ele>
        <time>2024-08-10T23:16:41.000Z</time>
      </trkpt>
      <trkpt lat="51.455089" lon="0.240293">
        <ele>9.049462</ele>
        <time>2024-08-10T23:16:41.000Z</time>
      </trkpt>
      <trkpt lat="51.454692" lon="0.240622">
        <ele>9.220299</ele>
        <time>2024-08-10T23:16:46.000Z</time>
      </trkpt>
      <trkpt lat="51.454612" lon="0.240676">
        <ele>9.187989</ele>
        <time>2024-08-10T23:16:47.000Z</time>
      </trkpt>
      <trkpt lat="51.454606" lon="0.240687">
        <ele>9.187217</ele>
        <time>2024-08-10T23:16:47.000Z</time>
      </trkpt>
      <trkpt lat="51.454604" lon="0.240691">
        <ele>9.186367</ele>
        <time>2024-08-10T23:16:47.000Z</time>
      </trkpt>
      <trkpt lat="51.454609" lon="0.240683">
        <ele>9.185936</ele>
        <time>2024-08-10T23:16:47.000Z</time>
      </trkpt>
      <trkpt lat="51.45461" lon="0.240695">
        <ele>9.185072</ele>
        <time>2024-08-10T23:16:47.000Z</time>
      </trkpt>
      <trkpt lat="51.454603" lon="0.240681">
        <ele>9.185065</ele>
        <time>2024-08-10T23:16:47.000Z</time>
      </trkpt>
      <trkpt lat="51.454594" lon="0.240699">
        <ele>9.185064</ele>
        <time>2024-08-10T23:16:47.000Z</time>
      </trkpt>
      <trkpt lat="51.455106" lon="0.240263">
        <ele>8.974785</ele>
        <time>2024-08-10T23:16:53.000Z</time>
      </trkpt>
      <trkpt lat="51.455108" lon="0.240262">
        <ele>8.974779</ele>
        <time>2024-08-10T23:16:53.000Z</time>
      </trkpt>
      <trkpt lat="51.455481" lon="0.239785">
        <ele>8.800216</ele>
        <time>2024-08-10T23:16:58.000Z</time>
      </trkpt>
      <trkpt lat="51.455859" lon="0.239294">
        <ele>8.625637</ele>
        <time>2024-08-10T23:17:03.000Z</time>
      </trkpt>
      <trkpt lat="51.455844" lon="0.239295">
        <ele>8.625627</ele>
        <time>2024-08-10T23:17:03.000Z</time>
      </trkpt>
      <trkpt lat="51.456196" lon="0.238641">
        <ele>8.260922</ele>
        <time>2024-08-10T23:17:09.000Z</time>
      </trkpt>
      <trkpt lat="51.456531" lon="0.237988">
        <ele>7.861804</ele>
        <time>2024-08-10T23:17:15.000Z</time>
      </trkpt>
      <trkpt lat="51.456547" lon="0.237974">
        <ele>7.861798</ele>
        <time>2024-08-10T23:17:15.000Z</time>
      </trkpt>
      <trkpt lat="51.456905" lon="0.236969">
        <ele>7.318974</ele>
        <time>2024-08-10T23:17:23.000Z</time>
      </trkpt>
      <trkpt lat="51.456898" lon="0.236964">
        <ele>7.318962</ele>
        <time>2024-08-10T23:17:23.000Z</time>
      </trkpt>
      <trkpt lat="51.457182" lon="0.235804">
        <ele>6.797365</ele>
        <time>2024-08-10T23:17:32.000Z</time>
      </trkpt>
      <trkpt lat="51.457465" lon="0.234637">
        <ele>6.284233</ele>
        <time>2024-08-10T23:17:41.000Z</time>
      </trkpt>
      <trkpt lat="51.457461" lon="0.234634">
        <ele>6.284236</ele>
        <time>2024-08-10T23:17:41.000Z</time>
      </trkpt>
      <trkpt lat="51.45782" lon="0.233613">
        <ele>5.880674</ele>
        <time>2024-08-10T23:17:49.000Z</time>
      </trkpt>
      <trkpt lat="51.458175" lon="0.232594">
        <ele>5.535447</ele>
        <time>2024-08-10T23:17:57.000Z</time>
      </trkpt>
      <trkpt lat="51.45817" lon="0.232593">
        <ele>5.535437</ele>
        <time>2024-08-10T23:17:57.000Z</time>
      </trkpt>
      <trkpt lat="51.458704" lon="0.231653">
        <ele>5.24401</ele>
        <time>2024-08-10T23:18:06.000Z</time>
      </trkpt>
      <trkpt lat="51.458699" lon="0.231646">
        <ele>5.244001</ele>
        <time>2024-08-10T23:18:06.000Z</time>
      </trkpt>
      <trkpt lat="51.458701" lon="0.231657">
        <ele>5.24401</ele>
        <time>2024-08-10T23:18:06.000Z</time>
      </trkpt>
      <trkpt lat="51.459109" lon="0.231216">
        <ele>5.368064</ele>
        <time>2024-08-10T23:18:11.000Z</time>
      </trkpt>
      <trkpt lat="51.459117" lon="0.231224">
        <ele>5.368067</ele>
        <time>2024-08-10T23:18:11.000Z</time>
      </trkpt>
      <trkpt lat="51.459105" lon="0.231217">
        <ele>5.368062</ele>
        <time>2024-08-10T23:18:11.000Z</time>
      </trkpt>
      <trkpt lat="51.459162" lon="0.23061">
        <ele>5.463631</ele>
        <time>2024-08-10T23:18:15.000Z</time>
      </trkpt>
      <trkpt lat="51.459149" lon="0.230605">
        <ele>5.463631</ele>
        <time>2024-08-10T23:18:15.000Z</time>
      </trkpt>
      <trkpt lat="51.459159" lon="0.230609">
        <ele>5.463632</ele>
        <time>2024-08-10T23:18:15.000Z</time>
      </trkpt>
      <trkpt lat="51.459279" lon="0.229851">
        <ele>5.587939</ele>
        <time>2024-08-10T23:18:20.000Z</time>
      </trkpt>
      <trkpt lat="51.459392" lon="0.229076">
        <ele>5.731313</ele>
        <time>2024-08-10T23:18:26.000Z</time>
      </trkpt>
      <trkpt lat="51.459397" lon="0.229088">
        <ele>5.731306</ele>
        <time>2024-08-10T23:18:26.000Z</time>
      </trkpt>
      <trkpt lat="51.459398" lon="0.229074">
        <ele>5.731319</ele>
        <time>2024-08-10T23:18:26.000Z</time>
      </trkpt>
      <trkpt lat="51.459454" lon="0.228171">
        <ele>5.93721</ele>
        <time>2024-08-10T23:18:32.000Z</time>
      </trkpt>
      <trkpt lat="51.459493" lon="0.22727">
        <ele>6.142851</ele>
        <time>2024-08-10T23:18:38.000Z</time>
      </trkpt>
      <trkpt lat="51.459497" lon="0.227266">
        <ele>6.142853</ele>
        <time>2024-08-10T23:18:38.000Z</time>
      </trkpt>
      <trkpt lat="51.459484" lon="0.226092">
        <ele>6.345699</ele>
        <time>2024-08-10T23:18:46.000Z</time>
      </trkpt>
      <trkpt lat="51.459456" lon="0.22491">
        <ele>6.415983</ele>
        <time>2024-08-10T23:18:54.000Z</time>
      </trkpt>
      <trkpt lat="51.459446" lon="0.223737">
        <ele>6.486237</ele>
        <time>2024-08-10T23:19:02.000Z</time>
      </trkpt>
      <trkpt lat="51.459441" lon="0.22375">
        <ele>6.486223</ele>
        <time>2024-08-10T23:19:02.000Z</time>
      </trkpt>
      <trkpt lat="51.459386" lon="0.222678">
        <ele>6.467155</ele>
        <time>2024-08-10T23:19:09.000Z</time>
      </trkpt>
      <trkpt lat="51.459346" lon="0.221589">
        <ele>6.434163</ele>
        <time>2024-08-10T23:19:17.000Z</time>
      </trkpt>
      <trkpt lat="51.459292" lon="0.22052">
        <ele>6.411656</ele>
        <time>2024-08-10T23:19:24.000Z</time>
      </trkpt>
      <trkpt lat="51.45929" lon="0.220522">
        <ele>6.411733</ele>
        <time>2024-08-10T23:19:24.000Z</time>
      </trkpt>
      <trkpt lat="51.459292" lon="0.220534">
        <ele>6.411791</ele>
        <time>2024-08-10T23:19:24.000Z</time>
      </trkpt>
      <trkpt lat="51.459297" lon="0.220535">
        <ele>6.411838</ele>
        <time>2024-08-10T23:19:24.000Z</time>
      </trkpt>
      <trkpt lat="51.459296" lon="0.220532">
        <ele>6.411904</ele>
        <time>2024-08-10T23:19:24.000Z</time>
      </trkpt>
      <trkpt lat="51.459302" lon="0.220528">
        <ele>6.412015</ele>
        <time>2024-08-10T23:19:24.000Z</time>
      </trkpt>
      <trkpt lat="51.459303" lon="0.220533">
        <ele>6.412116</ele>
        <time>2024-08-10T23:19:24.000Z</time>
      </trkpt>
      <trkpt lat="51.459303" lon="0.220535">
        <ele>6.412198</ele>
        <time>2024-08-10T23:19:24.000Z</time>
      </trkpt>
      <trkpt lat="51.459312" lon="0.22123">
        <ele>6.4292</ele>
        <time>2024-08-10T23:19:29.000Z</time>
      </trkpt>
      <trkpt lat="51.459446" lon="0.223707">
        <ele>6.492743</ele>
        <time>2024-08-10T23:19:46.000Z</time>
      </trkpt>
      <trkpt lat="51.4595" lon="0.227303">
        <ele>6.26731</ele>
        <time>2024-08-10T23:20:11.000Z</time>
      </trkpt>
      <trkpt lat="51.459483" lon="0.228229">
        <ele>6.039685</ele>
        <time>2024-08-10T23:20:17.000Z</time>
      </trkpt>
      <trkpt lat="51.459374" lon="0.229417">
        <ele>5.706092</ele>
        <time>2024-08-10T23:20:25.000Z</time>
      </trkpt>
      <trkpt lat="51.45931" lon="0.229777">
        <ele>5.575737</ele>
        <time>2024-08-10T23:20:28.000Z</time>
      </trkpt>
      <trkpt lat="51.45917" lon="0.230432">
        <ele>5.342999</ele>
        <time>2024-08-10T23:20:33.000Z</time>
      </trkpt>
      <trkpt lat="51.459135" lon="0.230717">
        <ele>5.247715</ele>
        <time>2024-08-10T23:20:35.000Z</time>
      </trkpt>
      <trkpt lat="51.459124" lon="0.230973">
        <ele>5.16095</ele>
        <time>2024-08-10T23:20:37.000Z</time>
      </trkpt>
      <trkpt lat="51.459127" lon="0.230997">
        <ele>5.148983</ele>
        <time>2024-08-10T23:20:37.000Z</time>
      </trkpt>
      <trkpt lat="51.459216" lon="0.231114">
        <ele>5.088794</ele>
        <time>2024-08-10T23:20:38.000Z</time>
      </trkpt>
      <trkpt lat="51.45947" lon="0.231353">
        <ele>4.930859</ele>
        <time>2024-08-10T23:20:41.000Z</time>
      </trkpt>
      <trkpt lat="51.459782" lon="0.231786">
        <ele>4.969248</ele>
        <time>2024-08-10T23:20:46.000Z</time>
      </trkpt>
      <trkpt lat="51.460007" lon="0.231913">
        <ele>5.0333</ele>
        <time>2024-08-10T23:20:49.000Z</time>
      </trkpt>
      <trkpt lat="51.46012" lon="0.231881">
        <ele>5.0643</ele>
        <time>2024-08-10T23:20:50.000Z</time>
      </trkpt>
      <trkpt lat="51.460204" lon="0.231814">
        <ele>5.085531</ele>
        <time>2024-08-10T23:20:51.000Z</time>
      </trkpt>
      <trkpt lat="51.460217" lon="0.231751">
        <ele>5.098365</ele>
        <time>2024-08-10T23:20:51.000Z</time>
      </trkpt>
      <trkpt lat="51.460261" lon="0.231712">
        <ele>5.111297</ele>
        <time>2024-08-10T23:20:52.000Z</time>
      </trkpt>
      <trkpt lat="51.460311" lon="0.231667">
        <ele>5.127872</ele>
        <time>2024-08-10T23:20:53.000Z</time>
      </trkpt>
      <trkpt lat="51.460379" lon="0.231678">
        <ele>5.144069</ele>
        <time>2024-08-10T23:20:54.000Z</time>
      </trkpt>
      <trkpt lat="51.460413" lon="0.231708">
        <ele>5.156924</ele>
        <time>2024-08-10T23:20:54.000Z</time>
      </trkpt>
      <trkpt lat="51.460445" lon="0.23176">
        <ele>5.169568</ele>
        <time>2024-08-10T23:20:55.000Z</time>
      </trkpt>
      <trkpt lat="51.46055" lon="0.231808">
        <ele>5.197334</ele>
        <time>2024-08-10T23:20:56.000Z</time>
      </trkpt>
      <trkpt lat="51.460654" lon="0.231857">
        <ele>5.226604</ele>
        <time>2024-08-10T23:20:57.000Z</time>
      </trkpt>
      <trkpt lat="51.460776" lon="0.231891">
        <ele>5.260941</ele>
        <time>2024-08-10T23:20:58.000Z</time>
      </trkpt>
      <trkpt lat="51.461344" lon="0.231958">
        <ele>5.481429</ele>
        <time>2024-08-10T23:21:04.000Z</time>
      </trkpt>
      <trkpt lat="51.461426" lon="0.231955">
        <ele>5.528481</ele>
        <time>2024-08-10T23:21:05.000Z</time>
      </trkpt>
      <trkpt lat="51.461467" lon="0.231826">
        <ele>5.586438</ele>
        <time>2024-08-10T23:21:06.000Z</time>
      </trkpt>
      <trkpt lat="51.461515" lon="0.231586">
        <ele>5.688807</ele>
        <time>2024-08-10T23:21:08.000Z</time>
      </trkpt>
      <trkpt lat="51.461578" lon="0.231343">
        <ele>5.795254</ele>
        <time>2024-08-10T23:21:10.000Z</time>
      </trkpt>
      <trkpt lat="51.461609" lon="0.231138">
        <ele>5.880907</ele>
        <time>2024-08-10T23:21:11.000Z</time>
      </trkpt>
      <trkpt lat="51.461669" lon="0.230493">
        <ele>6.139149</ele>
        <time>2024-08-10T23:21:16.000Z</time>
      </trkpt>
      <trkpt lat="51.461854" lon="0.22691">
        <ele>7.572683</ele>
        <time>2024-08-10T23:21:41.000Z</time>
      </trkpt>
      <trkpt lat="51.461865" lon="0.226718">
        <ele>7.644426</ele>
        <time>2024-08-10T23:21:42.000Z</time>
      </trkpt>
      <trkpt lat="51.461854" lon="0.22637">
        <ele>7.669939</ele>
        <time>2024-08-10T23:21:44.000Z</time>
      </trkpt>
      <trkpt lat="51.461817" lon="0.226214">
        <ele>7.67135</ele>
        <time>2024-08-10T23:21:45.000Z</time>
      </trkpt>
      <trkpt lat="51.460982" lon="0.224091">
        <ele>7.694711</ele>
        <time>2024-08-10T23:22:02.000Z</time>
      </trkpt>
      <trkpt lat="51.460789" lon="0.223761">
        <ele>7.702885</ele>
        <time>2024-08-10T23:22:05.000Z</time>
      </trkpt>
      <trkpt lat="51.460523" lon="0.223439">
        <ele>7.712855</ele>
        <time>2024-08-10T23:22:09.000Z</time>
      </trkpt>
      <trkpt lat="51.460507" lon="0.223424">
        <ele>7.713822</ele>
        <time>2024-08-10T23:22:09.000Z</time>
      </trkpt>
      <trkpt lat="51.460504" lon="0.223404">
        <ele>7.714141</ele>
        <time>2024-08-10T23:22:09.000Z</time>
      </trkpt>
      <trkpt lat="51.460486" lon="0.223406">
        <ele>7.714128</ele>
        <time>2024-08-10T23:22:09.000Z</time>
      </trkpt>
      <trkpt lat="51.460496" lon="0.223404">
        <ele>7.714129</ele>
        <time>2024-08-10T23:22:09.000Z</time>
      </trkpt>
      <trkpt lat="51.460495" lon="0.223418">
        <ele>7.714443</ele>
        <time>2024-08-10T23:22:09.000Z</time>
      </trkpt>
      <trkpt lat="51.460523" lon="0.223431">
        <ele>7.715414</ele>
        <time>2024-08-10T23:22:09.000Z</time>
      </trkpt>
      <trkpt lat="51.46079" lon="0.223768">
        <ele>7.725379</ele>
        <time>2024-08-10T23:22:13.000Z</time>
      </trkpt>
      <trkpt lat="51.460982" lon="0.224084">
        <ele>7.73356</ele>
        <time>2024-08-10T23:22:16.000Z</time>
      </trkpt>
      <trkpt lat="51.461816" lon="0.226204">
        <ele>7.576595</ele>
        <time>2024-08-10T23:22:33.000Z</time>
      </trkpt>
      <trkpt lat="51.461851" lon="0.226367">
        <ele>7.561517</ele>
        <time>2024-08-10T23:22:34.000Z</time>
      </trkpt>
      <trkpt lat="51.461863" lon="0.226729">
        <ele>7.527074</ele>
        <time>2024-08-10T23:22:37.000Z</time>
      </trkpt>
      <trkpt lat="51.46186" lon="0.226901">
        <ele>7.509834</ele>
        <time>2024-08-10T23:22:38.000Z</time>
      </trkpt>
      <trkpt lat="51.461678" lon="0.230509">
        <ele>6.113387</ele>
        <time>2024-08-10T23:23:03.000Z</time>
      </trkpt>
      <trkpt lat="51.461599" lon="0.231138">
        <ele>5.964575</ele>
        <time>2024-08-10T23:23:07.000Z</time>
      </trkpt>
      <trkpt lat="51.46157" lon="0.231345">
        <ele>5.915211</ele>
        <time>2024-08-10T23:23:08.000Z</time>
      </trkpt>
      <trkpt lat="51.46152" lon="0.231588">
        <ele>5.853874</ele>
        <time>2024-08-10T23:23:10.000Z</time>
      </trkpt>
      <trkpt lat="51.461458" lon="0.231831">
        <ele>5.79487</ele>
        <time>2024-08-10T23:23:12.000Z</time>
      </trkpt>
      <trkpt lat="51.461412" lon="0.23196">
        <ele>5.76148</ele>
        <time>2024-08-10T23:23:13.000Z</time>
      </trkpt>
      <trkpt lat="51.461389" lon="0.232061">
        <ele>5.734683</ele>
        <time>2024-08-10T23:23:14.000Z</time>
      </trkpt>
      <trkpt lat="51.461317" lon="0.232243">
        <ele>5.685138</ele>
        <time>2024-08-10T23:23:15.000Z</time>
      </trkpt>
      <trkpt lat="51.46126" lon="0.232398">
        <ele>5.643281</ele>
        <time>2024-08-10T23:23:16.000Z</time>
      </trkpt>
      <trkpt lat="51.460678" lon="0.233737">
        <ele>5.351406</ele>
        <time>2024-08-10T23:23:27.000Z</time>
      </trkpt>
      <trkpt lat="51.460346" lon="0.235036">
        <ele>5.130947</ele>
        <time>2024-08-10T23:23:37.000Z</time>
      </trkpt>
      <trkpt lat="51.460324" lon="0.235219">
        <ele>5.103291</ele>
        <time>2024-08-10T23:23:38.000Z</time>
      </trkpt>
      <trkpt lat="51.46028" lon="0.23574">
        <ele>4.966937</ele>
        <time>2024-08-10T23:23:42.000Z</time>
      </trkpt>
      <trkpt lat="51.460273" lon="0.235737">
        <ele>4.965687</ele>
        <time>2024-08-10T23:23:42.000Z</time>
      </trkpt>
      <trkpt lat="51.460255" lon="0.236069">
        <ele>4.863872</ele>
        <time>2024-08-10T23:23:44.000Z</time>
      </trkpt>
      <trkpt lat="51.460254" lon="0.237591">
        <ele>4.384669</ele>
        <time>2024-08-10T23:23:55.000Z</time>
      </trkpt>
      <trkpt lat="51.460204" lon="0.238159">
        <ele>4.200495</ele>
        <time>2024-08-10T23:23:59.000Z</time>
      </trkpt>
      <trkpt lat="51.460119" lon="0.238641">
        <ele>4.146121</ele>
        <time>2024-08-10T23:24:02.000Z</time>
      </trkpt>
      <trkpt lat="51.460096" lon="0.238685">
        <ele>4.143302</ele>
        <time>2024-08-10T23:24:02.000Z</time>
      </trkpt>
      <trkpt lat="51.460045" lon="0.238853">
        <ele>4.134938</ele>
        <time>2024-08-10T23:24:03.000Z</time>
      </trkpt>
      <trkpt lat="51.459598" lon="0.240165">
        <ele>4.063868</ele>
        <time>2024-08-10T23:24:13.000Z</time>
      </trkpt>
      <trkpt lat="51.4593" lon="0.240723">
        <ele>4.028223</ele>
        <time>2024-08-10T23:24:18.000Z</time>
      </trkpt>
      <trkpt lat="51.458596" lon="0.241555">
        <ele>4.027629</ele>
        <time>2024-08-10T23:24:28.000Z</time>
      </trkpt>
      <trkpt lat="51.458552" lon="0.241612">
        <ele>4.027692</ele>
        <time>2024-08-10T23:24:29.000Z</time>
      </trkpt>
      <trkpt lat="51.458565" lon="0.2416">
        <ele>4.027702</ele>
        <time>2024-08-10T23:24:29.000Z</time>
      </trkpt>
      <trkpt lat="51.458545" lon="0.241603">
        <ele>4.027689</ele>
        <time>2024-08-10T23:24:29.000Z</time>
      </trkpt>
      <trkpt lat="51.458548" lon="0.241617">
        <ele>4.027703</ele>
        <time>2024-08-10T23:24:29.000Z</time>
      </trkpt>
      <trkpt lat="51.458547" lon="0.241609">
        <ele>4.027707</ele>
        <time>2024-08-10T23:24:29.000Z</time>
      </trkpt>
      <trkpt lat="51.458544" lon="0.241612">
        <ele>4.027692</ele>
        <time>2024-08-10T23:24:29.000Z</time>
      </trkpt>
      <trkpt lat="51.458552" lon="0.241618">
        <ele>4.027708</ele>
        <time>2024-08-10T23:24:29.000Z</time>
      </trkpt>
      <trkpt lat="51.458557" lon="0.241616">
        <ele>4.027702</ele>
        <time>2024-08-10T23:24:29.000Z</time>
      </trkpt>
      <trkpt lat="51.458564" lon="0.241599">
        <ele>4.027699</ele>
        <time>2024-08-10T23:24:29.000Z</time>
      </trkpt>
      <trkpt lat="51.458608" lon="0.241562">
        <ele>4.027754</ele>
        <time>2024-08-10T23:24:30.000Z</time>
      </trkpt>
      <trkpt lat="51.459304" lon="0.240739">
        <ele>4.03219</ele>
        <time>2024-08-10T23:24:40.000Z</time>
      </trkpt>
      <trkpt lat="51.459609" lon="0.240157">
        <ele>4.0646</ele>
        <time>2024-08-10T23:24:45.000Z</time>
      </trkpt>
      <trkpt lat="51.460042" lon="0.238842">
        <ele>4.129263</ele>
        <time>2024-08-10T23:24:55.000Z</time>
      </trkpt>
      <trkpt lat="51.460094" lon="0.238687">
        <ele>4.136866</ele>
        <time>2024-08-10T23:24:56.000Z</time>
      </trkpt>
      <trkpt lat="51.460107" lon="0.238629">
        <ele>4.139438</ele>
        <time>2024-08-10T23:24:56.000Z</time>
      </trkpt>
      <trkpt lat="51.460201" lon="0.23816">
        <ele>4.206154</ele>
        <time>2024-08-10T23:24:59.000Z</time>
      </trkpt>
      <trkpt lat="51.460259" lon="0.237581">
        <ele>4.389387</ele>
        <time>2024-08-10T23:25:03.000Z</time>
      </trkpt>
      <trkpt lat="51.460249" lon="0.236058">
        <ele>4.866164</ele>
        <time>2024-08-10T23:25:14.000Z</time>
      </trkpt>
      <trkpt lat="51.460278" lon="0.235737">
        <ele>4.967436</ele>
        <time>2024-08-10T23:25:16.000Z</time>
      </trkpt>
      <trkpt lat="51.460279" lon="0.235742">
        <ele>4.968693</ele>
        <time>2024-08-10T23:25:16.000Z</time>
      </trkpt>
      <trkpt lat="51.460324" lon="0.235221">
        <ele>5.097969</ele>
        <time>2024-08-10T23:25:20.000Z</time>
      </trkpt>
      <trkpt lat="51.460333" lon="0.235048">
        <ele>5.126978</ele>
        <time>2024-08-10T23:25:21.000Z</time>
      </trkpt>
      <trkpt lat="51.460681" lon="0.233735">
        <ele>5.358213</ele>
        <time>2024-08-10T23:25:31.000Z</time>
      </trkpt>
      <trkpt lat="51.461262" lon="0.232398">
        <ele>5.427561</ele>
        <time>2024-08-10T23:25:42.000Z</time>
      </trkpt>
      <trkpt lat="51.461316" lon="0.232256">
        <ele>5.395579</ele>
        <time>2024-08-10T23:25:43.000Z</time>
      </trkpt>
      <trkpt lat="51.461391" lon="0.232061">
        <ele>5.357732</ele>
        <time>2024-08-10T23:25:45.000Z</time>
      </trkpt>
      <trkpt lat="51.461427" lon="0.231951">
        <ele>5.33723</ele>
        <time>2024-08-10T23:25:46.000Z</time>
      </trkpt>
      <trkpt lat="51.4614" lon="0.231961">
        <ele>5.329013</ele>
        <time>2024-08-10T23:25:46.000Z</time>
      </trkpt>
      <trkpt lat="51.461388" lon="0.231967">
        <ele>5.328437</ele>
        <time>2024-08-10T23:25:46.000Z</time>
      </trkpt>
      <trkpt lat="51.461381" lon="0.23196">
        <ele>5.327863</ele>
        <time>2024-08-10T23:25:46.000Z</time>
      </trkpt>
      <trkpt lat="51.461382" lon="0.231957">
        <ele>5.327593</ele>
        <time>2024-08-10T23:25:46.000Z</time>
      </trkpt>
      <trkpt lat="51.461393" lon="0.23196">
        <ele>5.327011</ele>
        <time>2024-08-10T23:25:46.000Z</time>
      </trkpt>
      <trkpt lat="51.461386" lon="0.231956">
        <ele>5.326723</ele>
        <time>2024-08-10T23:25:46.000Z</time>
      </trkpt>
      <trkpt lat="51.461389" lon="0.231959">
        <ele>5.326161</ele>
        <time>2024-08-10T23:25:46.000Z</time>
      </trkpt>
      <trkpt lat="51.461347" lon="0.231963">
        <ele>5.316506</ele>
        <time>2024-08-10T23:25:46.000Z</time>
      </trkpt>
      <trkpt lat="51.460777" lon="0.231898">
        <ele>5.155127</ele>
        <time>2024-08-10T23:25:52.000Z</time>
      </trkpt>
      <trkpt lat="51.460692" lon="0.231895">
        <ele>5.131807</ele>
        <time>2024-08-10T23:25:53.000Z</time>
      </trkpt>
      <trkpt lat="51.460648" lon="0.231915">
        <ele>5.11614</ele>
        <time>2024-08-10T23:25:54.000Z</time>
      </trkpt>
      <trkpt lat="51.460571" lon="0.231931">
        <ele>5.09529</ele>
        <time>2024-08-10T23:25:55.000Z</time>
      </trkpt>
      <trkpt lat="51.460479" lon="0.231982">
        <ele>5.065506</ele>
        <time>2024-08-10T23:25:56.000Z</time>
      </trkpt>
      <trkpt lat="51.460452" lon="0.232046">
        <ele>5.053478</ele>
        <time>2024-08-10T23:25:57.000Z</time>
      </trkpt>
      <trkpt lat="51.460393" lon="0.232118">
        <ele>5.029663</ele>
        <time>2024-08-10T23:25:58.000Z</time>
      </trkpt>
      <trkpt lat="51.460349" lon="0.232133">
        <ele>5.018085</ele>
        <time>2024-08-10T23:25:59.000Z</time>
      </trkpt>
      <trkpt lat="51.460307" lon="0.232126">
        <ele>5.011952</ele>
        <time>2024-08-10T23:25:59.000Z</time>
      </trkpt>
      <trkpt lat="51.460302" lon="0.232135">
        <ele>5.011496</ele>
        <time>2024-08-10T23:25:59.000Z</time>
      </trkpt>
      <trkpt lat="51.460303" lon="0.232132">
        <ele>5.011034</ele>
        <time>2024-08-10T23:25:59.000Z</time>
      </trkpt>
      <trkpt lat="51.460292" lon="0.232129">
        <ele>5.010869</ele>
        <time>2024-08-10T23:25:59.000Z</time>
      </trkpt>
      <trkpt lat="51.460288" lon="0.232126">
        <ele>5.010883</ele>
        <time>2024-08-10T23:25:59.000Z</time>
      </trkpt>
      <trkpt lat="51.460302" lon="0.232126">
        <ele>5.010687</ele>
        <time>2024-08-10T23:25:59.000Z</time>
      </trkpt>
      <trkpt lat="51.460287" lon="0.232123">
        <ele>5.010513</ele>
        <time>2024-08-10T23:25:59.000Z</time>
      </trkpt>
      <trkpt lat="51.460296" lon="0.232137">
        <ele>5.010196</ele>
        <time>2024-08-10T23:25:59.000Z</time>
      </trkpt>
      <trkpt lat="51.460248" lon="0.232104">
        <ele>5.00371</ele>
        <time>2024-08-10T23:26:00.000Z</time>
      </trkpt>
      <trkpt lat="51.46021" lon="0.232049">
        <ele>4.996565</ele>
        <time>2024-08-10T23:26:01.000Z</time>
      </trkpt>
      <trkpt lat="51.460146" lon="0.232043">
        <ele>4.986341</ele>
        <time>2024-08-10T23:26:02.000Z</time>
      </trkpt>
      <trkpt lat="51.459811" lon="0.231974">
        <ele>4.932826</ele>
        <time>2024-08-10T23:26:06.000Z</time>
      </trkpt>
      <trkpt lat="51.459453" lon="0.231511">
        <ele>4.864242</ele>
        <time>2024-08-10T23:26:11.000Z</time>
      </trkpt>
      <trkpt lat="51.459169" lon="0.231318">
        <ele>4.817023</ele>
        <time>2024-08-10T23:26:14.000Z</time>
      </trkpt>
      <trkpt lat="51.459063" lon="0.231328">
        <ele>4.800086</ele>
        <time>2024-08-10T23:26:15.000Z</time>
      </trkpt>
      <trkpt lat="51.459025" lon="0.231368">
        <ele>4.792572</ele>
        <time>2024-08-10T23:26:16.000Z</time>
      </trkpt>
      <trkpt lat="51.458979" lon="0.231384">
        <ele>4.785166</ele>
        <time>2024-08-10T23:26:17.000Z</time>
      </trkpt>
      <trkpt lat="51.458765" lon="0.231571">
        <ele>4.748528</ele>
        <time>2024-08-10T23:26:20.000Z</time>
      </trkpt>
      <trkpt lat="51.458709" lon="0.231623">
        <ele>4.760497</ele>
        <time>2024-08-10T23:26:21.000Z</time>
      </trkpt>
      <trkpt lat="51.458706" lon="0.231637">
        <ele>4.762517</ele>
        <time>2024-08-10T23:26:21.000Z</time>
      </trkpt>
      <trkpt lat="51.458706" lon="0.231642">
        <ele>4.763195</ele>
        <time>2024-08-10T23:26:21.000Z</time>
      </trkpt>
      <trkpt lat="51.458715" lon="0.231637">
        <ele>4.764537</ele>
        <time>2024-08-10T23:26:21.000Z</time>
      </trkpt>
      <trkpt lat="51.458698" lon="0.23164">
        <ele>4.765881</ele>
        <time>2024-08-10T23:26:21.000Z</time>
      </trkpt>
      <trkpt lat="51.458696" lon="0.23164">
        <ele>4.766557</ele>
        <time>2024-08-10T23:26:21.000Z</time>
      </trkpt>
      <trkpt lat="51.458706" lon="0.231647">
        <ele>4.767898</ele>
        <time>2024-08-10T23:26:21.000Z</time>
      </trkpt>
      <trkpt lat="51.458693" lon="0.231641">
        <ele>4.768805</ele>
        <time>2024-08-10T23:26:21.000Z</time>
      </trkpt>
      <trkpt lat="51.458704" lon="0.231642">
        <ele>4.768814</ele>
        <time>2024-08-10T23:26:21.000Z</time>
      </trkpt>
      <trkpt lat="51.458699" lon="0.231636">
        <ele>4.769489</ele>
        <time>2024-08-10T23:26:21.000Z</time>
      </trkpt>
      <trkpt lat="51.458694" lon="0.23165">
        <ele>4.77069</ele>
        <time>2024-08-10T23:26:21.000Z</time>
      </trkpt>
      <trkpt lat="51.458691" lon="0.231651">
        <ele>4.771595</ele>
        <time>2024-08-10T23:26:21.000Z</time>
      </trkpt>
      <trkpt lat="51.458695" lon="0.231648">
        <ele>4.772937</ele>
        <time>2024-08-10T23:26:21.000Z</time>
      </trkpt>
      <trkpt lat="51.458692" lon="0.231655">
        <ele>4.773857</ele>
        <time>2024-08-10T23:26:21.000Z</time>
      </trkpt>
      <trkpt lat="51.458179" lon="0.232564">
        <ele>5.211183</ele>
        <time>2024-08-10T23:26:29.000Z</time>
      </trkpt>
      <trkpt lat="51.458176" lon="0.232577">
        <ele>5.214834</ele>
        <time>2024-08-10T23:26:29.000Z</time>
      </trkpt>
      <trkpt lat="51.458185" lon="0.232587">
        <ele>5.216953</ele>
        <time>2024-08-10T23:26:29.000Z</time>
      </trkpt>
      <trkpt lat="51.458172" lon="0.232588">
        <ele>5.217652</ele>
        <time>2024-08-10T23:26:29.000Z</time>
      </trkpt>
      <trkpt lat="51.458188" lon="0.232581">
        <ele>5.218331</ele>
        <time>2024-08-10T23:26:29.000Z</time>
      </trkpt>
      <trkpt lat="51.458169" lon="0.232592">
        <ele>5.219536</ele>
        <time>2024-08-10T23:26:29.000Z</time>
      </trkpt>
      <trkpt lat="51.45817" lon="0.232593">
        <ele>5.220206</ele>
        <time>2024-08-10T23:26:29.000Z</time>
      </trkpt>
      <trkpt lat="51.458183" lon="0.232586">
        <ele>5.220879</ele>
        <time>2024-08-10T23:26:29.000Z</time>
      </trkpt>
      <trkpt lat="51.45817" lon="0.232591">
        <ele>5.221594</ele>
        <time>2024-08-10T23:26:29.000Z</time>
      </trkpt>
      <trkpt lat="51.458169" lon="0.232596">
        <ele>5.222499</ele>
        <time>2024-08-10T23:26:29.000Z</time>
      </trkpt>
      <trkpt lat="51.458174" lon="0.2326">
        <ele>5.223411</ele>
        <time>2024-08-10T23:26:29.000Z</time>
      </trkpt>
      <trkpt lat="51.458178" lon="0.232609">
        <ele>5.224318</ele>
        <time>2024-08-10T23:26:29.000Z</time>
      </trkpt>
      <trkpt lat="51.458169" lon="0.232603">
        <ele>5.225036</ele>
        <time>2024-08-10T23:26:29.000Z</time>
      </trkpt>
      <trkpt lat="51.458176" lon="0.232602">
        <ele>5.225946</ele>
        <time>2024-08-10T23:26:29.000Z</time>
      </trkpt>
      <trkpt lat="51.458182" lon="0.23261">
        <ele>5.22686</ele>
        <time>2024-08-10T23:26:29.000Z</time>
      </trkpt>
      <trkpt lat="51.458167" lon="0.232607">
        <ele>5.227774</ele>
        <time>2024-08-10T23:26:29.000Z</time>
      </trkpt>
      <trkpt lat="51.457781" lon="0.233611">
        <ele>5.649431</ele>
        <time>2024-08-10T23:26:37.000Z</time>
      </trkpt>
      <trkpt lat="51.457467" lon="0.23461">
        <ele>6.073097</ele>
        <time>2024-08-10T23:26:45.000Z</time>
      </trkpt>
      <trkpt lat="51.457466" lon="0.234614">
        <ele>6.073484</ele>
        <time>2024-08-10T23:26:45.000Z</time>
      </trkpt>
      <trkpt lat="51.457474" lon="0.234608">
        <ele>6.074224</ele>
        <time>2024-08-10T23:26:45.000Z</time>
      </trkpt>
      <trkpt lat="51.457477" lon="0.234623">
        <ele>6.07501</ele>
        <time>2024-08-10T23:26:45.000Z</time>
      </trkpt>
      <trkpt lat="51.457468" lon="0.234608">
        <ele>6.075805</ele>
        <time>2024-08-10T23:26:45.000Z</time>
      </trkpt>
      <trkpt lat="51.457474" lon="0.23462">
        <ele>6.076534</ele>
        <time>2024-08-10T23:26:45.000Z</time>
      </trkpt>
      <trkpt lat="51.457466" lon="0.234612">
        <ele>6.077318</ele>
        <time>2024-08-10T23:26:45.000Z</time>
      </trkpt>
      <trkpt lat="51.457463" lon="0.234619">
        <ele>6.078666</ele>
        <time>2024-08-10T23:26:45.000Z</time>
      </trkpt>
      <trkpt lat="51.457462" lon="0.234616">
        <ele>6.079439</ele>
        <time>2024-08-10T23:26:45.000Z</time>
      </trkpt>
      <trkpt lat="51.457466" lon="0.234626">
        <ele>6.080182</ele>
        <time>2024-08-10T23:26:45.000Z</time>
      </trkpt>
      <trkpt lat="51.457472" lon="0.234624">
        <ele>6.081374</ele>
        <time>2024-08-10T23:26:45.000Z</time>
      </trkpt>
      <trkpt lat="51.457469" lon="0.234622">
        <ele>6.082113</ele>
        <time>2024-08-10T23:26:45.000Z</time>
      </trkpt>
      <trkpt lat="51.457468" lon="0.234642">
        <ele>6.083301</ele>
        <time>2024-08-10T23:26:45.000Z</time>
      </trkpt>
      <trkpt lat="51.457471" lon="0.234646">
        <ele>6.085358</ele>
        <time>2024-08-10T23:26:45.000Z</time>
      </trkpt>
      <trkpt lat="51.456919" lon="0.236948">
        <ele>7.103992</ele>
        <time>2024-08-10T23:27:02.000Z</time>
      </trkpt>
      <trkpt lat="51.456913" lon="0.236961">
        <ele>7.120774</ele>
        <time>2024-08-10T23:27:02.000Z</time>
      </trkpt>
      <trkpt lat="51.456905" lon="0.236965">
        <ele>7.122532</ele>
        <time>2024-08-10T23:27:02.000Z</time>
      </trkpt>
      <trkpt lat="51.456912" lon="0.236969">
        <ele>7.123866</ele>
        <time>2024-08-10T23:27:02.000Z</time>
      </trkpt>
      <trkpt lat="51.456908" lon="0.236967">
        <ele>7.124908</ele>
        <time>2024-08-10T23:27:02.000Z</time>
      </trkpt>
      <trkpt lat="51.45691" lon="0.236971">
        <ele>7.126241</ele>
        <time>2024-08-10T23:27:02.000Z</time>
      </trkpt>
      <trkpt lat="51.456907" lon="0.236973">
        <ele>7.127583</ele>
        <time>2024-08-10T23:27:02.000Z</time>
      </trkpt>
      <trkpt lat="51.456895" lon="0.236985">
        <ele>7.12981</ele>
        <time>2024-08-10T23:27:02.000Z</time>
      </trkpt>
      <trkpt lat="51.456905" lon="0.236978">
        <ele>7.130799</ele>
        <time>2024-08-10T23:27:02.000Z</time>
      </trkpt>
      <trkpt lat="51.456899" lon="0.236984">
        <ele>7.131847</ele>
        <time>2024-08-10T23:27:02.000Z</time>
      </trkpt>
      <trkpt lat="51.456889" lon="0.236997">
        <ele>7.133168</ele>
        <time>2024-08-10T23:27:02.000Z</time>
      </trkpt>
      <trkpt lat="51.456556" lon="0.237946">
        <ele>7.705245</ele>
        <time>2024-08-10T23:27:10.000Z</time>
      </trkpt>
      <trkpt lat="51.456549" lon="0.23796">
        <ele>7.721638</ele>
        <time>2024-08-10T23:27:10.000Z</time>
      </trkpt>
      <trkpt lat="51.456552" lon="0.237971">
        <ele>7.724732</ele>
        <time>2024-08-10T23:27:10.000Z</time>
      </trkpt>
      <trkpt lat="51.456537" lon="0.237982">
        <ele>7.725709</ele>
        <time>2024-08-10T23:27:10.000Z</time>
      </trkpt>
      <trkpt lat="51.456547" lon="0.237984">
        <ele>7.72749</ele>
        <time>2024-08-10T23:27:10.000Z</time>
      </trkpt>
      <trkpt lat="51.456548" lon="0.237986">
        <ele>7.728812</ele>
        <time>2024-08-10T23:27:10.000Z</time>
      </trkpt>
      <trkpt lat="51.456532" lon="0.237982">
        <ele>7.730778</ele>
        <time>2024-08-10T23:27:10.000Z</time>
      </trkpt>
      <trkpt lat="51.456537" lon="0.237993">
        <ele>7.732105</ele>
        <time>2024-08-10T23:27:10.000Z</time>
      </trkpt>
      <trkpt lat="51.456528" lon="0.237992">
        <ele>7.733885</ele>
        <time>2024-08-10T23:27:10.000Z</time>
      </trkpt>
      <trkpt lat="51.456541" lon="0.237999">
        <ele>7.736538</ele>
        <time>2024-08-10T23:27:10.000Z</time>
      </trkpt>
      <trkpt lat="51.456527" lon="0.237997">
        <ele>7.738324</ele>
        <time>2024-08-10T23:27:10.000Z</time>
      </trkpt>
      <trkpt lat="51.456526" lon="0.237986">
        <ele>7.739292</ele>
        <time>2024-08-10T23:27:10.000Z</time>
      </trkpt>
      <trkpt lat="51.456537" lon="0.237995">
        <ele>7.74063</ele>
        <time>2024-08-10T23:27:10.000Z</time>
      </trkpt>
      <trkpt lat="51.456536" lon="0.238006">
        <ele>7.742392</ele>
        <time>2024-08-10T23:27:10.000Z</time>
      </trkpt>
      <trkpt lat="51.456086" lon="0.238923">
        <ele>8.349977</ele>
        <time>2024-08-10T23:27:18.000Z</time>
      </trkpt>
      <trkpt lat="51.455857" lon="0.2393">
        <ele>8.52993</ele>
        <time>2024-08-10T23:27:22.000Z</time>
      </trkpt>
      <trkpt lat="51.455846" lon="0.239293">
        <ele>8.531244</ele>
        <time>2024-08-10T23:27:22.000Z</time>
      </trkpt>
      <trkpt lat="51.455861" lon="0.239309">
        <ele>8.532381</ele>
        <time>2024-08-10T23:27:22.000Z</time>
      </trkpt>
      <trkpt lat="51.45585" lon="0.239313">
        <ele>8.533396</ele>
        <time>2024-08-10T23:27:22.000Z</time>
      </trkpt>
      <trkpt lat="51.455853" lon="0.239316">
        <ele>8.533963</ele>
        <time>2024-08-10T23:27:22.000Z</time>
      </trkpt>
      <trkpt lat="51.455858" lon="0.239315">
        <ele>8.534536</ele>
        <time>2024-08-10T23:27:22.000Z</time>
      </trkpt>
      <trkpt lat="51.455853" lon="0.239315">
        <ele>8.535294</ele>
        <time>2024-08-10T23:27:22.000Z</time>
      </trkpt>
      <trkpt lat="51.455843" lon="0.239317">
        <ele>8.536059</ele>
        <time>2024-08-10T23:27:22.000Z</time>
      </trkpt>
      <trkpt lat="51.45584" lon="0.239312">
        <ele>8.53664</ele>
        <time>2024-08-10T23:27:22.000Z</time>
      </trkpt>
      <trkpt lat="51.455853" lon="0.239321">
        <ele>8.537402</ele>
        <time>2024-08-10T23:27:22.000Z</time>
      </trkpt>
      <trkpt lat="51.455761" lon="0.239445">
        <ele>8.589016</ele>
        <time>2024-08-10T23:27:23.000Z</time>
      </trkpt>
      <trkpt lat="51.455132" lon="0.24023">
        <ele>8.98181</ele>
        <time>2024-08-10T23:27:32.000Z</time>
      </trkpt>
      <trkpt lat="51.455128" lon="0.240246">
        <ele>8.983693</ele>
        <time>2024-08-10T23:27:32.000Z</time>
      </trkpt>
      <trkpt lat="51.455127" lon="0.240241">
        <ele>8.984259</ele>
        <time>2024-08-10T23:27:32.000Z</time>
      </trkpt>
      <trkpt lat="51.455112" lon="0.240249">
        <ele>8.984819</ele>
        <time>2024-08-10T23:27:32.000Z</time>
      </trkpt>
      <trkpt lat="51.455117" lon="0.24025">
        <ele>8.985392</ele>
        <time>2024-08-10T23:27:32.000Z</time>
      </trkpt>
      <trkpt lat="51.455111" lon="0.240244">
        <ele>8.985947</ele>
        <time>2024-08-10T23:27:32.000Z</time>
      </trkpt>
      <trkpt lat="51.455122" lon="0.240252">
        <ele>8.986526</ele>
        <time>2024-08-10T23:27:32.000Z</time>
      </trkpt>
      <trkpt lat="51.455117" lon="0.240257">
        <ele>8.987847</ele>
        <time>2024-08-10T23:27:32.000Z</time>
      </trkpt>
      <trkpt lat="51.455103" lon="0.240253">
        <ele>8.988405</ele>
        <time>2024-08-10T23:27:32.000Z</time>
      </trkpt>
      <trkpt lat="51.455111" lon="0.24025">
        <ele>8.989172</ele>
        <time>2024-08-10T23:27:32.000Z</time>
      </trkpt>
      <trkpt lat="51.455116" lon="0.240249">
        <ele>8.990313</ele>
        <time>2024-08-10T23:27:32.000Z</time>
      </trkpt>
      <trkpt lat="51.455112" lon="0.240256">
        <ele>8.99162</ele>
        <time>2024-08-10T23:27:32.000Z</time>
      </trkpt>
      <trkpt lat="51.455104" lon="0.240254">
        <ele>8.99276</ele>
        <time>2024-08-10T23:27:32.000Z</time>
      </trkpt>
      <trkpt lat="51.455113" lon="0.240257">
        <ele>8.993335</ele>
        <time>2024-08-10T23:27:32.000Z</time>
      </trkpt>
      <trkpt lat="51.455078" lon="0.240296">
        <ele>9.00723</ele>
        <time>2024-08-10T23:27:32.000Z</time>
      </trkpt>
      <trkpt lat="51.454685" lon="0.240616">
        <ele>9.221724</ele>
        <time>2024-08-10T23:27:37.000Z</time>
      </trkpt>
      <trkpt lat="51.454599" lon="0.240679">
        <ele>9.264163</ele>
        <time>2024-08-10T23:27:38.000Z</time>
      </trkpt>
      <trkpt lat="51.454598" lon="0.240679">
        <ele>9.265172</ele>
        <time>2024-08-10T23:27:38.000Z</time>
      </trkpt>
      <trkpt lat="51.454603" lon="0.240678">
        <ele>9.266315</ele>
        <time>2024-08-10T23:27:38.000Z</time>
      </trkpt>
      <trkpt lat="51.4546" lon="0.240691">
        <ele>9.266869</ele>
        <time>2024-08-10T23:27:38.000Z</time>
      </trkpt>
      <trkpt lat="51.454599" lon="0.240685">
        <ele>9.266886</ele>
        <time>2024-08-10T23:27:38.000Z</time>
      </trkpt>
      <trkpt lat="51.454599" lon="0.24069">
        <ele>9.266885</ele>
        <time>2024-08-10T23:27:38.000Z</time>
      </trkpt>
      <trkpt lat="51.4551" lon="0.240258">
        <ele>9.000914</ele>
        <time>2024-08-10T23:27:44.000Z</time>
      </trkpt>
      <trkpt lat="51.4551" lon="0.240252">
        <ele>9.000925</ele>
        <time>2024-08-10T23:27:44.000Z</time>
      </trkpt>
      <trkpt lat="51.455485" lon="0.239788">
        <ele>8.776633</ele>
        <time>2024-08-10T23:27:49.000Z</time>
      </trkpt>
      <trkpt lat="51.455847" lon="0.23932">
        <ele>8.552526</ele>
        <time>2024-08-10T23:27:54.000Z</time>
      </trkpt>
      <trkpt lat="51.455851" lon="0.239311">
        <ele>8.552523</ele>
        <time>2024-08-10T23:27:54.000Z</time>
      </trkpt>
      <trkpt lat="51.456189" lon="0.238646">
        <ele>8.236279</ele>
        <time>2024-08-10T23:28:00.000Z</time>
      </trkpt>
      <trkpt lat="51.456533" lon="0.237992">
        <ele>7.850402</ele>
        <time>2024-08-10T23:28:06.000Z</time>
      </trkpt>
      <trkpt lat="51.456546" lon="0.237982">
        <ele>7.850403</ele>
        <time>2024-08-10T23:28:06.000Z</time>
      </trkpt>
      <trkpt lat="51.456897" lon="0.236976">
        <ele>7.328178</ele>
        <time>2024-08-10T23:28:14.000Z</time>
      </trkpt>
      <trkpt lat="51.456896" lon="0.236982">
        <ele>7.328185</ele>
        <time>2024-08-10T23:28:14.000Z</time>
      </trkpt>
      <trkpt lat="51.45718" lon="0.235788">
        <ele>6.799457</ele>
        <time>2024-08-10T23:28:23.000Z</time>
      </trkpt>
      <trkpt lat="51.457467" lon="0.234622">
        <ele>6.290024</ele>
        <time>2024-08-10T23:28:32.000Z</time>
      </trkpt>
      <trkpt lat="51.457473" lon="0.234626">
        <ele>6.290022</ele>
        <time>2024-08-10T23:28:32.000Z</time>
      </trkpt>
      <trkpt lat="51.457816" lon="0.233606">
        <ele>5.87748</ele>
        <time>2024-08-10T23:28:40.000Z</time>
      </trkpt>
      <trkpt lat="51.458172" lon="0.232614">
        <ele>5.586945</ele>
        <time>2024-08-10T23:28:48.000Z</time>
      </trkpt>
      <trkpt lat="51.458176" lon="0.232616">
        <ele>5.586961</ele>
        <time>2024-08-10T23:28:48.000Z</time>
      </trkpt>
      <trkpt lat="51.458708" lon="0.231642">
        <ele>5.264289</ele>
        <time>2024-08-10T23:28:57.000Z</time>
      </trkpt>
      <trkpt lat="51.458695" lon="0.231648">
        <ele>5.264278</ele>
        <time>2024-08-10T23:28:57.000Z</time>
      </trkpt>
      <trkpt lat="51.458699" lon="0.231648">
        <ele>5.264293</ele>
        <time>2024-08-10T23:28:57.000Z</time>
      </trkpt>
      <trkpt lat="51.45911" lon="0.231207">
        <ele>5.354534</ele>
        <time>2024-08-10T23:29:02.000Z</time>
      </trkpt>
      <trkpt lat="51.459116" lon="0.231214">
        <ele>5.354538</ele>
        <time>2024-08-10T23:29:02.000Z</time>
      </trkpt>
      <trkpt lat="51.459114" lon="0.231205">
        <ele>5.354536</ele>
        <time>2024-08-10T23:29:02.000Z</time>
      </trkpt>
      <trkpt lat="51.459151" lon="0.230612">
        <ele>5.463231</ele>
        <time>2024-08-10T23:29:06.000Z</time>
      </trkpt>
      <trkpt lat="51.459146" lon="0.230606">
        <ele>5.463242</ele>
        <time>2024-08-10T23:29:06.000Z</time>
      </trkpt>
      <trkpt lat="51.45915" lon="0.23062">
        <ele>5.463226</ele>
        <time>2024-08-10T23:29:06.000Z</time>
      </trkpt>
      <trkpt lat="51.459268" lon="0.229847">
        <ele>5.605337</ele>
        <time>2024-08-10T23:29:12.000Z</time>
      </trkpt>
      <trkpt lat="51.459389" lon="0.229081">
        <ele>5.747278</ele>
        <time>2024-08-10T23:29:17.000Z</time>
      </trkpt>
      <trkpt lat="51.459391" lon="0.229078">
        <ele>5.747284</ele>
        <time>2024-08-10T23:29:17.000Z</time>
      </trkpt>
      <trkpt lat="51.4594" lon="0.229072">
        <ele>5.747289</ele>
        <time>2024-08-10T23:29:17.000Z</time>
      </trkpt>
      <trkpt lat="51.459438" lon="0.228173">
        <ele>5.93714</ele>
        <time>2024-08-10T23:29:23.000Z</time>
      </trkpt>
      <trkpt lat="51.459504" lon="0.227281">
        <ele>6.127727</ele>
        <time>2024-08-10T23:29:29.000Z</time>
      </trkpt>
      <trkpt lat="51.459488" lon="0.227281">
        <ele>6.127731</ele>
        <time>2024-08-10T23:29:29.000Z</time>
      </trkpt>
      <trkpt lat="51.459483" lon="0.22609">
        <ele>6.363596</ele>
        <time>2024-08-10T23:29:37.000Z</time>
      </trkpt>
      <trkpt lat="51.459457" lon="0.224918">
        <ele>6.416241</ele>
        <time>2024-08-10T23:29:45.000Z</time>
      </trkpt>
      <trkpt lat="51.459432" lon="0.22373">
        <ele>6.468872</ele>
        <time>2024-08-10T23:29:53.000Z</time>
      </trkpt>
      <trkpt lat="51.45945" lon="0.223744">
        <ele>6.468873</ele>
        <time>2024-08-10T23:29:53.000Z</time>
      </trkpt>
      <trkpt lat="51.459391" lon="0.222673">
        <ele>6.471252</ele>
        <time>2024-08-10T23:30:00.000Z</time>
      </trkpt>
      <trkpt lat="51.459354" lon="0.22161">
        <ele>6.440643</ele>
        <time>2024-08-10T23:30:07.000Z</time>
      </trkpt>
      <trkpt lat="51.459308" lon="0.22053">
        <ele>6.41002</ele>
        <time>2024-08-10T23:30:14.000Z</time>
      </trkpt>
      <trkpt lat="51.45931" lon="0.221239">
        <ele>6.422676</ele>
        <time>2024-08-10T23:30:19.000Z</time>
      </trkpt>
      <trkpt lat="51.459436" lon="0.223721">
        <ele>6.493623</ele>
        <time>2024-08-10T23:30:36.000Z</time>
      </trkpt>
      <trkpt lat="51.459501" lon="0.227298">
        <ele>6.296961</ele>
        <time>2024-08-10T23:31:01.000Z</time>
      </trkpt>
      <trkpt lat="51.459474" lon="0.228235">
        <ele>6.019407</ele>
        <time>2024-08-10T23:31:07.000Z</time>
      </trkpt>
      <trkpt lat="51.45937" lon="0.229408">
        <ele>5.665238</ele>
        <time>2024-08-10T23:31:15.000Z</time>
      </trkpt>
      <trkpt lat="51.459313" lon="0.229784">
        <ele>5.553278</ele>
        <time>2024-08-10T23:31:18.000Z</time>
      </trkpt>
      <trkpt lat="51.459164" lon="0.230445">
        <ele>5.353421</ele>
        <time>2024-08-10T23:31:23.000Z</time>
      </trkpt>
      <trkpt lat="51.459146" lon="0.230718">
        <ele>5.271588</ele>
        <time>2024-08-10T23:31:25.000Z</time>
      </trkpt>
      <trkpt lat="51.459124" lon="0.230965">
        <ele>5.197062</ele>
        <time>2024-08-10T23:31:27.000Z</time>
      </trkpt>
      <trkpt lat="51.459132" lon="0.231015">
        <ele>5.186794</ele>
        <time>2024-08-10T23:31:27.000Z</time>
      </trkpt>
      <trkpt lat="51.459215" lon="0.231123">
        <ele>5.135102</ele>
        <time>2024-08-10T23:31:28.000Z</time>
      </trkpt>
      <trkpt lat="51.459472" lon="0.231352">
        <ele>4.999459</ele>
        <time>2024-08-10T23:31:31.000Z</time>
      </trkpt>
      <trkpt lat="51.459791" lon="0.231792">
        <ele>4.897636</ele>
        <time>2024-08-10T23:31:36.000Z</time>
      </trkpt>
      <trkpt lat="51.460007" lon="0.231902">
        <ele>4.981276</ele>
        <time>2024-08-10T23:31:39.000Z</time>
      </trkpt>
      <trkpt lat="51.460132" lon="0.231881">
        <ele>5.021727</ele>
        <time>2024-08-10T23:31:40.000Z</time>
      </trkpt>
      <trkpt lat="51.460203" lon="0.231818">
        <ele>5.049455</ele>
        <time>2024-08-10T23:31:41.000Z</time>
      </trkpt>
      <trkpt lat="51.460229" lon="0.231757">
        <ele>5.066184</ele>
        <time>2024-08-10T23:31:42.000Z</time>
      </trkpt>
      <trkpt lat="51.46026" lon="0.231708">
        <ele>5.083082</ele>
        <time>2024-08-10T23:31:42.000Z</time>
      </trkpt>
      <trkpt lat="51.460318" lon="0.231672">
        <ele>5.104715</ele>
        <time>2024-08-10T23:31:43.000Z</time>
      </trkpt>
      <trkpt lat="51.460379" lon="0.231671">
        <ele>5.12587</ele>
        <time>2024-08-10T23:31:44.000Z</time>
      </trkpt>
      <trkpt lat="51.460415" lon="0.231702">
        <ele>5.142632</ele>
        <time>2024-08-10T23:31:44.000Z</time>
      </trkpt>
      <trkpt lat="51.460448" lon="0.231754">
        <ele>5.15915</ele>
        <time>2024-08-10T23:31:45.000Z</time>
      </trkpt>
      <trkpt lat="51.460544" lon="0.231818">
        <ele>5.195376</ele>
        <time>2024-08-10T23:31:46.000Z</time>
      </trkpt>
      <trkpt lat="51.460663" lon="0.231863">
        <ele>5.233594</ele>
        <time>2024-08-10T23:31:47.000Z</time>
      </trkpt>
      <trkpt lat="51.460782" lon="0.2319">
        <ele>5.278423</ele>
        <time>2024-08-10T23:31:48.000Z</time>
      </trkpt>
      <trkpt lat="51.461344" lon="0.231956">
        <ele>5.478297</ele>
        <time>2024-08-10T23:31:54.000Z</time>
      </trkpt>
      <trkpt lat="51.461426" lon="0.231956">
        <ele>5.516244</ele>
        <time>2024-08-10T23:31:55.000Z</time>
      </trkpt>
      <trkpt lat="51.461455" lon="0.231835">
        <ele>5.575591</ele>
        <time>2024-08-10T23:31:56.000Z</time>
      </trkpt>
      <trkpt lat="51.461518" lon="0.231604">
        <ele>5.680427</ele>
        <time>2024-08-10T23:31:58.000Z</time>
      </trkpt>
      <trkpt lat="51.461571" lon="0.23135">
        <ele>5.789449</ele>
        <time>2024-08-10T23:32:00.000Z</time>
      </trkpt>
      <trkpt lat="51.461611" lon="0.231144">
        <ele>5.877155</ele>
        <time>2024-08-10T23:32:01.000Z</time>
      </trkpt>
      <trkpt lat="51.461672" lon="0.230501">
        <ele>6.141635</ele>
        <time>2024-08-10T23:32:06.000Z</time>
      </trkpt>
      <trkpt lat="51.461861" lon="0.226908">
        <ele>7.521782</ele>
        <time>2024-08-10T23:32:31.000Z</time>
      </trkpt>
      <trkpt lat="51.461862" lon="0.226719">
        <ele>7.588168</ele>
        <time>2024-08-10T23:32:32.000Z</time>
      </trkpt>
      <trkpt lat="51.461843" lon="0.22636">
        <ele>7.720982</ele>
        <time>2024-08-10T23:32:34.000Z</time>
      </trkpt>
      <trkpt lat="51.461827" lon="0.226204">
        <ele>7.731508</ele>
        <time>2024-08-10T23:32:35.000Z</time>
      </trkpt>
      <trkpt lat="51.460976" lon="0.224091">
        <ele>7.673942</ele>
        <time>2024-08-10T23:32:52.000Z</time>
      </trkpt>
      <trkpt lat="51.460801" lon="0.223764">
        <ele>7.675738</ele>
        <time>2024-08-10T23:32:55.000Z</time>
      </trkpt>
      <trkpt lat="51.460525" lon="0.223443">
        <ele>7.696406</ele>
        <time>2024-08-10T23:32:59.000Z</time>
      </trkpt>
      <trkpt lat="51.460507" lon="0.223412">
        <ele>7.698418</ele>
        <time>2024-08-10T23:32:59.000Z</time>
      </trkpt>
      <trkpt lat="51.460494" lon="0.223416">
        <ele>7.699047</ele>
        <time>2024-08-10T23:32:59.000Z</time>
      </trkpt>
      <trkpt lat="51.460489" lon="0.223403">
        <ele>7.699054</ele>
        <time>2024-08-10T23:32:59.000Z</time>
      </trkpt>
      <trkpt lat="51.460491" lon="0.223406">
        <ele>7.699053</ele>
        <time>2024-08-10T23:32:59.000Z</time>
      </trkpt>
      <trkpt lat="51.460503" lon="0.223408">
        <ele>7.699706</ele>
        <time>2024-08-10T23:32:59.000Z</time>
      </trkpt>
      <trkpt lat="51.460527" lon="0.223449">
        <ele>7.701695</ele>
        <time>2024-08-10T23:32:59.000Z</time>
      </trkpt>
      <trkpt lat="51.460797" lon="0.223757">
        <ele>7.722364</ele>
        <time>2024-08-10T23:33:03.000Z</time>
      </trkpt>
      <trkpt lat="51.460966" lon="0.224082">
        <ele>7.739326</ele>
        <time>2024-08-10T23:33:06.000Z</time>
      </trkpt>
      <trkpt lat="51.461828" lon="0.226216">
        <ele>7.558465</ele>
        <time>2024-08-10T23:33:24.000Z</time>
      </trkpt>
      <trkpt lat="51.461836" lon="0.226365">
        <ele>7.534196</ele>
        <time>2024-08-10T23:33:25.000Z</time>
      </trkpt>
      <trkpt lat="51.461866" lon="0.226721">
        <ele>7.478724</ele>
        <time>2024-08-10T23:33:27.000Z</time>
      </trkpt>
      <trkpt lat="51.461845" lon="0.226906">
        <ele>7.450995</ele>
        <time>2024-08-10T23:33:28.000Z</time>
      </trkpt>
      <trkpt lat="51.461665" lon="0.230499">
        <ele>6.062003</ele>
        <time>2024-08-10T23:33:53.000Z</time>
      </trkpt>
      <trkpt lat="51.461612" lon="0.23113">
        <ele>5.934162</ele>
        <time>2024-08-10T23:33:57.000Z</time>
      </trkpt>
      <trkpt lat="51.461571" lon="0.231352">
        <ele>5.892384</ele>
        <time>2024-08-10T23:33:59.000Z</time>
      </trkpt>
      <trkpt lat="51.461527" lon="0.231604">
        <ele>5.840471</ele>
        <time>2024-08-10T23:34:01.000Z</time>
      </trkpt>
      <trkpt lat="51.461466" lon="0.231832">
        <ele>5.790525</ele>
        <time>2024-08-10T23:34:03.000Z</time>
      </trkpt>
      <trkpt lat="51.46142" lon="0.231957">
        <ele>5.76226</ele>
        <time>2024-08-10T23:34:04.000Z</time>
      </trkpt>
      <trkpt lat="51.461385" lon="0.232057">
        <ele>5.739575</ele>
        <time>2024-08-10T23:34:05.000Z</time>
      </trkpt>
      <trkpt lat="51.461322" lon="0.232248">
        <ele>5.697642</ele>
        <time>2024-08-10T23:34:06.000Z</time>
      </trkpt>
      <trkpt lat="51.461257" lon="0.2324">
        <ele>5.662215</ele>
        <time>2024-08-10T23:34:07.000Z</time>
      </trkpt>
      <trkpt lat="51.460687" lon="0.233729">
        <ele>5.355736</ele>
        <time>2024-08-10T23:34:18.000Z</time>
      </trkpt>
      <trkpt lat="51.460345" lon="0.235038">
        <ele>5.099373</ele>
        <time>2024-08-10T23:34:28.000Z</time>
      </trkpt>
      <trkpt lat="51.460327" lon="0.235222">
        <ele>5.067225</ele>
        <time>2024-08-10T23:34:29.000Z</time>
      </trkpt>
      <trkpt lat="51.460274" lon="0.235739">
        <ele>4.972207</ele>
        <time>2024-08-10T23:34:33.000Z</time>
      </trkpt>
      <trkpt lat="51.460273" lon="0.235748">
        <ele>4.971027</ele>
        <time>2024-08-10T23:34:33.000Z</time>
      </trkpt>
      <trkpt lat="51.460245" lon="0.236055">
        <ele>4.873698</ele>
        <time>2024-08-10T23:34:35.000Z</time>
      </trkpt>
      <trkpt lat="51.460265" lon="0.23758">
        <ele>4.415598</ele>
        <time>2024-08-10T23:34:46.000Z</time>
      </trkpt>
      <trkpt lat="51.460209" lon="0.238152">
        <ele>4.239526</ele>
        <time>2024-08-10T23:34:50.000Z</time>
      </trkpt>
      <trkpt lat="51.460103" lon="0.23864">
        <ele>4.101205</ele>
        <time>2024-08-10T23:34:54.000Z</time>
      </trkpt>
      <trkpt lat="51.460091" lon="0.238687">
        <ele>4.099887</ele>
        <time>2024-08-10T23:34:54.000Z</time>
      </trkpt>
      <trkpt lat="51.460046" lon="0.238845">
        <ele>4.096007</ele>
        <time>2024-08-10T23:34:55.000Z</time>
      </trkpt>
      <trkpt lat="51.459599" lon="0.240152">
        <ele>4.062962</ele>
        <time>2024-08-10T23:35:05.000Z</time>
      </trkpt>
      <trkpt lat="51.459314" lon="0.240731">
        <ele>4.046378</ele>
        <time>2024-08-10T23:35:10.000Z</time>
      </trkpt>
      <trkpt lat="51.458607" lon="0.241573">
        <ele>4.030962</ele>
        <time>2024-08-10T23:35:20.000Z</time>
      </trkpt>
      <trkpt lat="51.458551" lon="0.241601">
        <ele>4.030368</ele>
        <time>2024-08-10T23:35:21.000Z</time>
      </trkpt>
      <trkpt lat="51.458552" lon="0.241606">
        <ele>4.030334</ele>
        <time>2024-08-10T23:35:21.000Z</time>
      </trkpt>
      <trkpt lat="51.458549" lon="0.241603">
        <ele>4.030319</ele>
        <time>2024-08-10T23:35:21.000Z</time>
      </trkpt>
      <trkpt lat="51.458559" lon="0.241618">
        <ele>4.030279</ele>
        <time>2024-08-10T23:35:21.000Z</time>
      </trkpt>
      <trkpt lat="51.458549" lon="0.241612">
        <ele>4.030277</ele>
        <time>2024-08-10T23:35:21.000Z</time>
      </trkpt>
      <trkpt lat="51.458547" lon="0.241612">
        <ele>4.03025</ele>
        <time>2024-08-10T23:35:21.000Z</time>
      </trkpt>
      <trkpt lat="51.458552" lon="0.241619">
        <ele>4.030189</ele>
        <time>2024-08-10T23:35:21.000Z</time>
      </trkpt>
      <trkpt lat="51.458553" lon="0.241621">
        <ele>4.03014</ele>
        <time>2024-08-10T23:35:21.000Z</time>
      </trkpt>
      <trkpt lat="51.45856" lon="0.241614">
        <ele>4.030118</ele>
        <time>2024-08-10T23:35:21.000Z</time>
      </trkpt>
      <trkpt lat="51.458543" lon="0.241614">
        <ele>4.030106</ele>
        <time>2024-08-10T23:35:21.000Z</time>
      </trkpt>
      <trkpt lat="51.458559" lon="0.241603">
        <ele>4.030067</ele>
        <time>2024-08-10T23:35:21.000Z</time>
      </trkpt>
      <trkpt lat="51.458559" lon="0.241613">
        <ele>4.030054</ele>
        <time>2024-08-10T23:35:21.000Z</time>
      </trkpt>
      <trkpt lat="51.458551" lon="0.241615">
        <ele>4.030035</ele>
        <time>2024-08-10T23:35:21.000Z</time>
      </trkpt>
      <trkpt lat="51.458612" lon="0.241569">
        <ele>4.029431</ele>
        <time>2024-08-10T23:35:22.000Z</time>
      </trkpt>
      <trkpt lat="51.459298" lon="0.240735">
        <ele>4.019664</ele>
        <time>2024-08-10T23:35:32.000Z</time>
      </trkpt>
      <trkpt lat="51.459598" lon="0.240163">
        <ele>4.054509</ele>
        <time>2024-08-10T23:35:37.000Z</time>
      </trkpt>
      <trkpt lat="51.460041" lon="0.238853">
        <ele>4.160899</ele>
        <time>2024-08-10T23:35:47.000Z</time>
      </trkpt>
      <trkpt lat="51.460103" lon="0.238699">
        <ele>4.173419</ele>
        <time>2024-08-10T23:35:48.000Z</time>
      </trkpt>
      <trkpt lat="51.460102" lon="0.238634">
        <ele>4.177648</ele>
        <time>2024-08-10T23:35:48.000Z</time>
      </trkpt>
      <trkpt lat="51.460207" lon="0.238161">
        <ele>4.213264</ele>
        <time>2024-08-10T23:35:51.000Z</time>
      </trkpt>
      <trkpt lat="51.460255" lon="0.23759">
        <ele>4.362601</ele>
        <time>2024-08-10T23:35:55.000Z</time>
      </trkpt>
      <trkpt lat="51.460251" lon="0.236054">
        <ele>4.849735</ele>
        <time>2024-08-10T23:36:06.000Z</time>
      </trkpt>
      <trkpt lat="51.460273" lon="0.235748">
        <ele>4.953212</ele>
        <time>2024-08-10T23:36:08.000Z</time>
      </trkpt>
      <trkpt lat="51.460285" lon="0.235746">
        <ele>4.954502</ele>
        <time>2024-08-10T23:36:08.000Z</time>
      </trkpt>
      <trkpt lat="51.460319" lon="0.235226">
        <ele>5.123231</ele>
        <time>2024-08-10T23:36:12.000Z</time>
      </trkpt>
      <trkpt lat="51.460347" lon="0.23505">
        <ele>5.161709</ele>
        <time>2024-08-10T23:36:13.000Z</time>
      </trkpt>
      <trkpt lat="51.460674" lon="0.233726">
        <ele>5.344188</ele>
        <time>2024-08-10T23:36:23.000Z</time>
      </trkpt>
      <trkpt lat="51.461252" lon="0.232392">
        <ele>5.469145</ele>
        <time>2024-08-10T23:36:34.000Z</time>
      </trkpt>
      <trkpt lat="51.461329" lon="0.232243">
        <ele>5.433127</ele>
        <time>2024-08-10T23:36:35.000Z</time>
      </trkpt>
      <trkpt lat="51.461382" lon="0.232054">
        <ele>5.390466</ele>
        <time>2024-08-10T23:36:36.000Z</time>
      </trkpt>
      <trkpt lat="51.461415" lon="0.23195">
        <ele>5.367398</ele>
        <time>2024-08-10T23:36:37.000Z</time>
      </trkpt>
      <trkpt lat="51.461389" lon="0.231965">
        <ele>5.358122</ele>
        <time>2024-08-10T23:36:37.000Z</time>
      </trkpt>
      <trkpt lat="51.461386" lon="0.231963">
        <ele>5.357468</ele>
        <time>2024-08-10T23:36:37.000Z</time>
      </trkpt>
      <trkpt lat="51.461396" lon="0.231967">
        <ele>5.356829</ele>
        <time>2024-08-10T23:36:37.000Z</time>
      </trkpt>
      <trkpt lat="51.461382" lon="0.231966">
        <ele>5.356522</ele>
        <time>2024-08-10T23:36:37.000Z</time>
      </trkpt>
      <trkpt lat="51.461378" lon="0.231952">
        <ele>5.355872</ele>
        <time>2024-08-10T23:36:37.000Z</time>
      </trkpt>
      <trkpt lat="51.461388" lon="0.231964">
        <ele>5.355556</ele>
        <time>2024-08-10T23:36:37.000Z</time>
      </trkpt>
      <trkpt lat="51.461382" lon="0.231968">
        <ele>5.354917</ele>
        <time>2024-08-10T23:36:37.000Z</time>
      </trkpt>
      <trkpt lat="51.461345" lon="0.23196">
        <ele>5.344041</ele>
        <time>2024-08-10T23:36:37.000Z</time>
      </trkpt>
      <trkpt lat="51.460777" lon="0.231898">
        <ele>5.162239</ele>
        <time>2024-08-10T23:36:43.000Z</time>
      </trkpt>
      <trkpt lat="51.46069" lon="0.231905">
        <ele>5.135959</ele>
        <time>2024-08-10T23:36:44.000Z</time>
      </trkpt>
      <trkpt lat="51.460641" lon="0.231902">
        <ele>5.118318</ele>
        <time>2024-08-10T23:36:45.000Z</time>
      </trkpt>
      <trkpt lat="51.460566" lon="0.231926">
        <ele>5.094833</ele>
        <time>2024-08-10T23:36:46.000Z</time>
      </trkpt>
      <trkpt lat="51.460466" lon="0.231974">
        <ele>5.061277</ele>
        <time>2024-08-10T23:36:47.000Z</time>
      </trkpt>
      <trkpt lat="51.460449" lon="0.232046">
        <ele>5.047716</ele>
        <time>2024-08-10T23:36:48.000Z</time>
      </trkpt>
      <trkpt lat="51.460376" lon="0.232121">
        <ele>5.020893</ele>
        <time>2024-08-10T23:36:49.000Z</time>
      </trkpt>
      <trkpt lat="51.46034" lon="0.232143">
        <ele>5.007452</ele>
        <time>2024-08-10T23:36:49.000Z</time>
      </trkpt>
      <trkpt lat="51.46031" lon="0.232127">
        <ele>4.994597</ele>
        <time>2024-08-10T23:36:49.000Z</time>
      </trkpt>
      <trkpt lat="51.460296" lon="0.232124">
        <ele>4.99364</ele>
        <time>2024-08-10T23:36:49.000Z</time>
      </trkpt>
      <trkpt lat="51.460293" lon="0.23213">
        <ele>4.992657</ele>
        <time>2024-08-10T23:36:49.000Z</time>
      </trkpt>
      <trkpt lat="51.460297" lon="0.232132">
        <ele>4.992347</ele>
        <time>2024-08-10T23:36:49.000Z</time>
      </trkpt>
      <trkpt lat="51.460306" lon="0.232129">
        <ele>4.992342</ele>
        <time>2024-08-10T23:36:49.000Z</time>
      </trkpt>
      <trkpt lat="51.460289" lon="0.232122">
        <ele>4.991959</ele>
        <time>2024-08-10T23:36:49.000Z</time>
      </trkpt>
      <trkpt lat="51.460297" lon="0.232123">
        <ele>4.991588</ele>
        <time>2024-08-10T23:36:49.000Z</time>
      </trkpt>
      <trkpt lat="51.460286" lon="0.23213">
        <ele>4.990909</ele>
        <time>2024-08-10T23:36:49.000Z</time>
      </trkpt>
      <trkpt lat="51.460254" lon="0.232094">
        <ele>4.977341</ele>
        <time>2024-08-10T23:36:49.000Z</time>
      </trkpt>
      <trkpt lat="51.460219" lon="0.232046">
        <ele>4.962342</ele>
        <time>2024-08-10T23:36:50.000Z</time>
      </trkpt>
      <trkpt lat="51.460149" lon="0.232045">
        <ele>4.94384</ele>
        <time>2024-08-10T23:36:51.000Z</time>
      </trkpt>
      <trkpt lat="51.459797" lon="0.231961">
        <ele>4.915926</ele>
        <time>2024-08-10T23:36:55.000Z</time>
      </trkpt>
      <trkpt lat="51.45946" lon="0.231516">
        <ele>4.880149</ele>
        <time>2024-08-10T23:37:00.000Z</time>
      </trkpt>
      <trkpt lat="51.459161" lon="0.231319">
        <ele>4.855522</ele>
        <time>2024-08-10T23:37:04.000Z</time>
      </trkpt>
      <trkpt lat="51.459059" lon="0.231322">
        <ele>4.846702</ele>
        <time>2024-08-10T23:37:05.000Z</time>
      </trkpt>
      <trkpt lat="51.45901" lon="0.231364">
        <ele>4.842784</ele>
        <time>2024-08-10T23:37:06.000Z</time>
      </trkpt>
      <trkpt lat="51.458973" lon="0.231391">
        <ele>4.838911</ele>
        <time>2024-08-10T23:37:06.000Z</time>
      </trkpt>
      <trkpt lat="51.458758" lon="0.231577">
        <ele>4.819805</ele>
        <time>2024-08-10T23:37:09.000Z</time>
      </trkpt>
      <trkpt lat="51.458707" lon="0.231627">
        <ele>4.815238</ele>
        <time>2024-08-10T23:37:10.000Z</time>
      </trkpt>
      <trkpt lat="51.458719" lon="0.231641">
        <ele>4.814958</ele>
        <time>2024-08-10T23:37:10.000Z</time>
      </trkpt>
      <trkpt lat="51.458712" lon="0.231642">
        <ele>4.814854</ele>
        <time>2024-08-10T23:37:10.000Z</time>
      </trkpt>
      <trkpt lat="51.458717" lon="0.231633">
        <ele>4.814661</ele>
        <time>2024-08-10T23:37:10.000Z</time>
      </trkpt>
      <trkpt lat="51.458699" lon="0.231639">
        <ele>4.814488</ele>
        <time>2024-08-10T23:37:10.000Z</time>
      </trkpt>
      <trkpt lat="51.4587" lon="0.231635">
        <ele>4.814398</ele>
        <time>2024-08-10T23:37:10.000Z</time>
      </trkpt>
      <trkpt lat="51.458699" lon="0.231647">
        <ele>4.814193</ele>
        <time>2024-08-10T23:37:10.000Z</time>
      </trkpt>
      <trkpt lat="51.458699" lon="0.231635">
        <ele>4.814074</ele>
        <time>2024-08-10T23:37:10.000Z</time>
      </trkpt>
      <trkpt lat="51.458708" lon="0.231643">
        <ele>4.814077</ele>
        <time>2024-08-10T23:37:10.000Z</time>
      </trkpt>
      <trkpt lat="51.458704" lon="0.231651">
        <ele>4.813989</ele>
        <time>2024-08-10T23:37:10.000Z</time>
      </trkpt>
      <trkpt lat="51.4587" lon="0.23165">
        <ele>4.813805</ele>
        <time>2024-08-10T23:37:10.000Z</time>
      </trkpt>
      <trkpt lat="51.458691" lon="0.231659">
        <ele>4.813694</ele>
        <time>2024-08-10T23:37:10.000Z</time>
      </trkpt>
      <trkpt lat="51.458699" lon="0.23165">
        <ele>4.813495</ele>
        <time>2024-08-10T23:37:10.000Z</time>
      </trkpt>
      <trkpt lat="51.458694" lon="0.231662">
        <ele>4.813377</ele>
        <time>2024-08-10T23:37:10.000Z</time>
      </trkpt>
      <trkpt lat="51.458187" lon="0.232566">
        <ele>5.180151</ele>
        <time>2024-08-10T23:37:18.000Z</time>
      </trkpt>
      <trkpt lat="51.458174" lon="0.232585">
        <ele>5.184062</ele>
        <time>2024-08-10T23:37:18.000Z</time>
      </trkpt>
      <trkpt lat="51.458188" lon="0.232586">
        <ele>5.186317</ele>
        <time>2024-08-10T23:37:18.000Z</time>
      </trkpt>
      <trkpt lat="51.458189" lon="0.232594">
        <ele>5.187082</ele>
        <time>2024-08-10T23:37:18.000Z</time>
      </trkpt>
      <trkpt lat="51.458179" lon="0.232593">
        <ele>5.18779</ele>
        <time>2024-08-10T23:37:18.000Z</time>
      </trkpt>
      <trkpt lat="51.458184" lon="0.232592">
        <ele>5.189093</ele>
        <time>2024-08-10T23:37:18.000Z</time>
      </trkpt>
      <trkpt lat="51.458183" lon="0.232592">
        <ele>5.189809</ele>
        <time>2024-08-10T23:37:18.000Z</time>
      </trkpt>
      <trkpt lat="51.458171" lon="0.232584">
        <ele>5.190537</ele>
        <time>2024-08-10T23:37:18.000Z</time>
      </trkpt>
      <trkpt lat="51.458177" lon="0.232601">
        <ele>5.191293</ele>
        <time>2024-08-10T23:37:18.000Z</time>
      </trkpt>
      <trkpt lat="51.458181" lon="0.23259">
        <ele>5.192255</ele>
        <time>2024-08-10T23:37:18.000Z</time>
      </trkpt>
      <trkpt lat="51.458181" lon="0.232594">
        <ele>5.193235</ele>
        <time>2024-08-10T23:37:18.000Z</time>
      </trkpt>
      <trkpt lat="51.458178" lon="0.232599">
        <ele>5.194206</ele>
        <time>2024-08-10T23:37:18.000Z</time>
      </trkpt>
      <trkpt lat="51.458184" lon="0.232595">
        <ele>5.194971</ele>
        <time>2024-08-10T23:37:18.000Z</time>
      </trkpt>
      <trkpt lat="51.458169" lon="0.232613">
        <ele>5.195953</ele>
        <time>2024-08-10T23:37:18.000Z</time>
      </trkpt>
      <trkpt lat="51.458181" lon="0.232597">
        <ele>5.196931</ele>
        <time>2024-08-10T23:37:18.000Z</time>
      </trkpt>
      <trkpt lat="51.458179" lon="0.232601">
        <ele>5.197904</ele>
        <time>2024-08-10T23:37:18.000Z</time>
      </trkpt>
      <trkpt lat="51.457787" lon="0.233622">
        <ele>5.64898</ele>
        <time>2024-08-10T23:37:26.000Z</time>
      </trkpt>
      <trkpt lat="51.457474" lon="0.23462">
        <ele>6.078986</ele>
        <time>2024-08-10T23:37:34.000Z</time>
      </trkpt>
      <trkpt lat="51.457477" lon="0.234619">
        <ele>6.079388</ele>
        <time>2024-08-10T23:37:34.000Z</time>
      </trkpt>
      <trkpt lat="51.457465" lon="0.234613">
        <ele>6.080142</ele>
        <time>2024-08-10T23:37:34.000Z</time>
      </trkpt>
      <trkpt lat="51.457477" lon="0.234607">
        <ele>6.080935</ele>
        <time>2024-08-10T23:37:34.000Z</time>
      </trkpt>
      <trkpt lat="51.457478" lon="0.234608">
        <ele>6.081733</ele>
        <time>2024-08-10T23:37:34.000Z</time>
      </trkpt>
      <trkpt lat="51.457467" lon="0.234624">
        <ele>6.082487</ele>
        <time>2024-08-10T23:37:34.000Z</time>
      </trkpt>
      <trkpt lat="51.457468" lon="0.234619">
        <ele>6.083271</ele>
        <time>2024-08-10T23:37:34.000Z</time>
      </trkpt>
      <trkpt lat="51.457464" lon="0.234619">
        <ele>6.084623</ele>
        <time>2024-08-10T23:37:34.000Z</time>
      </trkpt>
      <trkpt lat="51.457466" lon="0.234625">
        <ele>6.085432</ele>
        <time>2024-08-10T23:37:34.000Z</time>
      </trkpt>
      <trkpt lat="51.457462" lon="0.23462">
        <ele>6.086178</ele>
        <time>2024-08-10T23:37:34.000Z</time>
      </trkpt>
      <trkpt lat="51.457474" lon="0.234634">
        <ele>6.087379</ele>
        <time>2024-08-10T23:37:34.000Z</time>
      </trkpt>
      <trkpt lat="51.457471" lon="0.234627">
        <ele>6.088117</ele>
        <time>2024-08-10T23:37:34.000Z</time>
      </trkpt>
      <trkpt lat="51.457462" lon="0.234629">
        <ele>6.089319</ele>
        <time>2024-08-10T23:37:34.000Z</time>
      </trkpt>
      <trkpt lat="51.457468" lon="0.234631">
        <ele>6.091404</ele>
        <time>2024-08-10T23:37:34.000Z</time>
      </trkpt>
      <trkpt lat="51.456908" lon="0.236938">
        <ele>7.080707</ele>
        <time>2024-08-10T23:37:51.000Z</time>
      </trkpt>
      <trkpt lat="51.456906" lon="0.236961">
        <ele>7.097618</ele>
        <time>2024-08-10T23:37:51.000Z</time>
      </trkpt>
      <trkpt lat="51.456898" lon="0.236974">
        <ele>7.099404</ele>
        <time>2024-08-10T23:37:51.000Z</time>
      </trkpt>
      <trkpt lat="51.456903" lon="0.236982">
        <ele>7.100749</ele>
        <time>2024-08-10T23:37:51.000Z</time>
      </trkpt>
      <trkpt lat="51.456906" lon="0.236968">
        <ele>7.101799</ele>
        <time>2024-08-10T23:37:51.000Z</time>
      </trkpt>
      <trkpt lat="51.456903" lon="0.236971">
        <ele>7.103153</ele>
        <time>2024-08-10T23:37:51.000Z</time>
      </trkpt>
      <trkpt lat="51.456907" lon="0.236977">
        <ele>7.104489</ele>
        <time>2024-08-10T23:37:51.000Z</time>
      </trkpt>
      <trkpt lat="51.456899" lon="0.236977">
        <ele>7.106746</ele>
        <time>2024-08-10T23:37:51.000Z</time>
      </trkpt>
      <trkpt lat="51.456902" lon="0.236992">
        <ele>7.107732</ele>
        <time>2024-08-10T23:37:51.000Z</time>
      </trkpt>
      <trkpt lat="51.456903" lon="0.236994">
        <ele>7.108781</ele>
        <time>2024-08-10T23:37:51.000Z</time>
      </trkpt>
      <trkpt lat="51.456896" lon="0.236981">
        <ele>7.110132</ele>
        <time>2024-08-10T23:37:51.000Z</time>
      </trkpt>
      <trkpt lat="51.456562" lon="0.237946">
        <ele>7.686897</ele>
        <time>2024-08-10T23:37:59.000Z</time>
      </trkpt>
      <trkpt lat="51.456552" lon="0.237968">
        <ele>7.703425</ele>
        <time>2024-08-10T23:37:59.000Z</time>
      </trkpt>
      <trkpt lat="51.456545" lon="0.237982">
        <ele>7.706549</ele>
        <time>2024-08-10T23:37:59.000Z</time>
      </trkpt>
      <trkpt lat="51.456543" lon="0.237982">
        <ele>7.707543</ele>
        <time>2024-08-10T23:37:59.000Z</time>
      </trkpt>
      <trkpt lat="51.456542" lon="0.23797">
        <ele>7.70932</ele>
        <time>2024-08-10T23:37:59.000Z</time>
      </trkpt>
      <trkpt lat="51.456533" lon="0.237974">
        <ele>7.710658</ele>
        <time>2024-08-10T23:37:59.000Z</time>
      </trkpt>
      <trkpt lat="51.456531" lon="0.237982">
        <ele>7.712643</ele>
        <time>2024-08-10T23:37:59.000Z</time>
      </trkpt>
      <trkpt lat="51.456535" lon="0.237978">
        <ele>7.713988</ele>
        <time>2024-08-10T23:37:59.000Z</time>
      </trkpt>
      <trkpt lat="51.456535" lon="0.23799">
        <ele>7.715774</ele>
        <time>2024-08-10T23:37:59.000Z</time>
      </trkpt>
      <trkpt lat="51.45653" lon="0.237994">
        <ele>7.718457</ele>
        <time>2024-08-10T23:37:59.000Z</time>
      </trkpt>
      <trkpt lat="51.456537" lon="0.237998">
        <ele>7.720242</ele>
        <time>2024-08-10T23:37:59.000Z</time>
      </trkpt>
      <trkpt lat="51.456527" lon="0.238002">
        <ele>7.72123</ele>
        <time>2024-08-10T23:37:59.000Z</time>
      </trkpt>
      <trkpt lat="51.456526" lon="0.237989">
        <ele>7.722569</ele>
        <time>2024-08-10T23:37:59.000Z</time>
      </trkpt>
      <trkpt lat="51.456525" lon="0.238002">
        <ele>7.724355</ele>
        <time>2024-08-10T23:37:59.000Z</time>
      </trkpt>
      <trkpt lat="51.456087" lon="0.238932">
        <ele>8.33693</ele>
        <time>2024-08-10T23:38:07.000Z</time>
      </trkpt>
      <trkpt lat="51.455848" lon="0.239299">
        <ele>8.584268</ele>
        <time>2024-08-10T23:38:11.000Z</time>
      </trkpt>
      <trkpt lat="51.455849" lon="0.239292">
        <ele>8.585401</ele>
        <time>2024-08-10T23:38:11.000Z</time>
      </trkpt>
      <trkpt lat="51.455849" lon="0.239296">
        <ele>8.586355</ele>
        <time>2024-08-10T23:38:11.000Z</time>
      </trkpt>
      <trkpt lat="51.455845" lon="0.239312">
        <ele>8.587225</ele>
        <time>2024-08-10T23:38:11.000Z</time>
      </trkpt>
      <trkpt lat="51.455855" lon="0.239311">
        <ele>8.587696</ele>
        <time>2024-08-10T23:38:11.000Z</time>
      </trkpt>
      <trkpt lat="51.45585" lon="0.239306">
        <ele>8.588193</ele>
        <time>2024-08-10T23:38:11.000Z</time>
      </trkpt>
      <trkpt lat="51.45584" lon="0.239313">
        <ele>8.588846</ele>
        <time>2024-08-10T23:38:11.000Z</time>
      </trkpt>
      <trkpt lat="51.455841" lon="0.239309">
        <ele>8.589498</ele>
        <time>2024-08-10T23:38:11.000Z</time>
      </trkpt>
      <trkpt lat="51.455839" lon="0.239315">
        <ele>8.589965</ele>
        <time>2024-08-10T23:38:11.000Z</time>
      </trkpt>
      <trkpt lat="51.455841" lon="0.239319">
        <ele>8.590626</ele>
        <time>2024-08-10T23:38:11.000Z</time>
      </trkpt>
      <trkpt lat="51.455761" lon="0.239438">
        <ele>8.634439</ele>
        <time>2024-08-10T23:38:12.000Z</time>
      </trkpt>
      <trkpt lat="51.455117" lon="0.240238">
        <ele>8.967796</ele>
        <time>2024-08-10T23:38:21.000Z</time>
      </trkpt>
      <trkpt lat="51.455117" lon="0.240234">
        <ele>8.969389</ele>
        <time>2024-08-10T23:38:21.000Z</time>
      </trkpt>
      <trkpt lat="51.455114" lon="0.240237">
        <ele>8.969861</ele>
        <time>2024-08-10T23:38:21.000Z</time>
      </trkpt>
      <trkpt lat="51.455113" lon="0.240248">
        <ele>8.970347</ele>
        <time>2024-08-10T23:38:21.000Z</time>
      </trkpt>
      <trkpt lat="51.455118" lon="0.240246">
        <ele>8.970829</ele>
        <time>2024-08-10T23:38:21.000Z</time>
      </trkpt>
      <trkpt lat="51.455115" lon="0.240237">
        <ele>8.971308</ele>
        <time>2024-08-10T23:38:21.000Z</time>
      </trkpt>
      <trkpt lat="51.455115" lon="0.240246">
        <ele>8.971801</ele>
        <time>2024-08-10T23:38:21.000Z</time>
      </trkpt>
      <trkpt lat="51.455104" lon="0.240257">
        <ele>8.972917</ele>
        <time>2024-08-10T23:38:21.000Z</time>
      </trkpt>
      <trkpt lat="51.455104" lon="0.240258">
        <ele>8.973401</ele>
        <time>2024-08-10T23:38:21.000Z</time>
      </trkpt>
      <trkpt lat="51.455105" lon="0.240257">
        <ele>8.974043</ele>
        <time>2024-08-10T23:38:21.000Z</time>
      </trkpt>
      <trkpt lat="51.455115" lon="0.24026">
        <ele>8.975005</ele>
        <time>2024-08-10T23:38:21.000Z</time>
      </trkpt>
      <trkpt lat="51.455112" lon="0.240258">
        <ele>8.976135</ele>
        <time>2024-08-10T23:38:21.000Z</time>
      </trkpt>
      <trkpt lat="51.455097" lon="0.240266">
        <ele>8.977093</ele>
        <time>2024-08-10T23:38:21.000Z</time>
      </trkpt>
      <trkpt lat="51.455101" lon="0.240252">
        <ele>8.977576</ele>
        <time>2024-08-10T23:38:21.000Z</time>
      </trkpt>
      <trkpt lat="51.455078" lon="0.240281">
        <ele>8.989374</ele>
        <time>2024-08-10T23:38:21.000Z</time>
      </trkpt>
      <trkpt lat="51.454692" lon="0.240609">
        <ele>9.171419</ele>
        <time>2024-08-10T23:38:26.000Z</time>
      </trkpt>
      <trkpt lat="51.454605" lon="0.240677">
        <ele>9.207438</ele>
        <time>2024-08-10T23:38:27.000Z</time>
      </trkpt>
      <trkpt lat="51.454613" lon="0.24069">
        <ele>9.208286</ele>
        <time>2024-08-10T23:38:27.000Z</time>
      </trkpt>
      <trkpt lat="51.454596" lon="0.240689">
        <ele>9.209252</ele>
        <time>2024-08-10T23:38:27.000Z</time>
      </trkpt>
      <trkpt lat="51.454601" lon="0.240693">
        <ele>9.209726</ele>
        <time>2024-08-10T23:38:27.000Z</time>
      </trkpt>
      <trkpt lat="51.454607" lon="0.240684">
        <ele>9.209733</ele>
        <time>2024-08-10T23:38:27.000Z</time>
      </trkpt>
      <trkpt lat="51.454609" lon="0.240693">
        <ele>9.209738</ele>
        <time>2024-08-10T23:38:27.000Z</time>
      </trkpt>
      <trkpt lat="51.455115" lon="0.240245">
        <ele>9.080828</ele>
        <time>2024-08-10T23:38:33.000Z</time>
      </trkpt>
      <trkpt lat="51.455121" lon="0.240237">
        <ele>9.080821</ele>
        <time>2024-08-10T23:38:33.000Z</time>
      </trkpt>
      <trkpt lat="51.455484" lon="0.239768">
        <ele>8.812652</ele>
        <time>2024-08-10T23:38:38.000Z</time>
      </trkpt>
      <trkpt lat="51.455845" lon="0.239304">
        <ele>8.544255</ele>
        <time>2024-08-10T23:38:43.000Z</time>
      </trkpt>
      <trkpt lat="51.455852" lon="0.2393">
        <ele>8.544246</ele>
        <time>2024-08-10T23:38:43.000Z</time>
      </trkpt>
      <trkpt lat="51.456192" lon="0.238627">
        <ele>8.229104</ele>
        <time>2024-08-10T23:38:49.000Z</time>
      </trkpt>
      <trkpt lat="51.456546" lon="0.237976">
        <ele>7.845495</ele>
        <time>2024-08-10T23:38:55.000Z</time>
      </trkpt>
      <trkpt lat="51.45654" lon="0.23796">
        <ele>7.845502</ele>
        <time>2024-08-10T23:38:55.000Z</time>
      </trkpt>
      <trkpt lat="51.456896" lon="0.236981">
        <ele>7.337985</ele>
        <time>2024-08-10T23:39:03.000Z</time>
      </trkpt>
      <trkpt lat="51.456897" lon="0.236978">
        <ele>7.337984</ele>
        <time>2024-08-10T23:39:03.000Z</time>
      </trkpt>
      <trkpt lat="51.457185" lon="0.2358">
        <ele>6.796617</ele>
        <time>2024-08-10T23:39:12.000Z</time>
      </trkpt>
      <trkpt lat="51.457468" lon="0.234622">
        <ele>6.27975</ele>
        <time>2024-08-10T23:39:21.000Z</time>
      </trkpt>
      <trkpt lat="51.457472" lon="0.234629">
        <ele>6.279758</ele>
        <time>2024-08-10T23:39:21.000Z</time>
      </trkpt>
      <trkpt lat="51.45782" lon="0.233612">
        <ele>5.80704</ele>
        <time>2024-08-10T23:39:29.000Z</time>
      </trkpt>
      <trkpt lat="51.458173" lon="0.232599">
        <ele>5.572996</ele>
        <time>2024-08-10T23:39:37.000Z</time>
      </trkpt>
      <trkpt lat="51.458169" lon="0.232599">
        <ele>5.573001</ele>
        <time>2024-08-10T23:39:37.000Z</time>
      </trkpt>
      <trkpt lat="51.458694" lon="0.231655">
        <ele>5.316684</ele>
        <time>2024-08-10T23:39:46.000Z</time>
      </trkpt>
      <trkpt lat="51.458704" lon="0.231652">
        <ele>5.316685</ele>
        <time>2024-08-10T23:39:46.000Z</time>
      </trkpt>
      <trkpt lat="51.458704" lon="0.23165">
        <ele>5.316673</ele>
        <time>2024-08-10T23:39:46.000Z</time>
      </trkpt>
      <trkpt lat="51.459105" lon="0.231218">
        <ele>5.302601</ele>
        <time>2024-08-10T23:39:51.000Z</time>
      </trkpt>
      <trkpt lat="51.45911" lon="0.23122">
        <ele>5.302601</ele>
        <time>2024-08-10T23:39:51.000Z</time>
      </trkpt>
      <trkpt lat="51.459108" lon="0.231215">
        <ele>5.302611</ele>
        <time>2024-08-10T23:39:51.000Z</time>
      </trkpt>
      <trkpt lat="51.459157" lon="0.230621">
        <ele>5.427954</ele>
        <time>2024-08-10T23:39:55.000Z</time>
      </trkpt>
      <trkpt lat="51.459155" lon="0.230625">
        <ele>5.427964</ele>
        <time>2024-08-10T23:39:55.000Z</time>
      </trkpt>
      <trkpt lat="51.459158" lon="0.230618">
        <ele>5.427947</ele>
        <time>2024-08-10T23:39:55.000Z</time>
      </trkpt>
      <trkpt lat="51.459271" lon="0.229857">
        <ele>5.594681</ele>
        <time>2024-08-10T23:40:00.000Z</time>
      </trkpt>
      <trkpt lat="51.45939" lon="0.229082">
        <ele>5.761486</ele>
        <time>2024-08-10T23:40:06.000Z</time>
      </trkpt>
      <trkpt lat="51.4594" lon="0.229071">
        <ele>5.761471</ele>
        <time>2024-08-10T23:40:06.000Z</time>
      </trkpt>
      <trkpt lat="51.459394" lon="0.229077">
        <ele>5.761489</ele>
        <time>2024-08-10T23:40:06.000Z</time>
      </trkpt>
      <trkpt lat="51.459447" lon="0.228182">
        <ele>5.942856</ele>
        <time>2024-08-10T23:40:12.000Z</time>
      </trkpt>
      <trkpt lat="51.459503" lon="0.227281">
        <ele>6.119253</ele>
        <time>2024-08-10T23:40:18.000Z</time>
      </trkpt>
      <trkpt lat="51.459488" lon="0.227274">
        <ele>6.119252</ele>
        <time>2024-08-10T23:40:18.000Z</time>
      </trkpt>
      <trkpt lat="51.459472" lon="0.226099">
        <ele>6.348398</ele>
        <time>2024-08-10T23:40:26.000Z</time>
      </trkpt>
      <trkpt lat="51.45946" lon="0.224917">
        <ele>6.422459</ele>
        <time>2024-08-10T23:40:34.000Z</time>
      </trkpt>
      <trkpt lat="51.459432" lon="0.223744">
        <ele>6.456413</ele>
        <time>2024-08-10T23:40:42.000Z</time>
      </trkpt>
      <trkpt lat="51.459433" lon="0.223751">
        <ele>6.456403</ele>
        <time>2024-08-10T23:40:42.000Z</time>
      </trkpt>
      <trkpt lat="51.459398" lon="0.22267">
        <ele>6.471757</ele>
        <time>2024-08-10T23:40:49.000Z</time>
      </trkpt>
      <trkpt lat="51.459353" lon="0.221603">
        <ele>6.446127</ele>
        <time>2024-08-10T23:40:56.000Z</time>
      </trkpt>
      <trkpt lat="51.459299" lon="0.22053">
        <ele>6.420499</ele>
        <time>2024-08-10T23:41:03.000Z</time>
      </trkpt>
      <trkpt lat="51.459304" lon="0.220532">
        <ele>6.420439</ele>
        <time>2024-08-10T23:41:03.000Z</time>
      </trkpt>
      <trkpt lat="51.459317" lon="0.221236">
        <ele>6.417788</ele>
        <time>2024-08-10T23:41:08.000Z</time>
      </trkpt>
      <trkpt lat="51.459433" lon="0.223714">
        <ele>6.495919</ele>
        <time>2024-08-10T23:41:25.000Z</time>
      </trkpt>
      <trkpt lat="51.459488" lon="0.227293">
        <ele>6.346357</ele>
        <time>2024-08-10T23:41:50.000Z</time>
      </trkpt>
      <trkpt lat="51.459472" lon="0.22823">
        <ele>6.026727</ele>
        <time>2024-08-10T23:41:56.000Z</time>
      </trkpt>
      <trkpt lat="51.459358" lon="0.229405">
        <ele>5.618019</ele>
        <time>2024-08-10T23:42:04.000Z</time>
      </trkpt>
      <trkpt lat="51.459309" lon="0.229785">
        <ele>5.504656</ele>
        <time>2024-08-10T23:42:07.000Z</time>
      </trkpt>
      <trkpt lat="51.459167" lon="0.230435">
        <ele>5.340281</ele>
        <time>2024-08-10T23:42:12.000Z</time>
      </trkpt>
      <trkpt lat="51.459134" lon="0.230714">
        <ele>5.27299</ele>
        <time>2024-08-10T23:42:14.000Z</time>
      </trkpt>
      <trkpt lat="51.45913" lon="0.230971">
        <ele>5.211701</ele>
        <time>2024-08-10T23:42:16.000Z</time>
      </trkpt>
      <trkpt lat="51.459144" lon="0.231007">
        <ele>5.203244</ele>
        <time>2024-08-10T23:42:16.000Z</time>
      </trkpt>
      <trkpt lat="51.45922" lon="0.231125">
        <ele>5.16073</ele>
        <time>2024-08-10T23:42:17.000Z</time>
      </trkpt>
      <trkpt lat="51.459481" lon="0.231338">
        <ele>5.04918</ele>
        <time>2024-08-10T23:42:20.000Z</time>
      </trkpt>
      <trkpt lat="51.459795" lon="0.231782">
        <ele>4.888679</ele>
        <time>2024-08-10T23:42:25.000Z</time>
      </trkpt>
      <trkpt lat="51.460006" lon="0.23191">
        <ele>4.922784</ele>
        <time>2024-08-10T23:42:28.000Z</time>
      </trkpt>
      <trkpt lat="51.460119" lon="0.231886">
        <ele>4.971025</ele>
        <time>2024-08-10T23:42:29.000Z</time>
      </trkpt>
      <trkpt lat="51.460188" lon="0.231822">
        <ele>5.004065</ele>
        <time>2024-08-10T23:42:30.000Z</time>
      </trkpt>
      <trkpt lat="51.460224" lon="0.231763">
        <ele>5.024021</ele>
        <time>2024-08-10T23:42:31.000Z</time>
      </trkpt>
      <trkpt lat="51.460262" lon="0.231704">
        <ele>5.044152</ele>
        <time>2024-08-10T23:42:32.000Z</time>
      </trkpt>
      <trkpt lat="51.460316" lon="0.231662">
        <ele>5.069951</ele>
        <time>2024-08-10T23:42:33.000Z</time>
      </trkpt>
      <trkpt lat="51.460376" lon="0.231674">
        <ele>5.095155</ele>
        <time>2024-08-10T23:42:34.000Z</time>
      </trkpt>
      <trkpt lat="51.460417" lon="0.231707">
        <ele>5.115139</ele>
        <time>2024-08-10T23:42:35.000Z</time>
      </trkpt>
      <trkpt lat="51.460442" lon="0.231771">
        <ele>5.134829</ele>
        <time>2024-08-10T23:42:36.000Z</time>
      </trkpt>
      <trkpt lat="51.460542" lon="0.231809">
        <ele>5.178025</ele>
        <time>2024-08-10T23:42:37.000Z</time>
      </trkpt>
      <trkpt lat="51.460649" lon="0.231846">
        <ele>5.223594</ele>
        <time>2024-08-10T23:42:38.000Z</time>
      </trkpt>
      <trkpt lat="51.460773" lon="0.231903">
        <ele>5.277019</ele>
        <time>2024-08-10T23:42:39.000Z</time>
      </trkpt>
      <trkpt lat="51.461348" lon="0.231956">
        <ele>5.515296</ele>
        <time>2024-08-10T23:42:45.000Z</time>
      </trkpt>
      <trkpt lat="51.461422" lon="0.231952">
        <ele>5.545894</ele>
        <time>2024-08-10T23:42:46.000Z</time>
      </trkpt>
      <trkpt lat="51.461461" lon="0.231837">
        <ele>5.583584</ele>
        <time>2024-08-10T23:42:47.000Z</time>
      </trkpt>
      <trkpt lat="51.461516" lon="0.231599">
        <ele>5.673424</ele>
        <time>2024-08-10T23:42:49.000Z</time>
      </trkpt>
      <trkpt lat="51.461577" lon="0.231353">
        <ele>5.784099</ele>
        <time>2024-08-10T23:42:51.000Z</time>
      </trkpt>
      <trkpt lat="51.461599" lon="0.23113">
        <ele>5.873152</ele>
        <time>2024-08-10T23:42:53.000Z</time>
      </trkpt>
      <trkpt lat="51.461673" lon="0.230502">
        <ele>6.141667</ele>
        <time>2024-08-10T23:42:57.000Z</time>
      </trkpt>
      <trkpt lat="51.461857" lon="0.2269">
        <ele>7.479663</ele>
        <time>2024-08-10T23:43:22.000Z</time>
      </trkpt>
      <trkpt lat="51.46186" lon="0.226717">
        <ele>7.539995</ele>
        <time>2024-08-10T23:43:23.000Z</time>
      </trkpt>
      <trkpt lat="51.461851" lon="0.226354">
        <ele>7.660716</ele>
        <time>2024-08-10T23:43:26.000Z</time>
      </trkpt>
      <trkpt lat="51.461824" lon="0.226206">
        <ele>7.713547</ele>
        <time>2024-08-10T23:43:27.000Z</time>
      </trkpt>
      <trkpt lat="51.46098" lon="0.224088">
        <ele>7.677747</ele>
        <time>2024-08-10T23:43:44.000Z</time>
      </trkpt>
      <trkpt lat="51.46079" lon="0.223764">
        <ele>7.659115</ele>
        <time>2024-08-10T23:43:47.000Z</time>
      </trkpt>
      <trkpt lat="51.460537" lon="0.223438">
        <ele>7.674428</ele>
        <time>2024-08-10T23:43:51.000Z</time>
      </trkpt>
      <trkpt lat="51.460506" lon="0.223413">
        <ele>7.677043</ele>
        <time>2024-08-10T23:43:51.000Z</time>
      </trkpt>
      <trkpt lat="51.460498" lon="0.223411">
        <ele>7.677886</ele>
        <time>2024-08-10T23:43:51.000Z</time>
      </trkpt>
      <trkpt lat="51.4605" lon="0.22341">
        <ele>7.677879</ele>
        <time>2024-08-10T23:43:51.000Z</time>
      </trkpt>
      <trkpt lat="51.460487" lon="0.223414">
        <ele>7.677889</ele>
        <time>2024-08-10T23:43:51.000Z</time>
      </trkpt>
      <trkpt lat="51.460505" lon="0.223411">
        <ele>7.678719</ele>
        <time>2024-08-10T23:43:51.000Z</time>
      </trkpt>
      <trkpt lat="51.460523" lon="0.223433">
        <ele>7.681325</ele>
        <time>2024-08-10T23:43:51.000Z</time>
      </trkpt>
      <trkpt lat="51.460799" lon="0.223755">
        <ele>7.708255</ele>
        <time>2024-08-10T23:43:55.000Z</time>
      </trkpt>
      <trkpt lat="51.460983" lon="0.22409">
        <ele>7.730357</ele>
        <time>2024-08-10T23:43:58.000Z</time>
      </trkpt>
      <trkpt lat="51.461816" lon="0.226204">
        <ele>7.565601</ele>
        <time>2024-08-10T23:44:15.000Z</time>
      </trkpt>
      <trkpt lat="51.461842" lon="0.226356">
        <ele>7.532921</ele>
        <time>2024-08-10T23:44:16.000Z</time>
      </trkpt>
      <trkpt lat="51.461859" lon="0.226715">
        <ele>7.458228</ele>
        <time>2024-08-10T23:44:18.000Z</time>
      </trkpt>
      <trkpt lat="51.461848" lon="0.226902">
        <ele>7.420886</ele>
        <time>2024-08-10T23:44:19.000Z</time>
      </trkpt>
      <trkpt lat="51.461678" lon="0.2305">
        <ele>6.088398</ele>
        <time>2024-08-10T23:44:44.000Z</time>
      </trkpt>
      <trkpt lat="51.461612" lon="0.231142">
        <ele>5.894368</ele>
        <time>2024-08-10T23:44:49.000Z</time>
      </trkpt>
      <trkpt lat="51.461571" lon="0.231341">
        <ele>5.858622</ele>
        <time>2024-08-10T23:44:50.000Z</time>
      </trkpt>
      <trkpt lat="51.461516" lon="0.231594">
        <ele>5.814191</ele>
        <time>2024-08-10T23:44:52.000Z</time>
      </trkpt>
      <trkpt lat="51.461461" lon="0.231824">
        <ele>5.771464</ele>
        <time>2024-08-10T23:44:54.000Z</time>
      </trkpt>
      <trkpt lat="51.461427" lon="0.231961">
        <ele>5.747263</ele>
        <time>2024-08-10T23:44:55.000Z</time>
      </trkpt>
      <trkpt lat="51.46138" lon="0.232071">
        <ele>5.727857</ele>
        <time>2024-08-10T23:44:56.000Z</time>
      </trkpt>
      <trkpt lat="51.461313" lon="0.232242">
        <ele>5.691971</ele>
        <time>2024-08-10T23:44:57.000Z</time>
      </trkpt>
      <trkpt lat="51.461263" lon="0.232407">
        <ele>5.661658</ele>
        <time>2024-08-10T23:44:58.000Z</time>
      </trkpt>
      <trkpt lat="51.46067" lon="0.233726">
        <ele>5.37247</ele>
        <time>2024-08-10T23:45:09.000Z</time>
      </trkpt>
      <trkpt lat="51.460344" lon="0.235046">
        <ele>5.080727</ele>
        <time>2024-08-10T23:45:19.000Z</time>
      </trkpt>
      <trkpt lat="51.460328" lon="0.235222">
        <ele>5.044123</ele>
        <time>2024-08-10T23:45:20.000Z</time>
      </trkpt>
      <trkpt lat="51.460281" lon="0.235744">
        <ele>4.936002</ele>
        <time>2024-08-10T23:45:24.000Z</time>
      </trkpt>
      <trkpt lat="51.460283" lon="0.235746">
        <ele>4.935177</ele>
        <time>2024-08-10T23:45:24.000Z</time>
      </trkpt>
      <trkpt lat="51.460244" lon="0.236056">
        <ele>4.867899</ele>
        <time>2024-08-10T23:45:26.000Z</time>
      </trkpt>
      <trkpt lat="51.460251" lon="0.237585">
        <ele>4.440067</ele>
        <time>2024-08-10T23:45:37.000Z</time>
      </trkpt>
      <trkpt lat="51.460201" lon="0.23816">
        <ele>4.27564</ele>
        <time>2024-08-10T23:45:41.000Z</time>
      </trkpt>
      <trkpt lat="51.460118" lon="0.238642">
        <ele>4.135221</ele>
        <time>2024-08-10T23:45:44.000Z</time>
      </trkpt>
      <trkpt lat="51.460102" lon="0.238693">
        <ele>4.118578</ele>
        <time>2024-08-10T23:45:44.000Z</time>
      </trkpt>
      <trkpt lat="51.460057" lon="0.238842">
        <ele>4.069251</ele>
        <time>2024-08-10T23:45:45.000Z</time>
      </trkpt>
      <trkpt lat="51.459605" lon="0.240153">
        <ele>4.052427</ele>
        <time>2024-08-10T23:45:55.000Z</time>
      </trkpt>
      <trkpt lat="51.459305" lon="0.24073">
        <ele>4.04908</ele>
        <time>2024-08-10T23:46:00.000Z</time>
      </trkpt>
      <trkpt lat="51.458611" lon="0.241555">
        <ele>4.036911</ele>
        <time>2024-08-10T23:46:10.000Z</time>
      </trkpt>
      <trkpt lat="51.458557" lon="0.241606">
        <ele>4.035827</ele>
        <time>2024-08-10T23:46:11.000Z</time>
      </trkpt>
      <trkpt lat="51.458563" lon="0.241607">
        <ele>4.035786</ele>
        <time>2024-08-10T23:46:11.000Z</time>
      </trkpt>
      <trkpt lat="51.458555" lon="0.241611">
        <ele>4.035752</ele>
        <time>2024-08-10T23:46:11.000Z</time>
      </trkpt>
      <trkpt lat="51.458544" lon="0.241617">
        <ele>4.035698</ele>
        <time>2024-08-10T23:46:11.000Z</time>
      </trkpt>
      <trkpt lat="51.458555" lon="0.241604">
        <ele>4.035666</ele>
        <time>2024-08-10T23:46:11.000Z</time>
      </trkpt>
      <trkpt lat="51.458552" lon="0.241604">
        <ele>4.035656</ele>
        <time>2024-08-10T23:46:11.000Z</time>
      </trkpt>
      <trkpt lat="51.458547" lon="0.241617">
        <ele>4.035597</ele>
        <time>2024-08-10T23:46:11.000Z</time>
      </trkpt>
      <trkpt lat="51.458547" lon="0.2416">
        <ele>4.035553</ele>
        <time>2024-08-10T23:46:11.000Z</time>
      </trkpt>
      <trkpt lat="51.458558" lon="0.241603">
        <ele>4.035511</ele>
        <time>2024-08-10T23:46:11.000Z</time>
      </trkpt>
      <trkpt lat="51.458604" lon="0.241569">
        <ele>4.034433</ele>
        <time>2024-08-10T23:46:12.000Z</time>
      </trkpt>
      <trkpt lat="51.459304" lon="0.240738">
        <ele>4.016641</ele>
        <time>2024-08-10T23:46:22.000Z</time>
      </trkpt>
      <trkpt lat="51.459595" lon="0.24015">
        <ele>4.027739</ele>
        <time>2024-08-10T23:46:27.000Z</time>
      </trkpt>
      <trkpt lat="51.460041" lon="0.238848">
        <ele>4.184704</ele>
        <time>2024-08-10T23:46:37.000Z</time>
      </trkpt>
      <trkpt lat="51.460105" lon="0.238681">
        <ele>4.203169</ele>
        <time>2024-08-10T23:46:38.000Z</time>
      </trkpt>
      <trkpt lat="51.460102" lon="0.238634">
        <ele>4.209404</ele>
        <time>2024-08-10T23:46:38.000Z</time>
      </trkpt>
      <trkpt lat="51.460215" lon="0.23817">
        <ele>4.261947</ele>
        <time>2024-08-10T23:46:41.000Z</time>
      </trkpt>
      <trkpt lat="51.460262" lon="0.237579">
        <ele>4.343893</ele>
        <time>2024-08-10T23:46:45.000Z</time>
      </trkpt>
      <trkpt lat="51.460258" lon="0.236069">
        <ele>4.829388</ele>
        <time>2024-08-10T23:46:55.000Z</time>
      </trkpt>
      <trkpt lat="51.460268" lon="0.235745">
        <ele>4.93252</ele>
        <time>2024-08-10T23:46:57.000Z</time>
      </trkpt>
      <trkpt lat="51.460277" lon="0.235746">
        <ele>4.933805</ele>
        <time>2024-08-10T23:46:57.000Z</time>
      </trkpt>
      <trkpt lat="51.460321" lon="0.23522">
        <ele>5.101961</ele>
        <time>2024-08-10T23:47:01.000Z</time>
      </trkpt>
      <trkpt lat="51.460333" lon="0.235045">
        <ele>5.15888</ele>
        <time>2024-08-10T23:47:02.000Z</time>
      </trkpt>
      <trkpt lat="51.460684" lon="0.233736">
        <ele>5.340209</ele>
        <time>2024-08-10T23:47:12.000Z</time>
      </trkpt>
      <trkpt lat="51.461266" lon="0.232392">
        <ele>5.484323</ele>
        <time>2024-08-10T23:47:23.000Z</time>
      </trkpt>
      <trkpt lat="51.461326" lon="0.23225">
        <ele>5.470229</ele>
        <time>2024-08-10T23:47:24.000Z</time>
      </trkpt>
      <trkpt lat="51.461385" lon="0.232061">
        <ele>5.424301</ele>
        <time>2024-08-10T23:47:25.000Z</time>
      </trkpt>
      <trkpt lat="51.461426" lon="0.231953">
        <ele>5.39946</ele>
        <time>2024-08-10T23:47:26.000Z</time>
      </trkpt>
      <trkpt lat="51.461393" lon="0.23195">
        <ele>5.389467</ele>
        <time>2024-08-10T23:47:26.000Z</time>
      </trkpt>
      <trkpt lat="51.461383" lon="0.231962">
        <ele>5.388791</ele>
        <time>2024-08-10T23:47:26.000Z</time>
      </trkpt>
      <trkpt lat="51.461383" lon="0.231954">
        <ele>5.388087</ele>
        <time>2024-08-10T23:47:26.000Z</time>
      </trkpt>
      <trkpt lat="51.461377" lon="0.231963">
        <ele>5.387747</ele>
        <time>2024-08-10T23:47:26.000Z</time>
      </trkpt>
      <trkpt lat="51.461393" lon="0.23195">
        <ele>5.387056</ele>
        <time>2024-08-10T23:47:26.000Z</time>
      </trkpt>
      <trkpt lat="51.461381" lon="0.231957">
        <ele>5.386727</ele>
        <time>2024-08-10T23:47:26.000Z</time>
      </trkpt>
      <trkpt lat="51.461383" lon="0.231967">
        <ele>5.386023</ele>
        <time>2024-08-10T23:47:26.000Z</time>
      </trkpt>
      <trkpt lat="51.461342" lon="0.231962">
        <ele>5.374316</ele>
        <time>2024-08-10T23:47:26.000Z</time>
      </trkpt>
      <trkpt lat="51.460789" lon="0.231895">
        <ele>5.178584</ele>
        <time>2024-08-10T23:47:32.000Z</time>
      </trkpt>
      <trkpt lat="51.460707" lon="0.231905">
        <ele>5.150283</ele>
        <time>2024-08-10T23:47:33.000Z</time>
      </trkpt>
      <trkpt lat="51.46064" lon="0.231901">
        <ele>5.131278</ele>
        <time>2024-08-10T23:47:34.000Z</time>
      </trkpt>
      <trkpt lat="51.460568" lon="0.231927">
        <ele>5.10598</ele>
        <time>2024-08-10T23:47:35.000Z</time>
      </trkpt>
      <trkpt lat="51.460465" lon="0.231991">
        <ele>5.069876</ele>
        <time>2024-08-10T23:47:36.000Z</time>
      </trkpt>
      <trkpt lat="51.460457" lon="0.232038">
        <ele>5.055269</ele>
        <time>2024-08-10T23:47:36.000Z</time>
      </trkpt>
      <trkpt lat="51.46038" lon="0.23212">
        <ele>5.026378</ele>
        <time>2024-08-10T23:47:37.000Z</time>
      </trkpt>
      <trkpt lat="51.460342" lon="0.232138">
        <ele>5.011915</ele>
        <time>2024-08-10T23:47:37.000Z</time>
      </trkpt>
      <trkpt lat="51.460302" lon="0.232139">
        <ele>4.998072</ele>
        <time>2024-08-10T23:47:37.000Z</time>
      </trkpt>
      <trkpt lat="51.460303" lon="0.232133">
        <ele>4.997039</ele>
        <time>2024-08-10T23:47:37.000Z</time>
      </trkpt>
      <trkpt lat="51.460303" lon="0.232123">
        <ele>4.995983</ele>
        <time>2024-08-10T23:47:37.000Z</time>
      </trkpt>
      <trkpt lat="51.460301" lon="0.232124">
        <ele>4.995638</ele>
        <time>2024-08-10T23:47:37.000Z</time>
      </trkpt>
      <trkpt lat="51.460298" lon="0.232124">
        <ele>4.995631</ele>
        <time>2024-08-10T23:47:37.000Z</time>
      </trkpt>
      <trkpt lat="51.460304" lon="0.232125">
        <ele>4.99524</ele>
        <time>2024-08-10T23:47:37.000Z</time>
      </trkpt>
      <trkpt lat="51.460296" lon="0.232125">
        <ele>4.994836</ele>
        <time>2024-08-10T23:47:37.000Z</time>
      </trkpt>
      <trkpt lat="51.460285" lon="0.232133">
        <ele>4.99411</ele>
        <time>2024-08-10T23:47:37.000Z</time>
      </trkpt>
      <trkpt lat="51.460246" lon="0.232099">
        <ele>4.979484</ele>
        <time>2024-08-10T23:47:37.000Z</time>
      </trkpt>
      <trkpt lat="51.460211" lon="0.232051">
        <ele>4.963344</ele>
        <time>2024-08-10T23:47:38.000Z</time>
      </trkpt>
      <trkpt lat="51.460159" lon="0.232043">
        <ele>4.940278</ele>
        <time>2024-08-10T23:47:39.000Z</time>
      </trkpt>
      <trkpt lat="51.459813" lon="0.231975">
        <ele>4.873627</ele>
        <time>2024-08-10T23:47:43.000Z</time>
      </trkpt>
      <trkpt lat="51.45946" lon="0.231506">
        <ele>4.87789</ele>
        <time>2024-08-10T23:47:48.000Z</time>
      </trkpt>
      <trkpt lat="51.459164" lon="0.231323">
        <ele>4.880817</ele>
        <time>2024-08-10T23:47:52.000Z</time>
      </trkpt>
      <trkpt lat="51.459063" lon="0.231322">
        <ele>4.88187</ele>
        <time>2024-08-10T23:47:53.000Z</time>
      </trkpt>
      <trkpt lat="51.459009" lon="0.231371">
        <ele>4.882347</ele>
        <time>2024-08-10T23:47:54.000Z</time>
      </trkpt>
      <trkpt lat="51.458971" lon="0.231399">
        <ele>4.882802</ele>
        <time>2024-08-10T23:47:54.000Z</time>
      </trkpt>
      <trkpt lat="51.458763" lon="0.231585">
        <ele>4.885083</ele>
        <time>2024-08-10T23:47:57.000Z</time>
      </trkpt>
      <trkpt lat="51.458712" lon="0.231638">
        <ele>4.885626</ele>
        <time>2024-08-10T23:47:58.000Z</time>
      </trkpt>
      <trkpt lat="51.458716" lon="0.231631">
        <ele>4.885649</ele>
        <time>2024-08-10T23:47:58.000Z</time>
      </trkpt>
      <trkpt lat="51.458709" lon="0.231636">
        <ele>4.885674</ele>
        <time>2024-08-10T23:47:58.000Z</time>
      </trkpt>
      <trkpt lat="51.458701" lon="0.231638">
        <ele>4.885683</ele>
        <time>2024-08-10T23:47:58.000Z</time>
      </trkpt>
      <trkpt lat="51.45871" lon="0.231631">
        <ele>4.885717</ele>
        <time>2024-08-10T23:47:58.000Z</time>
      </trkpt>
      <trkpt lat="51.458706" lon="0.231633">
        <ele>4.88573</ele>
        <time>2024-08-10T23:47:58.000Z</time>
      </trkpt>
      <trkpt lat="51.458704" lon="0.231642">
        <ele>4.885746</ele>
        <time>2024-08-10T23:47:58.000Z</time>
      </trkpt>
      <trkpt lat="51.458697" lon="0.231643">
        <ele>4.885767</ele>
        <time>2024-08-10T23:47:58.000Z</time>
      </trkpt>
      <trkpt lat="51.458703" lon="0.231651">
        <ele>4.885759</ele>
        <time>2024-08-10T23:47:58.000Z</time>
      </trkpt>
      <trkpt lat="51.458695" lon="0.23165">
        <ele>4.885773</ele>
        <time>2024-08-10T23:47:58.000Z</time>
      </trkpt>
      <trkpt lat="51.458693" lon="0.231657">
        <ele>4.885782</ele>
        <time>2024-08-10T23:47:58.000Z</time>
      </trkpt>
      <trkpt lat="51.458706" lon="0.231656">
        <ele>4.885804</ele>
        <time>2024-08-10T23:47:58.000Z</time>
      </trkpt>
      <trkpt lat="51.4587" lon="0.231659">
        <ele>4.885835</ele>
        <time>2024-08-10T23:47:58.000Z</time>
      </trkpt>
      <trkpt lat="51.458692" lon="0.231659">
        <ele>4.885836</ele>
        <time>2024-08-10T23:47:58.000Z</time>
      </trkpt>
      <trkpt lat="51.458194" lon="0.232575">
        <ele>5.149559</ele>
        <time>2024-08-10T23:48:06.000Z</time>
      </trkpt>
      <trkpt lat="51.458174" lon="0.232587">
        <ele>5.153608</ele>
        <time>2024-08-10T23:48:06.000Z</time>
      </trkpt>
      <trkpt lat="51.458181" lon="0.232581">
        <ele>5.155952</ele>
        <time>2024-08-10T23:48:06.000Z</time>
      </trkpt>
      <trkpt lat="51.458187" lon="0.232589">
        <ele>5.156754</ele>
        <time>2024-08-10T23:48:06.000Z</time>
      </trkpt>
      <trkpt lat="51.458172" lon="0.232585">
        <ele>5.157506</ele>
        <time>2024-08-10T23:48:06.000Z</time>
      </trkpt>
      <trkpt lat="51.458169" lon="0.232592">
        <ele>5.158849</ele>
        <time>2024-08-10T23:48:06.000Z</time>
      </trkpt>
      <trkpt lat="51.458179" lon="0.232597">
        <ele>5.159591</ele>
        <time>2024-08-10T23:48:06.000Z</time>
      </trkpt>
      <trkpt lat="51.458173" lon="0.23259">
        <ele>5.160344</ele>
        <time>2024-08-10T23:48:06.000Z</time>
      </trkpt>
      <trkpt lat="51.458187" lon="0.232585">
        <ele>5.161131</ele>
        <time>2024-08-10T23:48:06.000Z</time>
      </trkpt>
      <trkpt lat="51.458171" lon="0.232601">
        <ele>5.16214</ele>
        <time>2024-08-10T23:48:06.000Z</time>
      </trkpt>
      <trkpt lat="51.458167" lon="0.232602">
        <ele>5.163164</ele>
        <time>2024-08-10T23:48:06.000Z</time>
      </trkpt>
      <trkpt lat="51.458172" lon="0.232604">
        <ele>5.164171</ele>
        <time>2024-08-10T23:48:06.000Z</time>
      </trkpt>
      <trkpt lat="51.45817" lon="0.232604">
        <ele>5.164962</ele>
        <time>2024-08-10T23:48:06.000Z</time>
      </trkpt>
      <trkpt lat="51.458174" lon="0.232604">
        <ele>5.165975</ele>
        <time>2024-08-10T23:48:06.000Z</time>
      </trkpt>
      <trkpt lat="51.458182" lon="0.232603">
        <ele>5.166989</ele>
        <time>2024-08-10T23:48:06.000Z</time>
      </trkpt>
      <trkpt lat="51.458172" lon="0.232617">
        <ele>5.167992</ele>
        <time>2024-08-10T23:48:06.000Z</time>
      </trkpt>
      <trkpt lat="51.457785" lon="0.233617">
        <ele>5.636992</ele>
        <time>2024-08-10T23:48:14.000Z</time>
      </trkpt>
      <trkpt lat="51.45748" lon="0.23462">
        <ele>6.07738</ele>
        <time>2024-08-10T23:48:22.000Z</time>
      </trkpt>
      <trkpt lat="51.457474" lon="0.23461">
        <ele>6.077783</ele>
        <time>2024-08-10T23:48:22.000Z</time>
      </trkpt>
      <trkpt lat="51.457476" lon="0.234606">
        <ele>6.07855</ele>
        <time>2024-08-10T23:48:22.000Z</time>
      </trkpt>
      <trkpt lat="51.457472" lon="0.234624">
        <ele>6.079376</ele>
        <time>2024-08-10T23:48:22.000Z</time>
      </trkpt>
      <trkpt lat="51.457474" lon="0.234626">
        <ele>6.080178</ele>
        <time>2024-08-10T23:48:22.000Z</time>
      </trkpt>
      <trkpt lat="51.457478" lon="0.234623">
        <ele>6.080954</ele>
        <time>2024-08-10T23:48:22.000Z</time>
      </trkpt>
      <trkpt lat="51.457472" lon="0.234624">
        <ele>6.081764</ele>
        <time>2024-08-10T23:48:22.000Z</time>
      </trkpt>
      <trkpt lat="51.457475" lon="0.234627">
        <ele>6.083163</ele>
        <time>2024-08-10T23:48:22.000Z</time>
      </trkpt>
      <trkpt lat="51.457469" lon="0.23462">
        <ele>6.083981</ele>
        <time>2024-08-10T23:48:22.000Z</time>
      </trkpt>
      <trkpt lat="51.457465" lon="0.23462">
        <ele>6.08475</ele>
        <time>2024-08-10T23:48:22.000Z</time>
      </trkpt>
      <trkpt lat="51.457461" lon="0.234634">
        <ele>6.085971</ele>
        <time>2024-08-10T23:48:22.000Z</time>
      </trkpt>
      <trkpt lat="51.457476" lon="0.234631">
        <ele>6.086749</ele>
        <time>2024-08-10T23:48:22.000Z</time>
      </trkpt>
      <trkpt lat="51.457462" lon="0.234633">
        <ele>6.087974</ele>
        <time>2024-08-10T23:48:22.000Z</time>
      </trkpt>
      <trkpt lat="51.457463" lon="0.234642">
        <ele>6.090113</ele>
        <time>2024-08-10T23:48:22.000Z</time>
      </trkpt>
      <trkpt lat="51.45691" lon="0.236947">
        <ele>7.096692</ele>
        <time>2024-08-10T23:48:39.000Z</time>
      </trkpt>
      <trkpt lat="51.456912" lon="0.236964">
        <ele>7.109853</ele>
        <time>2024-08-10T23:48:39.000Z</time>
      </trkpt>
      <trkpt lat="51.456908" lon="0.236974">
        <ele>7.111249</ele>
        <time>2024-08-10T23:48:39.000Z</time>
      </trkpt>
      <trkpt lat="51.456907" lon="0.236982">
        <ele>7.112289</ele>
        <time>2024-08-10T23:48:39.000Z</time>
      </trkpt>
      <trkpt lat="51.456899" lon="0.236977">
        <ele>7.113105</ele>
        <time>2024-08-10T23:48:39.000Z</time>
      </trkpt>
      <trkpt lat="51.456911" lon="0.236987">
        <ele>7.114149</ele>
        <time>2024-08-10T23:48:39.000Z</time>
      </trkpt>
      <trkpt lat="51.456908" lon="0.236984">
        <ele>7.115203</ele>
        <time>2024-08-10T23:48:39.000Z</time>
      </trkpt>
      <trkpt lat="51.456904" lon="0.236982">
        <ele>7.116965</ele>
        <time>2024-08-10T23:48:39.000Z</time>
      </trkpt>
      <trkpt lat="51.456892" lon="0.236985">
        <ele>7.117736</ele>
        <time>2024-08-10T23:48:39.000Z</time>
      </trkpt>
      <trkpt lat="51.456904" lon="0.236992">
        <ele>7.118539</ele>
        <time>2024-08-10T23:48:39.000Z</time>
      </trkpt>
      <trkpt lat="51.456898" lon="0.236998">
        <ele>7.119602</ele>
        <time>2024-08-10T23:48:39.000Z</time>
      </trkpt>
      <trkpt lat="51.456563" lon="0.237953">
        <ele>7.669569</ele>
        <time>2024-08-10T23:48:47.000Z</time>
      </trkpt>
      <trkpt lat="51.456554" lon="0.237965">
        <ele>7.686045</ele>
        <time>2024-08-10T23:48:47.000Z</time>
      </trkpt>
      <trkpt lat="51.45655" lon="0.237967">
        <ele>7.689141</ele>
        <time>2024-08-10T23:48:47.000Z</time>
      </trkpt>
      <trkpt lat="51.456544" lon="0.237971">
        <ele>7.690135</ele>
        <time>2024-08-10T23:48:47.000Z</time>
      </trkpt>
      <trkpt lat="51.456541" lon="0.237984">
        <ele>7.691906</ele>
        <time>2024-08-10T23:48:47.000Z</time>
      </trkpt>
      <trkpt lat="51.456538" lon="0.237988">
        <ele>7.693244</ele>
        <time>2024-08-10T23:48:47.000Z</time>
      </trkpt>
      <trkpt lat="51.456547" lon="0.237984">
        <ele>7.695216</ele>
        <time>2024-08-10T23:48:47.000Z</time>
      </trkpt>
      <trkpt lat="51.456543" lon="0.237978">
        <ele>7.696562</ele>
        <time>2024-08-10T23:48:47.000Z</time>
      </trkpt>
      <trkpt lat="51.456544" lon="0.23798">
        <ele>7.698329</ele>
        <time>2024-08-10T23:48:47.000Z</time>
      </trkpt>
      <trkpt lat="51.456541" lon="0.237987">
        <ele>7.701003</ele>
        <time>2024-08-10T23:48:47.000Z</time>
      </trkpt>
      <trkpt lat="51.456529" lon="0.238001">
        <ele>7.702781</ele>
        <time>2024-08-10T23:48:47.000Z</time>
      </trkpt>
      <trkpt lat="51.456539" lon="0.23799">
        <ele>7.703782</ele>
        <time>2024-08-10T23:48:47.000Z</time>
      </trkpt>
      <trkpt lat="51.456535" lon="0.238001">
        <ele>7.705104</ele>
        <time>2024-08-10T23:48:47.000Z</time>
      </trkpt>
      <trkpt lat="51.456538" lon="0.237998">
        <ele>7.70689</ele>
        <time>2024-08-10T23:48:47.000Z</time>
      </trkpt>
      <trkpt lat="51.456089" lon="0.238919">
        <ele>8.317123</ele>
        <time>2024-08-10T23:48:55.000Z</time>
      </trkpt>
      <trkpt lat="51.45586" lon="0.239289">
        <ele>8.590042</ele>
        <time>2024-08-10T23:48:59.000Z</time>
      </trkpt>
      <trkpt lat="51.455846" lon="0.239307">
        <ele>8.592346</ele>
        <time>2024-08-10T23:48:59.000Z</time>
      </trkpt>
      <trkpt lat="51.455848" lon="0.239294">
        <ele>8.594315</ele>
        <time>2024-08-10T23:48:59.000Z</time>
      </trkpt>
      <trkpt lat="51.455843" lon="0.239308">
        <ele>8.596081</ele>
        <time>2024-08-10T23:48:59.000Z</time>
      </trkpt>
      <trkpt lat="51.45585" lon="0.239311">
        <ele>8.597074</ele>
        <time>2024-08-10T23:48:59.000Z</time>
      </trkpt>
      <trkpt lat="51.455844" lon="0.239302">
        <ele>8.598055</ele>
        <time>2024-08-10T23:48:59.000Z</time>
      </trkpt>
      <trkpt lat="51.455844" lon="0.239314">
        <ele>8.599409</ele>
        <time>2024-08-10T23:48:59.000Z</time>
      </trkpt>
      <trkpt lat="51.455838" lon="0.239307">
        <ele>8.600746</ele>
        <time>2024-08-10T23:48:59.000Z</time>
      </trkpt>
      <trkpt lat="51.45585" lon="0.239308">
        <ele>8.601723</ele>
        <time>2024-08-10T23:48:59.000Z</time>
      </trkpt>
      <trkpt lat="51.455841" lon="0.239306">
        <ele>8.603057</ele>
        <time>2024-08-10T23:48:59.000Z</time>
      </trkpt>
      <trkpt lat="51.455771" lon="0.239438">
        <ele>8.6929</ele>
        <time>2024-08-10T23:49:00.000Z</time>
      </trkpt>
      <trkpt lat="51.455125" lon="0.240229">
        <ele>8.945464</ele>
        <time>2024-08-10T23:49:09.000Z</time>
      </trkpt>
      <trkpt lat="51.455125" lon="0.240234">
        <ele>8.946589</ele>
        <time>2024-08-10T23:49:09.000Z</time>
      </trkpt>
      <trkpt lat="51.455121" lon="0.240248">
        <ele>8.946943</ele>
        <time>2024-08-10T23:49:09.000Z</time>
      </trkpt>
      <trkpt lat="51.455119" lon="0.240245">
        <ele>8.947281</ele>
        <time>2024-08-10T23:49:09.000Z</time>
      </trkpt>
      <trkpt lat="51.455119" lon="0.240245">
        <ele>8.947628</ele>
        <time>2024-08-10T23:49:09.000Z</time>
      </trkpt>
      <trkpt lat="51.455112" lon="0.240238">
        <ele>8.947979</ele>
        <time>2024-08-10T23:49:09.000Z</time>
      </trkpt>
      <trkpt lat="51.455111" lon="0.240243">
        <ele>8.948329</ele>
        <time>2024-08-10T23:49:09.000Z</time>
      </trkpt>
      <trkpt lat="51.455104" lon="0.24024">
        <ele>8.94912</ele>
        <time>2024-08-10T23:49:09.000Z</time>
      </trkpt>
      <trkpt lat="51.455104" lon="0.240245">
        <ele>8.949472</ele>
        <time>2024-08-10T23:49:09.000Z</time>
      </trkpt>
      <trkpt lat="51.455116" lon="0.240249">
        <ele>8.949929</ele>
        <time>2024-08-10T23:49:09.000Z</time>
      </trkpt>
      <trkpt lat="51.455107" lon="0.240245">
        <ele>8.950627</ele>
        <time>2024-08-10T23:49:09.000Z</time>
      </trkpt>
      <trkpt lat="51.455105" lon="0.240261">
        <ele>8.951417</ele>
        <time>2024-08-10T23:49:09.000Z</time>
      </trkpt>
      <trkpt lat="51.45511" lon="0.240249">
        <ele>8.95211</ele>
        <time>2024-08-10T23:49:09.000Z</time>
      </trkpt>
      <trkpt lat="51.455097" lon="0.240257">
        <ele>8.952448</ele>
        <time>2024-08-10T23:49:09.000Z</time>
      </trkpt>
      <trkpt lat="51.455075" lon="0.240291">
        <ele>8.960905</ele>
        <time>2024-08-10T23:49:09.000Z</time>
      </trkpt>
      <trkpt lat="51.454677" lon="0.240626">
        <ele>9.091219</ele>
        <time>2024-08-10T23:49:14.000Z</time>
      </trkpt>
      <trkpt lat="51.454616" lon="0.240693">
        <ele>9.116989</ele>
        <time>2024-08-10T23:49:15.000Z</time>
      </trkpt>
      <trkpt lat="51.454607" lon="0.240682">
        <ele>9.117601</ele>
        <time>2024-08-10T23:49:15.000Z</time>
      </trkpt>
      <trkpt lat="51.454605" lon="0.240692">
        <ele>9.118292</ele>
        <time>2024-08-10T23:49:15.000Z</time>
      </trkpt>
      <trkpt lat="51.454608" lon="0.24069">
        <ele>9.11829</ele>
        <time>2024-08-10T23:49:15.000Z</time>
      </trkpt>
      <trkpt lat="51.454608" lon="0.24068">
        <ele>9.11829</ele>
        <time>2024-08-10T23:49:15.000Z</time>
      </trkpt>
      <trkpt lat="51.455117" lon="0.240247">
        <ele>9.135886</ele>
        <time>2024-08-10T23:49:21.000Z</time>
      </trkpt>
      <trkpt lat="51.455112" lon="0.240244">
        <ele>9.135892</ele>
        <time>2024-08-10T23:49:21.000Z</time>
      </trkpt>
      <trkpt lat="51.455483" lon="0.239786">
        <ele>8.835783</ele>
        <time>2024-08-10T23:49:26.000Z</time>
      </trkpt>
      <trkpt lat="51.455847" lon="0.239311">
        <ele>8.536205</ele>
        <time>2024-08-10T23:49:31.000Z</time>
      </trkpt>
      <trkpt lat="51.455845" lon="0.239302">
        <ele>8.536201</ele>
        <time>2024-08-10T23:49:31.000Z</time>
      </trkpt>
      <trkpt lat="51.456187" lon="0.238652">
        <ele>8.191321</ele>
        <time>2024-08-10T23:49:37.000Z</time>
      </trkpt>
      <trkpt lat="51.45653" lon="0.237974">
        <ele>7.829249</ele>
        <time>2024-08-10T23:49:43.000Z</time>
      </trkpt>
      <trkpt lat="51.456541" lon="0.237987">
        <ele>7.829248</ele>
        <time>2024-08-10T23:49:43.000Z</time>
      </trkpt>
      <trkpt lat="51.456911" lon="0.23698">
        <ele>7.334197</ele>
        <time>2024-08-10T23:49:51.000Z</time>
      </trkpt>
      <trkpt lat="51.456898" lon="0.236986">
        <ele>7.33419</ele>
        <time>2024-08-10T23:49:51.000Z</time>
      </trkpt>
      <trkpt lat="51.457195" lon="0.235807">
        <ele>6.798878</ele>
        <time>2024-08-10T23:50:00.000Z</time>
      </trkpt>
      <trkpt lat="51.457468" lon="0.234618">
        <ele>6.283651</ele>
        <time>2024-08-10T23:50:09.000Z</time>
      </trkpt>
      <trkpt lat="51.457465" lon="0.234621">
        <ele>6.283654</ele>
        <time>2024-08-10T23:50:09.000Z</time>
      </trkpt>
      <trkpt lat="51.457828" lon="0.233613">
        <ele>5.810201</ele>
        <time>2024-08-10T23:50:17.000Z</time>
      </trkpt>
      <trkpt lat="51.458177" lon="0.232594">
        <ele>5.556605</ele>
        <time>2024-08-10T23:50:25.000Z</time>
      </trkpt>
      <trkpt lat="51.458184" lon="0.232611">
        <ele>5.556599</ele>
        <time>2024-08-10T23:50:25.000Z</time>
      </trkpt>
      <trkpt lat="51.458709" lon="0.231646">
        <ele>5.371198</ele>
        <time>2024-08-10T23:50:34.000Z</time>
      </trkpt>
      <trkpt lat="51.458694" lon="0.231641">
        <ele>5.371202</ele>
        <time>2024-08-10T23:50:34.000Z</time>
      </trkpt>
      <trkpt lat="51.458704" lon="0.231647">
        <ele>5.371197</ele>
        <time>2024-08-10T23:50:34.000Z</time>
      </trkpt>
      <trkpt lat="51.459116" lon="0.231209">
        <ele>5.262279</ele>
        <time>2024-08-10T23:50:39.000Z</time>
      </trkpt>
      <trkpt lat="51.459117" lon="0.231211">
        <ele>5.262273</ele>
        <time>2024-08-10T23:50:39.000Z</time>
      </trkpt>
      <trkpt lat="51.459102" lon="0.231212">
        <ele>5.262279</ele>
        <time>2024-08-10T23:50:39.000Z</time>
      </trkpt>
      <trkpt lat="51.459157" lon="0.230626">
        <ele>5.405153</ele>
        <time>2024-08-10T23:50:43.000Z</time>
      </trkpt>
      <trkpt lat="51.459153" lon="0.230614">
        <ele>5.405144</ele>
        <time>2024-08-10T23:50:43.000Z</time>
      </trkpt>
      <trkpt lat="51.459153" lon="0.230621">
        <ele>5.405146</ele>
        <time>2024-08-10T23:50:43.000Z</time>
      </trkpt>
      <trkpt lat="51.459273" lon="0.229842">
        <ele>5.596825</ele>
        <time>2024-08-10T23:50:49.000Z</time>
      </trkpt>
      <trkpt lat="51.459403" lon="0.229062">
        <ele>5.7884</ele>
        <time>2024-08-10T23:50:55.000Z</time>
      </trkpt>
      <trkpt lat="51.459394" lon="0.229064">
        <ele>5.788407</ele>
        <time>2024-08-10T23:50:55.000Z</time>
      </trkpt>
      <trkpt lat="51.459447" lon="0.228178">
        <ele>5.988313</ele>
        <time>2024-08-10T23:51:01.000Z</time>
      </trkpt>
      <trkpt lat="51.459497" lon="0.227267">
        <ele>6.136948</ele>
        <time>2024-08-10T23:51:07.000Z</time>
      </trkpt>
      <trkpt lat="51.459493" lon="0.227266">
        <ele>6.136955</ele>
        <time>2024-08-10T23:51:07.000Z</time>
      </trkpt>
      <trkpt lat="51.459499" lon="0.227266">
        <ele>6.136958</ele>
        <time>2024-08-10T23:51:07.000Z</time>
      </trkpt>
      <trkpt lat="51.459483" lon="0.226089">
        <ele>6.332202</ele>
        <time>2024-08-10T23:51:15.000Z</time>
      </trkpt>
      <trkpt lat="51.459465" lon="0.224916">
        <ele>6.43606</ele>
        <time>2024-08-10T23:51:23.000Z</time>
      </trkpt>
      <trkpt lat="51.459441" lon="0.223729">
        <ele>6.452383</ele>
        <time>2024-08-10T23:51:31.000Z</time>
      </trkpt>
      <trkpt lat="51.459447" lon="0.223718">
        <ele>6.452386</ele>
        <time>2024-08-10T23:51:31.000Z</time>
      </trkpt>
      <trkpt lat="51.4594" lon="0.222666">
        <ele>6.467138</ele>
        <time>2024-08-10T23:51:38.000Z</time>
      </trkpt>
      <trkpt lat="51.459355" lon="0.221583">
        <ele>6.448853</ele>
        <time>2024-08-10T23:51:46.000Z</time>
      </trkpt>
      <trkpt lat="51.45929" lon="0.220515">
        <ele>6.429678</ele>
        <time>2024-08-10T23:51:53.000Z</time>
      </trkpt>
      <trkpt lat="51.459303" lon="0.220519">
        <ele>6.429623</ele>
        <time>2024-08-10T23:51:53.000Z</time>
      </trkpt>
      <trkpt lat="51.459297" lon="0.220532">
        <ele>6.429593</ele>
        <time>2024-08-10T23:51:53.000Z</time>
      </trkpt>
      <trkpt lat="51.459295" lon="0.220526">
        <ele>6.429545</ele>
        <time>2024-08-10T23:51:53.000Z</time>
      </trkpt>
      <trkpt lat="51.459294" lon="0.220537">
        <ele>6.429456</ele>
        <time>2024-08-10T23:51:53.000Z</time>
      </trkpt>
      <trkpt lat="51.459294" lon="0.220533">
        <ele>6.429389</ele>
        <time>2024-08-10T23:51:53.000Z</time>
      </trkpt>
      <trkpt lat="51.459298" lon="0.220543">
        <ele>6.429328</ele>
        <time>2024-08-10T23:51:53.000Z</time>
      </trkpt>
      <trkpt lat="51.459322" lon="0.221224">
        <ele>6.416862</ele>
        <time>2024-08-10T23:51:58.000Z</time>
      </trkpt>
      <trkpt lat="51.459443" lon="0.223711">
        <ele>6.495648</ele>
        <time>2024-08-10T23:52:15.000Z</time>
      </trkpt>
      <trkpt lat="51.459496" lon="0.227294">
        <ele>6.410406</ele>
        <time>2024-08-10T23:52:40.000Z</time>
      </trkpt>
      <trkpt lat="51.459475" lon="0.228234">
        <ele>6.054727</ele>
        <time>2024-08-10T23:52:47.000Z</time>
      </trkpt>
      <trkpt lat="51.459363" lon="0.229419">
        <ele>5.599922</ele>
        <time>2024-08-10T23:52:55.000Z</time>
      </trkpt>
      <trkpt lat="51.459303" lon="0.22979">
        <ele>5.453073</ele>
        <time>2024-08-10T23:52:58.000Z</time>
      </trkpt>
      <trkpt lat="51.459175" lon="0.23044">
        <ele>5.301667</ele>
        <time>2024-08-10T23:53:03.000Z</time>
      </trkpt>
      <trkpt lat="51.459133" lon="0.230721">
        <ele>5.250744</ele>
        <time>2024-08-10T23:53:05.000Z</time>
      </trkpt>
      <trkpt lat="51.459128" lon="0.230965">
        <ele>5.204363</ele>
        <time>2024-08-10T23:53:07.000Z</time>
      </trkpt>
      <trkpt lat="51.459139" lon="0.230999">
        <ele>5.197967</ele>
        <time>2024-08-10T23:53:07.000Z</time>
      </trkpt>
      <trkpt lat="51.459225" lon="0.231126">
        <ele>5.165793</ele>
        <time>2024-08-10T23:53:08.000Z</time>
      </trkpt>
      <trkpt lat="51.45948" lon="0.231335">
        <ele>5.081369</ele>
        <time>2024-08-10T23:53:11.000Z</time>
      </trkpt>
      <trkpt lat="51.459796" lon="0.231782">
        <ele>4.959886</ele>
        <time>2024-08-10T23:53:16.000Z</time>
      </trkpt>
      <trkpt lat="51.460012" lon="0.231915">
        <ele>4.890812</ele>
        <time>2024-08-10T23:53:19.000Z</time>
      </trkpt>
      <trkpt lat="51.460129" lon="0.231879">
        <ele>4.915234</ele>
        <time>2024-08-10T23:53:20.000Z</time>
      </trkpt>
      <trkpt lat="51.4602" lon="0.231829">
        <ele>4.952803</ele>
        <time>2024-08-10T23:53:21.000Z</time>
      </trkpt>
      <trkpt lat="51.460216" lon="0.231748">
        <ele>4.975505</ele>
        <time>2024-08-10T23:53:22.000Z</time>
      </trkpt>
      <trkpt lat="51.460252" lon="0.231706">
        <ele>4.99839</ele>
        <time>2024-08-10T23:53:22.000Z</time>
      </trkpt>
      <trkpt lat="51.460307" lon="0.23168">
        <ele>5.027711</ele>
        <time>2024-08-10T23:53:23.000Z</time>
      </trkpt>
      <trkpt lat="51.460383" lon="0.231682">
        <ele>5.056395</ele>
        <time>2024-08-10T23:53:24.000Z</time>
      </trkpt>
      <trkpt lat="51.460419" lon="0.231705">
        <ele>5.079118</ele>
        <time>2024-08-10T23:53:24.000Z</time>
      </trkpt>
      <trkpt lat="51.46045" lon="0.23176">
        <ele>5.101499</ele>
        <time>2024-08-10T23:53:25.000Z</time>
      </trkpt>
      <trkpt lat="51.460553" lon="0.2318">
        <ele>5.150637</ele>
        <time>2024-08-10T23:53:26.000Z</time>
      </trkpt>
      <trkpt lat="51.460654" lon="0.231848">
        <ele>5.202434</ele>
        <time>2024-08-10T23:53:27.000Z</time>
      </trkpt>
      <trkpt lat="51.460788" lon="0.231893">
        <ele>5.263198</ele>
        <time>2024-08-10T23:53:29.000Z</time>
      </trkpt>
      <trkpt lat="51.461342" lon="0.231955">
        <ele>5.534144</ele>
        <time>2024-08-10T23:53:35.000Z</time>
      </trkpt>
      <trkpt lat="51.461412" lon="0.231951">
        <ele>5.568955</ele>
        <time>2024-08-10T23:53:36.000Z</time>
      </trkpt>
      <trkpt lat="51.461458" lon="0.231832">
        <ele>5.611792</ele>
        <time>2024-08-10T23:53:37.000Z</time>
      </trkpt>
      <trkpt lat="51.461514" lon="0.231602">
        <ele>5.687511</ele>
        <time>2024-08-10T23:53:39.000Z</time>
      </trkpt>
      <trkpt lat="51.461584" lon="0.231342">
        <ele>5.778694</ele>
        <time>2024-08-10T23:53:41.000Z</time>
      </trkpt>
      <trkpt lat="51.461614" lon="0.231135">
        <ele>5.868787</ele>
        <time>2024-08-10T23:53:42.000Z</time>
      </trkpt>
      <trkpt lat="51.461669" lon="0.230511">
        <ele>6.140402</ele>
        <time>2024-08-10T23:53:46.000Z</time>
      </trkpt>
      <trkpt lat="51.46186" lon="0.2269">
        <ele>7.448064</ele>
        <time>2024-08-10T23:54:11.000Z</time>
      </trkpt>
      <trkpt lat="51.461862" lon="0.226724">
        <ele>7.50124</ele>
        <time>2024-08-10T23:54:12.000Z</time>
      </trkpt>
      <trkpt lat="51.461846" lon="0.226361">
        <ele>7.607613</ele>
        <time>2024-08-10T23:54:15.000Z</time>
      </trkpt>
      <trkpt lat="51.461824" lon="0.226206">
        <ele>7.654148</ele>
        <time>2024-08-10T23:54:16.000Z</time>
      </trkpt>
      <trkpt lat="51.46098" lon="0.224088">
        <ele>7.694922</ele>
        <time>2024-08-10T23:54:33.000Z</time>
      </trkpt>
      <trkpt lat="51.460801" lon="0.22376">
        <ele>7.671656</ele>
        <time>2024-08-10T23:54:36.000Z</time>
      </trkpt>
      <trkpt lat="51.460534" lon="0.223449">
        <ele>7.653354</ele>
        <time>2024-08-10T23:54:40.000Z</time>
      </trkpt>
      <trkpt lat="51.460508" lon="0.223416">
        <ele>7.656229</ele>
        <time>2024-08-10T23:54:40.000Z</time>
      </trkpt>
      <trkpt lat="51.460498" lon="0.223411">
        <ele>7.657159</ele>
        <time>2024-08-10T23:54:40.000Z</time>
      </trkpt>
      <trkpt lat="51.460494" lon="0.223398">
        <ele>7.657164</ele>
        <time>2024-08-10T23:54:40.000Z</time>
      </trkpt>
      <trkpt lat="51.460493" lon="0.2234">
        <ele>7.657156</ele>
        <time>2024-08-10T23:54:40.000Z</time>
      </trkpt>
      <trkpt lat="51.460505" lon="0.223412">
        <ele>7.658088</ele>
        <time>2024-08-10T23:54:40.000Z</time>
      </trkpt>
      <trkpt lat="51.460536" lon="0.223432">
        <ele>7.660956</ele>
        <time>2024-08-10T23:54:40.000Z</time>
      </trkpt>
      <trkpt lat="51.460794" lon="0.223765">
        <ele>7.690621</ele>
        <time>2024-08-10T23:54:44.000Z</time>
      </trkpt>
      <trkpt lat="51.460973" lon="0.224086">
        <ele>7.714967</ele>
        <time>2024-08-10T23:54:47.000Z</time>
      </trkpt>
      <trkpt lat="51.461824" lon="0.226206">
        <ele>7.595306</ele>
        <time>2024-08-10T23:55:04.000Z</time>
      </trkpt>
      <trkpt lat="51.461844" lon="0.226369">
        <ele>7.554096</ele>
        <time>2024-08-10T23:55:05.000Z</time>
      </trkpt>
      <trkpt lat="51.461857" lon="0.226729">
        <ele>7.459943</ele>
        <time>2024-08-10T23:55:07.000Z</time>
      </trkpt>
      <trkpt lat="51.461855" lon="0.226902">
        <ele>7.412873</ele>
        <time>2024-08-10T23:55:08.000Z</time>
      </trkpt>
      <trkpt lat="51.461672" lon="0.230493">
        <ele>6.1127</ele>
        <time>2024-08-10T23:55:33.000Z</time>
      </trkpt>
      <trkpt lat="51.461599" lon="0.231146">
        <ele>5.843929</ele>
        <time>2024-08-10T23:55:38.000Z</time>
      </trkpt>
      <trkpt lat="51.461573" lon="0.231352">
        <ele>5.813803</ele>
        <time>2024-08-10T23:55:39.000Z</time>
      </trkpt>
      <trkpt lat="51.46152" lon="0.231602">
        <ele>5.77638</ele>
        <time>2024-08-10T23:55:41.000Z</time>
      </trkpt>
      <trkpt lat="51.461464" lon="0.231824">
        <ele>5.740373</ele>
        <time>2024-08-10T23:55:43.000Z</time>
      </trkpt>
      <trkpt lat="51.461419" lon="0.231954">
        <ele>5.719987</ele>
        <time>2024-08-10T23:55:44.000Z</time>
      </trkpt>
      <trkpt lat="51.461395" lon="0.232071">
        <ele>5.703636</ele>
        <time>2024-08-10T23:55:45.000Z</time>
      </trkpt>
      <trkpt lat="51.461329" lon="0.23225">
        <ele>5.673404</ele>
        <time>2024-08-10T23:55:46.000Z</time>
      </trkpt>
      <trkpt lat="51.461254" lon="0.232395">
        <ele>5.647855</ele>
        <time>2024-08-10T23:55:47.000Z</time>
      </trkpt>
      <trkpt lat="51.460687" lon="0.233724">
        <ele>5.406264</ele>
        <time>2024-08-10T23:55:58.000Z</time>
      </trkpt>
      <trkpt lat="51.460335" lon="0.235041">
        <ele>5.075394</ele>
        <time>2024-08-10T23:56:08.000Z</time>
      </trkpt>
      <trkpt lat="51.460319" lon="0.235222">
        <ele>5.03389</ele>
        <time>2024-08-10T23:56:09.000Z</time>
      </trkpt>
      <trkpt lat="51.460269" lon="0.235733">
        <ele>4.91126</ele>
        <time>2024-08-10T23:56:13.000Z</time>
      </trkpt>
      <trkpt lat="51.460278" lon="0.235739">
        <ele>4.910339</ele>
        <time>2024-08-10T23:56:13.000Z</time>
      </trkpt>
      <trkpt lat="51.460255" lon="0.236054">
        <ele>4.835127</ele>
        <time>2024-08-10T23:56:15.000Z</time>
      </trkpt>
      <trkpt lat="51.460268" lon="0.237583">
        <ele>4.454184</ele>
        <time>2024-08-10T23:56:26.000Z</time>
      </trkpt>
      <trkpt lat="51.460199" lon="0.23817">
        <ele>4.305216</ele>
        <time>2024-08-10T23:56:30.000Z</time>
      </trkpt>
      <trkpt lat="51.460116" lon="0.238645">
        <ele>4.177991</ele>
        <time>2024-08-10T23:56:33.000Z</time>
      </trkpt>
      <trkpt lat="51.460094" lon="0.238696">
        <ele>4.162919</ele>
        <time>2024-08-10T23:56:33.000Z</time>
      </trkpt>
      <trkpt lat="51.460053" lon="0.238848">
        <ele>4.118225</ele>
        <time>2024-08-10T23:56:34.000Z</time>
      </trkpt>
      <trkpt lat="51.459607" lon="0.240162">
        <ele>4.037739</ele>
        <time>2024-08-10T23:56:44.000Z</time>
      </trkpt>
      <trkpt lat="51.459313" lon="0.240736">
        <ele>4.04363</ele>
        <time>2024-08-10T23:56:49.000Z</time>
      </trkpt>
      <trkpt lat="51.458598" lon="0.241559">
        <ele>4.044909</ele>
        <time>2024-08-10T23:56:59.000Z</time>
      </trkpt>
      <trkpt lat="51.458565" lon="0.241611">
        <ele>4.043495</ele>
        <time>2024-08-10T23:57:00.000Z</time>
      </trkpt>
      <trkpt lat="51.458555" lon="0.241616">
        <ele>4.043435</ele>
        <time>2024-08-10T23:57:00.000Z</time>
      </trkpt>
      <trkpt lat="51.458556" lon="0.24161">
        <ele>4.043385</ele>
        <time>2024-08-10T23:57:00.000Z</time>
      </trkpt>
      <trkpt lat="51.458552" lon="0.241619">
        <ele>4.043314</ele>
        <time>2024-08-10T23:57:00.000Z</time>
      </trkpt>
      <trkpt lat="51.458554" lon="0.241622">
        <ele>4.043283</ele>
        <time>2024-08-10T23:57:00.000Z</time>
      </trkpt>
      <trkpt lat="51.458551" lon="0.241619">
        <ele>4.043259</ele>
        <time>2024-08-10T23:57:00.000Z</time>
      </trkpt>
      <trkpt lat="51.458555" lon="0.241613">
        <ele>4.043181</ele>
        <time>2024-08-10T23:57:00.000Z</time>
      </trkpt>
      <trkpt lat="51.458555" lon="0.241612">
        <ele>4.043129</ele>
        <time>2024-08-10T23:57:00.000Z</time>
      </trkpt>
      <trkpt lat="51.458563" lon="0.241603">
        <ele>4.043066</ele>
        <time>2024-08-10T23:57:00.000Z</time>
      </trkpt>
      <trkpt lat="51.458597" lon="0.241564">
        <ele>4.041667</ele>
        <time>2024-08-10T23:57:00.000Z</time>
      </trkpt>
      <trkpt lat="51.459315" lon="0.240732">
        <ele>4.018491</ele>
        <time>2024-08-10T23:57:10.000Z</time>
      </trkpt>
      <trkpt lat="51.459604" lon="0.240161">
        <ele>4.006136</ele>
        <time>2024-08-10T23:57:15.000Z</time>
      </trkpt>
      <trkpt lat="51.460057" lon="0.238846">
        <ele>4.194042</ele>
        <time>2024-08-10T23:57:25.000Z</time>
      </trkpt>
      <trkpt lat="51.460091" lon="0.238688">
        <ele>4.218748</ele>
        <time>2024-08-10T23:57:26.000Z</time>
      </trkpt>
      <trkpt lat="51.460116" lon="0.238642">
        <ele>4.227075</ele>
        <time>2024-08-10T23:57:26.000Z</time>
      </trkpt>
      <trkpt lat="51.460213" lon="0.238155">
        <ele>4.297357</ele>
        <time>2024-08-10T23:57:30.000Z</time>
      </trkpt>
      <trkpt lat="51.460266" lon="0.237589">
        <ele>4.379664</ele>
        <time>2024-08-10T23:57:34.000Z</time>
      </trkpt>
      <trkpt lat="51.460256" lon="0.236061">
        <ele>4.813435</ele>
        <time>2024-08-10T23:57:45.000Z</time>
      </trkpt>
      <trkpt lat="51.460284" lon="0.23574">
        <ele>4.913447</ele>
        <time>2024-08-10T23:57:47.000Z</time>
      </trkpt>
      <trkpt lat="51.460273" lon="0.235734">
        <ele>4.914686</ele>
        <time>2024-08-10T23:57:47.000Z</time>
      </trkpt>
      <trkpt lat="51.460311" lon="0.235211">
        <ele>5.077756</ele>
        <time>2024-08-10T23:57:51.000Z</time>
      </trkpt>
      <trkpt lat="51.460346" lon="0.235037">
        <ele>5.132945</ele>
        <time>2024-08-10T23:57:52.000Z</time>
      </trkpt>
      <trkpt lat="51.460676" lon="0.233728">
        <ele>5.350022</ele>
        <time>2024-08-10T23:58:02.000Z</time>
      </trkpt>
      <trkpt lat="51.461265" lon="0.232392">
        <ele>5.435307</ele>
        <time>2024-08-10T23:58:13.000Z</time>
      </trkpt>
      <trkpt lat="51.461323" lon="0.23224">
        <ele>5.444786</ele>
        <time>2024-08-10T23:58:14.000Z</time>
      </trkpt>
      <trkpt lat="51.461396" lon="0.232066">
        <ele>5.456031</ele>
        <time>2024-08-10T23:58:15.000Z</time>
      </trkpt>
      <trkpt lat="51.461419" lon="0.231956">
        <ele>5.430263</ele>
        <time>2024-08-10T23:58:16.000Z</time>
      </trkpt>
      <trkpt lat="51.461395" lon="0.231964">
        <ele>5.419782</ele>
        <time>2024-08-10T23:58:16.000Z</time>
      </trkpt>
      <trkpt lat="51.461386" lon="0.231953">
        <ele>5.419073</ele>
        <time>2024-08-10T23:58:16.000Z</time>
      </trkpt>
      <trkpt lat="51.461389" lon="0.231957">
        <ele>5.41835</ele>
        <time>2024-08-10T23:58:16.000Z</time>
      </trkpt>
      <trkpt lat="51.461377" lon="0.231961">
        <ele>5.417979</ele>
        <time>2024-08-10T23:58:16.000Z</time>
      </trkpt>
      <trkpt lat="51.461393" lon="0.231958">
        <ele>5.417267</ele>
        <time>2024-08-10T23:58:16.000Z</time>
      </trkpt>
      <trkpt lat="51.461376" lon="0.231964">
        <ele>5.416906</ele>
        <time>2024-08-10T23:58:16.000Z</time>
      </trkpt>
      <trkpt lat="51.461375" lon="0.231954">
        <ele>5.416188</ele>
        <time>2024-08-10T23:58:16.000Z</time>
      </trkpt>
      <trkpt lat="51.461352" lon="0.231958">
        <ele>5.403912</ele>
        <time>2024-08-10T23:58:16.000Z</time>
      </trkpt>
      <trkpt lat="51.460789" lon="0.231894">
        <ele>5.198827</ele>
        <time>2024-08-10T23:58:22.000Z</time>
      </trkpt>
      <trkpt lat="51.460706" lon="0.231907">
        <ele>5.169169</ele>
        <time>2024-08-10T23:58:23.000Z</time>
      </trkpt>
      <trkpt lat="51.460638" lon="0.231908">
        <ele>5.149267</ele>
        <time>2024-08-10T23:58:24.000Z</time>
      </trkpt>
      <trkpt lat="51.460578" lon="0.23192">
        <ele>5.122763</ele>
        <time>2024-08-10T23:58:25.000Z</time>
      </trkpt>
      <trkpt lat="51.46048" lon="0.231992">
        <ele>5.084928</ele>
        <time>2024-08-10T23:58:26.000Z</time>
      </trkpt>
      <trkpt lat="51.460447" lon="0.232041">
        <ele>5.069623</ele>
        <time>2024-08-10T23:58:26.000Z</time>
      </trkpt>
      <trkpt lat="51.460376" lon="0.232115">
        <ele>5.039362</ele>
        <time>2024-08-10T23:58:27.000Z</time>
      </trkpt>
      <trkpt lat="51.460339" lon="0.232143">
        <ele>5.024193</ele>
        <time>2024-08-10T23:58:27.000Z</time>
      </trkpt>
      <trkpt lat="51.46031" lon="0.232127">
        <ele>5.009705</ele>
        <time>2024-08-10T23:58:27.000Z</time>
      </trkpt>
      <trkpt lat="51.460302" lon="0.232142">
        <ele>5.008616</ele>
        <time>2024-08-10T23:58:27.000Z</time>
      </trkpt>
      <trkpt lat="51.460296" lon="0.232132">
        <ele>5.00751</ele>
        <time>2024-08-10T23:58:27.000Z</time>
      </trkpt>
      <trkpt lat="51.460295" lon="0.232128">
        <ele>5.00715</ele>
        <time>2024-08-10T23:58:27.000Z</time>
      </trkpt>
      <trkpt lat="51.460302" lon="0.232125">
        <ele>5.007155</ele>
        <time>2024-08-10T23:58:27.000Z</time>
      </trkpt>
      <trkpt lat="51.460296" lon="0.232136">
        <ele>5.006737</ele>
        <time>2024-08-10T23:58:27.000Z</time>
      </trkpt>
      <trkpt lat="51.460288" lon="0.232133">
        <ele>5.006298</ele>
        <time>2024-08-10T23:58:27.000Z</time>
      </trkpt>
      <trkpt lat="51.460293" lon="0.232128">
        <ele>5.005547</ele>
        <time>2024-08-10T23:58:27.000Z</time>
      </trkpt>
      <trkpt lat="51.460262" lon="0.232098">
        <ele>4.990226</ele>
        <time>2024-08-10T23:58:27.000Z</time>
      </trkpt>
      <trkpt lat="51.460221" lon="0.232051">
        <ele>4.973323</ele>
        <time>2024-08-10T23:58:28.000Z</time>
      </trkpt>
      <trkpt lat="51.460152" lon="0.232059">
        <ele>4.949143</ele>
        <time>2024-08-10T23:58:29.000Z</time>
      </trkpt>
      <trkpt lat="51.459807" lon="0.231973">
        <ele>4.822565</ele>
        <time>2024-08-10T23:58:33.000Z</time>
      </trkpt>
      <trkpt lat="51.459463" lon="0.231506">
        <ele>4.849118</ele>
        <time>2024-08-10T23:58:38.000Z</time>
      </trkpt>
      <trkpt lat="51.459176" lon="0.231325">
        <ele>4.881028</ele>
        <time>2024-08-10T23:58:41.000Z</time>
      </trkpt>
      <trkpt lat="51.459057" lon="0.231326">
        <ele>4.892486</ele>
        <time>2024-08-10T23:58:42.000Z</time>
      </trkpt>
      <trkpt lat="51.459014" lon="0.231373">
        <ele>4.897567</ele>
        <time>2024-08-10T23:58:43.000Z</time>
      </trkpt>
      <trkpt lat="51.458975" lon="0.23139">
        <ele>4.902577</ele>
        <time>2024-08-10T23:58:43.000Z</time>
      </trkpt>
      <trkpt lat="51.458764" lon="0.231589">
        <ele>4.927343</ele>
        <time>2024-08-10T23:58:46.000Z</time>
      </trkpt>
      <trkpt lat="51.458711" lon="0.231624">
        <ele>4.933283</ele>
        <time>2024-08-10T23:58:47.000Z</time>
      </trkpt>
      <trkpt lat="51.458709" lon="0.23163">
        <ele>4.933633</ele>
        <time>2024-08-10T23:58:47.000Z</time>
      </trkpt>
      <trkpt lat="51.458703" lon="0.231642">
        <ele>4.933757</ele>
        <time>2024-08-10T23:58:47.000Z</time>
      </trkpt>
      <trkpt lat="51.458706" lon="0.231635">
        <ele>4.933999</ele>
        <time>2024-08-10T23:58:47.000Z</time>
      </trkpt>
      <trkpt lat="51.458702" lon="0.231632">
        <ele>4.934246</ele>
        <time>2024-08-10T23:58:47.000Z</time>
      </trkpt>
      <trkpt lat="51.458697" lon="0.231633">
        <ele>4.934363</ele>
        <time>2024-08-10T23:58:47.000Z</time>
      </trkpt>
      <trkpt lat="51.458701" lon="0.231641">
        <ele>4.934608</ele>
        <time>2024-08-10T23:58:47.000Z</time>
      </trkpt>
      <trkpt lat="51.4587" lon="0.231647">
        <ele>4.934771</ele>
        <time>2024-08-10T23:58:47.000Z</time>
      </trkpt>
      <trkpt lat="51.458707" lon="0.231647">
        <ele>4.93478</ele>
        <time>2024-08-10T23:58:47.000Z</time>
      </trkpt>
      <trkpt lat="51.458692" lon="0.231648">
        <ele>4.934889</ele>
        <time>2024-08-10T23:58:47.000Z</time>
      </trkpt>
      <trkpt lat="51.458696" lon="0.231646">
        <ele>4.935121</ele>
        <time>2024-08-10T23:58:47.000Z</time>
      </trkpt>
      <trkpt lat="51.458695" lon="0.231656">
        <ele>4.935279</ele>
        <time>2024-08-10T23:58:47.000Z</time>
      </trkpt>
      <trkpt lat="51.458698" lon="0.231644">
        <ele>4.935525</ele>
        <time>2024-08-10T23:58:47.000Z</time>
      </trkpt>
      <trkpt lat="51.458703" lon="0.231645">
        <ele>4.935687</ele>
        <time>2024-08-10T23:58:47.000Z</time>
      </trkpt>
      <trkpt lat="51.458186" lon="0.232574">
        <ele>5.1304</ele>
        <time>2024-08-10T23:58:56.000Z</time>
      </trkpt>
      <trkpt lat="51.458176" lon="0.232573">
        <ele>5.134507</ele>
        <time>2024-08-10T23:58:56.000Z</time>
      </trkpt>
      <trkpt lat="51.458186" lon="0.232586">
        <ele>5.136879</ele>
        <time>2024-08-10T23:58:56.000Z</time>
      </trkpt>
      <trkpt lat="51.458179" lon="0.23258">
        <ele>5.137679</ele>
        <time>2024-08-10T23:58:56.000Z</time>
      </trkpt>
      <trkpt lat="51.458187" lon="0.232581">
        <ele>5.138442</ele>
        <time>2024-08-10T23:58:56.000Z</time>
      </trkpt>
      <trkpt lat="51.458171" lon="0.232594">
        <ele>5.139806</ele>
        <time>2024-08-10T23:58:56.000Z</time>
      </trkpt>
      <trkpt lat="51.458179" lon="0.232593">
        <ele>5.140553</ele>
        <time>2024-08-10T23:58:56.000Z</time>
      </trkpt>
      <trkpt lat="51.458174" lon="0.232593">
        <ele>5.141306</ele>
        <time>2024-08-10T23:58:56.000Z</time>
      </trkpt>
      <trkpt lat="51.458182" lon="0.232595">
        <ele>5.142118</ele>
        <time>2024-08-10T23:58:56.000Z</time>
      </trkpt>
      <trkpt lat="51.458181" lon="0.232603">
        <ele>5.143142</ele>
        <time>2024-08-10T23:58:56.000Z</time>
      </trkpt>
      <trkpt lat="51.458183" lon="0.232602">
        <ele>5.144171</ele>
        <time>2024-08-10T23:58:56.000Z</time>
      </trkpt>
      <trkpt lat="51.458184" lon="0.232601">
        <ele>5.145185</ele>
        <time>2024-08-10T23:58:56.000Z</time>
      </trkpt>
      <trkpt lat="51.458177" lon="0.23261">
        <ele>5.146</ele>
        <time>2024-08-10T23:58:56.000Z</time>
      </trkpt>
      <trkpt lat="51.458178" lon="0.232603">
        <ele>5.147019</ele>
        <time>2024-08-10T23:58:56.000Z</time>
      </trkpt>
      <trkpt lat="51.458178" lon="0.232599">
        <ele>5.14804</ele>
        <time>2024-08-10T23:58:56.000Z</time>
      </trkpt>
      <trkpt lat="51.458178" lon="0.232608">
        <ele>5.149078</ele>
        <time>2024-08-10T23:58:56.000Z</time>
      </trkpt>
      <trkpt lat="51.457793" lon="0.233621">
        <ele>5.623769</ele>
        <time>2024-08-10T23:59:04.000Z</time>
      </trkpt>
      <trkpt lat="51.457468" lon="0.23462">
        <ele>6.068039</ele>
        <time>2024-08-10T23:59:12.000Z</time>
      </trkpt>
      <trkpt lat="51.457466" lon="0.23461">
        <ele>6.068444</ele>
        <time>2024-08-10T23:59:12.000Z</time>
      </trkpt>
      <trkpt lat="51.457474" lon="0.234613">
        <ele>6.069193</ele>
        <time>2024-08-10T23:59:12.000Z</time>
      </trkpt>
      <trkpt lat="51.457466" lon="0.234617">
        <ele>6.069988</ele>
        <time>2024-08-10T23:59:12.000Z</time>
      </trkpt>
      <trkpt lat="51.457475" lon="0.234609">
        <ele>6.070801</ele>
        <time>2024-08-10T23:59:12.000Z</time>
      </trkpt>
      <trkpt lat="51.457463" lon="0.234622">
        <ele>6.071554</ele>
        <time>2024-08-10T23:59:12.000Z</time>
      </trkpt>
      <trkpt lat="51.457478" lon="0.234621">
        <ele>6.072352</ele>
        <time>2024-08-10T23:59:12.000Z</time>
      </trkpt>
      <trkpt lat="51.457463" lon="0.234616">
        <ele>6.073723</ele>
        <time>2024-08-10T23:59:12.000Z</time>
      </trkpt>
      <trkpt lat="51.457474" lon="0.234629">
        <ele>6.074515</ele>
        <time>2024-08-10T23:59:12.000Z</time>
      </trkpt>
      <trkpt lat="51.457478" lon="0.234618">
        <ele>6.075276</ele>
        <time>2024-08-10T23:59:12.000Z</time>
      </trkpt>
      <trkpt lat="51.457468" lon="0.234622">
        <ele>6.076475</ele>
        <time>2024-08-10T23:59:12.000Z</time>
      </trkpt>
      <trkpt lat="51.457477" lon="0.234638">
        <ele>6.077225</ele>
        <time>2024-08-10T23:59:12.000Z</time>
      </trkpt>
      <trkpt lat="51.457463" lon="0.234633">
        <ele>6.078423</ele>
        <time>2024-08-10T23:59:12.000Z</time>
      </trkpt>
      <trkpt lat="51.457463" lon="0.234633">
        <ele>6.080538</ele>
        <time>2024-08-10T23:59:12.000Z</time>
      </trkpt>
      <trkpt lat="51.456915" lon="0.236939">
        <ele>7.118632</ele>
        <time>2024-08-10T23:59:29.000Z</time>
      </trkpt>
      <trkpt lat="51.456904" lon="0.236975">
        <ele>7.132259</ele>
        <time>2024-08-10T23:59:29.000Z</time>
      </trkpt>
      <trkpt lat="51.456907" lon="0.236968">
        <ele>7.133682</ele>
        <time>2024-08-10T23:59:29.000Z</time>
      </trkpt>
      <trkpt lat="51.456895" lon="0.236981">
        <ele>7.134775</ele>
        <time>2024-08-10T23:59:29.000Z</time>
      </trkpt>
      <trkpt lat="51.45691" lon="0.236973">
        <ele>7.135622</ele>
        <time>2024-08-10T23:59:29.000Z</time>
      </trkpt>
      <trkpt lat="51.4569" lon="0.236982">
        <ele>7.136698</ele>
        <time>2024-08-10T23:59:29.000Z</time>
      </trkpt>
      <trkpt lat="51.456899" lon="0.236974">
        <ele>7.137779</ele>
        <time>2024-08-10T23:59:29.000Z</time>
      </trkpt>
      <trkpt lat="51.456906" lon="0.236989">
        <ele>7.139603</ele>
        <time>2024-08-10T23:59:29.000Z</time>
      </trkpt>
      <trkpt lat="51.456907" lon="0.23698">
        <ele>7.140391</ele>
        <time>2024-08-10T23:59:29.000Z</time>
      </trkpt>
      <trkpt lat="51.456903" lon="0.236984">
        <ele>7.141237</ele>
        <time>2024-08-10T23:59:29.000Z</time>
      </trkpt>
      <trkpt lat="51.456907" lon="0.23698">
        <ele>7.142314</ele>
        <time>2024-08-10T23:59:29.000Z</time>
      </trkpt>
      <trkpt lat="51.456548" lon="0.237939">
        <ele>7.659536</ele>
        <time>2024-08-10T23:59:37.000Z</time>
      </trkpt>
      <trkpt lat="51.456544" lon="0.237971">
        <ele>7.675761</ele>
        <time>2024-08-10T23:59:37.000Z</time>
      </trkpt>
      <trkpt lat="51.456534" lon="0.237979">
        <ele>7.678805</ele>
        <time>2024-08-10T23:59:37.000Z</time>
      </trkpt>
      <trkpt lat="51.456541" lon="0.237979">
        <ele>7.679786</ele>
        <time>2024-08-10T23:59:37.000Z</time>
      </trkpt>
      <trkpt lat="51.456544" lon="0.237973">
        <ele>7.681527</ele>
        <time>2024-08-10T23:59:37.000Z</time>
      </trkpt>
      <trkpt lat="51.456537" lon="0.23798">
        <ele>7.682859</ele>
        <time>2024-08-10T23:59:37.000Z</time>
      </trkpt>
      <trkpt lat="51.456546" lon="0.237988">
        <ele>7.684794</ele>
        <time>2024-08-10T23:59:37.000Z</time>
      </trkpt>
      <trkpt lat="51.456531" lon="0.237993">
        <ele>7.686107</ele>
        <time>2024-08-10T23:59:37.000Z</time>
      </trkpt>
      <trkpt lat="51.456541" lon="0.237995">
        <ele>7.687863</ele>
        <time>2024-08-10T23:59:37.000Z</time>
      </trkpt>
      <trkpt lat="51.456533" lon="0.237994">
        <ele>7.690494</ele>
        <time>2024-08-10T23:59:37.000Z</time>
      </trkpt>
      <trkpt lat="51.456535" lon="0.237994">
        <ele>7.692244</ele>
        <time>2024-08-10T23:59:37.000Z</time>
      </trkpt>
      <trkpt lat="51.456528" lon="0.238004">
        <ele>7.693215</ele>
        <time>2024-08-10T23:59:37.000Z</time>
      </trkpt>
      <trkpt lat="51.456522" lon="0.23799">
        <ele>7.69455</ele>
        <time>2024-08-10T23:59:37.000Z</time>
      </trkpt>
      <trkpt lat="51.456539" lon="0.237998">
        <ele>7.696284</ele>
        <time>2024-08-10T23:59:37.000Z</time>
      </trkpt>
      <trkpt lat="51.456075" lon="0.238915">
        <ele>8.297422</ele>
        <time>2024-08-10T23:59:45.000Z</time>
      </trkpt>
      <trkpt lat="51.455859" lon="0.23929">
        <ele>8.566286</ele>
        <time>2024-08-10T23:59:49.000Z</time>
      </trkpt>
      <trkpt lat="51.455862" lon="0.239296">
        <ele>8.568534</ele>
        <time>2024-08-10T23:59:49.000Z</time>
      </trkpt>
      <trkpt lat="51.455853" lon="0.239296">
        <ele>8.570486</ele>
        <time>2024-08-10T23:59:49.000Z</time>
      </trkpt>
      <trkpt lat="51.455855" lon="0.239304">
        <ele>8.572235</ele>
        <time>2024-08-10T23:59:49.000Z</time>
      </trkpt>
      <trkpt lat="51.455844" lon="0.239315">
        <ele>8.57321</ele>
        <time>2024-08-10T23:59:49.000Z</time>
      </trkpt>
      <trkpt lat="51.455857" lon="0.239307">
        <ele>8.574183</ele>
        <time>2024-08-10T23:59:49.000Z</time>
      </trkpt>
      <trkpt lat="51.455852" lon="0.239312">
        <ele>8.575499</ele>
        <time>2024-08-10T23:59:49.000Z</time>
      </trkpt>
      <trkpt lat="51.455844" lon="0.239314">
        <ele>8.576819</ele>
        <time>2024-08-10T23:59:49.000Z</time>
      </trkpt>
      <trkpt lat="51.455853" lon="0.239304">
        <ele>8.577797</ele>
        <time>2024-08-10T23:59:49.000Z</time>
      </trkpt>
      <trkpt lat="51.455839" lon="0.239308">
        <ele>8.579107</ele>
        <time>2024-08-10T23:59:49.000Z</time>
      </trkpt>
      <trkpt lat="51.455775" lon="0.239438">
        <ele>8.667612</ele>
        <time>2024-08-10T23:59:50.000Z</time>
      </trkpt>
      <trkpt lat="51.455132" lon="0.240233">
        <ele>8.967613</ele>
        <time>2024-08-10T23:59:59.000Z</time>
      </trkpt>
      <trkpt lat="51.455129" lon="0.24024">
        <ele>8.968387</ele>
        <time>2024-08-10T23:59:59.000Z</time>
      </trkpt>
      <trkpt lat="51.455121" lon="0.24024">
        <ele>8.968624</ele>
        <time>2024-08-10T23:59:59.000Z</time>
      </trkpt>
      <trkpt lat="51.455113" lon="0.240248">
        <ele>8.968854</ele>
        <time>2024-08-10T23:59:59.000Z</time>
      </trkpt>
      <trkpt lat="51.455109" lon="0.240237">
        <ele>8.969081</ele>
        <time>2024-08-10T23:59:59.000Z</time>
      </trkpt>
      <trkpt lat="51.455109" lon="0.24024">
        <ele>8.969309</ele>
        <time>2024-08-10T23:59:59.000Z</time>
      </trkpt>
      <trkpt lat="51.455109" lon="0.240239">
        <ele>8.969554</ele>
        <time>2024-08-10T23:59:59.000Z</time>
      </trkpt>
      <trkpt lat="51.455119" lon="0.240247">
        <ele>8.970078</ele>
        <time>2024-08-10T23:59:59.000Z</time>
      </trkpt>
      <trkpt lat="51.455108" lon="0.240249">
        <ele>8.970317</ele>
        <time>2024-08-10T23:59:59.000Z</time>
      </trkpt>
      <trkpt lat="51.455119" lon="0.240253">
        <ele>8.970627</ele>
        <time>2024-08-10T23:59:59.000Z</time>
      </trkpt>
      <trkpt lat="51.455108" lon="0.240246">
        <ele>8.971097</ele>
        <time>2024-08-10T23:59:59.000Z</time>
      </trkpt>
      <trkpt lat="51.455099" lon="0.240248">
        <ele>8.971646</ele>
        <time>2024-08-10T23:59:59.000Z</time>
      </trkpt>
      <trkpt lat="51.455112" lon="0.240253">
        <ele>8.972106</ele>
        <time>2024-08-10T23:59:59.000Z</time>
      </trkpt>
      <trkpt lat="51.4551" lon="0.240262">
        <ele>8.972342</ele>
        <time>2024-08-10T23:59:59.000Z</time>
      </trkpt>
      <trkpt lat="51.455072" lon="0.240293">
        <ele>8.978027</ele>
        <time>2024-08-10T23:59:59.000Z</time>
      </trkpt>
      <trkpt lat="51.454684" lon="0.24061">
        <ele>9.065942</ele>
        <time>2024-08-11T00:00:04.000Z</time>
      </trkpt>
      <trkpt lat="51.4546" lon="0.240692">
        <ele>9.083345</ele>
        <time>2024-08-11T00:00:05.000Z</time>
      </trkpt>
      <trkpt lat="51.45461" lon="0.240677">
        <ele>9.083755</ele>
        <time>2024-08-11T00:00:05.000Z</time>
      </trkpt>
      <trkpt lat="51.454595" lon="0.240688">
        <ele>9.084222</ele>
        <time>2024-08-11T00:00:05.000Z</time>
      </trkpt>
      <trkpt lat="51.454596" lon="0.240688">
        <ele>9.084456</ele>
        <time>2024-08-11T00:00:05.000Z</time>
      </trkpt>
      <trkpt lat="51.454607" lon="0.240687">
        <ele>9.084915</ele>
        <time>2024-08-11T00:00:05.000Z</time>
      </trkpt>
      <trkpt lat="51.454603" lon="0.240688">
        <ele>9.084929</ele>
        <time>2024-08-11T00:00:05.000Z</time>
      </trkpt>
      <trkpt lat="51.454592" lon="0.240681">
        <ele>9.084927</ele>
        <time>2024-08-11T00:00:05.000Z</time>
      </trkpt>
      <trkpt lat="51.455118" lon="0.240242">
        <ele>9.199389</ele>
        <time>2024-08-11T00:00:12.000Z</time>
      </trkpt>
      <trkpt lat="51.455119" lon="0.24025">
        <ele>9.199389</ele>
        <time>2024-08-11T00:00:12.000Z</time>
      </trkpt>
      <trkpt lat="51.45549" lon="0.239778">
        <ele>8.895237</ele>
        <time>2024-08-11T00:00:17.000Z</time>
      </trkpt>
      <trkpt lat="51.455852" lon="0.239298">
        <ele>8.564379</ele>
        <time>2024-08-11T00:00:22.000Z</time>
      </trkpt>
      <trkpt lat="51.455851" lon="0.239309">
        <ele>8.564374</ele>
        <time>2024-08-11T00:00:22.000Z</time>
      </trkpt>
      <trkpt lat="51.456196" lon="0.238634">
        <ele>8.190083</ele>
        <time>2024-08-11T00:00:28.000Z</time>
      </trkpt>
      <trkpt lat="51.456545" lon="0.237976">
        <ele>7.820979</ele>
        <time>2024-08-11T00:00:34.000Z</time>
      </trkpt>
      <trkpt lat="51.456545" lon="0.237987">
        <ele>7.820978</ele>
        <time>2024-08-11T00:00:34.000Z</time>
      </trkpt>
      <trkpt lat="51.4569" lon="0.236981">
        <ele>7.335819</ele>
        <time>2024-08-11T00:00:42.000Z</time>
      </trkpt>
      <trkpt lat="51.456903" lon="0.23699">
        <ele>7.335825</ele>
        <time>2024-08-11T00:00:42.000Z</time>
      </trkpt>
      <trkpt lat="51.457185" lon="0.23581">
        <ele>6.803538</ele>
        <time>2024-08-11T00:00:51.000Z</time>
      </trkpt>
      <trkpt lat="51.457468" lon="0.234618">
        <ele>6.302567</ele>
        <time>2024-08-11T00:01:00.000Z</time>
      </trkpt>
      <trkpt lat="51.457478" lon="0.234627">
        <ele>6.302568</ele>
        <time>2024-08-11T00:01:00.000Z</time>
      </trkpt>
      <trkpt lat="51.457818" lon="0.233609">
        <ele>5.846079</ele>
        <time>2024-08-11T00:01:08.000Z</time>
      </trkpt>
      <trkpt lat="51.458177" lon="0.232585">
        <ele>5.547951</ele>
        <time>2024-08-11T00:01:16.000Z</time>
      </trkpt>
      <trkpt lat="51.45818" lon="0.232595">
        <ele>5.547946</ele>
        <time>2024-08-11T00:01:16.000Z</time>
      </trkpt>
      <trkpt lat="51.458706" lon="0.23165">
        <ele>5.420274</ele>
        <time>2024-08-11T00:01:25.000Z</time>
      </trkpt>
      <trkpt lat="51.458708" lon="0.231639">
        <ele>5.420276</ele>
        <time>2024-08-11T00:01:25.000Z</time>
      </trkpt>
      <trkpt lat="51.459112" lon="0.231191">
        <ele>5.339942</ele>
        <time>2024-08-11T00:01:30.000Z</time>
      </trkpt>
      <trkpt lat="51.459116" lon="0.231203">
        <ele>5.339949</ele>
        <time>2024-08-11T00:01:30.000Z</time>
      </trkpt>
      <trkpt lat="51.459117" lon="0.231199">
        <ele>5.339951</ele>
        <time>2024-08-11T00:01:30.000Z</time>
      </trkpt>
      <trkpt lat="51.459155" lon="0.230616">
        <ele>5.388642</ele>
        <time>2024-08-11T00:01:34.000Z</time>
      </trkpt>
      <trkpt lat="51.459144" lon="0.230611">
        <ele>5.388644</ele>
        <time>2024-08-11T00:01:34.000Z</time>
      </trkpt>
      <trkpt lat="51.45915" lon="0.230619">
        <ele>5.388642</ele>
        <time>2024-08-11T00:01:34.000Z</time>
      </trkpt>
      <trkpt lat="51.459268" lon="0.229846">
        <ele>5.590295</ele>
        <time>2024-08-11T00:01:40.000Z</time>
      </trkpt>
      <trkpt lat="51.459406" lon="0.229067">
        <ele>5.792195</ele>
        <time>2024-08-11T00:01:46.000Z</time>
      </trkpt>
      <trkpt lat="51.459399" lon="0.229067">
        <ele>5.792205</ele>
        <time>2024-08-11T00:01:46.000Z</time>
      </trkpt>
      <trkpt lat="51.459407" lon="0.229075">
        <ele>5.792207</ele>
        <time>2024-08-11T00:01:46.000Z</time>
      </trkpt>
      <trkpt lat="51.45945" lon="0.228167">
        <ele>6.019969</ele>
        <time>2024-08-11T00:01:52.000Z</time>
      </trkpt>
      <trkpt lat="51.459497" lon="0.227267">
        <ele>6.156995</ele>
        <time>2024-08-11T00:01:58.000Z</time>
      </trkpt>
      <trkpt lat="51.4595" lon="0.227258">
        <ele>6.156995</ele>
        <time>2024-08-11T00:01:58.000Z</time>
      </trkpt>
      <trkpt lat="51.459506" lon="0.227273">
        <ele>6.156998</ele>
        <time>2024-08-11T00:01:58.000Z</time>
      </trkpt>
      <trkpt lat="51.459477" lon="0.226083">
        <ele>6.325475</ele>
        <time>2024-08-11T00:02:06.000Z</time>
      </trkpt>
      <trkpt lat="51.459459" lon="0.224904">
        <ele>6.451173</ele>
        <time>2024-08-11T00:02:14.000Z</time>
      </trkpt>
      <trkpt lat="51.459442" lon="0.223723">
        <ele>6.453822</ele>
        <time>2024-08-11T00:02:22.000Z</time>
      </trkpt>
      <trkpt lat="51.45944" lon="0.223721">
        <ele>6.453813</ele>
        <time>2024-08-11T00:02:22.000Z</time>
      </trkpt>
      <trkpt lat="51.459389" lon="0.22265">
        <ele>6.456212</ele>
        <time>2024-08-11T00:02:29.000Z</time>
      </trkpt>
      <trkpt lat="51.459355" lon="0.221595">
        <ele>6.448325</ele>
        <time>2024-08-11T00:02:36.000Z</time>
      </trkpt>
      <trkpt lat="51.459299" lon="0.220519">
        <ele>6.435807</ele>
        <time>2024-08-11T00:02:43.000Z</time>
      </trkpt>
      <trkpt lat="51.459289" lon="0.220523">
        <ele>6.435759</ele>
        <time>2024-08-11T00:02:43.000Z</time>
      </trkpt>
      <trkpt lat="51.459297" lon="0.22053">
        <ele>6.435692</ele>
        <time>2024-08-11T00:02:43.000Z</time>
      </trkpt>
      <trkpt lat="51.459302" lon="0.220539">
        <ele>6.435671</ele>
        <time>2024-08-11T00:02:43.000Z</time>
      </trkpt>
      <trkpt lat="51.459309" lon="0.221239">
        <ele>6.427507</ele>
        <time>2024-08-11T00:02:48.000Z</time>
      </trkpt>
      <trkpt lat="51.459447" lon="0.223722">
        <ele>6.49448</ele>
        <time>2024-08-11T00:03:05.000Z</time>
      </trkpt>
      <trkpt lat="51.459503" lon="0.227306">
        <ele>6.448733</ele>
        <time>2024-08-11T00:03:30.000Z</time>
      </trkpt>
      <trkpt lat="51.459475" lon="0.228232">
        <ele>6.096675</ele>
        <time>2024-08-11T00:03:36.000Z</time>
      </trkpt>
      <trkpt lat="51.459366" lon="0.229417">
        <ele>5.609973</ele>
        <time>2024-08-11T00:03:44.000Z</time>
      </trkpt>
      <trkpt lat="51.459306" lon="0.229787">
        <ele>5.452849</ele>
        <time>2024-08-11T00:03:47.000Z</time>
      </trkpt>
      <trkpt lat="51.459179" lon="0.230432">
        <ele>5.24048</ele>
        <time>2024-08-11T00:03:52.000Z</time>
      </trkpt>
      <trkpt lat="51.459135" lon="0.230716">
        <ele>5.206778</ele>
        <time>2024-08-11T00:03:54.000Z</time>
      </trkpt>
      <trkpt lat="51.45914" lon="0.230978">
        <ele>5.176064</ele>
        <time>2024-08-11T00:03:56.000Z</time>
      </trkpt>
      <trkpt lat="51.459132" lon="0.231002">
        <ele>5.171842</ele>
        <time>2024-08-11T00:03:56.000Z</time>
      </trkpt>
      <trkpt lat="51.459215" lon="0.231117">
        <ele>5.150533</ele>
        <time>2024-08-11T00:03:57.000Z</time>
      </trkpt>
      <trkpt lat="51.459475" lon="0.23134">
        <ele>5.094652</ele>
        <time>2024-08-11T00:04:00.000Z</time>
      </trkpt>
      <trkpt lat="51.459786" lon="0.231785">
        <ele>5.01425</ele>
        <time>2024-08-11T00:04:05.000Z</time>
      </trkpt>
      <trkpt lat="51.460021" lon="0.231902">
        <ele>4.968513</ele>
        <time>2024-08-11T00:04:08.000Z</time>
      </trkpt>
      <trkpt lat="51.460131" lon="0.231878">
        <ele>4.946397</ele>
        <time>2024-08-11T00:04:09.000Z</time>
      </trkpt>
      <trkpt lat="51.460205" lon="0.231819">
        <ele>4.931236</ele>
        <time>2024-08-11T00:04:10.000Z</time>
      </trkpt>
      <trkpt lat="51.460213" lon="0.231758">
        <ele>4.925544</ele>
        <time>2024-08-11T00:04:10.000Z</time>
      </trkpt>
      <trkpt lat="51.460265" lon="0.231696">
        <ele>4.950625</ele>
        <time>2024-08-11T00:04:11.000Z</time>
      </trkpt>
      <trkpt lat="51.460307" lon="0.231663">
        <ele>4.98279</ele>
        <time>2024-08-11T00:04:12.000Z</time>
      </trkpt>
      <trkpt lat="51.460378" lon="0.231676">
        <ele>5.014203</ele>
        <time>2024-08-11T00:04:13.000Z</time>
      </trkpt>
      <trkpt lat="51.460412" lon="0.23171">
        <ele>5.039109</ele>
        <time>2024-08-11T00:04:13.000Z</time>
      </trkpt>
      <trkpt lat="51.46045" lon="0.23177">
        <ele>5.063649</ele>
        <time>2024-08-11T00:04:14.000Z</time>
      </trkpt>
      <trkpt lat="51.460555" lon="0.231809">
        <ele>5.117498</ele>
        <time>2024-08-11T00:04:15.000Z</time>
      </trkpt>
      <trkpt lat="51.460646" lon="0.231846">
        <ele>5.174263</ele>
        <time>2024-08-11T00:04:16.000Z</time>
      </trkpt>
      <trkpt lat="51.460774" lon="0.231886">
        <ele>5.240864</ele>
        <time>2024-08-11T00:04:17.000Z</time>
      </trkpt>
      <trkpt lat="51.461347" lon="0.231963">
        <ele>5.537835</ele>
        <time>2024-08-11T00:04:23.000Z</time>
      </trkpt>
      <trkpt lat="51.461429" lon="0.231963">
        <ele>5.575969</ele>
        <time>2024-08-11T00:04:24.000Z</time>
      </trkpt>
      <trkpt lat="51.461466" lon="0.231823">
        <ele>5.622946</ele>
        <time>2024-08-11T00:04:25.000Z</time>
      </trkpt>
      <trkpt lat="51.461529" lon="0.231599">
        <ele>5.705906</ele>
        <time>2024-08-11T00:04:27.000Z</time>
      </trkpt>
      <trkpt lat="51.461569" lon="0.231347">
        <ele>5.79218</ele>
        <time>2024-08-11T00:04:29.000Z</time>
      </trkpt>
      <trkpt lat="51.461603" lon="0.231136">
        <ele>5.861591</ele>
        <time>2024-08-11T00:04:31.000Z</time>
      </trkpt>
      <trkpt lat="51.461674" lon="0.230495">
        <ele>6.136039</ele>
        <time>2024-08-11T00:04:36.000Z</time>
      </trkpt>
      <trkpt lat="51.461858" lon="0.226905">
        <ele>7.432868</ele>
        <time>2024-08-11T00:05:01.000Z</time>
      </trkpt>
      <trkpt lat="51.461869" lon="0.226726">
        <ele>7.477672</ele>
        <time>2024-08-11T00:05:02.000Z</time>
      </trkpt>
      <trkpt lat="51.461844" lon="0.22637">
        <ele>7.567314</ele>
        <time>2024-08-11T00:05:04.000Z</time>
      </trkpt>
      <trkpt lat="51.461829" lon="0.226204">
        <ele>7.606529</ele>
        <time>2024-08-11T00:05:05.000Z</time>
      </trkpt>
      <trkpt lat="51.460968" lon="0.224083">
        <ele>7.714761</ele>
        <time>2024-08-11T00:05:23.000Z</time>
      </trkpt>
      <trkpt lat="51.46079" lon="0.223762">
        <ele>7.690403</ele>
        <time>2024-08-11T00:05:26.000Z</time>
      </trkpt>
      <trkpt lat="51.460536" lon="0.223448">
        <ele>7.660731</ele>
        <time>2024-08-11T00:05:30.000Z</time>
      </trkpt>
      <trkpt lat="51.460502" lon="0.223423">
        <ele>7.657865</ele>
        <time>2024-08-11T00:05:30.000Z</time>
      </trkpt>
      <trkpt lat="51.460503" lon="0.223415">
        <ele>7.656928</ele>
        <time>2024-08-11T00:05:30.000Z</time>
      </trkpt>
      <trkpt lat="51.460489" lon="0.223407">
        <ele>7.656943</ele>
        <time>2024-08-11T00:05:30.000Z</time>
      </trkpt>
      <trkpt lat="51.4605" lon="0.223411">
        <ele>7.656943</ele>
        <time>2024-08-11T00:05:30.000Z</time>
      </trkpt>
      <trkpt lat="51.460497" lon="0.223423">
        <ele>7.656002</ele>
        <time>2024-08-11T00:05:30.000Z</time>
      </trkpt>
      <trkpt lat="51.460529" lon="0.223434">
        <ele>7.653134</ele>
        <time>2024-08-11T00:05:30.000Z</time>
      </trkpt>
      <trkpt lat="51.460794" lon="0.223756">
        <ele>7.671811</ele>
        <time>2024-08-11T00:05:34.000Z</time>
      </trkpt>
      <trkpt lat="51.460966" lon="0.224093">
        <ele>7.695069</ele>
        <time>2024-08-11T00:05:37.000Z</time>
      </trkpt>
      <trkpt lat="51.461828" lon="0.226202">
        <ele>7.645123</ele>
        <time>2024-08-11T00:05:54.000Z</time>
      </trkpt>
      <trkpt lat="51.461851" lon="0.226365">
        <ele>7.596126</ele>
        <time>2024-08-11T00:05:55.000Z</time>
      </trkpt>
      <trkpt lat="51.461854" lon="0.226717">
        <ele>7.484134</ele>
        <time>2024-08-11T00:05:57.000Z</time>
      </trkpt>
      <trkpt lat="51.461853" lon="0.226906">
        <ele>7.42815</ele>
        <time>2024-08-11T00:05:58.000Z</time>
      </trkpt>
      <trkpt lat="51.461661" lon="0.230495">
        <ele>6.137514</ele>
        <time>2024-08-11T00:06:23.000Z</time>
      </trkpt>
      <trkpt lat="51.461616" lon="0.231133">
        <ele>5.880328</ele>
        <time>2024-08-11T00:06:27.000Z</time>
      </trkpt>
      <trkpt lat="51.461566" lon="0.231341">
        <ele>5.795029</ele>
        <time>2024-08-11T00:06:29.000Z</time>
      </trkpt>
      <trkpt lat="51.461514" lon="0.231587">
        <ele>5.736042</ele>
        <time>2024-08-11T00:06:31.000Z</time>
      </trkpt>
      <trkpt lat="51.461468" lon="0.231833">
        <ele>5.704959</ele>
        <time>2024-08-11T00:06:33.000Z</time>
      </trkpt>
      <trkpt lat="51.461429" lon="0.23195">
        <ele>5.687376</ele>
        <time>2024-08-11T00:06:34.000Z</time>
      </trkpt>
      <trkpt lat="51.461386" lon="0.232055">
        <ele>5.673243</ele>
        <time>2024-08-11T00:06:35.000Z</time>
      </trkpt>
      <trkpt lat="51.46132" lon="0.23224">
        <ele>5.647158</ele>
        <time>2024-08-11T00:06:36.000Z</time>
      </trkpt>
      <trkpt lat="51.461255" lon="0.232406">
        <ele>5.625113</ele>
        <time>2024-08-11T00:06:37.000Z</time>
      </trkpt>
      <trkpt lat="51.460671" lon="0.233728">
        <ele>5.427074</ele>
        <time>2024-08-11T00:06:48.000Z</time>
      </trkpt>
      <trkpt lat="51.460332" lon="0.23504">
        <ele>5.081912</ele>
        <time>2024-08-11T00:06:58.000Z</time>
      </trkpt>
      <trkpt lat="51.460319" lon="0.235214">
        <ele>5.035421</ele>
        <time>2024-08-11T00:06:59.000Z</time>
      </trkpt>
      <trkpt lat="51.460281" lon="0.235742">
        <ele>4.898031</ele>
        <time>2024-08-11T00:07:03.000Z</time>
      </trkpt>
      <trkpt lat="51.460283" lon="0.235737">
        <ele>4.896987</ele>
        <time>2024-08-11T00:07:03.000Z</time>
      </trkpt>
      <trkpt lat="51.460251" lon="0.236054">
        <ele>4.812737</ele>
        <time>2024-08-11T00:07:05.000Z</time>
      </trkpt>
      <trkpt lat="51.460266" lon="0.237579">
        <ele>4.451122</ele>
        <time>2024-08-11T00:07:16.000Z</time>
      </trkpt>
      <trkpt lat="51.460205" lon="0.238162">
        <ele>4.321329</ele>
        <time>2024-08-11T00:07:20.000Z</time>
      </trkpt>
      <trkpt lat="51.460113" lon="0.238644">
        <ele>4.210513</ele>
        <time>2024-08-11T00:07:23.000Z</time>
      </trkpt>
      <trkpt lat="51.460096" lon="0.238685">
        <ele>4.19737</ele>
        <time>2024-08-11T00:07:23.000Z</time>
      </trkpt>
      <trkpt lat="51.460056" lon="0.238841">
        <ele>4.158427</ele>
        <time>2024-08-11T00:07:24.000Z</time>
      </trkpt>
      <trkpt lat="51.459608" lon="0.240151">
        <ele>4.022904</ele>
        <time>2024-08-11T00:07:34.000Z</time>
      </trkpt>
      <trkpt lat="51.459311" lon="0.240737">
        <ele>4.034388</ele>
        <time>2024-08-11T00:07:39.000Z</time>
      </trkpt>
      <trkpt lat="51.458604" lon="0.241562">
        <ele>4.053092</ele>
        <time>2024-08-11T00:07:49.000Z</time>
      </trkpt>
      <trkpt lat="51.458551" lon="0.241616">
        <ele>4.051533</ele>
        <time>2024-08-11T00:07:50.000Z</time>
      </trkpt>
      <trkpt lat="51.458562" lon="0.24161">
        <ele>4.051452</ele>
        <time>2024-08-11T00:07:50.000Z</time>
      </trkpt>
      <trkpt lat="51.458559" lon="0.241611">
        <ele>4.051402</ele>
        <time>2024-08-11T00:07:50.000Z</time>
      </trkpt>
      <trkpt lat="51.45856" lon="0.241613">
        <ele>4.051334</ele>
        <time>2024-08-11T00:07:50.000Z</time>
      </trkpt>
      <trkpt lat="51.45855" lon="0.241616">
        <ele>4.051294</ele>
        <time>2024-08-11T00:07:50.000Z</time>
      </trkpt>
      <trkpt lat="51.458553" lon="0.241619">
        <ele>4.051262</ele>
        <time>2024-08-11T00:07:50.000Z</time>
      </trkpt>
      <trkpt lat="51.458553" lon="0.241611">
        <ele>4.051193</ele>
        <time>2024-08-11T00:07:50.000Z</time>
      </trkpt>
      <trkpt lat="51.458563" lon="0.241602">
        <ele>4.051136</ele>
        <time>2024-08-11T00:07:50.000Z</time>
      </trkpt>
      <trkpt lat="51.458551" lon="0.241598">
        <ele>4.051053</ele>
        <time>2024-08-11T00:07:50.000Z</time>
      </trkpt>
      <trkpt lat="51.458607" lon="0.241561">
        <ele>4.049496</ele>
        <time>2024-08-11T00:07:51.000Z</time>
      </trkpt>
      <trkpt lat="51.459312" lon="0.240732">
        <ele>4.023823</ele>
        <time>2024-08-11T00:08:01.000Z</time>
      </trkpt>
      <trkpt lat="51.459596" lon="0.24016">
        <ele>4.010135</ele>
        <time>2024-08-11T00:08:06.000Z</time>
      </trkpt>
      <trkpt lat="51.460044" lon="0.238845">
        <ele>3.99527329921</ele>
        <time>2024-08-11T00:08:16.000Z</time>
      </trkpt>
      <trkpt lat="51.460102" lon="0.238686">
        <ele>3.99344630484</ele>
        <time>2024-08-11T00:08:17.000Z</time>
      </trkpt>
      <trkpt lat="51.460115" lon="0.238634">
        <ele>3.99289071009</ele>
        <time>2024-08-11T00:08:17.000Z</time>
      </trkpt>
      <trkpt lat="51.460215" lon="0.238165">
        <ele>3.98797530383</ele>
        <time>2024-08-11T00:08:20.000Z</time>
      </trkpt>
      <trkpt lat="51.460267" lon="0.237587">
        <ele>3.98218439888</ele>
        <time>2024-08-11T00:08:24.000Z</time>
      </trkpt>
      <trkpt lat="51.46025" lon="0.236055">
        <ele>3.96699064056</ele>
        <time>2024-08-11T00:08:35.000Z</time>
      </trkpt>
      <trkpt lat="51.46028" lon="0.235735">
        <ele>3.96378179363</ele>
        <time>2024-08-11T00:08:37.000Z</time>
      </trkpt>
    </trkseg>
  </trk>
</gpx>

<!--
Performance optimized by W3 Total Cache. Learn more: https://www.boldgrid.com/w3-total-cache/?utm_source=w3tc&utm_medium=footer_comment&utm_campaign=free_plugin

Page Caching using Disk: Enhanced{w3tc_pagecache_reject_reason} 

Served from: www.aquabike.world @ 2026-05-10 04:29:34 by W3 Total Cache
-->